<?xml version='1.0' encoding='UTF-8'?><gpx version="1.1" creator="JPX - https://github.com/jenetics/jpx" xmlns="http://www.topografix.com/GPX/1/1"><trk><trkseg><trkpt lat="44.61575562931209" lon="11.66066668330306"><ele>7.000000000000001</ele><time>2026-04-04T12:39:23.997Z</time></trkpt><trkpt lat="44.615739384618635" lon="11.660766594808198"><ele>7.0</ele><time>2026-04-04T12:39:25.997Z</time></trkpt><trkpt lat="44.61569677722495" lon="11.660881623215303"><ele>7.0</ele><time>2026-04-04T12:39:27.997Z</time></trkpt><trkpt lat="44.61564310582438" lon="11.661004893447497"><ele>7.0</ele><time>2026-04-04T12:39:29.997Z</time></trkpt><trkpt lat="44.61560940844251" lon="11.661087335079607"><ele>7.000000000000001</ele><time>2026-04-04T12:39:30.998Z</time></trkpt><trkpt lat="44.61555803981627" lon="11.66117594177542"><ele>7.0</ele><time>2026-04-04T12:39:31.998Z</time></trkpt><trkpt lat="44.615491134011364" lon="11.661304423579605"><ele>6.75</ele><time>2026-04-04T12:39:32.998Z</time></trkpt><trkpt lat="44.615424108415496" lon="11.661430739475461"><ele>6.5</ele><time>2026-04-04T12:39:33.998Z</time></trkpt><trkpt lat="44.615344783695555" lon="11.661589446165825"><ele>6.25</ele><time>2026-04-04T12:39:34.998Z</time></trkpt><trkpt lat="44.615258577683" lon="11.661756354719014"><ele>6.0</ele><time>2026-04-04T12:39:35.998Z</time></trkpt><trkpt lat="44.615188028574785" lon="11.661887179139086"><ele>5.666666666666667</ele><time>2026-04-04T12:39:36.998Z</time></trkpt><trkpt lat="44.615127560020646" lon="11.662000137157813"><ele>5.333333333333333</ele><time>2026-04-04T12:39:37.998Z</time></trkpt><trkpt lat="44.61507210267547" lon="11.662102216980191"><ele>5.0</ele><time>2026-04-04T12:39:38.998Z</time></trkpt><trkpt lat="44.6150132060644" lon="11.662205436101559"><ele>4.666666666666666</ele><time>2026-04-04T12:39:39.998Z</time></trkpt><trkpt lat="44.614956581491796" lon="11.66228926383058"><ele>4.333333333333333</ele><time>2026-04-04T12:39:40.998Z</time></trkpt><trkpt lat="44.614904006091194" lon="11.66236357010952"><ele>4.0</ele><time>2026-04-04T12:39:41.998Z</time></trkpt><trkpt lat="44.61481696538339" lon="11.662465082993819"><ele>4.0</ele><time>2026-04-04T12:39:43.998Z</time></trkpt><trkpt lat="44.61470683443357" lon="11.662555286336785"><ele>4.0</ele><time>2026-04-04T12:39:45.998Z</time></trkpt><trkpt lat="44.614628874761316" lon="11.662602181817364"><ele>4.0</ele><time>2026-04-04T12:39:46.998Z</time></trkpt><trkpt lat="44.614534910706546" lon="11.662629281129878"><ele>4.0</ele><time>2026-04-04T12:39:47.998Z</time></trkpt><trkpt lat="44.61444112762975" lon="11.662662956061878"><ele>4.0</ele><time>2026-04-04T12:39:48.998Z</time></trkpt><trkpt lat="44.61435231609297" lon="11.662710432454318"><ele>4.0</ele><time>2026-04-04T12:39:49.998Z</time></trkpt><trkpt lat="44.6142792161592" lon="11.662782609190673"><ele>4.0</ele><time>2026-04-04T12:39:50.998Z</time></trkpt><trkpt lat="44.61422540601074" lon="11.662884926124944"><ele>4.0</ele><time>2026-04-04T12:39:51.998Z</time></trkpt><trkpt lat="44.614202808107585" lon="11.663014003348549"><ele>4.0</ele><time>2026-04-04T12:39:52.998Z</time></trkpt><trkpt lat="44.614226011972676" lon="11.66314635451201"><ele>4.0</ele><time>2026-04-04T12:39:53.998Z</time></trkpt><trkpt lat="44.61428045866879" lon="11.663269470510034"><ele>4.0</ele><time>2026-04-04T12:39:54.998Z</time></trkpt><trkpt lat="44.6143739691341" lon="11.663352765292581"><ele>4.0</ele><time>2026-04-04T12:39:55.998Z</time></trkpt><trkpt lat="44.61448079464524" lon="11.66346196532727"><ele>4.0</ele><time>2026-04-04T12:39:56.998Z</time></trkpt><trkpt lat="44.61452709955663" lon="11.663613411265782"><ele>4.0</ele><time>2026-04-04T12:39:57.999Z</time></trkpt><trkpt lat="44.61459428723661" lon="11.663776851296252"><ele>4.5</ele><time>2026-04-04T12:39:58.999Z</time></trkpt><trkpt lat="44.614632750493804" lon="11.66394438508331"><ele>5.0</ele><time>2026-04-04T12:39:59.999Z</time></trkpt><trkpt lat="44.614619224005345" lon="11.664134479427316"><ele>5.5</ele><time>2026-04-04T12:40:00.999Z</time></trkpt><trkpt lat="44.61460439157192" lon="11.664341069956329"><ele>6.0</ele><time>2026-04-04T12:40:01.999Z</time></trkpt><trkpt lat="44.61460766890584" lon="11.66453880347277"><ele>6.0</ele><time>2026-04-04T12:40:02.999Z</time></trkpt><trkpt lat="44.61458893274131" lon="11.66472246692142"><ele>6.0</ele><time>2026-04-04T12:40:03.999Z</time></trkpt><trkpt lat="44.61457782500956" lon="11.664900626796285"><ele>6.0</ele><time>2026-04-04T12:40:04.999Z</time></trkpt><trkpt lat="44.61456603503581" lon="11.665075376311119"><ele>6.0</ele><time>2026-04-04T12:40:05.999Z</time></trkpt><trkpt lat="44.614552254286764" lon="11.665254658738275"><ele>6.0</ele><time>2026-04-04T12:40:06.999Z</time></trkpt><trkpt lat="44.61453083697749" lon="11.66543896206913"><ele>6.0</ele><time>2026-04-04T12:40:07.999Z</time></trkpt><trkpt lat="44.61451096692434" lon="11.665625558499732"><ele>6.0</ele><time>2026-04-04T12:40:08.999Z</time></trkpt><trkpt lat="44.61449374394519" lon="11.665818346380084"><ele>6.0</ele><time>2026-04-04T12:40:09.999Z</time></trkpt><trkpt lat="44.614478358276116" lon="11.666009792292218"><ele>5.75</ele><time>2026-04-04T12:40:10.999Z</time></trkpt><trkpt lat="44.614458959061515" lon="11.666200934695228"><ele>5.5</ele><time>2026-04-04T12:40:11.999Z</time></trkpt><trkpt lat="44.614438142987034" lon="11.666368777496315"><ele>5.25</ele><time>2026-04-04T12:40:12.999Z</time></trkpt><trkpt lat="44.61441871933658" lon="11.666527720990645"><ele>5.0</ele><time>2026-04-04T12:40:13.999Z</time></trkpt><trkpt lat="44.614406002018306" lon="11.666700236596201"><ele>5.0</ele><time>2026-04-04T12:40:14.999Z</time></trkpt><trkpt lat="44.61439288722961" lon="11.666875283219774"><ele>5.0</ele><time>2026-04-04T12:40:15.999Z</time></trkpt><trkpt lat="44.614384163414954" lon="11.667030541845785"><ele>5.0</ele><time>2026-04-04T12:40:16.999Z</time></trkpt><trkpt lat="44.614380269798424" lon="11.667168143535061"><ele>5.0</ele><time>2026-04-04T12:40:17.999Z</time></trkpt><trkpt lat="44.61437630693955" lon="11.667289611332178"><ele>5.0</ele><time>2026-04-04T12:40:18.999Z</time></trkpt><trkpt lat="44.614365831664216" lon="11.66741169355857"><ele>5.0</ele><time>2026-04-04T12:40:19.999Z</time></trkpt><trkpt lat="44.61434976677597" lon="11.667552046257724"><ele>5.0</ele><time>2026-04-04T12:40:20.999Z</time></trkpt><trkpt lat="44.61432188080135" lon="11.66768470277449"><ele>5.0</ele><time>2026-04-04T12:40:21.999Z</time></trkpt><trkpt lat="44.614281134541905" lon="11.667798148397319"><ele>5.0</ele><time>2026-04-04T12:40:22.999Z</time></trkpt><trkpt lat="44.614241180609895" lon="11.667890208475557"><ele>5.0</ele><time>2026-04-04T12:40:23.999Z</time></trkpt><trkpt lat="44.6142089617042" lon="11.667967721905342"><ele>5.0</ele><time>2026-04-04T12:40:24.999Z</time></trkpt><trkpt lat="44.61416007726492" lon="11.668096273413855"><ele>4.8</ele><time>2026-04-04T12:40:26.999Z</time></trkpt><trkpt lat="44.61408654766067" lon="11.668187846062422"><ele>4.6</ele><time>2026-04-04T12:40:30.999Z</time></trkpt><trkpt lat="44.61397689251502" lon="11.668288054798786"><ele>4.4</ele><time>2026-04-04T12:40:32.999Z</time></trkpt><trkpt lat="44.613910896361986" lon="11.668369052522477"><ele>4.2</ele><time>2026-04-04T12:40:33.999Z</time></trkpt><trkpt lat="44.61382642345923" lon="11.668429771818406"><ele>4.0</ele><time>2026-04-04T12:40:34.999Z</time></trkpt><trkpt lat="44.613736160781016" lon="11.668446327048287"><ele>4.0</ele><time>2026-04-04T12:40:35.999Z</time></trkpt><trkpt lat="44.613637990861946" lon="11.668436619408066"><ele>4.0</ele><time>2026-04-04T12:40:36.999Z</time></trkpt><trkpt lat="44.61352254833558" lon="11.668403119940221"><ele>4.0</ele><time>2026-04-04T12:40:37.999Z</time></trkpt><trkpt lat="44.6134037494379" lon="11.66836910351027"><ele>4.0</ele><time>2026-04-04T12:40:38.999Z</time></trkpt><trkpt lat="44.61328347592641" lon="11.66834169627373"><ele>4.0</ele><time>2026-04-04T12:40:39.999Z</time></trkpt><trkpt lat="44.61315206530778" lon="11.668310365942572"><ele>4.0</ele><time>2026-04-04T12:40:40.999Z</time></trkpt><trkpt lat="44.61301390478406" lon="11.668283078904699"><ele>4.0</ele><time>2026-04-04T12:40:41.999Z</time></trkpt><trkpt lat="44.61287608427673" lon="11.668253389221194"><ele>4.0</ele><time>2026-04-04T12:40:42.999Z</time></trkpt><trkpt lat="44.612738467347334" lon="11.668220242224699"><ele>4.0</ele><time>2026-04-04T12:40:43.999Z</time></trkpt><trkpt lat="44.612594878576125" lon="11.66818474171828"><ele>4.0</ele><time>2026-04-04T12:40:44.999Z</time></trkpt><trkpt lat="44.61244580050479" lon="11.668148338534449"><ele>4.0</ele><time>2026-04-04T12:40:45.999Z</time></trkpt><trkpt lat="44.6122992170679" lon="11.668113100981664"><ele>4.0</ele><time>2026-04-04T12:40:46.999Z</time></trkpt><trkpt lat="44.61215452188692" lon="11.668076448642026"><ele>4.0</ele><time>2026-04-04T12:40:47.999Z</time></trkpt><trkpt lat="44.612012648213" lon="11.66804285746309"><ele>4.0</ele><time>2026-04-04T12:40:48.999Z</time></trkpt><trkpt lat="44.61186481522532" lon="11.668012398916396"><ele>4.0</ele><time>2026-04-04T12:40:49.999Z</time></trkpt><trkpt lat="44.611712744595316" lon="11.667980562639626"><ele>4.0</ele><time>2026-04-04T12:40:50.999Z</time></trkpt><trkpt lat="44.61155725046246" lon="11.667945758274724"><ele>4.333333333333333</ele><time>2026-04-04T12:40:51.999Z</time></trkpt><trkpt lat="44.6113981427557" lon="11.667907018143632"><ele>4.666666666666667</ele><time>2026-04-04T12:40:52.999Z</time></trkpt><trkpt lat="44.61124825955298" lon="11.667874079012462"><ele>5.0</ele><time>2026-04-04T12:40:53.999Z</time></trkpt><trkpt lat="44.61110982854534" lon="11.667845895982689"><ele>5.0</ele><time>2026-04-04T12:40:54.999Z</time></trkpt><trkpt lat="44.61096682798416" lon="11.66781171403807"><ele>5.0</ele><time>2026-04-04T12:40:55.999Z</time></trkpt><trkpt lat="44.610824140979396" lon="11.667779869273906"><ele>5.0</ele><time>2026-04-04T12:40:56.999Z</time></trkpt><trkpt lat="44.610680025324136" lon="11.667745741471457"><ele>5.0</ele><time>2026-04-04T12:40:57.999Z</time></trkpt><trkpt lat="44.61053591720297" lon="11.667713553007143"><ele>5.0</ele><time>2026-04-04T12:40:58.999Z</time></trkpt><trkpt lat="44.61038954269175" lon="11.667684160709253"><ele>5.0</ele><time>2026-04-04T12:40:59.999Z</time></trkpt><trkpt lat="44.61024372611992" lon="11.667652474730016"><ele>5.0</ele><time>2026-04-04T12:41:00.999Z</time></trkpt><trkpt lat="44.610098872179" lon="11.667619207956571"><ele>5.0</ele><time>2026-04-04T12:41:01.999Z</time></trkpt><trkpt lat="44.609956527959234" lon="11.667584750082314"><ele>5.5</ele><time>2026-04-04T12:41:02.999Z</time></trkpt><trkpt lat="44.60981450824009" lon="11.667554307829452"><ele>6.0</ele><time>2026-04-04T12:41:03.999Z</time></trkpt><trkpt lat="44.60966614509496" lon="11.667522662882638"><ele>6.5</ele><time>2026-04-04T12:41:04.999Z</time></trkpt><trkpt lat="44.609517656710665" lon="11.667487678350456"><ele>7.0</ele><time>2026-04-04T12:41:05.999Z</time></trkpt><trkpt lat="44.60936689953299" lon="11.667448621354826"><ele>7.0</ele><time>2026-04-04T12:41:06.999Z</time></trkpt><trkpt lat="44.60921959536393" lon="11.66741418738878"><ele>7.0</ele><time>2026-04-04T12:41:07.999Z</time></trkpt><trkpt lat="44.6090701502423" lon="11.66738048361436"><ele>7.0</ele><time>2026-04-04T12:41:08.999Z</time></trkpt><trkpt lat="44.608922862050335" lon="11.667347808395622"><ele>7.0</ele><time>2026-04-04T12:41:09.999Z</time></trkpt><trkpt lat="44.60877235322241" lon="11.667315611883785"><ele>7.0</ele><time>2026-04-04T12:41:10.999Z</time></trkpt><trkpt lat="44.60862678667974" lon="11.667282673270627"><ele>7.0</ele><time>2026-04-04T12:41:11.999Z</time></trkpt><trkpt lat="44.60847454703721" lon="11.667251046991622"><ele>5.666666666666667</ele><time>2026-04-04T12:41:12.999Z</time></trkpt><trkpt lat="44.60832039965078" lon="11.66721992652001"><ele>4.333333333333334</ele><time>2026-04-04T12:41:13.999Z</time></trkpt><trkpt lat="44.608169238275536" lon="11.667190211279292"><ele>3.0</ele><time>2026-04-04T12:41:14.999Z</time></trkpt><trkpt lat="44.60801269959697" lon="11.667164617092572"><ele>3.0</ele><time>2026-04-04T12:41:15.999Z</time></trkpt><trkpt lat="44.60786293876825" lon="11.667139832523933"><ele>3.0</ele><time>2026-04-04T12:41:16.999Z</time></trkpt><trkpt lat="44.607714386275134" lon="11.667114838822599"><ele>3.0</ele><time>2026-04-04T12:41:17.996Z</time></trkpt><trkpt lat="44.60756215359002" lon="11.667094822837898"><ele>3.0</ele><time>2026-04-04T12:41:18.996Z</time></trkpt><trkpt lat="44.60741397605441" lon="11.667072114797884"><ele>3.0</ele><time>2026-04-04T12:41:19.996Z</time></trkpt><trkpt lat="44.60727118746883" lon="11.66705276720994"><ele>3.0</ele><time>2026-04-04T12:41:20.996Z</time></trkpt><trkpt lat="44.60713414849625" lon="11.667039648352958"><ele>3.0</ele><time>2026-04-04T12:41:21.996Z</time></trkpt><trkpt lat="44.60699802723711" lon="11.66702414306779"><ele>3.0</ele><time>2026-04-04T12:41:22.996Z</time></trkpt><trkpt lat="44.6068635164088" lon="11.667034035063947"><ele>3.0</ele><time>2026-04-04T12:41:23.996Z</time></trkpt><trkpt lat="44.60672712259878" lon="11.667050126037838"><ele>3.0</ele><time>2026-04-04T12:41:24.996Z</time></trkpt><trkpt lat="44.60658681302645" lon="11.66707349249004"><ele>3.0</ele><time>2026-04-04T12:41:25.997Z</time></trkpt><trkpt lat="44.60644408930261" lon="11.667107948471518"><ele>3.0</ele><time>2026-04-04T12:41:26.997Z</time></trkpt><trkpt lat="44.606305951068926" lon="11.667148696114921"><ele>3.0</ele><time>2026-04-04T12:41:27.997Z</time></trkpt><trkpt lat="44.606181147032345" lon="11.667187270427776"><ele>3.0</ele><time>2026-04-04T12:41:28.997Z</time></trkpt><trkpt lat="44.60606150724774" lon="11.667227683275916"><ele>3.0</ele><time>2026-04-04T12:41:29.997Z</time></trkpt><trkpt lat="44.60593792113932" lon="11.667269075715213"><ele>3.0</ele><time>2026-04-04T12:41:30.997Z</time></trkpt><trkpt lat="44.60582194509621" lon="11.667305477740088"><ele>3.0</ele><time>2026-04-04T12:41:31.997Z</time></trkpt><trkpt lat="44.60571636547022" lon="11.667339374428332"><ele>3.0</ele><time>2026-04-04T12:41:32.997Z</time></trkpt><trkpt lat="44.605621639575354" lon="11.667371139681038"><ele>3.0</ele><time>2026-04-04T12:41:33.997Z</time></trkpt><trkpt lat="44.605528296091144" lon="11.667399400862408"><ele>3.0</ele><time>2026-04-04T12:41:34.997Z</time></trkpt><trkpt lat="44.605428190003224" lon="11.66743028754662"><ele>3.0</ele><time>2026-04-04T12:41:35.998Z</time></trkpt><trkpt lat="44.605333589378475" lon="11.667466028854168"><ele>3.0</ele><time>2026-04-04T12:41:36.998Z</time></trkpt><trkpt lat="44.60522701514644" lon="11.667511626537186"><ele>3.0</ele><time>2026-04-04T12:41:37.998Z</time></trkpt><trkpt lat="44.60511214983055" lon="11.667553764359386"><ele>3.0</ele><time>2026-04-04T12:41:38.998Z</time></trkpt><trkpt lat="44.604991798598014" lon="11.66759068923536"><ele>3.5</ele><time>2026-04-04T12:41:39.998Z</time></trkpt><trkpt lat="44.604869569607736" lon="11.667631038676232"><ele>4.0</ele><time>2026-04-04T12:41:40.998Z</time></trkpt><trkpt lat="44.60472844310818" lon="11.667677566123025"><ele>4.5</ele><time>2026-04-04T12:41:41.998Z</time></trkpt><trkpt lat="44.60456653229439" lon="11.667732385533986"><ele>5.0</ele><time>2026-04-04T12:41:42.998Z</time></trkpt><trkpt lat="44.604393211085934" lon="11.667792704096069"><ele>5.333333333333334</ele><time>2026-04-04T12:41:43.998Z</time></trkpt><trkpt lat="44.60422311042576" lon="11.667855126168858"><ele>5.666666666666667</ele><time>2026-04-04T12:41:44.998Z</time></trkpt><trkpt lat="44.60405485139326" lon="11.667911704692376"><ele>6.0</ele><time>2026-04-04T12:41:45.998Z</time></trkpt><trkpt lat="44.60387275210899" lon="11.667972650201747"><ele>6.0</ele><time>2026-04-04T12:41:46.998Z</time></trkpt><trkpt lat="44.60369289621124" lon="11.668035291145648"><ele>6.0</ele><time>2026-04-04T12:41:47.998Z</time></trkpt><trkpt lat="44.60351556412478" lon="11.668097820333266"><ele>6.0</ele><time>2026-04-04T12:41:48.998Z</time></trkpt><trkpt lat="44.603338803600785" lon="11.668158784599377"><ele>5.666666666666667</ele><time>2026-04-04T12:41:49.998Z</time></trkpt><trkpt lat="44.603169477095825" lon="11.668215683339607"><ele>5.333333333333334</ele><time>2026-04-04T12:41:50.998Z</time></trkpt><trkpt lat="44.603013239324675" lon="11.66826710119216"><ele>5.0</ele><time>2026-04-04T12:41:51.999Z</time></trkpt><trkpt lat="44.602863215946776" lon="11.668316363298471"><ele>5.333333333333334</ele><time>2026-04-04T12:41:52.999Z</time></trkpt><trkpt lat="44.60270996688525" lon="11.668366839851448"><ele>5.666666666666667</ele><time>2026-04-04T12:41:53.999Z</time></trkpt><trkpt lat="44.60256038639824" lon="11.668415729543883"><ele>6.0</ele><time>2026-04-04T12:41:54.999Z</time></trkpt><trkpt lat="44.602415909620774" lon="11.668460896277788"><ele>6.0</ele><time>2026-04-04T12:41:55.999Z</time></trkpt><trkpt lat="44.602275649780054" lon="11.668505552248925"><ele>6.0</ele><time>2026-04-04T12:41:56.999Z</time></trkpt><trkpt lat="44.60213171496261" lon="11.668551658609827"><ele>6.0</ele><time>2026-04-04T12:41:57.999Z</time></trkpt><trkpt lat="44.60198687078994" lon="11.668599765739797"><ele>6.0</ele><time>2026-04-04T12:41:58.999Z</time></trkpt><trkpt lat="44.60183553781258" lon="11.668648380073725"><ele>6.333333333333334</ele><time>2026-04-04T12:41:59.999Z</time></trkpt><trkpt lat="44.6016773115757" lon="11.668702784515736"><ele>6.666666666666667</ele><time>2026-04-04T12:42:00.999Z</time></trkpt><trkpt lat="44.60151347302705" lon="11.668763682376554"><ele>7.0</ele><time>2026-04-04T12:42:01.999Z</time></trkpt><trkpt lat="44.601350464884156" lon="11.668817136016601"><ele>7.0</ele><time>2026-04-04T12:42:02.999Z</time></trkpt><trkpt lat="44.60120444933429" lon="11.668863964389773"><ele>7.0</ele><time>2026-04-04T12:42:03.999Z</time></trkpt><trkpt lat="44.60106782968069" lon="11.668907308844311"><ele>7.0</ele><time>2026-04-04T12:42:04.999Z</time></trkpt><trkpt lat="44.60093886421311" lon="11.668948424636815"><ele>7.0</ele><time>2026-04-04T12:42:05.999Z</time></trkpt><trkpt lat="44.6008126316754" lon="11.668985552453254"><ele>6.8</ele><time>2026-04-04T12:42:06.999Z</time></trkpt><trkpt lat="44.600692901983685" lon="11.66902145267716"><ele>6.6</ele><time>2026-04-04T12:42:07.999Z</time></trkpt><trkpt lat="44.60058453257733" lon="11.669054765172364"><ele>6.3999999999999995</ele><time>2026-04-04T12:42:08.999Z</time></trkpt><trkpt lat="44.600490216215285" lon="11.669082153313084"><ele>6.199999999999999</ele><time>2026-04-04T12:42:09.999Z</time></trkpt><trkpt lat="44.60040649939302" lon="11.66911133569287"><ele>6.0</ele><time>2026-04-04T12:42:10.999Z</time></trkpt><trkpt lat="44.60031950280299" lon="11.669137121190461"><ele>6.0</ele><time>2026-04-04T12:42:11.999Z</time></trkpt><trkpt lat="44.60021699017488" lon="11.669180439266434"><ele>6.0</ele><time>2026-04-04T12:42:12.999Z</time></trkpt><trkpt lat="44.60009786377739" lon="11.669221280112692"><ele>6.0</ele><time>2026-04-04T12:42:13.999Z</time></trkpt><trkpt lat="44.59997477064531" lon="11.669259402054836"><ele>6.0</ele><time>2026-04-04T12:42:14.999Z</time></trkpt><trkpt lat="44.59983405143486" lon="11.669304292223472"><ele>6.0</ele><time>2026-04-04T12:42:15.999Z</time></trkpt><trkpt lat="44.59968383643249" lon="11.669353742050738"><ele>6.0</ele><time>2026-04-04T12:42:16.999Z</time></trkpt><trkpt lat="44.59953011891748" lon="11.669404354369481"><ele>6.0</ele><time>2026-04-04T12:42:17.999Z</time></trkpt><trkpt lat="44.599383629740245" lon="11.66945038332465"><ele>6.25</ele><time>2026-04-04T12:42:18.999Z</time></trkpt><trkpt lat="44.599239794172874" lon="11.669496563954642"><ele>6.5</ele><time>2026-04-04T12:42:19.999Z</time></trkpt><trkpt lat="44.599096643539056" lon="11.669532813590777"><ele>6.75</ele><time>2026-04-04T12:42:20.999Z</time></trkpt><trkpt lat="44.59895190344712" lon="11.669548218540427"><ele>7.0</ele><time>2026-04-04T12:42:21.999Z</time></trkpt><trkpt lat="44.59880321770015" lon="11.669543194362753"><ele>7.0</ele><time>2026-04-04T12:42:22.999Z</time></trkpt><trkpt lat="44.59864474517529" lon="11.669523393868122"><ele>7.0</ele><time>2026-04-04T12:42:23.999Z</time></trkpt><trkpt lat="44.59848577553446" lon="11.669489460863002"><ele>7.0</ele><time>2026-04-04T12:42:24.999Z</time></trkpt><trkpt lat="44.59833797665988" lon="11.669438817119032"><ele>7.0</ele><time>2026-04-04T12:42:26Z</time></trkpt><trkpt lat="44.59819384402856" lon="11.669381852540774"><ele>7.0</ele><time>2026-04-04T12:42:27Z</time></trkpt><trkpt lat="44.59804503072125" lon="11.669316086708887"><ele>7.0</ele><time>2026-04-04T12:42:28Z</time></trkpt><trkpt lat="44.59789604981139" lon="11.66925101376325"><ele>6.666666666666667</ele><time>2026-04-04T12:42:29Z</time></trkpt><trkpt lat="44.59774559505892" lon="11.669189224560501"><ele>6.333333333333334</ele><time>2026-04-04T12:42:30Z</time></trkpt><trkpt lat="44.597592923092066" lon="11.669134114119151"><ele>6.0</ele><time>2026-04-04T12:42:31Z</time></trkpt><trkpt lat="44.59744171680424" lon="11.669076102978213"><ele>6.0</ele><time>2026-04-04T12:42:32Z</time></trkpt><trkpt lat="44.597291700750084" lon="11.669016447999388"><ele>6.0</ele><time>2026-04-04T12:42:33Z</time></trkpt><trkpt lat="44.59714703682307" lon="11.668960280479212"><ele>6.0</ele><time>2026-04-04T12:42:34Z</time></trkpt><trkpt lat="44.597008282908625" lon="11.668911295121628"><ele>6.0</ele><time>2026-04-04T12:42:35Z</time></trkpt><trkpt lat="44.5968709639487" lon="11.668858501848389"><ele>6.0</ele><time>2026-04-04T12:42:36Z</time></trkpt><trkpt lat="44.59673441744595" lon="11.668805700075458"><ele>6.0</ele><time>2026-04-04T12:42:37Z</time></trkpt><trkpt lat="44.59659862506503" lon="11.668754075234064"><ele>6.0</ele><time>2026-04-04T12:42:38Z</time></trkpt><trkpt lat="44.59646074494574" lon="11.668702430331551"><ele>6.0</ele><time>2026-04-04T12:42:39Z</time></trkpt><trkpt lat="44.59632284026722" lon="11.668647381845455"><ele>5.75</ele><time>2026-04-04T12:42:40Z</time></trkpt><trkpt lat="44.59618398657827" lon="11.668590231691146"><ele>5.5</ele><time>2026-04-04T12:42:41Z</time></trkpt><trkpt lat="44.59604363036622" lon="11.668535646046196"><ele>5.25</ele><time>2026-04-04T12:42:42Z</time></trkpt><trkpt lat="44.59590549978645" lon="11.668481134105592"><ele>5.0</ele><time>2026-04-04T12:42:43Z</time></trkpt><trkpt lat="44.59576691422326" lon="11.668427362750997"><ele>5.333333333333334</ele><time>2026-04-04T12:42:44Z</time></trkpt><trkpt lat="44.59562561396722" lon="11.668372465606899"><ele>5.666666666666667</ele><time>2026-04-04T12:42:45Z</time></trkpt><trkpt lat="44.59547779378912" lon="11.66831644445149"><ele>6.0</ele><time>2026-04-04T12:42:46Z</time></trkpt><trkpt lat="44.59532506088626" lon="11.668263309600665"><ele>6.0</ele><time>2026-04-04T12:42:47Z</time></trkpt><trkpt lat="44.59517131177855" lon="11.668209686766614"><ele>6.0</ele><time>2026-04-04T12:42:48Z</time></trkpt><trkpt lat="44.59500460860313" lon="11.668154227979734"><ele>6.0</ele><time>2026-04-04T12:42:49Z</time></trkpt><trkpt lat="44.59483768447827" lon="11.668068959961971"><ele>6.0</ele><time>2026-04-04T12:42:50Z</time></trkpt><trkpt lat="44.59466058395376" lon="11.668000382874638"><ele>6.0</ele><time>2026-04-04T12:42:51Z</time></trkpt><trkpt lat="44.59448206511686" lon="11.667953626689712"><ele>6.0</ele><time>2026-04-04T12:42:52Z</time></trkpt><trkpt lat="44.59431075418444" lon="11.6678863307046"><ele>6.333333333333334</ele><time>2026-04-04T12:42:53Z</time></trkpt><trkpt lat="44.594140031284866" lon="11.66779787124131"><ele>6.666666666666667</ele><time>2026-04-04T12:42:54Z</time></trkpt><trkpt lat="44.59396495937071" lon="11.66772951181491"><ele>7.0</ele><time>2026-04-04T12:42:55Z</time></trkpt><trkpt lat="44.59378986144059" lon="11.667682702017286"><ele>7.666666666666667</ele><time>2026-04-04T12:42:56Z</time></trkpt><trkpt lat="44.59361474668496" lon="11.667615172624918"><ele>8.333333333333334</ele><time>2026-04-04T12:42:57Z</time></trkpt><trkpt lat="44.59344597675336" lon="11.667549190670329"><ele>9.0</ele><time>2026-04-04T12:42:58Z</time></trkpt><trkpt lat="44.59327070880526" lon="11.667484511809011"><ele>9.0</ele><time>2026-04-04T12:42:59Z</time></trkpt><trkpt lat="44.59309869775406" lon="11.667394567407563"><ele>9.0</ele><time>2026-04-04T12:43:00Z</time></trkpt><trkpt lat="44.5929211486578" lon="11.667349485840298"><ele>9.0</ele><time>2026-04-04T12:43:01Z</time></trkpt><trkpt lat="44.59274836929837" lon="11.667281396049825"><ele>8.333333333333334</ele><time>2026-04-04T12:43:02Z</time></trkpt><trkpt lat="44.59258073890873" lon="11.667216210306401"><ele>7.666666666666667</ele><time>2026-04-04T12:43:03Z</time></trkpt><trkpt lat="44.59241124927365" lon="11.667150512067542"><ele>7.0</ele><time>2026-04-04T12:43:04Z</time></trkpt><trkpt lat="44.5922404013317" lon="11.667083440721507"><ele>7.0</ele><time>2026-04-04T12:43:05Z</time></trkpt><trkpt lat="44.592071928848064" lon="11.66701748631388"><ele>7.0</ele><time>2026-04-04T12:43:06Z</time></trkpt><trkpt lat="44.591901761605975" lon="11.666953758944944"><ele>7.0</ele><time>2026-04-04T12:43:07Z</time></trkpt><trkpt lat="44.591732268434434" lon="11.666887697629136"><ele>7.333333333333334</ele><time>2026-04-04T12:43:08Z</time></trkpt><trkpt lat="44.591562679148765" lon="11.666822690984501"><ele>7.666666666666666</ele><time>2026-04-04T12:43:09Z</time></trkpt><trkpt lat="44.59139378997169" lon="11.666756762027472"><ele>8.0</ele><time>2026-04-04T12:43:10Z</time></trkpt><trkpt lat="44.59122672229531" lon="11.666689312430947"><ele>8.0</ele><time>2026-04-04T12:43:11Z</time></trkpt><trkpt lat="44.59105552719597" lon="11.66662062121869"><ele>8.0</ele><time>2026-04-04T12:43:12Z</time></trkpt><trkpt lat="44.59088772080596" lon="11.666546363629537"><ele>8.0</ele><time>2026-04-04T12:43:13Z</time></trkpt><trkpt lat="44.590724228460466" lon="11.666469597357235"><ele>8.0</ele><time>2026-04-04T12:43:14Z</time></trkpt><trkpt lat="44.5905658898232" lon="11.666395293687884"><ele>8.0</ele><time>2026-04-04T12:43:15Z</time></trkpt><trkpt lat="44.590407117134056" lon="11.666319400857994"><ele>8.0</ele><time>2026-04-04T12:43:16Z</time></trkpt><trkpt lat="44.590246752096554" lon="11.666243800379087"><ele>8.0</ele><time>2026-04-04T12:43:17Z</time></trkpt><trkpt lat="44.590087598355815" lon="11.66617058728394"><ele>8.0</ele><time>2026-04-04T12:43:18.001Z</time></trkpt><trkpt lat="44.589766730405344" lon="11.666019196336547"><ele>8.0</ele><time>2026-04-04T12:43:20.001Z</time></trkpt><trkpt lat="44.58959967731682" lon="11.6659443017882"><ele>8.0</ele><time>2026-04-04T12:43:21.001Z</time></trkpt><trkpt lat="44.58943988174096" lon="11.665866510936583"><ele>8.0</ele><time>2026-04-04T12:43:22.001Z</time></trkpt><trkpt lat="44.589272722885546" lon="11.66579039781402"><ele>8.0</ele><time>2026-04-04T12:43:23.001Z</time></trkpt><trkpt lat="44.58910902383698" lon="11.665713352588691"><ele>8.0</ele><time>2026-04-04T12:43:23.998Z</time></trkpt><trkpt lat="44.58894274536827" lon="11.665637837644619"><ele>8.0</ele><time>2026-04-04T12:43:24.998Z</time></trkpt><trkpt lat="44.588777710232634" lon="11.66555997823856"><ele>8.333333333333332</ele><time>2026-04-04T12:43:25.998Z</time></trkpt><trkpt lat="44.588614492148274" lon="11.665483380256429"><ele>8.666666666666666</ele><time>2026-04-04T12:43:26.998Z</time></trkpt><trkpt lat="44.588449902534784" lon="11.665403993443443"><ele>9.0</ele><time>2026-04-04T12:43:27.998Z</time></trkpt><trkpt lat="44.588280584939675" lon="11.665324583165972"><ele>9.0</ele><time>2026-04-04T12:43:28.998Z</time></trkpt><trkpt lat="44.588109259094956" lon="11.66524342825652"><ele>9.0</ele><time>2026-04-04T12:43:29.998Z</time></trkpt><trkpt lat="44.58793421699346" lon="11.665162251155333"><ele>9.0</ele><time>2026-04-04T12:43:30.998Z</time></trkpt><trkpt lat="44.5877565640962" lon="11.665082277533887"><ele>9.0</ele><time>2026-04-04T12:43:31.998Z</time></trkpt><trkpt lat="44.58758269899986" lon="11.665003300657718"><ele>9.0</ele><time>2026-04-04T12:43:32.998Z</time></trkpt><trkpt lat="44.587411612720906" lon="11.664923689522512"><ele>9.0</ele><time>2026-04-04T12:43:33.999Z</time></trkpt><trkpt lat="44.58724333700556" lon="11.664845210068075"><ele>9.0</ele><time>2026-04-04T12:43:34.999Z</time></trkpt><trkpt lat="44.587070587846014" lon="11.664766671741067"><ele>9.0</ele><time>2026-04-04T12:43:35.999Z</time></trkpt><trkpt lat="44.58690439297463" lon="11.664689750691812"><ele>9.0</ele><time>2026-04-04T12:43:36.999Z</time></trkpt><trkpt lat="44.58674049457372" lon="11.664611108720269"><ele>9.0</ele><time>2026-04-04T12:43:37.999Z</time></trkpt><trkpt lat="44.586572353747975" lon="11.664531925787832"><ele>9.0</ele><time>2026-04-04T12:43:38.999Z</time></trkpt><trkpt lat="44.58640658291269" lon="11.664454038955375"><ele>9.0</ele><time>2026-04-04T12:43:39.999Z</time></trkpt><trkpt lat="44.586245132038655" lon="11.664379815842098"><ele>8.666666666666666</ele><time>2026-04-04T12:43:40.999Z</time></trkpt><trkpt lat="44.586086536894214" lon="11.66430605951721"><ele>8.333333333333332</ele><time>2026-04-04T12:43:41.999Z</time></trkpt><trkpt lat="44.58593579171524" lon="11.664234215896848"><ele>8.0</ele><time>2026-04-04T12:43:42.999Z</time></trkpt><trkpt lat="44.58579575921729" lon="11.664166316888403"><ele>8.0</ele><time>2026-04-04T12:43:43.999Z</time></trkpt><trkpt lat="44.58566946819881" lon="11.664107634995302"><ele>8.0</ele><time>2026-04-04T12:43:44.999Z</time></trkpt><trkpt lat="44.58554668335261" lon="11.664049810524414"><ele>8.0</ele><time>2026-04-04T12:43:45.999Z</time></trkpt><trkpt lat="44.58543265990967" lon="11.663995433819712"><ele>8.0</ele><time>2026-04-04T12:43:46.999Z</time></trkpt><trkpt lat="44.585322783770415" lon="11.66394415786116"><ele>8.166666666666666</ele><time>2026-04-04T12:43:47.999Z</time></trkpt><trkpt lat="44.58522429475848" lon="11.66389883992836"><ele>8.333333333333332</ele><time>2026-04-04T12:43:48.999Z</time></trkpt><trkpt lat="44.58513683879365" lon="11.663857721267645"><ele>8.5</ele><time>2026-04-04T12:43:49.999Z</time></trkpt><trkpt lat="44.58506362128507" lon="11.663822304445443"><ele>8.666666666666666</ele><time>2026-04-04T12:43:50.999Z</time></trkpt><trkpt lat="44.58499665966119" lon="11.663791390890003"><ele>8.833333333333334</ele><time>2026-04-04T12:43:51.999Z</time></trkpt><trkpt lat="44.58493539765142" lon="11.663762940559414"><ele>9.0</ele><time>2026-04-04T12:43:52.999Z</time></trkpt><trkpt lat="44.58483717769396" lon="11.663715415595924"><ele>9.0</ele><time>2026-04-04T12:43:55Z</time></trkpt><trkpt lat="44.58476016779506" lon="11.663677489946194"><ele>9.0</ele><time>2026-04-04T12:43:57Z</time></trkpt><trkpt lat="44.58469758794017" lon="11.663652804024576"><ele>9.0</ele><time>2026-04-04T12:44:02Z</time></trkpt><trkpt lat="44.58463473927171" lon="11.663620309554487"><ele>9.0</ele><time>2026-04-04T12:44:05Z</time></trkpt><trkpt lat="44.58458673868874" lon="11.663840772116957"><ele>9.0</ele><time>2026-04-04T12:44:06Z</time></trkpt><trkpt lat="44.584567331860946" lon="11.663948981643182"><ele>9.0</ele><time>2026-04-04T12:44:07Z</time></trkpt><trkpt lat="44.58454232781074" lon="11.664074593626319"><ele>9.0</ele><time>2026-04-04T12:44:08Z</time></trkpt><trkpt lat="44.58451510402878" lon="11.664210986246587"><ele>9.0</ele><time>2026-04-04T12:44:09Z</time></trkpt><trkpt lat="44.58448382482022" lon="11.664357242150308"><ele>9.0</ele><time>2026-04-04T12:44:10Z</time></trkpt><trkpt lat="44.58444783043815" lon="11.664527959886334"><ele>9.0</ele><time>2026-04-04T12:44:11Z</time></trkpt><trkpt lat="44.58441467343648" lon="11.664695619149754"><ele>8.75</ele><time>2026-04-04T12:44:12Z</time></trkpt><trkpt lat="44.58436722154449" lon="11.66488178537788"><ele>8.5</ele><time>2026-04-04T12:44:13Z</time></trkpt><trkpt lat="44.58432417705137" lon="11.665069627664792"><ele>8.25</ele><time>2026-04-04T12:44:14Z</time></trkpt><trkpt lat="44.58428000013579" lon="11.665259649010505"><ele>8.0</ele><time>2026-04-04T12:44:15Z</time></trkpt><trkpt lat="44.584236105083306" lon="11.665449748109557"><ele>7.75</ele><time>2026-04-04T12:44:16Z</time></trkpt><trkpt lat="44.584198178908395" lon="11.66562168855606"><ele>7.5</ele><time>2026-04-04T12:44:17Z</time></trkpt><trkpt lat="44.58416299283674" lon="11.665779687337547"><ele>7.25</ele><time>2026-04-04T12:44:18Z</time></trkpt><trkpt lat="44.584126660448234" lon="11.665939096969767"><ele>7.0</ele><time>2026-04-04T12:44:19Z</time></trkpt><trkpt lat="44.58408816578874" lon="11.666100643651141"><ele>7.25</ele><time>2026-04-04T12:44:20Z</time></trkpt><trkpt lat="44.584051580157585" lon="11.666259318334712"><ele>7.5</ele><time>2026-04-04T12:44:21Z</time></trkpt><trkpt lat="44.58401480447237" lon="11.666419299471634"><ele>7.75</ele><time>2026-04-04T12:44:22Z</time></trkpt><trkpt lat="44.58397650932204" lon="11.666593165396144"><ele>8.0</ele><time>2026-04-04T12:44:23Z</time></trkpt><trkpt lat="44.583932367374935" lon="11.666776294253523"><ele>8.0</ele><time>2026-04-04T12:44:24Z</time></trkpt><trkpt lat="44.583888466976184" lon="11.666963339668492"><ele>8.0</ele><time>2026-04-04T12:44:25Z</time></trkpt><trkpt lat="44.58384666432495" lon="11.667151768126125"><ele>8.0</ele><time>2026-04-04T12:44:26Z</time></trkpt><trkpt lat="44.58380201659297" lon="11.667345309650736"><ele>8.0</ele><time>2026-04-04T12:44:27Z</time></trkpt><trkpt lat="44.583755104495566" lon="11.66754877073292"><ele>8.0</ele><time>2026-04-04T12:44:28Z</time></trkpt><trkpt lat="44.583708074666646" lon="11.667755154767793"><ele>8.0</ele><time>2026-04-04T12:44:29.001Z</time></trkpt><trkpt lat="44.5836598363591" lon="11.667969513687774"><ele>8.0</ele><time>2026-04-04T12:44:30.001Z</time></trkpt><trkpt lat="44.583609768647364" lon="11.66818069807462"><ele>7.666666666666666</ele><time>2026-04-04T12:44:31.001Z</time></trkpt><trkpt lat="44.58356336953569" lon="11.668390932286384"><ele>7.333333333333334</ele><time>2026-04-04T12:44:32.001Z</time></trkpt><trkpt lat="44.58351626955587" lon="11.668603260272791"><ele>7.0</ele><time>2026-04-04T12:44:33.001Z</time></trkpt><trkpt lat="44.58346465300739" lon="11.668821176950546"><ele>7.0</ele><time>2026-04-04T12:44:34.001Z</time></trkpt><trkpt lat="44.58341482667376" lon="11.669039299308283"><ele>7.0</ele><time>2026-04-04T12:44:35.001Z</time></trkpt><trkpt lat="44.58336506351685" lon="11.669257489197394"><ele>7.0</ele><time>2026-04-04T12:44:36.001Z</time></trkpt><trkpt lat="44.58331568542861" lon="11.669473684414688"><ele>7.333333333333334</ele><time>2026-04-04T12:44:37.001Z</time></trkpt><trkpt lat="44.5832662194824" lon="11.669688463404043"><ele>7.666666666666666</ele><time>2026-04-04T12:44:38.001Z</time></trkpt><trkpt lat="44.58321854862341" lon="11.669905731516987"><ele>8.0</ele><time>2026-04-04T12:44:39.001Z</time></trkpt><trkpt lat="44.58316981196763" lon="11.670119383305765"><ele>8.666666666666666</ele><time>2026-04-04T12:44:40.001Z</time></trkpt><trkpt lat="44.58312085115854" lon="11.670330101763506"><ele>9.333333333333334</ele><time>2026-04-04T12:44:41.001Z</time></trkpt><trkpt lat="44.583072313523914" lon="11.670543699352978"><ele>10.0</ele><time>2026-04-04T12:44:42.001Z</time></trkpt><trkpt lat="44.58302663527877" lon="11.670751617464017"><ele>10.0</ele><time>2026-04-04T12:44:43.001Z</time></trkpt><trkpt lat="44.58298039509602" lon="11.670957301497133"><ele>10.0</ele><time>2026-04-04T12:44:44.001Z</time></trkpt><trkpt lat="44.5829334476391" lon="11.671169741167471"><ele>10.0</ele><time>2026-04-04T12:44:45.001Z</time></trkpt><trkpt lat="44.58288391414273" lon="11.67138371136508"><ele>10.0</ele><time>2026-04-04T12:44:46.001Z</time></trkpt><trkpt lat="44.582834992831124" lon="11.671597010441891"><ele>10.0</ele><time>2026-04-04T12:44:47.001Z</time></trkpt><trkpt lat="44.58278816835264" lon="11.671813656357163"><ele>10.0</ele><time>2026-04-04T12:44:48.001Z</time></trkpt><trkpt lat="44.58273752811151" lon="11.672039527321958"><ele>9.333333333333334</ele><time>2026-04-04T12:44:49.001Z</time></trkpt><trkpt lat="44.58268410003574" lon="11.672273290261654"><ele>8.666666666666666</ele><time>2026-04-04T12:44:50.001Z</time></trkpt><trkpt lat="44.58263034835531" lon="11.672523459574347"><ele>8.0</ele><time>2026-04-04T12:44:51.001Z</time></trkpt><trkpt lat="44.582575302154275" lon="11.6727752473431"><ele>7.333333333333333</ele><time>2026-04-04T12:44:52.001Z</time></trkpt><trkpt lat="44.58252182132678" lon="11.673022768756146"><ele>6.666666666666666</ele><time>2026-04-04T12:44:53.001Z</time></trkpt><trkpt lat="44.582467004254845" lon="11.673269828728545"><ele>6.0</ele><time>2026-04-04T12:44:54.001Z</time></trkpt><trkpt lat="44.58241135540097" lon="11.673512453497862"><ele>6.0</ele><time>2026-04-04T12:44:55.001Z</time></trkpt><trkpt lat="44.582354976271695" lon="11.673761767405392"><ele>6.0</ele><time>2026-04-04T12:44:56.001Z</time></trkpt><trkpt lat="44.58229925966504" lon="11.674005518405155"><ele>6.0</ele><time>2026-04-04T12:44:57.001Z</time></trkpt><trkpt lat="44.58224246382469" lon="11.674244469769668"><ele>5.666666666666667</ele><time>2026-04-04T12:44:58.001Z</time></trkpt><trkpt lat="44.58218946133232" lon="11.67448294673859"><ele>5.333333333333334</ele><time>2026-04-04T12:44:59.001Z</time></trkpt><trkpt lat="44.58213599635383" lon="11.674718009949856"><ele>5.0</ele><time>2026-04-04T12:45:00.001Z</time></trkpt><trkpt lat="44.5820829921874" lon="11.674952477855454"><ele>5.0</ele><time>2026-04-04T12:45:01.001Z</time></trkpt><trkpt lat="44.58202981164587" lon="11.675190376541293"><ele>5.0</ele><time>2026-04-04T12:45:02.001Z</time></trkpt><trkpt lat="44.581978099196604" lon="11.675422837939992"><ele>5.0</ele><time>2026-04-04T12:45:03.001Z</time></trkpt><trkpt lat="44.58192835217447" lon="11.675648413673667"><ele>5.666666666666667</ele><time>2026-04-04T12:45:04.001Z</time></trkpt><trkpt lat="44.581875679399964" lon="11.675878575224138"><ele>6.333333333333334</ele><time>2026-04-04T12:45:05.001Z</time></trkpt><trkpt lat="44.58182255642177" lon="11.676109887843122"><ele>7.0</ele><time>2026-04-04T12:45:06.001Z</time></trkpt><trkpt lat="44.58176896661382" lon="11.676349307769117"><ele>7.333333333333334</ele><time>2026-04-04T12:45:07.001Z</time></trkpt><trkpt lat="44.58171658383616" lon="11.676589403691397"><ele>7.666666666666666</ele><time>2026-04-04T12:45:08.001Z</time></trkpt><trkpt lat="44.581663434631146" lon="11.676828492340714"><ele>8.0</ele><time>2026-04-04T12:45:09.001Z</time></trkpt><trkpt lat="44.58160941503003" lon="11.6770649080004"><ele>8.0</ele><time>2026-04-04T12:45:10.001Z</time></trkpt><trkpt lat="44.581556787424326" lon="11.677305267248233"><ele>8.0</ele><time>2026-04-04T12:45:11.002Z</time></trkpt><trkpt lat="44.58150181101247" lon="11.677540506082117"><ele>8.0</ele><time>2026-04-04T12:45:12.002Z</time></trkpt><trkpt lat="44.58144967694676" lon="11.677776171634319"><ele>8.333333333333332</ele><time>2026-04-04T12:45:13.002Z</time></trkpt><trkpt lat="44.58139799856493" lon="11.678005808818495"><ele>8.666666666666666</ele><time>2026-04-04T12:45:14.002Z</time></trkpt><trkpt lat="44.58134850735789" lon="11.678236673868208"><ele>9.0</ele><time>2026-04-04T12:45:15.002Z</time></trkpt><trkpt lat="44.58129906780592" lon="11.678461615926045"><ele>8.333333333333334</ele><time>2026-04-04T12:45:16.002Z</time></trkpt><trkpt lat="44.58124734126846" lon="11.67868617273371"><ele>7.666666666666667</ele><time>2026-04-04T12:45:17.002Z</time></trkpt><trkpt lat="44.58119737577446" lon="11.678908729544325"><ele>7.0</ele><time>2026-04-04T12:45:18.002Z</time></trkpt><trkpt lat="44.58114988128491" lon="11.679116894234653"><ele>7.0</ele><time>2026-04-04T12:45:19.002Z</time></trkpt><trkpt lat="44.581104937674006" lon="11.679317418572754"><ele>7.0</ele><time>2026-04-04T12:45:20.002Z</time></trkpt><trkpt lat="44.58105980998425" lon="11.679515017224206"><ele>7.0</ele><time>2026-04-04T12:45:21.002Z</time></trkpt><trkpt lat="44.581012959640525" lon="11.679708469689546"><ele>7.0</ele><time>2026-04-04T12:45:22.002Z</time></trkpt><trkpt lat="44.580969664626444" lon="11.679891333915666"><ele>7.0</ele><time>2026-04-04T12:45:23.002Z</time></trkpt><trkpt lat="44.580930532659" lon="11.680058805364961"><ele>7.0</ele><time>2026-04-04T12:45:24.002Z</time></trkpt><trkpt lat="44.580891889881805" lon="11.680225600258524"><ele>7.0</ele><time>2026-04-04T12:45:25.002Z</time></trkpt><trkpt lat="44.58085019056303" lon="11.680400960415389"><ele>7.0</ele><time>2026-04-04T12:45:26.002Z</time></trkpt><trkpt lat="44.58081024225474" lon="11.680584235780936"><ele>7.0</ele><time>2026-04-04T12:45:27.002Z</time></trkpt><trkpt lat="44.58077020451954" lon="11.680776056240513"><ele>7.0</ele><time>2026-04-04T12:45:28.002Z</time></trkpt><trkpt lat="44.580726198862806" lon="11.680975158009444"><ele>7.0</ele><time>2026-04-04T12:45:29.002Z</time></trkpt><trkpt lat="44.580679641111615" lon="11.681184730499666"><ele>7.0</ele><time>2026-04-04T12:45:30Z</time></trkpt><trkpt lat="44.58063209197951" lon="11.68140000009305"><ele>6.666666666666667</ele><time>2026-04-04T12:45:31Z</time></trkpt><trkpt lat="44.58058360030207" lon="11.681612407829602"><ele>6.333333333333334</ele><time>2026-04-04T12:45:32Z</time></trkpt><trkpt lat="44.58053660836018" lon="11.68182621306196"><ele>6.0</ele><time>2026-04-04T12:45:33Z</time></trkpt><trkpt lat="44.580488581666756" lon="11.682041616879706"><ele>6.0</ele><time>2026-04-04T12:45:34Z</time></trkpt><trkpt lat="44.58043974821747" lon="11.682249633617648"><ele>6.0</ele><time>2026-04-04T12:45:35Z</time></trkpt><trkpt lat="44.58039106026719" lon="11.682464976628403"><ele>6.0</ele><time>2026-04-04T12:45:36Z</time></trkpt><trkpt lat="44.580343501594925" lon="11.682675242869339"><ele>7.0</ele><time>2026-04-04T12:45:37Z</time></trkpt><trkpt lat="44.580294463175" lon="11.682886583573195"><ele>8.0</ele><time>2026-04-04T12:45:38Z</time></trkpt><trkpt lat="44.58024751967028" lon="11.683092240219201"><ele>9.0</ele><time>2026-04-04T12:45:39Z</time></trkpt><trkpt lat="44.58020058562511" lon="11.68329960316185"><ele>9.0</ele><time>2026-04-04T12:45:40Z</time></trkpt><trkpt lat="44.58015417642385" lon="11.683508249341555"><ele>9.0</ele><time>2026-04-04T12:45:41Z</time></trkpt><trkpt lat="44.58010649609063" lon="11.68371492522363"><ele>9.0</ele><time>2026-04-04T12:45:42Z</time></trkpt><trkpt lat="44.58006016452366" lon="11.683924410059978"><ele>8.666666666666666</ele><time>2026-04-04T12:45:43Z</time></trkpt><trkpt lat="44.5800098673139" lon="11.684140247056156"><ele>8.333333333333332</ele><time>2026-04-04T12:45:44Z</time></trkpt><trkpt lat="44.57995862972379" lon="11.684368589245677"><ele>8.0</ele><time>2026-04-04T12:45:45Z</time></trkpt><trkpt lat="44.579907800361184" lon="11.684601837707762"><ele>7.666666666666666</ele><time>2026-04-04T12:45:46Z</time></trkpt><trkpt lat="44.579855161439156" lon="11.68483921043194"><ele>7.333333333333334</ele><time>2026-04-04T12:45:47Z</time></trkpt><trkpt lat="44.57980167544905" lon="11.685076913916193"><ele>7.0</ele><time>2026-04-04T12:45:48Z</time></trkpt><trkpt lat="44.57974730977371" lon="11.68531658909147"><ele>7.0</ele><time>2026-04-04T12:45:49Z</time></trkpt><trkpt lat="44.57969287394777" lon="11.685555502755577"><ele>7.0</ele><time>2026-04-04T12:45:50Z</time></trkpt><trkpt lat="44.57963872110308" lon="11.685793937909985"><ele>7.0</ele><time>2026-04-04T12:45:51Z</time></trkpt><trkpt lat="44.57958376426624" lon="11.68604500120083"><ele>7.0</ele><time>2026-04-04T12:45:52Z</time></trkpt><trkpt lat="44.57952875128368" lon="11.686287951889565"><ele>7.0</ele><time>2026-04-04T12:45:53Z</time></trkpt><trkpt lat="44.57947175010383" lon="11.6865417474623"><ele>7.0</ele><time>2026-04-04T12:45:54Z</time></trkpt><trkpt lat="44.579416906836826" lon="11.68678578732066"><ele>7.333333333333334</ele><time>2026-04-04T12:45:55Z</time></trkpt><trkpt lat="44.57936086006452" lon="11.687031330715184"><ele>7.666666666666666</ele><time>2026-04-04T12:45:56Z</time></trkpt><trkpt lat="44.57930712324378" lon="11.687272147322702"><ele>8.0</ele><time>2026-04-04T12:45:57Z</time></trkpt><trkpt lat="44.57925397847954" lon="11.687502187650614"><ele>8.0</ele><time>2026-04-04T12:45:58Z</time></trkpt><trkpt lat="44.579202722310654" lon="11.687728700329886"><ele>8.0</ele><time>2026-04-04T12:45:59Z</time></trkpt><trkpt lat="44.579149872868165" lon="11.687954505193181"><ele>8.0</ele><time>2026-04-04T12:46:00Z</time></trkpt><trkpt lat="44.579096806143276" lon="11.688201287393493"><ele>8.0</ele><time>2026-04-04T12:46:01Z</time></trkpt><trkpt lat="44.57904482506437" lon="11.688440723595203"><ele>8.0</ele><time>2026-04-04T12:46:02Z</time></trkpt><trkpt lat="44.57899357038805" lon="11.688675147542263"><ele>8.0</ele><time>2026-04-04T12:46:03Z</time></trkpt><trkpt lat="44.57894251226993" lon="11.688900345544615"><ele>8.333333333333332</ele><time>2026-04-04T12:46:04Z</time></trkpt><trkpt lat="44.57888920265939" lon="11.689135450026837"><ele>8.666666666666666</ele><time>2026-04-04T12:46:05.001Z</time></trkpt><trkpt lat="44.57883665689448" lon="11.6893611650459"><ele>9.0</ele><time>2026-04-04T12:46:06.001Z</time></trkpt><trkpt lat="44.57878425254011" lon="11.689584619567563"><ele>8.333333333333334</ele><time>2026-04-04T12:46:07.001Z</time></trkpt><trkpt lat="44.57873046634767" lon="11.689811767567617"><ele>7.666666666666667</ele><time>2026-04-04T12:46:08.001Z</time></trkpt><trkpt lat="44.57868186893336" lon="11.690037031933487"><ele>7.0</ele><time>2026-04-04T12:46:09.001Z</time></trkpt><trkpt lat="44.578633166213365" lon="11.69026168958311"><ele>6.666666666666667</ele><time>2026-04-04T12:46:10.001Z</time></trkpt><trkpt lat="44.57858338513089" lon="11.690486633576866"><ele>6.333333333333334</ele><time>2026-04-04T12:46:11.001Z</time></trkpt><trkpt lat="44.57853044613824" lon="11.690700594670187"><ele>6.0</ele><time>2026-04-04T12:46:12.001Z</time></trkpt><trkpt lat="44.57848237346596" lon="11.69091706602376"><ele>6.0</ele><time>2026-04-04T12:46:13.001Z</time></trkpt><trkpt lat="44.5784391011632" lon="11.691115554715036"><ele>6.0</ele><time>2026-04-04T12:46:14.001Z</time></trkpt><trkpt lat="44.57839882177742" lon="11.691312310993338"><ele>6.0</ele><time>2026-04-04T12:46:15.001Z</time></trkpt><trkpt lat="44.57835364806737" lon="11.691506003559638"><ele>6.0</ele><time>2026-04-04T12:46:16.001Z</time></trkpt><trkpt lat="44.5783023439014" lon="11.691690736648084"><ele>6.0</ele><time>2026-04-04T12:46:17.001Z</time></trkpt><trkpt lat="44.57825474366818" lon="11.69187934429529"><ele>6.0</ele><time>2026-04-04T12:46:18.001Z</time></trkpt><trkpt lat="44.57821096718107" lon="11.69207763733142"><ele>6.0</ele><time>2026-04-04T12:46:19.001Z</time></trkpt><trkpt lat="44.57816759245392" lon="11.692269933900953"><ele>6.0</ele><time>2026-04-04T12:46:20.001Z</time></trkpt><trkpt lat="44.57812929804336" lon="11.692445213390096"><ele>6.0</ele><time>2026-04-04T12:46:21.001Z</time></trkpt><trkpt lat="44.57809320458627" lon="11.692605885413304"><ele>6.0</ele><time>2026-04-04T12:46:22.001Z</time></trkpt><trkpt lat="44.57806352487902" lon="11.692756058026351"><ele>6.0</ele><time>2026-04-04T12:46:23.001Z</time></trkpt><trkpt lat="44.57803911827073" lon="11.692897658478387"><ele>6.0</ele><time>2026-04-04T12:46:24.001Z</time></trkpt><trkpt lat="44.577997058796456" lon="11.693036551507461"><ele>6.0</ele><time>2026-04-04T12:46:25.001Z</time></trkpt><trkpt lat="44.57796186284292" lon="11.693191199915761"><ele>6.0</ele><time>2026-04-04T12:46:26.001Z</time></trkpt><trkpt lat="44.57792376030462" lon="11.693358619608341"><ele>6.0</ele><time>2026-04-04T12:46:27.001Z</time></trkpt><trkpt lat="44.57789259029198" lon="11.693535079778792"><ele>6.0</ele><time>2026-04-04T12:46:28.001Z</time></trkpt><trkpt lat="44.57784146360035" lon="11.693708510632334"><ele>6.0</ele><time>2026-04-04T12:46:29.001Z</time></trkpt><trkpt lat="44.5777989736228" lon="11.693883551305372"><ele>6.0</ele><time>2026-04-04T12:46:30.001Z</time></trkpt><trkpt lat="44.57776476505551" lon="11.694046339443783"><ele>6.0</ele><time>2026-04-04T12:46:31.001Z</time></trkpt><trkpt lat="44.57772230923322" lon="11.69420426389328"><ele>6.0</ele><time>2026-04-04T12:46:32.001Z</time></trkpt><trkpt lat="44.577684418552714" lon="11.694360720635022"><ele>6.0</ele><time>2026-04-04T12:46:33.001Z</time></trkpt><trkpt lat="44.57765291956971" lon="11.694518148811424"><ele>6.25</ele><time>2026-04-04T12:46:34.001Z</time></trkpt><trkpt lat="44.57762072620252" lon="11.694673155782793"><ele>6.5</ele><time>2026-04-04T12:46:35.001Z</time></trkpt><trkpt lat="44.577585400157545" lon="11.694823715316137"><ele>6.75</ele><time>2026-04-04T12:46:36.001Z</time></trkpt><trkpt lat="44.577551707723536" lon="11.694977188158882"><ele>7.0</ele><time>2026-04-04T12:46:37.001Z</time></trkpt><trkpt lat="44.57751999996166" lon="11.695128419137879"><ele>6.75</ele><time>2026-04-04T12:46:38.001Z</time></trkpt><trkpt lat="44.5774860379375" lon="11.695280142030263"><ele>6.5</ele><time>2026-04-04T12:46:39.001Z</time></trkpt><trkpt lat="44.5774541557606" lon="11.695430783908673"><ele>6.25</ele><time>2026-04-04T12:46:40.001Z</time></trkpt><trkpt lat="44.577422401205155" lon="11.695585824684105"><ele>6.0</ele><time>2026-04-04T12:46:41.001Z</time></trkpt><trkpt lat="44.57738394464686" lon="11.69573749127065"><ele>6.0</ele><time>2026-04-04T12:46:42.001Z</time></trkpt><trkpt lat="44.57734965462" lon="11.695885750414812"><ele>6.0</ele><time>2026-04-04T12:46:43.001Z</time></trkpt><trkpt lat="44.57731456362704" lon="11.696039871795243"><ele>6.0</ele><time>2026-04-04T12:46:44.001Z</time></trkpt><trkpt lat="44.5772786134879" lon="11.696199779039457"><ele>6.0</ele><time>2026-04-04T12:46:45.001Z</time></trkpt><trkpt lat="44.577242403897536" lon="11.696361124832976"><ele>6.25</ele><time>2026-04-04T12:46:46.001Z</time></trkpt><trkpt lat="44.57720624360898" lon="11.696524597266338"><ele>6.5</ele><time>2026-04-04T12:46:47.002Z</time></trkpt><trkpt lat="44.5771676694611" lon="11.696681870969835"><ele>6.75</ele><time>2026-04-04T12:46:48.002Z</time></trkpt><trkpt lat="44.57712938416382" lon="11.69683792957373"><ele>7.0</ele><time>2026-04-04T12:46:49.002Z</time></trkpt><trkpt lat="44.57709424529379" lon="11.696997685437369"><ele>7.25</ele><time>2026-04-04T12:46:50.002Z</time></trkpt><trkpt lat="44.577062852554555" lon="11.697159986887419"><ele>7.5</ele><time>2026-04-04T12:46:51.002Z</time></trkpt><trkpt lat="44.57702723367381" lon="11.697322482351726"><ele>7.75</ele><time>2026-04-04T12:46:52.002Z</time></trkpt><trkpt lat="44.57698569383887" lon="11.697486199179144"><ele>8.0</ele><time>2026-04-04T12:46:53.002Z</time></trkpt><trkpt lat="44.57694470838924" lon="11.697667000626762"><ele>7.75</ele><time>2026-04-04T12:46:54.002Z</time></trkpt><trkpt lat="44.57690242360449" lon="11.69785346376873"><ele>7.5</ele><time>2026-04-04T12:46:55.002Z</time></trkpt><trkpt lat="44.5768594749683" lon="11.69805423339978"><ele>7.25</ele><time>2026-04-04T12:46:56.002Z</time></trkpt><trkpt lat="44.57681616396867" lon="11.698260689722073"><ele>7.0</ele><time>2026-04-04T12:46:57.002Z</time></trkpt><trkpt lat="44.57676827884397" lon="11.698484630719609"><ele>6.666666666666667</ele><time>2026-04-04T12:46:58.002Z</time></trkpt><trkpt lat="44.576713622965755" lon="11.698741259828827"><ele>6.333333333333334</ele><time>2026-04-04T12:46:59.002Z</time></trkpt><trkpt lat="44.57665574937835" lon="11.698994505490756"><ele>6.0</ele><time>2026-04-04T12:47:00.002Z</time></trkpt><trkpt lat="44.57659953158106" lon="11.699240962817843"><ele>6.333333333333334</ele><time>2026-04-04T12:47:01.002Z</time></trkpt><trkpt lat="44.576545875377434" lon="11.69948200006433"><ele>6.666666666666667</ele><time>2026-04-04T12:47:02.002Z</time></trkpt><trkpt lat="44.576494604030515" lon="11.699708185094103"><ele>7.0</ele><time>2026-04-04T12:47:03.002Z</time></trkpt><trkpt lat="44.57644767363631" lon="11.699917130897875"><ele>7.0</ele><time>2026-04-04T12:47:04.002Z</time></trkpt><trkpt lat="44.57640708548587" lon="11.700120972870945"><ele>7.0</ele><time>2026-04-04T12:47:05.002Z</time></trkpt><trkpt lat="44.57637194035932" lon="11.700320081886863"><ele>7.0</ele><time>2026-04-04T12:47:06.002Z</time></trkpt><trkpt lat="44.5763444344066" lon="11.700513636418373"><ele>7.0</ele><time>2026-04-04T12:47:07.002Z</time></trkpt><trkpt lat="44.576323983492" lon="11.700703788079176"><ele>7.0</ele><time>2026-04-04T12:47:08.002Z</time></trkpt><trkpt lat="44.576306642884845" lon="11.700892793812427"><ele>7.0</ele><time>2026-04-04T12:47:09.002Z</time></trkpt><trkpt lat="44.57629372755899" lon="11.701083716444321"><ele>7.0</ele><time>2026-04-04T12:47:10.002Z</time></trkpt><trkpt lat="44.576282657397094" lon="11.701260919906751"><ele>7.0</ele><time>2026-04-04T12:47:11.002Z</time></trkpt><trkpt lat="44.57626204845871" lon="11.701436113803183"><ele>7.25</ele><time>2026-04-04T12:47:12.002Z</time></trkpt><trkpt lat="44.5762483032318" lon="11.701608252997211"><ele>7.5</ele><time>2026-04-04T12:47:13.002Z</time></trkpt><trkpt lat="44.5762353402872" lon="11.701769854013783"><ele>7.75</ele><time>2026-04-04T12:47:14.002Z</time></trkpt><trkpt lat="44.57622091889988" lon="11.701924771202945"><ele>8.0</ele><time>2026-04-04T12:47:15.002Z</time></trkpt><trkpt lat="44.57620804673241" lon="11.702084617288556"><ele>7.999999999999999</ele><time>2026-04-04T12:47:16.002Z</time></trkpt><trkpt lat="44.576193339977195" lon="11.702224228657066"><ele>8.0</ele><time>2026-04-04T12:47:17.002Z</time></trkpt><trkpt lat="44.57618383274564" lon="11.702351973604904"><ele>8.0</ele><time>2026-04-04T12:47:18.002Z</time></trkpt><trkpt lat="44.57617162608949" lon="11.702475681822417"><ele>8.0</ele><time>2026-04-04T12:47:19.002Z</time></trkpt><trkpt lat="44.57615870358283" lon="11.702596608639487"><ele>7.999999999999999</ele><time>2026-04-04T12:47:20.002Z</time></trkpt><trkpt lat="44.57614721269058" lon="11.70270636719004"><ele>8.0</ele><time>2026-04-04T12:47:21.002Z</time></trkpt><trkpt lat="44.57613828135702" lon="11.702815326132098"><ele>7.833333333333333</ele><time>2026-04-04T12:47:22.002Z</time></trkpt><trkpt lat="44.5761313751138" lon="11.702925581515876"><ele>7.666666666666666</ele><time>2026-04-04T12:47:23.002Z</time></trkpt><trkpt lat="44.576121529359504" lon="11.703044710385663"><ele>7.5</ele><time>2026-04-04T12:47:24.002Z</time></trkpt><trkpt lat="44.576114127951946" lon="11.70314853627138"><ele>7.333333333333334</ele><time>2026-04-04T12:47:25.002Z</time></trkpt><trkpt lat="44.57609925696702" lon="11.703291020475735"><ele>7.166666666666667</ele><time>2026-04-04T12:47:27.002Z</time></trkpt><trkpt lat="44.57607834338064" lon="11.703404619516181"><ele>7.0</ele><time>2026-04-04T12:47:29.002Z</time></trkpt><trkpt lat="44.576042422339135" lon="11.703486817906983"><ele>7.0</ele><time>2026-04-04T12:47:44.001Z</time></trkpt><trkpt lat="44.575909167933396" lon="11.703524491083888"><ele>7.0</ele><time>2026-04-04T12:47:46.001Z</time></trkpt><trkpt lat="44.57581952180877" lon="11.703546509199063"><ele>7.0</ele><time>2026-04-04T12:47:47.001Z</time></trkpt><trkpt lat="44.575686916433675" lon="11.703591828630987"><ele>7.0</ele><time>2026-04-04T12:47:48.001Z</time></trkpt><trkpt lat="44.575546939673636" lon="11.703635319613483"><ele>7.0</ele><time>2026-04-04T12:47:49.001Z</time></trkpt><trkpt lat="44.57540545601859" lon="11.703668547361188"><ele>7.0</ele><time>2026-04-04T12:47:50.001Z</time></trkpt><trkpt lat="44.57527530730074" lon="11.703705871052454"><ele>7.0</ele><time>2026-04-04T12:47:51.001Z</time></trkpt><trkpt lat="44.57515778970609" lon="11.703732383598084"><ele>7.0</ele><time>2026-04-04T12:47:52.001Z</time></trkpt><trkpt lat="44.575067880029486" lon="11.703758500920635"><ele>7.0</ele><time>2026-04-04T12:47:53.001Z</time></trkpt><trkpt lat="44.57499425729373" lon="11.703794862002653"><ele>6.999999999999999</ele><time>2026-04-04T12:47:54.001Z</time></trkpt><trkpt lat="44.574922618821546" lon="11.703878390837495"><ele>6.999999999999999</ele><time>2026-04-04T12:47:55.001Z</time></trkpt><trkpt lat="44.574866224740724" lon="11.704006971500855"><ele>7.0</ele><time>2026-04-04T12:47:56.001Z</time></trkpt><trkpt lat="44.57484692123315" lon="11.704162150496321"><ele>7.0</ele><time>2026-04-04T12:47:57.001Z</time></trkpt><trkpt lat="44.57485966910735" lon="11.70433874343356"><ele>7.666666666666667</ele><time>2026-04-04T12:47:58.001Z</time></trkpt><trkpt lat="44.57488634343361" lon="11.704544635038179"><ele>8.333333333333334</ele><time>2026-04-04T12:47:59.001Z</time></trkpt><trkpt lat="44.57491488030391" lon="11.704756492841904"><ele>9.0</ele><time>2026-04-04T12:48:00.001Z</time></trkpt><trkpt lat="44.57494674070773" lon="11.70499138482384"><ele>9.0</ele><time>2026-04-04T12:48:01.001Z</time></trkpt><trkpt lat="44.57497468250544" lon="11.705210094845635"><ele>9.0</ele><time>2026-04-04T12:48:02.001Z</time></trkpt><trkpt lat="44.57499911500279" lon="11.70539112309897"><ele>9.0</ele><time>2026-04-04T12:48:03.001Z</time></trkpt><trkpt lat="44.57502406936385" lon="11.705541178434048"><ele>9.0</ele><time>2026-04-04T12:48:04.001Z</time></trkpt><trkpt lat="44.5750404251188" lon="11.705662766494653"><ele>9.4</ele><time>2026-04-04T12:48:05.001Z</time></trkpt><trkpt lat="44.57503506930529" lon="11.705762852880444"><ele>9.8</ele><time>2026-04-04T12:48:06.001Z</time></trkpt><trkpt lat="44.57502430348499" lon="11.70591504329994"><ele>10.200000000000001</ele><time>2026-04-04T12:48:08.001Z</time></trkpt><trkpt lat="44.57497082889182" lon="11.705983400078825"><ele>10.600000000000001</ele><time>2026-04-04T12:48:09.001Z</time></trkpt><trkpt lat="44.57479529720426" lon="11.706008549954257"><ele>11.0</ele><time>2026-04-04T12:48:11.001Z</time></trkpt><trkpt lat="44.574684859563924" lon="11.706058465332468"><ele>11.0</ele><time>2026-04-04T12:48:12.001Z</time></trkpt><trkpt lat="44.57454914675524" lon="11.706088068911168"><ele>11.0</ele><time>2026-04-04T12:48:13.001Z</time></trkpt><trkpt lat="44.57444929248318" lon="11.70611837445553"><ele>11.0</ele><time>2026-04-04T12:48:14.001Z</time></trkpt><trkpt lat="44.57436038321554" lon="11.706143976548846"><ele>11.0</ele><time>2026-04-04T12:48:15.001Z</time></trkpt><trkpt lat="44.574287599403334" lon="11.706158204368256"><ele>11.0</ele><time>2026-04-04T12:48:16.001Z</time></trkpt><trkpt lat="44.57418483625487" lon="11.706218989680174"><ele>11.0</ele><time>2026-04-04T12:48:18.001Z</time></trkpt><trkpt lat="44.57415539794417" lon="11.70630630324277"><ele>11.0</ele><time>2026-04-04T12:48:19.001Z</time></trkpt><trkpt lat="44.574150363605106" lon="11.706424393955782"><ele>11.0</ele><time>2026-04-04T12:48:20.001Z</time></trkpt><trkpt lat="44.57417321290892" lon="11.706570478659144"><ele>11.0</ele><time>2026-04-04T12:48:21.001Z</time></trkpt><trkpt lat="44.57420505110775" lon="11.706751924234101"><ele>11.0</ele><time>2026-04-04T12:48:22.001Z</time></trkpt><trkpt lat="44.5742299643717" lon="11.706932032818077"><ele>11.0</ele><time>2026-04-04T12:48:23.001Z</time></trkpt><trkpt lat="44.57425300174893" lon="11.70713702772113"><ele>11.0</ele><time>2026-04-04T12:48:24.001Z</time></trkpt><trkpt lat="44.574278229033915" lon="11.70735106242483"><ele>11.0</ele><time>2026-04-04T12:48:25.001Z</time></trkpt><trkpt lat="44.57429902207134" lon="11.707538476706201"><ele>11.0</ele><time>2026-04-04T12:48:26.001Z</time></trkpt><trkpt lat="44.57432132290648" lon="11.707711270455329"><ele>11.0</ele><time>2026-04-04T12:48:27.001Z</time></trkpt><trkpt lat="44.574346744056584" lon="11.707865693001411"><ele>11.0</ele><time>2026-04-04T12:48:28.001Z</time></trkpt><trkpt lat="44.57437176617773" lon="11.708008275253977"><ele>11.0</ele><time>2026-04-04T12:48:29.001Z</time></trkpt><trkpt lat="44.5743855365113" lon="11.708141476468699"><ele>11.0</ele><time>2026-04-04T12:48:30.001Z</time></trkpt><trkpt lat="44.57438315113288" lon="11.708289667811684"><ele>11.0</ele><time>2026-04-04T12:48:31.001Z</time></trkpt><trkpt lat="44.574351470574044" lon="11.708441396885403"><ele>10.25</ele><time>2026-04-04T12:48:32.001Z</time></trkpt><trkpt lat="44.57428017823371" lon="11.708591213985738"><ele>9.5</ele><time>2026-04-04T12:48:33.001Z</time></trkpt><trkpt lat="44.57417069104309" lon="11.708720201865312"><ele>8.75</ele><time>2026-04-04T12:48:34.001Z</time></trkpt><trkpt lat="44.574048849302294" lon="11.708832302070643"><ele>8.0</ele><time>2026-04-04T12:48:35.001Z</time></trkpt><trkpt lat="44.57392582776404" lon="11.708936347479977"><ele>8.0</ele><time>2026-04-04T12:48:36.001Z</time></trkpt><trkpt lat="44.57379245329674" lon="11.709057270938901"><ele>8.0</ele><time>2026-04-04T12:48:37.001Z</time></trkpt><trkpt lat="44.57364672757401" lon="11.709189377567808"><ele>8.0</ele><time>2026-04-04T12:48:38.002Z</time></trkpt><trkpt lat="44.57350748784671" lon="11.709320884537911"><ele>7.666666666666666</ele><time>2026-04-04T12:48:39.002Z</time></trkpt><trkpt lat="44.57336225911362" lon="11.709456670290527"><ele>7.333333333333334</ele><time>2026-04-04T12:48:40.002Z</time></trkpt><trkpt lat="44.573227592245566" lon="11.70958240225453"><ele>7.0</ele><time>2026-04-04T12:48:41.002Z</time></trkpt><trkpt lat="44.573081295478445" lon="11.709713417653314"><ele>7.0</ele><time>2026-04-04T12:48:42.002Z</time></trkpt><trkpt lat="44.57293638434954" lon="11.70984976172077"><ele>7.0</ele><time>2026-04-04T12:48:43.002Z</time></trkpt><trkpt lat="44.57278758162648" lon="11.709990256515443"><ele>7.0</ele><time>2026-04-04T12:48:44.002Z</time></trkpt><trkpt lat="44.572640031773005" lon="11.710129846511862"><ele>7.0</ele><time>2026-04-04T12:48:45.002Z</time></trkpt><trkpt lat="44.57249390106528" lon="11.71026374514608"><ele>7.0</ele><time>2026-04-04T12:48:46.002Z</time></trkpt><trkpt lat="44.57234258218643" lon="11.710401288115978"><ele>7.0</ele><time>2026-04-04T12:48:47.002Z</time></trkpt><trkpt lat="44.57219154215071" lon="11.710540721042769"><ele>7.0</ele><time>2026-04-04T12:48:48.002Z</time></trkpt><trkpt lat="44.57204152915206" lon="11.71068317617744"><ele>7.0</ele><time>2026-04-04T12:48:49.002Z</time></trkpt><trkpt lat="44.571888862411214" lon="11.710818129730391"><ele>7.0</ele><time>2026-04-04T12:48:50.002Z</time></trkpt><trkpt lat="44.57173486388683" lon="11.710963572593245"><ele>7.333333333333334</ele><time>2026-04-04T12:48:51.002Z</time></trkpt><trkpt lat="44.57157935171053" lon="11.71110313912854"><ele>7.666666666666666</ele><time>2026-04-04T12:48:52.002Z</time></trkpt><trkpt lat="44.57142443704507" lon="11.7112511096382"><ele>8.0</ele><time>2026-04-04T12:48:53.002Z</time></trkpt><trkpt lat="44.57127322073646" lon="11.711396716157862"><ele>8.333333333333332</ele><time>2026-04-04T12:48:54.002Z</time></trkpt><trkpt lat="44.571121840729276" lon="11.711533929483"><ele>8.666666666666666</ele><time>2026-04-04T12:48:55.002Z</time></trkpt><trkpt lat="44.57097735934579" lon="11.711671384301217"><ele>9.0</ele><time>2026-04-04T12:48:56.002Z</time></trkpt><trkpt lat="44.57083236785695" lon="11.711800041559004"><ele>8.333333333333334</ele><time>2026-04-04T12:48:57.002Z</time></trkpt><trkpt lat="44.57068256289324" lon="11.711934628092925"><ele>7.666666666666667</ele><time>2026-04-04T12:48:58.002Z</time></trkpt><trkpt lat="44.57053183500129" lon="11.71207700581922"><ele>7.0</ele><time>2026-04-04T12:48:59.002Z</time></trkpt><trkpt lat="44.570381388460994" lon="11.712218382427757"><ele>7.666666666666667</ele><time>2026-04-04T12:49:00.002Z</time></trkpt><trkpt lat="44.57022923282284" lon="11.712357227067285"><ele>8.333333333333334</ele><time>2026-04-04T12:49:01.002Z</time></trkpt><trkpt lat="44.57007456326946" lon="11.712505808922637"><ele>9.0</ele><time>2026-04-04T12:49:02.002Z</time></trkpt><trkpt lat="44.56989888984362" lon="11.712651467254604"><ele>8.666666666666666</ele><time>2026-04-04T12:49:03.002Z</time></trkpt><trkpt lat="44.56971365214547" lon="11.712823623875831"><ele>8.333333333333332</ele><time>2026-04-04T12:49:04.002Z</time></trkpt><trkpt lat="44.56952425564017" lon="11.71299964556123"><ele>8.0</ele><time>2026-04-04T12:49:05.002Z</time></trkpt><trkpt lat="44.56935000600429" lon="11.713187220874238"><ele>8.0</ele><time>2026-04-04T12:49:06.002Z</time></trkpt><trkpt lat="44.569176550283146" lon="11.713340319705807"><ele>8.0</ele><time>2026-04-04T12:49:07.002Z</time></trkpt><trkpt lat="44.569009831948776" lon="11.713494392824515"><ele>8.0</ele><time>2026-04-04T12:49:08.002Z</time></trkpt><trkpt lat="44.56884414981225" lon="11.713647511182986"><ele>8.0</ele><time>2026-04-04T12:49:09.002Z</time></trkpt><trkpt lat="44.56867801867136" lon="11.71379612762025"><ele>8.0</ele><time>2026-04-04T12:49:10.002Z</time></trkpt><trkpt lat="44.56851793723603" lon="11.713939345456765"><ele>8.0</ele><time>2026-04-04T12:49:11.002Z</time></trkpt><trkpt lat="44.56836191779754" lon="11.714083083113746"><ele>8.0</ele><time>2026-04-04T12:49:12.002Z</time></trkpt><trkpt lat="44.56820757726015" lon="11.714228274313616"><ele>8.0</ele><time>2026-04-04T12:49:13.002Z</time></trkpt><trkpt lat="44.568056736889865" lon="11.714367048319755"><ele>8.0</ele><time>2026-04-04T12:49:14.002Z</time></trkpt><trkpt lat="44.56790096596319" lon="11.714510346378212"><ele>7.666666666666666</ele><time>2026-04-04T12:49:15.002Z</time></trkpt><trkpt lat="44.567747148188005" lon="11.71465387282969"><ele>7.333333333333334</ele><time>2026-04-04T12:49:16.002Z</time></trkpt><trkpt lat="44.56759701429543" lon="11.714796360715255"><ele>7.0</ele><time>2026-04-04T12:49:17.002Z</time></trkpt><trkpt lat="44.567439514640284" lon="11.714943097713107"><ele>7.0</ele><time>2026-04-04T12:49:18.002Z</time></trkpt><trkpt lat="44.56728236182412" lon="11.715087358998007"><ele>7.0</ele><time>2026-04-04T12:49:19.002Z</time></trkpt><trkpt lat="44.567126551506256" lon="11.715231870222325"><ele>7.0</ele><time>2026-04-04T12:49:20.002Z</time></trkpt><trkpt lat="44.56696889733398" lon="11.715376059990419"><ele>7.0</ele><time>2026-04-04T12:49:21.002Z</time></trkpt><trkpt lat="44.56681217901393" lon="11.71551925155703"><ele>7.0</ele><time>2026-04-04T12:49:22.002Z</time></trkpt><trkpt lat="44.56666030133299" lon="11.71565660527578"><ele>7.0</ele><time>2026-04-04T12:49:23.002Z</time></trkpt><trkpt lat="44.56650673014381" lon="11.715792405001299"><ele>7.0</ele><time>2026-04-04T12:49:24.002Z</time></trkpt><trkpt lat="44.566351770362935" lon="11.715923027094155"><ele>7.0</ele><time>2026-04-04T12:49:25.002Z</time></trkpt><trkpt lat="44.56619673957733" lon="11.71603563647379"><ele>7.0</ele><time>2026-04-04T12:49:26.003Z</time></trkpt><trkpt lat="44.56603705454904" lon="11.716150744176764"><ele>6.333333333333334</ele><time>2026-04-04T12:49:27.003Z</time></trkpt><trkpt lat="44.56587544612486" lon="11.716263708526597"><ele>5.666666666666667</ele><time>2026-04-04T12:49:28.003Z</time></trkpt><trkpt lat="44.56570889735021" lon="11.716382381318812"><ele>5.0</ele><time>2026-04-04T12:49:29.003Z</time></trkpt><trkpt lat="44.56554495787312" lon="11.7165109289594"><ele>5.0</ele><time>2026-04-04T12:49:30.003Z</time></trkpt><trkpt lat="44.56539040382848" lon="11.716637869723503"><ele>5.0</ele><time>2026-04-04T12:49:31.003Z</time></trkpt><trkpt lat="44.56523711772192" lon="11.716775717448304"><ele>5.0</ele><time>2026-04-04T12:49:32.003Z</time></trkpt><trkpt lat="44.56508085616486" lon="11.71692705475602"><ele>5.333333333333334</ele><time>2026-04-04T12:49:33.003Z</time></trkpt><trkpt lat="44.56491772481838" lon="11.717076322278679"><ele>5.666666666666667</ele><time>2026-04-04T12:49:34.003Z</time></trkpt><trkpt lat="44.564753143762026" lon="11.717216313106876"><ele>6.0</ele><time>2026-04-04T12:49:35.003Z</time></trkpt><trkpt lat="44.56459247944535" lon="11.71736454549589"><ele>6.0</ele><time>2026-04-04T12:49:36.003Z</time></trkpt><trkpt lat="44.5644393448703" lon="11.717503132274492"><ele>6.0</ele><time>2026-04-04T12:49:37.003Z</time></trkpt><trkpt lat="44.56429524992867" lon="11.71763512763184"><ele>6.0</ele><time>2026-04-04T12:49:38.003Z</time></trkpt><trkpt lat="44.56416316107001" lon="11.717757474357946"><ele>5.75</ele><time>2026-04-04T12:49:39.003Z</time></trkpt><trkpt lat="44.56403748217038" lon="11.717871531925574"><ele>5.5</ele><time>2026-04-04T12:49:40.003Z</time></trkpt><trkpt lat="44.563921210023835" lon="11.717979763372298"><ele>5.25</ele><time>2026-04-04T12:49:41.003Z</time></trkpt><trkpt lat="44.563810331494906" lon="11.718079435654833"><ele>5.0</ele><time>2026-04-04T12:49:42.001Z</time></trkpt><trkpt lat="44.563708667148155" lon="11.718169961454725"><ele>5.25</ele><time>2026-04-04T12:49:43.001Z</time></trkpt><trkpt lat="44.56360940365119" lon="11.718260872906072"><ele>5.5</ele><time>2026-04-04T12:49:44.001Z</time></trkpt><trkpt lat="44.563511282068674" lon="11.718348282010458"><ele>5.75</ele><time>2026-04-04T12:49:45.001Z</time></trkpt><trkpt lat="44.56341376326732" lon="11.718437842936266"><ele>6.0</ele><time>2026-04-04T12:49:46.001Z</time></trkpt><trkpt lat="44.563317755598526" lon="11.71852793198399"><ele>5.75</ele><time>2026-04-04T12:49:47.001Z</time></trkpt><trkpt lat="44.56322126226954" lon="11.718619087619224"><ele>5.5</ele><time>2026-04-04T12:49:48.001Z</time></trkpt><trkpt lat="44.56312390801945" lon="11.718707804496388"><ele>5.25</ele><time>2026-04-04T12:49:49.001Z</time></trkpt><trkpt lat="44.563026498710094" lon="11.718792279377372"><ele>5.0</ele><time>2026-04-04T12:49:50.001Z</time></trkpt><trkpt lat="44.56292615771783" lon="11.718883072776428"><ele>5.0</ele><time>2026-04-04T12:49:51.001Z</time></trkpt><trkpt lat="44.562824968862415" lon="11.718977804346292"><ele>5.0</ele><time>2026-04-04T12:49:52.001Z</time></trkpt><trkpt lat="44.56272460783454" lon="11.719073401237145"><ele>5.0</ele><time>2026-04-04T12:49:53.001Z</time></trkpt><trkpt lat="44.56263008067375" lon="11.719163482730833"><ele>5.0</ele><time>2026-04-04T12:49:54.001Z</time></trkpt><trkpt lat="44.56254322376897" lon="11.7192440694709"><ele>5.0</ele><time>2026-04-04T12:49:55.001Z</time></trkpt><trkpt lat="44.56246253564187" lon="11.719317348984138"><ele>5.0</ele><time>2026-04-04T12:49:56.001Z</time></trkpt><trkpt lat="44.56238690335728" lon="11.719384800436789"><ele>5.0</ele><time>2026-04-04T12:49:57.001Z</time></trkpt><trkpt lat="44.5623150163216" lon="11.719453428931736"><ele>5.0</ele><time>2026-04-04T12:49:58.001Z</time></trkpt><trkpt lat="44.56223815566143" lon="11.719524342823467"><ele>5.0</ele><time>2026-04-04T12:49:59.001Z</time></trkpt><trkpt lat="44.56215442578315" lon="11.7196015756718"><ele>5.0</ele><time>2026-04-04T12:50:00.001Z</time></trkpt><trkpt lat="44.56206619105914" lon="11.719680651515343"><ele>5.0</ele><time>2026-04-04T12:50:01.001Z</time></trkpt><trkpt lat="44.56197205669381" lon="11.719770659455074"><ele>5.0</ele><time>2026-04-04T12:50:02.001Z</time></trkpt><trkpt lat="44.56187567843742" lon="11.719856670638476"><ele>5.0</ele><time>2026-04-04T12:50:03.001Z</time></trkpt><trkpt lat="44.56178528267294" lon="11.719935677038906"><ele>5.0</ele><time>2026-04-04T12:50:04.001Z</time></trkpt><trkpt lat="44.5617043484704" lon="11.72001480522763"><ele>5.2</ele><time>2026-04-04T12:50:05.001Z</time></trkpt><trkpt lat="44.56162228036758" lon="11.72008849454493"><ele>5.4</ele><time>2026-04-04T12:50:06.001Z</time></trkpt><trkpt lat="44.561535635281935" lon="11.720166745782373"><ele>5.6</ele><time>2026-04-04T12:50:07.001Z</time></trkpt><trkpt lat="44.56144937803029" lon="11.720233792918483"><ele>5.8</ele><time>2026-04-04T12:50:08.001Z</time></trkpt><trkpt lat="44.56137343121892" lon="11.720302861911836"><ele>6.0</ele><time>2026-04-04T12:50:09.001Z</time></trkpt><trkpt lat="44.56129643805596" lon="11.720376310235785"><ele>6.0</ele><time>2026-04-04T12:50:10.001Z</time></trkpt><trkpt lat="44.56121872626344" lon="11.72044487159521"><ele>6.0</ele><time>2026-04-04T12:50:11.001Z</time></trkpt><trkpt lat="44.5611489542713" lon="11.720514134234653"><ele>6.0</ele><time>2026-04-04T12:50:12.001Z</time></trkpt><trkpt lat="44.561087261821534" lon="11.720565751351964"><ele>6.0</ele><time>2026-04-04T12:50:13.001Z</time></trkpt><trkpt lat="44.561028299531145" lon="11.720622998137165"><ele>6.0</ele><time>2026-04-04T12:50:14.001Z</time></trkpt><trkpt lat="44.56097272331177" lon="11.720674604825168"><ele>6.0</ele><time>2026-04-04T12:50:15.001Z</time></trkpt><trkpt lat="44.56088009815029" lon="11.720766626466476"><ele>6.5</ele><time>2026-04-04T12:50:17.001Z</time></trkpt><trkpt lat="44.56079672289356" lon="11.720851694374655"><ele>7.0</ele><time>2026-04-04T12:50:19.001Z</time></trkpt><trkpt lat="44.56072511633648" lon="11.720900552042131"><ele>7.5</ele><time>2026-04-04T12:50:21.001Z</time></trkpt><trkpt lat="44.56066447867818" lon="11.720941536176479"><ele>8.0</ele><time>2026-04-04T12:50:23.001Z</time></trkpt><trkpt lat="44.56058549404809" lon="11.720953628445622"><ele>8.5</ele><time>2026-04-04T12:50:26.001Z</time></trkpt><trkpt lat="44.56054617161197" lon="11.720865844983857"><ele>9.0</ele><time>2026-04-04T12:50:27.001Z</time></trkpt><trkpt lat="44.560519638157835" lon="11.720760519742369"><ele>9.0</ele><time>2026-04-04T12:50:28.001Z</time></trkpt><trkpt lat="44.5604860443459" lon="11.720654444657926"><ele>9.0</ele><time>2026-04-04T12:50:29.001Z</time></trkpt><trkpt lat="44.560454673607964" lon="11.720543183903898"><ele>9.0</ele><time>2026-04-04T12:50:30.001Z</time></trkpt><trkpt lat="44.560415932843426" lon="11.720418713069776"><ele>9.0</ele><time>2026-04-04T12:50:31.001Z</time></trkpt><trkpt lat="44.560370808989504" lon="11.720274550598248"><ele>9.0</ele><time>2026-04-04T12:50:32.001Z</time></trkpt><trkpt lat="44.56032367971211" lon="11.720120008780246"><ele>9.0</ele><time>2026-04-04T12:50:33.001Z</time></trkpt><trkpt lat="44.56027559760931" lon="11.71996978122841"><ele>9.0</ele><time>2026-04-04T12:50:34.001Z</time></trkpt><trkpt lat="44.56022248910826" lon="11.719813308800312"><ele>9.0</ele><time>2026-04-04T12:50:35.001Z</time></trkpt><trkpt lat="44.560166015713165" lon="11.71963556019365"><ele>9.0</ele><time>2026-04-04T12:50:36.001Z</time></trkpt><trkpt lat="44.56011073096704" lon="11.719462661924915"><ele>9.25</ele><time>2026-04-04T12:50:37.001Z</time></trkpt><trkpt lat="44.56005440763817" lon="11.719295559978473"><ele>9.5</ele><time>2026-04-04T12:50:38.001Z</time></trkpt><trkpt lat="44.55999719634696" lon="11.719127866886181"><ele>9.75</ele><time>2026-04-04T12:50:39.001Z</time></trkpt><trkpt lat="44.55994100294524" lon="11.718952626027553"><ele>10.0</ele><time>2026-04-04T12:50:40.001Z</time></trkpt><trkpt lat="44.55988079685033" lon="11.718771710355664"><ele>10.0</ele><time>2026-04-04T12:50:41.001Z</time></trkpt><trkpt lat="44.55981576598042" lon="11.718576594486064"><ele>10.0</ele><time>2026-04-04T12:50:42.001Z</time></trkpt><trkpt lat="44.559747489868585" lon="11.718379448594268"><ele>10.0</ele><time>2026-04-04T12:50:43.001Z</time></trkpt><trkpt lat="44.55968038399174" lon="11.718184876794263"><ele>10.0</ele><time>2026-04-04T12:50:44.001Z</time></trkpt><trkpt lat="44.559618490568184" lon="11.718013264145126"><ele>10.0</ele><time>2026-04-04T12:50:45.001Z</time></trkpt><trkpt lat="44.55956324574436" lon="11.717846738836158"><ele>10.0</ele><time>2026-04-04T12:50:46.001Z</time></trkpt><trkpt lat="44.55951055223535" lon="11.717686348825028"><ele>10.0</ele><time>2026-04-04T12:50:47.001Z</time></trkpt><trkpt lat="44.5594537664688" lon="11.717531896887607"><ele>10.0</ele><time>2026-04-04T12:50:48.001Z</time></trkpt><trkpt lat="44.559396009497775" lon="11.717370234552726"><ele>10.0</ele><time>2026-04-04T12:50:49.001Z</time></trkpt><trkpt lat="44.55933591560399" lon="11.71719197722265"><ele>10.0</ele><time>2026-04-04T12:50:50.001Z</time></trkpt><trkpt lat="44.55927488077618" lon="11.717014147966209"><ele>10.0</ele><time>2026-04-04T12:50:51.001Z</time></trkpt><trkpt lat="44.559219622697675" lon="11.716851167022869"><ele>9.25</ele><time>2026-04-04T12:50:52.001Z</time></trkpt><trkpt lat="44.55916459994968" lon="11.71669306170957"><ele>8.5</ele><time>2026-04-04T12:50:53.001Z</time></trkpt><trkpt lat="44.55911711047693" lon="11.716538845113604"><ele>7.75</ele><time>2026-04-04T12:50:54.001Z</time></trkpt><trkpt lat="44.559062414733525" lon="11.716382042110558"><ele>7.0</ele><time>2026-04-04T12:50:55.001Z</time></trkpt><trkpt lat="44.55901191249601" lon="11.716224166435438"><ele>6.75</ele><time>2026-04-04T12:50:56.001Z</time></trkpt><trkpt lat="44.55895589462462" lon="11.716068227604605"><ele>6.5</ele><time>2026-04-04T12:50:57.002Z</time></trkpt><trkpt lat="44.55890357738615" lon="11.715896670674272"><ele>6.25</ele><time>2026-04-04T12:50:58.002Z</time></trkpt><trkpt lat="44.55883904834053" lon="11.715726017847416"><ele>6.0</ele><time>2026-04-04T12:50:59.002Z</time></trkpt><trkpt lat="44.55878218284609" lon="11.715544624083739"><ele>6.0</ele><time>2026-04-04T12:51:00.002Z</time></trkpt><trkpt lat="44.558717658974714" lon="11.715372840542944"><ele>6.0</ele><time>2026-04-04T12:51:01.002Z</time></trkpt><trkpt lat="44.55866579665324" lon="11.7152040834849"><ele>6.0</ele><time>2026-04-04T12:51:02.002Z</time></trkpt><trkpt lat="44.558607173634044" lon="11.71504463311505"><ele>6.0</ele><time>2026-04-04T12:51:03.002Z</time></trkpt><trkpt lat="44.55854735009943" lon="11.714880195264024"><ele>6.25</ele><time>2026-04-04T12:51:04.002Z</time></trkpt><trkpt lat="44.55848919895086" lon="11.714705770328193"><ele>6.5</ele><time>2026-04-04T12:51:05.002Z</time></trkpt><trkpt lat="44.55842658852126" lon="11.714535559688482"><ele>6.75</ele><time>2026-04-04T12:51:06.002Z</time></trkpt><trkpt lat="44.55836116646695" lon="11.714368160922687"><ele>7.0</ele><time>2026-04-04T12:51:07.002Z</time></trkpt><trkpt lat="44.55829639636154" lon="11.714197451921274"><ele>7.0</ele><time>2026-04-04T12:51:08.002Z</time></trkpt><trkpt lat="44.5582343410316" lon="11.714019697435146"><ele>7.0</ele><time>2026-04-04T12:51:09.002Z</time></trkpt><trkpt lat="44.558168393843644" lon="11.71384511205219"><ele>7.0</ele><time>2026-04-04T12:51:10.002Z</time></trkpt><trkpt lat="44.55810333501409" lon="11.713672622202079"><ele>7.0</ele><time>2026-04-04T12:51:11.002Z</time></trkpt><trkpt lat="44.55804468735663" lon="11.71351395600901"><ele>7.0</ele><time>2026-04-04T12:51:12.002Z</time></trkpt><trkpt lat="44.557991007816575" lon="11.713371371211853"><ele>7.0</ele><time>2026-04-04T12:51:13.002Z</time></trkpt><trkpt lat="44.55793906871058" lon="11.713233858380505"><ele>7.0</ele><time>2026-04-04T12:51:14.002Z</time></trkpt><trkpt lat="44.557878578568996" lon="11.71307575104917"><ele>7.0</ele><time>2026-04-04T12:51:15.002Z</time></trkpt><trkpt lat="44.557817693023146" lon="11.712910506836327"><ele>6.666666666666667</ele><time>2026-04-04T12:51:16.002Z</time></trkpt><trkpt lat="44.55775413438769" lon="11.712734509318182"><ele>6.333333333333334</ele><time>2026-04-04T12:51:17.002Z</time></trkpt><trkpt lat="44.55767866193775" lon="11.712547129073045"><ele>6.0</ele><time>2026-04-04T12:51:18.002Z</time></trkpt><trkpt lat="44.55761087869445" lon="11.712326664106442"><ele>6.0</ele><time>2026-04-04T12:51:19.002Z</time></trkpt><trkpt lat="44.55752000898703" lon="11.712082527752752"><ele>6.0</ele><time>2026-04-04T12:51:20.002Z</time></trkpt><trkpt lat="44.55741337448735" lon="11.711796036919385"><ele>6.0</ele><time>2026-04-04T12:51:21.002Z</time></trkpt><trkpt lat="44.55730014550374" lon="11.711491828171326"><ele>6.0</ele><time>2026-04-04T12:51:22.002Z</time></trkpt><trkpt lat="44.55719052787207" lon="11.711198740421217"><ele>6.0</ele><time>2026-04-04T12:51:23.002Z</time></trkpt><trkpt lat="44.5570587136209" lon="11.710888253791651"><ele>6.5</ele><time>2026-04-04T12:51:24.002Z</time></trkpt><trkpt lat="44.55693488836178" lon="11.7105451084762"><ele>7.0</ele><time>2026-04-04T12:51:25.002Z</time></trkpt><trkpt lat="44.5568056896295" lon="11.710204830732621"><ele>7.0</ele><time>2026-04-04T12:51:26.002Z</time></trkpt><trkpt lat="44.556680418883346" lon="11.709871429251791"><ele>7.0</ele><time>2026-04-04T12:51:27.002Z</time></trkpt><trkpt lat="44.556569107782366" lon="11.709523923962466"><ele>6.5</ele><time>2026-04-04T12:51:28.002Z</time></trkpt><trkpt lat="44.55644848455236" lon="11.709196502738964"><ele>6.0</ele><time>2026-04-04T12:51:29.002Z</time></trkpt><trkpt lat="44.55631915501853" lon="11.70889404913293"><ele>6.0</ele><time>2026-04-04T12:51:30.002Z</time></trkpt><trkpt lat="44.55621035369949" lon="11.708598740535102"><ele>6.0</ele><time>2026-04-04T12:51:31.002Z</time></trkpt><trkpt lat="44.55611818051235" lon="11.708299921686063"><ele>7.0</ele><time>2026-04-04T12:51:32.002Z</time></trkpt><trkpt lat="44.5560128811792" lon="11.708014095790949"><ele>8.0</ele><time>2026-04-04T12:51:33.002Z</time></trkpt><trkpt lat="44.55590828940744" lon="11.707730190438365"><ele>8.0</ele><time>2026-04-04T12:51:34.002Z</time></trkpt><trkpt lat="44.555806091133334" lon="11.707452782512293"><ele>8.0</ele><time>2026-04-04T12:51:35.002Z</time></trkpt><trkpt lat="44.5557032738937" lon="11.707173989549169"><ele>8.0</ele><time>2026-04-04T12:51:36.002Z</time></trkpt><trkpt lat="44.55560048295594" lon="11.706898545229278"><ele>7.666666666666666</ele><time>2026-04-04T12:51:37.002Z</time></trkpt><trkpt lat="44.55550038221621" lon="11.706630309731844"><ele>7.333333333333334</ele><time>2026-04-04T12:51:38.002Z</time></trkpt><trkpt lat="44.55540756273563" lon="11.706381585521246"><ele>7.0</ele><time>2026-04-04T12:51:39.002Z</time></trkpt><trkpt lat="44.55531821467599" lon="11.70614216334437"><ele>7.0</ele><time>2026-04-04T12:51:40.002Z</time></trkpt><trkpt lat="44.55523110331838" lon="11.70590842221473"><ele>7.0</ele><time>2026-04-04T12:51:41.002Z</time></trkpt><trkpt lat="44.55512725139813" lon="11.705678471647113"><ele>7.0</ele><time>2026-04-04T12:51:42.002Z</time></trkpt><trkpt lat="44.55503981227387" lon="11.705438282702696"><ele>6.666666666666667</ele><time>2026-04-04T12:51:43.002Z</time></trkpt><trkpt lat="44.55495812387636" lon="11.705171648858673"><ele>6.333333333333334</ele><time>2026-04-04T12:51:44.002Z</time></trkpt><trkpt lat="44.55486884898384" lon="11.704930695606349"><ele>6.0</ele><time>2026-04-04T12:51:45.002Z</time></trkpt><trkpt lat="44.554769881485534" lon="11.704704717551179"><ele>6.0</ele><time>2026-04-04T12:51:46.002Z</time></trkpt><trkpt lat="44.55468278121204" lon="11.704465979932673"><ele>6.0</ele><time>2026-04-04T12:51:47.002Z</time></trkpt><trkpt lat="44.55459025276246" lon="11.704225813112762"><ele>6.0</ele><time>2026-04-04T12:51:48.001Z</time></trkpt><trkpt lat="44.55451702167097" lon="11.70397807461514"><ele>6.0</ele><time>2026-04-04T12:51:49.001Z</time></trkpt><trkpt lat="44.554430424763176" lon="11.703743326587984"><ele>6.0</ele><time>2026-04-04T12:51:50.001Z</time></trkpt><trkpt lat="44.55434179447789" lon="11.70350306617147"><ele>6.0</ele><time>2026-04-04T12:51:51.001Z</time></trkpt><trkpt lat="44.55423853665863" lon="11.70327022031543"><ele>6.0</ele><time>2026-04-04T12:51:52.001Z</time></trkpt><trkpt lat="44.55415763753975" lon="11.703003851096144"><ele>6.0</ele><time>2026-04-04T12:51:53.001Z</time></trkpt><trkpt lat="44.554073565979856" lon="11.702775948742069"><ele>6.0</ele><time>2026-04-04T12:51:54.001Z</time></trkpt><trkpt lat="44.55399104786938" lon="11.70255416615013"><ele>6.0</ele><time>2026-04-04T12:51:55.001Z</time></trkpt><trkpt lat="44.55390893100628" lon="11.702335257255987"><ele>6.0</ele><time>2026-04-04T12:51:56.001Z</time></trkpt><trkpt lat="44.553818999248506" lon="11.702095514818824"><ele>6.0</ele><time>2026-04-04T12:51:57.001Z</time></trkpt><trkpt lat="44.55372256395499" lon="11.70183843175053"><ele>7.0</ele><time>2026-04-04T12:51:58.001Z</time></trkpt><trkpt lat="44.553625901181476" lon="11.70158073459086"><ele>8.0</ele><time>2026-04-04T12:51:59.001Z</time></trkpt><trkpt lat="44.55353181746261" lon="11.70132991304356"><ele>9.0</ele><time>2026-04-04T12:52:00.001Z</time></trkpt><trkpt lat="44.55342061899489" lon="11.701087100165697"><ele>9.0</ele><time>2026-04-04T12:52:01.001Z</time></trkpt><trkpt lat="44.553322940387254" lon="11.700824474800044"><ele>9.0</ele><time>2026-04-04T12:52:02.001Z</time></trkpt><trkpt lat="44.55322674495369" lon="11.700568055488677"><ele>9.0</ele><time>2026-04-04T12:52:03.001Z</time></trkpt><trkpt lat="44.55312996103766" lon="11.700306086338033"><ele>8.666666666666666</ele><time>2026-04-04T12:52:04.001Z</time></trkpt><trkpt lat="44.55303523157559" lon="11.70004938242159"><ele>8.333333333333332</ele><time>2026-04-04T12:52:05.001Z</time></trkpt><trkpt lat="44.55293823348376" lon="11.699792517929895"><ele>8.0</ele><time>2026-04-04T12:52:06.001Z</time></trkpt><trkpt lat="44.552842437697024" lon="11.699534604582524"><ele>7.666666666666666</ele><time>2026-04-04T12:52:07.001Z</time></trkpt><trkpt lat="44.5527465502165" lon="11.69927449102912"><ele>7.333333333333334</ele><time>2026-04-04T12:52:08.001Z</time></trkpt><trkpt lat="44.552650761505696" lon="11.69901644369914"><ele>7.0</ele><time>2026-04-04T12:52:09.001Z</time></trkpt><trkpt lat="44.55255535463257" lon="11.69875789121268"><ele>7.0</ele><time>2026-04-04T12:52:10.001Z</time></trkpt><trkpt lat="44.552458795383544" lon="11.698498783396136"><ele>7.0</ele><time>2026-04-04T12:52:11.001Z</time></trkpt><trkpt lat="44.55236074268066" lon="11.698237940687195"><ele>7.0</ele><time>2026-04-04T12:52:12.001Z</time></trkpt><trkpt lat="44.552263157284" lon="11.69797537841332"><ele>7.0</ele><time>2026-04-04T12:52:13.001Z</time></trkpt><trkpt lat="44.55216532858104" lon="11.697708932547386"><ele>7.0</ele><time>2026-04-04T12:52:14.001Z</time></trkpt><trkpt lat="44.55206512314626" lon="11.697442082868656"><ele>7.0</ele><time>2026-04-04T12:52:15.001Z</time></trkpt><trkpt lat="44.55196534938432" lon="11.697177270361678"><ele>7.333333333333334</ele><time>2026-04-04T12:52:16.001Z</time></trkpt><trkpt lat="44.55186667983103" lon="11.69691492908474"><ele>7.666666666666666</ele><time>2026-04-04T12:52:17.001Z</time></trkpt><trkpt lat="44.551768582895924" lon="11.696651499304695"><ele>8.0</ele><time>2026-04-04T12:52:18.001Z</time></trkpt><trkpt lat="44.5516708063808" lon="11.696388832609742"><ele>8.0</ele><time>2026-04-04T12:52:19.001Z</time></trkpt><trkpt lat="44.55157254857691" lon="11.696126856649448"><ele>8.0</ele><time>2026-04-04T12:52:20.001Z</time></trkpt><trkpt lat="44.55147478982191" lon="11.69586644730754"><ele>8.0</ele><time>2026-04-04T12:52:21.001Z</time></trkpt><trkpt lat="44.5513816860026" lon="11.695613123521225"><ele>7.666666666666666</ele><time>2026-04-04T12:52:22.001Z</time></trkpt><trkpt lat="44.5512866618202" lon="11.695356804904312"><ele>7.333333333333334</ele><time>2026-04-04T12:52:23.001Z</time></trkpt><trkpt lat="44.551195661980394" lon="11.695106398306038"><ele>7.0</ele><time>2026-04-04T12:52:24.001Z</time></trkpt><trkpt lat="44.55110874420934" lon="11.69487522184805"><ele>7.0</ele><time>2026-04-04T12:52:25.001Z</time></trkpt><trkpt lat="44.55102871122067" lon="11.694661378550235"><ele>7.0</ele><time>2026-04-04T12:52:26.001Z</time></trkpt><trkpt lat="44.55094810391428" lon="11.694448124724474"><ele>7.0</ele><time>2026-04-04T12:52:27.001Z</time></trkpt><trkpt lat="44.55087358676066" lon="11.694241419142598"><ele>7.333333333333334</ele><time>2026-04-04T12:52:28.001Z</time></trkpt><trkpt lat="44.550797158742625" lon="11.694034395145495"><ele>7.666666666666666</ele><time>2026-04-04T12:52:29.001Z</time></trkpt><trkpt lat="44.550721785864425" lon="11.693835994888104"><ele>8.0</ele><time>2026-04-04T12:52:30.001Z</time></trkpt><trkpt lat="44.55064674157894" lon="11.693636539016465"><ele>7.75</ele><time>2026-04-04T12:52:31.001Z</time></trkpt><trkpt lat="44.550577295368214" lon="11.693447060482677"><ele>7.5</ele><time>2026-04-04T12:52:32.001Z</time></trkpt><trkpt lat="44.55051151551417" lon="11.69326475493296"><ele>7.25</ele><time>2026-04-04T12:52:33.001Z</time></trkpt><trkpt lat="44.550445534645824" lon="11.69308551228036"><ele>7.0</ele><time>2026-04-04T12:52:34.001Z</time></trkpt><trkpt lat="44.55037603718794" lon="11.692904242199086"><ele>7.0</ele><time>2026-04-04T12:52:35.001Z</time></trkpt><trkpt lat="44.550301406726675" lon="11.692722481070993"><ele>7.0</ele><time>2026-04-04T12:52:36.001Z</time></trkpt><trkpt lat="44.55022017752013" lon="11.692524724314357"><ele>7.0</ele><time>2026-04-04T12:52:37.001Z</time></trkpt><trkpt lat="44.55014399144047" lon="11.6923292161208"><ele>7.0</ele><time>2026-04-04T12:52:38.001Z</time></trkpt><trkpt lat="44.55006817370543" lon="11.69212402102919"><ele>7.0</ele><time>2026-04-04T12:52:39.001Z</time></trkpt><trkpt lat="44.54998781249074" lon="11.691906606462787"><ele>7.0</ele><time>2026-04-04T12:52:40.001Z</time></trkpt><trkpt lat="44.54990940404306" lon="11.691684591297268"><ele>6.666666666666667</ele><time>2026-04-04T12:52:41.001Z</time></trkpt><trkpt lat="44.54983353691223" lon="11.691474605963089"><ele>6.333333333333334</ele><time>2026-04-04T12:52:42.001Z</time></trkpt><trkpt lat="44.54975188693137" lon="11.691266584383461"><ele>6.0</ele><time>2026-04-04T12:52:43.001Z</time></trkpt><trkpt lat="44.549669305063446" lon="11.691066529217006"><ele>7.0</ele><time>2026-04-04T12:52:44.001Z</time></trkpt><trkpt lat="44.549581607603486" lon="11.690865969881113"><ele>8.0</ele><time>2026-04-04T12:52:45.001Z</time></trkpt><trkpt lat="44.54949834383946" lon="11.690668648390103"><ele>9.0</ele><time>2026-04-04T12:52:46.001Z</time></trkpt><trkpt lat="44.54940860434821" lon="11.690484064927743"><ele>9.0</ele><time>2026-04-04T12:52:47.001Z</time></trkpt><trkpt lat="44.54929649805175" lon="11.690311594392737"><ele>9.0</ele><time>2026-04-04T12:52:48.001Z</time></trkpt><trkpt lat="44.54915967962653" lon="11.690156040690287"><ele>9.0</ele><time>2026-04-04T12:52:49.001Z</time></trkpt><trkpt lat="44.549013193594924" lon="11.690022445019041"><ele>9.333333333333334</ele><time>2026-04-04T12:52:50.001Z</time></trkpt><trkpt lat="44.54884781484655" lon="11.689896221115921"><ele>9.666666666666668</ele><time>2026-04-04T12:52:51.001Z</time></trkpt><trkpt lat="44.548686925761196" lon="11.689783080109716"><ele>10.0</ele><time>2026-04-04T12:52:52.001Z</time></trkpt><trkpt lat="44.54854185865509" lon="11.689682857999994"><ele>9.666666666666668</ele><time>2026-04-04T12:52:53.001Z</time></trkpt><trkpt lat="44.54840515847887" lon="11.689584215398419"><ele>9.333333333333334</ele><time>2026-04-04T12:52:54.001Z</time></trkpt><trkpt lat="44.54825686147566" lon="11.68947765944763"><ele>9.0</ele><time>2026-04-04T12:52:55.001Z</time></trkpt><trkpt lat="44.54809671384722" lon="11.689367354376602"><ele>9.0</ele><time>2026-04-04T12:52:56.001Z</time></trkpt><trkpt lat="44.54793280396823" lon="11.68925375496452"><ele>9.0</ele><time>2026-04-04T12:52:57.001Z</time></trkpt><trkpt lat="44.54777261505913" lon="11.689142312193512"><ele>9.0</ele><time>2026-04-04T12:52:58.001Z</time></trkpt><trkpt lat="44.5476126378947" lon="11.689029484881276"><ele>9.0</ele><time>2026-04-04T12:52:59.001Z</time></trkpt><trkpt lat="44.54745342438146" lon="11.68891704294396"><ele>9.0</ele><time>2026-04-04T12:53:00.001Z</time></trkpt><trkpt lat="44.547291498387324" lon="11.68880546784638"><ele>9.0</ele><time>2026-04-04T12:53:01.001Z</time></trkpt><trkpt lat="44.54712358475762" lon="11.68869312191042"><ele>9.0</ele><time>2026-04-04T12:53:02.001Z</time></trkpt><trkpt lat="44.546960700069796" lon="11.688581003224291"><ele>9.0</ele><time>2026-04-04T12:53:03.001Z</time></trkpt><trkpt lat="44.54680349797802" lon="11.688469117469813"><ele>9.0</ele><time>2026-04-04T12:53:04.001Z</time></trkpt><trkpt lat="44.54664686063744" lon="11.688352573808528"><ele>9.0</ele><time>2026-04-04T12:53:05.001Z</time></trkpt><trkpt lat="44.546490821584506" lon="11.68820217274514"><ele>9.0</ele><time>2026-04-04T12:53:06.001Z</time></trkpt><trkpt lat="44.54632718933074" lon="11.68805818425131"><ele>9.0</ele><time>2026-04-04T12:53:07.001Z</time></trkpt><trkpt lat="44.54616916077007" lon="11.687907226643148"><ele>8.666666666666666</ele><time>2026-04-04T12:53:08.001Z</time></trkpt><trkpt lat="44.54601128431402" lon="11.687751275340855"><ele>8.333333333333332</ele><time>2026-04-04T12:53:09.002Z</time></trkpt><trkpt lat="44.54584928305934" lon="11.687587360363304"><ele>8.0</ele><time>2026-04-04T12:53:10.002Z</time></trkpt><trkpt lat="44.54569281895843" lon="11.687428873258147"><ele>8.0</ele><time>2026-04-04T12:53:11.002Z</time></trkpt><trkpt lat="44.54552957711079" lon="11.687263500505322"><ele>8.0</ele><time>2026-04-04T12:53:12.002Z</time></trkpt><trkpt lat="44.54537820019887" lon="11.687108819929652"><ele>8.0</ele><time>2026-04-04T12:53:13.002Z</time></trkpt><trkpt lat="44.54522325486445" lon="11.686946394406965"><ele>8.333333333333332</ele><time>2026-04-04T12:53:14.002Z</time></trkpt><trkpt lat="44.54507431867092" lon="11.686784624181284"><ele>8.666666666666666</ele><time>2026-04-04T12:53:15.002Z</time></trkpt><trkpt lat="44.54493445759662" lon="11.68662895188258"><ele>9.0</ele><time>2026-04-04T12:53:16.002Z</time></trkpt><trkpt lat="44.544795977139096" lon="11.686470933953986"><ele>9.0</ele><time>2026-04-04T12:53:17.002Z</time></trkpt><trkpt lat="44.54466025602595" lon="11.6863126904227"><ele>9.0</ele><time>2026-04-04T12:53:18.002Z</time></trkpt><trkpt lat="44.54452619645274" lon="11.686145180010675"><ele>9.0</ele><time>2026-04-04T12:53:19.002Z</time></trkpt><trkpt lat="44.54439235726976" lon="11.68596704993474"><ele>9.0</ele><time>2026-04-04T12:53:20.002Z</time></trkpt><trkpt lat="44.544252282867696" lon="11.685774685836934"><ele>9.0</ele><time>2026-04-04T12:53:21.002Z</time></trkpt><trkpt lat="44.5441163937651" lon="11.685582237023567"><ele>9.0</ele><time>2026-04-04T12:53:22.002Z</time></trkpt><trkpt lat="44.543979371478905" lon="11.685388183645431"><ele>9.0</ele><time>2026-04-04T12:53:23.002Z</time></trkpt><trkpt lat="44.54383729611515" lon="11.685186973953149"><ele>9.0</ele><time>2026-04-04T12:53:24.002Z</time></trkpt><trkpt lat="44.54369733166759" lon="11.684989486617628"><ele>9.0</ele><time>2026-04-04T12:53:25.002Z</time></trkpt><trkpt lat="44.54355417430483" lon="11.684787919396713"><ele>9.0</ele><time>2026-04-04T12:53:26.002Z</time></trkpt><trkpt lat="44.543419141895264" lon="11.68459827551972"><ele>9.0</ele><time>2026-04-04T12:53:27.002Z</time></trkpt><trkpt lat="44.543297493009824" lon="11.684427593512275"><ele>9.0</ele><time>2026-04-04T12:53:28.002Z</time></trkpt><trkpt lat="44.54317582659457" lon="11.684258104852692"><ele>9.333333333333334</ele><time>2026-04-04T12:53:29.002Z</time></trkpt><trkpt lat="44.54306339150135" lon="11.684099070737588"><ele>9.666666666666668</ele><time>2026-04-04T12:53:30.002Z</time></trkpt><trkpt lat="44.54296627133526" lon="11.68393135633391"><ele>10.0</ele><time>2026-04-04T12:53:31.002Z</time></trkpt><trkpt lat="44.54288902800213" lon="11.683758795264007"><ele>9.75</ele><time>2026-04-04T12:53:32.002Z</time></trkpt><trkpt lat="44.54282212474957" lon="11.683574204839585"><ele>9.5</ele><time>2026-04-04T12:53:33.002Z</time></trkpt><trkpt lat="44.54277559389917" lon="11.683374763943231"><ele>9.25</ele><time>2026-04-04T12:53:34.002Z</time></trkpt><trkpt lat="44.54274266740335" lon="11.683174343232139"><ele>9.0</ele><time>2026-04-04T12:53:35.002Z</time></trkpt><trkpt lat="44.54271409550978" lon="11.68296822658322"><ele>9.0</ele><time>2026-04-04T12:53:36.002Z</time></trkpt><trkpt lat="44.542685982783915" lon="11.682752241165346"><ele>9.0</ele><time>2026-04-04T12:53:37.002Z</time></trkpt><trkpt lat="44.54265831903912" lon="11.682528659063417"><ele>9.0</ele><time>2026-04-04T12:53:38.002Z</time></trkpt><trkpt lat="44.54263122230041" lon="11.682299670487065"><ele>9.0</ele><time>2026-04-04T12:53:39.002Z</time></trkpt><trkpt lat="44.54260305587112" lon="11.68206164244127"><ele>9.0</ele><time>2026-04-04T12:53:40.002Z</time></trkpt><trkpt lat="44.54257387549494" lon="11.681815551232416"><ele>9.0</ele><time>2026-04-04T12:53:41.002Z</time></trkpt><trkpt lat="44.542544306397836" lon="11.681572049858271"><ele>9.333333333333334</ele><time>2026-04-04T12:53:42.002Z</time></trkpt><trkpt lat="44.542514387774474" lon="11.68132642255391"><ele>9.666666666666668</ele><time>2026-04-04T12:53:43.002Z</time></trkpt><trkpt lat="44.54248470520632" lon="11.681088331540847"><ele>10.0</ele><time>2026-04-04T12:53:44.002Z</time></trkpt><trkpt lat="44.54245565688745" lon="11.680855789351776"><ele>10.0</ele><time>2026-04-04T12:53:45.002Z</time></trkpt><trkpt lat="44.54242265655825" lon="11.680605873544012"><ele>10.0</ele><time>2026-04-04T12:53:46.002Z</time></trkpt><trkpt lat="44.54238995507099" lon="11.680358221462711"><ele>10.0</ele><time>2026-04-04T12:53:47.002Z</time></trkpt><trkpt lat="44.54235686715096" lon="11.680107642266224"><ele>9.666666666666668</ele><time>2026-04-04T12:53:48.002Z</time></trkpt><trkpt lat="44.542322975834196" lon="11.679854159740547"><ele>9.333333333333334</ele><time>2026-04-04T12:53:49.002Z</time></trkpt><trkpt lat="44.542289776591666" lon="11.679609301529466"><ele>9.0</ele><time>2026-04-04T12:53:50.002Z</time></trkpt><trkpt lat="44.54225593574925" lon="11.679356399467308"><ele>8.666666666666666</ele><time>2026-04-04T12:53:51.002Z</time></trkpt><trkpt lat="44.542223016036054" lon="11.679108847269088"><ele>8.333333333333332</ele><time>2026-04-04T12:53:52.002Z</time></trkpt><trkpt lat="44.54218970016265" lon="11.678858315967002"><ele>8.0</ele><time>2026-04-04T12:53:53.002Z</time></trkpt><trkpt lat="44.542155917657425" lon="11.678615237609064"><ele>7.666666666666666</ele><time>2026-04-04T12:53:54.001Z</time></trkpt><trkpt lat="44.54212226305615" lon="11.678376508565108"><ele>7.333333333333334</ele><time>2026-04-04T12:53:55.001Z</time></trkpt><trkpt lat="44.542087165836705" lon="11.67812911706669"><ele>7.0</ele><time>2026-04-04T12:53:56.001Z</time></trkpt><trkpt lat="44.54205251159367" lon="11.677884847976696"><ele>7.333333333333334</ele><time>2026-04-04T12:53:57.001Z</time></trkpt><trkpt lat="44.542014282101135" lon="11.677638911017297"><ele>7.666666666666666</ele><time>2026-04-04T12:53:58.001Z</time></trkpt><trkpt lat="44.54197378468149" lon="11.677381059640647"><ele>8.0</ele><time>2026-04-04T12:53:59.001Z</time></trkpt><trkpt lat="44.5419308112602" lon="11.67711263788403"><ele>7.333333333333333</ele><time>2026-04-04T12:54:00.001Z</time></trkpt><trkpt lat="44.54188919926495" lon="11.676849721064926"><ele>6.666666666666666</ele><time>2026-04-04T12:54:01.001Z</time></trkpt><trkpt lat="44.54184970132258" lon="11.67658382312996"><ele>6.0</ele><time>2026-04-04T12:54:02.001Z</time></trkpt><trkpt lat="44.541811357956" lon="11.676318692466056"><ele>6.0</ele><time>2026-04-04T12:54:03.001Z</time></trkpt><trkpt lat="44.54177322710247" lon="11.676042553209943"><ele>6.0</ele><time>2026-04-04T12:54:04.001Z</time></trkpt><trkpt lat="44.541737187729616" lon="11.675784589414372"><ele>6.0</ele><time>2026-04-04T12:54:05.001Z</time></trkpt><trkpt lat="44.54169931492669" lon="11.67551941041662"><ele>6.333333333333334</ele><time>2026-04-04T12:54:06.001Z</time></trkpt><trkpt lat="44.541662825254676" lon="11.675252484339737"><ele>6.666666666666667</ele><time>2026-04-04T12:54:07.001Z</time></trkpt><trkpt lat="44.54162559521791" lon="11.674980141899228"><ele>7.0</ele><time>2026-04-04T12:54:08.001Z</time></trkpt><trkpt lat="44.541587283615385" lon="11.674708310585372"><ele>7.0</ele><time>2026-04-04T12:54:09.001Z</time></trkpt><trkpt lat="44.54154892053451" lon="11.674451916521134"><ele>7.0</ele><time>2026-04-04T12:54:10.001Z</time></trkpt><trkpt lat="44.54150676782975" lon="11.674181868932246"><ele>7.0</ele><time>2026-04-04T12:54:11.001Z</time></trkpt><trkpt lat="44.541469548151376" lon="11.673944729401471"><ele>7.0</ele><time>2026-04-04T12:54:12.001Z</time></trkpt><trkpt lat="44.541435235308214" lon="11.673726110559375"><ele>7.0</ele><time>2026-04-04T12:54:13.001Z</time></trkpt><trkpt lat="44.54140090082373" lon="11.673507353296108"><ele>7.0</ele><time>2026-04-04T12:54:14.001Z</time></trkpt><trkpt lat="44.54136635768784" lon="11.673287267188742"><ele>7.0</ele><time>2026-04-04T12:54:15.001Z</time></trkpt><trkpt lat="44.54131729338455" lon="11.673056561945003"><ele>7.0</ele><time>2026-04-04T12:54:16.001Z</time></trkpt><trkpt lat="44.541286097474234" lon="11.672840920361"><ele>7.0</ele><time>2026-04-04T12:54:17.001Z</time></trkpt><trkpt lat="44.54125422832483" lon="11.672621986179728"><ele>7.0</ele><time>2026-04-04T12:54:18.001Z</time></trkpt><trkpt lat="44.541220012069004" lon="11.672402253319625"><ele>7.0</ele><time>2026-04-04T12:54:19.001Z</time></trkpt><trkpt lat="44.54120503111634" lon="11.672171971214672"><ele>7.0</ele><time>2026-04-04T12:54:20.001Z</time></trkpt><trkpt lat="44.54117425259798" lon="11.671939888771751"><ele>7.0</ele><time>2026-04-04T12:54:21.001Z</time></trkpt><trkpt lat="44.541145088494666" lon="11.671693082637265"><ele>7.0</ele><time>2026-04-04T12:54:22.001Z</time></trkpt><trkpt lat="44.54111737525509" lon="11.671443597346947"><ele>7.0</ele><time>2026-04-04T12:54:23.001Z</time></trkpt><trkpt lat="44.54109559057954" lon="11.67118705013646"><ele>7.333333333333334</ele><time>2026-04-04T12:54:24.001Z</time></trkpt><trkpt lat="44.541084616330345" lon="11.670934089961793"><ele>7.666666666666666</ele><time>2026-04-04T12:54:25.001Z</time></trkpt><trkpt lat="44.541087289262684" lon="11.670681315685798"><ele>8.0</ele><time>2026-04-04T12:54:26.001Z</time></trkpt><trkpt lat="44.54108884731061" lon="11.670426802779602"><ele>8.0</ele><time>2026-04-04T12:54:27.001Z</time></trkpt><trkpt lat="44.54108438601704" lon="11.670157011493073"><ele>8.0</ele><time>2026-04-04T12:54:28.001Z</time></trkpt><trkpt lat="44.54108318365894" lon="11.66988577635089"><ele>8.0</ele><time>2026-04-04T12:54:29.001Z</time></trkpt><trkpt lat="44.5410850121346" lon="11.669625858834594"><ele>8.333333333333332</ele><time>2026-04-04T12:54:30.001Z</time></trkpt><trkpt lat="44.541089521091784" lon="11.669382773576949"><ele>8.666666666666666</ele><time>2026-04-04T12:54:31.001Z</time></trkpt><trkpt lat="44.541095251070104" lon="11.66913704327963"><ele>9.0</ele><time>2026-04-04T12:54:32.001Z</time></trkpt><trkpt lat="44.54110424528343" lon="11.668894467301262"><ele>9.0</ele><time>2026-04-04T12:54:33.001Z</time></trkpt><trkpt lat="44.54112265019937" lon="11.668658287524401"><ele>9.0</ele><time>2026-04-04T12:54:34.001Z</time></trkpt><trkpt lat="44.54115270819141" lon="11.668433792606427"><ele>9.0</ele><time>2026-04-04T12:54:35.001Z</time></trkpt><trkpt lat="44.541190194235234" lon="11.668209691635765"><ele>9.0</ele><time>2026-04-04T12:54:36.001Z</time></trkpt><trkpt lat="44.54121632807418" lon="11.66797316852775"><ele>9.0</ele><time>2026-04-04T12:54:37.001Z</time></trkpt><trkpt lat="44.54125764164948" lon="11.667760325286471"><ele>9.0</ele><time>2026-04-04T12:54:38.001Z</time></trkpt><trkpt lat="44.541291344378166" lon="11.66754089793359"><ele>9.0</ele><time>2026-04-04T12:54:39.001Z</time></trkpt><trkpt lat="44.5413176847245" lon="11.667313362117241"><ele>9.0</ele><time>2026-04-04T12:54:40.001Z</time></trkpt><trkpt lat="44.54135544984071" lon="11.66708999281157"><ele>9.0</ele><time>2026-04-04T12:54:41.001Z</time></trkpt><trkpt lat="44.541357210898205" lon="11.666856605614294"><ele>8.666666666666666</ele><time>2026-04-04T12:54:42.001Z</time></trkpt><trkpt lat="44.54134939409376" lon="11.666601490984162"><ele>8.333333333333332</ele><time>2026-04-04T12:54:43.001Z</time></trkpt><trkpt lat="44.54135244645004" lon="11.666343415781792"><ele>8.0</ele><time>2026-04-04T12:54:44.001Z</time></trkpt><trkpt lat="44.54136432442314" lon="11.666096303198346"><ele>7.333333333333333</ele><time>2026-04-04T12:54:45.001Z</time></trkpt><trkpt lat="44.541380030748364" lon="11.66587030315828"><ele>6.666666666666666</ele><time>2026-04-04T12:54:46.001Z</time></trkpt><trkpt lat="44.5413976643447" lon="11.665642767837719"><ele>6.0</ele><time>2026-04-04T12:54:47.001Z</time></trkpt><trkpt lat="44.54142916431332" lon="11.66540727373795"><ele>6.333333333333334</ele><time>2026-04-04T12:54:48.001Z</time></trkpt><trkpt lat="44.54147664166107" lon="11.665153606117068"><ele>6.666666666666667</ele><time>2026-04-04T12:54:49.001Z</time></trkpt><trkpt lat="44.54153140281793" lon="11.664902803186775"><ele>7.0</ele><time>2026-04-04T12:54:50.001Z</time></trkpt><trkpt lat="44.54159074161443" lon="11.664647805339689"><ele>7.333333333333334</ele><time>2026-04-04T12:54:51.001Z</time></trkpt><trkpt lat="44.54165286199826" lon="11.664366817335434"><ele>7.666666666666666</ele><time>2026-04-04T12:54:52.001Z</time></trkpt><trkpt lat="44.541710130032385" lon="11.664098930374664"><ele>8.0</ele><time>2026-04-04T12:54:53.001Z</time></trkpt><trkpt lat="44.54175067651701" lon="11.663841615048261"><ele>8.0</ele><time>2026-04-04T12:54:54.001Z</time></trkpt><trkpt lat="44.54179852266187" lon="11.663603130143978"><ele>8.0</ele><time>2026-04-04T12:54:55.001Z</time></trkpt><trkpt lat="44.5418581243359" lon="11.663400065056523"><ele>8.0</ele><time>2026-04-04T12:54:56.001Z</time></trkpt><trkpt lat="44.541886586063264" lon="11.663191139239501"><ele>8.0</ele><time>2026-04-04T12:54:57.001Z</time></trkpt><trkpt lat="44.541931592250286" lon="11.662978232781917"><ele>8.0</ele><time>2026-04-04T12:54:58.001Z</time></trkpt><trkpt lat="44.54196532731232" lon="11.662778254603253"><ele>8.0</ele><time>2026-04-04T12:54:59.001Z</time></trkpt><trkpt lat="44.54199349737701" lon="11.662562226630223"><ele>8.0</ele><time>2026-04-04T12:55:00.001Z</time></trkpt><trkpt lat="44.54201042713164" lon="11.662355640672253"><ele>8.0</ele><time>2026-04-04T12:55:01.001Z</time></trkpt><trkpt lat="44.54205272897908" lon="11.662147373545984"><ele>8.0</ele><time>2026-04-04T12:55:02.001Z</time></trkpt><trkpt lat="44.54208518889072" lon="11.661915690831067"><ele>9.0</ele><time>2026-04-04T12:55:03.001Z</time></trkpt><trkpt lat="44.542124750953874" lon="11.66168921188483"><ele>10.0</ele><time>2026-04-04T12:55:04.001Z</time></trkpt><trkpt lat="44.542168824202214" lon="11.66145765844133"><ele>11.0</ele><time>2026-04-04T12:55:05.001Z</time></trkpt><trkpt lat="44.5422175197427" lon="11.661217384463772"><ele>10.333333333333332</ele><time>2026-04-04T12:55:06.001Z</time></trkpt><trkpt lat="44.54226932594494" lon="11.66096591177952"><ele>9.666666666666666</ele><time>2026-04-04T12:55:07.001Z</time></trkpt><trkpt lat="44.542321047374905" lon="11.660714850018923"><ele>9.0</ele><time>2026-04-04T12:55:08.001Z</time></trkpt><trkpt lat="44.54237191344149" lon="11.660467940921237"><ele>9.333333333333334</ele><time>2026-04-04T12:55:09.001Z</time></trkpt><trkpt lat="44.54242408419644" lon="11.660214698269193"><ele>9.666666666666668</ele><time>2026-04-04T12:55:10.001Z</time></trkpt><trkpt lat="44.542473783180164" lon="11.659967031249534"><ele>10.0</ele><time>2026-04-04T12:55:11.001Z</time></trkpt><trkpt lat="44.54252275233635" lon="11.659715257048521"><ele>10.0</ele><time>2026-04-04T12:55:12.001Z</time></trkpt><trkpt lat="44.54257108978237" lon="11.659460252790009"><ele>10.0</ele><time>2026-04-04T12:55:13.001Z</time></trkpt><trkpt lat="44.54261371316647" lon="11.659204668585922"><ele>10.0</ele><time>2026-04-04T12:55:14.001Z</time></trkpt><trkpt lat="44.542646538464474" lon="11.658938977940515"><ele>9.666666666666668</ele><time>2026-04-04T12:55:15.001Z</time></trkpt><trkpt lat="44.54267564601683" lon="11.658656671559857"><ele>9.333333333333334</ele><time>2026-04-04T12:55:16.001Z</time></trkpt><trkpt lat="44.54270094012017" lon="11.658375545676702"><ele>9.0</ele><time>2026-04-04T12:55:17.001Z</time></trkpt><trkpt lat="44.54272962192785" lon="11.658105681850616"><ele>8.666666666666666</ele><time>2026-04-04T12:55:18.001Z</time></trkpt><trkpt lat="44.54276409934375" lon="11.65783235617936"><ele>8.333333333333332</ele><time>2026-04-04T12:55:19.001Z</time></trkpt><trkpt lat="44.542802522339215" lon="11.6575601965275"><ele>8.0</ele><time>2026-04-04T12:55:20.001Z</time></trkpt><trkpt lat="44.54284699854321" lon="11.657274155110425"><ele>7.333333333333333</ele><time>2026-04-04T12:55:21.001Z</time></trkpt><trkpt lat="44.54289644587431" lon="11.656985134115734"><ele>6.666666666666666</ele><time>2026-04-04T12:55:22.001Z</time></trkpt><trkpt lat="44.542950786088674" lon="11.656690949107773"><ele>6.0</ele><time>2026-04-04T12:55:23.001Z</time></trkpt><trkpt lat="44.54300405578991" lon="11.656400194451876"><ele>6.0</ele><time>2026-04-04T12:55:24.001Z</time></trkpt><trkpt lat="44.543056629114176" lon="11.656107793100979"><ele>6.0</ele><time>2026-04-04T12:55:25.001Z</time></trkpt><trkpt lat="44.54310274902185" lon="11.655817335395405"><ele>6.0</ele><time>2026-04-04T12:55:26.001Z</time></trkpt><trkpt lat="44.54314691790745" lon="11.655522762420796"><ele>6.0</ele><time>2026-04-04T12:55:27.001Z</time></trkpt><trkpt lat="44.54318936593834" lon="11.655222915608787"><ele>6.0</ele><time>2026-04-04T12:55:28.001Z</time></trkpt><trkpt lat="44.54323123754216" lon="11.654925084127635"><ele>6.0</ele><time>2026-04-04T12:55:29.001Z</time></trkpt><trkpt lat="44.54327427417397" lon="11.654629062131646"><ele>6.333333333333334</ele><time>2026-04-04T12:55:30.001Z</time></trkpt><trkpt lat="44.5433179584684" lon="11.65432977712234"><ele>6.666666666666667</ele><time>2026-04-04T12:55:31.001Z</time></trkpt><trkpt lat="44.54336246473289" lon="11.654031838557202"><ele>7.0</ele><time>2026-04-04T12:55:32.001Z</time></trkpt><trkpt lat="44.54340794192005" lon="11.653735622328405"><ele>7.0</ele><time>2026-04-04T12:55:33.001Z</time></trkpt><trkpt lat="44.54345356795284" lon="11.653438436486274"><ele>7.0</ele><time>2026-04-04T12:55:34.002Z</time></trkpt><trkpt lat="44.543498945416424" lon="11.653158347610624"><ele>7.0</ele><time>2026-04-04T12:55:35.002Z</time></trkpt><trkpt lat="44.54354196089257" lon="11.652899201070015"><ele>7.0</ele><time>2026-04-04T12:55:36.002Z</time></trkpt><trkpt lat="44.54358348753061" lon="11.652654688436035"><ele>7.0</ele><time>2026-04-04T12:55:37.002Z</time></trkpt><trkpt lat="44.54362096444039" lon="11.652426108124612"><ele>7.0</ele><time>2026-04-04T12:55:38.002Z</time></trkpt><trkpt lat="44.54365558289299" lon="11.652213361851391"><ele>7.0</ele><time>2026-04-04T12:55:39.002Z</time></trkpt><trkpt lat="44.543689990562804" lon="11.652001910976534"><ele>7.0</ele><time>2026-04-04T12:55:40.002Z</time></trkpt><trkpt lat="44.543731318510694" lon="11.651766927230453"><ele>7.0</ele><time>2026-04-04T12:55:41.002Z</time></trkpt><trkpt lat="44.543781625722666" lon="11.65153060570922"><ele>7.0</ele><time>2026-04-04T12:55:42.002Z</time></trkpt><trkpt lat="44.54384961550951" lon="11.651292637837667"><ele>7.0</ele><time>2026-04-04T12:55:43.002Z</time></trkpt><trkpt lat="44.54392887603514" lon="11.65104926357726"><ele>7.0</ele><time>2026-04-04T12:55:44.002Z</time></trkpt><trkpt lat="44.54401424899784" lon="11.650806763684434"><ele>7.0</ele><time>2026-04-04T12:55:45.002Z</time></trkpt><trkpt lat="44.5440988317529" lon="11.650563452917504"><ele>7.0</ele><time>2026-04-04T12:55:46.002Z</time></trkpt><trkpt lat="44.54418328466161" lon="11.650320413228876"><ele>7.0</ele><time>2026-04-04T12:55:47.002Z</time></trkpt><trkpt lat="44.54427268619332" lon="11.65006818707388"><ele>7.666666666666667</ele><time>2026-04-04T12:55:48.002Z</time></trkpt><trkpt lat="44.544359493901865" lon="11.649826255890455"><ele>8.333333333333334</ele><time>2026-04-04T12:55:49.002Z</time></trkpt><trkpt lat="44.54443518612903" lon="11.6495682029261"><ele>9.0</ele><time>2026-04-04T12:55:50.002Z</time></trkpt><trkpt lat="44.54452779401673" lon="11.649321201967936"><ele>9.0</ele><time>2026-04-04T12:55:51.002Z</time></trkpt><trkpt lat="44.544619010282645" lon="11.64907325660576"><ele>9.0</ele><time>2026-04-04T12:55:52.002Z</time></trkpt><trkpt lat="44.54471083493214" lon="11.648821877662026"><ele>9.0</ele><time>2026-04-04T12:55:53.002Z</time></trkpt><trkpt lat="44.54480350807669" lon="11.648572807794576"><ele>9.0</ele><time>2026-04-04T12:55:54.002Z</time></trkpt><trkpt lat="44.54489511026743" lon="11.648326398199346"><ele>9.0</ele><time>2026-04-04T12:55:55.002Z</time></trkpt><trkpt lat="44.544986265898316" lon="11.648081352998883"><ele>9.0</ele><time>2026-04-04T12:55:56.002Z</time></trkpt><trkpt lat="44.545075359820636" lon="11.647836210855546"><ele>9.0</ele><time>2026-04-04T12:55:57.002Z</time></trkpt><trkpt lat="44.54516948934455" lon="11.647584969454602"><ele>9.0</ele><time>2026-04-04T12:55:58.002Z</time></trkpt><trkpt lat="44.54526396087738" lon="11.64732695412686"><ele>9.0</ele><time>2026-04-04T12:55:59.002Z</time></trkpt><trkpt lat="44.54535541683654" lon="11.64707385426772"><ele>8.333333333333334</ele><time>2026-04-04T12:56:00Z</time></trkpt><trkpt lat="44.54544615719327" lon="11.646823822036836"><ele>7.666666666666667</ele><time>2026-04-04T12:56:01Z</time></trkpt><trkpt lat="44.545534812733045" lon="11.646577119518843"><ele>7.0</ele><time>2026-04-04T12:56:02Z</time></trkpt><trkpt lat="44.54562505593756" lon="11.646330893109944"><ele>7.666666666666667</ele><time>2026-04-04T12:56:03Z</time></trkpt><trkpt lat="44.54571759174662" lon="11.646087396816615"><ele>8.333333333333334</ele><time>2026-04-04T12:56:04Z</time></trkpt><trkpt lat="44.54580801063561" lon="11.645841273772986"><ele>9.0</ele><time>2026-04-04T12:56:05Z</time></trkpt><trkpt lat="44.54589591080567" lon="11.645613635111205"><ele>9.0</ele><time>2026-04-04T12:56:06Z</time></trkpt><trkpt lat="44.5459832870629" lon="11.645381549343066"><ele>9.0</ele><time>2026-04-04T12:56:07Z</time></trkpt><trkpt lat="44.54606749595699" lon="11.6451550711776"><ele>9.0</ele><time>2026-04-04T12:56:08Z</time></trkpt><trkpt lat="44.54614575350642" lon="11.644943906968926"><ele>9.0</ele><time>2026-04-04T12:56:09Z</time></trkpt><trkpt lat="44.546219448964294" lon="11.644749956060668"><ele>9.0</ele><time>2026-04-04T12:56:10Z</time></trkpt><trkpt lat="44.54629059224639" lon="11.644554956887072"><ele>9.0</ele><time>2026-04-04T12:56:11Z</time></trkpt><trkpt lat="44.54636618174318" lon="11.644357652289258"><ele>9.0</ele><time>2026-04-04T12:56:12Z</time></trkpt><trkpt lat="44.54644135574241" lon="11.644167843646633"><ele>9.0</ele><time>2026-04-04T12:56:13Z</time></trkpt><trkpt lat="44.54650946676432" lon="11.643986738371998"><ele>9.0</ele><time>2026-04-04T12:56:14Z</time></trkpt><trkpt lat="44.54657471057126" lon="11.643799045790502"><ele>9.0</ele><time>2026-04-04T12:56:15Z</time></trkpt><trkpt lat="44.54662991043648" lon="11.643591325791219"><ele>9.0</ele><time>2026-04-04T12:56:16Z</time></trkpt><trkpt lat="44.54666412722688" lon="11.643350705166194"><ele>9.0</ele><time>2026-04-04T12:56:17Z</time></trkpt><trkpt lat="44.546677537321095" lon="11.643096799782947"><ele>9.0</ele><time>2026-04-04T12:56:18Z</time></trkpt><trkpt lat="44.54671442732236" lon="11.642839673773352"><ele>9.0</ele><time>2026-04-04T12:56:19Z</time></trkpt><trkpt lat="44.54673615292844" lon="11.642582737965533"><ele>9.0</ele><time>2026-04-04T12:56:20Z</time></trkpt><trkpt lat="44.54675762354599" lon="11.642328818229432"><ele>9.0</ele><time>2026-04-04T12:56:21Z</time></trkpt><trkpt lat="44.54677984167996" lon="11.64206605825245"><ele>9.0</ele><time>2026-04-04T12:56:22Z</time></trkpt><trkpt lat="44.54680198725937" lon="11.641804156040196"><ele>9.0</ele><time>2026-04-04T12:56:23Z</time></trkpt><trkpt lat="44.546824156006934" lon="11.641541979898097"><ele>9.0</ele><time>2026-04-04T12:56:24Z</time></trkpt><trkpt lat="44.54684603773783" lon="11.64127958996061"><ele>9.0</ele><time>2026-04-04T12:56:25Z</time></trkpt><trkpt lat="44.546867995215145" lon="11.641015891387651"><ele>9.0</ele><time>2026-04-04T12:56:26Z</time></trkpt><trkpt lat="44.54688994820208" lon="11.640752246696035"><ele>9.0</ele><time>2026-04-04T12:56:27Z</time></trkpt><trkpt lat="44.546912244523845" lon="11.64048584826305"><ele>9.0</ele><time>2026-04-04T12:56:28Z</time></trkpt><trkpt lat="44.546935698850355" lon="11.640221866253729"><ele>9.0</ele><time>2026-04-04T12:56:29Z</time></trkpt><trkpt lat="44.546959108227" lon="11.639958390150417"><ele>8.666666666666666</ele><time>2026-04-04T12:56:30Z</time></trkpt><trkpt lat="44.54698289398816" lon="11.639690677917946"><ele>8.333333333333332</ele><time>2026-04-04T12:56:31Z</time></trkpt><trkpt lat="44.547007697027276" lon="11.639411516135867"><ele>8.0</ele><time>2026-04-04T12:56:32Z</time></trkpt><trkpt lat="44.5470319375555" lon="11.639138685219189"><ele>8.333333333333332</ele><time>2026-04-04T12:56:33Z</time></trkpt><trkpt lat="44.547053767141726" lon="11.63888805476398"><ele>8.666666666666666</ele><time>2026-04-04T12:56:34Z</time></trkpt><trkpt lat="44.54707390715026" lon="11.638655578075763"><ele>9.0</ele><time>2026-04-04T12:56:35Z</time></trkpt><trkpt lat="44.54709516449915" lon="11.63840916233474"><ele>9.333333333333334</ele><time>2026-04-04T12:56:36Z</time></trkpt><trkpt lat="44.54711678195548" lon="11.638157318930308"><ele>9.666666666666668</ele><time>2026-04-04T12:56:37Z</time></trkpt><trkpt lat="44.547138571939314" lon="11.6379034656144"><ele>10.0</ele><time>2026-04-04T12:56:38Z</time></trkpt><trkpt lat="44.54716138486943" lon="11.637637695155695"><ele>10.0</ele><time>2026-04-04T12:56:39Z</time></trkpt><trkpt lat="44.54718365566883" lon="11.637371259124537"><ele>10.0</ele><time>2026-04-04T12:56:40Z</time></trkpt><trkpt lat="44.54720557367309" lon="11.637103393712156"><ele>10.0</ele><time>2026-04-04T12:56:41Z</time></trkpt><trkpt lat="44.547226637403035" lon="11.636845968381854"><ele>10.0</ele><time>2026-04-04T12:56:42Z</time></trkpt><trkpt lat="44.547248500753355" lon="11.636593172889517"><ele>10.0</ele><time>2026-04-04T12:56:43Z</time></trkpt><trkpt lat="44.54727028688735" lon="11.636342872725919"><ele>10.0</ele><time>2026-04-04T12:56:44Z</time></trkpt><trkpt lat="44.54729252674426" lon="11.636085341022849"><ele>10.0</ele><time>2026-04-04T12:56:45Z</time></trkpt><trkpt lat="44.54731369973948" lon="11.635837488549235"><ele>10.0</ele><time>2026-04-04T12:56:46Z</time></trkpt><trkpt lat="44.54733284098037" lon="11.635613420204393"><ele>10.0</ele><time>2026-04-04T12:56:47Z</time></trkpt><trkpt lat="44.54734997662237" lon="11.63541382019133"><ele>10.0</ele><time>2026-04-04T12:56:48Z</time></trkpt><trkpt lat="44.547366791345056" lon="11.635238895513597"><ele>10.0</ele><time>2026-04-04T12:56:49Z</time></trkpt><trkpt lat="44.54738167740315" lon="11.635084035066711"><ele>10.0</ele><time>2026-04-04T12:56:50Z</time></trkpt><trkpt lat="44.5473961221805" lon="11.63494246490154"><ele>10.0</ele><time>2026-04-04T12:56:51Z</time></trkpt><trkpt lat="44.547394464647965" lon="11.63481724992914"><ele>10.0</ele><time>2026-04-04T12:56:52Z</time></trkpt><trkpt lat="44.54740919959987" lon="11.634710361840236"><ele>10.0</ele><time>2026-04-04T12:56:53Z</time></trkpt><trkpt lat="44.547406351372985" lon="11.634530540924262"><ele>10.0</ele><time>2026-04-04T12:56:55Z</time></trkpt><trkpt lat="44.54736350622989" lon="11.634425494488697"><ele>10.0</ele><time>2026-04-04T12:56:56Z</time></trkpt><trkpt lat="44.54725730602183" lon="11.634353781796218"><ele>10.0</ele><time>2026-04-04T12:56:57Z</time></trkpt><trkpt lat="44.54715175829828" lon="11.634287069906765"><ele>10.0</ele><time>2026-04-04T12:56:58Z</time></trkpt><trkpt lat="44.547034808116635" lon="11.634187934503144"><ele>9.666666666666668</ele><time>2026-04-04T12:56:59Z</time></trkpt><trkpt lat="44.54691086526794" lon="11.63410377501879"><ele>9.333333333333334</ele><time>2026-04-04T12:57:00Z</time></trkpt><trkpt lat="44.54677111914338" lon="11.634008884620831"><ele>9.0</ele><time>2026-04-04T12:57:01Z</time></trkpt><trkpt lat="44.54661652603099" lon="11.633903913042637"><ele>9.0</ele><time>2026-04-04T12:57:02.001Z</time></trkpt><trkpt lat="44.54646679485517" lon="11.633802175812422"><ele>9.0</ele><time>2026-04-04T12:57:03.001Z</time></trkpt><trkpt lat="44.54631020532553" lon="11.633693853114913"><ele>9.0</ele><time>2026-04-04T12:57:04.001Z</time></trkpt><trkpt lat="44.54615497327621" lon="11.63358646936726"><ele>9.333333333333334</ele><time>2026-04-04T12:57:05.001Z</time></trkpt><trkpt lat="44.546003620335284" lon="11.633481776150479"><ele>9.666666666666668</ele><time>2026-04-04T12:57:06.001Z</time></trkpt><trkpt lat="44.545851389538576" lon="11.63337648675043"><ele>10.0</ele><time>2026-04-04T12:57:07.001Z</time></trkpt><trkpt lat="44.54569562230132" lon="11.633268751227213"><ele>10.0</ele><time>2026-04-04T12:57:08.001Z</time></trkpt><trkpt lat="44.54553780883668" lon="11.633160439016661"><ele>10.0</ele><time>2026-04-04T12:57:09.001Z</time></trkpt><trkpt lat="44.54537076153305" lon="11.633072796812428"><ele>10.0</ele><time>2026-04-04T12:57:10.001Z</time></trkpt><trkpt lat="44.545206310052144" lon="11.632960275449614"><ele>10.0</ele><time>2026-04-04T12:57:11.001Z</time></trkpt><trkpt lat="44.54504092133688" lon="11.632846800493894"><ele>10.0</ele><time>2026-04-04T12:57:12.001Z</time></trkpt><trkpt lat="44.544899714509135" lon="11.632722602421135"><ele>10.0</ele><time>2026-04-04T12:57:13.001Z</time></trkpt><trkpt lat="44.54474864638838" lon="11.632616868060925"><ele>10.0</ele><time>2026-04-04T12:57:14.001Z</time></trkpt><trkpt lat="44.5445993118403" lon="11.632513689953765"><ele>10.0</ele><time>2026-04-04T12:57:15.001Z</time></trkpt><trkpt lat="44.544455493779424" lon="11.63241432337333"><ele>10.0</ele><time>2026-04-04T12:57:16.001Z</time></trkpt><trkpt lat="44.54430759401763" lon="11.632311739844132"><ele>10.333333333333334</ele><time>2026-04-04T12:57:17.001Z</time></trkpt><trkpt lat="44.54414703775074" lon="11.63222464828782"><ele>10.666666666666666</ele><time>2026-04-04T12:57:18.001Z</time></trkpt><trkpt lat="44.54400377653997" lon="11.632101031992782"><ele>11.0</ele><time>2026-04-04T12:57:19.001Z</time></trkpt><trkpt lat="44.54384524006175" lon="11.631991297450657"><ele>10.333333333333332</ele><time>2026-04-04T12:57:20.001Z</time></trkpt><trkpt lat="44.54368479899597" lon="11.631881564765278"><ele>9.666666666666666</ele><time>2026-04-04T12:57:21.001Z</time></trkpt><trkpt lat="44.54352072091962" lon="11.63176996845414"><ele>9.0</ele><time>2026-04-04T12:57:22.001Z</time></trkpt><trkpt lat="44.5433655224878" lon="11.63166408477027"><ele>9.0</ele><time>2026-04-04T12:57:23.001Z</time></trkpt><trkpt lat="44.54320223265028" lon="11.631578563372349"><ele>9.0</ele><time>2026-04-04T12:57:24.001Z</time></trkpt><trkpt lat="44.543052587688734" lon="11.631472424421041"><ele>9.0</ele><time>2026-04-04T12:57:25.001Z</time></trkpt><trkpt lat="44.54290872976503" lon="11.631348153323604"><ele>9.0</ele><time>2026-04-04T12:57:26.001Z</time></trkpt><trkpt lat="44.54276715078549" lon="11.63124942053687"><ele>9.0</ele><time>2026-04-04T12:57:27.001Z</time></trkpt><trkpt lat="44.54262868942665" lon="11.631180093165538"><ele>9.0</ele><time>2026-04-04T12:57:28.001Z</time></trkpt><trkpt lat="44.54250826772797" lon="11.631093860734882"><ele>9.0</ele><time>2026-04-04T12:57:29.001Z</time></trkpt><trkpt lat="44.542397887064375" lon="11.631011924583179"><ele>9.0</ele><time>2026-04-04T12:57:30.001Z</time></trkpt><trkpt lat="44.54229317210617" lon="11.630936785654958"><ele>9.0</ele><time>2026-04-04T12:57:31.001Z</time></trkpt><trkpt lat="44.54217860970732" lon="11.630862280880823"><ele>9.0</ele><time>2026-04-04T12:57:32.001Z</time></trkpt><trkpt lat="44.54206326125873" lon="11.630780979564491"><ele>9.0</ele><time>2026-04-04T12:57:33.001Z</time></trkpt><trkpt lat="44.54193135972894" lon="11.630697358417072"><ele>9.0</ele><time>2026-04-04T12:57:34.001Z</time></trkpt><trkpt lat="44.54180656652782" lon="11.630604442219383"><ele>9.0</ele><time>2026-04-04T12:57:35.001Z</time></trkpt><trkpt lat="44.541694803498785" lon="11.630522769647424"><ele>9.0</ele><time>2026-04-04T12:57:36.001Z</time></trkpt><trkpt lat="44.541581448430996" lon="11.63045655985297"><ele>9.0</ele><time>2026-04-04T12:57:37.001Z</time></trkpt><trkpt lat="44.541467853755606" lon="11.630377615157721"><ele>9.2</ele><time>2026-04-04T12:57:38.001Z</time></trkpt><trkpt lat="44.541364199691365" lon="11.630305172760782"><ele>9.4</ele><time>2026-04-04T12:57:39.001Z</time></trkpt><trkpt lat="44.5412709037097" lon="11.630242349095267"><ele>9.6</ele><time>2026-04-04T12:57:40.001Z</time></trkpt><trkpt lat="44.54120373456083" lon="11.63016525819219"><ele>9.8</ele><time>2026-04-04T12:57:41.001Z</time></trkpt><trkpt lat="44.54115454897687" lon="11.630089314337106"><ele>10.0</ele><time>2026-04-04T12:57:42.001Z</time></trkpt><trkpt lat="44.54112105671199" lon="11.629988363851417"><ele>10.0</ele><time>2026-04-04T12:57:43.001Z</time></trkpt><trkpt lat="44.541139789331815" lon="11.62986898467396"><ele>10.0</ele><time>2026-04-04T12:57:44.001Z</time></trkpt><trkpt lat="44.5411908495293" lon="11.629754675006966"><ele>10.0</ele><time>2026-04-04T12:57:45.001Z</time></trkpt><trkpt lat="44.54122883436664" lon="11.629619440889629"><ele>10.0</ele><time>2026-04-04T12:57:46.001Z</time></trkpt><trkpt lat="44.5412602875387" lon="11.62951749301302"><ele>10.0</ele><time>2026-04-04T12:57:47.001Z</time></trkpt><trkpt lat="44.54124984687066" lon="11.629386542931229"><ele>9.75</ele><time>2026-04-04T12:57:48.001Z</time></trkpt><trkpt lat="44.541189085987995" lon="11.62924524797894"><ele>9.5</ele><time>2026-04-04T12:57:49.001Z</time></trkpt><trkpt lat="44.54109551747192" lon="11.629119034025313"><ele>9.25</ele><time>2026-04-04T12:57:50.001Z</time></trkpt><trkpt lat="44.54096837993545" lon="11.628987906752952"><ele>9.0</ele><time>2026-04-04T12:57:51.001Z</time></trkpt><trkpt lat="44.54086716598335" lon="11.628832762656993"><ele>9.0</ele><time>2026-04-04T12:57:52.001Z</time></trkpt><trkpt lat="44.54073531023449" lon="11.628682461263477"><ele>9.0</ele><time>2026-04-04T12:57:53.001Z</time></trkpt><trkpt lat="44.54058423059824" lon="11.628549198917671"><ele>9.0</ele><time>2026-04-04T12:57:54.001Z</time></trkpt><trkpt lat="44.540420928326526" lon="11.628450505648985"><ele>9.0</ele><time>2026-04-04T12:57:55.001Z</time></trkpt><trkpt lat="44.54024888621682" lon="11.628364036390032"><ele>9.0</ele><time>2026-04-04T12:57:56.001Z</time></trkpt><trkpt lat="44.54007832035221" lon="11.628287361164368"><ele>9.0</ele><time>2026-04-04T12:57:57.001Z</time></trkpt><trkpt lat="44.53989912997192" lon="11.628233256424322"><ele>9.0</ele><time>2026-04-04T12:57:58.001Z</time></trkpt><trkpt lat="44.53972119524312" lon="11.62820817028085"><ele>9.0</ele><time>2026-04-04T12:57:59.001Z</time></trkpt><trkpt lat="44.53953870794001" lon="11.628191355050575"><ele>9.0</ele><time>2026-04-04T12:58:00.001Z</time></trkpt><trkpt lat="44.539356117351616" lon="11.62818373090044"><ele>9.0</ele><time>2026-04-04T12:58:01.001Z</time></trkpt><trkpt lat="44.5391829592107" lon="11.628100655373016"><ele>9.0</ele><time>2026-04-04T12:58:02.001Z</time></trkpt><trkpt lat="44.5390090000569" lon="11.62802466146569"><ele>9.0</ele><time>2026-04-04T12:58:03.001Z</time></trkpt><trkpt lat="44.53884259192613" lon="11.62794546998683"><ele>9.0</ele><time>2026-04-04T12:58:04.001Z</time></trkpt><trkpt lat="44.538676909968956" lon="11.627867146247949"><ele>9.0</ele><time>2026-04-04T12:58:05.001Z</time></trkpt><trkpt lat="44.5385138559643" lon="11.627790725488449"><ele>9.0</ele><time>2026-04-04T12:58:06Z</time></trkpt><trkpt lat="44.538344950286685" lon="11.627734800541162"><ele>9.333333333333334</ele><time>2026-04-04T12:58:07Z</time></trkpt><trkpt lat="44.53819615295027" lon="11.627660404894957"><ele>9.666666666666668</ele><time>2026-04-04T12:58:08Z</time></trkpt><trkpt lat="44.53803831630081" lon="11.627583371219083"><ele>10.0</ele><time>2026-04-04T12:58:09Z</time></trkpt><trkpt lat="44.53788050131083" lon="11.627483236694001"><ele>10.0</ele><time>2026-04-04T12:58:10Z</time></trkpt><trkpt lat="44.53771555683592" lon="11.627394414498152"><ele>10.0</ele><time>2026-04-04T12:58:11Z</time></trkpt><trkpt lat="44.53754998587991" lon="11.627303648653415"><ele>10.0</ele><time>2026-04-04T12:58:12Z</time></trkpt><trkpt lat="44.53739100658701" lon="11.627224491735921"><ele>10.0</ele><time>2026-04-04T12:58:13Z</time></trkpt><trkpt lat="44.53724093806538" lon="11.627154830059423"><ele>10.0</ele><time>2026-04-04T12:58:14Z</time></trkpt><trkpt lat="44.53710309716346" lon="11.627092594620606"><ele>10.0</ele><time>2026-04-04T12:58:15Z</time></trkpt><trkpt lat="44.536972399221376" lon="11.627034439366767"><ele>10.0</ele><time>2026-04-04T12:58:16Z</time></trkpt><trkpt lat="44.53684744929263" lon="11.626974206330548"><ele>10.333333333333334</ele><time>2026-04-04T12:58:17Z</time></trkpt><trkpt lat="44.53671374033215" lon="11.626903321879759"><ele>10.666666666666666</ele><time>2026-04-04T12:58:18Z</time></trkpt><trkpt lat="44.5365601668444" lon="11.626820849529109"><ele>11.0</ele><time>2026-04-04T12:58:19Z</time></trkpt><trkpt lat="44.53640804062696" lon="11.62675097810424"><ele>11.0</ele><time>2026-04-04T12:58:20Z</time></trkpt><trkpt lat="44.5362709310235" lon="11.62663509767467"><ele>11.0</ele><time>2026-04-04T12:58:21Z</time></trkpt><trkpt lat="44.53612544228181" lon="11.626541549571954"><ele>11.0</ele><time>2026-04-04T12:58:22Z</time></trkpt><trkpt lat="44.53595797201256" lon="11.626458727935407"><ele>10.333333333333332</ele><time>2026-04-04T12:58:23Z</time></trkpt><trkpt lat="44.53578781055412" lon="11.626387878477354"><ele>9.666666666666666</ele><time>2026-04-04T12:58:24Z</time></trkpt><trkpt lat="44.535607097267494" lon="11.626337263227114"><ele>9.0</ele><time>2026-04-04T12:58:25Z</time></trkpt><trkpt lat="44.53542762498925" lon="11.62625859205512"><ele>9.333333333333334</ele><time>2026-04-04T12:58:26Z</time></trkpt><trkpt lat="44.53523869146911" lon="11.626183141882738"><ele>9.666666666666668</ele><time>2026-04-04T12:58:27Z</time></trkpt><trkpt lat="44.535051273809906" lon="11.626113699460056"><ele>10.0</ele><time>2026-04-04T12:58:28Z</time></trkpt><trkpt lat="44.53487648020092" lon="11.626040375415595"><ele>10.0</ele><time>2026-04-04T12:58:29Z</time></trkpt><trkpt lat="44.5347132000048" lon="11.625965628816877"><ele>10.0</ele><time>2026-04-04T12:58:30Z</time></trkpt><trkpt lat="44.53454626312885" lon="11.625885418557095"><ele>10.0</ele><time>2026-04-04T12:58:31Z</time></trkpt><trkpt lat="44.53438192797842" lon="11.625797276536419"><ele>10.0</ele><time>2026-04-04T12:58:32Z</time></trkpt><trkpt lat="44.5342163476629" lon="11.625715087491187"><ele>10.0</ele><time>2026-04-04T12:58:33Z</time></trkpt><trkpt lat="44.53405554457864" lon="11.625610532938234"><ele>10.0</ele><time>2026-04-04T12:58:34Z</time></trkpt><trkpt lat="44.533881892552394" lon="11.625535219562405"><ele>10.333333333333334</ele><time>2026-04-04T12:58:35Z</time></trkpt><trkpt lat="44.533702071850755" lon="11.625504624394393"><ele>10.666666666666666</ele><time>2026-04-04T12:58:36Z</time></trkpt><trkpt lat="44.53352868361698" lon="11.625457386651469"><ele>11.0</ele><time>2026-04-04T12:58:37Z</time></trkpt><trkpt lat="44.53335829796266" lon="11.625419518977877"><ele>11.0</ele><time>2026-04-04T12:58:38Z</time></trkpt><trkpt lat="44.53319226626892" lon="11.62538475006986"><ele>11.0</ele><time>2026-04-04T12:58:39Z</time></trkpt><trkpt lat="44.53303288029937" lon="11.625348981558837"><ele>11.0</ele><time>2026-04-04T12:58:40Z</time></trkpt><trkpt lat="44.53287589974065" lon="11.625320516709786"><ele>11.0</ele><time>2026-04-04T12:58:41Z</time></trkpt><trkpt lat="44.53272084418983" lon="11.62528597824995"><ele>11.0</ele><time>2026-04-04T12:58:42Z</time></trkpt><trkpt lat="44.53257759986148" lon="11.625275318457707"><ele>11.0</ele><time>2026-04-04T12:58:43Z</time></trkpt><trkpt lat="44.5324376501104" lon="11.625268099672546"><ele>11.0</ele><time>2026-04-04T12:58:44Z</time></trkpt><trkpt lat="44.53229770215947" lon="11.625205827635892"><ele>11.0</ele><time>2026-04-04T12:58:45Z</time></trkpt><trkpt lat="44.532152911260496" lon="11.625137582615203"><ele>11.0</ele><time>2026-04-04T12:58:46Z</time></trkpt><trkpt lat="44.53200029115036" lon="11.625081608393362"><ele>11.0</ele><time>2026-04-04T12:58:47Z</time></trkpt><trkpt lat="44.531870213704536" lon="11.62501094832371"><ele>11.5</ele><time>2026-04-04T12:58:48Z</time></trkpt><trkpt lat="44.53174496040894" lon="11.624951389199166"><ele>12.0</ele><time>2026-04-04T12:58:49.001Z</time></trkpt><trkpt lat="44.53162928621989" lon="11.624897551817158"><ele>12.5</ele><time>2026-04-04T12:58:50.001Z</time></trkpt><trkpt lat="44.53151919233466" lon="11.62484894259613"><ele>13.0</ele><time>2026-04-04T12:58:51.001Z</time></trkpt><trkpt lat="44.531419344023625" lon="11.624800541276407"><ele>13.0</ele><time>2026-04-04T12:58:52.001Z</time></trkpt><trkpt lat="44.53130968402947" lon="11.624753719347682"><ele>13.0</ele><time>2026-04-04T12:58:53.001Z</time></trkpt><trkpt lat="44.531195709868" lon="11.62469798816325"><ele>13.0</ele><time>2026-04-04T12:58:54.001Z</time></trkpt><trkpt lat="44.53108148484561" lon="11.624627715541962"><ele>13.0</ele><time>2026-04-04T12:58:55.001Z</time></trkpt><trkpt lat="44.530974291032706" lon="11.624528765909972"><ele>12.75</ele><time>2026-04-04T12:58:56.001Z</time></trkpt><trkpt lat="44.530854302466274" lon="11.624458459240492"><ele>12.5</ele><time>2026-04-04T12:58:57.001Z</time></trkpt><trkpt lat="44.53074625803505" lon="11.624362467699662"><ele>12.25</ele><time>2026-04-04T12:58:58.001Z</time></trkpt><trkpt lat="44.53062809324472" lon="11.624281005012131"><ele>12.0</ele><time>2026-04-04T12:58:59.001Z</time></trkpt><trkpt lat="44.53051333316178" lon="11.624196834630727"><ele>12.0</ele><time>2026-04-04T12:59:00.001Z</time></trkpt><trkpt lat="44.53038537479529" lon="11.62413077430835"><ele>12.0</ele><time>2026-04-04T12:59:01.001Z</time></trkpt><trkpt lat="44.53025807953623" lon="11.624085940067136"><ele>12.0</ele><time>2026-04-04T12:59:02.001Z</time></trkpt><trkpt lat="44.530129186552124" lon="11.624065351448513"><ele>12.0</ele><time>2026-04-04T12:59:03.001Z</time></trkpt><trkpt lat="44.529998816772796" lon="11.624025956510618"><ele>12.0</ele><time>2026-04-04T12:59:04.001Z</time></trkpt><trkpt lat="44.529857611112845" lon="11.624003758535821"><ele>12.0</ele><time>2026-04-04T12:59:05.001Z</time></trkpt><trkpt lat="44.52971378530169" lon="11.624006290392934"><ele>12.0</ele><time>2026-04-04T12:59:06.001Z</time></trkpt><trkpt lat="44.52956263824617" lon="11.624002212963294"><ele>12.0</ele><time>2026-04-04T12:59:07.001Z</time></trkpt><trkpt lat="44.52940512912274" lon="11.624009870088049"><ele>11.0</ele><time>2026-04-04T12:59:08.001Z</time></trkpt><trkpt lat="44.529242356851626" lon="11.624015369919222"><ele>10.0</ele><time>2026-04-04T12:59:09.001Z</time></trkpt><trkpt lat="44.52908066626466" lon="11.624035260259879"><ele>9.0</ele><time>2026-04-04T12:59:10.001Z</time></trkpt><trkpt lat="44.5289091491831" lon="11.624038753232028"><ele>9.0</ele><time>2026-04-04T12:59:11.001Z</time></trkpt><trkpt lat="44.528734144931356" lon="11.623996990559197"><ele>9.0</ele><time>2026-04-04T12:59:12.001Z</time></trkpt><trkpt lat="44.52855508022451" lon="11.623963674934787"><ele>9.0</ele><time>2026-04-04T12:59:13.001Z</time></trkpt><trkpt lat="44.52837208398219" lon="11.623947472960845"><ele>9.333333333333334</ele><time>2026-04-04T12:59:14.001Z</time></trkpt><trkpt lat="44.528191904741384" lon="11.623910659090734"><ele>9.666666666666668</ele><time>2026-04-04T12:59:15.001Z</time></trkpt><trkpt lat="44.52801617108222" lon="11.62387023846898"><ele>10.0</ele><time>2026-04-04T12:59:16.001Z</time></trkpt><trkpt lat="44.52785777558821" lon="11.623795247742018"><ele>10.333333333333334</ele><time>2026-04-04T12:59:17.001Z</time></trkpt><trkpt lat="44.527695357048955" lon="11.623732440931013"><ele>10.666666666666666</ele><time>2026-04-04T12:59:18.001Z</time></trkpt><trkpt lat="44.527530458639355" lon="11.623690411788884"><ele>11.0</ele><time>2026-04-04T12:59:19.001Z</time></trkpt><trkpt lat="44.52736569330743" lon="11.623624945944877"><ele>11.0</ele><time>2026-04-04T12:59:20.001Z</time></trkpt><trkpt lat="44.52719680856469" lon="11.623561090633045"><ele>11.0</ele><time>2026-04-04T12:59:21.001Z</time></trkpt><trkpt lat="44.527025911254846" lon="11.623470097089273"><ele>11.0</ele><time>2026-04-04T12:59:22.001Z</time></trkpt><trkpt lat="44.52685906650274" lon="11.623404105993657"><ele>11.0</ele><time>2026-04-04T12:59:23.001Z</time></trkpt><trkpt lat="44.52668385328559" lon="11.623334804968994"><ele>11.0</ele><time>2026-04-04T12:59:24.001Z</time></trkpt><trkpt lat="44.52650388624477" lon="11.623285657352717"><ele>11.0</ele><time>2026-04-04T12:59:25.001Z</time></trkpt><trkpt lat="44.52633278366661" lon="11.623214277235109"><ele>11.0</ele><time>2026-04-04T12:59:26.001Z</time></trkpt><trkpt lat="44.5261637703107" lon="11.623124454409243"><ele>11.0</ele><time>2026-04-04T12:59:27.001Z</time></trkpt><trkpt lat="44.525983534965626" lon="11.62305333321214"><ele>11.0</ele><time>2026-04-04T12:59:28.001Z</time></trkpt><trkpt lat="44.5258026512587" lon="11.622982939022187"><ele>11.0</ele><time>2026-04-04T12:59:29.001Z</time></trkpt><trkpt lat="44.525615638563394" lon="11.622910159623395"><ele>11.0</ele><time>2026-04-04T12:59:30.001Z</time></trkpt><trkpt lat="44.52543622530832" lon="11.622840337685359"><ele>11.0</ele><time>2026-04-04T12:59:31.001Z</time></trkpt><trkpt lat="44.525254169571305" lon="11.622792953116548"><ele>11.333333333333332</ele><time>2026-04-04T12:59:32.001Z</time></trkpt><trkpt lat="44.525083257767655" lon="11.622701501747304"><ele>11.666666666666666</ele><time>2026-04-04T12:59:33.001Z</time></trkpt><trkpt lat="44.524906556909585" lon="11.622630126394153"><ele>12.0</ele><time>2026-04-04T12:59:34.001Z</time></trkpt><trkpt lat="44.524726539890395" lon="11.622559572451632"><ele>12.0</ele><time>2026-04-04T12:59:35.001Z</time></trkpt><trkpt lat="44.52454314338866" lon="11.622493036134864"><ele>12.0</ele><time>2026-04-04T12:59:36.001Z</time></trkpt><trkpt lat="44.5243647510273" lon="11.62243056243848"><ele>12.0</ele><time>2026-04-04T12:59:37.001Z</time></trkpt><trkpt lat="44.52418977458423" lon="11.622391610541337"><ele>12.0</ele><time>2026-04-04T12:59:38.001Z</time></trkpt><trkpt lat="44.52401713348388" lon="11.622328632964132"><ele>12.0</ele><time>2026-04-04T12:59:39.001Z</time></trkpt><trkpt lat="44.5238483558858" lon="11.622272949179095"><ele>12.0</ele><time>2026-04-04T12:59:40.001Z</time></trkpt><trkpt lat="44.52368334285044" lon="11.622226726781195"><ele>12.333333333333332</ele><time>2026-04-04T12:59:41.001Z</time></trkpt><trkpt lat="44.5235176941717" lon="11.622182182813734"><ele>12.666666666666666</ele><time>2026-04-04T12:59:42.001Z</time></trkpt><trkpt lat="44.52334947987748" lon="11.62213200849621"><ele>13.0</ele><time>2026-04-04T12:59:43.001Z</time></trkpt><trkpt lat="44.52318383447865" lon="11.622080148371479"><ele>13.0</ele><time>2026-04-04T12:59:44.001Z</time></trkpt><trkpt lat="44.52301344537317" lon="11.622029253123712"><ele>13.0</ele><time>2026-04-04T12:59:45.001Z</time></trkpt><trkpt lat="44.52284597867731" lon="11.621983013250599"><ele>13.0</ele><time>2026-04-04T12:59:46.001Z</time></trkpt><trkpt lat="44.52268324482027" lon="11.621945123485336"><ele>12.666666666666666</ele><time>2026-04-04T12:59:47.001Z</time></trkpt><trkpt lat="44.522515820004024" lon="11.62190727389091"><ele>12.333333333333332</ele><time>2026-04-04T12:59:48.001Z</time></trkpt><trkpt lat="44.522344037626084" lon="11.621872617307123"><ele>12.0</ele><time>2026-04-04T12:59:49.001Z</time></trkpt><trkpt lat="44.52217352563865" lon="11.621837524145858"><ele>11.333333333333334</ele><time>2026-04-04T12:59:50.001Z</time></trkpt><trkpt lat="44.5219992263656" lon="11.62180406969587"><ele>10.666666666666668</ele><time>2026-04-04T12:59:51.001Z</time></trkpt><trkpt lat="44.52182637997739" lon="11.621775355712776"><ele>10.0</ele><time>2026-04-04T12:59:52.001Z</time></trkpt><trkpt lat="44.521646734884634" lon="11.621759190458434"><ele>10.0</ele><time>2026-04-04T12:59:53.001Z</time></trkpt><trkpt lat="44.521471887210325" lon="11.62174768790862"><ele>10.0</ele><time>2026-04-04T12:59:54.001Z</time></trkpt><trkpt lat="44.521313465451364" lon="11.621735691966217"><ele>10.0</ele><time>2026-04-04T12:59:55.001Z</time></trkpt><trkpt lat="44.52114943224481" lon="11.62172702389533"><ele>11.0</ele><time>2026-04-04T12:59:56.001Z</time></trkpt><trkpt lat="44.52098201380712" lon="11.621721803251672"><ele>12.0</ele><time>2026-04-04T12:59:57.001Z</time></trkpt><trkpt lat="44.52081419687784" lon="11.621715153327218"><ele>13.0</ele><time>2026-04-04T12:59:58.001Z</time></trkpt><trkpt lat="44.5206434797004" lon="11.621701462759058"><ele>13.0</ele><time>2026-04-04T12:59:59.001Z</time></trkpt><trkpt lat="44.520471904325916" lon="11.621678236443202"><ele>13.0</ele><time>2026-04-04T13:00:00.001Z</time></trkpt><trkpt lat="44.520303381619165" lon="11.621644739436828"><ele>13.0</ele><time>2026-04-04T13:00:01.002Z</time></trkpt><trkpt lat="44.52012972470502" lon="11.62159626191456"><ele>12.666666666666666</ele><time>2026-04-04T13:00:02.002Z</time></trkpt><trkpt lat="44.519963506008274" lon="11.621537190553548"><ele>12.333333333333332</ele><time>2026-04-04T13:00:03.002Z</time></trkpt><trkpt lat="44.51979747431218" lon="11.62146987704455"><ele>12.0</ele><time>2026-04-04T13:00:04.002Z</time></trkpt><trkpt lat="44.51962795575199" lon="11.621400859370533"><ele>12.333333333333332</ele><time>2026-04-04T13:00:05.002Z</time></trkpt><trkpt lat="44.51946503393562" lon="11.621330115180001"><ele>12.666666666666666</ele><time>2026-04-04T13:00:06.002Z</time></trkpt><trkpt lat="44.51930187349884" lon="11.621246998692989"><ele>13.0</ele><time>2026-04-04T13:00:07.002Z</time></trkpt><trkpt lat="44.51913523097541" lon="11.621151428539537"><ele>13.0</ele><time>2026-04-04T13:00:08.002Z</time></trkpt><trkpt lat="44.51896827610347" lon="11.621053393267037"><ele>13.0</ele><time>2026-04-04T13:00:09.002Z</time></trkpt><trkpt lat="44.51880407863791" lon="11.620950462423803"><ele>13.0</ele><time>2026-04-04T13:00:10.002Z</time></trkpt><trkpt lat="44.518644386363206" lon="11.62084595135087"><ele>12.333333333333332</ele><time>2026-04-04T13:00:11.002Z</time></trkpt><trkpt lat="44.518483455125434" lon="11.620742781898405"><ele>11.666666666666666</ele><time>2026-04-04T13:00:12Z</time></trkpt><trkpt lat="44.518324935972515" lon="11.620649197766198"><ele>11.0</ele><time>2026-04-04T13:00:13Z</time></trkpt><trkpt lat="44.518157643911344" lon="11.620553486891206"><ele>11.0</ele><time>2026-04-04T13:00:14Z</time></trkpt><trkpt lat="44.518000862039855" lon="11.620434490257653"><ele>11.0</ele><time>2026-04-04T13:00:15Z</time></trkpt><trkpt lat="44.51783977354237" lon="11.620332821657383"><ele>11.0</ele><time>2026-04-04T13:00:16Z</time></trkpt><trkpt lat="44.517682774538976" lon="11.620227798712834"><ele>11.0</ele><time>2026-04-04T13:00:17Z</time></trkpt><trkpt lat="44.517534161765745" lon="11.620120631690321"><ele>11.0</ele><time>2026-04-04T13:00:18Z</time></trkpt><trkpt lat="44.5173874993856" lon="11.62004205539028"><ele>11.0</ele><time>2026-04-04T13:00:19Z</time></trkpt><trkpt lat="44.517248844656294" lon="11.619923194708235"><ele>11.0</ele><time>2026-04-04T13:00:20Z</time></trkpt><trkpt lat="44.51709498097874" lon="11.619862948877614"><ele>11.0</ele><time>2026-04-04T13:00:21Z</time></trkpt><trkpt lat="44.516935793802624" lon="11.619783792824617"><ele>11.0</ele><time>2026-04-04T13:00:22Z</time></trkpt><trkpt lat="44.516781034867165" lon="11.619682168300574"><ele>11.666666666666666</ele><time>2026-04-04T13:00:23Z</time></trkpt><trkpt lat="44.51661807458537" lon="11.619585158479342"><ele>12.333333333333332</ele><time>2026-04-04T13:00:24Z</time></trkpt><trkpt lat="44.51645932435374" lon="11.619476566524295"><ele>13.0</ele><time>2026-04-04T13:00:25Z</time></trkpt><trkpt lat="44.51630506053007" lon="11.619359519576507"><ele>12.666666666666666</ele><time>2026-04-04T13:00:26Z</time></trkpt><trkpt lat="44.516156153763326" lon="11.619234575296497"><ele>12.333333333333332</ele><time>2026-04-04T13:00:27Z</time></trkpt><trkpt lat="44.5160217882125" lon="11.619120473424116"><ele>12.0</ele><time>2026-04-04T13:00:28Z</time></trkpt><trkpt lat="44.51589610473025" lon="11.619016791595342"><ele>12.0</ele><time>2026-04-04T13:00:29Z</time></trkpt><trkpt lat="44.5157674356091" lon="11.618916691050686"><ele>12.0</ele><time>2026-04-04T13:00:30Z</time></trkpt><trkpt lat="44.51562672198076" lon="11.618823190038558"><ele>12.0</ele><time>2026-04-04T13:00:31Z</time></trkpt><trkpt lat="44.51547947089154" lon="11.618732564405992"><ele>13.0</ele><time>2026-04-04T13:00:32Z</time></trkpt><trkpt lat="44.51533365387228" lon="11.618647734291763"><ele>14.0</ele><time>2026-04-04T13:00:33Z</time></trkpt><trkpt lat="44.5151830874248" lon="11.618573378178338"><ele>15.0</ele><time>2026-04-04T13:00:34Z</time></trkpt><trkpt lat="44.5150340755782" lon="11.618509845911504"><ele>15.0</ele><time>2026-04-04T13:00:35Z</time></trkpt><trkpt lat="44.514882759094704" lon="11.618452448275008"><ele>15.0</ele><time>2026-04-04T13:00:36Z</time></trkpt><trkpt lat="44.51472489869395" lon="11.618404227150432"><ele>15.0</ele><time>2026-04-04T13:00:37Z</time></trkpt><trkpt lat="44.51457067415121" lon="11.618368609474068"><ele>14.666666666666668</ele><time>2026-04-04T13:00:38Z</time></trkpt><trkpt lat="44.51441808427417" lon="11.618329259833173"><ele>14.333333333333334</ele><time>2026-04-04T13:00:39Z</time></trkpt><trkpt lat="44.51426790495089" lon="11.61830997650093"><ele>14.0</ele><time>2026-04-04T13:00:40Z</time></trkpt><trkpt lat="44.5141218869203" lon="11.618235406274245"><ele>14.0</ele><time>2026-04-04T13:00:41Z</time></trkpt><trkpt lat="44.51396819007866" lon="11.618167206357793"><ele>14.0</ele><time>2026-04-04T13:00:42Z</time></trkpt><trkpt lat="44.5138168671036" lon="11.618095170214469"><ele>14.0</ele><time>2026-04-04T13:00:43Z</time></trkpt><trkpt lat="44.513668395199744" lon="11.618018537803833"><ele>13.666666666666668</ele><time>2026-04-04T13:00:44Z</time></trkpt><trkpt lat="44.513517184103726" lon="11.61793821845141"><ele>13.333333333333332</ele><time>2026-04-04T13:00:45Z</time></trkpt><trkpt lat="44.51336878633214" lon="11.61784969711673"><ele>13.0</ele><time>2026-04-04T13:00:46Z</time></trkpt><trkpt lat="44.51323513197086" lon="11.617768726188466"><ele>13.5</ele><time>2026-04-04T13:00:47Z</time></trkpt><trkpt lat="44.513108513930845" lon="11.617692017192388"><ele>14.0</ele><time>2026-04-04T13:00:48Z</time></trkpt><trkpt lat="44.51298152476298" lon="11.617612856374699"><ele>14.5</ele><time>2026-04-04T13:00:49.001Z</time></trkpt><trkpt lat="44.51283722584253" lon="11.617553767391954"><ele>15.0</ele><time>2026-04-04T13:00:50.001Z</time></trkpt><trkpt lat="44.51269844663679" lon="11.617480082265159"><ele>15.333333333333332</ele><time>2026-04-04T13:00:51.001Z</time></trkpt><trkpt lat="44.512555166558755" lon="11.617417704837104"><ele>15.666666666666666</ele><time>2026-04-04T13:00:52.001Z</time></trkpt><trkpt lat="44.51241222328578" lon="11.617347788810005"><ele>16.0</ele><time>2026-04-04T13:00:53.001Z</time></trkpt><trkpt lat="44.51225797816273" lon="11.617310297155603"><ele>16.0</ele><time>2026-04-04T13:00:54.001Z</time></trkpt><trkpt lat="44.512103798280506" lon="11.617308211502865"><ele>16.0</ele><time>2026-04-04T13:00:55.001Z</time></trkpt><trkpt lat="44.511942164353826" lon="11.617283936887423"><ele>16.0</ele><time>2026-04-04T13:00:56.001Z</time></trkpt><trkpt lat="44.51178078755991" lon="11.617262055260047"><ele>16.333333333333332</ele><time>2026-04-04T13:00:57.001Z</time></trkpt><trkpt lat="44.51160766571113" lon="11.617261296684932"><ele>16.666666666666668</ele><time>2026-04-04T13:00:58.001Z</time></trkpt><trkpt lat="44.51142718717883" lon="11.617287178612493"><ele>17.0</ele><time>2026-04-04T13:00:59.001Z</time></trkpt><trkpt lat="44.511244639493086" lon="11.6173293732277"><ele>16.666666666666668</ele><time>2026-04-04T13:01:00.001Z</time></trkpt><trkpt lat="44.51106593550057" lon="11.617390752017181"><ele>16.333333333333332</ele><time>2026-04-04T13:01:01.001Z</time></trkpt><trkpt lat="44.51088242048058" lon="11.61746962767019"><ele>16.0</ele><time>2026-04-04T13:01:02.001Z</time></trkpt><trkpt lat="44.51070407327231" lon="11.61755591422156"><ele>16.0</ele><time>2026-04-04T13:01:03.001Z</time></trkpt><trkpt lat="44.510533960743366" lon="11.617637323477693"><ele>16.0</ele><time>2026-04-04T13:01:04.001Z</time></trkpt><trkpt lat="44.51037483690723" lon="11.617708222139026"><ele>16.0</ele><time>2026-04-04T13:01:05.001Z</time></trkpt><trkpt lat="44.51020540895572" lon="11.617768380004337"><ele>16.0</ele><time>2026-04-04T13:01:06.001Z</time></trkpt><trkpt lat="44.51002968562117" lon="11.617806625350873"><ele>16.0</ele><time>2026-04-04T13:01:07.001Z</time></trkpt><trkpt lat="44.50985157484514" lon="11.617829152840121"><ele>16.0</ele><time>2026-04-04T13:01:08.001Z</time></trkpt><trkpt lat="44.50967311462914" lon="11.617840878314942"><ele>16.333333333333332</ele><time>2026-04-04T13:01:09.001Z</time></trkpt><trkpt lat="44.50949472949115" lon="11.617838639747353"><ele>16.666666666666668</ele><time>2026-04-04T13:01:10.001Z</time></trkpt><trkpt lat="44.509318441313816" lon="11.617826909428768"><ele>17.0</ele><time>2026-04-04T13:01:11.001Z</time></trkpt><trkpt lat="44.509147403913715" lon="11.617798426704242"><ele>17.0</ele><time>2026-04-04T13:01:12.001Z</time></trkpt><trkpt lat="44.50897091192222" lon="11.617754607819665"><ele>17.0</ele><time>2026-04-04T13:01:13.001Z</time></trkpt><trkpt lat="44.508799728314095" lon="11.617687261839812"><ele>17.0</ele><time>2026-04-04T13:01:14.001Z</time></trkpt><trkpt lat="44.50863168328244" lon="11.617598959719631"><ele>17.0</ele><time>2026-04-04T13:01:15.001Z</time></trkpt><trkpt lat="44.50846962259016" lon="11.61751256425582"><ele>17.0</ele><time>2026-04-04T13:01:16.001Z</time></trkpt><trkpt lat="44.50830770503146" lon="11.617421878786704"><ele>17.0</ele><time>2026-04-04T13:01:17.001Z</time></trkpt><trkpt lat="44.50814489203512" lon="11.617329150993973"><ele>17.0</ele><time>2026-04-04T13:01:18.001Z</time></trkpt><trkpt lat="44.5079851888686" lon="11.617245912884586"><ele>17.0</ele><time>2026-04-04T13:01:19.001Z</time></trkpt><trkpt lat="44.50782389176536" lon="11.617164140404793"><ele>17.0</ele><time>2026-04-04T13:01:20.001Z</time></trkpt><trkpt lat="44.507672013829726" lon="11.61705656557841"><ele>16.666666666666668</ele><time>2026-04-04T13:01:21.001Z</time></trkpt><trkpt lat="44.5075142708538" lon="11.616969752811741"><ele>16.333333333333332</ele><time>2026-04-04T13:01:22.001Z</time></trkpt><trkpt lat="44.50734697706351" lon="11.616902475690356"><ele>16.0</ele><time>2026-04-04T13:01:23.001Z</time></trkpt><trkpt lat="44.50719048399385" lon="11.616811576416081"><ele>16.0</ele><time>2026-04-04T13:01:24.001Z</time></trkpt><trkpt lat="44.50702461094506" lon="11.616722056779336"><ele>16.0</ele><time>2026-04-04T13:01:25.001Z</time></trkpt><trkpt lat="44.506858626528356" lon="11.616631996914471"><ele>16.0</ele><time>2026-04-04T13:01:26.001Z</time></trkpt><trkpt lat="44.506684945007216" lon="11.616536204561825"><ele>16.0</ele><time>2026-04-04T13:01:27.001Z</time></trkpt><trkpt lat="44.50651526629948" lon="11.616441979759387"><ele>16.0</ele><time>2026-04-04T13:01:28.001Z</time></trkpt><trkpt lat="44.50634359387863" lon="11.616358810597506"><ele>16.0</ele><time>2026-04-04T13:01:29.001Z</time></trkpt><trkpt lat="44.506180191004596" lon="11.616253521220711"><ele>16.333333333333332</ele><time>2026-04-04T13:01:30.001Z</time></trkpt><trkpt lat="44.506014502832436" lon="11.616176097356421"><ele>16.666666666666668</ele><time>2026-04-04T13:01:31.001Z</time></trkpt><trkpt lat="44.50584940097384" lon="11.616100752165282"><ele>17.0</ele><time>2026-04-04T13:01:32.001Z</time></trkpt><trkpt lat="44.50568367135922" lon="11.616046947957354"><ele>17.0</ele><time>2026-04-04T13:01:33.001Z</time></trkpt><trkpt lat="44.50553607351935" lon="11.61597250996764"><ele>17.0</ele><time>2026-04-04T13:01:34.001Z</time></trkpt><trkpt lat="44.50538666046866" lon="11.6158970849156"><ele>17.0</ele><time>2026-04-04T13:01:35.001Z</time></trkpt><trkpt lat="44.505239236442634" lon="11.615801338274975"><ele>17.0</ele><time>2026-04-04T13:01:36.001Z</time></trkpt><trkpt lat="44.5050781743681" lon="11.615750551953615"><ele>17.0</ele><time>2026-04-04T13:01:37.001Z</time></trkpt><trkpt lat="44.50492424664448" lon="11.615654111714132"><ele>17.0</ele><time>2026-04-04T13:01:38.001Z</time></trkpt><trkpt lat="44.50476548898946" lon="11.615578436132042"><ele>17.0</ele><time>2026-04-04T13:01:39.001Z</time></trkpt><trkpt lat="44.50461912279289" lon="11.615490892676245"><ele>17.0</ele><time>2026-04-04T13:01:40.001Z</time></trkpt><trkpt lat="44.50447433218613" lon="11.615390628982937"><ele>17.0</ele><time>2026-04-04T13:01:41.001Z</time></trkpt><trkpt lat="44.50433650481232" lon="11.61529299899212"><ele>17.0</ele><time>2026-04-04T13:01:42.001Z</time></trkpt><trkpt lat="44.504214421392795" lon="11.615204729258076"><ele>17.0</ele><time>2026-04-04T13:01:43.001Z</time></trkpt><trkpt lat="44.50410243011303" lon="11.615119932950892"><ele>17.0</ele><time>2026-04-04T13:01:44.001Z</time></trkpt><trkpt lat="44.50400107899386" lon="11.615036633408554"><ele>17.0</ele><time>2026-04-04T13:01:45.001Z</time></trkpt><trkpt lat="44.50391364875274" lon="11.614952458251246"><ele>17.0</ele><time>2026-04-04T13:01:46.001Z</time></trkpt><trkpt lat="44.50383758286044" lon="11.614863651495044"><ele>17.0</ele><time>2026-04-04T13:01:47.001Z</time></trkpt><trkpt lat="44.50376092585241" lon="11.614744347260938"><ele>17.0</ele><time>2026-04-04T13:01:48.001Z</time></trkpt><trkpt lat="44.50369425622989" lon="11.61460387769144"><ele>17.0</ele><time>2026-04-04T13:01:49.001Z</time></trkpt><trkpt lat="44.5036185007703" lon="11.614447544762083"><ele>17.333333333333336</ele><time>2026-04-04T13:01:50.001Z</time></trkpt><trkpt lat="44.503541900751436" lon="11.61427525834865"><ele>17.666666666666668</ele><time>2026-04-04T13:01:51.001Z</time></trkpt><trkpt lat="44.50345644085953" lon="11.614088202377115"><ele>18.0</ele><time>2026-04-04T13:01:52.001Z</time></trkpt><trkpt lat="44.50336418742931" lon="11.613899588693865"><ele>18.0</ele><time>2026-04-04T13:01:53.001Z</time></trkpt><trkpt lat="44.503268909757814" lon="11.613713191306276"><ele>18.0</ele><time>2026-04-04T13:01:54.001Z</time></trkpt><trkpt lat="44.50316931638452" lon="11.61352004703312"><ele>18.0</ele><time>2026-04-04T13:01:55.001Z</time></trkpt><trkpt lat="44.50306481781761" lon="11.613314840021216"><ele>18.333333333333332</ele><time>2026-04-04T13:01:56.001Z</time></trkpt><trkpt lat="44.50296062088289" lon="11.613106249093505"><ele>18.666666666666664</ele><time>2026-04-04T13:01:57.001Z</time></trkpt><trkpt lat="44.502856477156186" lon="11.61290271339302"><ele>19.0</ele><time>2026-04-04T13:01:58.001Z</time></trkpt><trkpt lat="44.50275382228753" lon="11.612717811378504"><ele>18.0</ele><time>2026-04-04T13:01:59.001Z</time></trkpt><trkpt lat="44.502648766232205" lon="11.612536110552524"><ele>17.0</ele><time>2026-04-04T13:02:00.001Z</time></trkpt><trkpt lat="44.50254287272986" lon="11.612360500792525"><ele>16.0</ele><time>2026-04-04T13:02:01.001Z</time></trkpt><trkpt lat="44.50244037235209" lon="11.612190603658117"><ele>16.0</ele><time>2026-04-04T13:02:02.001Z</time></trkpt><trkpt lat="44.50233965858779" lon="11.612026073164639"><ele>16.0</ele><time>2026-04-04T13:02:03.001Z</time></trkpt><trkpt lat="44.50224527306369" lon="11.611874009150307"><ele>16.0</ele><time>2026-04-04T13:02:04.001Z</time></trkpt><trkpt lat="44.502155590873144" lon="11.611729971301491"><ele>16.0</ele><time>2026-04-04T13:02:05.001Z</time></trkpt><trkpt lat="44.50206398529445" lon="11.611580847951547"><ele>16.5</ele><time>2026-04-04T13:02:06.001Z</time></trkpt><trkpt lat="44.50198459767569" lon="11.611443508953124"><ele>17.0</ele><time>2026-04-04T13:02:07.001Z</time></trkpt><trkpt lat="44.501914280685135" lon="11.611313909527142"><ele>17.5</ele><time>2026-04-04T13:02:08.002Z</time></trkpt><trkpt lat="44.501849997380575" lon="11.611191415016238"><ele>18.0</ele><time>2026-04-04T13:02:09.002Z</time></trkpt><trkpt lat="44.50178832753642" lon="11.611076258819274"><ele>18.0</ele><time>2026-04-04T13:02:10.002Z</time></trkpt><trkpt lat="44.501724287859396" lon="11.610963920067665"><ele>18.0</ele><time>2026-04-04T13:02:11.002Z</time></trkpt><trkpt lat="44.50164176588204" lon="11.610868762803088"><ele>18.0</ele><time>2026-04-04T13:02:12.002Z</time></trkpt><trkpt lat="44.501568335631454" lon="11.610746714829409"><ele>18.0</ele><time>2026-04-04T13:02:13.002Z</time></trkpt><trkpt lat="44.501477327016424" lon="11.61063930093759"><ele>18.0</ele><time>2026-04-04T13:02:14.002Z</time></trkpt><trkpt lat="44.501383398454074" lon="11.610536295039399"><ele>18.0</ele><time>2026-04-04T13:02:15.002Z</time></trkpt><trkpt lat="44.5012853936355" lon="11.610445577994787"><ele>18.0</ele><time>2026-04-04T13:02:16.002Z</time></trkpt><trkpt lat="44.501222995632574" lon="11.610328352646869"><ele>18.0</ele><time>2026-04-04T13:02:17.002Z</time></trkpt><trkpt lat="44.501174941064065" lon="11.610198397995207"><ele>18.0</ele><time>2026-04-04T13:02:18Z</time></trkpt><trkpt lat="44.501148295641975" lon="11.6100676925696"><ele>18.0</ele><time>2026-04-04T13:02:19Z</time></trkpt><trkpt lat="44.50111974312334" lon="11.609929833299597"><ele>17.6</ele><time>2026-04-04T13:02:20Z</time></trkpt><trkpt lat="44.50108185360412" lon="11.609800977307762"><ele>17.200000000000003</ele><time>2026-04-04T13:02:21Z</time></trkpt><trkpt lat="44.50101969606285" lon="11.609683319497996"><ele>16.8</ele><time>2026-04-04T13:02:22Z</time></trkpt><trkpt lat="44.50094100720087" lon="11.609581743313962"><ele>16.400000000000002</ele><time>2026-04-04T13:02:23Z</time></trkpt><trkpt lat="44.50084701274852" lon="11.609502513231293"><ele>16.0</ele><time>2026-04-04T13:02:24Z</time></trkpt><trkpt lat="44.50074939182738" lon="11.609466179731328"><ele>16.0</ele><time>2026-04-04T13:02:25Z</time></trkpt><trkpt lat="44.50064559614578" lon="11.609460626607008"><ele>16.0</ele><time>2026-04-04T13:02:26Z</time></trkpt><trkpt lat="44.500547009310864" lon="11.609514162903634"><ele>16.0</ele><time>2026-04-04T13:02:27Z</time></trkpt><trkpt lat="44.500463286888895" lon="11.609604449942722"><ele>16.0</ele><time>2026-04-04T13:02:28Z</time></trkpt><trkpt lat="44.500404701774436" lon="11.609727452836006"><ele>16.0</ele><time>2026-04-04T13:02:29Z</time></trkpt><trkpt lat="44.50037216970211" lon="11.609879080916599"><ele>16.25</ele><time>2026-04-04T13:02:30Z</time></trkpt><trkpt lat="44.50036619854585" lon="11.610042969940892"><ele>16.5</ele><time>2026-04-04T13:02:31Z</time></trkpt><trkpt lat="44.50038656232284" lon="11.610215349678784"><ele>16.75</ele><time>2026-04-04T13:02:32Z</time></trkpt><trkpt lat="44.50041194786183" lon="11.610392623919882"><ele>17.0</ele><time>2026-04-04T13:02:33Z</time></trkpt><trkpt lat="44.50040367283138" lon="11.610570051099206"><ele>17.333333333333336</ele><time>2026-04-04T13:02:34Z</time></trkpt><trkpt lat="44.500372422973754" lon="11.610759767348915"><ele>17.666666666666668</ele><time>2026-04-04T13:02:35Z</time></trkpt><trkpt lat="44.50031141906533" lon="11.610950836889364"><ele>18.0</ele><time>2026-04-04T13:02:36Z</time></trkpt><trkpt lat="44.500235386409216" lon="11.611153883743984"><ele>18.0</ele><time>2026-04-04T13:02:37Z</time></trkpt><trkpt lat="44.50014536455956" lon="11.611392665841214"><ele>18.0</ele><time>2026-04-04T13:02:38Z</time></trkpt><trkpt lat="44.500045688657515" lon="11.61165242518975"><ele>18.0</ele><time>2026-04-04T13:02:39Z</time></trkpt><trkpt lat="44.49993552275651" lon="11.61194688001572"><ele>18.0</ele><time>2026-04-04T13:02:40Z</time></trkpt><trkpt lat="44.49981967682346" lon="11.61224408715779"><ele>18.0</ele><time>2026-04-04T13:02:41Z</time></trkpt><trkpt lat="44.499708282451294" lon="11.612527323974518"><ele>18.0</ele><time>2026-04-04T13:02:42Z</time></trkpt><trkpt lat="44.49959373753406" lon="11.612819957935752"><ele>18.0</ele><time>2026-04-04T13:02:43Z</time></trkpt><trkpt lat="44.49947459321746" lon="11.613118635685685"><ele>18.0</ele><time>2026-04-04T13:02:44Z</time></trkpt><trkpt lat="44.49935293340255" lon="11.613431795819837"><ele>18.0</ele><time>2026-04-04T13:02:45Z</time></trkpt><trkpt lat="44.49923009861124" lon="11.613742912678092"><ele>18.0</ele><time>2026-04-04T13:02:46Z</time></trkpt><trkpt lat="44.4991043440038" lon="11.614063419442456"><ele>18.0</ele><time>2026-04-04T13:02:47Z</time></trkpt><trkpt lat="44.49898565907487" lon="11.614358832949302"><ele>18.0</ele><time>2026-04-04T13:02:48Z</time></trkpt><trkpt lat="44.49887673834121" lon="11.614633379911764"><ele>18.0</ele><time>2026-04-04T13:02:49Z</time></trkpt><trkpt lat="44.49877610199781" lon="11.614888949959159"><ele>18.0</ele><time>2026-04-04T13:02:50Z</time></trkpt><trkpt lat="44.498677151805204" lon="11.615141922180918"><ele>17.666666666666668</ele><time>2026-04-04T13:02:51Z</time></trkpt><trkpt lat="44.49857376212007" lon="11.615403606967526"><ele>17.333333333333336</ele><time>2026-04-04T13:02:52Z</time></trkpt><trkpt lat="44.49846662370594" lon="11.615670563988777"><ele>17.0</ele><time>2026-04-04T13:02:53Z</time></trkpt><trkpt lat="44.498362949903374" lon="11.61593647366699"><ele>16.333333333333336</ele><time>2026-04-04T13:02:54Z</time></trkpt><trkpt lat="44.498258557248704" lon="11.616212166060484"><ele>15.666666666666668</ele><time>2026-04-04T13:02:55Z</time></trkpt><trkpt lat="44.498154243950324" lon="11.616480743909012"><ele>15.0</ele><time>2026-04-04T13:02:56Z</time></trkpt><trkpt lat="44.498048896796526" lon="11.616746485868783"><ele>15.666666666666668</ele><time>2026-04-04T13:02:57Z</time></trkpt><trkpt lat="44.497945737819684" lon="11.617003247657932"><ele>16.333333333333336</ele><time>2026-04-04T13:02:58Z</time></trkpt><trkpt lat="44.49784384847778" lon="11.617264271352115"><ele>17.0</ele><time>2026-04-04T13:02:59Z</time></trkpt><trkpt lat="44.49774371572664" lon="11.617522485675508"><ele>17.0</ele><time>2026-04-04T13:03:00Z</time></trkpt><trkpt lat="44.497643608711776" lon="11.617782480110764"><ele>17.0</ele><time>2026-04-04T13:03:01Z</time></trkpt><trkpt lat="44.49754299064036" lon="11.618036857209667"><ele>17.0</ele><time>2026-04-04T13:03:02Z</time></trkpt><trkpt lat="44.49744403692017" lon="11.618292947849632"><ele>16.666666666666668</ele><time>2026-04-04T13:03:03Z</time></trkpt><trkpt lat="44.497344069790934" lon="11.618549850436295"><ele>16.333333333333332</ele><time>2026-04-04T13:03:04Z</time></trkpt><trkpt lat="44.49724583983253" lon="11.618799605045176"><ele>16.0</ele><time>2026-04-04T13:03:05Z</time></trkpt><trkpt lat="44.49714769082961" lon="11.61904581998387"><ele>16.333333333333332</ele><time>2026-04-04T13:03:06Z</time></trkpt><trkpt lat="44.497051563212224" lon="11.619295292884965"><ele>16.666666666666668</ele><time>2026-04-04T13:03:07Z</time></trkpt><trkpt lat="44.496956424442345" lon="11.619540364559445"><ele>17.0</ele><time>2026-04-04T13:03:08Z</time></trkpt><trkpt lat="44.49686350222612" lon="11.619786502467239"><ele>17.0</ele><time>2026-04-04T13:03:09Z</time></trkpt><trkpt lat="44.49669129933962" lon="11.620226737864206"><ele>17.0</ele><time>2026-04-04T13:03:11.001Z</time></trkpt><trkpt lat="44.496616084536825" lon="11.620414282085752"><ele>16.75</ele><time>2026-04-04T13:03:12.001Z</time></trkpt><trkpt lat="44.49654899356633" lon="11.620577945215137"><ele>16.5</ele><time>2026-04-04T13:03:13.001Z</time></trkpt><trkpt lat="44.49648323387531" lon="11.62074212798889"><ele>16.25</ele><time>2026-04-04T13:03:14.001Z</time></trkpt><trkpt lat="44.496423831698564" lon="11.620891283991842"><ele>16.0</ele><time>2026-04-04T13:03:15.001Z</time></trkpt><trkpt lat="44.49636695512862" lon="11.621034062708688"><ele>16.25</ele><time>2026-04-04T13:03:16.001Z</time></trkpt><trkpt lat="44.49631306330931" lon="11.621171423201057"><ele>16.5</ele><time>2026-04-04T13:03:17.001Z</time></trkpt><trkpt lat="44.49624684166796" lon="11.621338535463675"><ele>16.75</ele><time>2026-04-04T13:03:18.001Z</time></trkpt><trkpt lat="44.4961770447147" lon="11.62151468618802"><ele>17.0</ele><time>2026-04-04T13:03:19.001Z</time></trkpt><trkpt lat="44.49611435490581" lon="11.621678734249686"><ele>17.0</ele><time>2026-04-04T13:03:20.001Z</time></trkpt><trkpt lat="44.49604930769021" lon="11.621847287601772"><ele>17.0</ele><time>2026-04-04T13:03:21.001Z</time></trkpt><trkpt lat="44.49598054060374" lon="11.622022974744132"><ele>17.0</ele><time>2026-04-04T13:03:22.001Z</time></trkpt><trkpt lat="44.49590962208224" lon="11.622203311455594"><ele>17.0</ele><time>2026-04-04T13:03:23.001Z</time></trkpt><trkpt lat="44.49583840180323" lon="11.62238626438079"><ele>16.666666666666668</ele><time>2026-04-04T13:03:24.001Z</time></trkpt><trkpt lat="44.49575911867129" lon="11.62259469915782"><ele>16.333333333333332</ele><time>2026-04-04T13:03:25.001Z</time></trkpt><trkpt lat="44.495678491011994" lon="11.622807988822235"><ele>16.0</ele><time>2026-04-04T13:03:26.001Z</time></trkpt><trkpt lat="44.49560670286648" lon="11.622992597164767"><ele>16.0</ele><time>2026-04-04T13:03:27.001Z</time></trkpt><trkpt lat="44.49554036294124" lon="11.623159641293418"><ele>16.0</ele><time>2026-04-04T13:03:28.001Z</time></trkpt><trkpt lat="44.49548727322369" lon="11.623295381354083"><ele>16.0</ele><time>2026-04-04T13:03:29.001Z</time></trkpt><trkpt lat="44.49544359113174" lon="11.623408451212436"><ele>16.0</ele><time>2026-04-04T13:03:30.001Z</time></trkpt><trkpt lat="44.495403026660114" lon="11.623515118610973"><ele>16.0</ele><time>2026-04-04T13:03:31.001Z</time></trkpt><trkpt lat="44.49536527088753" lon="11.623613209834065"><ele>15.857142857142856</ele><time>2026-04-04T13:03:32.001Z</time></trkpt><trkpt lat="44.4953285014152" lon="11.623704343333344"><ele>15.714285714285712</ele><time>2026-04-04T13:03:33.001Z</time></trkpt><trkpt lat="44.49529243892024" lon="11.623792381283694"><ele>15.571428571428571</ele><time>2026-04-04T13:03:34.001Z</time></trkpt><trkpt lat="44.49525812247862" lon="11.623880962803621"><ele>15.428571428571427</ele><time>2026-04-04T13:03:35.001Z</time></trkpt><trkpt lat="44.49522579995242" lon="11.623963600826098"><ele>15.285714285714285</ele><time>2026-04-04T13:03:36.001Z</time></trkpt><trkpt lat="44.49519055202803" lon="11.624052651611846"><ele>15.142857142857142</ele><time>2026-04-04T13:03:37.001Z</time></trkpt><trkpt lat="44.49514995951217" lon="11.624154782624144"><ele>15.0</ele><time>2026-04-04T13:03:38.001Z</time></trkpt><trkpt lat="44.49510151923145" lon="11.62427394786644"><ele>15.0</ele><time>2026-04-04T13:03:39.001Z</time></trkpt><trkpt lat="44.495045886881414" lon="11.624408571350981"><ele>15.0</ele><time>2026-04-04T13:03:40.001Z</time></trkpt><trkpt lat="44.49498926917481" lon="11.624551786419133"><ele>15.0</ele><time>2026-04-04T13:03:41.001Z</time></trkpt><trkpt lat="44.49492863037479" lon="11.624707615755018"><ele>15.0</ele><time>2026-04-04T13:03:42.001Z</time></trkpt><trkpt lat="44.49486272303872" lon="11.624876154696837"><ele>15.5</ele><time>2026-04-04T13:03:43.001Z</time></trkpt><trkpt lat="44.494800197442366" lon="11.625036054246053"><ele>16.0</ele><time>2026-04-04T13:03:44.001Z</time></trkpt><trkpt lat="44.49473815172067" lon="11.6251938715736"><ele>16.5</ele><time>2026-04-04T13:03:45.001Z</time></trkpt><trkpt lat="44.49467939136073" lon="11.625349877763847"><ele>17.0</ele><time>2026-04-04T13:03:46.001Z</time></trkpt><trkpt lat="44.49462178356824" lon="11.625502337776943"><ele>16.25</ele><time>2026-04-04T13:03:47.001Z</time></trkpt><trkpt lat="44.49456485781137" lon="11.625651043144776"><ele>15.5</ele><time>2026-04-04T13:03:48.001Z</time></trkpt><trkpt lat="44.49450609884364" lon="11.625800601339918"><ele>14.75</ele><time>2026-04-04T13:03:49.001Z</time></trkpt><trkpt lat="44.494442755290265" lon="11.625958631108304"><ele>14.0</ele><time>2026-04-04T13:03:50.001Z</time></trkpt><trkpt lat="44.494380508234656" lon="11.626111563646974"><ele>14.5</ele><time>2026-04-04T13:03:51.001Z</time></trkpt><trkpt lat="44.494318808180715" lon="11.62626397398461"><ele>15.0</ele><time>2026-04-04T13:03:52.001Z</time></trkpt><trkpt lat="44.4942675863292" lon="11.626397070923002"><ele>15.5</ele><time>2026-04-04T13:03:53.001Z</time></trkpt><trkpt lat="44.49421635325694" lon="11.626538078218799"><ele>16.0</ele><time>2026-04-04T13:03:54.001Z</time></trkpt><trkpt lat="44.494162171507355" lon="11.626686496539437"><ele>16.0</ele><time>2026-04-04T13:03:55.001Z</time></trkpt><trkpt lat="44.49409772571176" lon="11.626840903816616"><ele>16.0</ele><time>2026-04-04T13:03:56.001Z</time></trkpt><trkpt lat="44.49401561975391" lon="11.62698200529217"><ele>16.0</ele><time>2026-04-04T13:03:57.001Z</time></trkpt><trkpt lat="44.49390800805742" lon="11.627105675502824"><ele>16.0</ele><time>2026-04-04T13:03:58.001Z</time></trkpt><trkpt lat="44.493781484969716" lon="11.627207568525577"><ele>16.0</ele><time>2026-04-04T13:03:59.001Z</time></trkpt><trkpt lat="44.49363620189393" lon="11.627279806926945"><ele>16.0</ele><time>2026-04-04T13:04:00.001Z</time></trkpt><trkpt lat="44.49348072860607" lon="11.627319529460861"><ele>16.0</ele><time>2026-04-04T13:04:01.001Z</time></trkpt><trkpt lat="44.493339863296754" lon="11.627312979611968"><ele>16.0</ele><time>2026-04-04T13:04:02.001Z</time></trkpt><trkpt lat="44.4932181133206" lon="11.627273784460249"><ele>16.0</ele><time>2026-04-04T13:04:03.001Z</time></trkpt><trkpt lat="44.49309689017424" lon="11.627219920311626"><ele>16.0</ele><time>2026-04-04T13:04:04.001Z</time></trkpt><trkpt lat="44.492970928159146" lon="11.627159377889814"><ele>16.0</ele><time>2026-04-04T13:04:05.001Z</time></trkpt><trkpt lat="44.492842257191825" lon="11.627104397541965"><ele>16.0</ele><time>2026-04-04T13:04:06.001Z</time></trkpt><trkpt lat="44.49271222815706" lon="11.627052019914755"><ele>16.0</ele><time>2026-04-04T13:04:07.001Z</time></trkpt><trkpt lat="44.49258293633928" lon="11.627000051231619"><ele>16.0</ele><time>2026-04-04T13:04:08.001Z</time></trkpt><trkpt lat="44.49246050736233" lon="11.626941500098567"><ele>16.0</ele><time>2026-04-04T13:04:09.001Z</time></trkpt><trkpt lat="44.492337169715" lon="11.626883862464526"><ele>16.0</ele><time>2026-04-04T13:04:10.001Z</time></trkpt><trkpt lat="44.49221097848961" lon="11.626822705498446"><ele>16.0</ele><time>2026-04-04T13:04:11.001Z</time></trkpt><trkpt lat="44.492087809635706" lon="11.626757153404144"><ele>16.0</ele><time>2026-04-04T13:04:12.001Z</time></trkpt><trkpt lat="44.49195477978807" lon="11.626684411743243"><ele>16.0</ele><time>2026-04-04T13:04:13.001Z</time></trkpt><trkpt lat="44.49181544520788" lon="11.62660837434125"><ele>16.666666666666664</ele><time>2026-04-04T13:04:14.001Z</time></trkpt><trkpt lat="44.491672129189794" lon="11.626524451525336"><ele>17.333333333333332</ele><time>2026-04-04T13:04:15.001Z</time></trkpt><trkpt lat="44.49152257416509" lon="11.626435479683046"><ele>18.0</ele><time>2026-04-04T13:04:16.001Z</time></trkpt><trkpt lat="44.49137028095753" lon="11.626344992357188"><ele>18.333333333333332</ele><time>2026-04-04T13:04:17.001Z</time></trkpt><trkpt lat="44.4912214383562" lon="11.62625542988332"><ele>18.666666666666664</ele><time>2026-04-04T13:04:18.001Z</time></trkpt><trkpt lat="44.491072975293854" lon="11.626158919661322"><ele>19.0</ele><time>2026-04-04T13:04:19.001Z</time></trkpt><trkpt lat="44.49092051769132" lon="11.626060192378715"><ele>19.333333333333332</ele><time>2026-04-04T13:04:20.001Z</time></trkpt><trkpt lat="44.490761760459854" lon="11.625960605799097"><ele>19.666666666666668</ele><time>2026-04-04T13:04:21.001Z</time></trkpt><trkpt lat="44.49060053190184" lon="11.625861699028604"><ele>20.0</ele><time>2026-04-04T13:04:22.001Z</time></trkpt><trkpt lat="44.490439329625154" lon="11.625756423246953"><ele>19.0</ele><time>2026-04-04T13:04:23.001Z</time></trkpt><trkpt lat="44.49027778529227" lon="11.625649014383903"><ele>18.0</ele><time>2026-04-04T13:04:24Z</time></trkpt><trkpt lat="44.490118068215736" lon="11.625537923384021"><ele>17.0</ele><time>2026-04-04T13:04:25Z</time></trkpt><trkpt lat="44.48995455785381" lon="11.625424802566652"><ele>17.666666666666668</ele><time>2026-04-04T13:04:26Z</time></trkpt><trkpt lat="44.48978920032835" lon="11.62531101578939"><ele>18.333333333333332</ele><time>2026-04-04T13:04:27Z</time></trkpt><trkpt lat="44.48962174336926" lon="11.625198986067508"><ele>19.0</ele><time>2026-04-04T13:04:28Z</time></trkpt><trkpt lat="44.48945503289254" lon="11.625086336210375"><ele>19.0</ele><time>2026-04-04T13:04:29Z</time></trkpt><trkpt lat="44.48928306634595" lon="11.624968141379167"><ele>19.0</ele><time>2026-04-04T13:04:30Z</time></trkpt><trkpt lat="44.48910176447463" lon="11.62484151690687"><ele>19.0</ele><time>2026-04-04T13:04:31Z</time></trkpt><trkpt lat="44.48892433458218" lon="11.62472359020597"><ele>19.333333333333332</ele><time>2026-04-04T13:04:32Z</time></trkpt><trkpt lat="44.48874903007168" lon="11.624602715178154"><ele>19.666666666666668</ele><time>2026-04-04T13:04:33Z</time></trkpt><trkpt lat="44.48856817790033" lon="11.624480090981507"><ele>20.0</ele><time>2026-04-04T13:04:34Z</time></trkpt><trkpt lat="44.4883961701712" lon="11.624362823705562"><ele>20.0</ele><time>2026-04-04T13:04:35Z</time></trkpt><trkpt lat="44.488227375653906" lon="11.624247309643332"><ele>20.0</ele><time>2026-04-04T13:04:36Z</time></trkpt><trkpt lat="44.48806404083739" lon="11.624137008056447"><ele>20.0</ele><time>2026-04-04T13:04:37Z</time></trkpt><trkpt lat="44.4879134042692" lon="11.62403417077515"><ele>20.333333333333336</ele><time>2026-04-04T13:04:38Z</time></trkpt><trkpt lat="44.487776564713165" lon="11.623938968055127"><ele>20.666666666666668</ele><time>2026-04-04T13:04:39Z</time></trkpt><trkpt lat="44.48763062766868" lon="11.623841990698189"><ele>21.0</ele><time>2026-04-04T13:04:40Z</time></trkpt><trkpt lat="44.487485798223844" lon="11.623745878706512"><ele>21.0</ele><time>2026-04-04T13:04:41Z</time></trkpt><trkpt lat="44.48734556306521" lon="11.62365002601924"><ele>21.0</ele><time>2026-04-04T13:04:42Z</time></trkpt><trkpt lat="44.4872042605693" lon="11.623552397989796"><ele>21.0</ele><time>2026-04-04T13:04:43Z</time></trkpt><trkpt lat="44.48707011094855" lon="11.623454978526901"><ele>22.0</ele><time>2026-04-04T13:04:44Z</time></trkpt><trkpt lat="44.48693560492509" lon="11.623365910086644"><ele>23.0</ele><time>2026-04-04T13:04:45Z</time></trkpt><trkpt lat="44.486802441222224" lon="11.623279797465155"><ele>24.0</ele><time>2026-04-04T13:04:46Z</time></trkpt><trkpt lat="44.48666231585426" lon="11.623190322236942"><ele>25.0</ele><time>2026-04-04T13:04:47Z</time></trkpt><trkpt lat="44.48652487142593" lon="11.623097278613479"><ele>25.0</ele><time>2026-04-04T13:04:48Z</time></trkpt><trkpt lat="44.48639638856826" lon="11.623007606249038"><ele>25.0</ele><time>2026-04-04T13:04:49Z</time></trkpt><trkpt lat="44.48627382001256" lon="11.622922020002912"><ele>25.0</ele><time>2026-04-04T13:04:50Z</time></trkpt><trkpt lat="44.486157602076695" lon="11.622839451452176"><ele>25.0</ele><time>2026-04-04T13:04:51Z</time></trkpt><trkpt lat="44.48604355235271" lon="11.622762137281663"><ele>23.75</ele><time>2026-04-04T13:04:52Z</time></trkpt><trkpt lat="44.48592655522581" lon="11.622684737425459"><ele>22.5</ele><time>2026-04-04T13:04:53Z</time></trkpt><trkpt lat="44.48581489089801" lon="11.622597556628815"><ele>21.25</ele><time>2026-04-04T13:04:54Z</time></trkpt><trkpt lat="44.48571007208158" lon="11.622491197034261"><ele>20.0</ele><time>2026-04-04T13:04:55Z</time></trkpt><trkpt lat="44.48560946256281" lon="11.622381244133225"><ele>20.0</ele><time>2026-04-04T13:04:56Z</time></trkpt><trkpt lat="44.48550839369777" lon="11.622265783002726"><ele>20.0</ele><time>2026-04-04T13:04:57Z</time></trkpt><trkpt lat="44.48539300055992" lon="11.622165172411743"><ele>20.0</ele><time>2026-04-04T13:04:58Z</time></trkpt><trkpt lat="44.48526588651781" lon="11.622080124569235"><ele>20.0</ele><time>2026-04-04T13:04:59Z</time></trkpt><trkpt lat="44.48513505729052" lon="11.622002871759243"><ele>20.75</ele><time>2026-04-04T13:05:00Z</time></trkpt><trkpt lat="44.48500582198573" lon="11.621921977820923"><ele>21.5</ele><time>2026-04-04T13:05:01Z</time></trkpt><trkpt lat="44.484893723515746" lon="11.621844180143109"><ele>22.25</ele><time>2026-04-04T13:05:02Z</time></trkpt><trkpt lat="44.48478504641867" lon="11.621769328841593"><ele>23.0</ele><time>2026-04-04T13:05:03Z</time></trkpt><trkpt lat="44.48468274971198" lon="11.621701954824749"><ele>23.0</ele><time>2026-04-04T13:05:04Z</time></trkpt><trkpt lat="44.4845842381536" lon="11.621635040300667"><ele>23.0</ele><time>2026-04-04T13:05:05Z</time></trkpt><trkpt lat="44.48448844707843" lon="11.621570713153677"><ele>23.0</ele><time>2026-04-04T13:05:06Z</time></trkpt><trkpt lat="44.484400823305194" lon="11.62151178841027"><ele>23.0</ele><time>2026-04-04T13:05:07Z</time></trkpt><trkpt lat="44.484323889759615" lon="11.62145600743266"><ele>23.0</ele><time>2026-04-04T13:05:08.001Z</time></trkpt><trkpt lat="44.48425600634343" lon="11.621407724316484"><ele>23.0</ele><time>2026-04-04T13:05:09.001Z</time></trkpt><trkpt lat="44.48420053791743" lon="11.621358170823406"><ele>23.0</ele><time>2026-04-04T13:05:10.001Z</time></trkpt><trkpt lat="44.48414500636969" lon="11.621292967986175"><ele>23.0</ele><time>2026-04-04T13:05:11.001Z</time></trkpt><trkpt lat="44.484079212423346" lon="11.621208644893313"><ele>23.0</ele><time>2026-04-04T13:05:12.001Z</time></trkpt><trkpt lat="44.48400830434094" lon="11.621134210304826"><ele>23.0</ele><time>2026-04-04T13:05:13.001Z</time></trkpt><trkpt lat="44.48392400729367" lon="11.621084152438916"><ele>23.0</ele><time>2026-04-04T13:05:14.001Z</time></trkpt><trkpt lat="44.4838261967077" lon="11.6210678595432"><ele>23.0</ele><time>2026-04-04T13:05:15.001Z</time></trkpt><trkpt lat="44.48373977697914" lon="11.62107800906177"><ele>23.0</ele><time>2026-04-04T13:05:16.001Z</time></trkpt><trkpt lat="44.48367104125187" lon="11.621119642186526"><ele>23.0</ele><time>2026-04-04T13:05:17.001Z</time></trkpt><trkpt lat="44.48361050760783" lon="11.621171332646323"><ele>23.0</ele><time>2026-04-04T13:05:18.001Z</time></trkpt><trkpt lat="44.48354937367643" lon="11.621282747252105"><ele>23.0</ele><time>2026-04-04T13:05:20.001Z</time></trkpt><trkpt lat="44.483546867705556" lon="11.621542414477615"><ele>23.0</ele><time>2026-04-04T13:12:41.001Z</time></trkpt><trkpt lat="44.483606160104564" lon="11.621700247181503"><ele>23.0</ele><time>2026-04-04T13:12:43.001Z</time></trkpt><trkpt lat="44.48366696513389" lon="11.621784761476276"><ele>23.0</ele><time>2026-04-04T13:12:44.001Z</time></trkpt><trkpt lat="44.48373962552733" lon="11.621843068066804"><ele>23.0</ele><time>2026-04-04T13:12:45.001Z</time></trkpt><trkpt lat="44.483820340964705" lon="11.62186383521776"><ele>23.0</ele><time>2026-04-04T13:12:46.001Z</time></trkpt><trkpt lat="44.48390708890738" lon="11.621855625510113"><ele>23.0</ele><time>2026-04-04T13:12:47.001Z</time></trkpt><trkpt lat="44.48399291112016" lon="11.621810434745928"><ele>23.0</ele><time>2026-04-04T13:12:48Z</time></trkpt><trkpt lat="44.48406302893629" lon="11.621727091826541"><ele>23.0</ele><time>2026-04-04T13:12:49Z</time></trkpt><trkpt lat="44.484112285778714" lon="11.621627414965458"><ele>23.0</ele><time>2026-04-04T13:12:50Z</time></trkpt><trkpt lat="44.48413758812725" lon="11.621499454849257"><ele>23.0</ele><time>2026-04-04T13:12:51Z</time></trkpt><trkpt lat="44.48412925464273" lon="11.621395728848606"><ele>23.0</ele><time>2026-04-04T13:12:52Z</time></trkpt><trkpt lat="44.48410463337015" lon="11.621241305928779"><ele>23.0</ele><time>2026-04-04T13:12:53Z</time></trkpt><trkpt lat="44.484019897292605" lon="11.621135200555203"><ele>23.0</ele><time>2026-04-04T13:12:54Z</time></trkpt><trkpt lat="44.48391659048786" lon="11.621084591189378"><ele>23.0</ele><time>2026-04-04T13:12:55Z</time></trkpt><trkpt lat="44.48381811707899" lon="11.621047206030967"><ele>23.0</ele><time>2026-04-04T13:12:56Z</time></trkpt><trkpt lat="44.483705631946464" lon="11.621012303465703"><ele>23.0</ele><time>2026-04-04T13:12:57Z</time></trkpt><trkpt lat="44.48358712908835" lon="11.620971156224329"><ele>23.0</ele><time>2026-04-04T13:12:58Z</time></trkpt><trkpt lat="44.48346094945762" lon="11.620918261347436"><ele>23.0</ele><time>2026-04-04T13:12:59Z</time></trkpt><trkpt lat="44.48332588176704" lon="11.620826193193347"><ele>23.0</ele><time>2026-04-04T13:13:00Z</time></trkpt><trkpt lat="44.48319066628253" lon="11.620731717264897"><ele>23.0</ele><time>2026-04-04T13:13:01Z</time></trkpt><trkpt lat="44.4830501074285" lon="11.620641358393467"><ele>22.666666666666668</ele><time>2026-04-04T13:13:02Z</time></trkpt><trkpt lat="44.48290414751443" lon="11.620550348730596"><ele>22.333333333333332</ele><time>2026-04-04T13:13:03Z</time></trkpt><trkpt lat="44.4827587767861" lon="11.620457957164836"><ele>22.0</ele><time>2026-04-04T13:13:04Z</time></trkpt><trkpt lat="44.482617121547165" lon="11.62036929442914"><ele>22.25</ele><time>2026-04-04T13:13:05Z</time></trkpt><trkpt lat="44.48247722247702" lon="11.620293703198987"><ele>22.5</ele><time>2026-04-04T13:13:06Z</time></trkpt><trkpt lat="44.48235360910612" lon="11.620229280770104"><ele>22.75</ele><time>2026-04-04T13:13:07Z</time></trkpt><trkpt lat="44.482235380299656" lon="11.62017632061758"><ele>23.0</ele><time>2026-04-04T13:13:08Z</time></trkpt><trkpt lat="44.482126914057744" lon="11.62012512115329"><ele>22.25</ele><time>2026-04-04T13:13:09Z</time></trkpt><trkpt lat="44.4820253346924" lon="11.62006851087624"><ele>21.5</ele><time>2026-04-04T13:13:10Z</time></trkpt><trkpt lat="44.48191159713597" lon="11.62000182935377"><ele>20.75</ele><time>2026-04-04T13:13:11Z</time></trkpt><trkpt lat="44.48178754920669" lon="11.619919969749894"><ele>20.0</ele><time>2026-04-04T13:13:12Z</time></trkpt><trkpt lat="44.4816628806401" lon="11.619831894845506"><ele>20.0</ele><time>2026-04-04T13:13:13Z</time></trkpt><trkpt lat="44.48153948700853" lon="11.619737622301592"><ele>20.0</ele><time>2026-04-04T13:13:14Z</time></trkpt><trkpt lat="44.48140826372993" lon="11.619635637676371"><ele>20.0</ele><time>2026-04-04T13:13:15Z</time></trkpt><trkpt lat="44.48126931011691" lon="11.619534543177359"><ele>20.0</ele><time>2026-04-04T13:13:16Z</time></trkpt><trkpt lat="44.481127588347015" lon="11.619430562899325"><ele>21.333333333333336</ele><time>2026-04-04T13:13:17Z</time></trkpt><trkpt lat="44.48098449358618" lon="11.619326652955797"><ele>22.666666666666668</ele><time>2026-04-04T13:13:18Z</time></trkpt><trkpt lat="44.48084531293646" lon="11.619218530490974"><ele>24.0</ele><time>2026-04-04T13:13:19Z</time></trkpt><trkpt lat="44.480696174036105" lon="11.619102541810005"><ele>24.0</ele><time>2026-04-04T13:13:20Z</time></trkpt><trkpt lat="44.48054932600124" lon="11.618990317250868"><ele>24.0</ele><time>2026-04-04T13:13:21Z</time></trkpt><trkpt lat="44.48040210308266" lon="11.618877095191007"><ele>24.0</ele><time>2026-04-04T13:13:22Z</time></trkpt><trkpt lat="44.4802514409533" lon="11.618765520363555"><ele>24.333333333333336</ele><time>2026-04-04T13:13:23Z</time></trkpt><trkpt lat="44.4801015980313" lon="11.618654958185315"><ele>24.666666666666668</ele><time>2026-04-04T13:13:24Z</time></trkpt><trkpt lat="44.47994590453809" lon="11.618539271072875"><ele>25.0</ele><time>2026-04-04T13:13:25Z</time></trkpt><trkpt lat="44.47978796044109" lon="11.6184237364584"><ele>25.333333333333336</ele><time>2026-04-04T13:13:26Z</time></trkpt><trkpt lat="44.47962473852083" lon="11.618299504516417"><ele>25.666666666666664</ele><time>2026-04-04T13:13:27Z</time></trkpt><trkpt lat="44.47945296507092" lon="11.618167126192954"><ele>26.0</ele><time>2026-04-04T13:13:28Z</time></trkpt><trkpt lat="44.47928228029876" lon="11.618041668983183"><ele>26.0</ele><time>2026-04-04T13:13:29Z</time></trkpt><trkpt lat="44.47911493541776" lon="11.617914711865515"><ele>26.0</ele><time>2026-04-04T13:13:30Z</time></trkpt><trkpt lat="44.47895180307231" lon="11.617790572160683"><ele>26.0</ele><time>2026-04-04T13:13:31Z</time></trkpt><trkpt lat="44.47879711851342" lon="11.617669818061986"><ele>26.0</ele><time>2026-04-04T13:13:32Z</time></trkpt><trkpt lat="44.47863957188758" lon="11.617547406921105"><ele>26.0</ele><time>2026-04-04T13:13:33Z</time></trkpt><trkpt lat="44.47848348301406" lon="11.61742895968558"><ele>26.0</ele><time>2026-04-04T13:13:34Z</time></trkpt><trkpt lat="44.47832812343876" lon="11.617310819563482"><ele>26.0</ele><time>2026-04-04T13:13:35Z</time></trkpt><trkpt lat="44.47817211944603" lon="11.61719528905628"><ele>26.0</ele><time>2026-04-04T13:13:36Z</time></trkpt><trkpt lat="44.478023940428656" lon="11.617085435699803"><ele>26.0</ele><time>2026-04-04T13:13:37Z</time></trkpt><trkpt lat="44.477876187754646" lon="11.616976180348145"><ele>25.0</ele><time>2026-04-04T13:13:38Z</time></trkpt><trkpt lat="44.47772128767146" lon="11.616860377073028"><ele>24.0</ele><time>2026-04-04T13:13:39Z</time></trkpt><trkpt lat="44.477568653639395" lon="11.616746878891695"><ele>23.0</ele><time>2026-04-04T13:13:40Z</time></trkpt><trkpt lat="44.477408169322494" lon="11.616634456010612"><ele>23.0</ele><time>2026-04-04T13:13:41Z</time></trkpt><trkpt lat="44.47724495955208" lon="11.616525635148106"><ele>23.0</ele><time>2026-04-04T13:13:42Z</time></trkpt><trkpt lat="44.47707915655229" lon="11.61641893399107"><ele>23.0</ele><time>2026-04-04T13:13:43Z</time></trkpt><trkpt lat="44.47690489874409" lon="11.616324711311169"><ele>23.0</ele><time>2026-04-04T13:13:44Z</time></trkpt><trkpt lat="44.47673515861726" lon="11.616240356595965"><ele>23.0</ele><time>2026-04-04T13:13:45Z</time></trkpt><trkpt lat="44.47655791499796" lon="11.61616398762469"><ele>23.0</ele><time>2026-04-04T13:13:46Z</time></trkpt><trkpt lat="44.47637907794687" lon="11.616090066757366"><ele>23.333333333333336</ele><time>2026-04-04T13:13:47Z</time></trkpt><trkpt lat="44.47620091539855" lon="11.616025491563736"><ele>23.666666666666668</ele><time>2026-04-04T13:13:48Z</time></trkpt><trkpt lat="44.4760164717203" lon="11.615969803767891"><ele>24.0</ele><time>2026-04-04T13:13:49Z</time></trkpt><trkpt lat="44.475831888478595" lon="11.615929381186321"><ele>24.0</ele><time>2026-04-04T13:13:50Z</time></trkpt><trkpt lat="44.47564847779733" lon="11.615887932147444"><ele>24.0</ele><time>2026-04-04T13:13:51Z</time></trkpt><trkpt lat="44.47545764576397" lon="11.615843951828415"><ele>24.0</ele><time>2026-04-04T13:13:52Z</time></trkpt><trkpt lat="44.47526667560704" lon="11.615797852286146"><ele>24.0</ele><time>2026-04-04T13:13:53Z</time></trkpt><trkpt lat="44.47507927296026" lon="11.61575084194245"><ele>24.0</ele><time>2026-04-04T13:13:54Z</time></trkpt><trkpt lat="44.47488884456622" lon="11.615706135468013"><ele>24.0</ele><time>2026-04-04T13:13:55Z</time></trkpt><trkpt lat="44.474703778171865" lon="11.615661981509692"><ele>24.333333333333336</ele><time>2026-04-04T13:13:56Z</time></trkpt><trkpt lat="44.474513878401176" lon="11.615619351554852"><ele>24.666666666666668</ele><time>2026-04-04T13:13:57Z</time></trkpt><trkpt lat="44.4743244170121" lon="11.615576267547215"><ele>25.0</ele><time>2026-04-04T13:13:58Z</time></trkpt><trkpt lat="44.474132582526224" lon="11.61553210953362"><ele>25.0</ele><time>2026-04-04T13:13:59Z</time></trkpt><trkpt lat="44.473939336437624" lon="11.61548433442012"><ele>25.0</ele><time>2026-04-04T13:14:00Z</time></trkpt><trkpt lat="44.473729676053274" lon="11.615438696877188"><ele>25.0</ele><time>2026-04-04T13:14:01Z</time></trkpt><trkpt lat="44.473524984067495" lon="11.615391551824683"><ele>25.0</ele><time>2026-04-04T13:14:02Z</time></trkpt><trkpt lat="44.47331966717351" lon="11.615347082822003"><ele>25.0</ele><time>2026-04-04T13:14:03Z</time></trkpt><trkpt lat="44.47311238954921" lon="11.615314205696752"><ele>25.0</ele><time>2026-04-04T13:14:04Z</time></trkpt><trkpt lat="44.47290102540437" lon="11.615295873435864"><ele>25.333333333333336</ele><time>2026-04-04T13:14:05Z</time></trkpt><trkpt lat="44.47269380367117" lon="11.615292801444419"><ele>25.666666666666664</ele><time>2026-04-04T13:14:06Z</time></trkpt><trkpt lat="44.47248592625178" lon="11.615296532412515"><ele>26.0</ele><time>2026-04-04T13:14:07Z</time></trkpt><trkpt lat="44.47228067107867" lon="11.615314174116909"><ele>26.0</ele><time>2026-04-04T13:14:08Z</time></trkpt><trkpt lat="44.472080187430755" lon="11.615333841599842"><ele>26.0</ele><time>2026-04-04T13:14:09Z</time></trkpt><trkpt lat="44.47188233894274" lon="11.615362910684976"><ele>26.0</ele><time>2026-04-04T13:14:10Z</time></trkpt><trkpt lat="44.47168491365206" lon="11.615403597520356"><ele>26.0</ele><time>2026-04-04T13:14:11Z</time></trkpt><trkpt lat="44.471496296600016" lon="11.615442763983296"><ele>26.0</ele><time>2026-04-04T13:14:12Z</time></trkpt><trkpt lat="44.47130691628626" lon="11.615482513279984"><ele>26.0</ele><time>2026-04-04T13:14:13Z</time></trkpt><trkpt lat="44.47111725377823" lon="11.61552481825622"><ele>26.0</ele><time>2026-04-04T13:14:14Z</time></trkpt><trkpt lat="44.470926649208266" lon="11.615565121615184"><ele>26.0</ele><time>2026-04-04T13:14:15Z</time></trkpt><trkpt lat="44.4707313170682" lon="11.615602295204935"><ele>26.0</ele><time>2026-04-04T13:14:16Z</time></trkpt><trkpt lat="44.47053470944503" lon="11.615636723312244"><ele>26.333333333333332</ele><time>2026-04-04T13:14:17Z</time></trkpt><trkpt lat="44.47034103148701" lon="11.615674764369935"><ele>26.666666666666664</ele><time>2026-04-04T13:14:18Z</time></trkpt><trkpt lat="44.4701441833902" lon="11.615713533230341"><ele>27.0</ele><time>2026-04-04T13:14:19Z</time></trkpt><trkpt lat="44.46994371343406" lon="11.615751755787887"><ele>27.0</ele><time>2026-04-04T13:14:20Z</time></trkpt><trkpt lat="44.46974786772236" lon="11.615791794443158"><ele>27.0</ele><time>2026-04-04T13:14:21Z</time></trkpt><trkpt lat="44.46955255117352" lon="11.615835744960162"><ele>27.0</ele><time>2026-04-04T13:14:22Z</time></trkpt><trkpt lat="44.46936857938618" lon="11.615874883642997"><ele>27.333333333333336</ele><time>2026-04-04T13:14:23Z</time></trkpt><trkpt lat="44.46918194408912" lon="11.615910102082365"><ele>27.666666666666668</ele><time>2026-04-04T13:14:24Z</time></trkpt><trkpt lat="44.46899571385996" lon="11.615942770966095"><ele>28.0</ele><time>2026-04-04T13:14:25Z</time></trkpt><trkpt lat="44.46881242969746" lon="11.61597509546405"><ele>28.0</ele><time>2026-04-04T13:14:26Z</time></trkpt><trkpt lat="44.468628143474206" lon="11.616011115712322"><ele>28.0</ele><time>2026-04-04T13:14:27Z</time></trkpt><trkpt lat="44.46844353818894" lon="11.616048308876708"><ele>28.0</ele><time>2026-04-04T13:14:28Z</time></trkpt><trkpt lat="44.46825712834936" lon="11.616084791308587"><ele>28.0</ele><time>2026-04-04T13:14:29Z</time></trkpt><trkpt lat="44.46807888705722" lon="11.616124017731526"><ele>28.0</ele><time>2026-04-04T13:14:30Z</time></trkpt><trkpt lat="44.46789724996371" lon="11.616141067356226"><ele>28.0</ele><time>2026-04-04T13:14:31Z</time></trkpt><trkpt lat="44.46772071356638" lon="11.61619572565147"><ele>28.0</ele><time>2026-04-04T13:14:32Z</time></trkpt><trkpt lat="44.46754458987465" lon="11.61622351541505"><ele>28.0</ele><time>2026-04-04T13:14:33Z</time></trkpt><trkpt lat="44.467367733153424" lon="11.616249888780395"><ele>28.0</ele><time>2026-04-04T13:14:34Z</time></trkpt><trkpt lat="44.46719917913972" lon="11.616265561486006"><ele>28.666666666666668</ele><time>2026-04-04T13:14:35Z</time></trkpt><trkpt lat="44.467028789161176" lon="11.616272726362252"><ele>29.333333333333336</ele><time>2026-04-04T13:14:36Z</time></trkpt><trkpt lat="44.46686190614994" lon="11.616266914444537"><ele>30.0</ele><time>2026-04-04T13:14:37Z</time></trkpt><trkpt lat="44.4666839381495" lon="11.616249049210223"><ele>30.0</ele><time>2026-04-04T13:14:38Z</time></trkpt><trkpt lat="44.46651235570548" lon="11.616223810354716"><ele>30.0</ele><time>2026-04-04T13:14:39Z</time></trkpt><trkpt lat="44.466335797920564" lon="11.616181807951865"><ele>30.0</ele><time>2026-04-04T13:14:40Z</time></trkpt><trkpt lat="44.46616616605761" lon="11.6161268035833"><ele>29.666666666666664</ele><time>2026-04-04T13:14:41Z</time></trkpt><trkpt lat="44.46600058433834" lon="11.616060611561036"><ele>29.333333333333332</ele><time>2026-04-04T13:14:42Z</time></trkpt><trkpt lat="44.46583604853728" lon="11.615983624559508"><ele>29.0</ele><time>2026-04-04T13:14:43Z</time></trkpt><trkpt lat="44.46567855116077" lon="11.615892624343406"><ele>29.0</ele><time>2026-04-04T13:14:44Z</time></trkpt><trkpt lat="44.4655255998573" lon="11.615790916471278"><ele>29.0</ele><time>2026-04-04T13:14:45Z</time></trkpt><trkpt lat="44.465378422131266" lon="11.615682119261841"><ele>29.0</ele><time>2026-04-04T13:14:46Z</time></trkpt><trkpt lat="44.46524027759582" lon="11.615571465395918"><ele>29.0</ele><time>2026-04-04T13:14:47Z</time></trkpt><trkpt lat="44.46510810229975" lon="11.6154631297587"><ele>29.0</ele><time>2026-04-04T13:14:48Z</time></trkpt><trkpt lat="44.46498453969608" lon="11.61535846709114"><ele>29.0</ele><time>2026-04-04T13:14:49Z</time></trkpt><trkpt lat="44.46485937714835" lon="11.61524894954806"><ele>29.0</ele><time>2026-04-04T13:14:50Z</time></trkpt><trkpt lat="44.464728359721335" lon="11.615131451712568"><ele>29.666666666666664</ele><time>2026-04-04T13:14:51Z</time></trkpt><trkpt lat="44.464595042756244" lon="11.615010836144867"><ele>30.333333333333336</ele><time>2026-04-04T13:14:52Z</time></trkpt><trkpt lat="44.46445846529667" lon="11.614892644394292"><ele>31.0</ele><time>2026-04-04T13:14:53Z</time></trkpt><trkpt lat="44.4643220198658" lon="11.614770353578354"><ele>31.0</ele><time>2026-04-04T13:14:53.999Z</time></trkpt><trkpt lat="44.464186213106" lon="11.614648525832798"><ele>31.0</ele><time>2026-04-04T13:14:54.999Z</time></trkpt><trkpt lat="44.46403659323934" lon="11.614520383199126"><ele>31.0</ele><time>2026-04-04T13:14:55.999Z</time></trkpt><trkpt lat="44.46388258033724" lon="11.614386427139967"><ele>31.0</ele><time>2026-04-04T13:14:56.999Z</time></trkpt><trkpt lat="44.46372612961376" lon="11.614249587957708"><ele>31.0</ele><time>2026-04-04T13:14:57.999Z</time></trkpt><trkpt lat="44.46356489430832" lon="11.614107903014746"><ele>31.0</ele><time>2026-04-04T13:14:58.999Z</time></trkpt><trkpt lat="44.46340581207549" lon="11.613966250327284"><ele>31.0</ele><time>2026-04-04T13:14:59.999Z</time></trkpt><trkpt lat="44.46324288915603" lon="11.61382538528585"><ele>31.0</ele><time>2026-04-04T13:15:00.999Z</time></trkpt><trkpt lat="44.46308000141756" lon="11.613687178166932"><ele>31.0</ele><time>2026-04-04T13:15:01.999Z</time></trkpt><trkpt lat="44.46291779166189" lon="11.613549219198765"><ele>30.666666666666668</ele><time>2026-04-04T13:15:02.999Z</time></trkpt><trkpt lat="44.46275539805254" lon="11.613406861214724"><ele>30.333333333333336</ele><time>2026-04-04T13:15:03.999Z</time></trkpt><trkpt lat="44.46259507341915" lon="11.613265703767944"><ele>30.0</ele><time>2026-04-04T13:15:04.999Z</time></trkpt><trkpt lat="44.462439898262126" lon="11.613128356406891"><ele>30.0</ele><time>2026-04-04T13:15:05.999Z</time></trkpt><trkpt lat="44.46228669403922" lon="11.612994028806076"><ele>30.0</ele><time>2026-04-04T13:15:06.999Z</time></trkpt><trkpt lat="44.46213164443139" lon="11.612858334680855"><ele>30.0</ele><time>2026-04-04T13:15:07.999Z</time></trkpt><trkpt lat="44.461973752716865" lon="11.612720078824147"><ele>31.0</ele><time>2026-04-04T13:15:08.999Z</time></trkpt><trkpt lat="44.461820548783315" lon="11.61255780147117"><ele>32.0</ele><time>2026-04-04T13:15:09.999Z</time></trkpt><trkpt lat="44.46165613907594" lon="11.612411631114803"><ele>33.0</ele><time>2026-04-04T13:15:10.999Z</time></trkpt><trkpt lat="44.46149251358115" lon="11.612266238725649"><ele>33.0</ele><time>2026-04-04T13:15:11.999Z</time></trkpt><trkpt lat="44.461309184250844" lon="11.612103338127614"><ele>33.0</ele><time>2026-04-04T13:15:12.999Z</time></trkpt><trkpt lat="44.461106309144476" lon="11.611924344645413"><ele>32.0</ele><time>2026-04-04T13:15:13.999Z</time></trkpt><trkpt lat="44.460891890261706" lon="11.611736746143778"><ele>31.0</ele><time>2026-04-04T13:15:14.999Z</time></trkpt><trkpt lat="44.46068494446467" lon="11.611556217429202"><ele>31.0</ele><time>2026-04-04T13:15:15.999Z</time></trkpt><trkpt lat="44.460492208158925" lon="11.611389083210208"><ele>31.0</ele><time>2026-04-04T13:15:16.999Z</time></trkpt><trkpt lat="44.46029541601567" lon="11.611218431951805"><ele>31.666666666666668</ele><time>2026-04-04T13:15:18Z</time></trkpt><trkpt lat="44.460098657211105" lon="11.61108020423944"><ele>32.333333333333336</ele><time>2026-04-04T13:15:19Z</time></trkpt><trkpt lat="44.45991510431195" lon="11.610932414573542"><ele>33.0</ele><time>2026-04-04T13:15:20Z</time></trkpt><trkpt lat="44.459729692248466" lon="11.610791982211337"><ele>33.0</ele><time>2026-04-04T13:15:21Z</time></trkpt><trkpt lat="44.45954787191683" lon="11.61065693246442"><ele>33.0</ele><time>2026-04-04T13:15:22Z</time></trkpt><trkpt lat="44.45937171596823" lon="11.610521180237065"><ele>33.0</ele><time>2026-04-04T13:15:23Z</time></trkpt><trkpt lat="44.459194808899085" lon="11.610386976601465"><ele>33.0</ele><time>2026-04-04T13:15:24Z</time></trkpt><trkpt lat="44.45901696474104" lon="11.610253876184176"><ele>33.0</ele><time>2026-04-04T13:15:25Z</time></trkpt><trkpt lat="44.458836841680956" lon="11.610119956086745"><ele>33.0</ele><time>2026-04-04T13:15:26Z</time></trkpt><trkpt lat="44.45865842811549" lon="11.609986324170034"><ele>33.0</ele><time>2026-04-04T13:15:27Z</time></trkpt><trkpt lat="44.45848840192981" lon="11.609855194661035"><ele>33.0</ele><time>2026-04-04T13:15:28Z</time></trkpt><trkpt lat="44.45830999532413" lon="11.609719359668821"><ele>33.0</ele><time>2026-04-04T13:15:29Z</time></trkpt><trkpt lat="44.4581331453582" lon="11.609583766686159"><ele>33.333333333333336</ele><time>2026-04-04T13:15:30Z</time></trkpt><trkpt lat="44.457959415948736" lon="11.609449320135695"><ele>33.66666666666667</ele><time>2026-04-04T13:15:31Z</time></trkpt><trkpt lat="44.4577903898453" lon="11.60932242635749"><ele>34.0</ele><time>2026-04-04T13:15:32Z</time></trkpt><trkpt lat="44.457612897022344" lon="11.609193635063374"><ele>34.0</ele><time>2026-04-04T13:15:33Z</time></trkpt><trkpt lat="44.45744197660362" lon="11.609068942847273"><ele>34.0</ele><time>2026-04-04T13:15:34Z</time></trkpt><trkpt lat="44.45726648645492" lon="11.608941594527385"><ele>34.0</ele><time>2026-04-04T13:15:35Z</time></trkpt><trkpt lat="44.45709791348686" lon="11.608814832674307"><ele>34.0</ele><time>2026-04-04T13:15:36Z</time></trkpt><trkpt lat="44.456939442666915" lon="11.608693485807313"><ele>34.0</ele><time>2026-04-04T13:15:37Z</time></trkpt><trkpt lat="44.45677695411119" lon="11.608571566202166"><ele>34.0</ele><time>2026-04-04T13:15:38Z</time></trkpt><trkpt lat="44.456609250458925" lon="11.608445142035063"><ele>34.0</ele><time>2026-04-04T13:15:39Z</time></trkpt><trkpt lat="44.45644343817213" lon="11.60832137876215"><ele>34.0</ele><time>2026-04-04T13:15:40Z</time></trkpt><trkpt lat="44.456275521220206" lon="11.608194519167455"><ele>34.0</ele><time>2026-04-04T13:15:41Z</time></trkpt><trkpt lat="44.45610785915257" lon="11.60806944382757"><ele>34.0</ele><time>2026-04-04T13:15:42Z</time></trkpt><trkpt lat="44.45594750780253" lon="11.607948946128678"><ele>34.0</ele><time>2026-04-04T13:15:43Z</time></trkpt><trkpt lat="44.45578153288234" lon="11.607826786076862"><ele>34.0</ele><time>2026-04-04T13:15:44Z</time></trkpt><trkpt lat="44.45562600146615" lon="11.607707974498416"><ele>34.0</ele><time>2026-04-04T13:15:45Z</time></trkpt><trkpt lat="44.45545991689117" lon="11.607582552213"><ele>34.0</ele><time>2026-04-04T13:15:46Z</time></trkpt><trkpt lat="44.45529729934646" lon="11.607461903364523"><ele>34.0</ele><time>2026-04-04T13:15:47Z</time></trkpt><trkpt lat="44.455131362152486" lon="11.607336897134486"><ele>34.333333333333336</ele><time>2026-04-04T13:15:48Z</time></trkpt><trkpt lat="44.454975213440065" lon="11.607219840501946"><ele>34.666666666666664</ele><time>2026-04-04T13:15:49Z</time></trkpt><trkpt lat="44.454812405638116" lon="11.607096540614734"><ele>35.0</ele><time>2026-04-04T13:15:50Z</time></trkpt><trkpt lat="44.45464408987897" lon="11.606974966950448"><ele>35.666666666666664</ele><time>2026-04-04T13:15:51Z</time></trkpt><trkpt lat="44.45447246848174" lon="11.606856853438027"><ele>36.333333333333336</ele><time>2026-04-04T13:15:52Z</time></trkpt><trkpt lat="44.454295975673446" lon="11.606740951578095"><ele>37.0</ele><time>2026-04-04T13:15:53Z</time></trkpt><trkpt lat="44.454107147183315" lon="11.606622284307276"><ele>37.0</ele><time>2026-04-04T13:15:54Z</time></trkpt><trkpt lat="44.45393098389034" lon="11.60651470569329"><ele>37.0</ele><time>2026-04-04T13:15:55Z</time></trkpt><trkpt lat="44.453747418882536" lon="11.606410152243752"><ele>37.0</ele><time>2026-04-04T13:15:56Z</time></trkpt><trkpt lat="44.453561741581986" lon="11.60632027777453"><ele>37.0</ele><time>2026-04-04T13:15:57Z</time></trkpt><trkpt lat="44.453373799179786" lon="11.60624025019479"><ele>37.0</ele><time>2026-04-04T13:15:58Z</time></trkpt><trkpt lat="44.45318183092956" lon="11.606169636996349"><ele>37.0</ele><time>2026-04-04T13:15:59Z</time></trkpt><trkpt lat="44.45299573579937" lon="11.606109515051601"><ele>36.333333333333336</ele><time>2026-04-04T13:16:00Z</time></trkpt><trkpt lat="44.45280331790816" lon="11.606054582892154"><ele>35.666666666666664</ele><time>2026-04-04T13:16:01Z</time></trkpt><trkpt lat="44.45260735291367" lon="11.606005088165228"><ele>35.0</ele><time>2026-04-04T13:16:02Z</time></trkpt><trkpt lat="44.452412340692376" lon="11.605970174652862"><ele>35.0</ele><time>2026-04-04T13:16:03Z</time></trkpt><trkpt lat="44.45221623525401" lon="11.60594713712212"><ele>35.0</ele><time>2026-04-04T13:16:04Z</time></trkpt><trkpt lat="44.45202267504887" lon="11.605926457668042"><ele>35.0</ele><time>2026-04-04T13:16:05Z</time></trkpt><trkpt lat="44.45182801138812" lon="11.605924808436933"><ele>35.0</ele><time>2026-04-04T13:16:06Z</time></trkpt><trkpt lat="44.451629672377344" lon="11.605938115094585"><ele>35.0</ele><time>2026-04-04T13:16:07Z</time></trkpt><trkpt lat="44.4514354216517" lon="11.605958100867507"><ele>35.0</ele><time>2026-04-04T13:16:08Z</time></trkpt><trkpt lat="44.45124789109339" lon="11.605986503181942"><ele>35.0</ele><time>2026-04-04T13:16:09Z</time></trkpt><trkpt lat="44.4510549891419" lon="11.606016074595178"><ele>35.0</ele><time>2026-04-04T13:16:10Z</time></trkpt><trkpt lat="44.450871582957255" lon="11.606047637050086"><ele>35.0</ele><time>2026-04-04T13:16:11Z</time></trkpt><trkpt lat="44.45067876427001" lon="11.606085717187748"><ele>35.0</ele><time>2026-04-04T13:16:12Z</time></trkpt><trkpt lat="44.45047687425502" lon="11.606131203028912"><ele>35.0</ele><time>2026-04-04T13:16:13Z</time></trkpt><trkpt lat="44.45027663948083" lon="11.606175148184144"><ele>35.0</ele><time>2026-04-04T13:16:14Z</time></trkpt><trkpt lat="44.45008205793589" lon="11.606211620052246"><ele>36.0</ele><time>2026-04-04T13:16:15Z</time></trkpt><trkpt lat="44.4498789999337" lon="11.60624664985968"><ele>37.0</ele><time>2026-04-04T13:16:16Z</time></trkpt><trkpt lat="44.4496799745158" lon="11.606283945460394"><ele>38.0</ele><time>2026-04-04T13:16:17Z</time></trkpt><trkpt lat="44.449504303608045" lon="11.60633417497014"><ele>38.33333333333333</ele><time>2026-04-04T13:16:18Z</time></trkpt><trkpt lat="44.4493120084551" lon="11.606368528177583"><ele>38.666666666666664</ele><time>2026-04-04T13:16:19Z</time></trkpt><trkpt lat="44.44912717830782" lon="11.606408266883394"><ele>39.0</ele><time>2026-04-04T13:16:20Z</time></trkpt><trkpt lat="44.448940039491625" lon="11.606446680364424"><ele>38.666666666666664</ele><time>2026-04-04T13:16:21Z</time></trkpt><trkpt lat="44.44876142934195" lon="11.606485834426934"><ele>38.33333333333333</ele><time>2026-04-04T13:16:22Z</time></trkpt><trkpt lat="44.44857617758387" lon="11.606528730161184"><ele>38.0</ele><time>2026-04-04T13:16:23Z</time></trkpt><trkpt lat="44.44839395917853" lon="11.606569509532727"><ele>38.0</ele><time>2026-04-04T13:16:24Z</time></trkpt><trkpt lat="44.44820421182729" lon="11.60660772329562"><ele>38.0</ele><time>2026-04-04T13:16:25Z</time></trkpt><trkpt lat="44.44802223334266" lon="11.60664416616298"><ele>38.0</ele><time>2026-04-04T13:16:26Z</time></trkpt><trkpt lat="44.447838842907906" lon="11.606679276956756"><ele>38.33333333333333</ele><time>2026-04-04T13:16:27Z</time></trkpt><trkpt lat="44.44765481161973" lon="11.606720752228977"><ele>38.666666666666664</ele><time>2026-04-04T13:16:28Z</time></trkpt><trkpt lat="44.44746705606676" lon="11.606764753172191"><ele>39.0</ele><time>2026-04-04T13:16:29Z</time></trkpt><trkpt lat="44.447286737721555" lon="11.606802153491007"><ele>39.0</ele><time>2026-04-04T13:16:30Z</time></trkpt><trkpt lat="44.44709635721344" lon="11.606840724996818"><ele>39.0</ele><time>2026-04-04T13:16:31Z</time></trkpt><trkpt lat="44.446910771582104" lon="11.6068813545476"><ele>39.0</ele><time>2026-04-04T13:16:32Z</time></trkpt><trkpt lat="44.446738018394704" lon="11.606920923411975"><ele>39.0</ele><time>2026-04-04T13:16:33Z</time></trkpt><trkpt lat="44.44655159597881" lon="11.606960918035556"><ele>39.0</ele><time>2026-04-04T13:16:34Z</time></trkpt><trkpt lat="44.44636784274455" lon="11.607000456017321"><ele>39.0</ele><time>2026-04-04T13:16:35Z</time></trkpt><trkpt lat="44.4461944855752" lon="11.607036196648151"><ele>39.0</ele><time>2026-04-04T13:16:36Z</time></trkpt><trkpt lat="44.44601255984622" lon="11.607074661719919"><ele>39.0</ele><time>2026-04-04T13:16:37Z</time></trkpt><trkpt lat="44.445832284306256" lon="11.607114669770803"><ele>39.0</ele><time>2026-04-04T13:16:38Z</time></trkpt><trkpt lat="44.445643938900616" lon="11.607155982149708"><ele>39.666666666666664</ele><time>2026-04-04T13:16:39Z</time></trkpt><trkpt lat="44.44545766197715" lon="11.60719710384153"><ele>40.33333333333333</ele><time>2026-04-04T13:16:40Z</time></trkpt><trkpt lat="44.44527193652663" lon="11.607239492267473"><ele>41.0</ele><time>2026-04-04T13:16:41Z</time></trkpt><trkpt lat="44.44508584727931" lon="11.60727922359063"><ele>41.0</ele><time>2026-04-04T13:16:42Z</time></trkpt><trkpt lat="44.444898236221455" lon="11.607319841296494"><ele>41.0</ele><time>2026-04-04T13:16:43Z</time></trkpt><trkpt lat="44.44471632067095" lon="11.607362038888567"><ele>41.0</ele><time>2026-04-04T13:16:44Z</time></trkpt><trkpt lat="44.444531696777446" lon="11.607403429522027"><ele>40.666666666666664</ele><time>2026-04-04T13:16:45Z</time></trkpt><trkpt lat="44.44435248800607" lon="11.607441794083902"><ele>40.333333333333336</ele><time>2026-04-04T13:16:46Z</time></trkpt><trkpt lat="44.4441740517332" lon="11.607484442875753"><ele>40.0</ele><time>2026-04-04T13:16:47Z</time></trkpt><trkpt lat="44.444000060087625" lon="11.60752567504875"><ele>40.0</ele><time>2026-04-04T13:16:48Z</time></trkpt><trkpt lat="44.44382390074208" lon="11.607564036610349"><ele>40.0</ele><time>2026-04-04T13:16:49Z</time></trkpt><trkpt lat="44.44364406235414" lon="11.6076005437466"><ele>40.0</ele><time>2026-04-04T13:16:50Z</time></trkpt><trkpt lat="44.44346742018171" lon="11.607633630157322"><ele>40.333333333333336</ele><time>2026-04-04T13:16:51Z</time></trkpt><trkpt lat="44.44329257755958" lon="11.607652807265879"><ele>40.666666666666664</ele><time>2026-04-04T13:16:52Z</time></trkpt><trkpt lat="44.44311248883247" lon="11.607660039339216"><ele>41.0</ele><time>2026-04-04T13:16:53Z</time></trkpt><trkpt lat="44.44293227149501" lon="11.607647085004709"><ele>41.0</ele><time>2026-04-04T13:16:54Z</time></trkpt><trkpt lat="44.442757318998694" lon="11.607617912241679"><ele>41.0</ele><time>2026-04-04T13:16:55Z</time></trkpt><trkpt lat="44.44258471879087" lon="11.607570997635742"><ele>41.0</ele><time>2026-04-04T13:16:56Z</time></trkpt><trkpt lat="44.44241684475066" lon="11.607513241018474"><ele>41.0</ele><time>2026-04-04T13:16:57Z</time></trkpt><trkpt lat="44.44225140136871" lon="11.60744102927419"><ele>41.0</ele><time>2026-04-04T13:16:58Z</time></trkpt><trkpt lat="44.44208350056405" lon="11.607360415943049"><ele>41.0</ele><time>2026-04-04T13:16:59Z</time></trkpt><trkpt lat="44.44191668288682" lon="11.607269500591135"><ele>41.0</ele><time>2026-04-04T13:16:59.999Z</time></trkpt><trkpt lat="44.441751397580674" lon="11.607165642441405"><ele>41.0</ele><time>2026-04-04T13:17:00.999Z</time></trkpt><trkpt lat="44.44159411824656" lon="11.607065866757512"><ele>41.0</ele><time>2026-04-04T13:17:01.999Z</time></trkpt><trkpt lat="44.44143911218035" lon="11.606965797262493"><ele>41.0</ele><time>2026-04-04T13:17:02.999Z</time></trkpt><trkpt lat="44.44128319359991" lon="11.606861309561458"><ele>41.0</ele><time>2026-04-04T13:17:03.999Z</time></trkpt><trkpt lat="44.4411290717756" lon="11.606759997635123"><ele>41.0</ele><time>2026-04-04T13:17:04.999Z</time></trkpt><trkpt lat="44.44097249351504" lon="11.606659146321611"><ele>41.0</ele><time>2026-04-04T13:17:05.999Z</time></trkpt><trkpt lat="44.440824693692825" lon="11.606567424309727"><ele>41.0</ele><time>2026-04-04T13:17:06.999Z</time></trkpt><trkpt lat="44.44066883780903" lon="11.60648365783626"><ele>41.0</ele><time>2026-04-04T13:17:07.999Z</time></trkpt><trkpt lat="44.440511880796926" lon="11.606411515767379"><ele>41.33333333333333</ele><time>2026-04-04T13:17:08.999Z</time></trkpt><trkpt lat="44.44034455421186" lon="11.606354963361884"><ele>41.666666666666664</ele><time>2026-04-04T13:17:09.999Z</time></trkpt><trkpt lat="44.44016688606816" lon="11.606319887230143"><ele>42.0</ele><time>2026-04-04T13:17:10.999Z</time></trkpt><trkpt lat="44.43998176761658" lon="11.606302158234557"><ele>42.0</ele><time>2026-04-04T13:17:11.999Z</time></trkpt><trkpt lat="44.439789068460094" lon="11.606275901070726"><ele>42.0</ele><time>2026-04-04T13:17:12.999Z</time></trkpt><trkpt lat="44.43959453574805" lon="11.606305992855772"><ele>42.0</ele><time>2026-04-04T13:17:13.999Z</time></trkpt><trkpt lat="44.43940646331394" lon="11.606319479180572"><ele>42.0</ele><time>2026-04-04T13:17:14.999Z</time></trkpt><trkpt lat="44.439218353388064" lon="11.606341492365644"><ele>42.0</ele><time>2026-04-04T13:17:15.999Z</time></trkpt><trkpt lat="44.439032561219314" lon="11.606341498927435"><ele>42.0</ele><time>2026-04-04T13:17:16.999Z</time></trkpt><trkpt lat="44.43884830300485" lon="11.606360171609177"><ele>42.666666666666664</ele><time>2026-04-04T13:17:17.999Z</time></trkpt><trkpt lat="44.43866585613292" lon="11.606398715114848"><ele>43.33333333333333</ele><time>2026-04-04T13:17:18.999Z</time></trkpt><trkpt lat="44.4384851775066" lon="11.606416844283638"><ele>44.0</ele><time>2026-04-04T13:17:19.999Z</time></trkpt><trkpt lat="44.43830373386428" lon="11.606414026965014"><ele>44.0</ele><time>2026-04-04T13:17:21Z</time></trkpt><trkpt lat="44.43812872404051" lon="11.606453297316078"><ele>44.0</ele><time>2026-04-04T13:17:22Z</time></trkpt><trkpt lat="44.43795001653974" lon="11.60644776210196"><ele>44.0</ele><time>2026-04-04T13:17:23Z</time></trkpt><trkpt lat="44.437787639199215" lon="11.606462785744952"><ele>44.0</ele><time>2026-04-04T13:17:24Z</time></trkpt><trkpt lat="44.437636469074256" lon="11.606498859631122"><ele>44.0</ele><time>2026-04-04T13:17:25Z</time></trkpt><trkpt lat="44.43746913857329" lon="11.60651300496635"><ele>44.0</ele><time>2026-04-04T13:17:26Z</time></trkpt><trkpt lat="44.437295818607836" lon="11.606527447013772"><ele>44.33333333333333</ele><time>2026-04-04T13:17:27Z</time></trkpt><trkpt lat="44.43712618968812" lon="11.606547088613285"><ele>44.666666666666664</ele><time>2026-04-04T13:17:28Z</time></trkpt><trkpt lat="44.436947469329965" lon="11.6065623746422"><ele>45.0</ele><time>2026-04-04T13:17:29Z</time></trkpt><trkpt lat="44.43676390626704" lon="11.60657723599539"><ele>45.0</ele><time>2026-04-04T13:17:30Z</time></trkpt><trkpt lat="44.43658468660815" lon="11.606587474002634"><ele>45.0</ele><time>2026-04-04T13:17:31Z</time></trkpt><trkpt lat="44.4364035612573" lon="11.60658476187808"><ele>45.0</ele><time>2026-04-04T13:17:32Z</time></trkpt><trkpt lat="44.43621928270315" lon="11.606559021521512"><ele>45.0</ele><time>2026-04-04T13:17:33Z</time></trkpt><trkpt lat="44.43603029136062" lon="11.606516535133483"><ele>45.0</ele><time>2026-04-04T13:17:34Z</time></trkpt><trkpt lat="44.43585346096392" lon="11.606450084048207"><ele>45.0</ele><time>2026-04-04T13:17:35Z</time></trkpt><trkpt lat="44.435667179884874" lon="11.606368723847563"><ele>45.0</ele><time>2026-04-04T13:17:36Z</time></trkpt><trkpt lat="44.43548523544758" lon="11.606274407912318"><ele>45.0</ele><time>2026-04-04T13:17:37Z</time></trkpt><trkpt lat="44.435299052688514" lon="11.606165810325498"><ele>45.0</ele><time>2026-04-04T13:17:38Z</time></trkpt><trkpt lat="44.43511571368781" lon="11.60605390844462"><ele>45.333333333333336</ele><time>2026-04-04T13:17:39Z</time></trkpt><trkpt lat="44.43493528228985" lon="11.605941359936804"><ele>45.66666666666667</ele><time>2026-04-04T13:17:40Z</time></trkpt><trkpt lat="44.43474752788541" lon="11.605827882216273"><ele>46.0</ele><time>2026-04-04T13:17:41Z</time></trkpt><trkpt lat="44.4345560344536" lon="11.60571420483252"><ele>46.0</ele><time>2026-04-04T13:17:42Z</time></trkpt><trkpt lat="44.434371502229844" lon="11.605602957256941"><ele>46.0</ele><time>2026-04-04T13:17:43Z</time></trkpt><trkpt lat="44.43418809402627" lon="11.605496950300394"><ele>46.0</ele><time>2026-04-04T13:17:44Z</time></trkpt><trkpt lat="44.4340051786212" lon="11.605404108627292"><ele>46.0</ele><time>2026-04-04T13:17:45Z</time></trkpt><trkpt lat="44.433823856648125" lon="11.605331848905116"><ele>46.0</ele><time>2026-04-04T13:17:46Z</time></trkpt><trkpt lat="44.433648012633306" lon="11.60528005877257"><ele>46.0</ele><time>2026-04-04T13:17:47Z</time></trkpt><trkpt lat="44.43346671910413" lon="11.605243295929629"><ele>45.66666666666667</ele><time>2026-04-04T13:17:48Z</time></trkpt><trkpt lat="44.43328842004723" lon="11.605217854625511"><ele>45.333333333333336</ele><time>2026-04-04T13:17:49Z</time></trkpt><trkpt lat="44.43310842098835" lon="11.605194789010584"><ele>45.0</ele><time>2026-04-04T13:17:50Z</time></trkpt><trkpt lat="44.432924812132846" lon="11.605163644786444"><ele>45.0</ele><time>2026-04-04T13:17:51Z</time></trkpt><trkpt lat="44.43274512512803" lon="11.605127306903142"><ele>45.0</ele><time>2026-04-04T13:17:52Z</time></trkpt><trkpt lat="44.43256196193897" lon="11.605092719404407"><ele>45.0</ele><time>2026-04-04T13:17:53Z</time></trkpt><trkpt lat="44.432375624303376" lon="11.605060959086886"><ele>45.0</ele><time>2026-04-04T13:17:54Z</time></trkpt><trkpt lat="44.43219331056571" lon="11.605030821351274"><ele>45.0</ele><time>2026-04-04T13:17:55Z</time></trkpt><trkpt lat="44.43201047777469" lon="11.604997153795614"><ele>45.0</ele><time>2026-04-04T13:17:56Z</time></trkpt><trkpt lat="44.431831425102054" lon="11.604961473509427"><ele>44.666666666666664</ele><time>2026-04-04T13:17:57Z</time></trkpt><trkpt lat="44.431651554449736" lon="11.604923480450397"><ele>44.33333333333333</ele><time>2026-04-04T13:17:58Z</time></trkpt><trkpt lat="44.431464691339876" lon="11.6048920620058"><ele>44.0</ele><time>2026-04-04T13:17:59Z</time></trkpt><trkpt lat="44.431279026328326" lon="11.604859394580687"><ele>44.666666666666664</ele><time>2026-04-04T13:18:00Z</time></trkpt><trkpt lat="44.43108932708813" lon="11.604821499115742"><ele>45.333333333333336</ele><time>2026-04-04T13:18:01Z</time></trkpt><trkpt lat="44.43089142312856" lon="11.6047831809461"><ele>46.0</ele><time>2026-04-04T13:18:02Z</time></trkpt><trkpt lat="44.43069638474634" lon="11.604747754006317"><ele>46.0</ele><time>2026-04-04T13:18:03Z</time></trkpt><trkpt lat="44.43049198686822" lon="11.604713498981095"><ele>46.0</ele><time>2026-04-04T13:18:04Z</time></trkpt><trkpt lat="44.43028247477126" lon="11.604683250714618"><ele>46.0</ele><time>2026-04-04T13:18:05Z</time></trkpt><trkpt lat="44.43008150346667" lon="11.604658257451185"><ele>46.333333333333336</ele><time>2026-04-04T13:18:06Z</time></trkpt><trkpt lat="44.4298799023709" lon="11.604625185632237"><ele>46.666666666666664</ele><time>2026-04-04T13:18:07Z</time></trkpt><trkpt lat="44.429680001487846" lon="11.60459078214375"><ele>47.0</ele><time>2026-04-04T13:18:08Z</time></trkpt><trkpt lat="44.429475504033455" lon="11.604558670061506"><ele>47.0</ele><time>2026-04-04T13:18:09Z</time></trkpt><trkpt lat="44.42928153737967" lon="11.604523417249247"><ele>47.0</ele><time>2026-04-04T13:18:10Z</time></trkpt><trkpt lat="44.42908866392499" lon="11.604483281223365"><ele>47.0</ele><time>2026-04-04T13:18:11Z</time></trkpt><trkpt lat="44.42889383939499" lon="11.604447948223324"><ele>47.666666666666664</ele><time>2026-04-04T13:18:12Z</time></trkpt><trkpt lat="44.42871132265184" lon="11.604415845951825"><ele>48.33333333333333</ele><time>2026-04-04T13:18:13Z</time></trkpt><trkpt lat="44.42852647775433" lon="11.60437895787488"><ele>49.0</ele><time>2026-04-04T13:18:14Z</time></trkpt><trkpt lat="44.428343774103126" lon="11.604336079252974"><ele>49.0</ele><time>2026-04-04T13:18:15Z</time></trkpt><trkpt lat="44.428157895952005" lon="11.604288098156573"><ele>49.0</ele><time>2026-04-04T13:18:16Z</time></trkpt><trkpt lat="44.42797627432215" lon="11.604240556413753"><ele>49.0</ele><time>2026-04-04T13:18:17Z</time></trkpt><trkpt lat="44.42779480012081" lon="11.60418896156103"><ele>50.33333333333333</ele><time>2026-04-04T13:18:18Z</time></trkpt><trkpt lat="44.42761347710794" lon="11.604125877397834"><ele>51.66666666666667</ele><time>2026-04-04T13:18:19Z</time></trkpt><trkpt lat="44.4274445435336" lon="11.604039753963418"><ele>53.0</ele><time>2026-04-04T13:18:20Z</time></trkpt><trkpt lat="44.42727617778792" lon="11.603943135512647"><ele>53.0</ele><time>2026-04-04T13:18:21Z</time></trkpt><trkpt lat="44.42710781054168" lon="11.603841698882137"><ele>53.0</ele><time>2026-04-04T13:18:22Z</time></trkpt><trkpt lat="44.426941950404355" lon="11.603749721210354"><ele>53.0</ele><time>2026-04-04T13:18:23Z</time></trkpt><trkpt lat="44.42677377161619" lon="11.603653726121511"><ele>53.0</ele><time>2026-04-04T13:18:24Z</time></trkpt><trkpt lat="44.426603753928575" lon="11.60355418508036"><ele>53.0</ele><time>2026-04-04T13:18:25Z</time></trkpt><trkpt lat="44.42643155270353" lon="11.603455228878254"><ele>53.0</ele><time>2026-04-04T13:18:26Z</time></trkpt><trkpt lat="44.42625585606871" lon="11.60335654212189"><ele>52.333333333333336</ele><time>2026-04-04T13:18:27Z</time></trkpt><trkpt lat="44.42607324198538" lon="11.603256684868766"><ele>51.66666666666667</ele><time>2026-04-04T13:18:28Z</time></trkpt><trkpt lat="44.425885013013485" lon="11.603156381280767"><ele>51.0</ele><time>2026-04-04T13:18:29Z</time></trkpt><trkpt lat="44.42569722281267" lon="11.603054401094742"><ele>51.0</ele><time>2026-04-04T13:18:30Z</time></trkpt><trkpt lat="44.425508086139345" lon="11.602947939234864"><ele>51.0</ele><time>2026-04-04T13:18:31Z</time></trkpt><trkpt lat="44.42532469754101" lon="11.602852440626117"><ele>51.0</ele><time>2026-04-04T13:18:32Z</time></trkpt><trkpt lat="44.42513359669263" lon="11.6027505655751"><ele>51.66666666666667</ele><time>2026-04-04T13:18:33Z</time></trkpt><trkpt lat="44.4249440489666" lon="11.602644091584267"><ele>52.333333333333336</ele><time>2026-04-04T13:18:34Z</time></trkpt><trkpt lat="44.42475361952492" lon="11.602529526006279"><ele>53.0</ele><time>2026-04-04T13:18:35Z</time></trkpt><trkpt lat="44.424565639017366" lon="11.602417650654328"><ele>53.333333333333336</ele><time>2026-04-04T13:18:36Z</time></trkpt><trkpt lat="44.42438044408769" lon="11.602310170499855"><ele>53.66666666666667</ele><time>2026-04-04T13:18:37Z</time></trkpt><trkpt lat="44.424193773978" lon="11.60220262346535"><ele>54.0</ele><time>2026-04-04T13:18:38Z</time></trkpt><trkpt lat="44.42400517877633" lon="11.602094979251929"><ele>54.0</ele><time>2026-04-04T13:18:39Z</time></trkpt><trkpt lat="44.42382055939001" lon="11.601992270365772"><ele>54.0</ele><time>2026-04-04T13:18:40Z</time></trkpt><trkpt lat="44.42363910340524" lon="11.601892984806282"><ele>54.0</ele><time>2026-04-04T13:18:41Z</time></trkpt><trkpt lat="44.42345521862869" lon="11.601795015343555"><ele>53.33333333333333</ele><time>2026-04-04T13:18:42Z</time></trkpt><trkpt lat="44.423269886903604" lon="11.601695597052363"><ele>52.666666666666664</ele><time>2026-04-04T13:18:43Z</time></trkpt><trkpt lat="44.42308196759936" lon="11.601600424694315"><ele>52.0</ele><time>2026-04-04T13:18:44Z</time></trkpt><trkpt lat="44.42289110403017" lon="11.601509796861098"><ele>52.0</ele><time>2026-04-04T13:18:45Z</time></trkpt><trkpt lat="44.422700380197014" lon="11.601421929722273"><ele>52.0</ele><time>2026-04-04T13:18:46Z</time></trkpt><trkpt lat="44.42250749077615" lon="11.601329089316076"><ele>52.0</ele><time>2026-04-04T13:18:47Z</time></trkpt><trkpt lat="44.42232538737004" lon="11.601245156184977"><ele>52.0</ele><time>2026-04-04T13:18:48Z</time></trkpt><trkpt lat="44.42213832526469" lon="11.601161608398453"><ele>52.0</ele><time>2026-04-04T13:18:49Z</time></trkpt><trkpt lat="44.42194941515655" lon="11.601079508058397"><ele>52.0</ele><time>2026-04-04T13:18:50Z</time></trkpt><trkpt lat="44.4217601294443" lon="11.601000505030779"><ele>52.0</ele><time>2026-04-04T13:18:51Z</time></trkpt><trkpt lat="44.42157654883521" lon="11.6009268311038"><ele>52.0</ele><time>2026-04-04T13:18:52Z</time></trkpt><trkpt lat="44.421401230184124" lon="11.60085047497041"><ele>52.0</ele><time>2026-04-04T13:18:53Z</time></trkpt><trkpt lat="44.42122145286415" lon="11.600769853698743"><ele>53.0</ele><time>2026-04-04T13:18:54Z</time></trkpt><trkpt lat="44.42104074731126" lon="11.600684610217439"><ele>54.0</ele><time>2026-04-04T13:18:55Z</time></trkpt><trkpt lat="44.42086062610769" lon="11.600587410725458"><ele>55.0</ele><time>2026-04-04T13:18:56Z</time></trkpt><trkpt lat="44.42068682439406" lon="11.600481169780673"><ele>55.0</ele><time>2026-04-04T13:18:57Z</time></trkpt><trkpt lat="44.42051555167898" lon="11.600362200452864"><ele>55.0</ele><time>2026-04-04T13:18:58Z</time></trkpt><trkpt lat="44.42034801075981" lon="11.60023741897841"><ele>55.0</ele><time>2026-04-04T13:18:59Z</time></trkpt><trkpt lat="44.42018513937074" lon="11.600107186978784"><ele>54.33333333333333</ele><time>2026-04-04T13:19:00Z</time></trkpt><trkpt lat="44.420024864775186" lon="11.599979743111051"><ele>53.66666666666667</ele><time>2026-04-04T13:19:01Z</time></trkpt><trkpt lat="44.419861104162266" lon="11.599849554480386"><ele>53.0</ele><time>2026-04-04T13:19:02Z</time></trkpt><trkpt lat="44.419696979376305" lon="11.599722515279606"><ele>53.0</ele><time>2026-04-04T13:19:03Z</time></trkpt><trkpt lat="44.41952898893475" lon="11.599602088223563"><ele>53.0</ele><time>2026-04-04T13:19:04Z</time></trkpt><trkpt lat="44.41935865552175" lon="11.599494056289876"><ele>53.0</ele><time>2026-04-04T13:19:05Z</time></trkpt><trkpt lat="44.41918192907256" lon="11.599400017395649"><ele>53.0</ele><time>2026-04-04T13:19:05.999Z</time></trkpt><trkpt lat="44.4190068203162" lon="11.599310510307006"><ele>53.0</ele><time>2026-04-04T13:19:06.999Z</time></trkpt><trkpt lat="44.418833308708685" lon="11.599232614152614"><ele>53.0</ele><time>2026-04-04T13:19:07.999Z</time></trkpt><trkpt lat="44.41865273818953" lon="11.599158229680498"><ele>53.66666666666667</ele><time>2026-04-04T13:19:08.999Z</time></trkpt><trkpt lat="44.41846998725487" lon="11.599095312060822"><ele>54.33333333333333</ele><time>2026-04-04T13:19:09.999Z</time></trkpt><trkpt lat="44.418285001596566" lon="11.59903525947611"><ele>55.0</ele><time>2026-04-04T13:19:10.999Z</time></trkpt><trkpt lat="44.41810371645747" lon="11.598980564682993"><ele>55.666666666666664</ele><time>2026-04-04T13:19:11.999Z</time></trkpt><trkpt lat="44.41792260814068" lon="11.59892550342515"><ele>56.33333333333333</ele><time>2026-04-04T13:19:12.999Z</time></trkpt><trkpt lat="44.41774083889227" lon="11.598866667861307"><ele>57.0</ele><time>2026-04-04T13:19:13.999Z</time></trkpt><trkpt lat="44.41756715221973" lon="11.598807583721957"><ele>57.0</ele><time>2026-04-04T13:19:14.999Z</time></trkpt><trkpt lat="44.41739753249385" lon="11.598747405623968"><ele>57.0</ele><time>2026-04-04T13:19:16Z</time></trkpt><trkpt lat="44.417228879467665" lon="11.598680071713869"><ele>57.0</ele><time>2026-04-04T13:19:17Z</time></trkpt><trkpt lat="44.417067974698526" lon="11.598602408338726"><ele>57.0</ele><time>2026-04-04T13:19:18Z</time></trkpt><trkpt lat="44.41691338611089" lon="11.598512790222058"><ele>57.0</ele><time>2026-04-04T13:19:19Z</time></trkpt><trkpt lat="44.416763543710644" lon="11.598403799855033"><ele>57.0</ele><time>2026-04-04T13:19:20Z</time></trkpt><trkpt lat="44.41662694187976" lon="11.598257986648532"><ele>57.0</ele><time>2026-04-04T13:19:21Z</time></trkpt><trkpt lat="44.41649125471167" lon="11.598118131942488"><ele>57.0</ele><time>2026-04-04T13:19:22Z</time></trkpt><trkpt lat="44.41636012427331" lon="11.597964894960594"><ele>57.0</ele><time>2026-04-04T13:19:23Z</time></trkpt><trkpt lat="44.416236597710835" lon="11.597797412595733"><ele>56.0</ele><time>2026-04-04T13:19:24Z</time></trkpt><trkpt lat="44.41612822847592" lon="11.597611036464382"><ele>55.0</ele><time>2026-04-04T13:19:25Z</time></trkpt><trkpt lat="44.416015974438416" lon="11.597393402459145"><ele>54.0</ele><time>2026-04-04T13:19:26Z</time></trkpt><trkpt lat="44.41588744589612" lon="11.597151215888784"><ele>54.66666666666667</ele><time>2026-04-04T13:19:27Z</time></trkpt><trkpt lat="44.415775093579036" lon="11.596893332723065"><ele>55.333333333333336</ele><time>2026-04-04T13:19:28Z</time></trkpt><trkpt lat="44.41566198869605" lon="11.59664227009929"><ele>56.0</ele><time>2026-04-04T13:19:29Z</time></trkpt><trkpt lat="44.41554968640073" lon="11.596404963497859"><ele>55.66666666666667</ele><time>2026-04-04T13:19:30Z</time></trkpt><trkpt lat="44.41544146523531" lon="11.596182708806133"><ele>55.33333333333333</ele><time>2026-04-04T13:19:31Z</time></trkpt><trkpt lat="44.41533996520299" lon="11.595979117899278"><ele>55.0</ele><time>2026-04-04T13:19:32Z</time></trkpt><trkpt lat="44.41523503803481" lon="11.595776004098301"><ele>55.0</ele><time>2026-04-04T13:19:33Z</time></trkpt><trkpt lat="44.41513240469693" lon="11.595587422404757"><ele>55.0</ele><time>2026-04-04T13:19:34Z</time></trkpt><trkpt lat="44.41503285077836" lon="11.595412865079947"><ele>55.0</ele><time>2026-04-04T13:19:35Z</time></trkpt><trkpt lat="44.41493107181128" lon="11.595243060789192"><ele>55.0</ele><time>2026-04-04T13:19:36Z</time></trkpt><trkpt lat="44.41482772039098" lon="11.595076549966194"><ele>55.0</ele><time>2026-04-04T13:19:37Z</time></trkpt><trkpt lat="44.414715709117104" lon="11.594906200983223"><ele>55.0</ele><time>2026-04-04T13:19:38Z</time></trkpt><trkpt lat="44.41460436829568" lon="11.594743487047102"><ele>56.0</ele><time>2026-04-04T13:19:39Z</time></trkpt><trkpt lat="44.414488180852395" lon="11.594577943254905"><ele>57.0</ele><time>2026-04-04T13:19:40Z</time></trkpt><trkpt lat="44.4143725148315" lon="11.594408893792655"><ele>58.0</ele><time>2026-04-04T13:19:41Z</time></trkpt><trkpt lat="44.41425117500087" lon="11.594237011863752"><ele>58.0</ele><time>2026-04-04T13:19:42Z</time></trkpt><trkpt lat="44.41412966994619" lon="11.59406829265748"><ele>58.0</ele><time>2026-04-04T13:19:43Z</time></trkpt><trkpt lat="44.414017165663" lon="11.593912635422399"><ele>58.0</ele><time>2026-04-04T13:19:44Z</time></trkpt><trkpt lat="44.413910843213294" lon="11.593763186152438"><ele>57.33333333333333</ele><time>2026-04-04T13:19:45Z</time></trkpt><trkpt lat="44.413800271878166" lon="11.593607111445959"><ele>56.66666666666667</ele><time>2026-04-04T13:19:46Z</time></trkpt><trkpt lat="44.413694736183615" lon="11.593460684882846"><ele>56.0</ele><time>2026-04-04T13:19:47Z</time></trkpt><trkpt lat="44.41359172906306" lon="11.593315722274065"><ele>56.0</ele><time>2026-04-04T13:19:48Z</time></trkpt><trkpt lat="44.4134844235492" lon="11.593161208097793"><ele>56.0</ele><time>2026-04-04T13:19:49Z</time></trkpt><trkpt lat="44.41337617520204" lon="11.59300567185682"><ele>56.0</ele><time>2026-04-04T13:19:50Z</time></trkpt><trkpt lat="44.413264898239824" lon="11.592851995199917"><ele>56.0</ele><time>2026-04-04T13:19:51Z</time></trkpt><trkpt lat="44.41316395544392" lon="11.592709959514325"><ele>56.0</ele><time>2026-04-04T13:19:52Z</time></trkpt><trkpt lat="44.41305975374849" lon="11.592565523620337"><ele>56.0</ele><time>2026-04-04T13:19:53Z</time></trkpt><trkpt lat="44.41295475337819" lon="11.592420144352461"><ele>56.0</ele><time>2026-04-04T13:19:54Z</time></trkpt><trkpt lat="44.41285596149786" lon="11.592289612765523"><ele>56.0</ele><time>2026-04-04T13:19:55Z</time></trkpt><trkpt lat="44.41275908848599" lon="11.592153998904278"><ele>56.0</ele><time>2026-04-04T13:19:56Z</time></trkpt><trkpt lat="44.41266047724552" lon="11.592018876724158"><ele>56.0</ele><time>2026-04-04T13:19:57Z</time></trkpt><trkpt lat="44.412565316214696" lon="11.591875937973482"><ele>56.0</ele><time>2026-04-04T13:19:58Z</time></trkpt><trkpt lat="44.41247169298435" lon="11.591742759315029"><ele>56.5</ele><time>2026-04-04T13:19:59Z</time></trkpt><trkpt lat="44.412375465670365" lon="11.591598339165673"><ele>57.0</ele><time>2026-04-04T13:20:00Z</time></trkpt><trkpt lat="44.412272574015034" lon="11.591453930375447"><ele>57.5</ele><time>2026-04-04T13:20:01Z</time></trkpt><trkpt lat="44.41217465919836" lon="11.591316759896804"><ele>58.0</ele><time>2026-04-04T13:20:02Z</time></trkpt><trkpt lat="44.412073857344275" lon="11.591179023337277"><ele>58.33333333333333</ele><time>2026-04-04T13:20:03Z</time></trkpt><trkpt lat="44.411969978260394" lon="11.591034252194332"><ele>58.66666666666667</ele><time>2026-04-04T13:20:04Z</time></trkpt><trkpt lat="44.41185931201519" lon="11.590884546575351"><ele>59.0</ele><time>2026-04-04T13:20:05Z</time></trkpt><trkpt lat="44.41173870821374" lon="11.590735761145602"><ele>59.0</ele><time>2026-04-04T13:20:06Z</time></trkpt><trkpt lat="44.411618025484856" lon="11.59060960608876"><ele>59.0</ele><time>2026-04-04T13:20:07Z</time></trkpt><trkpt lat="44.41148967745527" lon="11.590511798100247"><ele>59.0</ele><time>2026-04-04T13:20:08Z</time></trkpt><trkpt lat="44.41135920464092" lon="11.590416054011778"><ele>59.0</ele><time>2026-04-04T13:20:09Z</time></trkpt><trkpt lat="44.4112272562565" lon="11.590316418768582"><ele>58.75</ele><time>2026-04-04T13:20:10Z</time></trkpt><trkpt lat="44.41109854277172" lon="11.590205552946713"><ele>58.5</ele><time>2026-04-04T13:20:11Z</time></trkpt><trkpt lat="44.41096729895854" lon="11.590104664786736"><ele>58.25</ele><time>2026-04-04T13:20:12Z</time></trkpt><trkpt lat="44.410840571290066" lon="11.59001324719274"><ele>58.0</ele><time>2026-04-04T13:20:13Z</time></trkpt><trkpt lat="44.410725099491195" lon="11.589927921520962"><ele>58.0</ele><time>2026-04-04T13:20:14Z</time></trkpt><trkpt lat="44.41061387810448" lon="11.589840979742414"><ele>58.0</ele><time>2026-04-04T13:20:15Z</time></trkpt><trkpt lat="44.41050707135523" lon="11.589750653313384"><ele>58.0</ele><time>2026-04-04T13:20:16Z</time></trkpt><trkpt lat="44.41039855522609" lon="11.58967233244374"><ele>58.0</ele><time>2026-04-04T13:20:17Z</time></trkpt><trkpt lat="44.410296561574874" lon="11.589595755824405"><ele>58.0</ele><time>2026-04-04T13:20:18Z</time></trkpt><trkpt lat="44.41019975262564" lon="11.589520707328129"><ele>58.0</ele><time>2026-04-04T13:20:19Z</time></trkpt><trkpt lat="44.41009259442564" lon="11.589438761915197"><ele>58.0</ele><time>2026-04-04T13:20:20Z</time></trkpt><trkpt lat="44.40998003609851" lon="11.589353685872553"><ele>58.0</ele><time>2026-04-04T13:20:21Z</time></trkpt><trkpt lat="44.409864918547434" lon="11.589271981045707"><ele>58.0</ele><time>2026-04-04T13:20:22Z</time></trkpt><trkpt lat="44.40975168130314" lon="11.589198566700258"><ele>58.0</ele><time>2026-04-04T13:20:23Z</time></trkpt><trkpt lat="44.4096484407445" lon="11.589134431463506"><ele>58.0</ele><time>2026-04-04T13:20:24Z</time></trkpt><trkpt lat="44.40954251262027" lon="11.589070308705981"><ele>58.0</ele><time>2026-04-04T13:20:25Z</time></trkpt><trkpt lat="44.40943687792504" lon="11.589009910895427"><ele>57.8</ele><time>2026-04-04T13:20:26Z</time></trkpt><trkpt lat="44.40933599220384" lon="11.588954304643769"><ele>57.599999999999994</ele><time>2026-04-04T13:20:27Z</time></trkpt><trkpt lat="44.40924186803649" lon="11.588909716804755"><ele>57.400000000000006</ele><time>2026-04-04T13:20:28Z</time></trkpt><trkpt lat="44.40915336931265" lon="11.588871047263332"><ele>57.2</ele><time>2026-04-04T13:20:29Z</time></trkpt><trkpt lat="44.40906728119019" lon="11.588834192736622"><ele>57.0</ele><time>2026-04-04T13:20:30Z</time></trkpt><trkpt lat="44.40898117035714" lon="11.588795130790789"><ele>57.0</ele><time>2026-04-04T13:20:31Z</time></trkpt><trkpt lat="44.408892249179544" lon="11.588754605623325"><ele>57.0</ele><time>2026-04-04T13:20:32Z</time></trkpt><trkpt lat="44.408823300140234" lon="11.588720498822079"><ele>57.0</ele><time>2026-04-04T13:20:33Z</time></trkpt><trkpt lat="44.408712801321506" lon="11.588681939490046"><ele>57.0</ele><time>2026-04-04T13:20:35Z</time></trkpt><trkpt lat="44.40863665965006" lon="11.588661751051852"><ele>57.0</ele><time>2026-04-04T13:20:37Z</time></trkpt><trkpt lat="44.40857039411692" lon="11.588643791551409"><ele>57.0</ele><time>2026-04-04T13:20:39Z</time></trkpt><trkpt lat="44.408497054298785" lon="11.58861743540724"><ele>57.5</ele><time>2026-04-04T13:20:43Z</time></trkpt><trkpt lat="44.40842383292679" lon="11.588592926915242"><ele>58.0</ele><time>2026-04-04T13:21:21Z</time></trkpt><trkpt lat="44.40834086869365" lon="11.588551083310282"><ele>58.5</ele><time>2026-04-04T13:21:24Z</time></trkpt><trkpt lat="44.40824914761045" lon="11.588524898750855"><ele>59.0</ele><time>2026-04-04T13:21:26Z</time></trkpt><trkpt lat="44.4081683214458" lon="11.588487494827458"><ele>59.5</ele><time>2026-04-04T13:21:28Z</time></trkpt><trkpt lat="44.408093609682645" lon="11.588465014333613"><ele>60.0</ele><time>2026-04-04T13:21:31Z</time></trkpt><trkpt lat="44.40799994952453" lon="11.588451568086086"><ele>59.8</ele><time>2026-04-04T13:21:34Z</time></trkpt><trkpt lat="44.407907620092104" lon="11.588426340269713"><ele>59.6</ele><time>2026-04-04T13:21:36Z</time></trkpt><trkpt lat="44.40780180808013" lon="11.588402480683087"><ele>59.400000000000006</ele><time>2026-04-04T13:21:38Z</time></trkpt><trkpt lat="44.407716149010234" lon="11.588378745526501"><ele>59.2</ele><time>2026-04-04T13:21:40Z</time></trkpt><trkpt lat="44.40762962242147" lon="11.588354328260094"><ele>59.0</ele><time>2026-04-04T13:21:42Z</time></trkpt><trkpt lat="44.407494902141394" lon="11.58831379025195"><ele>59.0</ele><time>2026-04-04T13:21:44Z</time></trkpt><trkpt lat="44.4074130523191" lon="11.588290455826948"><ele>59.0</ele><time>2026-04-04T13:21:45Z</time></trkpt><trkpt lat="44.407329134141676" lon="11.588144451031189"><ele>59.0</ele><time>2026-04-04T13:21:46Z</time></trkpt><trkpt lat="44.40719233850962" lon="11.588234549970117"><ele>59.0</ele><time>2026-04-04T13:21:47Z</time></trkpt><trkpt lat="44.40709257739322" lon="11.58820917240053"><ele>59.0</ele><time>2026-04-04T13:21:48Z</time></trkpt><trkpt lat="44.40699549735287" lon="11.588184623285079"><ele>59.0</ele><time>2026-04-04T13:21:49Z</time></trkpt><trkpt lat="44.406891464643984" lon="11.588158666306878"><ele>59.0</ele><time>2026-04-04T13:21:50Z</time></trkpt><trkpt lat="44.40677410370515" lon="11.588134635965107"><ele>59.0</ele><time>2026-04-04T13:21:51Z</time></trkpt><trkpt lat="44.406647008307075" lon="11.588108568009625"><ele>59.0</ele><time>2026-04-04T13:21:52Z</time></trkpt><trkpt lat="44.406525466189564" lon="11.588076743382825"><ele>59.0</ele><time>2026-04-04T13:21:53Z</time></trkpt><trkpt lat="44.40641085488308" lon="11.588042714822846"><ele>59.0</ele><time>2026-04-04T13:21:54Z</time></trkpt><trkpt lat="44.40628732733489" lon="11.588008885206982"><ele>59.0</ele><time>2026-04-04T13:21:55Z</time></trkpt><trkpt lat="44.40615485817894" lon="11.58797092184637"><ele>59.25</ele><time>2026-04-04T13:21:56Z</time></trkpt><trkpt lat="44.40602194724164" lon="11.587934390012629"><ele>59.5</ele><time>2026-04-04T13:21:57Z</time></trkpt><trkpt lat="44.40589091694035" lon="11.587895873600527"><ele>59.75</ele><time>2026-04-04T13:21:58Z</time></trkpt><trkpt lat="44.40575985593678" lon="11.587861286205111"><ele>60.0</ele><time>2026-04-04T13:21:59Z</time></trkpt><trkpt lat="44.40562447712914" lon="11.587820849707834"><ele>60.5</ele><time>2026-04-04T13:22:00Z</time></trkpt><trkpt lat="44.405492385677256" lon="11.587777917401974"><ele>61.0</ele><time>2026-04-04T13:22:01Z</time></trkpt><trkpt lat="44.405360608582" lon="11.587735255390703"><ele>61.5</ele><time>2026-04-04T13:22:02Z</time></trkpt><trkpt lat="44.40521678380833" lon="11.587693271173112"><ele>62.0</ele><time>2026-04-04T13:22:03Z</time></trkpt><trkpt lat="44.405074988960486" lon="11.587644051522927"><ele>62.0</ele><time>2026-04-04T13:22:04Z</time></trkpt><trkpt lat="44.40493883049681" lon="11.587590837063477"><ele>62.0</ele><time>2026-04-04T13:22:05Z</time></trkpt><trkpt lat="44.404813704768486" lon="11.58754506676109"><ele>62.0</ele><time>2026-04-04T13:22:06Z</time></trkpt><trkpt lat="44.40469288975908" lon="11.587502802597315"><ele>62.0</ele><time>2026-04-04T13:22:07Z</time></trkpt><trkpt lat="44.40456445476446" lon="11.587462138275805"><ele>62.25</ele><time>2026-04-04T13:22:08Z</time></trkpt><trkpt lat="44.40443557096908" lon="11.587391047493869"><ele>62.5</ele><time>2026-04-04T13:22:09Z</time></trkpt><trkpt lat="44.40431009369006" lon="11.587342442651986"><ele>62.75</ele><time>2026-04-04T13:22:10Z</time></trkpt><trkpt lat="44.40419339990311" lon="11.587301876899899"><ele>63.0</ele><time>2026-04-04T13:22:11Z</time></trkpt><trkpt lat="44.404092756113286" lon="11.587272870962252"><ele>63.0</ele><time>2026-04-04T13:22:12Z</time></trkpt><trkpt lat="44.40399840697482" lon="11.58726637484523"><ele>63.0</ele><time>2026-04-04T13:22:13Z</time></trkpt><trkpt lat="44.40390694349729" lon="11.58723852583256"><ele>63.0</ele><time>2026-04-04T13:22:14Z</time></trkpt><trkpt lat="44.40381243004079" lon="11.5872108575395"><ele>63.0</ele><time>2026-04-04T13:22:15Z</time></trkpt><trkpt lat="44.403716724878876" lon="11.587181853036025"><ele>63.0</ele><time>2026-04-04T13:22:16Z</time></trkpt><trkpt lat="44.40362311723068" lon="11.587147954988975"><ele>63.5</ele><time>2026-04-04T13:22:17Z</time></trkpt><trkpt lat="44.4035426455622" lon="11.587113691252457"><ele>64.0</ele><time>2026-04-04T13:22:18Z</time></trkpt><trkpt lat="44.40347480603526" lon="11.587077622899512"><ele>64.5</ele><time>2026-04-04T13:22:19Z</time></trkpt><trkpt lat="44.4034045358164" lon="11.587034586846013"><ele>65.0</ele><time>2026-04-04T13:22:20Z</time></trkpt><trkpt lat="44.403342502828295" lon="11.586986811199013"><ele>65.5</ele><time>2026-04-04T13:22:21Z</time></trkpt><trkpt lat="44.403253651744016" lon="11.586887940256553"><ele>66.0</ele><time>2026-04-04T13:22:23Z</time></trkpt><trkpt lat="44.403205706927594" lon="11.586805675014519"><ele>66.16666666666667</ele><time>2026-04-04T13:22:24Z</time></trkpt><trkpt lat="44.403144919604244" lon="11.586717372969677"><ele>66.33333333333333</ele><time>2026-04-04T13:22:25Z</time></trkpt><trkpt lat="44.40306523067678" lon="11.586664259235727"><ele>66.5</ele><time>2026-04-04T13:22:26Z</time></trkpt><trkpt lat="44.402985632846175" lon="11.586638378047523"><ele>66.66666666666666</ele><time>2026-04-04T13:22:27Z</time></trkpt><trkpt lat="44.40291325679416" lon="11.586643835868134"><ele>66.83333333333333</ele><time>2026-04-04T13:22:28Z</time></trkpt><trkpt lat="44.40284010484142" lon="11.586673402326864"><ele>67.0</ele><time>2026-04-04T13:22:29.001Z</time></trkpt><trkpt lat="44.40276348792203" lon="11.586732266365175"><ele>67.6</ele><time>2026-04-04T13:22:30.001Z</time></trkpt><trkpt lat="44.40269186786816" lon="11.58679196178503"><ele>68.2</ele><time>2026-04-04T13:22:31.001Z</time></trkpt><trkpt lat="44.40263232951559" lon="11.586830916402358"><ele>68.8</ele><time>2026-04-04T13:22:32.001Z</time></trkpt><trkpt lat="44.40251412736071" lon="11.586861645532561"><ele>69.4</ele><time>2026-04-04T13:22:34.001Z</time></trkpt><trkpt lat="44.40241429419652" lon="11.586909460150558"><ele>70.0</ele><time>2026-04-04T13:22:36.001Z</time></trkpt><trkpt lat="44.40232855527802" lon="11.586897255376083"><ele>70.0</ele><time>2026-04-04T13:22:38.001Z</time></trkpt><trkpt lat="44.402267244690535" lon="11.586938260899306"><ele>70.0</ele><time>2026-04-04T13:22:42.001Z</time></trkpt><trkpt lat="44.402167314951825" lon="11.586998823960046"><ele>70.0</ele><time>2026-04-04T13:24:10Z</time></trkpt><trkpt lat="44.402066840007116" lon="11.587049480502676"><ele>70.0</ele><time>2026-04-04T13:24:12Z</time></trkpt><trkpt lat="44.401945827082194" lon="11.587131279303774"><ele>70.0</ele><time>2026-04-04T13:24:14Z</time></trkpt><trkpt lat="44.40185601939548" lon="11.58717157720732"><ele>70.6</ele><time>2026-04-04T13:24:15Z</time></trkpt><trkpt lat="44.4017677643864" lon="11.587216253144138"><ele>71.2</ele><time>2026-04-04T13:24:16Z</time></trkpt><trkpt lat="44.40167648802714" lon="11.587251557002165"><ele>71.8</ele><time>2026-04-04T13:24:17Z</time></trkpt><trkpt lat="44.40158246632603" lon="11.587300826496307"><ele>72.4</ele><time>2026-04-04T13:24:18Z</time></trkpt><trkpt lat="44.4014814911567" lon="11.587362472916597"><ele>73.0</ele><time>2026-04-04T13:24:19Z</time></trkpt><trkpt lat="44.40136885660654" lon="11.587419068058816"><ele>73.2</ele><time>2026-04-04T13:24:20Z</time></trkpt><trkpt lat="44.401271643899584" lon="11.587478215205461"><ele>73.4</ele><time>2026-04-04T13:24:21Z</time></trkpt><trkpt lat="44.401179159125036" lon="11.587526072971466"><ele>73.60000000000001</ele><time>2026-04-04T13:24:22Z</time></trkpt><trkpt lat="44.401092541574954" lon="11.587569244207545"><ele>73.8</ele><time>2026-04-04T13:24:23Z</time></trkpt><trkpt lat="44.401013588518076" lon="11.58761020606292"><ele>74.0</ele><time>2026-04-04T13:24:24Z</time></trkpt><trkpt lat="44.400933418486254" lon="11.587647116598685"><ele>74.0</ele><time>2026-04-04T13:24:25Z</time></trkpt><trkpt lat="44.40084227523237" lon="11.587693372703392"><ele>74.0</ele><time>2026-04-04T13:24:26Z</time></trkpt><trkpt lat="44.40075049381897" lon="11.587736255338484"><ele>74.0</ele><time>2026-04-04T13:24:27Z</time></trkpt><trkpt lat="44.40065492275411" lon="11.587778503658862"><ele>74.0</ele><time>2026-04-04T13:24:28Z</time></trkpt><trkpt lat="44.400554092096755" lon="11.58783233744769"><ele>74.0</ele><time>2026-04-04T13:24:29Z</time></trkpt><trkpt lat="44.4004505121878" lon="11.58790199947467"><ele>74.5</ele><time>2026-04-04T13:24:30Z</time></trkpt><trkpt lat="44.4003520911691" lon="11.587980937092226"><ele>75.0</ele><time>2026-04-04T13:24:31Z</time></trkpt><trkpt lat="44.40025808965445" lon="11.588065085535359"><ele>75.5</ele><time>2026-04-04T13:24:32Z</time></trkpt><trkpt lat="44.400164305153424" lon="11.588157298644932"><ele>76.0</ele><time>2026-04-04T13:24:33Z</time></trkpt><trkpt lat="44.400079190211564" lon="11.588259953747249"><ele>76.0</ele><time>2026-04-04T13:24:34.001Z</time></trkpt><trkpt lat="44.400013300256084" lon="11.588355496998021"><ele>76.0</ele><time>2026-04-04T13:24:35.001Z</time></trkpt><trkpt lat="44.399957261431865" lon="11.58845069237105"><ele>76.0</ele><time>2026-04-04T13:24:36.001Z</time></trkpt><trkpt lat="44.3999016421503" lon="11.588546270297472"><ele>76.0</ele><time>2026-04-04T13:24:37.001Z</time></trkpt><trkpt lat="44.399845747751634" lon="11.588645529713204"><ele>76.0</ele><time>2026-04-04T13:24:38.001Z</time></trkpt><trkpt lat="44.399788939280725" lon="11.58876290810579"><ele>76.2</ele><time>2026-04-04T13:24:39.001Z</time></trkpt><trkpt lat="44.39973661391373" lon="11.588879455643688"><ele>76.39999999999999</ele><time>2026-04-04T13:24:40.001Z</time></trkpt><trkpt lat="44.39969123844721" lon="11.588984037808626"><ele>76.6</ele><time>2026-04-04T13:24:41.001Z</time></trkpt><trkpt lat="44.39965487468578" lon="11.589058909324034"><ele>76.8</ele><time>2026-04-04T13:24:42.001Z</time></trkpt><trkpt lat="44.399562766008835" lon="11.589141994056703"><ele>77.0</ele><time>2026-04-04T13:24:44.001Z</time></trkpt><trkpt lat="44.399430506958026" lon="11.58911404128821"><ele>77.0</ele><time>2026-04-04T13:24:46.001Z</time></trkpt><trkpt lat="44.399353935885856" lon="11.5890574226247"><ele>77.0</ele><time>2026-04-04T13:24:47.001Z</time></trkpt><trkpt lat="44.39927012266848" lon="11.589000923454742"><ele>77.0</ele><time>2026-04-04T13:24:48.001Z</time></trkpt><trkpt lat="44.39917701968305" lon="11.58894571957804"><ele>77.0</ele><time>2026-04-04T13:24:49.001Z</time></trkpt><trkpt lat="44.39909942216757" lon="11.588876039000986"><ele>77.0</ele><time>2026-04-04T13:24:50.001Z</time></trkpt><trkpt lat="44.39901044638135" lon="11.58884330322754"><ele>77.0</ele><time>2026-04-04T13:24:51.001Z</time></trkpt><trkpt lat="44.39892785199552" lon="11.588783700677665"><ele>77.0</ele><time>2026-04-04T13:24:52.001Z</time></trkpt><trkpt lat="44.39883820142625" lon="11.588724544456632"><ele>77.0</ele><time>2026-04-04T13:24:53.001Z</time></trkpt><trkpt lat="44.39875010959008" lon="11.588662848841917"><ele>77.0</ele><time>2026-04-04T13:24:54.001Z</time></trkpt><trkpt lat="44.398658546116664" lon="11.588600174328871"><ele>77.0</ele><time>2026-04-04T13:24:55.001Z</time></trkpt><trkpt lat="44.39856161923573" lon="11.58853813766"><ele>77.2</ele><time>2026-04-04T13:24:56.001Z</time></trkpt><trkpt lat="44.39846239580492" lon="11.588469135036098"><ele>77.4</ele><time>2026-04-04T13:24:57.001Z</time></trkpt><trkpt lat="44.39834182736598" lon="11.58838394511701"><ele>77.6</ele><time>2026-04-04T13:24:58.001Z</time></trkpt><trkpt lat="44.398243606880406" lon="11.588317687762986"><ele>77.8</ele><time>2026-04-04T13:24:59.001Z</time></trkpt><trkpt lat="44.398157490948044" lon="11.588266912291827"><ele>78.0</ele><time>2026-04-04T13:25:00.001Z</time></trkpt><trkpt lat="44.39807708071974" lon="11.588227920643462"><ele>78.0</ele><time>2026-04-04T13:25:01.001Z</time></trkpt><trkpt lat="44.398007281734216" lon="11.588173384550174"><ele>78.0</ele><time>2026-04-04T13:25:02.001Z</time></trkpt><trkpt lat="44.39793724407316" lon="11.588137191445472"><ele>78.0</ele><time>2026-04-04T13:25:03.001Z</time></trkpt><trkpt lat="44.3978775457558" lon="11.588100366354709"><ele>78.0</ele><time>2026-04-04T13:25:04.001Z</time></trkpt><trkpt lat="44.39781470130326" lon="11.588062640652417"><ele>78.0</ele><time>2026-04-04T13:25:05.001Z</time></trkpt><trkpt lat="44.397743921293475" lon="11.588017783904093"><ele>78.0</ele><time>2026-04-04T13:25:06.001Z</time></trkpt><trkpt lat="44.397670939147226" lon="11.587970107792374"><ele>78.0</ele><time>2026-04-04T13:25:07.001Z</time></trkpt><trkpt lat="44.39760960986339" lon="11.587929679224876"><ele>78.66666666666667</ele><time>2026-04-04T13:25:08.001Z</time></trkpt><trkpt lat="44.39749788037581" lon="11.587856192271827"><ele>79.33333333333333</ele><time>2026-04-04T13:25:10.001Z</time></trkpt><trkpt lat="44.39743092087357" lon="11.58781833786355"><ele>80.0</ele><time>2026-04-04T13:25:11.001Z</time></trkpt><trkpt lat="44.397363918384656" lon="11.587781999511545"><ele>80.66666666666666</ele><time>2026-04-04T13:25:12.001Z</time></trkpt><trkpt lat="44.397291170278805" lon="11.587737625465158"><ele>81.33333333333333</ele><time>2026-04-04T13:25:13.001Z</time></trkpt><trkpt lat="44.39720828733418" lon="11.587687969833203"><ele>82.0</ele><time>2026-04-04T13:25:14.001Z</time></trkpt><trkpt lat="44.39713403380055" lon="11.587637917769122"><ele>82.42857142857142</ele><time>2026-04-04T13:25:15.001Z</time></trkpt><trkpt lat="44.39706491899508" lon="11.587601226138569"><ele>82.85714285714286</ele><time>2026-04-04T13:25:16.001Z</time></trkpt><trkpt lat="44.397000037717675" lon="11.587564465531832"><ele>83.28571428571428</ele><time>2026-04-04T13:25:17.001Z</time></trkpt><trkpt lat="44.39693987192178" lon="11.587524137227897"><ele>83.71428571428571</ele><time>2026-04-04T13:25:18.001Z</time></trkpt><trkpt lat="44.39686556827923" lon="11.587508613719043"><ele>84.14285714285714</ele><time>2026-04-04T13:25:19.001Z</time></trkpt><trkpt lat="44.39679624279854" lon="11.587509943352785"><ele>84.57142857142857</ele><time>2026-04-04T13:25:20.001Z</time></trkpt><trkpt lat="44.39673118887592" lon="11.587515252629"><ele>85.0</ele><time>2026-04-04T13:25:21.001Z</time></trkpt><trkpt lat="44.39665359812414" lon="11.587547003900646"><ele>85.0</ele><time>2026-04-04T13:25:22.001Z</time></trkpt><trkpt lat="44.39658978005574" lon="11.587593803231504"><ele>85.0</ele><time>2026-04-04T13:25:23.001Z</time></trkpt><trkpt lat="44.39653894771683" lon="11.587665163922024"><ele>85.0</ele><time>2026-04-04T13:25:24Z</time></trkpt><trkpt lat="44.39648962822613" lon="11.587732018068118"><ele>85.0</ele><time>2026-04-04T13:25:25Z</time></trkpt><trkpt lat="44.39644572799835" lon="11.58779953169446"><ele>85.0</ele><time>2026-04-04T13:25:26Z</time></trkpt><trkpt lat="44.39635636026486" lon="11.587895677747651"><ele>85.0</ele><time>2026-04-04T13:25:28Z</time></trkpt><trkpt lat="44.39626376953845" lon="11.587941239404145"><ele>85.0</ele><time>2026-04-04T13:25:30Z</time></trkpt><trkpt lat="44.39627659301941" lon="11.588061483469856"><ele>85.0</ele><time>2026-04-04T13:25:32Z</time></trkpt><trkpt lat="44.396355235198484" lon="11.588127254324593"><ele>85.0</ele><time>2026-04-04T13:25:34Z</time></trkpt><trkpt lat="44.39643332230776" lon="11.588031176238285"><ele>85.0</ele><time>2026-04-04T13:25:36Z</time></trkpt><trkpt lat="44.39644817327771" lon="11.587941873688065"><ele>85.0</ele><time>2026-04-04T13:25:37Z</time></trkpt><trkpt lat="44.39649215485453" lon="11.587777625199058"><ele>85.0</ele><time>2026-04-04T13:25:39Z</time></trkpt><trkpt lat="44.396542301220116" lon="11.587706929798651"><ele>85.0</ele><time>2026-04-04T13:25:40Z</time></trkpt><trkpt lat="44.39660098837771" lon="11.587646412078536"><ele>85.0</ele><time>2026-04-04T13:25:41Z</time></trkpt><trkpt lat="44.39670664419772" lon="11.587572371700375"><ele>85.0</ele><time>2026-04-04T13:25:43Z</time></trkpt><trkpt lat="44.39677992692008" lon="11.58756236491747"><ele>85.0</ele><time>2026-04-04T13:25:44Z</time></trkpt><trkpt lat="44.39684972223273" lon="11.587572770471954"><ele>85.0</ele><time>2026-04-04T13:25:45Z</time></trkpt><trkpt lat="44.39691309083873" lon="11.587583671651878"><ele>85.0</ele><time>2026-04-04T13:25:46Z</time></trkpt><trkpt lat="44.397019301650715" lon="11.587626267967664"><ele>85.0</ele><time>2026-04-04T13:25:48Z</time></trkpt><trkpt lat="44.39714518794231" lon="11.587684646212093"><ele>85.0</ele><time>2026-04-04T13:25:50Z</time></trkpt><trkpt lat="44.39722091223826" lon="11.587725478551056"><ele>85.0</ele><time>2026-04-04T13:25:51Z</time></trkpt><trkpt lat="44.397293255514015" lon="11.587764410074154"><ele>85.0</ele><time>2026-04-04T13:25:52Z</time></trkpt><trkpt lat="44.397395752533754" lon="11.587831394566427"><ele>84.5</ele><time>2026-04-04T13:25:54Z</time></trkpt><trkpt lat="44.39748195961242" lon="11.587889373688048"><ele>84.0</ele><time>2026-04-04T13:25:56Z</time></trkpt><trkpt lat="44.39756622580307" lon="11.587929836396182"><ele>83.5</ele><time>2026-04-04T13:25:58Z</time></trkpt><trkpt lat="44.39763499202851" lon="11.587987674528888"><ele>83.0</ele><time>2026-04-04T13:26:00Z</time></trkpt><trkpt lat="44.397717936340996" lon="11.588043775271807"><ele>82.5</ele><time>2026-04-04T13:26:02Z</time></trkpt><trkpt lat="44.397793968270776" lon="11.588075258374342"><ele>82.0</ele><time>2026-04-04T13:26:05Z</time></trkpt><trkpt lat="44.39787040951771" lon="11.58813533005264"><ele>82.0</ele><time>2026-04-04T13:26:15Z</time></trkpt><trkpt lat="44.39794738107609" lon="11.588189932581706"><ele>82.0</ele><time>2026-04-04T13:26:17Z</time></trkpt><trkpt lat="44.398028510556756" lon="11.588247606774052"><ele>82.0</ele><time>2026-04-04T13:26:19Z</time></trkpt><trkpt lat="44.39813671392354" lon="11.588317339870432"><ele>82.0</ele><time>2026-04-04T13:26:21Z</time></trkpt><trkpt lat="44.39822320174648" lon="11.588377565028924"><ele>82.0</ele><time>2026-04-04T13:26:23Z</time></trkpt><trkpt lat="44.398329276833174" lon="11.588448137917167"><ele>81.83333333333333</ele><time>2026-04-04T13:26:25Z</time></trkpt><trkpt lat="44.398392515285515" lon="11.588490855919638"><ele>81.66666666666666</ele><time>2026-04-04T13:26:26Z</time></trkpt><trkpt lat="44.39845701915141" lon="11.588535519999182"><ele>81.5</ele><time>2026-04-04T13:26:27Z</time></trkpt><trkpt lat="44.39851448855058" lon="11.588575544776935"><ele>81.33333333333333</ele><time>2026-04-04T13:26:28.001Z</time></trkpt><trkpt lat="44.398607463750494" lon="11.58863968612159"><ele>81.16666666666667</ele><time>2026-04-04T13:26:30.001Z</time></trkpt><trkpt lat="44.398697954712695" lon="11.588692415369312"><ele>81.0</ele><time>2026-04-04T13:26:32.001Z</time></trkpt><trkpt lat="44.398776407725066" lon="11.588733542535833"><ele>80.2</ele><time>2026-04-04T13:26:34.001Z</time></trkpt><trkpt lat="44.39889617522568" lon="11.588814709696202"><ele>79.39999999999999</ele><time>2026-04-04T13:26:36.001Z</time></trkpt><trkpt lat="44.398963690409616" lon="11.588857994101774"><ele>78.6</ele><time>2026-04-04T13:26:37.001Z</time></trkpt><trkpt lat="44.399065058826444" lon="11.588921333243977"><ele>77.8</ele><time>2026-04-04T13:26:39.001Z</time></trkpt><trkpt lat="44.39912224024676" lon="11.588967439809872"><ele>77.0</ele><time>2026-04-04T13:26:41.001Z</time></trkpt><trkpt lat="44.399195055672024" lon="11.588981153643077"><ele>77.0</ele><time>2026-04-04T13:28:12Z</time></trkpt><trkpt lat="44.39925598483373" lon="11.589013949891058"><ele>77.0</ele><time>2026-04-04T13:28:13Z</time></trkpt><trkpt lat="44.39931818798754" lon="11.589058865774598"><ele>77.0</ele><time>2026-04-04T13:28:14Z</time></trkpt><trkpt lat="44.39937622313657" lon="11.589093695190572"><ele>77.0</ele><time>2026-04-04T13:28:15Z</time></trkpt><trkpt lat="44.39946732204769" lon="11.589173921544464"><ele>77.0</ele><time>2026-04-04T13:28:17Z</time></trkpt><trkpt lat="44.39948679868542" lon="11.589267920480175"><ele>77.0</ele><time>2026-04-04T13:28:18Z</time></trkpt><trkpt lat="44.39953554261271" lon="11.589422959428939"><ele>77.8</ele><time>2026-04-04T13:28:20Z</time></trkpt><trkpt lat="44.39958480240918" lon="11.589568450715825"><ele>78.6</ele><time>2026-04-04T13:28:22Z</time></trkpt><trkpt lat="44.39959013961031" lon="11.589677666772188"><ele>79.39999999999999</ele><time>2026-04-04T13:28:23Z</time></trkpt><trkpt lat="44.39958217953391" lon="11.58978722242135"><ele>80.2</ele><time>2026-04-04T13:28:24Z</time></trkpt><trkpt lat="44.39954496736238" lon="11.589893007059986"><ele>81.0</ele><time>2026-04-04T13:28:25Z</time></trkpt><trkpt lat="44.399512124188604" lon="11.590022383889638"><ele>81.0</ele><time>2026-04-04T13:28:26Z</time></trkpt><trkpt lat="44.399471190508145" lon="11.590161059395957"><ele>81.0</ele><time>2026-04-04T13:28:27Z</time></trkpt><trkpt lat="44.399452784012624" lon="11.590278633410378"><ele>81.0</ele><time>2026-04-04T13:28:28Z</time></trkpt><trkpt lat="44.39941810874746" lon="11.590381488010856"><ele>81.0</ele><time>2026-04-04T13:28:29Z</time></trkpt><trkpt lat="44.399385432861564" lon="11.590495891521208"><ele>81.0</ele><time>2026-04-04T13:28:30Z</time></trkpt><trkpt lat="44.399357159590224" lon="11.59058908726373"><ele>81.0</ele><time>2026-04-04T13:28:31Z</time></trkpt><trkpt lat="44.39933155379601" lon="11.590674939931361"><ele>80.83333333333333</ele><time>2026-04-04T13:28:32Z</time></trkpt><trkpt lat="44.399302947588154" lon="11.590769515175761"><ele>80.66666666666667</ele><time>2026-04-04T13:28:33Z</time></trkpt><trkpt lat="44.39926536540323" lon="11.590867765069692"><ele>80.5</ele><time>2026-04-04T13:28:34Z</time></trkpt><trkpt lat="44.399240465300046" lon="11.59095828534074"><ele>80.33333333333334</ele><time>2026-04-04T13:28:35Z</time></trkpt><trkpt lat="44.39921222850687" lon="11.591043274679535"><ele>80.16666666666667</ele><time>2026-04-04T13:28:36Z</time></trkpt><trkpt lat="44.39916084239457" lon="11.591202066648869"><ele>80.0</ele><time>2026-04-04T13:28:38Z</time></trkpt><trkpt lat="44.399129393782644" lon="11.591295517553428"><ele>79.71428571428571</ele><time>2026-04-04T13:28:39Z</time></trkpt><trkpt lat="44.39909553281737" lon="11.591397702393238"><ele>79.42857142857143</ele><time>2026-04-04T13:28:40Z</time></trkpt><trkpt lat="44.399064903449045" lon="11.591497652682154"><ele>79.14285714285714</ele><time>2026-04-04T13:28:41Z</time></trkpt><trkpt lat="44.399036745914074" lon="11.591588162337114"><ele>78.85714285714286</ele><time>2026-04-04T13:28:42Z</time></trkpt><trkpt lat="44.39900821095236" lon="11.59167846699626"><ele>78.57142857142857</ele><time>2026-04-04T13:28:43Z</time></trkpt><trkpt lat="44.398983078549804" lon="11.59176934590836"><ele>78.28571428571429</ele><time>2026-04-04T13:28:44Z</time></trkpt><trkpt lat="44.39895924847252" lon="11.59185449643219"><ele>78.0</ele><time>2026-04-04T13:28:45Z</time></trkpt><trkpt lat="44.39893280564589" lon="11.591939144733383"><ele>77.0</ele><time>2026-04-04T13:28:46Z</time></trkpt><trkpt lat="44.39890857585872" lon="11.59202416879867"><ele>76.0</ele><time>2026-04-04T13:28:47Z</time></trkpt><trkpt lat="44.39886850253975" lon="11.592169040436106"><ele>75.0</ele><time>2026-04-04T13:28:49Z</time></trkpt><trkpt lat="44.398820799125254" lon="11.592260180539757"><ele>74.0</ele><time>2026-04-04T13:28:51.001Z</time></trkpt><trkpt lat="44.39871727225666" lon="11.59228093835179"><ele>73.0</ele><time>2026-04-04T13:28:55.001Z</time></trkpt><trkpt lat="44.398644574323704" lon="11.592228375341215"><ele>72.0</ele><time>2026-04-04T13:28:58.001Z</time></trkpt><trkpt lat="44.39857767333363" lon="11.59216202741037"><ele>72.0</ele><time>2026-04-04T13:29:01.001Z</time></trkpt><trkpt lat="44.39862296918489" lon="11.592247172614373"><ele>72.0</ele><time>2026-04-04T13:29:06.001Z</time></trkpt><trkpt lat="44.39867730041114" lon="11.592323265282147"><ele>72.0</ele><time>2026-04-04T13:29:08.001Z</time></trkpt><trkpt lat="44.39874191512148" lon="11.592365678014705"><ele>72.0</ele><time>2026-04-04T13:29:18.001Z</time></trkpt><trkpt lat="44.39883285962076" lon="11.59229739938984"><ele>72.0</ele><time>2026-04-04T13:29:21.001Z</time></trkpt><trkpt lat="44.39886037149292" lon="11.592211672493358"><ele>72.0</ele><time>2026-04-04T13:29:22.001Z</time></trkpt><trkpt lat="44.39888980797269" lon="11.592116363105372"><ele>73.0</ele><time>2026-04-04T13:29:23.001Z</time></trkpt><trkpt lat="44.39894305526873" lon="11.591997871094016"><ele>74.0</ele><time>2026-04-04T13:29:24.001Z</time></trkpt><trkpt lat="44.3989604970672" lon="11.591892366799549"><ele>75.0</ele><time>2026-04-04T13:29:25.001Z</time></trkpt><trkpt lat="44.39899257656637" lon="11.591810918373984"><ele>76.0</ele><time>2026-04-04T13:29:26.001Z</time></trkpt><trkpt lat="44.399025377700745" lon="11.59172815354559"><ele>77.0</ele><time>2026-04-04T13:29:27.001Z</time></trkpt><trkpt lat="44.39906107329462" lon="11.591639079095488"><ele>78.0</ele><time>2026-04-04T13:29:29.001Z</time></trkpt><trkpt lat="44.39891342703299" lon="11.591548237131823"><ele>77.2</ele><time>2026-04-04T13:29:30.001Z</time></trkpt><trkpt lat="44.398820487800776" lon="11.591510047305253"><ele>76.4</ele><time>2026-04-04T13:29:31.001Z</time></trkpt><trkpt lat="44.39872635030753" lon="11.591470207777235"><ele>75.60000000000001</ele><time>2026-04-04T13:29:32.001Z</time></trkpt><trkpt lat="44.39863519290979" lon="11.591417072683473"><ele>74.8</ele><time>2026-04-04T13:29:33.001Z</time></trkpt><trkpt lat="44.39853487908071" lon="11.591366325487565"><ele>74.0</ele><time>2026-04-04T13:29:34.001Z</time></trkpt><trkpt lat="44.398419290812235" lon="11.591318902129432"><ele>74.0</ele><time>2026-04-04T13:29:35.001Z</time></trkpt><trkpt lat="44.398303929974205" lon="11.591291621434332"><ele>74.0</ele><time>2026-04-04T13:29:35.999Z</time></trkpt><trkpt lat="44.398195410011795" lon="11.591277124327032"><ele>74.0</ele><time>2026-04-04T13:29:36.999Z</time></trkpt><trkpt lat="44.398089956235964" lon="11.591276513621391"><ele>74.0</ele><time>2026-04-04T13:29:37.999Z</time></trkpt><trkpt lat="44.39798894689758" lon="11.591261884823647"><ele>74.0</ele><time>2026-04-04T13:29:38.999Z</time></trkpt><trkpt lat="44.39787538274617" lon="11.591276038208335"><ele>73.60000000000001</ele><time>2026-04-04T13:29:39.999Z</time></trkpt><trkpt lat="44.397770133276374" lon="11.591279302693431"><ele>73.2</ele><time>2026-04-04T13:29:40.999Z</time></trkpt><trkpt lat="44.397669218166236" lon="11.591286856516415"><ele>72.80000000000001</ele><time>2026-04-04T13:29:41.999Z</time></trkpt><trkpt lat="44.39757513045971" lon="11.591291553126128"><ele>72.4</ele><time>2026-04-04T13:29:42.999Z</time></trkpt><trkpt lat="44.39747963427918" lon="11.591280769012847"><ele>72.0</ele><time>2026-04-04T13:29:43.999Z</time></trkpt><trkpt lat="44.39737778537786" lon="11.59125541983439"><ele>72.0</ele><time>2026-04-04T13:29:44.999Z</time></trkpt><trkpt lat="44.397271925803516" lon="11.591211095386521"><ele>72.0</ele><time>2026-04-04T13:29:45.999Z</time></trkpt><trkpt lat="44.3971445763251" lon="11.59117956187416"><ele>72.0</ele><time>2026-04-04T13:29:46.999Z</time></trkpt><trkpt lat="44.39702728734832" lon="11.591130520616288"><ele>72.0</ele><time>2026-04-04T13:29:47.999Z</time></trkpt><trkpt lat="44.39691476964641" lon="11.591080193107747"><ele>73.6</ele><time>2026-04-04T13:29:48.999Z</time></trkpt><trkpt lat="44.39680420870383" lon="11.591023439537263"><ele>75.2</ele><time>2026-04-04T13:29:49.999Z</time></trkpt><trkpt lat="44.3967004383711" lon="11.590983373423795"><ele>76.8</ele><time>2026-04-04T13:29:50.999Z</time></trkpt><trkpt lat="44.39660952738223" lon="11.590940115207022"><ele>78.4</ele><time>2026-04-04T13:29:51.999Z</time></trkpt><trkpt lat="44.39652015061419" lon="11.590901567580424"><ele>80.0</ele><time>2026-04-04T13:29:52.999Z</time></trkpt><trkpt lat="44.39644001166015" lon="11.590856985085688"><ele>80.0</ele><time>2026-04-04T13:29:53.999Z</time></trkpt><trkpt lat="44.396362819891415" lon="11.59078574083124"><ele>80.0</ele><time>2026-04-04T13:29:54.999Z</time></trkpt><trkpt lat="44.39630186757725" lon="11.590694411251622"><ele>80.0</ele><time>2026-04-04T13:29:55.999Z</time></trkpt><trkpt lat="44.39623989056769" lon="11.59059014327708"><ele>80.0</ele><time>2026-04-04T13:29:56.999Z</time></trkpt><trkpt lat="44.39615923680593" lon="11.590470156965974"><ele>80.0</ele><time>2026-04-04T13:29:57.999Z</time></trkpt><trkpt lat="44.396080009323924" lon="11.590344274251443"><ele>80.4</ele><time>2026-04-04T13:29:58.999Z</time></trkpt><trkpt lat="44.39601795467357" lon="11.590232546468897"><ele>80.8</ele><time>2026-04-04T13:29:59.999Z</time></trkpt><trkpt lat="44.395966127601476" lon="11.590107754508805"><ele>81.19999999999999</ele><time>2026-04-04T13:30:00.999Z</time></trkpt><trkpt lat="44.39590997438751" lon="11.590043791028126"><ele>81.6</ele><time>2026-04-04T13:30:01.999Z</time></trkpt><trkpt lat="44.3958500921497" lon="11.58994407457338"><ele>82.0</ele><time>2026-04-04T13:30:04Z</time></trkpt><trkpt lat="44.39579438689504" lon="11.58984876013569"><ele>82.0</ele><time>2026-04-04T13:30:07Z</time></trkpt><trkpt lat="44.39576173237351" lon="11.589771022741145"><ele>82.0</ele><time>2026-04-04T13:30:10Z</time></trkpt><trkpt lat="44.395708899382484" lon="11.589704620783984"><ele>82.0</ele><time>2026-04-04T13:30:13Z</time></trkpt><trkpt lat="44.39567876293596" lon="11.589625899531228"><ele>82.0</ele><time>2026-04-04T13:30:15Z</time></trkpt><trkpt lat="44.395682445043896" lon="11.589478397771034"><ele>82.0</ele><time>2026-04-04T13:30:17Z</time></trkpt><trkpt lat="44.395667098033044" lon="11.589391432042042"><ele>82.0</ele><time>2026-04-04T13:30:19Z</time></trkpt><trkpt lat="44.39555964328639" lon="11.589353322348035"><ele>82.0</ele><time>2026-04-04T13:30:20Z</time></trkpt><trkpt lat="44.39541717814046" lon="11.589423973400555"><ele>82.0</ele><time>2026-04-04T13:30:22Z</time></trkpt><trkpt lat="44.39533135154598" lon="11.589427363687754"><ele>82.0</ele><time>2026-04-04T13:30:23Z</time></trkpt><trkpt lat="44.39522724798663" lon="11.589424735448922"><ele>82.0</ele><time>2026-04-04T13:30:24Z</time></trkpt><trkpt lat="44.395132741178955" lon="11.589414478292936"><ele>82.0</ele><time>2026-04-04T13:30:25Z</time></trkpt><trkpt lat="44.39503228976162" lon="11.58938988602112"><ele>82.0</ele><time>2026-04-04T13:30:26Z</time></trkpt><trkpt lat="44.39491563604114" lon="11.58934226527409"><ele>82.0</ele><time>2026-04-04T13:30:27Z</time></trkpt><trkpt lat="44.3948067239419" lon="11.589277621481768"><ele>82.0</ele><time>2026-04-04T13:30:28Z</time></trkpt><trkpt lat="44.39471210519958" lon="11.589218939234032"><ele>82.0</ele><time>2026-04-04T13:30:29Z</time></trkpt><trkpt lat="44.394633617160835" lon="11.589161232431401"><ele>82.0</ele><time>2026-04-04T13:30:30Z</time></trkpt><trkpt lat="44.39456595037506" lon="11.589104826720416"><ele>81.33333333333333</ele><time>2026-04-04T13:30:31Z</time></trkpt><trkpt lat="44.39449862541889" lon="11.589053124509936"><ele>80.66666666666666</ele><time>2026-04-04T13:30:32Z</time></trkpt><trkpt lat="44.394428109168" lon="11.588993938359526"><ele>80.0</ele><time>2026-04-04T13:30:33Z</time></trkpt><trkpt lat="44.3943446662376" lon="11.588944506481205"><ele>79.33333333333333</ele><time>2026-04-04T13:30:34Z</time></trkpt><trkpt lat="44.394257980401925" lon="11.588900156882628"><ele>78.66666666666667</ele><time>2026-04-04T13:30:35Z</time></trkpt><trkpt lat="44.39416945001007" lon="11.58886908473552"><ele>78.0</ele><time>2026-04-04T13:30:36Z</time></trkpt><trkpt lat="44.39407924881132" lon="11.588829444677797"><ele>78.0</ele><time>2026-04-04T13:30:37Z</time></trkpt><trkpt lat="44.393985141455516" lon="11.588797414292022"><ele>78.0</ele><time>2026-04-04T13:30:38Z</time></trkpt><trkpt lat="44.39388527226871" lon="11.588776390268464"><ele>78.0</ele><time>2026-04-04T13:30:39Z</time></trkpt><trkpt lat="44.393794122367204" lon="11.588750225915389"><ele>78.0</ele><time>2026-04-04T13:30:40Z</time></trkpt><trkpt lat="44.393686700495394" lon="11.588755754207204"><ele>78.0</ele><time>2026-04-04T13:30:41Z</time></trkpt><trkpt lat="44.393578514369594" lon="11.588789238292595"><ele>76.8</ele><time>2026-04-04T13:30:42Z</time></trkpt><trkpt lat="44.39348010429245" lon="11.588821654685622"><ele>75.6</ele><time>2026-04-04T13:30:43Z</time></trkpt><trkpt lat="44.393378873819074" lon="11.588856773263407"><ele>74.4</ele><time>2026-04-04T13:30:44Z</time></trkpt><trkpt lat="44.39328108587982" lon="11.58888115280214"><ele>73.2</ele><time>2026-04-04T13:30:45Z</time></trkpt><trkpt lat="44.39317949058235" lon="11.588887160973472"><ele>72.0</ele><time>2026-04-04T13:30:46Z</time></trkpt><trkpt lat="44.393079489317756" lon="11.588886109025152"><ele>71.4</ele><time>2026-04-04T13:30:47Z</time></trkpt><trkpt lat="44.39297380601943" lon="11.58888118793952"><ele>70.80000000000001</ele><time>2026-04-04T13:30:48Z</time></trkpt><trkpt lat="44.392855315492625" lon="11.588868111364443"><ele>70.2</ele><time>2026-04-04T13:30:49Z</time></trkpt><trkpt lat="44.39274116233548" lon="11.588853598527443"><ele>69.60000000000001</ele><time>2026-04-04T13:30:50Z</time></trkpt><trkpt lat="44.392633017030576" lon="11.588848545885442"><ele>69.0</ele><time>2026-04-04T13:30:51Z</time></trkpt><trkpt lat="44.392523410582605" lon="11.588829612396001"><ele>69.0</ele><time>2026-04-04T13:30:52Z</time></trkpt><trkpt lat="44.39242078964659" lon="11.588797190743312"><ele>69.0</ele><time>2026-04-04T13:30:53Z</time></trkpt><trkpt lat="44.39233470513163" lon="11.588754360815798"><ele>69.0</ele><time>2026-04-04T13:30:54Z</time></trkpt><trkpt lat="44.39223708666688" lon="11.588706912541996"><ele>69.0</ele><time>2026-04-04T13:30:55Z</time></trkpt><trkpt lat="44.392137058045655" lon="11.588666060126473"><ele>69.0</ele><time>2026-04-04T13:30:56Z</time></trkpt><trkpt lat="44.39205334183678" lon="11.588620086946198"><ele>69.8</ele><time>2026-04-04T13:30:57.001Z</time></trkpt><trkpt lat="44.3919725973977" lon="11.588576531433093"><ele>70.60000000000001</ele><time>2026-04-04T13:30:58.001Z</time></trkpt><trkpt lat="44.39187317643107" lon="11.588544579775638"><ele>71.4</ele><time>2026-04-04T13:30:59.001Z</time></trkpt><trkpt lat="44.39177071101319" lon="11.588509575872507"><ele>72.2</ele><time>2026-04-04T13:31:00.001Z</time></trkpt><trkpt lat="44.39166826985316" lon="11.588511084667207"><ele>73.0</ele><time>2026-04-04T13:31:01.001Z</time></trkpt><trkpt lat="44.391567756507186" lon="11.588516617319144"><ele>73.0</ele><time>2026-04-04T13:31:02.001Z</time></trkpt><trkpt lat="44.39147282789931" lon="11.58852255181421"><ele>73.0</ele><time>2026-04-04T13:31:03.001Z</time></trkpt><trkpt lat="44.39137788696551" lon="11.588528487080168"><ele>73.0</ele><time>2026-04-04T13:31:04.001Z</time></trkpt><trkpt lat="44.39128445172508" lon="11.58853432823152"><ele>73.0</ele><time>2026-04-04T13:31:05.001Z</time></trkpt><trkpt lat="44.39119488961168" lon="11.588553660515954"><ele>73.0</ele><time>2026-04-04T13:31:06.001Z</time></trkpt><trkpt lat="44.391106513557865" lon="11.588561613426371"><ele>72.4</ele><time>2026-04-04T13:31:07.001Z</time></trkpt><trkpt lat="44.391009452685246" lon="11.588567004008299"><ele>71.8</ele><time>2026-04-04T13:31:08.001Z</time></trkpt><trkpt lat="44.390912302755765" lon="11.58857204638411"><ele>71.2</ele><time>2026-04-04T13:31:09.001Z</time></trkpt><trkpt lat="44.39081371103747" lon="11.588577667055974"><ele>70.6</ele><time>2026-04-04T13:31:10.001Z</time></trkpt><trkpt lat="44.390711037489574" lon="11.588577161470328"><ele>70.0</ele><time>2026-04-04T13:31:11.001Z</time></trkpt><trkpt lat="44.390605760663284" lon="11.588583117437938"><ele>70.75</ele><time>2026-04-04T13:31:12.001Z</time></trkpt><trkpt lat="44.39050098804253" lon="11.588590902239114"><ele>71.5</ele><time>2026-04-04T13:31:13.001Z</time></trkpt><trkpt lat="44.390392415442086" lon="11.588597782267051"><ele>72.25</ele><time>2026-04-04T13:31:14.001Z</time></trkpt><trkpt lat="44.390265743254176" lon="11.588600779361995"><ele>73.0</ele><time>2026-04-04T13:31:15.001Z</time></trkpt><trkpt lat="44.3901437037124" lon="11.588576785125559"><ele>73.0</ele><time>2026-04-04T13:31:16.001Z</time></trkpt><trkpt lat="44.39003440034213" lon="11.588536301286698"><ele>73.0</ele><time>2026-04-04T13:31:17.001Z</time></trkpt><trkpt lat="44.38991686595797" lon="11.588479067407473"><ele>73.0</ele><time>2026-04-04T13:31:18.001Z</time></trkpt><trkpt lat="44.38979668113794" lon="11.588417013788137"><ele>73.0</ele><time>2026-04-04T13:31:19.001Z</time></trkpt><trkpt lat="44.38968208716419" lon="11.58838230933229"><ele>72.4</ele><time>2026-04-04T13:31:20.001Z</time></trkpt><trkpt lat="44.38957312202461" lon="11.588335344671178"><ele>71.8</ele><time>2026-04-04T13:31:21.001Z</time></trkpt><trkpt lat="44.38946521055753" lon="11.58830496927495"><ele>71.2</ele><time>2026-04-04T13:31:22.001Z</time></trkpt><trkpt lat="44.38935704159418" lon="11.5882714630656"><ele>70.6</ele><time>2026-04-04T13:31:23.001Z</time></trkpt><trkpt lat="44.38924606406955" lon="11.58829751195664"><ele>70.0</ele><time>2026-04-04T13:31:24.001Z</time></trkpt><trkpt lat="44.38912338695299" lon="11.588287931593964"><ele>70.0</ele><time>2026-04-04T13:31:25.001Z</time></trkpt><trkpt lat="44.388993300585085" lon="11.588302368198109"><ele>70.0</ele><time>2026-04-04T13:31:26.001Z</time></trkpt><trkpt lat="44.388866848715445" lon="11.5883168713296"><ele>70.0</ele><time>2026-04-04T13:31:27.001Z</time></trkpt><trkpt lat="44.3887424052419" lon="11.588330455618145"><ele>70.0</ele><time>2026-04-04T13:31:28.001Z</time></trkpt><trkpt lat="44.38862029472333" lon="11.588343785240266"><ele>69.75</ele><time>2026-04-04T13:31:29.001Z</time></trkpt><trkpt lat="44.388505059068706" lon="11.588356364400424"><ele>69.5</ele><time>2026-04-04T13:31:30.001Z</time></trkpt><trkpt lat="44.388389187988224" lon="11.588367814762261"><ele>69.25</ele><time>2026-04-04T13:31:31.001Z</time></trkpt><trkpt lat="44.38826946139906" lon="11.588379541940908"><ele>69.0</ele><time>2026-04-04T13:31:32.001Z</time></trkpt><trkpt lat="44.38814210619414" lon="11.588392592598112"><ele>69.0</ele><time>2026-04-04T13:31:33.001Z</time></trkpt><trkpt lat="44.38802190904163" lon="11.588404880831497"><ele>69.0</ele><time>2026-04-04T13:31:34.001Z</time></trkpt><trkpt lat="44.38789648892495" lon="11.588417698472153"><ele>69.0</ele><time>2026-04-04T13:31:35.001Z</time></trkpt><trkpt lat="44.3877754640279" lon="11.588431258022473"><ele>69.0</ele><time>2026-04-04T13:31:36.001Z</time></trkpt><trkpt lat="44.38765088952322" lon="11.588445215275934"><ele>69.25</ele><time>2026-04-04T13:31:37.001Z</time></trkpt><trkpt lat="44.38751628332659" lon="11.588460296476157"><ele>69.5</ele><time>2026-04-04T13:31:38.001Z</time></trkpt><trkpt lat="44.3873721887082" lon="11.588475679705082"><ele>69.75</ele><time>2026-04-04T13:31:39.001Z</time></trkpt><trkpt lat="44.38721925669882" lon="11.588498114226343"><ele>70.0</ele><time>2026-04-04T13:31:40.001Z</time></trkpt><trkpt lat="44.38708442726514" lon="11.588516268481637"><ele>70.25</ele><time>2026-04-04T13:31:41.001Z</time></trkpt><trkpt lat="44.38696172369214" lon="11.588521580385557"><ele>70.5</ele><time>2026-04-04T13:31:41.999Z</time></trkpt><trkpt lat="44.38684966008209" lon="11.588519436813192"><ele>70.75</ele><time>2026-04-04T13:31:42.999Z</time></trkpt><trkpt lat="44.38674320415909" lon="11.588515391752345"><ele>71.0</ele><time>2026-04-04T13:31:43.999Z</time></trkpt><trkpt lat="44.38662628699451" lon="11.588511299963303"><ele>71.0</ele><time>2026-04-04T13:31:44.999Z</time></trkpt><trkpt lat="44.38650415801302" lon="11.588499373773114"><ele>71.0</ele><time>2026-04-04T13:31:45.999Z</time></trkpt><trkpt lat="44.38637674168146" lon="11.588493021839659"><ele>71.0</ele><time>2026-04-04T13:31:46.999Z</time></trkpt><trkpt lat="44.38625425889664" lon="11.588485789212603"><ele>71.0</ele><time>2026-04-04T13:31:47.999Z</time></trkpt><trkpt lat="44.386144898695925" lon="11.58847868899601"><ele>71.5</ele><time>2026-04-04T13:31:48.999Z</time></trkpt><trkpt lat="44.386028349820506" lon="11.588469305067617"><ele>72.0</ele><time>2026-04-04T13:31:49.999Z</time></trkpt><trkpt lat="44.385899188069004" lon="11.588464669170122"><ele>72.5</ele><time>2026-04-04T13:31:50.999Z</time></trkpt><trkpt lat="44.385774761137654" lon="11.58845251173477"><ele>73.0</ele><time>2026-04-04T13:31:51.999Z</time></trkpt><trkpt lat="44.38565639162061" lon="11.58845879172071"><ele>73.0</ele><time>2026-04-04T13:31:52.999Z</time></trkpt><trkpt lat="44.385548967559984" lon="11.588450171728184"><ele>73.0</ele><time>2026-04-04T13:31:53.999Z</time></trkpt><trkpt lat="44.38544748490899" lon="11.58844462982979"><ele>73.0</ele><time>2026-04-04T13:31:54.999Z</time></trkpt><trkpt lat="44.38534087950134" lon="11.58843713840696"><ele>73.0</ele><time>2026-04-04T13:31:55.999Z</time></trkpt><trkpt lat="44.38524221083204" lon="11.588426880079714"><ele>73.0</ele><time>2026-04-04T13:31:56.999Z</time></trkpt><trkpt lat="44.38514092089043" lon="11.588419914324692"><ele>73.0</ele><time>2026-04-04T13:31:57.999Z</time></trkpt><trkpt lat="44.38504427424773" lon="11.588416910751556"><ele>73.0</ele><time>2026-04-04T13:31:58.999Z</time></trkpt><trkpt lat="44.38494026824661" lon="11.588411947241193"><ele>73.0</ele><time>2026-04-04T13:31:59.999Z</time></trkpt><trkpt lat="44.3848378701498" lon="11.58838636046795"><ele>73.0</ele><time>2026-04-04T13:32:00.999Z</time></trkpt><trkpt lat="44.38474065846239" lon="11.588401599087398"><ele>73.0</ele><time>2026-04-04T13:32:01.999Z</time></trkpt><trkpt lat="44.384640707797715" lon="11.588394946437138"><ele>73.16666666666666</ele><time>2026-04-04T13:32:02.999Z</time></trkpt><trkpt lat="44.38454546090131" lon="11.588387307542133"><ele>73.33333333333333</ele><time>2026-04-04T13:32:03.999Z</time></trkpt><trkpt lat="44.3844620861618" lon="11.588377752597177"><ele>73.5</ele><time>2026-04-04T13:32:04.999Z</time></trkpt><trkpt lat="44.384376041515615" lon="11.588375916892245"><ele>73.66666666666667</ele><time>2026-04-04T13:32:05.999Z</time></trkpt><trkpt lat="44.38429052443964" lon="11.588371040934913"><ele>73.83333333333334</ele><time>2026-04-04T13:32:07Z</time></trkpt><trkpt lat="44.38419811007977" lon="11.588369810951544"><ele>74.0</ele><time>2026-04-04T13:32:08Z</time></trkpt><trkpt lat="44.384091776887104" lon="11.588364622572254"><ele>74.0</ele><time>2026-04-04T13:32:09Z</time></trkpt><trkpt lat="44.38395171014098" lon="11.588352348196313"><ele>74.0</ele><time>2026-04-04T13:32:10Z</time></trkpt><trkpt lat="44.38381636941839" lon="11.58834433279398"><ele>74.0</ele><time>2026-04-04T13:32:11Z</time></trkpt><trkpt lat="44.38368340459286" lon="11.588328672872594"><ele>74.0</ele><time>2026-04-04T13:32:12Z</time></trkpt><trkpt lat="44.383545834508325" lon="11.588323364813979"><ele>73.0</ele><time>2026-04-04T13:32:13Z</time></trkpt><trkpt lat="44.38338504115154" lon="11.588311621216269"><ele>72.0</ele><time>2026-04-04T13:32:14Z</time></trkpt><trkpt lat="44.38323056169898" lon="11.58830386927297"><ele>71.0</ele><time>2026-04-04T13:32:15Z</time></trkpt><trkpt lat="44.383095457687624" lon="11.588293524285014"><ele>70.75</ele><time>2026-04-04T13:32:16Z</time></trkpt><trkpt lat="44.38296072533168" lon="11.588288579687159"><ele>70.5</ele><time>2026-04-04T13:32:17Z</time></trkpt><trkpt lat="44.382835787739516" lon="11.588281617676296"><ele>70.25</ele><time>2026-04-04T13:32:18Z</time></trkpt><trkpt lat="44.3827212053456" lon="11.588274262815634"><ele>70.0</ele><time>2026-04-04T13:32:19Z</time></trkpt><trkpt lat="44.382617125125066" lon="11.58826847219468"><ele>70.0</ele><time>2026-04-04T13:32:20Z</time></trkpt><trkpt lat="44.38251026992965" lon="11.588261604199031"><ele>70.0</ele><time>2026-04-04T13:32:21Z</time></trkpt><trkpt lat="44.38238488063261" lon="11.588251445856514"><ele>70.0</ele><time>2026-04-04T13:32:22Z</time></trkpt><trkpt lat="44.382263909902505" lon="11.588243244982541"><ele>70.0</ele><time>2026-04-04T13:32:23Z</time></trkpt><trkpt lat="44.38213735524904" lon="11.588233038692328"><ele>70.5</ele><time>2026-04-04T13:32:24Z</time></trkpt><trkpt lat="44.382005637730956" lon="11.588224381013308"><ele>71.0</ele><time>2026-04-04T13:32:25Z</time></trkpt><trkpt lat="44.38187066790361" lon="11.588201579691525"><ele>71.5</ele><time>2026-04-04T13:32:26Z</time></trkpt><trkpt lat="44.38174008438792" lon="11.588170328919091"><ele>72.0</ele><time>2026-04-04T13:32:27Z</time></trkpt><trkpt lat="44.38161750248785" lon="11.588128034409108"><ele>72.0</ele><time>2026-04-04T13:32:28Z</time></trkpt><trkpt lat="44.381495629327404" lon="11.588079820380335"><ele>72.0</ele><time>2026-04-04T13:32:29Z</time></trkpt><trkpt lat="44.38137498054416" lon="11.588021991061582"><ele>72.0</ele><time>2026-04-04T13:32:30Z</time></trkpt><trkpt lat="44.3812533653316" lon="11.587943586027574"><ele>72.0</ele><time>2026-04-04T13:32:31Z</time></trkpt><trkpt lat="44.381139051227905" lon="11.58784737614597"><ele>72.5</ele><time>2026-04-04T13:32:32Z</time></trkpt><trkpt lat="44.381033473139105" lon="11.587745708128416"><ele>73.0</ele><time>2026-04-04T13:32:33Z</time></trkpt><trkpt lat="44.38093692052404" lon="11.587649990972883"><ele>73.5</ele><time>2026-04-04T13:32:34Z</time></trkpt><trkpt lat="44.380840587164194" lon="11.58755557522086"><ele>74.0</ele><time>2026-04-04T13:32:35Z</time></trkpt><trkpt lat="44.380738737715156" lon="11.587457257458036"><ele>74.0</ele><time>2026-04-04T13:32:36Z</time></trkpt><trkpt lat="44.380634098914186" lon="11.587359075094799"><ele>74.0</ele><time>2026-04-04T13:32:37Z</time></trkpt><trkpt lat="44.380532963624624" lon="11.587256050801464"><ele>74.0</ele><time>2026-04-04T13:32:38Z</time></trkpt><trkpt lat="44.38043777097092" lon="11.587159466405305"><ele>74.0</ele><time>2026-04-04T13:32:39Z</time></trkpt><trkpt lat="44.380354467824965" lon="11.587058876966191"><ele>74.5</ele><time>2026-04-04T13:32:40Z</time></trkpt><trkpt lat="44.38026682811474" lon="11.586946764944809"><ele>75.0</ele><time>2026-04-04T13:32:41Z</time></trkpt><trkpt lat="44.38019419579077" lon="11.586807986823645"><ele>75.5</ele><time>2026-04-04T13:32:42Z</time></trkpt><trkpt lat="44.38014557292338" lon="11.586644948679007"><ele>76.0</ele><time>2026-04-04T13:32:43Z</time></trkpt><trkpt lat="44.38011960113422" lon="11.586477213026592"><ele>76.0</ele><time>2026-04-04T13:32:44Z</time></trkpt><trkpt lat="44.38011619301936" lon="11.586293485100754"><ele>76.0</ele><time>2026-04-04T13:32:45Z</time></trkpt><trkpt lat="44.380133097377225" lon="11.586115470173514"><ele>76.0</ele><time>2026-04-04T13:32:46Z</time></trkpt><trkpt lat="44.3801661557986" lon="11.585950304755817"><ele>76.0</ele><time>2026-04-04T13:32:47Z</time></trkpt><trkpt lat="44.380206314207896" lon="11.585788074105874"><ele>75.75</ele><time>2026-04-04T13:32:48Z</time></trkpt><trkpt lat="44.38024432067138" lon="11.58562017994216"><ele>75.5</ele><time>2026-04-04T13:32:49Z</time></trkpt><trkpt lat="44.38028128357986" lon="11.585445061804363"><ele>75.25</ele><time>2026-04-04T13:32:50Z</time></trkpt><trkpt lat="44.380322517808715" lon="11.585258561073111"><ele>75.0</ele><time>2026-04-04T13:32:51.001Z</time></trkpt><trkpt lat="44.38036821051907" lon="11.585063926505825"><ele>75.25</ele><time>2026-04-04T13:32:52.001Z</time></trkpt><trkpt lat="44.380408749923454" lon="11.584876005925706"><ele>75.5</ele><time>2026-04-04T13:32:53.001Z</time></trkpt><trkpt lat="44.380446506818004" lon="11.58468183316235"><ele>75.75</ele><time>2026-04-04T13:32:54.001Z</time></trkpt><trkpt lat="44.380484097630905" lon="11.584481692063914"><ele>76.0</ele><time>2026-04-04T13:32:55.001Z</time></trkpt><trkpt lat="44.380526363582675" lon="11.584278049219906"><ele>76.0</ele><time>2026-04-04T13:32:56.001Z</time></trkpt><trkpt lat="44.3805749521435" lon="11.584070973017875"><ele>76.0</ele><time>2026-04-04T13:32:57.001Z</time></trkpt><trkpt lat="44.380606715704594" lon="11.583878506034814"><ele>76.0</ele><time>2026-04-04T13:32:58.001Z</time></trkpt><trkpt lat="44.380639161870455" lon="11.583707133077647"><ele>76.0</ele><time>2026-04-04T13:32:59.001Z</time></trkpt><trkpt lat="44.38067660767721" lon="11.583561695391076"><ele>76.5</ele><time>2026-04-04T13:33:00.001Z</time></trkpt><trkpt lat="44.3807018568441" lon="11.583403981703437"><ele>77.0</ele><time>2026-04-04T13:33:01.001Z</time></trkpt><trkpt lat="44.38073398095457" lon="11.583243141646978"><ele>77.5</ele><time>2026-04-04T13:33:02.001Z</time></trkpt><trkpt lat="44.38077234752349" lon="11.58307182912129"><ele>78.0</ele><time>2026-04-04T13:33:03.001Z</time></trkpt><trkpt lat="44.380814213852794" lon="11.58290403866344"><ele>78.5</ele><time>2026-04-04T13:33:04.001Z</time></trkpt><trkpt lat="44.38085159314248" lon="11.582742218631"><ele>79.0</ele><time>2026-04-04T13:33:05.001Z</time></trkpt><trkpt lat="44.380883181682854" lon="11.582570500693175"><ele>79.5</ele><time>2026-04-04T13:33:06.001Z</time></trkpt><trkpt lat="44.38092261103767" lon="11.58238810762584"><ele>80.0</ele><time>2026-04-04T13:33:07.001Z</time></trkpt><trkpt lat="44.380962028424925" lon="11.582207348537924"><ele>80.0</ele><time>2026-04-04T13:33:08.001Z</time></trkpt><trkpt lat="44.38100263838846" lon="11.582038769127797"><ele>80.0</ele><time>2026-04-04T13:33:09.001Z</time></trkpt><trkpt lat="44.381030185990255" lon="11.581886050259977"><ele>80.0</ele><time>2026-04-04T13:33:10.001Z</time></trkpt><trkpt lat="44.38106293636602" lon="11.581735962339062"><ele>80.0</ele><time>2026-04-04T13:33:11.001Z</time></trkpt><trkpt lat="44.38109497025342" lon="11.581579442161734"><ele>80.8</ele><time>2026-04-04T13:33:12.001Z</time></trkpt><trkpt lat="44.38112786724203" lon="11.581418478739677"><ele>81.6</ele><time>2026-04-04T13:33:13.001Z</time></trkpt><trkpt lat="44.38116198888104" lon="11.581263427078065"><ele>82.4</ele><time>2026-04-04T13:33:14.001Z</time></trkpt><trkpt lat="44.38119041842323" lon="11.581122616009132"><ele>83.2</ele><time>2026-04-04T13:33:15.001Z</time></trkpt><trkpt lat="44.38121534954416" lon="11.580994144362673"><ele>84.0</ele><time>2026-04-04T13:33:16.001Z</time></trkpt><trkpt lat="44.381237212537904" lon="11.580875091889382"><ele>84.16666666666667</ele><time>2026-04-04T13:33:17.001Z</time></trkpt><trkpt lat="44.38126091984325" lon="11.580771926874336"><ele>84.33333333333333</ele><time>2026-04-04T13:33:18.001Z</time></trkpt><trkpt lat="44.38128457974216" lon="11.580689283498906"><ele>84.5</ele><time>2026-04-04T13:33:19.001Z</time></trkpt><trkpt lat="44.38133345748575" lon="11.580557564543115"><ele>84.66666666666666</ele><time>2026-04-04T13:33:21.001Z</time></trkpt><trkpt lat="44.381336209959564" lon="11.58046261310725"><ele>84.83333333333333</ele><time>2026-04-04T13:33:23.001Z</time></trkpt><trkpt lat="44.38135614507501" lon="11.580375169277822"><ele>85.0</ele><time>2026-04-04T13:33:27.001Z</time></trkpt><trkpt lat="44.38130672837478" lon="11.580248265584917"><ele>85.4</ele><time>2026-04-04T13:33:30.001Z</time></trkpt><trkpt lat="44.38122471370827" lon="11.580232894452564"><ele>85.8</ele><time>2026-04-04T13:33:31.001Z</time></trkpt><trkpt lat="44.38113773106794" lon="11.580216797620078"><ele>86.19999999999999</ele><time>2026-04-04T13:33:32.001Z</time></trkpt><trkpt lat="44.38103773423159" lon="11.580187668836501"><ele>86.6</ele><time>2026-04-04T13:33:33.001Z</time></trkpt><trkpt lat="44.38092465100617" lon="11.580146805783746"><ele>87.0</ele><time>2026-04-04T13:33:34.001Z</time></trkpt><trkpt lat="44.380793357182924" lon="11.580106061541082"><ele>87.0</ele><time>2026-04-04T13:33:35.001Z</time></trkpt><trkpt lat="44.38066174421177" lon="11.58006505666937"><ele>87.0</ele><time>2026-04-04T13:33:36.001Z</time></trkpt><trkpt lat="44.38052292443444" lon="11.580024077315391"><ele>87.0</ele><time>2026-04-04T13:33:37.001Z</time></trkpt><trkpt lat="44.380372257956445" lon="11.579978398199922"><ele>87.0</ele><time>2026-04-04T13:33:38.001Z</time></trkpt><trkpt lat="44.3802239040282" lon="11.579934650080839"><ele>87.0</ele><time>2026-04-04T13:33:39.001Z</time></trkpt><trkpt lat="44.38007223471563" lon="11.579884979748597"><ele>87.0</ele><time>2026-04-04T13:33:40.001Z</time></trkpt><trkpt lat="44.37990857530694" lon="11.57983339383524"><ele>87.0</ele><time>2026-04-04T13:33:41.001Z</time></trkpt><trkpt lat="44.37973618185229" lon="11.579781957629113"><ele>87.33333333333333</ele><time>2026-04-04T13:33:42.001Z</time></trkpt><trkpt lat="44.37956108797238" lon="11.579732026168607"><ele>87.66666666666666</ele><time>2026-04-04T13:33:43.001Z</time></trkpt><trkpt lat="44.379400087779565" lon="11.579680261268082"><ele>88.0</ele><time>2026-04-04T13:33:44.002Z</time></trkpt><trkpt lat="44.37924919151647" lon="11.57962844232272"><ele>88.0</ele><time>2026-04-04T13:33:45.002Z</time></trkpt><trkpt lat="44.379107778743794" lon="11.579575422743725"><ele>88.0</ele><time>2026-04-04T13:33:46.002Z</time></trkpt><trkpt lat="44.37897682940815" lon="11.579527422658687"><ele>88.0</ele><time>2026-04-04T13:33:47.002Z</time></trkpt><trkpt lat="44.378855030655885" lon="11.579479657081201"><ele>88.0</ele><time>2026-04-04T13:33:47.999Z</time></trkpt><trkpt lat="44.37874236320391" lon="11.579435593554853"><ele>88.25</ele><time>2026-04-04T13:33:48.999Z</time></trkpt><trkpt lat="44.378630496328306" lon="11.57938846022499"><ele>88.5</ele><time>2026-04-04T13:33:49.999Z</time></trkpt><trkpt lat="44.37851214060599" lon="11.5793445636529"><ele>88.75</ele><time>2026-04-04T13:33:50.999Z</time></trkpt><trkpt lat="44.37839263888185" lon="11.579298396904466"><ele>89.0</ele><time>2026-04-04T13:33:51.999Z</time></trkpt><trkpt lat="44.37826951192411" lon="11.579270377459496"><ele>89.0</ele><time>2026-04-04T13:33:53Z</time></trkpt><trkpt lat="44.378142052986455" lon="11.579230483047612"><ele>89.0</ele><time>2026-04-04T13:33:54Z</time></trkpt><trkpt lat="44.37801587019039" lon="11.579182019689595"><ele>89.0</ele><time>2026-04-04T13:33:55Z</time></trkpt><trkpt lat="44.37788821924253" lon="11.579143327051582"><ele>89.0</ele><time>2026-04-04T13:33:56Z</time></trkpt><trkpt lat="44.377760971574695" lon="11.579100956867034"><ele>89.0</ele><time>2026-04-04T13:33:57Z</time></trkpt><trkpt lat="44.37762745858527" lon="11.579061805881569"><ele>89.0</ele><time>2026-04-04T13:33:58Z</time></trkpt><trkpt lat="44.37748327712403" lon="11.579017138090352"><ele>89.0</ele><time>2026-04-04T13:33:59Z</time></trkpt><trkpt lat="44.37733047701467" lon="11.578976553595808"><ele>89.0</ele><time>2026-04-04T13:34:00Z</time></trkpt><trkpt lat="44.377175705792745" lon="11.578930150270761"><ele>89.33333333333334</ele><time>2026-04-04T13:34:01Z</time></trkpt><trkpt lat="44.377025839838694" lon="11.578852336947845"><ele>89.66666666666667</ele><time>2026-04-04T13:34:02Z</time></trkpt><trkpt lat="44.376876263678696" lon="11.578803443223974"><ele>90.0</ele><time>2026-04-04T13:34:03Z</time></trkpt><trkpt lat="44.37672491335532" lon="11.578775204094308"><ele>90.0</ele><time>2026-04-04T13:34:04Z</time></trkpt><trkpt lat="44.37658327878783" lon="11.578718953262122"><ele>90.0</ele><time>2026-04-04T13:34:05Z</time></trkpt><trkpt lat="44.37643537393315" lon="11.57866698582944"><ele>90.0</ele><time>2026-04-04T13:34:06Z</time></trkpt><trkpt lat="44.376296674115416" lon="11.578619837779858"><ele>90.0</ele><time>2026-04-04T13:34:07Z</time></trkpt><trkpt lat="44.376159870583564" lon="11.578579283575886"><ele>91.25</ele><time>2026-04-04T13:34:08Z</time></trkpt><trkpt lat="44.37602671924064" lon="11.578532748469266"><ele>92.5</ele><time>2026-04-04T13:34:09Z</time></trkpt><trkpt lat="44.37589404598019" lon="11.578494442487784"><ele>93.75</ele><time>2026-04-04T13:34:10Z</time></trkpt><trkpt lat="44.37575781992553" lon="11.578451811646499"><ele>95.0</ele><time>2026-04-04T13:34:11Z</time></trkpt><trkpt lat="44.37562652852609" lon="11.578396762381718"><ele>95.33333333333334</ele><time>2026-04-04T13:34:12Z</time></trkpt><trkpt lat="44.3754798848891" lon="11.578327392191092"><ele>95.66666666666667</ele><time>2026-04-04T13:34:13Z</time></trkpt><trkpt lat="44.375337655839196" lon="11.578238624099402"><ele>96.0</ele><time>2026-04-04T13:34:14Z</time></trkpt><trkpt lat="44.37518809792333" lon="11.578158349452638"><ele>96.0</ele><time>2026-04-04T13:34:15Z</time></trkpt><trkpt lat="44.37503066926083" lon="11.578068981212827"><ele>96.0</ele><time>2026-04-04T13:34:16Z</time></trkpt><trkpt lat="44.37487009769707" lon="11.577979161194847"><ele>96.0</ele><time>2026-04-04T13:34:17Z</time></trkpt><trkpt lat="44.37470097117778" lon="11.577884241484929"><ele>96.0</ele><time>2026-04-04T13:34:18Z</time></trkpt><trkpt lat="44.37452649190038" lon="11.577787864895"><ele>96.0</ele><time>2026-04-04T13:34:19Z</time></trkpt><trkpt lat="44.374349585949105" lon="11.57768978271991"><ele>96.0</ele><time>2026-04-04T13:34:20Z</time></trkpt><trkpt lat="44.374172746654864" lon="11.577594019699164"><ele>96.0</ele><time>2026-04-04T13:34:21Z</time></trkpt><trkpt lat="44.37400330612016" lon="11.57749959737666"><ele>96.0</ele><time>2026-04-04T13:34:22Z</time></trkpt><trkpt lat="44.373833782899716" lon="11.577405021507566"><ele>96.0</ele><time>2026-04-04T13:34:23Z</time></trkpt><trkpt lat="44.3736623965957" lon="11.577311113471138"><ele>96.66666666666666</ele><time>2026-04-04T13:34:24Z</time></trkpt><trkpt lat="44.37349029695496" lon="11.577208546019627"><ele>97.33333333333333</ele><time>2026-04-04T13:34:25Z</time></trkpt><trkpt lat="44.3733259245797" lon="11.577104459896288"><ele>98.0</ele><time>2026-04-04T13:34:26Z</time></trkpt><trkpt lat="44.37316424072128" lon="11.576998990101522"><ele>97.66666666666666</ele><time>2026-04-04T13:34:27Z</time></trkpt><trkpt lat="44.37300037243665" lon="11.576899132212803"><ele>97.33333333333334</ele><time>2026-04-04T13:34:28Z</time></trkpt><trkpt lat="44.37283477942322" lon="11.576816842384503"><ele>97.0</ele><time>2026-04-04T13:34:29Z</time></trkpt><trkpt lat="44.3726573433247" lon="11.576751480795645"><ele>97.0</ele><time>2026-04-04T13:34:30Z</time></trkpt><trkpt lat="44.37246973131639" lon="11.576721148354427"><ele>97.0</ele><time>2026-04-04T13:34:31Z</time></trkpt><trkpt lat="44.37228413405927" lon="11.576704065845338"><ele>97.0</ele><time>2026-04-04T13:34:32Z</time></trkpt><trkpt lat="44.372094969184836" lon="11.576663478589909"><ele>97.0</ele><time>2026-04-04T13:34:33Z</time></trkpt><trkpt lat="44.3719087721579" lon="11.576631484915474"><ele>97.0</ele><time>2026-04-04T13:34:34Z</time></trkpt><trkpt lat="44.37172735799011" lon="11.576594895162172"><ele>97.0</ele><time>2026-04-04T13:34:35Z</time></trkpt><trkpt lat="44.37154285288698" lon="11.576579716809666"><ele>97.0</ele><time>2026-04-04T13:34:36Z</time></trkpt><trkpt lat="44.37136218978567" lon="11.576540626806155"><ele>97.0</ele><time>2026-04-04T13:34:37Z</time></trkpt><trkpt lat="44.37119093947001" lon="11.576479072226606"><ele>97.0</ele><time>2026-04-04T13:34:38.001Z</time></trkpt><trkpt lat="44.37102069836234" lon="11.57644617140005"><ele>97.33333333333334</ele><time>2026-04-04T13:34:39.001Z</time></trkpt><trkpt lat="44.37084465229077" lon="11.576439694048425"><ele>97.66666666666666</ele><time>2026-04-04T13:34:40.001Z</time></trkpt><trkpt lat="44.37068171965127" lon="11.576394672156066"><ele>98.0</ele><time>2026-04-04T13:34:41.001Z</time></trkpt><trkpt lat="44.370523511347386" lon="11.57637409132798"><ele>97.5</ele><time>2026-04-04T13:34:42.001Z</time></trkpt><trkpt lat="44.370371251865514" lon="11.576365308311502"><ele>97.0</ele><time>2026-04-04T13:34:43.001Z</time></trkpt><trkpt lat="44.370225330433556" lon="11.576374609900913"><ele>96.5</ele><time>2026-04-04T13:34:44.001Z</time></trkpt><trkpt lat="44.37008293386151" lon="11.576414978883284"><ele>96.0</ele><time>2026-04-04T13:34:45.001Z</time></trkpt><trkpt lat="44.36994993703294" lon="11.576401290063004"><ele>96.0</ele><time>2026-04-04T13:34:46.001Z</time></trkpt><trkpt lat="44.369806887728885" lon="11.576383322767244"><ele>96.0</ele><time>2026-04-04T13:34:47.001Z</time></trkpt><trkpt lat="44.369649090714404" lon="11.576347117123706"><ele>96.0</ele><time>2026-04-04T13:34:48.001Z</time></trkpt><trkpt lat="44.369495931626275" lon="11.57622957730413"><ele>94.66666666666667</ele><time>2026-04-04T13:34:49.001Z</time></trkpt><trkpt lat="44.36933173666982" lon="11.576108688873896"><ele>93.33333333333334</ele><time>2026-04-04T13:34:50.001Z</time></trkpt><trkpt lat="44.36914545262904" lon="11.575964373746991"><ele>92.0</ele><time>2026-04-04T13:34:51.001Z</time></trkpt><trkpt lat="44.3689575208949" lon="11.575817712108545"><ele>93.66666666666667</ele><time>2026-04-04T13:34:52.001Z</time></trkpt><trkpt lat="44.36879461635654" lon="11.575690405486739"><ele>95.33333333333334</ele><time>2026-04-04T13:34:53.001Z</time></trkpt><trkpt lat="44.368643300176146" lon="11.575571863085905"><ele>97.0</ele><time>2026-04-04T13:34:54.001Z</time></trkpt><trkpt lat="44.368505682527136" lon="11.575464052174047"><ele>97.0</ele><time>2026-04-04T13:34:55.001Z</time></trkpt><trkpt lat="44.36836866569486" lon="11.575359325290206"><ele>97.0</ele><time>2026-04-04T13:34:56.001Z</time></trkpt><trkpt lat="44.368231376972304" lon="11.575256567859686"><ele>97.0</ele><time>2026-04-04T13:34:57.001Z</time></trkpt><trkpt lat="44.368085140869994" lon="11.575185813172245"><ele>97.33333333333334</ele><time>2026-04-04T13:34:58.001Z</time></trkpt><trkpt lat="44.36794188427903" lon="11.575089591115406"><ele>97.66666666666666</ele><time>2026-04-04T13:34:59.001Z</time></trkpt><trkpt lat="44.36778228818986" lon="11.57503704614662"><ele>98.0</ele><time>2026-04-04T13:35:00.001Z</time></trkpt><trkpt lat="44.36761297430814" lon="11.574989324917441"><ele>98.0</ele><time>2026-04-04T13:35:01.001Z</time></trkpt><trkpt lat="44.3674566640563" lon="11.574936160336499"><ele>98.0</ele><time>2026-04-04T13:35:02.001Z</time></trkpt><trkpt lat="44.367309562910705" lon="11.574854130360213"><ele>98.0</ele><time>2026-04-04T13:35:03.001Z</time></trkpt><trkpt lat="44.367154452005096" lon="11.57473608515752"><ele>98.0</ele><time>2026-04-04T13:35:04.001Z</time></trkpt><trkpt lat="44.367002344121" lon="11.574579289390982"><ele>98.0</ele><time>2026-04-04T13:35:05.001Z</time></trkpt><trkpt lat="44.36685030537689" lon="11.574434637500962"><ele>98.0</ele><time>2026-04-04T13:35:06.001Z</time></trkpt><trkpt lat="44.366731988812646" lon="11.574287840528777"><ele>99.0</ele><time>2026-04-04T13:35:07.001Z</time></trkpt><trkpt lat="44.366605965600456" lon="11.574143388501694"><ele>100.0</ele><time>2026-04-04T13:35:08.001Z</time></trkpt><trkpt lat="44.366475441255346" lon="11.573993770027002"><ele>101.0</ele><time>2026-04-04T13:35:09.001Z</time></trkpt><trkpt lat="44.366341712407255" lon="11.573849670086991"><ele>101.33333333333333</ele><time>2026-04-04T13:35:10.001Z</time></trkpt><trkpt lat="44.366199595126986" lon="11.573712014103743"><ele>101.66666666666666</ele><time>2026-04-04T13:35:11.001Z</time></trkpt><trkpt lat="44.36604518694472" lon="11.573596153100103"><ele>102.0</ele><time>2026-04-04T13:35:12.001Z</time></trkpt><trkpt lat="44.365866594496936" lon="11.573519299894054"><ele>103.0</ele><time>2026-04-04T13:35:13.001Z</time></trkpt><trkpt lat="44.36567322551452" lon="11.573482432223644"><ele>104.0</ele><time>2026-04-04T13:35:14.001Z</time></trkpt><trkpt lat="44.36547723469071" lon="11.573468850421873"><ele>105.0</ele><time>2026-04-04T13:35:15.001Z</time></trkpt><trkpt lat="44.36528170551927" lon="11.573460164461174"><ele>105.66666666666666</ele><time>2026-04-04T13:35:16.001Z</time></trkpt><trkpt lat="44.36509596097138" lon="11.573442667578249"><ele>106.33333333333333</ele><time>2026-04-04T13:35:17.001Z</time></trkpt><trkpt lat="44.3649222370456" lon="11.573412943522701"><ele>107.0</ele><time>2026-04-04T13:35:18.001Z</time></trkpt><trkpt lat="44.36475366713328" lon="11.573361820102784"><ele>107.33333333333333</ele><time>2026-04-04T13:35:19.001Z</time></trkpt><trkpt lat="44.36457779333106" lon="11.573331004421679"><ele>107.66666666666666</ele><time>2026-04-04T13:35:20.001Z</time></trkpt><trkpt lat="44.3644080123762" lon="11.573296322724199"><ele>108.0</ele><time>2026-04-04T13:35:21.001Z</time></trkpt><trkpt lat="44.364247185121265" lon="11.573291015137784"><ele>108.0</ele><time>2026-04-04T13:35:22.001Z</time></trkpt><trkpt lat="44.364102736646835" lon="11.573272044333613"><ele>108.0</ele><time>2026-04-04T13:35:23.001Z</time></trkpt><trkpt lat="44.3639684615027" lon="11.573266220663728"><ele>108.0</ele><time>2026-04-04T13:35:24.001Z</time></trkpt><trkpt lat="44.363839038182554" lon="11.573250156401238"><ele>108.0</ele><time>2026-04-04T13:35:25.001Z</time></trkpt><trkpt lat="44.36371958177988" lon="11.573247831244725"><ele>106.5</ele><time>2026-04-04T13:35:26.001Z</time></trkpt><trkpt lat="44.36359914942143" lon="11.573252635956793"><ele>105.0</ele><time>2026-04-04T13:35:27.002Z</time></trkpt><trkpt lat="44.3634824074929" lon="11.573176333579063"><ele>103.5</ele><time>2026-04-04T13:35:28.002Z</time></trkpt><trkpt lat="44.36337434510718" lon="11.57306062949303"><ele>102.0</ele><time>2026-04-04T13:35:29.002Z</time></trkpt><trkpt lat="44.36328377088526" lon="11.572905566713914"><ele>103.66666666666666</ele><time>2026-04-04T13:35:30.002Z</time></trkpt><trkpt lat="44.363212674874546" lon="11.572712592467166"><ele>105.33333333333333</ele><time>2026-04-04T13:35:31.002Z</time></trkpt><trkpt lat="44.363157137644784" lon="11.5725001245138"><ele>107.0</ele><time>2026-04-04T13:35:32.002Z</time></trkpt><trkpt lat="44.36310415381429" lon="11.572297609809816"><ele>107.0</ele><time>2026-04-04T13:35:33.002Z</time></trkpt><trkpt lat="44.363038508056036" lon="11.572088583693356"><ele>107.0</ele><time>2026-04-04T13:35:34.002Z</time></trkpt><trkpt lat="44.362973053628664" lon="11.57186754440662"><ele>107.0</ele><time>2026-04-04T13:35:35.002Z</time></trkpt><trkpt lat="44.36290777264271" lon="11.571642354742766"><ele>107.0</ele><time>2026-04-04T13:35:36.002Z</time></trkpt><trkpt lat="44.36283987874426" lon="11.57141652909333"><ele>107.0</ele><time>2026-04-04T13:35:37.002Z</time></trkpt><trkpt lat="44.3627652339388" lon="11.571196446432811"><ele>107.0</ele><time>2026-04-04T13:35:38.002Z</time></trkpt><trkpt lat="44.36270956427045" lon="11.571001852088632"><ele>107.0</ele><time>2026-04-04T13:35:39.002Z</time></trkpt><trkpt lat="44.36265313576442" lon="11.57082173295225"><ele>107.0</ele><time>2026-04-04T13:35:40.002Z</time></trkpt><trkpt lat="44.36257837421951" lon="11.570656451561469"><ele>107.0</ele><time>2026-04-04T13:35:41.002Z</time></trkpt><trkpt lat="44.36248334575735" lon="11.570512759993049"><ele>107.0</ele><time>2026-04-04T13:35:42.002Z</time></trkpt><trkpt lat="44.36236468075369" lon="11.570374664641253"><ele>106.5</ele><time>2026-04-04T13:35:43.002Z</time></trkpt><trkpt lat="44.36223927723478" lon="11.570262396196178"><ele>106.0</ele><time>2026-04-04T13:35:44.002Z</time></trkpt><trkpt lat="44.36212108515629" lon="11.570173259995734"><ele>105.5</ele><time>2026-04-04T13:35:45.002Z</time></trkpt><trkpt lat="44.362007888396654" lon="11.570100332376418"><ele>105.0</ele><time>2026-04-04T13:35:46.002Z</time></trkpt><trkpt lat="44.361899011516414" lon="11.57002835425385"><ele>105.0</ele><time>2026-04-04T13:35:47.002Z</time></trkpt><trkpt lat="44.361805081751186" lon="11.569968319285541"><ele>105.0</ele><time>2026-04-04T13:35:48.002Z</time></trkpt><trkpt lat="44.361720122186554" lon="11.56989158517657"><ele>105.0</ele><time>2026-04-04T13:35:49.002Z</time></trkpt><trkpt lat="44.36164745757861" lon="11.569792611135536"><ele>105.0</ele><time>2026-04-04T13:35:50.002Z</time></trkpt><trkpt lat="44.36157923468551" lon="11.569655473240617"><ele>105.0</ele><time>2026-04-04T13:35:51.002Z</time></trkpt><trkpt lat="44.36152183340103" lon="11.569489448229014"><ele>107.0</ele><time>2026-04-04T13:35:52.002Z</time></trkpt><trkpt lat="44.361475479926035" lon="11.569290467260215"><ele>109.0</ele><time>2026-04-04T13:35:53.002Z</time></trkpt><trkpt lat="44.36143790999994" lon="11.569093434869503"><ele>111.0</ele><time>2026-04-04T13:35:54Z</time></trkpt><trkpt lat="44.3613819107" lon="11.568905714775006"><ele>113.0</ele><time>2026-04-04T13:35:55Z</time></trkpt><trkpt lat="44.36130892903312" lon="11.568706528596305"><ele>109.33333333333333</ele><time>2026-04-04T13:35:56Z</time></trkpt><trkpt lat="44.36122524639771" lon="11.568514444180133"><ele>105.66666666666666</ele><time>2026-04-04T13:35:57Z</time></trkpt><trkpt lat="44.361124600115154" lon="11.56834770391284"><ele>102.0</ele><time>2026-04-04T13:35:58Z</time></trkpt><trkpt lat="44.36102280557638" lon="11.568201613295184"><ele>102.0</ele><time>2026-04-04T13:35:59Z</time></trkpt><trkpt lat="44.36092170784641" lon="11.568060409422058"><ele>102.0</ele><time>2026-04-04T13:36:00Z</time></trkpt><trkpt lat="44.36083228371881" lon="11.567925859813"><ele>102.0</ele><time>2026-04-04T13:36:01Z</time></trkpt><trkpt lat="44.360746346339134" lon="11.567790077253251"><ele>102.0</ele><time>2026-04-04T13:36:02Z</time></trkpt><trkpt lat="44.360659670843674" lon="11.567657181003925"><ele>101.75</ele><time>2026-04-04T13:36:03Z</time></trkpt><trkpt lat="44.360578535301684" lon="11.567528492704852"><ele>101.5</ele><time>2026-04-04T13:36:04Z</time></trkpt><trkpt lat="44.36049296123413" lon="11.567421391548177"><ele>101.25</ele><time>2026-04-04T13:36:05Z</time></trkpt><trkpt lat="44.36039668992206" lon="11.56733157635499"><ele>101.0</ele><time>2026-04-04T13:36:06Z</time></trkpt><trkpt lat="44.36028590948558" lon="11.567257672010111"><ele>100.0</ele><time>2026-04-04T13:36:07Z</time></trkpt><trkpt lat="44.36015999785121" lon="11.567203654584569"><ele>99.0</ele><time>2026-04-04T13:36:08Z</time></trkpt><trkpt lat="44.36002105125389" lon="11.56714754880136"><ele>98.0</ele><time>2026-04-04T13:36:09Z</time></trkpt><trkpt lat="44.35988122153299" lon="11.567105880111303"><ele>97.0</ele><time>2026-04-04T13:36:10Z</time></trkpt><trkpt lat="44.35975847459019" lon="11.567067740155874"><ele>96.5</ele><time>2026-04-04T13:36:11Z</time></trkpt><trkpt lat="44.35963859353748" lon="11.567028677555074"><ele>96.0</ele><time>2026-04-04T13:36:12Z</time></trkpt><trkpt lat="44.35952582815243" lon="11.566992393864364"><ele>95.5</ele><time>2026-04-04T13:36:13Z</time></trkpt><trkpt lat="44.35941152206912" lon="11.566957316465988"><ele>95.0</ele><time>2026-04-04T13:36:14Z</time></trkpt><trkpt lat="44.359292175089834" lon="11.566917998474805"><ele>95.25</ele><time>2026-04-04T13:36:15Z</time></trkpt><trkpt lat="44.35916916655987" lon="11.566883034158765"><ele>95.5</ele><time>2026-04-04T13:36:16Z</time></trkpt><trkpt lat="44.359037568447775" lon="11.566872771003686"><ele>95.75</ele><time>2026-04-04T13:36:17Z</time></trkpt><trkpt lat="44.3589062301061" lon="11.566872906832627"><ele>96.0</ele><time>2026-04-04T13:36:18Z</time></trkpt><trkpt lat="44.358765543113954" lon="11.566877002208996"><ele>96.0</ele><time>2026-04-04T13:36:19Z</time></trkpt><trkpt lat="44.3586174497527" lon="11.5668605180569"><ele>96.0</ele><time>2026-04-04T13:36:20Z</time></trkpt><trkpt lat="44.35848420359701" lon="11.566888666915151"><ele>96.0</ele><time>2026-04-04T13:36:21Z</time></trkpt><trkpt lat="44.358353371142755" lon="11.566883481780016"><ele>96.0</ele><time>2026-04-04T13:36:22Z</time></trkpt><trkpt lat="44.35822182331546" lon="11.566892641448128"><ele>96.0</ele><time>2026-04-04T13:36:23Z</time></trkpt><trkpt lat="44.35808987733861" lon="11.566861571468756"><ele>96.0</ele><time>2026-04-04T13:36:24Z</time></trkpt><trkpt lat="44.35795683722581" lon="11.566831751810735"><ele>96.0</ele><time>2026-04-04T13:36:25Z</time></trkpt><trkpt lat="44.35784525439313" lon="11.56677465381502"><ele>96.0</ele><time>2026-04-04T13:36:26Z</time></trkpt><trkpt lat="44.357732124666725" lon="11.566722298022476"><ele>96.25</ele><time>2026-04-04T13:36:27Z</time></trkpt><trkpt lat="44.3576292209897" lon="11.566627955267633"><ele>96.5</ele><time>2026-04-04T13:36:28Z</time></trkpt><trkpt lat="44.357531100470105" lon="11.566517153268574"><ele>96.75</ele><time>2026-04-04T13:36:29Z</time></trkpt><trkpt lat="44.35743707018354" lon="11.56640018123462"><ele>97.0</ele><time>2026-04-04T13:36:30.001Z</time></trkpt><trkpt lat="44.357338579437084" lon="11.566282825988901"><ele>96.5</ele><time>2026-04-04T13:36:31.001Z</time></trkpt><trkpt lat="44.357238530525144" lon="11.566168249016666"><ele>96.0</ele><time>2026-04-04T13:36:32.001Z</time></trkpt><trkpt lat="44.35714766719382" lon="11.56605918247603"><ele>95.5</ele><time>2026-04-04T13:36:33.001Z</time></trkpt><trkpt lat="44.3570562833794" lon="11.565950633138371"><ele>95.0</ele><time>2026-04-04T13:36:34.001Z</time></trkpt><trkpt lat="44.35696574383522" lon="11.565843897928515"><ele>95.0</ele><time>2026-04-04T13:36:35.001Z</time></trkpt><trkpt lat="44.356876379096605" lon="11.56574131819405"><ele>95.0</ele><time>2026-04-04T13:36:36.001Z</time></trkpt><trkpt lat="44.35678430279" lon="11.565638215424876"><ele>95.0</ele><time>2026-04-04T13:36:37.001Z</time></trkpt><trkpt lat="44.35669900506038" lon="11.565540180768489"><ele>95.0</ele><time>2026-04-04T13:36:38.001Z</time></trkpt><trkpt lat="44.3566099627119" lon="11.56543880058755"><ele>95.25</ele><time>2026-04-04T13:36:39.001Z</time></trkpt><trkpt lat="44.356518830083644" lon="11.565336289334569"><ele>95.5</ele><time>2026-04-04T13:36:40.001Z</time></trkpt><trkpt lat="44.35642661463117" lon="11.565229487464086"><ele>95.75</ele><time>2026-04-04T13:36:41.001Z</time></trkpt><trkpt lat="44.35633173574454" lon="11.565120078935983"><ele>96.0</ele><time>2026-04-04T13:36:42.001Z</time></trkpt><trkpt lat="44.35623606517246" lon="11.565012484344884"><ele>96.0</ele><time>2026-04-04T13:36:43.001Z</time></trkpt><trkpt lat="44.35614073518799" lon="11.564895006258661"><ele>96.0</ele><time>2026-04-04T13:36:44.001Z</time></trkpt><trkpt lat="44.35604991471662" lon="11.564767807670876"><ele>96.0</ele><time>2026-04-04T13:36:45.001Z</time></trkpt><trkpt lat="44.35596061083342" lon="11.564641416058837"><ele>96.0</ele><time>2026-04-04T13:36:46.001Z</time></trkpt><trkpt lat="44.35587546093246" lon="11.564506478164242"><ele>96.25</ele><time>2026-04-04T13:36:47.001Z</time></trkpt><trkpt lat="44.35579399596095" lon="11.564368557861583"><ele>96.5</ele><time>2026-04-04T13:36:48.001Z</time></trkpt><trkpt lat="44.35571199293973" lon="11.564241850098274"><ele>96.75</ele><time>2026-04-04T13:36:49.001Z</time></trkpt><trkpt lat="44.35562129580566" lon="11.564119806667255"><ele>97.0</ele><time>2026-04-04T13:36:50.001Z</time></trkpt><trkpt lat="44.35552446365272" lon="11.56400935726039"><ele>97.0</ele><time>2026-04-04T13:36:51.001Z</time></trkpt><trkpt lat="44.355419754445236" lon="11.56391418174374"><ele>97.0</ele><time>2026-04-04T13:36:52.001Z</time></trkpt><trkpt lat="44.35530188574276" lon="11.563841758604768"><ele>97.0</ele><time>2026-04-04T13:36:53.001Z</time></trkpt><trkpt lat="44.35517946500192" lon="11.563799944347492"><ele>97.0</ele><time>2026-04-04T13:36:54.001Z</time></trkpt><trkpt lat="44.35506243497455" lon="11.56377991590568"><ele>97.0</ele><time>2026-04-04T13:36:55.001Z</time></trkpt><trkpt lat="44.354959562678225" lon="11.563772389259624"><ele>97.0</ele><time>2026-04-04T13:36:56.001Z</time></trkpt><trkpt lat="44.35486160674226" lon="11.563763280638428"><ele>97.0</ele><time>2026-04-04T13:36:57.001Z</time></trkpt><trkpt lat="44.354756193060716" lon="11.563755661847967"><ele>97.0</ele><time>2026-04-04T13:36:58.001Z</time></trkpt><trkpt lat="44.35464950877881" lon="11.56373314708826"><ele>97.0</ele><time>2026-04-04T13:36:59.001Z</time></trkpt><trkpt lat="44.35453967123195" lon="11.563704813402376"><ele>97.16666666666667</ele><time>2026-04-04T13:37:00.001Z</time></trkpt><trkpt lat="44.35443878052807" lon="11.56368040200029"><ele>97.33333333333334</ele><time>2026-04-04T13:37:01.001Z</time></trkpt><trkpt lat="44.35434631025357" lon="11.563657036011563"><ele>97.5</ele><time>2026-04-04T13:37:02.001Z</time></trkpt><trkpt lat="44.35425143638022" lon="11.563635154351283"><ele>97.66666666666666</ele><time>2026-04-04T13:37:03.001Z</time></trkpt><trkpt lat="44.35416725766434" lon="11.563607776769462"><ele>97.83333333333333</ele><time>2026-04-04T13:37:04.001Z</time></trkpt><trkpt lat="44.35409883313402" lon="11.563591737695084"><ele>98.0</ele><time>2026-04-04T13:37:05.001Z</time></trkpt><trkpt lat="44.35399733610411" lon="11.563576217814107"><ele>97.99999999999999</ele><time>2026-04-04T13:37:07.001Z</time></trkpt><trkpt lat="44.35393808045908" lon="11.563545944545544"><ele>98.0</ele><time>2026-04-04T13:37:09.001Z</time></trkpt><trkpt lat="44.353902991481355" lon="11.56370790293155"><ele>98.0</ele><time>2026-04-04T13:37:10.001Z</time></trkpt><trkpt lat="44.35389186147816" lon="11.56380782047558"><ele>98.0</ele><time>2026-04-04T13:37:11.001Z</time></trkpt><trkpt lat="44.3538981547415" lon="11.5639286657603"><ele>97.99999999999999</ele><time>2026-04-04T13:37:12.001Z</time></trkpt><trkpt lat="44.35389257963122" lon="11.564041000689073"><ele>98.0</ele><time>2026-04-04T13:37:13.001Z</time></trkpt><trkpt lat="44.353894078844824" lon="11.564152126509429"><ele>96.80000000000001</ele><time>2026-04-04T13:37:14.001Z</time></trkpt><trkpt lat="44.35389574860015" lon="11.564275893502657"><ele>95.6</ele><time>2026-04-04T13:37:15.001Z</time></trkpt><trkpt lat="44.35389688925014" lon="11.56441149365136"><ele>94.4</ele><time>2026-04-04T13:37:16.001Z</time></trkpt><trkpt lat="44.35389765874889" lon="11.564548023843107"><ele>93.19999999999999</ele><time>2026-04-04T13:37:17.001Z</time></trkpt><trkpt lat="44.35389386814683" lon="11.564690874557371"><ele>92.0</ele><time>2026-04-04T13:37:18.001Z</time></trkpt><trkpt lat="44.35389977362807" lon="11.5648241148902"><ele>92.0</ele><time>2026-04-04T13:37:19.001Z</time></trkpt><trkpt lat="44.35387889876241" lon="11.564943004679538"><ele>92.0</ele><time>2026-04-04T13:37:20.001Z</time></trkpt><trkpt lat="44.353837242543825" lon="11.565061511488256"><ele>92.0</ele><time>2026-04-04T13:37:21.001Z</time></trkpt><trkpt lat="44.353778868737685" lon="11.565174089913004"><ele>92.0</ele><time>2026-04-04T13:37:22.002Z</time></trkpt><trkpt lat="44.35368152397371" lon="11.565247699557347"><ele>92.0</ele><time>2026-04-04T13:37:23.002Z</time></trkpt><trkpt lat="44.353605285906994" lon="11.565351799124182"><ele>92.39999999999999</ele><time>2026-04-04T13:37:24.002Z</time></trkpt><trkpt lat="44.35352763151679" lon="11.565469356506712"><ele>92.8</ele><time>2026-04-04T13:37:25.002Z</time></trkpt><trkpt lat="44.35344751762894" lon="11.565588044303052"><ele>93.2</ele><time>2026-04-04T13:37:26.002Z</time></trkpt><trkpt lat="44.35337732240495" lon="11.565685004295036"><ele>93.6</ele><time>2026-04-04T13:37:27.002Z</time></trkpt><trkpt lat="44.35331635117366" lon="11.5657770463813"><ele>94.0</ele><time>2026-04-04T13:37:28.002Z</time></trkpt><trkpt lat="44.35325950477731" lon="11.565859196602299"><ele>94.0</ele><time>2026-04-04T13:37:29.002Z</time></trkpt><trkpt lat="44.353208017484995" lon="11.565937960229041"><ele>94.0</ele><time>2026-04-04T13:37:30.002Z</time></trkpt><trkpt lat="44.35316436386812" lon="11.56600301611468"><ele>94.0</ele><time>2026-04-04T13:37:31.002Z</time></trkpt><trkpt lat="44.35307981717718" lon="11.5661203664058"><ele>94.0</ele><time>2026-04-04T13:37:33.002Z</time></trkpt><trkpt lat="44.353029726092174" lon="11.566175726031956"><ele>94.0</ele><time>2026-04-04T13:37:34.002Z</time></trkpt><trkpt lat="44.352959780784786" lon="11.566274312930489"><ele>94.0</ele><time>2026-04-04T13:37:36.002Z</time></trkpt><trkpt lat="44.352907870754464" lon="11.56632505679449"><ele>94.2</ele><time>2026-04-04T13:37:38.002Z</time></trkpt><trkpt lat="44.35283109086457" lon="11.566362406827604"><ele>94.4</ele><time>2026-04-04T13:37:41.002Z</time></trkpt><trkpt lat="44.35277931684686" lon="11.56645946698433"><ele>94.6</ele><time>2026-04-04T13:38:20.001Z</time></trkpt><trkpt lat="44.352657020015336" lon="11.566341963668668"><ele>94.8</ele><time>2026-04-04T13:38:21.001Z</time></trkpt><trkpt lat="44.35259220904725" lon="11.566366720398404"><ele>95.0</ele><time>2026-04-04T13:38:22.001Z</time></trkpt><trkpt lat="44.35250620940195" lon="11.566370251473158"><ele>95.0</ele><time>2026-04-04T13:38:23.001Z</time></trkpt><trkpt lat="44.352424356537576" lon="11.566373319522032"><ele>95.0</ele><time>2026-04-04T13:38:24.001Z</time></trkpt><trkpt lat="44.352336732098046" lon="11.566374324693676"><ele>95.0</ele><time>2026-04-04T13:38:25.001Z</time></trkpt><trkpt lat="44.35224261320267" lon="11.566379067818458"><ele>95.0</ele><time>2026-04-04T13:38:26.001Z</time></trkpt><trkpt lat="44.35214370384194" lon="11.566396132239584"><ele>95.0</ele><time>2026-04-04T13:38:27.001Z</time></trkpt><trkpt lat="44.352048038092306" lon="11.566430846592965"><ele>95.6</ele><time>2026-04-04T13:38:28.001Z</time></trkpt><trkpt lat="44.35194437210167" lon="11.566468115672938"><ele>96.2</ele><time>2026-04-04T13:38:29.001Z</time></trkpt><trkpt lat="44.351847492915105" lon="11.566516826543115"><ele>96.80000000000001</ele><time>2026-04-04T13:38:30.001Z</time></trkpt><trkpt lat="44.35176858187781" lon="11.566562999007925"><ele>97.4</ele><time>2026-04-04T13:38:31.001Z</time></trkpt><trkpt lat="44.35168340671575" lon="11.56662386676004"><ele>98.0</ele><time>2026-04-04T13:38:32.001Z</time></trkpt><trkpt lat="44.35157484441901" lon="11.566657182092264"><ele>98.0</ele><time>2026-04-04T13:38:33.001Z</time></trkpt><trkpt lat="44.35145605536725" lon="11.56668163419328"><ele>98.0</ele><time>2026-04-04T13:38:34.001Z</time></trkpt><trkpt lat="44.35133444507243" lon="11.56670181185299"><ele>98.0</ele><time>2026-04-04T13:38:35.001Z</time></trkpt><trkpt lat="44.35120642855113" lon="11.566687421039697"><ele>98.0</ele><time>2026-04-04T13:38:36.001Z</time></trkpt><trkpt lat="44.35107240128521" lon="11.566655445709433"><ele>98.0</ele><time>2026-04-04T13:38:37.001Z</time></trkpt><trkpt lat="44.35093108894234" lon="11.566602543243132"><ele>98.0</ele><time>2026-04-04T13:38:38.001Z</time></trkpt><trkpt lat="44.35079582483736" lon="11.566547964031258"><ele>98.0</ele><time>2026-04-04T13:38:39.001Z</time></trkpt><trkpt lat="44.35065346511757" lon="11.566511728653579"><ele>98.0</ele><time>2026-04-04T13:38:40.001Z</time></trkpt><trkpt lat="44.35052299887136" lon="11.56645942453442"><ele>97.75</ele><time>2026-04-04T13:38:41.001Z</time></trkpt><trkpt lat="44.350405337436904" lon="11.566412126439863"><ele>97.5</ele><time>2026-04-04T13:38:42.001Z</time></trkpt><trkpt lat="44.35028126236938" lon="11.566354807502044"><ele>97.25</ele><time>2026-04-04T13:38:43.001Z</time></trkpt><trkpt lat="44.3501538445179" lon="11.566310600140516"><ele>97.0</ele><time>2026-04-04T13:38:44.001Z</time></trkpt><trkpt lat="44.350036750636725" lon="11.566263777238673"><ele>97.0</ele><time>2026-04-04T13:38:45.001Z</time></trkpt><trkpt lat="44.34993005410277" lon="11.566223984004738"><ele>97.0</ele><time>2026-04-04T13:38:46.001Z</time></trkpt><trkpt lat="44.349835478739536" lon="11.566192194117766"><ele>97.0</ele><time>2026-04-04T13:38:47.001Z</time></trkpt><trkpt lat="44.34975269586509" lon="11.566170662136967"><ele>97.0</ele><time>2026-04-04T13:38:48.001Z</time></trkpt><trkpt lat="44.34966760883584" lon="11.566141378246641"><ele>97.0</ele><time>2026-04-04T13:38:49.001Z</time></trkpt><trkpt lat="44.34957978528337" lon="11.566110707095088"><ele>97.83333333333334</ele><time>2026-04-04T13:38:50.001Z</time></trkpt><trkpt lat="44.34950506520222" lon="11.566073710554155"><ele>98.66666666666667</ele><time>2026-04-04T13:38:51.001Z</time></trkpt><trkpt lat="44.34943670199671" lon="11.566004976104011"><ele>99.5</ele><time>2026-04-04T13:38:52.001Z</time></trkpt><trkpt lat="44.349401120769016" lon="11.56588539308609"><ele>100.33333333333334</ele><time>2026-04-04T13:38:53.001Z</time></trkpt><trkpt lat="44.349379059734744" lon="11.565770327348345"><ele>101.16666666666667</ele><time>2026-04-04T13:38:54.001Z</time></trkpt><trkpt lat="44.34935884262525" lon="11.56564287677982"><ele>102.0</ele><time>2026-04-04T13:38:55.001Z</time></trkpt><trkpt lat="44.349342648197535" lon="11.565490229425297"><ele>103.0</ele><time>2026-04-04T13:38:56.001Z</time></trkpt><trkpt lat="44.34932941907669" lon="11.565335062369254"><ele>104.0</ele><time>2026-04-04T13:38:57.001Z</time></trkpt><trkpt lat="44.34932401531897" lon="11.565179871090937"><ele>105.0</ele><time>2026-04-04T13:38:58.001Z</time></trkpt><trkpt lat="44.349328412165015" lon="11.565023923270996"><ele>106.0</ele><time>2026-04-04T13:38:59.001Z</time></trkpt><trkpt lat="44.34933989797347" lon="11.564859616365228"><ele>106.0</ele><time>2026-04-04T13:39:00.001Z</time></trkpt><trkpt lat="44.34935212698751" lon="11.564671552643238"><ele>106.0</ele><time>2026-04-04T13:39:01.001Z</time></trkpt><trkpt lat="44.349359329949756" lon="11.56445963071969"><ele>106.0</ele><time>2026-04-04T13:39:02.001Z</time></trkpt><trkpt lat="44.34934645983137" lon="11.564248292374481"><ele>106.0</ele><time>2026-04-04T13:39:03.001Z</time></trkpt><trkpt lat="44.3493487583819" lon="11.564027933026672"><ele>105.75</ele><time>2026-04-04T13:39:04.001Z</time></trkpt><trkpt lat="44.34935371617741" lon="11.563821205029605"><ele>105.5</ele><time>2026-04-04T13:39:05.001Z</time></trkpt><trkpt lat="44.34935572100737" lon="11.563628610650202"><ele>105.25</ele><time>2026-04-04T13:39:06.001Z</time></trkpt><trkpt lat="44.349359422440955" lon="11.563456968718981"><ele>105.0</ele><time>2026-04-04T13:39:07.001Z</time></trkpt><trkpt lat="44.34936431917071" lon="11.56329683385569"><ele>104.8</ele><time>2026-04-04T13:39:08.001Z</time></trkpt><trkpt lat="44.3493654263876" lon="11.563149425384848"><ele>104.6</ele><time>2026-04-04T13:39:09.001Z</time></trkpt><trkpt lat="44.34936755836972" lon="11.563013260149"><ele>104.4</ele><time>2026-04-04T13:39:10.001Z</time></trkpt><trkpt lat="44.349371394883455" lon="11.56287667158206"><ele>104.2</ele><time>2026-04-04T13:39:11.001Z</time></trkpt><trkpt lat="44.34936885344113" lon="11.562739928898239"><ele>104.0</ele><time>2026-04-04T13:39:12.001Z</time></trkpt><trkpt lat="44.34934630442337" lon="11.562604770453346"><ele>104.4</ele><time>2026-04-04T13:39:13.001Z</time></trkpt><trkpt lat="44.34930767495705" lon="11.562472534774672"><ele>104.80000000000001</ele><time>2026-04-04T13:39:14.001Z</time></trkpt><trkpt lat="44.34925363872487" lon="11.56234309135452"><ele>105.19999999999999</ele><time>2026-04-04T13:39:15.001Z</time></trkpt><trkpt lat="44.34918248493691" lon="11.562223412570882"><ele>105.6</ele><time>2026-04-04T13:39:16.001Z</time></trkpt><trkpt lat="44.34910580582303" lon="11.562124099256241"><ele>106.0</ele><time>2026-04-04T13:39:17.001Z</time></trkpt><trkpt lat="44.34900976432208" lon="11.56202869075735"><ele>106.25</ele><time>2026-04-04T13:39:18.001Z</time></trkpt><trkpt lat="44.34890933930874" lon="11.561949180131784"><ele>106.5</ele><time>2026-04-04T13:39:19.001Z</time></trkpt><trkpt lat="44.348809746481066" lon="11.56185391328426"><ele>106.75</ele><time>2026-04-04T13:39:20.001Z</time></trkpt><trkpt lat="44.34868687387747" lon="11.561758343938173"><ele>107.0</ele><time>2026-04-04T13:39:21.001Z</time></trkpt><trkpt lat="44.34857835203223" lon="11.561633672640161"><ele>107.0</ele><time>2026-04-04T13:39:22.001Z</time></trkpt><trkpt lat="44.34845638609107" lon="11.56154377721714"><ele>107.0</ele><time>2026-04-04T13:39:23.002Z</time></trkpt><trkpt lat="44.3483398685632" lon="11.561439092216794"><ele>107.0</ele><time>2026-04-04T13:39:24.002Z</time></trkpt><trkpt lat="44.34821777650924" lon="11.561323956164937"><ele>107.0</ele><time>2026-04-04T13:39:25.002Z</time></trkpt><trkpt lat="44.348086701533866" lon="11.561208090793086"><ele>107.5</ele><time>2026-04-04T13:39:26.002Z</time></trkpt><trkpt lat="44.347950370955154" lon="11.561095547525154"><ele>108.0</ele><time>2026-04-04T13:39:27.002Z</time></trkpt><trkpt lat="44.347822740812596" lon="11.560985304086074"><ele>108.5</ele><time>2026-04-04T13:39:28.002Z</time></trkpt><trkpt lat="44.34771194731758" lon="11.560881162332532"><ele>109.0</ele><time>2026-04-04T13:39:29.002Z</time></trkpt><trkpt lat="44.34761711424338" lon="11.560781372331219"><ele>109.0</ele><time>2026-04-04T13:39:30.002Z</time></trkpt><trkpt lat="44.34752157960169" lon="11.560676149643994"><ele>109.0</ele><time>2026-04-04T13:39:31.002Z</time></trkpt><trkpt lat="44.34741590049273" lon="11.56056043709208"><ele>109.0</ele><time>2026-04-04T13:39:32.002Z</time></trkpt><trkpt lat="44.347325231106694" lon="11.560428519356451"><ele>109.0</ele><time>2026-04-04T13:39:33.002Z</time></trkpt><trkpt lat="44.34720996803097" lon="11.560316689640924"><ele>108.5</ele><time>2026-04-04T13:39:34.002Z</time></trkpt><trkpt lat="44.34710348273084" lon="11.560204286142664"><ele>108.0</ele><time>2026-04-04T13:39:35.002Z</time></trkpt><trkpt lat="44.346978179538596" lon="11.560089938945426"><ele>107.5</ele><time>2026-04-04T13:39:36.002Z</time></trkpt><trkpt lat="44.346848649471255" lon="11.55999773910678"><ele>107.0</ele><time>2026-04-04T13:39:37.002Z</time></trkpt><trkpt lat="44.34670625773348" lon="11.559915585422212"><ele>107.0</ele><time>2026-04-04T13:39:38.002Z</time></trkpt><trkpt lat="44.34656566487122" lon="11.559833049635357"><ele>107.0</ele><time>2026-04-04T13:39:39.002Z</time></trkpt><trkpt lat="44.346424052995815" lon="11.559745121848335"><ele>107.0</ele><time>2026-04-04T13:39:40.002Z</time></trkpt><trkpt lat="44.346278343889615" lon="11.559672800079614"><ele>106.25</ele><time>2026-04-04T13:39:41.002Z</time></trkpt><trkpt lat="44.34612628967529" lon="11.559601740658815"><ele>105.5</ele><time>2026-04-04T13:39:42.002Z</time></trkpt><trkpt lat="44.34599046206608" lon="11.55954162102835"><ele>104.75</ele><time>2026-04-04T13:39:43.002Z</time></trkpt><trkpt lat="44.34586427590396" lon="11.559490843854524"><ele>104.0</ele><time>2026-04-04T13:39:44.002Z</time></trkpt><trkpt lat="44.34573681435147" lon="11.55941509349443"><ele>104.0</ele><time>2026-04-04T13:39:45.002Z</time></trkpt><trkpt lat="44.34560452354178" lon="11.559377171897061"><ele>104.0</ele><time>2026-04-04T13:39:46.002Z</time></trkpt><trkpt lat="44.345490220615886" lon="11.559296469037948"><ele>104.0</ele><time>2026-04-04T13:39:47.002Z</time></trkpt><trkpt lat="44.34539510112007" lon="11.55923684380291"><ele>104.0</ele><time>2026-04-04T13:39:48.002Z</time></trkpt><trkpt lat="44.34530202767724" lon="11.559151126411113"><ele>103.6</ele><time>2026-04-04T13:39:49.002Z</time></trkpt><trkpt lat="44.345219526806005" lon="11.559043069970858"><ele>103.2</ele><time>2026-04-04T13:39:50.002Z</time></trkpt><trkpt lat="44.34513420620111" lon="11.558929445088344"><ele>102.8</ele><time>2026-04-04T13:39:51.002Z</time></trkpt><trkpt lat="44.34506241544284" lon="11.558843149339925"><ele>102.39999999999999</ele><time>2026-04-04T13:39:52.002Z</time></trkpt><trkpt lat="44.344989216927466" lon="11.558763192382568"><ele>102.0</ele><time>2026-04-04T13:39:53.002Z</time></trkpt><trkpt lat="44.344906624751474" lon="11.558679458407614"><ele>102.0</ele><time>2026-04-04T13:39:54.002Z</time></trkpt><trkpt lat="44.34482577220624" lon="11.558598825744667"><ele>102.0</ele><time>2026-04-04T13:39:55.002Z</time></trkpt><trkpt lat="44.34475185129502" lon="11.558527625228592"><ele>102.0</ele><time>2026-04-04T13:39:56.002Z</time></trkpt><trkpt lat="44.344685447031566" lon="11.558467130466349"><ele>102.0</ele><time>2026-04-04T13:39:57.002Z</time></trkpt><trkpt lat="44.344618330847474" lon="11.558406754363485"><ele>102.0</ele><time>2026-04-04T13:39:58.002Z</time></trkpt><trkpt lat="44.34454790109402" lon="11.558344705091272"><ele>102.0</ele><time>2026-04-04T13:39:59.002Z</time></trkpt><trkpt lat="44.344478138394784" lon="11.55828324352781"><ele>103.39999999999999</ele><time>2026-04-04T13:40:00.002Z</time></trkpt><trkpt lat="44.34440617158113" lon="11.558219960894624"><ele>104.8</ele><time>2026-04-04T13:40:01.002Z</time></trkpt><trkpt lat="44.34432050989944" lon="11.558166735974416"><ele>106.2</ele><time>2026-04-04T13:40:02.002Z</time></trkpt><trkpt lat="44.34424467082805" lon="11.558093254731494"><ele>107.6</ele><time>2026-04-04T13:40:03.002Z</time></trkpt><trkpt lat="44.344159510438836" lon="11.558020975811212"><ele>109.0</ele><time>2026-04-04T13:40:04.002Z</time></trkpt><trkpt lat="44.34407694281664" lon="11.557954063384676"><ele>109.00000000000001</ele><time>2026-04-04T13:40:05.002Z</time></trkpt><trkpt lat="44.344002833572496" lon="11.557885234386895"><ele>109.0</ele><time>2026-04-04T13:40:06Z</time></trkpt><trkpt lat="44.343925353081104" lon="11.55782016940858"><ele>109.0</ele><time>2026-04-04T13:40:07Z</time></trkpt><trkpt lat="44.34387117403577" lon="11.557766992525416"><ele>109.0</ele><time>2026-04-04T13:40:08Z</time></trkpt><trkpt lat="44.34380826251174" lon="11.55771292076332"><ele>109.00000000000001</ele><time>2026-04-04T13:40:09Z</time></trkpt><trkpt lat="44.34374815055696" lon="11.557653662632132"><ele>109.0</ele><time>2026-04-04T13:40:10Z</time></trkpt><trkpt lat="44.34368176969617" lon="11.557599395966651"><ele>108.4</ele><time>2026-04-04T13:40:11Z</time></trkpt><trkpt lat="44.3436172500083" lon="11.557530578189029"><ele>107.80000000000001</ele><time>2026-04-04T13:40:12Z</time></trkpt><trkpt lat="44.34355046812379" lon="11.557462498200026"><ele>107.19999999999999</ele><time>2026-04-04T13:40:13Z</time></trkpt><trkpt lat="44.343475816837056" lon="11.55738873255331"><ele>106.6</ele><time>2026-04-04T13:40:14Z</time></trkpt><trkpt lat="44.34339690398403" lon="11.55730115425991"><ele>106.0</ele><time>2026-04-04T13:40:15Z</time></trkpt><trkpt lat="44.34331711809184" lon="11.557179778158611"><ele>106.0</ele><time>2026-04-04T13:40:16Z</time></trkpt><trkpt lat="44.34322860652291" lon="11.557087820355163"><ele>106.0</ele><time>2026-04-04T13:40:17Z</time></trkpt><trkpt lat="44.34314418785367" lon="11.556976096116546"><ele>106.0</ele><time>2026-04-04T13:40:18Z</time></trkpt><trkpt lat="44.343054683085555" lon="11.556853255632337"><ele>106.0</ele><time>2026-04-04T13:40:19Z</time></trkpt><trkpt lat="44.342966834101034" lon="11.556717790961162"><ele>105.75</ele><time>2026-04-04T13:40:20Z</time></trkpt><trkpt lat="44.34287095494198" lon="11.556569262837872"><ele>105.5</ele><time>2026-04-04T13:40:21Z</time></trkpt><trkpt lat="44.342762895328754" lon="11.556439378141688"><ele>105.25</ele><time>2026-04-04T13:40:22Z</time></trkpt><trkpt lat="44.342660734471245" lon="11.556305657587867"><ele>105.0</ele><time>2026-04-04T13:40:23Z</time></trkpt><trkpt lat="44.34258028667418" lon="11.556176556698258"><ele>105.0</ele><time>2026-04-04T13:40:24Z</time></trkpt><trkpt lat="44.34248194978119" lon="11.55605831926649"><ele>105.0</ele><time>2026-04-04T13:40:25Z</time></trkpt><trkpt lat="44.34238666965652" lon="11.555931029550564"><ele>105.0</ele><time>2026-04-04T13:40:26Z</time></trkpt><trkpt lat="44.342295782845454" lon="11.555797699020705"><ele>105.0</ele><time>2026-04-04T13:40:27Z</time></trkpt><trkpt lat="44.34220944500945" lon="11.555661528007512"><ele>106.0</ele><time>2026-04-04T13:40:28Z</time></trkpt><trkpt lat="44.3421324577471" lon="11.55551845379602"><ele>107.0</ele><time>2026-04-04T13:40:29Z</time></trkpt><trkpt lat="44.34205792539665" lon="11.555355714464232"><ele>108.0</ele><time>2026-04-04T13:40:30Z</time></trkpt><trkpt lat="44.34197652104164" lon="11.555207428677214"><ele>109.0</ele><time>2026-04-04T13:40:31Z</time></trkpt><trkpt lat="44.34189916843685" lon="11.555064555820971"><ele>109.0</ele><time>2026-04-04T13:40:32Z</time></trkpt><trkpt lat="44.34182455839518" lon="11.554921118531864"><ele>109.0</ele><time>2026-04-04T13:40:33Z</time></trkpt><trkpt lat="44.34174215083159" lon="11.554782608545391"><ele>109.0</ele><time>2026-04-04T13:40:34Z</time></trkpt><trkpt lat="44.34166907286745" lon="11.554627837590406"><ele>109.0</ele><time>2026-04-04T13:40:35Z</time></trkpt><trkpt lat="44.34160081089293" lon="11.55446647726547"><ele>109.0</ele><time>2026-04-04T13:40:36Z</time></trkpt><trkpt lat="44.3415376152667" lon="11.554296550437655"><ele>109.0</ele><time>2026-04-04T13:40:37Z</time></trkpt><trkpt lat="44.34148850527089" lon="11.554108057404662"><ele>109.0</ele><time>2026-04-04T13:40:38.001Z</time></trkpt><trkpt lat="44.34142780029833" lon="11.553932141765358"><ele>109.0</ele><time>2026-04-04T13:40:39.001Z</time></trkpt><trkpt lat="44.34135380983047" lon="11.553764665657836"><ele>109.25</ele><time>2026-04-04T13:40:40.001Z</time></trkpt><trkpt lat="44.34129000297815" lon="11.553587103152315"><ele>109.5</ele><time>2026-04-04T13:40:41.001Z</time></trkpt><trkpt lat="44.341239981435365" lon="11.553417965115507"><ele>109.75</ele><time>2026-04-04T13:40:42.001Z</time></trkpt><trkpt lat="44.34118329830075" lon="11.553262838176508"><ele>110.0</ele><time>2026-04-04T13:40:43.001Z</time></trkpt><trkpt lat="44.3411303043985" lon="11.553121727807746"><ele>110.0</ele><time>2026-04-04T13:40:44.001Z</time></trkpt><trkpt lat="44.341086372828094" lon="11.552971012634613"><ele>110.0</ele><time>2026-04-04T13:40:45.001Z</time></trkpt><trkpt lat="44.3410198684448" lon="11.552792343077057"><ele>110.0</ele><time>2026-04-04T13:40:46.001Z</time></trkpt><trkpt lat="44.340943828837354" lon="11.552592816137585"><ele>110.0</ele><time>2026-04-04T13:40:47.001Z</time></trkpt><trkpt lat="44.340866427013324" lon="11.55239282106833"><ele>109.66666666666666</ele><time>2026-04-04T13:40:48.001Z</time></trkpt><trkpt lat="44.34077829419272" lon="11.552176626026837"><ele>109.33333333333334</ele><time>2026-04-04T13:40:49.001Z</time></trkpt><trkpt lat="44.340684212271064" lon="11.55194704622465"><ele>109.0</ele><time>2026-04-04T13:40:50.001Z</time></trkpt><trkpt lat="44.34058031167498" lon="11.551710770931486"><ele>108.66666666666667</ele><time>2026-04-04T13:40:51.001Z</time></trkpt><trkpt lat="44.34048854837045" lon="11.551491612496866"><ele>108.33333333333334</ele><time>2026-04-04T13:40:52.001Z</time></trkpt><trkpt lat="44.34040625433168" lon="11.551288939971087"><ele>108.0</ele><time>2026-04-04T13:40:53.001Z</time></trkpt><trkpt lat="44.340322130361315" lon="11.551096225474947"><ele>109.0</ele><time>2026-04-04T13:40:54.001Z</time></trkpt><trkpt lat="44.34025714672535" lon="11.550904348878571"><ele>110.0</ele><time>2026-04-04T13:40:55.001Z</time></trkpt><trkpt lat="44.34018459078567" lon="11.550734544675429"><ele>111.0</ele><time>2026-04-04T13:40:56.001Z</time></trkpt><trkpt lat="44.340098932522785" lon="11.550581935912152"><ele>112.0</ele><time>2026-04-04T13:40:57.001Z</time></trkpt><trkpt lat="44.340033516219904" lon="11.550423027072167"><ele>111.5</ele><time>2026-04-04T13:40:58.001Z</time></trkpt><trkpt lat="44.339972065893996" lon="11.550280067176441"><ele>111.0</ele><time>2026-04-04T13:40:59.001Z</time></trkpt><trkpt lat="44.33991649009542" lon="11.550140519111833"><ele>110.5</ele><time>2026-04-04T13:41:00.001Z</time></trkpt><trkpt lat="44.33985753585258" lon="11.549996118378612"><ele>110.0</ele><time>2026-04-04T13:41:01.001Z</time></trkpt><trkpt lat="44.33978720331091" lon="11.549836476050805"><ele>110.0</ele><time>2026-04-04T13:41:02.001Z</time></trkpt><trkpt lat="44.33971879052922" lon="11.549675756352025"><ele>110.0</ele><time>2026-04-04T13:41:03.001Z</time></trkpt><trkpt lat="44.33964378222147" lon="11.549504257554094"><ele>110.0</ele><time>2026-04-04T13:41:04.001Z</time></trkpt><trkpt lat="44.33958069132181" lon="11.549342009569369"><ele>110.0</ele><time>2026-04-04T13:41:05.001Z</time></trkpt><trkpt lat="44.33950692324194" lon="11.549185295459859"><ele>110.0</ele><time>2026-04-04T13:41:06.001Z</time></trkpt><trkpt lat="44.33944665586957" lon="11.549044876838757"><ele>110.0</ele><time>2026-04-04T13:41:07.001Z</time></trkpt><trkpt lat="44.33939273644091" lon="11.548898237495933"><ele>110.0</ele><time>2026-04-04T13:41:08.001Z</time></trkpt><trkpt lat="44.339329648182066" lon="11.548759310435525"><ele>110.0</ele><time>2026-04-04T13:41:09.001Z</time></trkpt><trkpt lat="44.33926663666571" lon="11.548611876433943"><ele>110.5</ele><time>2026-04-04T13:41:10.001Z</time></trkpt><trkpt lat="44.33920113426162" lon="11.548461463131774"><ele>111.0</ele><time>2026-04-04T13:41:11.001Z</time></trkpt><trkpt lat="44.33910290074873" lon="11.54832939526801"><ele>111.5</ele><time>2026-04-04T13:41:12.001Z</time></trkpt><trkpt lat="44.338995642290904" lon="11.548211884053693"><ele>112.0</ele><time>2026-04-04T13:41:13.001Z</time></trkpt><trkpt lat="44.33888818469022" lon="11.54810700088427"><ele>112.75</ele><time>2026-04-04T13:41:14.001Z</time></trkpt><trkpt lat="44.338783533808815" lon="11.548003624678666"><ele>113.5</ele><time>2026-04-04T13:41:15.001Z</time></trkpt><trkpt lat="44.33868646316802" lon="11.547905887096505"><ele>114.25</ele><time>2026-04-04T13:41:16.001Z</time></trkpt><trkpt lat="44.33859402678016" lon="11.547815748143202"><ele>115.0</ele><time>2026-04-04T13:41:17.001Z</time></trkpt><trkpt lat="44.338501442914065" lon="11.547724619876936"><ele>115.2</ele><time>2026-04-04T13:41:18.001Z</time></trkpt><trkpt lat="44.33842137047639" lon="11.547635065264577"><ele>115.4</ele><time>2026-04-04T13:41:19.001Z</time></trkpt><trkpt lat="44.33834641316135" lon="11.547549589482907"><ele>115.6</ele><time>2026-04-04T13:41:20.001Z</time></trkpt><trkpt lat="44.33826350620433" lon="11.547460369849665"><ele>115.8</ele><time>2026-04-04T13:41:21.001Z</time></trkpt><trkpt lat="44.33817918670833" lon="11.54735401145521"><ele>116.0</ele><time>2026-04-04T13:41:22.001Z</time></trkpt><trkpt lat="44.338086342593144" lon="11.547236788047682"><ele>116.25</ele><time>2026-04-04T13:41:23.001Z</time></trkpt><trkpt lat="44.33800425481733" lon="11.547120861483595"><ele>116.5</ele><time>2026-04-04T13:41:24.001Z</time></trkpt><trkpt lat="44.33793276362349" lon="11.54700612459809"><ele>116.75</ele><time>2026-04-04T13:41:25.001Z</time></trkpt><trkpt lat="44.337861445319895" lon="11.546889997342134"><ele>117.0</ele><time>2026-04-04T13:41:26.001Z</time></trkpt><trkpt lat="44.33778525052463" lon="11.546767741483363"><ele>117.0</ele><time>2026-04-04T13:41:27.001Z</time></trkpt><trkpt lat="44.33771249992813" lon="11.546658287101762"><ele>116.99999999999999</ele><time>2026-04-04T13:41:28.001Z</time></trkpt><trkpt lat="44.33764427964396" lon="11.546562194604078"><ele>116.99999999999999</ele><time>2026-04-04T13:41:29.001Z</time></trkpt><trkpt lat="44.337584349305565" lon="11.546474942361401"><ele>117.0</ele><time>2026-04-04T13:41:30.001Z</time></trkpt><trkpt lat="44.33752330477555" lon="11.546390118644332"><ele>117.0</ele><time>2026-04-04T13:41:31.001Z</time></trkpt><trkpt lat="44.337470954761415" lon="11.546313428685094"><ele>117.0</ele><time>2026-04-04T13:41:32.001Z</time></trkpt><trkpt lat="44.33741583208805" lon="11.54624378693142"><ele>117.0</ele><time>2026-04-04T13:41:33.001Z</time></trkpt><trkpt lat="44.3373617542098" lon="11.546172278621816"><ele>117.0</ele><time>2026-04-04T13:41:34.001Z</time></trkpt><trkpt lat="44.337309624845616" lon="11.546094338989418"><ele>117.0</ele><time>2026-04-04T13:41:35.001Z</time></trkpt><trkpt lat="44.33724764309222" lon="11.546010904947563"><ele>117.0</ele><time>2026-04-04T13:41:36.001Z</time></trkpt><trkpt lat="44.33718613824876" lon="11.545932894880288"><ele>117.0</ele><time>2026-04-04T13:41:37.001Z</time></trkpt><trkpt lat="44.33711689694874" lon="11.545843575399823"><ele>117.0</ele><time>2026-04-04T13:41:38.001Z</time></trkpt><trkpt lat="44.3370474181375" lon="11.545750858073887"><ele>116.99999999999999</ele><time>2026-04-04T13:41:39.002Z</time></trkpt><trkpt lat="44.33698043980228" lon="11.545658703440985"><ele>116.99999999999999</ele><time>2026-04-04T13:41:40.002Z</time></trkpt><trkpt lat="44.33691049718726" lon="11.545567825874533"><ele>117.0</ele><time>2026-04-04T13:41:41.002Z</time></trkpt><trkpt lat="44.33684003892042" lon="11.545471061411943"><ele>117.0</ele><time>2026-04-04T13:41:42.002Z</time></trkpt><trkpt lat="44.336765714962354" lon="11.545374656457401"><ele>117.0</ele><time>2026-04-04T13:41:43.002Z</time></trkpt><trkpt lat="44.336698084104036" lon="11.54528169691185"><ele>116.99999999999999</ele><time>2026-04-04T13:41:44.002Z</time></trkpt><trkpt lat="44.336628991714655" lon="11.545185404465638"><ele>116.99999999999999</ele><time>2026-04-04T13:41:45.002Z</time></trkpt><trkpt lat="44.3365596490245" lon="11.545091464076116"><ele>117.0</ele><time>2026-04-04T13:41:46.002Z</time></trkpt><trkpt lat="44.3364923827257" lon="11.544999354891253"><ele>117.0</ele><time>2026-04-04T13:41:47.002Z</time></trkpt><trkpt lat="44.33641827509759" lon="11.544900135991817"><ele>117.0</ele><time>2026-04-04T13:41:48.002Z</time></trkpt><trkpt lat="44.33633212518087" lon="11.544788125736913"><ele>117.0</ele><time>2026-04-04T13:41:49.002Z</time></trkpt><trkpt lat="44.33624181751619" lon="11.544670710255529"><ele>117.0</ele><time>2026-04-04T13:41:50.002Z</time></trkpt><trkpt lat="44.33614826020831" lon="11.544550865882286"><ele>117.0</ele><time>2026-04-04T13:41:51.002Z</time></trkpt><trkpt lat="44.33606174443924" lon="11.544428700347787"><ele>117.0</ele><time>2026-04-04T13:41:52.002Z</time></trkpt><trkpt lat="44.33597937891053" lon="11.54431123630603"><ele>117.0</ele><time>2026-04-04T13:41:53.002Z</time></trkpt><trkpt lat="44.33589649543873" lon="11.544196398945036"><ele>117.0</ele><time>2026-04-04T13:41:54.002Z</time></trkpt><trkpt lat="44.335810501982294" lon="11.544084903360124"><ele>117.0</ele><time>2026-04-04T13:41:55.002Z</time></trkpt><trkpt lat="44.335727067613504" lon="11.543975817731122"><ele>117.0</ele><time>2026-04-04T13:41:56.002Z</time></trkpt><trkpt lat="44.335640986531594" lon="11.543864268300048"><ele>117.0</ele><time>2026-04-04T13:41:57.002Z</time></trkpt><trkpt lat="44.335553396093616" lon="11.54375576847756"><ele>117.0</ele><time>2026-04-04T13:41:58.002Z</time></trkpt><trkpt lat="44.33546732720422" lon="11.543643326787118"><ele>117.0</ele><time>2026-04-04T13:41:59.002Z</time></trkpt><trkpt lat="44.335382037571485" lon="11.543525940949714"><ele>117.0</ele><time>2026-04-04T13:42:00.002Z</time></trkpt><trkpt lat="44.335298371767166" lon="11.543412198350795"><ele>117.0</ele><time>2026-04-04T13:42:01.002Z</time></trkpt><trkpt lat="44.33521704937678" lon="11.543296039000296"><ele>117.0</ele><time>2026-04-04T13:42:02.002Z</time></trkpt><trkpt lat="44.33513336100348" lon="11.543180898897713"><ele>117.0</ele><time>2026-04-04T13:42:03.002Z</time></trkpt><trkpt lat="44.335045928718806" lon="11.543063810274548"><ele>117.0</ele><time>2026-04-04T13:42:04.002Z</time></trkpt><trkpt lat="44.33495613519369" lon="11.542946689968137"><ele>117.0</ele><time>2026-04-04T13:42:05.002Z</time></trkpt><trkpt lat="44.33486924138478" lon="11.54282688745726"><ele>117.0</ele><time>2026-04-04T13:42:06.002Z</time></trkpt><trkpt lat="44.33478679908554" lon="11.542712660085181"><ele>117.0</ele><time>2026-04-04T13:42:07.002Z</time></trkpt><trkpt lat="44.33470285077536" lon="11.54260021478297"><ele>117.0</ele><time>2026-04-04T13:42:08.002Z</time></trkpt><trkpt lat="44.33461996700524" lon="11.54248771672911"><ele>117.0</ele><time>2026-04-04T13:42:09.002Z</time></trkpt><trkpt lat="44.33453825364141" lon="11.542371994981956"><ele>117.0</ele><time>2026-04-04T13:42:10.002Z</time></trkpt><trkpt lat="44.334450855496634" lon="11.542256231627563"><ele>117.0</ele><time>2026-04-04T13:42:11.002Z</time></trkpt><trkpt lat="44.33436232354911" lon="11.542138451330425"><ele>117.0</ele><time>2026-04-04T13:42:12Z</time></trkpt><trkpt lat="44.334276680057656" lon="11.542009722739884"><ele>117.0</ele><time>2026-04-04T13:42:13Z</time></trkpt><trkpt lat="44.334196479179795" lon="11.541859017867596"><ele>117.0</ele><time>2026-04-04T13:42:14Z</time></trkpt><trkpt lat="44.33412836995315" lon="11.541697276132897"><ele>117.0</ele><time>2026-04-04T13:42:15Z</time></trkpt><trkpt lat="44.33408554845488" lon="11.541533826271012"><ele>117.0</ele><time>2026-04-04T13:42:16Z</time></trkpt><trkpt lat="44.33405176933926" lon="11.541379080266267"><ele>116.99999999999999</ele><time>2026-04-04T13:42:17Z</time></trkpt><trkpt lat="44.33401796137802" lon="11.541227221967441"><ele>116.99999999999999</ele><time>2026-04-04T13:42:18Z</time></trkpt><trkpt lat="44.333985437944314" lon="11.541082507845028"><ele>117.0</ele><time>2026-04-04T13:42:19Z</time></trkpt><trkpt lat="44.333950614854515" lon="11.540952892818982"><ele>117.0</ele><time>2026-04-04T13:42:20Z</time></trkpt><trkpt lat="44.33391601747923" lon="11.540828353483766"><ele>117.25</ele><time>2026-04-04T13:42:21Z</time></trkpt><trkpt lat="44.3338558607419" lon="11.540702872448588"><ele>117.5</ele><time>2026-04-04T13:42:22Z</time></trkpt><trkpt lat="44.33377731137405" lon="11.540594450605532"><ele>117.75</ele><time>2026-04-04T13:42:23Z</time></trkpt><trkpt lat="44.333681310779106" lon="11.540500635691625"><ele>118.0</ele><time>2026-04-04T13:42:24Z</time></trkpt><trkpt lat="44.333575856695006" lon="11.540404207837184"><ele>117.5</ele><time>2026-04-04T13:42:25Z</time></trkpt><trkpt lat="44.33346536504743" lon="11.54029161462325"><ele>117.0</ele><time>2026-04-04T13:42:26Z</time></trkpt><trkpt lat="44.33336474567348" lon="11.540155334043325"><ele>116.5</ele><time>2026-04-04T13:42:27Z</time></trkpt><trkpt lat="44.33325303764321" lon="11.540036591266821"><ele>116.0</ele><time>2026-04-04T13:42:28Z</time></trkpt><trkpt lat="44.333134101122326" lon="11.53991075386318"><ele>117.33333333333333</ele><time>2026-04-04T13:42:29Z</time></trkpt><trkpt lat="44.332995797002425" lon="11.539765739690958"><ele>118.66666666666666</ele><time>2026-04-04T13:42:30Z</time></trkpt><trkpt lat="44.33285559009842" lon="11.5396201573474"><ele>120.0</ele><time>2026-04-04T13:42:31Z</time></trkpt><trkpt lat="44.3327350560363" lon="11.539496483163568"><ele>120.0</ele><time>2026-04-04T13:42:32Z</time></trkpt><trkpt lat="44.33263039268796" lon="11.539382628902557"><ele>120.0</ele><time>2026-04-04T13:42:33Z</time></trkpt><trkpt lat="44.33253467536304" lon="11.539268078475839"><ele>120.0</ele><time>2026-04-04T13:42:34Z</time></trkpt><trkpt lat="44.33244747381581" lon="11.53914655722944"><ele>120.0</ele><time>2026-04-04T13:42:35Z</time></trkpt><trkpt lat="44.33236646395245" lon="11.53901633429794"><ele>120.0</ele><time>2026-04-04T13:42:36Z</time></trkpt><trkpt lat="44.332282372924396" lon="11.538872864540801"><ele>120.0</ele><time>2026-04-04T13:42:37Z</time></trkpt><trkpt lat="44.332199447088286" lon="11.538731928781665"><ele>120.0</ele><time>2026-04-04T13:42:38Z</time></trkpt><trkpt lat="44.33211744633429" lon="11.538594446894974"><ele>120.0</ele><time>2026-04-04T13:42:39Z</time></trkpt><trkpt lat="44.332036026754636" lon="11.5384579391623"><ele>121.25</ele><time>2026-04-04T13:42:40Z</time></trkpt><trkpt lat="44.33195193446983" lon="11.538320112057793"><ele>122.5</ele><time>2026-04-04T13:42:41Z</time></trkpt><trkpt lat="44.33187043791447" lon="11.538186782784422"><ele>123.75</ele><time>2026-04-04T13:42:42Z</time></trkpt><trkpt lat="44.33178624047533" lon="11.538049036120764"><ele>125.0</ele><time>2026-04-04T13:42:43Z</time></trkpt><trkpt lat="44.33169718358235" lon="11.537902053573365"><ele>123.75</ele><time>2026-04-04T13:42:44Z</time></trkpt><trkpt lat="44.331609035058996" lon="11.537752871461969"><ele>122.5</ele><time>2026-04-04T13:42:45Z</time></trkpt><trkpt lat="44.331521488965116" lon="11.537602892483152"><ele>121.25</ele><time>2026-04-04T13:42:46Z</time></trkpt><trkpt lat="44.331437069703306" lon="11.537452785823547"><ele>120.0</ele><time>2026-04-04T13:42:47Z</time></trkpt><trkpt lat="44.33134854279481" lon="11.537316899853218"><ele>122.0</ele><time>2026-04-04T13:42:48Z</time></trkpt><trkpt lat="44.33128897293936" lon="11.537170511739031"><ele>124.0</ele><time>2026-04-04T13:42:49Z</time></trkpt><trkpt lat="44.331233223205295" lon="11.537040983148348"><ele>126.0</ele><time>2026-04-04T13:42:50Z</time></trkpt><trkpt lat="44.33117890884036" lon="11.536906048830176"><ele>128.0</ele><time>2026-04-04T13:42:51Z</time></trkpt><trkpt lat="44.33112661810648" lon="11.536773152970285"><ele>130.0</ele><time>2026-04-04T13:42:52Z</time></trkpt><trkpt lat="44.33107001046277" lon="11.53663434099983"><ele>130.0</ele><time>2026-04-04T13:42:53.001Z</time></trkpt><trkpt lat="44.33101266571542" lon="11.536493966038247"><ele>130.0</ele><time>2026-04-04T13:42:54.001Z</time></trkpt><trkpt lat="44.33095634970261" lon="11.536352334991264"><ele>130.0</ele><time>2026-04-04T13:42:55.001Z</time></trkpt><trkpt lat="44.330902156098205" lon="11.536209142192249"><ele>130.0</ele><time>2026-04-04T13:42:56.001Z</time></trkpt><trkpt lat="44.33084670278484" lon="11.536055622875429"><ele>128.5</ele><time>2026-04-04T13:42:57.001Z</time></trkpt><trkpt lat="44.33079111565582" lon="11.535887036587445"><ele>127.0</ele><time>2026-04-04T13:42:58.001Z</time></trkpt><trkpt lat="44.3307386398208" lon="11.535711254791199"><ele>125.5</ele><time>2026-04-04T13:42:59.001Z</time></trkpt><trkpt lat="44.33068879475739" lon="11.535531426816306"><ele>124.0</ele><time>2026-04-04T13:43:00.001Z</time></trkpt><trkpt lat="44.33064052178586" lon="11.535352242005562"><ele>123.0</ele><time>2026-04-04T13:43:01.001Z</time></trkpt><trkpt lat="44.330593119906105" lon="11.53516941443651"><ele>122.0</ele><time>2026-04-04T13:43:02.001Z</time></trkpt><trkpt lat="44.33054258039944" lon="11.535001858177873"><ele>121.0</ele><time>2026-04-04T13:43:03.001Z</time></trkpt><trkpt lat="44.33051230475281" lon="11.534850312872619"><ele>120.0</ele><time>2026-04-04T13:43:04.001Z</time></trkpt><trkpt lat="44.33049973783751" lon="11.53469740304205"><ele>122.83333333333333</ele><time>2026-04-04T13:43:05.001Z</time></trkpt><trkpt lat="44.33047754315535" lon="11.53456180639404"><ele>125.66666666666666</ele><time>2026-04-04T13:43:06.001Z</time></trkpt><trkpt lat="44.33044553987745" lon="11.534446069953866"><ele>128.5</ele><time>2026-04-04T13:43:07.001Z</time></trkpt><trkpt lat="44.33044008221915" lon="11.534323175090178"><ele>131.33333333333331</ele><time>2026-04-04T13:43:08.001Z</time></trkpt><trkpt lat="44.33041464886157" lon="11.534224505981317"><ele>134.16666666666666</ele><time>2026-04-04T13:43:09.001Z</time></trkpt><trkpt lat="44.330399440748536" lon="11.534122902846866"><ele>137.0</ele><time>2026-04-04T13:43:10.001Z</time></trkpt><trkpt lat="44.330379998877895" lon="11.533970645048143"><ele>137.0</ele><time>2026-04-04T13:43:12.001Z</time></trkpt><trkpt lat="44.330376299767124" lon="11.533842892882207"><ele>137.0</ele><time>2026-04-04T13:43:14.001Z</time></trkpt><trkpt lat="44.33039151268303" lon="11.533732025517816"><ele>137.0</ele><time>2026-04-04T13:43:16.001Z</time></trkpt><trkpt lat="44.330531627826595" lon="11.533684312109708"><ele>137.0</ele><time>2026-04-04T13:43:18.001Z</time></trkpt><trkpt lat="44.330623385710545" lon="11.533658252392971"><ele>137.0</ele><time>2026-04-04T13:43:20.001Z</time></trkpt><trkpt lat="44.330693977998166" lon="11.533628178187284"><ele>135.0</ele><time>2026-04-04T13:43:22.001Z</time></trkpt><trkpt lat="44.33075607522154" lon="11.533600314501609"><ele>133.0</ele><time>2026-04-04T13:43:24.001Z</time></trkpt><trkpt lat="44.33083589932559" lon="11.5335781516146"><ele>131.0</ele><time>2026-04-04T13:43:27.001Z</time></trkpt><trkpt lat="44.33091096475737" lon="11.533561560695588"><ele>129.0</ele><time>2026-04-04T13:43:36.001Z</time></trkpt><trkpt lat="44.33099395867491" lon="11.53351912860742"><ele>126.99999999999999</ele><time>2026-04-04T13:43:38.001Z</time></trkpt><trkpt lat="44.3311140230209" lon="11.53348504420993"><ele>125.0</ele><time>2026-04-04T13:43:40.001Z</time></trkpt><trkpt lat="44.3311961486073" lon="11.533452808517128"><ele>125.0</ele><time>2026-04-04T13:43:41.001Z</time></trkpt><trkpt lat="44.33127830334105" lon="11.533405255978918"><ele>125.0</ele><time>2026-04-04T13:43:42.001Z</time></trkpt><trkpt lat="44.33136349774446" lon="11.53333027131791"><ele>125.0</ele><time>2026-04-04T13:43:43.001Z</time></trkpt><trkpt lat="44.33145954028737" lon="11.533228686462834"><ele>125.0</ele><time>2026-04-04T13:43:44.001Z</time></trkpt><trkpt lat="44.3315512341258" lon="11.533129371441095"><ele>125.0</ele><time>2026-04-04T13:43:45.001Z</time></trkpt><trkpt lat="44.331625627798246" lon="11.533048569597074"><ele>125.16666666666666</ele><time>2026-04-04T13:43:46.001Z</time></trkpt><trkpt lat="44.3316919202247" lon="11.532983243582825"><ele>125.33333333333333</ele><time>2026-04-04T13:43:47.001Z</time></trkpt><trkpt lat="44.33174878482772" lon="11.53292260388255"><ele>125.5</ele><time>2026-04-04T13:43:48.001Z</time></trkpt><trkpt lat="44.33180079209134" lon="11.532859219351462"><ele>125.66666666666666</ele><time>2026-04-04T13:43:49.001Z</time></trkpt><trkpt lat="44.33186995607325" lon="11.532766859341123"><ele>125.83333333333333</ele><time>2026-04-04T13:43:51.001Z</time></trkpt><trkpt lat="44.331940122194375" lon="11.532693471745276"><ele>126.0</ele><time>2026-04-04T13:43:54.002Z</time></trkpt><trkpt lat="44.33199698473704" lon="11.532654910782092"><ele>126.5</ele><time>2026-04-04T13:44:03.002Z</time></trkpt><trkpt lat="44.331917639656254" lon="11.532490908481963"><ele>127.0</ele><time>2026-04-04T13:44:04.002Z</time></trkpt><trkpt lat="44.331853870543945" lon="11.532439176733856"><ele>127.5</ele><time>2026-04-04T13:44:05.002Z</time></trkpt><trkpt lat="44.331801243714736" lon="11.532360287285053"><ele>128.0</ele><time>2026-04-04T13:44:06.002Z</time></trkpt><trkpt lat="44.33174518871241" lon="11.532291082680011"><ele>128.5</ele><time>2026-04-04T13:44:07.002Z</time></trkpt><trkpt lat="44.331695071782235" lon="11.532228505466803"><ele>129.0</ele><time>2026-04-04T13:44:08.002Z</time></trkpt><trkpt lat="44.33159812333105" lon="11.532117485343948"><ele>129.4</ele><time>2026-04-04T13:44:10.002Z</time></trkpt><trkpt lat="44.331559525316074" lon="11.532031346455545"><ele>129.8</ele><time>2026-04-04T13:44:11.002Z</time></trkpt><trkpt lat="44.331523587458435" lon="11.531918394850441"><ele>130.2</ele><time>2026-04-04T13:44:12.002Z</time></trkpt><trkpt lat="44.331531015720934" lon="11.5317756569161"><ele>130.6</ele><time>2026-04-04T13:44:13.002Z</time></trkpt><trkpt lat="44.331532702336375" lon="11.531621832843207"><ele>131.0</ele><time>2026-04-04T13:44:14.002Z</time></trkpt><trkpt lat="44.33153362557178" lon="11.531473556176236"><ele>131.0</ele><time>2026-04-04T13:44:15.002Z</time></trkpt><trkpt lat="44.33151818795545" lon="11.531315552382967"><ele>131.0</ele><time>2026-04-04T13:44:16.002Z</time></trkpt><trkpt lat="44.33152317449942" lon="11.531139155723443"><ele>131.0</ele><time>2026-04-04T13:44:17.002Z</time></trkpt><trkpt lat="44.3315332401646" lon="11.530955540135173"><ele>131.0</ele><time>2026-04-04T13:44:18Z</time></trkpt><trkpt lat="44.33153224791075" lon="11.530770421851871"><ele>131.25</ele><time>2026-04-04T13:44:19Z</time></trkpt><trkpt lat="44.331536878734155" lon="11.530579556789743"><ele>131.5</ele><time>2026-04-04T13:44:20Z</time></trkpt><trkpt lat="44.33153158896792" lon="11.530384568291705"><ele>131.75</ele><time>2026-04-04T13:44:21Z</time></trkpt><trkpt lat="44.33153063944836" lon="11.530191542488513"><ele>132.0</ele><time>2026-04-04T13:44:22Z</time></trkpt><trkpt lat="44.3315306363516" lon="11.530006942276284"><ele>132.0</ele><time>2026-04-04T13:44:23Z</time></trkpt><trkpt lat="44.33153834785851" lon="11.529845000782284"><ele>132.0</ele><time>2026-04-04T13:44:24Z</time></trkpt><trkpt lat="44.331541647835586" lon="11.529693122154981"><ele>132.0</ele><time>2026-04-04T13:44:25Z</time></trkpt><trkpt lat="44.33153874938365" lon="11.529550920357423"><ele>132.0</ele><time>2026-04-04T13:44:26Z</time></trkpt><trkpt lat="44.33154440780673" lon="11.529416906473903"><ele>132.0</ele><time>2026-04-04T13:44:27Z</time></trkpt><trkpt lat="44.33153664030818" lon="11.529280208749816"><ele>132.2</ele><time>2026-04-04T13:44:28Z</time></trkpt><trkpt lat="44.33154206869926" lon="11.529138040362051"><ele>132.39999999999998</ele><time>2026-04-04T13:44:29Z</time></trkpt><trkpt lat="44.331521144144574" lon="11.528999139362368"><ele>132.60000000000002</ele><time>2026-04-04T13:44:30Z</time></trkpt><trkpt lat="44.331499695981584" lon="11.528880350412056"><ele>132.8</ele><time>2026-04-04T13:44:31Z</time></trkpt><trkpt lat="44.331480347119275" lon="11.528762744083565"><ele>133.0</ele><time>2026-04-04T13:44:32Z</time></trkpt><trkpt lat="44.33145663084052" lon="11.528657711975043"><ele>131.6</ele><time>2026-04-04T13:44:33Z</time></trkpt><trkpt lat="44.331430326745284" lon="11.528562646262468"><ele>130.20000000000002</ele><time>2026-04-04T13:44:34Z</time></trkpt><trkpt lat="44.33140464151278" lon="11.528474009106665"><ele>128.8</ele><time>2026-04-04T13:44:35Z</time></trkpt><trkpt lat="44.33138295106342" lon="11.52839083452245"><ele>127.4</ele><time>2026-04-04T13:44:36Z</time></trkpt><trkpt lat="44.331335974844166" lon="11.528237725077668"><ele>126.0</ele><time>2026-04-04T13:44:38Z</time></trkpt><trkpt lat="44.331278961477835" lon="11.52807263501365"><ele>126.0</ele><time>2026-04-04T13:44:40Z</time></trkpt><trkpt lat="44.3312479670676" lon="11.527990000719063"><ele>126.0</ele><time>2026-04-04T13:44:41Z</time></trkpt><trkpt lat="44.33117841411392" lon="11.52785797630746"><ele>126.0</ele><time>2026-04-04T13:44:43Z</time></trkpt><trkpt lat="44.33113987953362" lon="11.527779981498185"><ele>126.0</ele><time>2026-04-04T13:44:44Z</time></trkpt><trkpt lat="44.331093329775506" lon="11.527701446843276"><ele>126.0</ele><time>2026-04-04T13:44:45Z</time></trkpt><trkpt lat="44.33103677075616" lon="11.527613528739789"><ele>126.0</ele><time>2026-04-04T13:44:46Z</time></trkpt><trkpt lat="44.33097456779964" lon="11.527528597028528"><ele>126.8</ele><time>2026-04-04T13:44:47Z</time></trkpt><trkpt lat="44.3309133090718" lon="11.527438091662257"><ele>127.6</ele><time>2026-04-04T13:44:48Z</time></trkpt><trkpt lat="44.33083550571714" lon="11.527338988076691"><ele>128.4</ele><time>2026-04-04T13:44:49Z</time></trkpt><trkpt lat="44.33075297284373" lon="11.52723835407957"><ele>129.2</ele><time>2026-04-04T13:44:50Z</time></trkpt><trkpt lat="44.33067306885119" lon="11.527135674813909"><ele>130.0</ele><time>2026-04-04T13:44:51Z</time></trkpt><trkpt lat="44.330580506360555" lon="11.5270216652379"><ele>130.0</ele><time>2026-04-04T13:44:52Z</time></trkpt><trkpt lat="44.33047970055962" lon="11.526902845492254"><ele>130.0</ele><time>2026-04-04T13:44:53Z</time></trkpt><trkpt lat="44.33037847371857" lon="11.52678588722041"><ele>130.0</ele><time>2026-04-04T13:44:54Z</time></trkpt><trkpt lat="44.33027989634543" lon="11.526674348214016"><ele>130.0</ele><time>2026-04-04T13:44:55Z</time></trkpt><trkpt lat="44.330191088073796" lon="11.526565961666407"><ele>130.0</ele><time>2026-04-04T13:44:56Z</time></trkpt><trkpt lat="44.330085337838426" lon="11.526450311619008"><ele>130.0</ele><time>2026-04-04T13:44:57Z</time></trkpt><trkpt lat="44.32998529069775" lon="11.526311077571734"><ele>130.0</ele><time>2026-04-04T13:44:58Z</time></trkpt><trkpt lat="44.32989476847353" lon="11.526179509106719"><ele>130.0</ele><time>2026-04-04T13:44:59Z</time></trkpt><trkpt lat="44.329813846355016" lon="11.526038593216052"><ele>130.75</ele><time>2026-04-04T13:45:00Z</time></trkpt><trkpt lat="44.32974376415954" lon="11.52588327447219"><ele>131.5</ele><time>2026-04-04T13:45:01Z</time></trkpt><trkpt lat="44.329686681406315" lon="11.525727745857997"><ele>132.25</ele><time>2026-04-04T13:45:02Z</time></trkpt><trkpt lat="44.329642312166925" lon="11.525568009460665"><ele>133.0</ele><time>2026-04-04T13:45:03Z</time></trkpt><trkpt lat="44.32960352300435" lon="11.525424820099364"><ele>133.4</ele><time>2026-04-04T13:45:04Z</time></trkpt><trkpt lat="44.32957105251244" lon="11.525303394600146"><ele>133.8</ele><time>2026-04-04T13:45:05Z</time></trkpt><trkpt lat="44.32953314850222" lon="11.525197014912145"><ele>134.2</ele><time>2026-04-04T13:45:06.001Z</time></trkpt><trkpt lat="44.32948501161905" lon="11.525092795950476"><ele>134.6</ele><time>2026-04-04T13:45:07.001Z</time></trkpt><trkpt lat="44.32940852198621" lon="11.525005253108967"><ele>135.0</ele><time>2026-04-04T13:45:08.001Z</time></trkpt><trkpt lat="44.32930987377716" lon="11.52493205873628"><ele>135.0</ele><time>2026-04-04T13:45:09.001Z</time></trkpt><trkpt lat="44.32918982574399" lon="11.524882820884336"><ele>135.0</ele><time>2026-04-04T13:45:10.001Z</time></trkpt><trkpt lat="44.329058706747865" lon="11.524835357641122"><ele>135.0</ele><time>2026-04-04T13:45:11.001Z</time></trkpt><trkpt lat="44.328914087455445" lon="11.524782360863233"><ele>135.0</ele><time>2026-04-04T13:45:12.001Z</time></trkpt><trkpt lat="44.3287773942632" lon="11.524755693366702"><ele>135.75</ele><time>2026-04-04T13:45:13.001Z</time></trkpt><trkpt lat="44.32863696889675" lon="11.524752461880716"><ele>136.5</ele><time>2026-04-04T13:45:14.001Z</time></trkpt><trkpt lat="44.32849308937618" lon="11.524749407010225"><ele>137.25</ele><time>2026-04-04T13:45:15.001Z</time></trkpt><trkpt lat="44.32834589954646" lon="11.524711469187636"><ele>138.0</ele><time>2026-04-04T13:45:16.001Z</time></trkpt><trkpt lat="44.32820154187439" lon="11.524639540712064"><ele>140.75</ele><time>2026-04-04T13:45:17.001Z</time></trkpt><trkpt lat="44.32806542222467" lon="11.524553113205057"><ele>143.5</ele><time>2026-04-04T13:45:18.001Z</time></trkpt><trkpt lat="44.32793110073614" lon="11.524466015856222"><ele>146.25</ele><time>2026-04-04T13:45:19.001Z</time></trkpt><trkpt lat="44.32779102116048" lon="11.524412319890144"><ele>149.0</ele><time>2026-04-04T13:45:20.001Z</time></trkpt><trkpt lat="44.32763768027637" lon="11.524390829034814"><ele>149.0</ele><time>2026-04-04T13:45:21.001Z</time></trkpt><trkpt lat="44.32748199826786" lon="11.524380747525608"><ele>149.0</ele><time>2026-04-04T13:45:22.001Z</time></trkpt><trkpt lat="44.3273262201023" lon="11.524356400499613"><ele>149.0</ele><time>2026-04-04T13:45:23.001Z</time></trkpt><trkpt lat="44.32718521233887" lon="11.52434170398383"><ele>149.0</ele><time>2026-04-04T13:45:24.001Z</time></trkpt><trkpt lat="44.32705504949615" lon="11.524326209937465"><ele>149.0</ele><time>2026-04-04T13:45:25.001Z</time></trkpt><trkpt lat="44.32692647740659" lon="11.524313842154687"><ele>149.0</ele><time>2026-04-04T13:45:26.001Z</time></trkpt><trkpt lat="44.32679079022308" lon="11.524301111118321"><ele>149.0</ele><time>2026-04-04T13:45:27.001Z</time></trkpt><trkpt lat="44.32666125069017" lon="11.524306373144723"><ele>149.0</ele><time>2026-04-04T13:45:28.001Z</time></trkpt><trkpt lat="44.32654129503331" lon="11.524325703613304"><ele>149.0</ele><time>2026-04-04T13:45:29.001Z</time></trkpt><trkpt lat="44.326426384934905" lon="11.524356910119979"><ele>149.0</ele><time>2026-04-04T13:45:30.001Z</time></trkpt><trkpt lat="44.326310190474544" lon="11.524381880750072"><ele>149.0</ele><time>2026-04-04T13:45:31.001Z</time></trkpt><trkpt lat="44.32620928465899" lon="11.52439964974591"><ele>148.0</ele><time>2026-04-04T13:45:32.001Z</time></trkpt><trkpt lat="44.32612063641275" lon="11.524424146697427"><ele>147.0</ele><time>2026-04-04T13:45:33.001Z</time></trkpt><trkpt lat="44.32602586891736" lon="11.524438355466168"><ele>146.0</ele><time>2026-04-04T13:45:34.001Z</time></trkpt><trkpt lat="44.32592490815116" lon="11.524418786159696"><ele>145.0</ele><time>2026-04-04T13:45:35.001Z</time></trkpt><trkpt lat="44.325845627741856" lon="11.524353939989561"><ele>144.0</ele><time>2026-04-04T13:45:36.001Z</time></trkpt><trkpt lat="44.325786605764826" lon="11.524254556328119"><ele>144.0</ele><time>2026-04-04T13:45:37.001Z</time></trkpt><trkpt lat="44.32578170295401" lon="11.52411122652993"><ele>144.0</ele><time>2026-04-04T13:45:38.001Z</time></trkpt><trkpt lat="44.32579726720299" lon="11.523965227456795"><ele>144.0</ele><time>2026-04-04T13:45:39.001Z</time></trkpt><trkpt lat="44.32590019888641" lon="11.523851529990944"><ele>144.0</ele><time>2026-04-04T13:45:40.001Z</time></trkpt><trkpt lat="44.32598612832249" lon="11.523700153365189"><ele>143.25</ele><time>2026-04-04T13:45:41.001Z</time></trkpt><trkpt lat="44.326071069288886" lon="11.523557066198865"><ele>142.5</ele><time>2026-04-04T13:45:42.001Z</time></trkpt><trkpt lat="44.32615782128999" lon="11.52342783629383"><ele>141.75</ele><time>2026-04-04T13:45:43.001Z</time></trkpt><trkpt lat="44.32624043269446" lon="11.523318899508777"><ele>141.0</ele><time>2026-04-04T13:45:44.001Z</time></trkpt><trkpt lat="44.3263177326679" lon="11.523229761146066"><ele>141.0</ele><time>2026-04-04T13:45:45.001Z</time></trkpt><trkpt lat="44.32638447896519" lon="11.523129997057342"><ele>141.0</ele><time>2026-04-04T13:45:46.001Z</time></trkpt><trkpt lat="44.326465887607" lon="11.523050572048527"><ele>141.0</ele><time>2026-04-04T13:45:47.001Z</time></trkpt><trkpt lat="44.32651271745401" lon="11.522886318192496"><ele>141.0</ele><time>2026-04-04T13:45:48.001Z</time></trkpt><trkpt lat="44.32653867889588" lon="11.52271473456873"><ele>141.0</ele><time>2026-04-04T13:45:49.001Z</time></trkpt><trkpt lat="44.32651989815431" lon="11.522523192419573"><ele>141.0</ele><time>2026-04-04T13:45:50.001Z</time></trkpt><trkpt lat="44.326468317100385" lon="11.522340008164132"><ele>141.0</ele><time>2026-04-04T13:45:51.001Z</time></trkpt><trkpt lat="44.32637939355376" lon="11.5221821997235"><ele>141.0</ele><time>2026-04-04T13:45:52.001Z</time></trkpt><trkpt lat="44.326298035109204" lon="11.522017867021066"><ele>141.0</ele><time>2026-04-04T13:45:53.001Z</time></trkpt><trkpt lat="44.32620786515348" lon="11.521846283951795"><ele>142.33333333333334</ele><time>2026-04-04T13:45:54.001Z</time></trkpt><trkpt lat="44.326084170334255" lon="11.521714820779959"><ele>143.66666666666669</ele><time>2026-04-04T13:45:55.001Z</time></trkpt><trkpt lat="44.325965593342154" lon="11.521588531259008"><ele>145.0</ele><time>2026-04-04T13:45:56.001Z</time></trkpt><trkpt lat="44.3258627977263" lon="11.521443416566154"><ele>145.0</ele><time>2026-04-04T13:45:57.001Z</time></trkpt><trkpt lat="44.32578301352462" lon="11.521286919637198"><ele>145.0</ele><time>2026-04-04T13:45:58.001Z</time></trkpt><trkpt lat="44.3256981544052" lon="11.521116681967936"><ele>145.0</ele><time>2026-04-04T13:45:59.001Z</time></trkpt><trkpt lat="44.3256164980894" lon="11.520952839700893"><ele>145.0</ele><time>2026-04-04T13:46:00.001Z</time></trkpt><trkpt lat="44.32554061339842" lon="11.52079944751922"><ele>145.25</ele><time>2026-04-04T13:46:01.001Z</time></trkpt><trkpt lat="44.32547610228249" lon="11.520659501753087"><ele>145.5</ele><time>2026-04-04T13:46:02.001Z</time></trkpt><trkpt lat="44.3254200758478" lon="11.520522036583523"><ele>145.75</ele><time>2026-04-04T13:46:03.002Z</time></trkpt><trkpt lat="44.32536966055877" lon="11.520362754402642"><ele>146.0</ele><time>2026-04-04T13:46:04.002Z</time></trkpt><trkpt lat="44.32532729135958" lon="11.520194283838872"><ele>146.0</ele><time>2026-04-04T13:46:05.002Z</time></trkpt><trkpt lat="44.32529543418107" lon="11.520025617444196"><ele>146.0</ele><time>2026-04-04T13:46:06.002Z</time></trkpt><trkpt lat="44.325259577157276" lon="11.519856687787588"><ele>146.0</ele><time>2026-04-04T13:46:07.002Z</time></trkpt><trkpt lat="44.32521188678939" lon="11.519679795595374"><ele>146.0</ele><time>2026-04-04T13:46:08.002Z</time></trkpt><trkpt lat="44.32513225638632" lon="11.519516868048454"><ele>146.75</ele><time>2026-04-04T13:46:09.002Z</time></trkpt><trkpt lat="44.32504158124271" lon="11.519364144390504"><ele>147.5</ele><time>2026-04-04T13:46:10.002Z</time></trkpt><trkpt lat="44.324931992053465" lon="11.519229401907097"><ele>148.25</ele><time>2026-04-04T13:46:11.002Z</time></trkpt><trkpt lat="44.32480788302732" lon="11.51911540411661"><ele>149.0</ele><time>2026-04-04T13:46:12.002Z</time></trkpt><trkpt lat="44.32466994741436" lon="11.519020448350364"><ele>149.0</ele><time>2026-04-04T13:46:13.002Z</time></trkpt><trkpt lat="44.32453479384368" lon="11.518924159725533"><ele>149.0</ele><time>2026-04-04T13:46:14.002Z</time></trkpt><trkpt lat="44.324419293509486" lon="11.518801335640708"><ele>149.0</ele><time>2026-04-04T13:46:15.002Z</time></trkpt><trkpt lat="44.32428952450458" lon="11.518718284461201"><ele>149.0</ele><time>2026-04-04T13:46:16.002Z</time></trkpt><trkpt lat="44.32416744710657" lon="11.518626417311259"><ele>150.5</ele><time>2026-04-04T13:46:17.002Z</time></trkpt><trkpt lat="44.32403634474372" lon="11.518562546312832"><ele>152.0</ele><time>2026-04-04T13:46:18.002Z</time></trkpt><trkpt lat="44.32390787763878" lon="11.518520341566614"><ele>153.5</ele><time>2026-04-04T13:46:19.002Z</time></trkpt><trkpt lat="44.32378621994167" lon="11.51849678081083"><ele>155.0</ele><time>2026-04-04T13:46:20.002Z</time></trkpt><trkpt lat="44.32367036648715" lon="11.518494851158103"><ele>156.0</ele><time>2026-04-04T13:46:21.002Z</time></trkpt><trkpt lat="44.32355060932977" lon="11.518514250600337"><ele>157.0</ele><time>2026-04-04T13:46:22.002Z</time></trkpt><trkpt lat="44.32343901871223" lon="11.518539797716421"><ele>158.0</ele><time>2026-04-04T13:46:23.002Z</time></trkpt><trkpt lat="44.32332929033324" lon="11.518546967606687"><ele>159.0</ele><time>2026-04-04T13:46:24Z</time></trkpt><trkpt lat="44.32322494188545" lon="11.518515024338623"><ele>159.0</ele><time>2026-04-04T13:46:25Z</time></trkpt><trkpt lat="44.32313390519479" lon="11.518418619171364"><ele>159.0</ele><time>2026-04-04T13:46:26Z</time></trkpt><trkpt lat="44.32304112145256" lon="11.518333751396707"><ele>159.0</ele><time>2026-04-04T13:46:27Z</time></trkpt><trkpt lat="44.322936348929865" lon="11.518262996447"><ele>159.0</ele><time>2026-04-04T13:46:28Z</time></trkpt><trkpt lat="44.322822349857" lon="11.518199156622842"><ele>159.0</ele><time>2026-04-04T13:46:29Z</time></trkpt><trkpt lat="44.3226958371849" lon="11.518176831997517"><ele>159.0</ele><time>2026-04-04T13:46:30Z</time></trkpt><trkpt lat="44.322568101390004" lon="11.518184214879584"><ele>159.0</ele><time>2026-04-04T13:46:31Z</time></trkpt><trkpt lat="44.32245684093721" lon="11.518205265903273"><ele>159.0</ele><time>2026-04-04T13:46:32Z</time></trkpt><trkpt lat="44.32235939169303" lon="11.51822392840532"><ele>159.0</ele><time>2026-04-04T13:46:33Z</time></trkpt><trkpt lat="44.322265793182616" lon="11.518215029740242"><ele>159.0</ele><time>2026-04-04T13:46:34Z</time></trkpt><trkpt lat="44.322182273712066" lon="11.518128974027624"><ele>159.0</ele><time>2026-04-04T13:46:35Z</time></trkpt><trkpt lat="44.32211424865367" lon="11.51802852773128"><ele>159.0</ele><time>2026-04-04T13:46:36Z</time></trkpt><trkpt lat="44.322056762330234" lon="11.517887510035438"><ele>159.0</ele><time>2026-04-04T13:46:37Z</time></trkpt><trkpt lat="44.3219891189701" lon="11.517733422300266"><ele>158.75</ele><time>2026-04-04T13:46:38Z</time></trkpt><trkpt lat="44.321918476409095" lon="11.517560963247867"><ele>158.5</ele><time>2026-04-04T13:46:39Z</time></trkpt><trkpt lat="44.3218479985535" lon="11.517389093760656"><ele>158.25</ele><time>2026-04-04T13:46:40Z</time></trkpt><trkpt lat="44.321769148697065" lon="11.517212777068373"><ele>158.0</ele><time>2026-04-04T13:46:41Z</time></trkpt><trkpt lat="44.32168154713586" lon="11.517055178878294"><ele>159.0</ele><time>2026-04-04T13:46:42Z</time></trkpt><trkpt lat="44.321634567253284" lon="11.51689398162722"><ele>160.0</ele><time>2026-04-04T13:46:43Z</time></trkpt><trkpt lat="44.32158568487016" lon="11.516748598571507"><ele>161.0</ele><time>2026-04-04T13:46:44Z</time></trkpt><trkpt lat="44.32155810491288" lon="11.516580572640795"><ele>162.0</ele><time>2026-04-04T13:46:45Z</time></trkpt><trkpt lat="44.32153195941813" lon="11.51641196520328"><ele>162.0</ele><time>2026-04-04T13:46:46Z</time></trkpt><trkpt lat="44.32149420363739" lon="11.516253109107337"><ele>162.0</ele><time>2026-04-04T13:46:47Z</time></trkpt><trkpt lat="44.32146979083822" lon="11.516081096279242"><ele>162.0</ele><time>2026-04-04T13:46:48Z</time></trkpt><trkpt lat="44.32147185063003" lon="11.5158992530441"><ele>162.0</ele><time>2026-04-04T13:46:49Z</time></trkpt><trkpt lat="44.32145069246703" lon="11.515716654061352"><ele>162.25</ele><time>2026-04-04T13:46:50Z</time></trkpt><trkpt lat="44.32145338510432" lon="11.51552826586311"><ele>162.5</ele><time>2026-04-04T13:46:51Z</time></trkpt><trkpt lat="44.32144910296334" lon="11.515333827507698"><ele>162.75</ele><time>2026-04-04T13:46:52Z</time></trkpt><trkpt lat="44.32145211953373" lon="11.51515527216014"><ele>163.0</ele><time>2026-04-04T13:46:53Z</time></trkpt><trkpt lat="44.32146422565399" lon="11.514972499967032"><ele>163.0</ele><time>2026-04-04T13:46:54Z</time></trkpt><trkpt lat="44.32148959181924" lon="11.514806843759287"><ele>163.0</ele><time>2026-04-04T13:46:55Z</time></trkpt><trkpt lat="44.321512908657304" lon="11.514648902166297"><ele>163.0</ele><time>2026-04-04T13:46:56Z</time></trkpt><trkpt lat="44.3215243445505" lon="11.514475612942068"><ele>163.0</ele><time>2026-04-04T13:46:57Z</time></trkpt><trkpt lat="44.321536149799634" lon="11.514289000609109"><ele>162.5</ele><time>2026-04-04T13:46:58Z</time></trkpt><trkpt lat="44.32154826267544" lon="11.514116772346751"><ele>162.0</ele><time>2026-04-04T13:46:59Z</time></trkpt><trkpt lat="44.321557786904876" lon="11.513960910736875"><ele>161.5</ele><time>2026-04-04T13:47:00Z</time></trkpt><trkpt lat="44.321560258368656" lon="11.51379948213946"><ele>161.0</ele><time>2026-04-04T13:47:01Z</time></trkpt><trkpt lat="44.32155962889497" lon="11.513635519490785"><ele>160.5</ele><time>2026-04-04T13:47:02Z</time></trkpt><trkpt lat="44.321558565767006" lon="11.513464579092155"><ele>160.0</ele><time>2026-04-04T13:47:03Z</time></trkpt><trkpt lat="44.32157197810088" lon="11.513289807014374"><ele>159.5</ele><time>2026-04-04T13:47:04Z</time></trkpt><trkpt lat="44.32163736107363" lon="11.513127383312378"><ele>159.0</ele><time>2026-04-04T13:47:05Z</time></trkpt><trkpt lat="44.32168546154802" lon="11.512952978561195"><ele>158.75</ele><time>2026-04-04T13:47:06Z</time></trkpt><trkpt lat="44.321745951343715" lon="11.51278699691853"><ele>158.5</ele><time>2026-04-04T13:47:07Z</time></trkpt><trkpt lat="44.32179035790256" lon="11.512616915444081"><ele>158.25</ele><time>2026-04-04T13:47:08.001Z</time></trkpt><trkpt lat="44.32181644126452" lon="11.512451022249106"><ele>158.0</ele><time>2026-04-04T13:47:09.001Z</time></trkpt><trkpt lat="44.32183318095189" lon="11.512298866774225"><ele>158.0</ele><time>2026-04-04T13:47:10.001Z</time></trkpt><trkpt lat="44.32183354842333" lon="11.512146438051094"><ele>158.0</ele><time>2026-04-04T13:47:11.001Z</time></trkpt><trkpt lat="44.32180084695378" lon="11.511978025952605"><ele>158.0</ele><time>2026-04-04T13:47:12.001Z</time></trkpt><trkpt lat="44.32172734349645" lon="11.511818098657034"><ele>158.0</ele><time>2026-04-04T13:47:13.001Z</time></trkpt><trkpt lat="44.32162617309246" lon="11.511664557329187"><ele>158.66666666666666</ele><time>2026-04-04T13:47:14.001Z</time></trkpt><trkpt lat="44.32150723405515" lon="11.511533582454199"><ele>159.33333333333334</ele><time>2026-04-04T13:47:15.001Z</time></trkpt><trkpt lat="44.32138658537896" lon="11.511394052910711"><ele>160.0</ele><time>2026-04-04T13:47:16.001Z</time></trkpt><trkpt lat="44.3212546016491" lon="11.511243178209652"><ele>158.33333333333334</ele><time>2026-04-04T13:47:17.001Z</time></trkpt><trkpt lat="44.321139244467744" lon="11.511096959356138"><ele>156.66666666666666</ele><time>2026-04-04T13:47:18.001Z</time></trkpt><trkpt lat="44.32100397956696" lon="11.511014740749406"><ele>155.0</ele><time>2026-04-04T13:47:19.001Z</time></trkpt><trkpt lat="44.320873354482565" lon="11.510911062457453"><ele>155.0</ele><time>2026-04-04T13:47:20.001Z</time></trkpt><trkpt lat="44.32076066789525" lon="11.510781292652295"><ele>155.0</ele><time>2026-04-04T13:47:21.001Z</time></trkpt><trkpt lat="44.320675520518336" lon="11.510620028076657"><ele>155.0</ele><time>2026-04-04T13:47:22.001Z</time></trkpt><trkpt lat="44.320574523155344" lon="11.510461083881403"><ele>155.0</ele><time>2026-04-04T13:47:23.001Z</time></trkpt><trkpt lat="44.320464555829794" lon="11.510310118072676"><ele>154.0</ele><time>2026-04-04T13:47:24.001Z</time></trkpt><trkpt lat="44.3203546387268" lon="11.51020065962603"><ele>153.0</ele><time>2026-04-04T13:47:25.001Z</time></trkpt><trkpt lat="44.32026093450069" lon="11.510075719558527"><ele>152.0</ele><time>2026-04-04T13:47:26.001Z</time></trkpt><trkpt lat="44.32017074963171" lon="11.509969584056364"><ele>151.0</ele><time>2026-04-04T13:47:27.001Z</time></trkpt><trkpt lat="44.32009556460684" lon="11.509866668859353"><ele>151.0</ele><time>2026-04-04T13:47:28.001Z</time></trkpt><trkpt lat="44.320029621029036" lon="11.509743224337933"><ele>151.0</ele><time>2026-04-04T13:47:29.001Z</time></trkpt><trkpt lat="44.31999644670354" lon="11.509592709864407"><ele>151.0</ele><time>2026-04-04T13:47:30.001Z</time></trkpt><trkpt lat="44.319975077795334" lon="11.509441845895418"><ele>151.0</ele><time>2026-04-04T13:47:31.001Z</time></trkpt><trkpt lat="44.320023270268294" lon="11.509286722142532"><ele>151.5</ele><time>2026-04-04T13:47:32.001Z</time></trkpt><trkpt lat="44.3200648576423" lon="11.509120485451954"><ele>152.0</ele><time>2026-04-04T13:47:33.001Z</time></trkpt><trkpt lat="44.32008399463247" lon="11.508959419865352"><ele>152.5</ele><time>2026-04-04T13:47:34.001Z</time></trkpt><trkpt lat="44.32009184049107" lon="11.50879606185515"><ele>153.0</ele><time>2026-04-04T13:47:35.001Z</time></trkpt><trkpt lat="44.32007872903889" lon="11.508612101421251"><ele>153.0</ele><time>2026-04-04T13:47:36.001Z</time></trkpt><trkpt lat="44.320044878848776" lon="11.508418108750334"><ele>153.0</ele><time>2026-04-04T13:47:37.001Z</time></trkpt><trkpt lat="44.32000873351969" lon="11.508219255254128"><ele>153.0</ele><time>2026-04-04T13:47:38.001Z</time></trkpt><trkpt lat="44.31997240343115" lon="11.508017680490866"><ele>153.0</ele><time>2026-04-04T13:47:39.001Z</time></trkpt><trkpt lat="44.31993963760256" lon="11.507828477988781"><ele>154.0</ele><time>2026-04-04T13:47:40.001Z</time></trkpt><trkpt lat="44.31990938346983" lon="11.507649968204356"><ele>155.0</ele><time>2026-04-04T13:47:41.001Z</time></trkpt><trkpt lat="44.319878293719476" lon="11.507466528032184"><ele>156.0</ele><time>2026-04-04T13:47:42.001Z</time></trkpt><trkpt lat="44.31984650680542" lon="11.50727529086261"><ele>157.0</ele><time>2026-04-04T13:47:43.001Z</time></trkpt><trkpt lat="44.31980017413225" lon="11.507088463707683"><ele>158.75</ele><time>2026-04-04T13:47:44.001Z</time></trkpt><trkpt lat="44.31976980863352" lon="11.50689266133944"><ele>160.5</ele><time>2026-04-04T13:47:45.001Z</time></trkpt><trkpt lat="44.31973571702035" lon="11.50669694807146"><ele>162.25</ele><time>2026-04-04T13:47:46.001Z</time></trkpt><trkpt lat="44.31970626778576" lon="11.506501836446398"><ele>164.0</ele><time>2026-04-04T13:47:47.001Z</time></trkpt><trkpt lat="44.319672248576964" lon="11.506317482707185"><ele>160.5</ele><time>2026-04-04T13:47:48.001Z</time></trkpt><trkpt lat="44.31965592682083" lon="11.506119860847376"><ele>157.0</ele><time>2026-04-04T13:47:49.001Z</time></trkpt><trkpt lat="44.31962365877742" lon="11.505923148172938"><ele>153.5</ele><time>2026-04-04T13:47:50.001Z</time></trkpt><trkpt lat="44.31957521007006" lon="11.505728346716513"><ele>150.0</ele><time>2026-04-04T13:47:51.001Z</time></trkpt><trkpt lat="44.31954209886367" lon="11.505524313408905"><ele>150.25</ele><time>2026-04-04T13:47:52.001Z</time></trkpt><trkpt lat="44.319509594595715" lon="11.505322130997323"><ele>150.5</ele><time>2026-04-04T13:47:53.001Z</time></trkpt><trkpt lat="44.319478049300244" lon="11.505122264670561"><ele>150.75</ele><time>2026-04-04T13:47:54.001Z</time></trkpt><trkpt lat="44.31944569696246" lon="11.504917410352052"><ele>151.0</ele><time>2026-04-04T13:47:55.001Z</time></trkpt><trkpt lat="44.319428864824005" lon="11.504700796140932"><ele>151.33333333333334</ele><time>2026-04-04T13:47:56.001Z</time></trkpt><trkpt lat="44.319400361397406" lon="11.504485742638066"><ele>151.66666666666666</ele><time>2026-04-04T13:47:57.001Z</time></trkpt><trkpt lat="44.31937435995729" lon="11.50426765996723"><ele>152.0</ele><time>2026-04-04T13:47:58.001Z</time></trkpt><trkpt lat="44.31935133015355" lon="11.504042397784934"><ele>152.0</ele><time>2026-04-04T13:47:59.001Z</time></trkpt><trkpt lat="44.319341864836304" lon="11.503813897430955"><ele>152.0</ele><time>2026-04-04T13:48:00.001Z</time></trkpt><trkpt lat="44.31935185685017" lon="11.503593196925648"><ele>152.0</ele><time>2026-04-04T13:48:01.001Z</time></trkpt><trkpt lat="44.31938035339946" lon="11.503376998366043"><ele>152.5</ele><time>2026-04-04T13:48:02.001Z</time></trkpt><trkpt lat="44.31942972831979" lon="11.50317079115199"><ele>153.0</ele><time>2026-04-04T13:48:03.001Z</time></trkpt><trkpt lat="44.31949226135133" lon="11.502983832290765"><ele>153.5</ele><time>2026-04-04T13:48:04.001Z</time></trkpt><trkpt lat="44.31955539853484" lon="11.502819407750028"><ele>154.0</ele><time>2026-04-04T13:48:05.002Z</time></trkpt><trkpt lat="44.319611236526285" lon="11.502676130173125"><ele>154.0</ele><time>2026-04-04T13:48:06.002Z</time></trkpt><trkpt lat="44.31966607423052" lon="11.502537890267853"><ele>154.0</ele><time>2026-04-04T13:48:07.002Z</time></trkpt><trkpt lat="44.31971838032768" lon="11.502398670996453"><ele>154.0</ele><time>2026-04-04T13:48:08.002Z</time></trkpt><trkpt lat="44.319763065986855" lon="11.502239520497755"><ele>154.0</ele><time>2026-04-04T13:48:09.002Z</time></trkpt><trkpt lat="44.31979024574564" lon="11.50207088944648"><ele>155.0</ele><time>2026-04-04T13:48:10.002Z</time></trkpt><trkpt lat="44.31978615290528" lon="11.501919941786927"><ele>156.0</ele><time>2026-04-04T13:48:11.002Z</time></trkpt><trkpt lat="44.31978905167644" lon="11.501796172027214"><ele>157.0</ele><time>2026-04-04T13:48:12.002Z</time></trkpt><trkpt lat="44.3197902325034" lon="11.501698331231959"><ele>158.0</ele><time>2026-04-04T13:48:13.002Z</time></trkpt><trkpt lat="44.319792750105094" lon="11.50160255629613"><ele>159.0</ele><time>2026-04-04T13:48:14.002Z</time></trkpt><trkpt lat="44.31978357299333" lon="11.501514972428025"><ele>160.0</ele><time>2026-04-04T13:48:15.002Z</time></trkpt><trkpt lat="44.319777422099236" lon="11.501425734780856"><ele>160.0</ele><time>2026-04-04T13:48:16.002Z</time></trkpt><trkpt lat="44.31976826103703" lon="11.501323056301656"><ele>160.0</ele><time>2026-04-04T13:48:17.002Z</time></trkpt><trkpt lat="44.31976402872284" lon="11.50120124202859"><ele>160.0</ele><time>2026-04-04T13:48:18.002Z</time></trkpt><trkpt lat="44.319763527001534" lon="11.501050118124173"><ele>160.0</ele><time>2026-04-04T13:48:19.002Z</time></trkpt><trkpt lat="44.31977754519406" lon="11.50088039276983"><ele>160.0</ele><time>2026-04-04T13:48:20.002Z</time></trkpt><trkpt lat="44.31979271696062" lon="11.500706689034327"><ele>159.5</ele><time>2026-04-04T13:48:21.002Z</time></trkpt><trkpt lat="44.31979092618752" lon="11.500528982918107"><ele>159.0</ele><time>2026-04-04T13:48:22.002Z</time></trkpt><trkpt lat="44.31976712511997" lon="11.50034690315087"><ele>158.5</ele><time>2026-04-04T13:48:23.002Z</time></trkpt><trkpt lat="44.319737193178796" lon="11.500166564848328"><ele>158.0</ele><time>2026-04-04T13:48:24.002Z</time></trkpt><trkpt lat="44.31971354496035" lon="11.499986628214607"><ele>158.0</ele><time>2026-04-04T13:48:25.002Z</time></trkpt><trkpt lat="44.31969903129515" lon="11.499820163105392"><ele>158.0</ele><time>2026-04-04T13:48:26.002Z</time></trkpt><trkpt lat="44.3196804866365" lon="11.49965739996354"><ele>158.0</ele><time>2026-04-04T13:48:27.002Z</time></trkpt><trkpt lat="44.31966406068846" lon="11.499494686899572"><ele>158.0</ele><time>2026-04-04T13:48:28.002Z</time></trkpt><trkpt lat="44.31962248907157" lon="11.499331970969997"><ele>158.0</ele><time>2026-04-04T13:48:29.002Z</time></trkpt><trkpt lat="44.31956354486528" lon="11.499165801505233"><ele>158.0</ele><time>2026-04-04T13:48:30Z</time></trkpt><trkpt lat="44.31948819654915" lon="11.49901138921533"><ele>158.0</ele><time>2026-04-04T13:48:31Z</time></trkpt><trkpt lat="44.319407517332266" lon="11.498873390949806"><ele>158.0</ele><time>2026-04-04T13:48:32Z</time></trkpt><trkpt lat="44.31933178508384" lon="11.498715592829843"><ele>158.5</ele><time>2026-04-04T13:48:33Z</time></trkpt><trkpt lat="44.319278774954554" lon="11.498552597133955"><ele>159.0</ele><time>2026-04-04T13:48:34Z</time></trkpt><trkpt lat="44.31927085836213" lon="11.498375779300407"><ele>159.5</ele><time>2026-04-04T13:48:35Z</time></trkpt><trkpt lat="44.31926165397117" lon="11.49819968268588"><ele>160.0</ele><time>2026-04-04T13:48:36Z</time></trkpt><trkpt lat="44.31925923574922" lon="11.498013900885413"><ele>159.75</ele><time>2026-04-04T13:48:37Z</time></trkpt><trkpt lat="44.31927897653029" lon="11.497830048649844"><ele>159.5</ele><time>2026-04-04T13:48:38Z</time></trkpt><trkpt lat="44.319302966017474" lon="11.497635361950572"><ele>159.25</ele><time>2026-04-04T13:48:39Z</time></trkpt><trkpt lat="44.31933708318362" lon="11.49743533221241"><ele>159.0</ele><time>2026-04-04T13:48:40Z</time></trkpt><trkpt lat="44.3193790312929" lon="11.497238060412188"><ele>159.0</ele><time>2026-04-04T13:48:41Z</time></trkpt><trkpt lat="44.31942669159001" lon="11.497034058294414"><ele>159.0</ele><time>2026-04-04T13:48:42Z</time></trkpt><trkpt lat="44.31947927137895" lon="11.496823815217862"><ele>159.0</ele><time>2026-04-04T13:48:43Z</time></trkpt><trkpt lat="44.31952905748704" lon="11.496607701090825"><ele>159.0</ele><time>2026-04-04T13:48:44Z</time></trkpt><trkpt lat="44.319563825774814" lon="11.496378473753353"><ele>159.0</ele><time>2026-04-04T13:48:45Z</time></trkpt><trkpt lat="44.31957489092702" lon="11.496153621297196"><ele>159.0</ele><time>2026-04-04T13:48:46Z</time></trkpt><trkpt lat="44.31956773314263" lon="11.495926951817594"><ele>159.25</ele><time>2026-04-04T13:48:47Z</time></trkpt><trkpt lat="44.31954673225916" lon="11.495714939953567"><ele>159.5</ele><time>2026-04-04T13:48:48Z</time></trkpt><trkpt lat="44.319533935532895" lon="11.49551745929758"><ele>159.75</ele><time>2026-04-04T13:48:49Z</time></trkpt><trkpt lat="44.31954125202531" lon="11.495332828142661"><ele>160.0</ele><time>2026-04-04T13:48:50Z</time></trkpt><trkpt lat="44.31957309924637" lon="11.49513767619036"><ele>160.25</ele><time>2026-04-04T13:48:51Z</time></trkpt><trkpt lat="44.31961057476374" lon="11.494945089088569"><ele>160.5</ele><time>2026-04-04T13:48:52Z</time></trkpt><trkpt lat="44.31965433662912" lon="11.49476095469459"><ele>160.75</ele><time>2026-04-04T13:48:53Z</time></trkpt><trkpt lat="44.31970310748497" lon="11.49458049228287"><ele>161.0</ele><time>2026-04-04T13:48:54Z</time></trkpt><trkpt lat="44.319752452957516" lon="11.494404587927075"><ele>163.0</ele><time>2026-04-04T13:48:55Z</time></trkpt><trkpt lat="44.3197968579766" lon="11.494226955356202"><ele>165.0</ele><time>2026-04-04T13:48:56Z</time></trkpt><trkpt lat="44.3198116159642" lon="11.494050502989774"><ele>167.0</ele><time>2026-04-04T13:48:57Z</time></trkpt><trkpt lat="44.31982093692374" lon="11.493865862561986"><ele>169.0</ele><time>2026-04-04T13:48:58Z</time></trkpt><trkpt lat="44.31980477435078" lon="11.493672301506885"><ele>168.5</ele><time>2026-04-04T13:48:59Z</time></trkpt><trkpt lat="44.319767087420715" lon="11.493482096172645"><ele>168.0</ele><time>2026-04-04T13:49:00Z</time></trkpt><trkpt lat="44.31969846939109" lon="11.493303653211134"><ele>167.5</ele><time>2026-04-04T13:49:01Z</time></trkpt><trkpt lat="44.319638121724196" lon="11.493144735340588"><ele>167.0</ele><time>2026-04-04T13:49:02Z</time></trkpt><trkpt lat="44.31957671582259" lon="11.492986276061268"><ele>168.75</ele><time>2026-04-04T13:49:03Z</time></trkpt><trkpt lat="44.31951643677056" lon="11.492813158871552"><ele>170.5</ele><time>2026-04-04T13:49:04Z</time></trkpt><trkpt lat="44.31947165786145" lon="11.492635897514175"><ele>172.25</ele><time>2026-04-04T13:49:05Z</time></trkpt><trkpt lat="44.31943098890127" lon="11.492456410631544"><ele>174.0</ele><time>2026-04-04T13:49:06Z</time></trkpt><trkpt lat="44.3193949532853" lon="11.4922795550027"><ele>174.0</ele><time>2026-04-04T13:49:07Z</time></trkpt><trkpt lat="44.319373133778946" lon="11.492097942721598"><ele>174.0</ele><time>2026-04-04T13:49:08.001Z</time></trkpt><trkpt lat="44.31936113453085" lon="11.491897467469148"><ele>174.0</ele><time>2026-04-04T13:49:09.001Z</time></trkpt><trkpt lat="44.31936156841095" lon="11.491683592123273"><ele>174.0</ele><time>2026-04-04T13:49:10.001Z</time></trkpt><trkpt lat="44.31936788074515" lon="11.49146083680805"><ele>171.33333333333334</ele><time>2026-04-04T13:49:11.001Z</time></trkpt><trkpt lat="44.31938699775626" lon="11.491235777764768"><ele>168.66666666666669</ele><time>2026-04-04T13:49:12.001Z</time></trkpt><trkpt lat="44.31943116240213" lon="11.490984701780139"><ele>166.0</ele><time>2026-04-04T13:49:13.001Z</time></trkpt><trkpt lat="44.31948164501901" lon="11.490703095260654"><ele>166.0</ele><time>2026-04-04T13:49:14.001Z</time></trkpt><trkpt lat="44.319511461999404" lon="11.490427497279933"><ele>166.0</ele><time>2026-04-04T13:49:15.001Z</time></trkpt><trkpt lat="44.31951511147238" lon="11.490176712429218"><ele>166.0</ele><time>2026-04-04T13:49:16.001Z</time></trkpt><trkpt lat="44.31951107866995" lon="11.489932481591586"><ele>166.0</ele><time>2026-04-04T13:49:17.001Z</time></trkpt><trkpt lat="44.319507871352045" lon="11.489700868795364"><ele>166.0</ele><time>2026-04-04T13:49:18.001Z</time></trkpt><trkpt lat="44.319508451469915" lon="11.489491991342254"><ele>166.0</ele><time>2026-04-04T13:49:19.001Z</time></trkpt><trkpt lat="44.31952091950286" lon="11.48929364342385"><ele>166.0</ele><time>2026-04-04T13:49:20.001Z</time></trkpt><trkpt lat="44.31956426776538" lon="11.489094410074635"><ele>166.0</ele><time>2026-04-04T13:49:21.001Z</time></trkpt><trkpt lat="44.31963277703511" lon="11.488872367888884"><ele>166.0</ele><time>2026-04-04T13:49:22.001Z</time></trkpt><trkpt lat="44.31970427726292" lon="11.488638906968756"><ele>170.0</ele><time>2026-04-04T13:49:23.001Z</time></trkpt><trkpt lat="44.31975601899637" lon="11.488406923172139"><ele>174.0</ele><time>2026-04-04T13:49:24.001Z</time></trkpt><trkpt lat="44.31976634842522" lon="11.488177537875282"><ele>178.0</ele><time>2026-04-04T13:49:25.001Z</time></trkpt><trkpt lat="44.319744933341255" lon="11.48793791567422"><ele>178.66666666666669</ele><time>2026-04-04T13:49:26.001Z</time></trkpt><trkpt lat="44.319752999743635" lon="11.487684722756521"><ele>179.33333333333334</ele><time>2026-04-04T13:49:27.001Z</time></trkpt><trkpt lat="44.319746717679855" lon="11.487470897774028"><ele>180.0</ele><time>2026-04-04T13:49:28.001Z</time></trkpt><trkpt lat="44.319743470183866" lon="11.487275990874826"><ele>180.0</ele><time>2026-04-04T13:49:29.001Z</time></trkpt><trkpt lat="44.31974767665168" lon="11.487107850652222"><ele>180.0</ele><time>2026-04-04T13:49:30.001Z</time></trkpt><trkpt lat="44.319770238985704" lon="11.486973745686466"><ele>180.0</ele><time>2026-04-04T13:49:31.001Z</time></trkpt><trkpt lat="44.31981203375645" lon="11.486837077965932"><ele>180.0</ele><time>2026-04-04T13:49:32.001Z</time></trkpt><trkpt lat="44.319881073516264" lon="11.4867031269196"><ele>180.0</ele><time>2026-04-04T13:49:33.001Z</time></trkpt><trkpt lat="44.319969072688906" lon="11.486566043961838"><ele>179.4</ele><time>2026-04-04T13:49:34.001Z</time></trkpt><trkpt lat="44.32004111108358" lon="11.486420504038078"><ele>178.8</ele><time>2026-04-04T13:49:35.001Z</time></trkpt><trkpt lat="44.32010810484118" lon="11.486306653345213"><ele>178.2</ele><time>2026-04-04T13:49:36.001Z</time></trkpt><trkpt lat="44.32017396444887" lon="11.48620238185494"><ele>177.6</ele><time>2026-04-04T13:49:37.001Z</time></trkpt><trkpt lat="44.320212199953666" lon="11.486065050997322"><ele>177.0</ele><time>2026-04-04T13:49:38.001Z</time></trkpt><trkpt lat="44.32023937141574" lon="11.485903711121063"><ele>176.39999999999998</ele><time>2026-04-04T13:49:39.001Z</time></trkpt><trkpt lat="44.32023845155452" lon="11.48572627676608"><ele>175.79999999999998</ele><time>2026-04-04T13:49:40.001Z</time></trkpt><trkpt lat="44.32023944841663" lon="11.48556571390515"><ele>175.2</ele><time>2026-04-04T13:49:41.001Z</time></trkpt><trkpt lat="44.320239448416764" lon="11.485418303230484"><ele>174.6</ele><time>2026-04-04T13:49:42.001Z</time></trkpt><trkpt lat="44.32023944841657" lon="11.485286597863452"><ele>174.0</ele><time>2026-04-04T13:49:43.001Z</time></trkpt><trkpt lat="44.32023944841828" lon="11.485160232819391"><ele>173.83333333333334</ele><time>2026-04-04T13:49:44.001Z</time></trkpt><trkpt lat="44.320240219590985" lon="11.485035667700519"><ele>173.66666666666666</ele><time>2026-04-04T13:49:45.001Z</time></trkpt><trkpt lat="44.32024097735345" lon="11.484907602787917"><ele>173.5</ele><time>2026-04-04T13:49:46.001Z</time></trkpt><trkpt lat="44.3202422621388" lon="11.48478703011461"><ele>173.33333333333331</ele><time>2026-04-04T13:49:47.001Z</time></trkpt><trkpt lat="44.32024285817635" lon="11.4846823603004"><ele>173.16666666666666</ele><time>2026-04-04T13:49:48.001Z</time></trkpt><trkpt lat="44.32022949352462" lon="11.484587824838451"><ele>173.0</ele><time>2026-04-04T13:49:49.001Z</time></trkpt><trkpt lat="44.32023619220094" lon="11.484491525871315"><ele>172.8</ele><time>2026-04-04T13:49:50.001Z</time></trkpt><trkpt lat="44.32024077298274" lon="11.484398278784502"><ele>172.60000000000002</ele><time>2026-04-04T13:49:51.001Z</time></trkpt><trkpt lat="44.320247327045784" lon="11.484253032224585"><ele>172.39999999999998</ele><time>2026-04-04T13:49:53.001Z</time></trkpt><trkpt lat="44.320253152724206" lon="11.48415218862472"><ele>172.2</ele><time>2026-04-04T13:49:55.001Z</time></trkpt><trkpt lat="44.32023673033653" lon="11.484027536986767"><ele>172.0</ele><time>2026-04-04T13:50:23.002Z</time></trkpt><trkpt lat="44.320231403735455" lon="11.483858103286687"><ele>172.8</ele><time>2026-04-04T13:50:25.002Z</time></trkpt><trkpt lat="44.320222379829545" lon="11.483755101995834"><ele>173.6</ele><time>2026-04-04T13:50:26.002Z</time></trkpt><trkpt lat="44.32020441278872" lon="11.483624921716334"><ele>174.4</ele><time>2026-04-04T13:50:27.002Z</time></trkpt><trkpt lat="44.32018048571921" lon="11.48349831263512"><ele>175.20000000000002</ele><time>2026-04-04T13:50:28.002Z</time></trkpt><trkpt lat="44.320148651356114" lon="11.483369985358095"><ele>176.0</ele><time>2026-04-04T13:50:29.002Z</time></trkpt><trkpt lat="44.32010485542909" lon="11.48322379350456"><ele>176.0</ele><time>2026-04-04T13:50:30.002Z</time></trkpt><trkpt lat="44.320037776921204" lon="11.48307503200184"><ele>176.0</ele><time>2026-04-04T13:50:31.002Z</time></trkpt><trkpt lat="44.31998249423294" lon="11.48292750163471"><ele>176.0</ele><time>2026-04-04T13:50:32.002Z</time></trkpt><trkpt lat="44.31991773236768" lon="11.48276561295996"><ele>176.0</ele><time>2026-04-04T13:50:33.002Z</time></trkpt><trkpt lat="44.31984569632855" lon="11.482586344010956"><ele>175.75</ele><time>2026-04-04T13:50:34.002Z</time></trkpt><trkpt lat="44.31977209046412" lon="11.482414631284977"><ele>175.5</ele><time>2026-04-04T13:50:35.002Z</time></trkpt><trkpt lat="44.319692693224525" lon="11.482251444975791"><ele>175.25</ele><time>2026-04-04T13:50:36.001Z</time></trkpt><trkpt lat="44.31962155621126" lon="11.482081178996227"><ele>175.0</ele><time>2026-04-04T13:50:37.001Z</time></trkpt><trkpt lat="44.31954462309484" lon="11.48192103045887"><ele>175.0</ele><time>2026-04-04T13:50:38.001Z</time></trkpt><trkpt lat="44.31948718781736" lon="11.481779401765975"><ele>175.0</ele><time>2026-04-04T13:50:39.001Z</time></trkpt><trkpt lat="44.31941634088329" lon="11.481642007475125"><ele>175.0</ele><time>2026-04-04T13:50:40Z</time></trkpt><trkpt lat="44.31934695828275" lon="11.481501314863417"><ele>175.0</ele><time>2026-04-04T13:50:41.001Z</time></trkpt><trkpt lat="44.31927537053433" lon="11.481357233758079"><ele>176.25</ele><time>2026-04-04T13:50:42Z</time></trkpt><trkpt lat="44.3191970479063" lon="11.481211025376421"><ele>177.5</ele><time>2026-04-04T13:50:43Z</time></trkpt><trkpt lat="44.31912225831108" lon="11.48106935882598"><ele>178.75</ele><time>2026-04-04T13:50:44Z</time></trkpt><trkpt lat="44.319045124092575" lon="11.480927458263585"><ele>180.0</ele><time>2026-04-04T13:50:45Z</time></trkpt><trkpt lat="44.31896274381343" lon="11.480782600171846"><ele>180.0</ele><time>2026-04-04T13:50:46Z</time></trkpt><trkpt lat="44.31886905394403" lon="11.480639624730799"><ele>180.0</ele><time>2026-04-04T13:50:47Z</time></trkpt><trkpt lat="44.318777743827745" lon="11.480495065857241"><ele>180.0</ele><time>2026-04-04T13:50:48Z</time></trkpt><trkpt lat="44.31867353278122" lon="11.48036104625707"><ele>180.0</ele><time>2026-04-04T13:50:49Z</time></trkpt><trkpt lat="44.3185658540618" lon="11.480246580109611"><ele>180.0</ele><time>2026-04-04T13:50:50Z</time></trkpt><trkpt lat="44.31845868150659" lon="11.480149903507458"><ele>180.0</ele><time>2026-04-04T13:50:51Z</time></trkpt><trkpt lat="44.318346813766226" lon="11.48005938298481"><ele>180.0</ele><time>2026-04-04T13:50:52Z</time></trkpt><trkpt lat="44.31823491179727" lon="11.479982479710799"><ele>180.0</ele><time>2026-04-04T13:50:53Z</time></trkpt><trkpt lat="44.31813135716197" lon="11.479896776390914"><ele>178.75</ele><time>2026-04-04T13:50:54Z</time></trkpt><trkpt lat="44.31803884762191" lon="11.4797908098552"><ele>177.5</ele><time>2026-04-04T13:50:55Z</time></trkpt><trkpt lat="44.31795251876905" lon="11.479668248082477"><ele>176.25</ele><time>2026-04-04T13:50:56Z</time></trkpt><trkpt lat="44.31789328827239" lon="11.479534359280217"><ele>175.0</ele><time>2026-04-04T13:50:57Z</time></trkpt><trkpt lat="44.31783915795712" lon="11.47939394493961"><ele>175.0</ele><time>2026-04-04T13:50:58Z</time></trkpt><trkpt lat="44.31778460769366" lon="11.479254608624471"><ele>175.0</ele><time>2026-04-04T13:50:59Z</time></trkpt><trkpt lat="44.31770092502818" lon="11.479120477931287"><ele>175.0</ele><time>2026-04-04T13:51:00Z</time></trkpt><trkpt lat="44.31759623554482" lon="11.479006679214844"><ele>175.0</ele><time>2026-04-04T13:51:01.001Z</time></trkpt><trkpt lat="44.317481780134734" lon="11.478897823286715"><ele>175.0</ele><time>2026-04-04T13:51:02.001Z</time></trkpt><trkpt lat="44.31736659146203" lon="11.478802989923382"><ele>175.0</ele><time>2026-04-04T13:51:03.001Z</time></trkpt><trkpt lat="44.317257514948935" lon="11.478699850218163"><ele>175.0</ele><time>2026-04-04T13:51:04.001Z</time></trkpt><trkpt lat="44.317150913475125" lon="11.478582258415615"><ele>175.0</ele><time>2026-04-04T13:51:05.001Z</time></trkpt><trkpt lat="44.317046571530014" lon="11.478451155218266"><ele>175.25</ele><time>2026-04-04T13:51:06.001Z</time></trkpt><trkpt lat="44.31695022634665" lon="11.478299468249846"><ele>175.5</ele><time>2026-04-04T13:51:07.001Z</time></trkpt><trkpt lat="44.31688953994983" lon="11.478115543983483"><ele>175.75</ele><time>2026-04-04T13:51:08.001Z</time></trkpt><trkpt lat="44.31681221848738" lon="11.477963058253803"><ele>176.0</ele><time>2026-04-04T13:51:09.001Z</time></trkpt><trkpt lat="44.316763553080605" lon="11.477803526730714"><ele>177.25</ele><time>2026-04-04T13:51:10.001Z</time></trkpt><trkpt lat="44.31670377160203" lon="11.477658560898234"><ele>178.5</ele><time>2026-04-04T13:51:11.001Z</time></trkpt><trkpt lat="44.316619030246905" lon="11.47752411602364"><ele>179.75</ele><time>2026-04-04T13:51:12.001Z</time></trkpt><trkpt lat="44.31651797983815" lon="11.47741802964357"><ele>181.0</ele><time>2026-04-04T13:51:13.001Z</time></trkpt><trkpt lat="44.31640919601469" lon="11.477326052898613"><ele>180.75</ele><time>2026-04-04T13:51:14.001Z</time></trkpt><trkpt lat="44.31630725953786" lon="11.477244751577237"><ele>180.5</ele><time>2026-04-04T13:51:15.001Z</time></trkpt><trkpt lat="44.31621218215289" lon="11.477158254496729"><ele>180.25</ele><time>2026-04-04T13:51:16.001Z</time></trkpt><trkpt lat="44.31610906996647" lon="11.477078472596142"><ele>180.0</ele><time>2026-04-04T13:51:17.001Z</time></trkpt><trkpt lat="44.316009043049" lon="11.476978913874932"><ele>180.0</ele><time>2026-04-04T13:51:18.001Z</time></trkpt><trkpt lat="44.31594248385818" lon="11.476828908187628"><ele>180.0</ele><time>2026-04-04T13:51:19.001Z</time></trkpt><trkpt lat="44.31586852574175" lon="11.476675273299682"><ele>180.0</ele><time>2026-04-04T13:51:20.001Z</time></trkpt><trkpt lat="44.31578986019186" lon="11.47651982605985"><ele>180.0</ele><time>2026-04-04T13:51:21.001Z</time></trkpt><trkpt lat="44.31572554494334" lon="11.47634455024435"><ele>177.66666666666666</ele><time>2026-04-04T13:51:22.001Z</time></trkpt><trkpt lat="44.31565880873654" lon="11.476157921086461"><ele>175.33333333333331</ele><time>2026-04-04T13:51:23.001Z</time></trkpt><trkpt lat="44.31558339444805" lon="11.47597019527522"><ele>173.0</ele><time>2026-04-04T13:51:24.001Z</time></trkpt><trkpt lat="44.31551219266094" lon="11.475784229481414"><ele>173.0</ele><time>2026-04-04T13:51:25.001Z</time></trkpt><trkpt lat="44.315442540723" lon="11.475604411499788"><ele>173.0</ele><time>2026-04-04T13:51:26.001Z</time></trkpt><trkpt lat="44.315397194973386" lon="11.47542184149366"><ele>173.0</ele><time>2026-04-04T13:51:27.001Z</time></trkpt><trkpt lat="44.31534099707351" lon="11.475250478051318"><ele>173.0</ele><time>2026-04-04T13:51:28.001Z</time></trkpt><trkpt lat="44.31527697459939" lon="11.47508300135151"><ele>174.0</ele><time>2026-04-04T13:51:29.001Z</time></trkpt><trkpt lat="44.31523303757459" lon="11.474898939807812"><ele>175.0</ele><time>2026-04-04T13:51:30.001Z</time></trkpt><trkpt lat="44.315190268323526" lon="11.474714965424814"><ele>176.0</ele><time>2026-04-04T13:51:31.001Z</time></trkpt><trkpt lat="44.31514553374576" lon="11.47453299783523"><ele>177.0</ele><time>2026-04-04T13:51:32.001Z</time></trkpt><trkpt lat="44.31510300406766" lon="11.474346516234796"><ele>178.5</ele><time>2026-04-04T13:51:33.001Z</time></trkpt><trkpt lat="44.315059650258405" lon="11.474153831196228"><ele>180.0</ele><time>2026-04-04T13:51:34.001Z</time></trkpt><trkpt lat="44.315026297100665" lon="11.473966729724081"><ele>181.5</ele><time>2026-04-04T13:51:35.001Z</time></trkpt><trkpt lat="44.315001098096666" lon="11.473773763859953"><ele>183.0</ele><time>2026-04-04T13:51:36.001Z</time></trkpt><trkpt lat="44.31498487768457" lon="11.473582170343217"><ele>184.0</ele><time>2026-04-04T13:51:37.001Z</time></trkpt><trkpt lat="44.31496872772541" lon="11.473391023432836"><ele>185.0</ele><time>2026-04-04T13:51:38.001Z</time></trkpt><trkpt lat="44.314948442468385" lon="11.473204427107598"><ele>186.0</ele><time>2026-04-04T13:51:39.001Z</time></trkpt><trkpt lat="44.31492181787956" lon="11.473017251980925"><ele>187.0</ele><time>2026-04-04T13:51:40.001Z</time></trkpt><trkpt lat="44.31488499258285" lon="11.472840502429355"><ele>187.25</ele><time>2026-04-04T13:51:41.001Z</time></trkpt><trkpt lat="44.314832078938494" lon="11.472677608678982"><ele>187.5</ele><time>2026-04-04T13:51:42.001Z</time></trkpt><trkpt lat="44.314766938821506" lon="11.472534668874573"><ele>187.75</ele><time>2026-04-04T13:51:43.001Z</time></trkpt><trkpt lat="44.31472329084502" lon="11.472388350624584"><ele>188.0</ele><time>2026-04-04T13:51:44.001Z</time></trkpt><trkpt lat="44.314684979559736" lon="11.47223808739771"><ele>188.25</ele><time>2026-04-04T13:51:45.001Z</time></trkpt><trkpt lat="44.314671942249035" lon="11.472074798981941"><ele>188.5</ele><time>2026-04-04T13:51:46.001Z</time></trkpt><trkpt lat="44.3146879189681" lon="11.471904313886148"><ele>188.75</ele><time>2026-04-04T13:51:47.001Z</time></trkpt><trkpt lat="44.31471659522511" lon="11.471729134275567"><ele>189.0</ele><time>2026-04-04T13:51:48.001Z</time></trkpt><trkpt lat="44.314757872830725" lon="11.471540682078619"><ele>189.0</ele><time>2026-04-04T13:51:49.001Z</time></trkpt><trkpt lat="44.3148004643049" lon="11.471354287590259"><ele>189.0</ele><time>2026-04-04T13:51:50.001Z</time></trkpt><trkpt lat="44.31482924039949" lon="11.471160874324626"><ele>189.0</ele><time>2026-04-04T13:51:51.001Z</time></trkpt><trkpt lat="44.31488046042241" lon="11.470967981126524"><ele>189.0</ele><time>2026-04-04T13:51:52.001Z</time></trkpt><trkpt lat="44.31493047120128" lon="11.47077130747527"><ele>189.0</ele><time>2026-04-04T13:51:53.001Z</time></trkpt><trkpt lat="44.314979165417085" lon="11.470572014355108"><ele>189.0</ele><time>2026-04-04T13:51:54.001Z</time></trkpt><trkpt lat="44.31502427435578" lon="11.47037336881534"><ele>189.0</ele><time>2026-04-04T13:51:55.001Z</time></trkpt><trkpt lat="44.31507227102499" lon="11.47017406149266"><ele>188.25</ele><time>2026-04-04T13:51:56.001Z</time></trkpt><trkpt lat="44.31511992048519" lon="11.469979676455383"><ele>187.5</ele><time>2026-04-04T13:51:57.001Z</time></trkpt><trkpt lat="44.315172963890745" lon="11.469798049891308"><ele>186.75</ele><time>2026-04-04T13:51:58.001Z</time></trkpt><trkpt lat="44.31521465824347" lon="11.469625657507448"><ele>186.0</ele><time>2026-04-04T13:51:59.001Z</time></trkpt><trkpt lat="44.31526008017874" lon="11.4694591863391"><ele>185.25</ele><time>2026-04-04T13:52:00.001Z</time></trkpt><trkpt lat="44.315348835178874" lon="11.469163331951137"><ele>184.5</ele><time>2026-04-04T13:52:02.001Z</time></trkpt><trkpt lat="44.31538810726201" lon="11.469023206061987"><ele>183.75</ele><time>2026-04-04T13:52:03.001Z</time></trkpt><trkpt lat="44.315429563633906" lon="11.468881449229956"><ele>183.0</ele><time>2026-04-04T13:52:04.001Z</time></trkpt><trkpt lat="44.3154668730667" lon="11.46874992650451"><ele>183.0</ele><time>2026-04-04T13:52:05.002Z</time></trkpt><trkpt lat="44.31550281308324" lon="11.468630393805654"><ele>183.0</ele><time>2026-04-04T13:52:06.002Z</time></trkpt><trkpt lat="44.31553827718562" lon="11.468514180614074"><ele>183.0</ele><time>2026-04-04T13:52:07.002Z</time></trkpt><trkpt lat="44.31557714115722" lon="11.468410186617282"><ele>183.0</ele><time>2026-04-04T13:52:08.002Z</time></trkpt><trkpt lat="44.3156099626588" lon="11.468311694314252"><ele>183.0</ele><time>2026-04-04T13:52:09.002Z</time></trkpt><trkpt lat="44.31563558862092" lon="11.468218516353428"><ele>183.0</ele><time>2026-04-04T13:52:10.002Z</time></trkpt><trkpt lat="44.31566979684902" lon="11.468131357621669"><ele>183.5</ele><time>2026-04-04T13:52:11.002Z</time></trkpt><trkpt lat="44.31571859585411" lon="11.468053930234257"><ele>184.0</ele><time>2026-04-04T13:52:12.002Z</time></trkpt><trkpt lat="44.315783324256245" lon="11.467976444754415"><ele>184.5</ele><time>2026-04-04T13:52:13.002Z</time></trkpt><trkpt lat="44.3158553357391" lon="11.46789527734148"><ele>185.0</ele><time>2026-04-04T13:52:14.002Z</time></trkpt><trkpt lat="44.31593433315467" lon="11.467808726874937"><ele>185.5</ele><time>2026-04-04T13:52:15.002Z</time></trkpt><trkpt lat="44.3160079363562" lon="11.467732302787514"><ele>186.0</ele><time>2026-04-04T13:52:16.002Z</time></trkpt><trkpt lat="44.316080429871754" lon="11.46765755710163"><ele>186.0</ele><time>2026-04-04T13:52:17.002Z</time></trkpt><trkpt lat="44.31613407096751" lon="11.467582389193023"><ele>186.0</ele><time>2026-04-04T13:52:18.002Z</time></trkpt><trkpt lat="44.31618188256082" lon="11.46751737166569"><ele>186.0</ele><time>2026-04-04T13:52:19.002Z</time></trkpt><trkpt lat="44.31627195991131" lon="11.467376765977388"><ele>186.0</ele><time>2026-04-04T13:52:21.002Z</time></trkpt><trkpt lat="44.31632645852245" lon="11.467280589975175"><ele>186.0</ele><time>2026-04-04T13:52:22.002Z</time></trkpt><trkpt lat="44.316398549703045" lon="11.46719176236991"><ele>186.25</ele><time>2026-04-04T13:52:23.002Z</time></trkpt><trkpt lat="44.316451160854776" lon="11.46706752918386"><ele>186.5</ele><time>2026-04-04T13:52:24.002Z</time></trkpt><trkpt lat="44.3164987744723" lon="11.466920870681745"><ele>186.75</ele><time>2026-04-04T13:52:25.002Z</time></trkpt><trkpt lat="44.31653302695346" lon="11.46674797508623"><ele>187.0</ele><time>2026-04-04T13:52:26.002Z</time></trkpt><trkpt lat="44.31658020160329" lon="11.466585898764054"><ele>187.0</ele><time>2026-04-04T13:52:27.002Z</time></trkpt><trkpt lat="44.31663448849579" lon="11.466428029743772"><ele>187.0</ele><time>2026-04-04T13:52:28.002Z</time></trkpt><trkpt lat="44.31667867750625" lon="11.466261562855298"><ele>187.0</ele><time>2026-04-04T13:52:29.002Z</time></trkpt><trkpt lat="44.316730331561395" lon="11.466108189912129"><ele>187.0</ele><time>2026-04-04T13:52:30.002Z</time></trkpt><trkpt lat="44.31676728954879" lon="11.465973036190467"><ele>187.0</ele><time>2026-04-04T13:52:31.002Z</time></trkpt><trkpt lat="44.316807208329834" lon="11.465847971723383"><ele>187.0</ele><time>2026-04-04T13:52:32.002Z</time></trkpt><trkpt lat="44.31683868015315" lon="11.465734522284478"><ele>187.0</ele><time>2026-04-04T13:52:33.002Z</time></trkpt><trkpt lat="44.31687815976486" lon="11.4656380676682"><ele>187.0</ele><time>2026-04-04T13:52:34.002Z</time></trkpt><trkpt lat="44.31690630992126" lon="11.465531738929458"><ele>187.0</ele><time>2026-04-04T13:52:35.002Z</time></trkpt><trkpt lat="44.31697253520931" lon="11.465437487630824"><ele>187.0</ele><time>2026-04-04T13:52:36.002Z</time></trkpt><trkpt lat="44.31706050609535" lon="11.465368870443262"><ele>187.2</ele><time>2026-04-04T13:52:37.002Z</time></trkpt><trkpt lat="44.31715361094736" lon="11.465355812247742"><ele>187.39999999999998</ele><time>2026-04-04T13:52:38.002Z</time></trkpt><trkpt lat="44.31724257154673" lon="11.465384387211083"><ele>187.60000000000002</ele><time>2026-04-04T13:52:39.002Z</time></trkpt><trkpt lat="44.3173587468761" lon="11.465401594556047"><ele>187.8</ele><time>2026-04-04T13:52:40.002Z</time></trkpt><trkpt lat="44.31746278898181" lon="11.465463337991181"><ele>188.0</ele><time>2026-04-04T13:52:41.002Z</time></trkpt><trkpt lat="44.31756074859329" lon="11.465522756025212"><ele>188.60000000000002</ele><time>2026-04-04T13:52:42Z</time></trkpt><trkpt lat="44.31766164648259" lon="11.465584958129298"><ele>189.20000000000002</ele><time>2026-04-04T13:52:43Z</time></trkpt><trkpt lat="44.31776891412456" lon="11.465624546180173"><ele>189.8</ele><time>2026-04-04T13:52:44Z</time></trkpt><trkpt lat="44.31787875264208" lon="11.465638899340545"><ele>190.4</ele><time>2026-04-04T13:52:45Z</time></trkpt><trkpt lat="44.317994076759575" lon="11.465611863036525"><ele>191.0</ele><time>2026-04-04T13:52:46Z</time></trkpt><trkpt lat="44.31810158445012" lon="11.465592389966663"><ele>192.75</ele><time>2026-04-04T13:52:47Z</time></trkpt><trkpt lat="44.31821684499552" lon="11.465562551257594"><ele>194.5</ele><time>2026-04-04T13:52:48Z</time></trkpt><trkpt lat="44.318333052356465" lon="11.465533895212188"><ele>196.25</ele><time>2026-04-04T13:52:49Z</time></trkpt><trkpt lat="44.31844052949464" lon="11.465509776775685"><ele>198.0</ele><time>2026-04-04T13:52:50Z</time></trkpt><trkpt lat="44.318546529050046" lon="11.465485992597634"><ele>198.0</ele><time>2026-04-04T13:52:51Z</time></trkpt><trkpt lat="44.318652616132795" lon="11.465462188764949"><ele>198.0</ele><time>2026-04-04T13:52:52Z</time></trkpt><trkpt lat="44.31875849111615" lon="11.465438432551093"><ele>198.0</ele><time>2026-04-04T13:52:53Z</time></trkpt><trkpt lat="44.31886731687748" lon="11.465414157853365"><ele>198.0</ele><time>2026-04-04T13:52:54Z</time></trkpt><trkpt lat="44.318976959462546" lon="11.465367665551685"><ele>198.0</ele><time>2026-04-04T13:52:55Z</time></trkpt><trkpt lat="44.31908830985322" lon="11.465347699645472"><ele>197.25</ele><time>2026-04-04T13:52:56Z</time></trkpt><trkpt lat="44.3192023945059" lon="11.465323320055235"><ele>196.5</ele><time>2026-04-04T13:52:57Z</time></trkpt><trkpt lat="44.31931975776058" lon="11.465302122241793"><ele>195.75</ele><time>2026-04-04T13:52:58Z</time></trkpt><trkpt lat="44.3194421581347" lon="11.465276058850892"><ele>195.0</ele><time>2026-04-04T13:52:59Z</time></trkpt><trkpt lat="44.31956681088221" lon="11.465249729509404"><ele>195.0</ele><time>2026-04-04T13:53:00Z</time></trkpt><trkpt lat="44.31969420695731" lon="11.465216827111622"><ele>195.0</ele><time>2026-04-04T13:53:01Z</time></trkpt><trkpt lat="44.319817301414446" lon="11.46518803594239"><ele>195.0</ele><time>2026-04-04T13:53:02Z</time></trkpt><trkpt lat="44.31992703601953" lon="11.465164603328663"><ele>195.0</ele><time>2026-04-04T13:53:03Z</time></trkpt><trkpt lat="44.32003392082242" lon="11.46514362698404"><ele>195.25</ele><time>2026-04-04T13:53:04Z</time></trkpt><trkpt lat="44.320149881236546" lon="11.465119075067271"><ele>195.5</ele><time>2026-04-04T13:53:05Z</time></trkpt><trkpt lat="44.32027105113134" lon="11.465090525317821"><ele>195.75</ele><time>2026-04-04T13:53:06Z</time></trkpt><trkpt lat="44.32039395972913" lon="11.465055161806541"><ele>196.0</ele><time>2026-04-04T13:53:07Z</time></trkpt><trkpt lat="44.320521818424446" lon="11.465021115560692"><ele>196.5</ele><time>2026-04-04T13:53:08Z</time></trkpt><trkpt lat="44.320651299075614" lon="11.464963477933049"><ele>197.0</ele><time>2026-04-04T13:53:09Z</time></trkpt><trkpt lat="44.32077513488384" lon="11.46491610724055"><ele>197.5</ele><time>2026-04-04T13:53:10Z</time></trkpt><trkpt lat="44.32088290701366" lon="11.464865084042787"><ele>198.0</ele><time>2026-04-04T13:53:11Z</time></trkpt><trkpt lat="44.32098776642672" lon="11.46481766285862"><ele>198.0</ele><time>2026-04-04T13:53:12Z</time></trkpt><trkpt lat="44.321089350459566" lon="11.46477263525934"><ele>198.0</ele><time>2026-04-04T13:53:13Z</time></trkpt><trkpt lat="44.321195432376506" lon="11.464721806112363"><ele>198.0</ele><time>2026-04-04T13:53:14Z</time></trkpt><trkpt lat="44.32131103287425" lon="11.464677864675718"><ele>198.0</ele><time>2026-04-04T13:53:15Z</time></trkpt><trkpt lat="44.3214229900794" lon="11.464633248911406"><ele>199.5</ele><time>2026-04-04T13:53:16Z</time></trkpt><trkpt lat="44.32153490825387" lon="11.464584786583016"><ele>201.0</ele><time>2026-04-04T13:53:17Z</time></trkpt><trkpt lat="44.32165172591282" lon="11.4645375355636"><ele>202.5</ele><time>2026-04-04T13:53:18Z</time></trkpt><trkpt lat="44.32176919785887" lon="11.464485031512272"><ele>204.0</ele><time>2026-04-04T13:53:19Z</time></trkpt><trkpt lat="44.32189258690856" lon="11.464438286838444"><ele>204.0</ele><time>2026-04-04T13:53:20Z</time></trkpt><trkpt lat="44.32200824501032" lon="11.464383126277632"><ele>204.0</ele><time>2026-04-04T13:53:21.001Z</time></trkpt><trkpt lat="44.32211928581102" lon="11.464334123092799"><ele>204.0</ele><time>2026-04-04T13:53:22.001Z</time></trkpt><trkpt lat="44.32222702530311" lon="11.46428288645496"><ele>204.0</ele><time>2026-04-04T13:53:23.001Z</time></trkpt><trkpt lat="44.32234114575096" lon="11.464238527378658"><ele>203.25</ele><time>2026-04-04T13:53:24.001Z</time></trkpt><trkpt lat="44.32245521884745" lon="11.464196873376919"><ele>202.5</ele><time>2026-04-04T13:53:25.001Z</time></trkpt><trkpt lat="44.322580484354006" lon="11.464135800753294"><ele>201.75</ele><time>2026-04-04T13:53:26.001Z</time></trkpt><trkpt lat="44.32271680747768" lon="11.464076140216962"><ele>201.0</ele><time>2026-04-04T13:53:27.001Z</time></trkpt><trkpt lat="44.32286502337042" lon="11.464013606205341"><ele>201.0</ele><time>2026-04-04T13:53:28.001Z</time></trkpt><trkpt lat="44.323007835293524" lon="11.463949066168428"><ele>201.0</ele><time>2026-04-04T13:53:29.001Z</time></trkpt><trkpt lat="44.3231567614837" lon="11.463877252973969"><ele>201.0</ele><time>2026-04-04T13:53:30.001Z</time></trkpt><trkpt lat="44.3233088807784" lon="11.463817739019625"><ele>202.75</ele><time>2026-04-04T13:53:31.001Z</time></trkpt><trkpt lat="44.32345161828171" lon="11.463755979712706"><ele>204.5</ele><time>2026-04-04T13:53:32.001Z</time></trkpt><trkpt lat="44.323587158729055" lon="11.463697413184281"><ele>206.25</ele><time>2026-04-04T13:53:33.001Z</time></trkpt><trkpt lat="44.32372223214065" lon="11.463640136212254"><ele>208.0</ele><time>2026-04-04T13:53:34.001Z</time></trkpt><trkpt lat="44.32385205904297" lon="11.463581955859611"><ele>207.75</ele><time>2026-04-04T13:53:35.001Z</time></trkpt><trkpt lat="44.32397710595415" lon="11.46352320536515"><ele>207.5</ele><time>2026-04-04T13:53:36.001Z</time></trkpt><trkpt lat="44.32410062524491" lon="11.463468472709485"><ele>207.25</ele><time>2026-04-04T13:53:37.001Z</time></trkpt><trkpt lat="44.32422321365996" lon="11.463419211753052"><ele>207.0</ele><time>2026-04-04T13:53:38.001Z</time></trkpt><trkpt lat="44.32434291794153" lon="11.463383470481892"><ele>207.0</ele><time>2026-04-04T13:53:39.001Z</time></trkpt><trkpt lat="44.32446675533928" lon="11.463360641840856"><ele>207.0</ele><time>2026-04-04T13:53:40.001Z</time></trkpt><trkpt lat="44.32459590059276" lon="11.463358171543064"><ele>207.0</ele><time>2026-04-04T13:53:41.001Z</time></trkpt><trkpt lat="44.32472811223814" lon="11.463365823915758"><ele>207.0</ele><time>2026-04-04T13:53:42.001Z</time></trkpt><trkpt lat="44.324854192393325" lon="11.463388767885307"><ele>207.6</ele><time>2026-04-04T13:53:43.001Z</time></trkpt><trkpt lat="44.32496378056424" lon="11.463407776438332"><ele>208.2</ele><time>2026-04-04T13:53:44.001Z</time></trkpt><trkpt lat="44.32506600747466" lon="11.463398254926647"><ele>208.8</ele><time>2026-04-04T13:53:45.001Z</time></trkpt><trkpt lat="44.32515378807962" lon="11.463355985514983"><ele>209.4</ele><time>2026-04-04T13:53:46.001Z</time></trkpt><trkpt lat="44.32524051006275" lon="11.463261523582988"><ele>210.0</ele><time>2026-04-04T13:53:47.001Z</time></trkpt><trkpt lat="44.325308125125495" lon="11.463156089982295"><ele>210.0</ele><time>2026-04-04T13:53:48.001Z</time></trkpt><trkpt lat="44.32535634993209" lon="11.46305836418192"><ele>210.0</ele><time>2026-04-04T13:53:49.001Z</time></trkpt><trkpt lat="44.32539730758749" lon="11.462976480435646"><ele>210.0</ele><time>2026-04-04T13:53:50.001Z</time></trkpt><trkpt lat="44.32546345193563" lon="11.462847559929687"><ele>210.0</ele><time>2026-04-04T13:53:52.001Z</time></trkpt><trkpt lat="44.32554245910099" lon="11.462704500008032"><ele>210.0</ele><time>2026-04-04T13:53:54.001Z</time></trkpt><trkpt lat="44.32559395157984" lon="11.462624215300067"><ele>211.2</ele><time>2026-04-04T13:53:55.001Z</time></trkpt><trkpt lat="44.325651778151126" lon="11.462547324931895"><ele>212.4</ele><time>2026-04-04T13:53:56.001Z</time></trkpt><trkpt lat="44.32571885160342" lon="11.462468702583323"><ele>213.60000000000002</ele><time>2026-04-04T13:53:57.001Z</time></trkpt><trkpt lat="44.325791173037324" lon="11.462392307878545"><ele>214.8</ele><time>2026-04-04T13:53:58.001Z</time></trkpt><trkpt lat="44.32587583327463" lon="11.46230543966432"><ele>216.0</ele><time>2026-04-04T13:53:59.001Z</time></trkpt><trkpt lat="44.325956905639885" lon="11.462228434265517"><ele>216.0</ele><time>2026-04-04T13:54:00.001Z</time></trkpt><trkpt lat="44.3260304206162" lon="11.462160785095413"><ele>216.00000000000003</ele><time>2026-04-04T13:54:01.001Z</time></trkpt><trkpt lat="44.326101464570435" lon="11.462086131795083"><ele>216.00000000000003</ele><time>2026-04-04T13:54:02.001Z</time></trkpt><trkpt lat="44.32617503658488" lon="11.462015654301648"><ele>216.0</ele><time>2026-04-04T13:54:03.001Z</time></trkpt><trkpt lat="44.32625423546929" lon="11.461956700233321"><ele>216.0</ele><time>2026-04-04T13:54:04.001Z</time></trkpt><trkpt lat="44.3263399578138" lon="11.461903433348501"><ele>217.4</ele><time>2026-04-04T13:54:05.001Z</time></trkpt><trkpt lat="44.32643572759165" lon="11.461866374671768"><ele>218.8</ele><time>2026-04-04T13:54:06.001Z</time></trkpt><trkpt lat="44.32653983294787" lon="11.461846228641093"><ele>220.20000000000002</ele><time>2026-04-04T13:54:07.001Z</time></trkpt><trkpt lat="44.32664356394118" lon="11.461877502617872"><ele>221.60000000000002</ele><time>2026-04-04T13:54:08.001Z</time></trkpt><trkpt lat="44.32673701489475" lon="11.461860358866275"><ele>223.0</ele><time>2026-04-04T13:54:09.001Z</time></trkpt><trkpt lat="44.32683453890696" lon="11.461812096277697"><ele>223.0</ele><time>2026-04-04T13:54:10.001Z</time></trkpt><trkpt lat="44.32693768039236" lon="11.461791043355493"><ele>223.0</ele><time>2026-04-04T13:54:11.001Z</time></trkpt><trkpt lat="44.32703867638626" lon="11.461759972795955"><ele>223.0</ele><time>2026-04-04T13:54:12.001Z</time></trkpt><trkpt lat="44.32713684238983" lon="11.461761479928361"><ele>223.0</ele><time>2026-04-04T13:54:13.001Z</time></trkpt><trkpt lat="44.32723262892857" lon="11.461750361772696"><ele>223.0</ele><time>2026-04-04T13:54:14.001Z</time></trkpt><trkpt lat="44.32732913625334" lon="11.461733563365017"><ele>221.8</ele><time>2026-04-04T13:54:15.001Z</time></trkpt><trkpt lat="44.32742904296913" lon="11.461730251735235"><ele>220.60000000000002</ele><time>2026-04-04T13:54:16.001Z</time></trkpt><trkpt lat="44.32753841074964" lon="11.461740058804466"><ele>219.39999999999998</ele><time>2026-04-04T13:54:17.001Z</time></trkpt><trkpt lat="44.327649635152184" lon="11.461769366293295"><ele>218.2</ele><time>2026-04-04T13:54:18.001Z</time></trkpt><trkpt lat="44.32776256176878" lon="11.461806804210264"><ele>217.0</ele><time>2026-04-04T13:54:19.001Z</time></trkpt><trkpt lat="44.32787876842578" lon="11.461857526260015"><ele>217.0</ele><time>2026-04-04T13:54:20.001Z</time></trkpt><trkpt lat="44.32798464833236" lon="11.461905671498595"><ele>217.0</ele><time>2026-04-04T13:54:21.001Z</time></trkpt><trkpt lat="44.328086443584425" lon="11.461954681465949"><ele>217.0</ele><time>2026-04-04T13:54:22.001Z</time></trkpt><trkpt lat="44.32817871223408" lon="11.461999344160034"><ele>217.0</ele><time>2026-04-04T13:54:23.001Z</time></trkpt><trkpt lat="44.32825865103222" lon="11.462038046963592"><ele>217.0</ele><time>2026-04-04T13:54:24.001Z</time></trkpt><trkpt lat="44.328324879620496" lon="11.46206782885158"><ele>217.8</ele><time>2026-04-04T13:54:25.002Z</time></trkpt><trkpt lat="44.32839976982915" lon="11.46208217403284"><ele>218.6</ele><time>2026-04-04T13:54:26.002Z</time></trkpt><trkpt lat="44.328481129215014" lon="11.462072468660045"><ele>219.40000000000003</ele><time>2026-04-04T13:54:27.002Z</time></trkpt><trkpt lat="44.32856436835023" lon="11.46203469094079"><ele>220.20000000000002</ele><time>2026-04-04T13:54:28.002Z</time></trkpt><trkpt lat="44.32866325976779" lon="11.461989352896868"><ele>221.0</ele><time>2026-04-04T13:54:29.002Z</time></trkpt><trkpt lat="44.328778069375225" lon="11.461976597922622"><ele>221.25</ele><time>2026-04-04T13:54:30.002Z</time></trkpt><trkpt lat="44.32890388803468" lon="11.461939854825221"><ele>221.5</ele><time>2026-04-04T13:54:31.002Z</time></trkpt><trkpt lat="44.32905071698782" lon="11.461893524140109"><ele>221.75</ele><time>2026-04-04T13:54:32.002Z</time></trkpt><trkpt lat="44.32916924644542" lon="11.461850082812495"><ele>222.0</ele><time>2026-04-04T13:54:33.002Z</time></trkpt><trkpt lat="44.32926731464275" lon="11.461819830045554"><ele>222.0</ele><time>2026-04-04T13:54:34.002Z</time></trkpt><trkpt lat="44.32936402381327" lon="11.461779578515056"><ele>222.0</ele><time>2026-04-04T13:54:35.002Z</time></trkpt><trkpt lat="44.32947624203907" lon="11.461723282868196"><ele>222.0</ele><time>2026-04-04T13:54:36.002Z</time></trkpt><trkpt lat="44.32958681483808" lon="11.461634528989089"><ele>222.0</ele><time>2026-04-04T13:54:37.002Z</time></trkpt><trkpt lat="44.329686398776396" lon="11.461535372040101"><ele>222.0</ele><time>2026-04-04T13:54:38.002Z</time></trkpt><trkpt lat="44.32976881656714" lon="11.461431912194522"><ele>222.0</ele><time>2026-04-04T13:54:39.002Z</time></trkpt><trkpt lat="44.32984786829716" lon="11.461334772062148"><ele>222.0</ele><time>2026-04-04T13:54:40.002Z</time></trkpt><trkpt lat="44.329916751109245" lon="11.461236224904194"><ele>222.0</ele><time>2026-04-04T13:54:41.002Z</time></trkpt><trkpt lat="44.32999702429349" lon="11.461129751789848"><ele>222.0</ele><time>2026-04-04T13:54:42.002Z</time></trkpt><trkpt lat="44.33008816956181" lon="11.461034014215569"><ele>222.0</ele><time>2026-04-04T13:54:43.002Z</time></trkpt><trkpt lat="44.33017541498925" lon="11.46093452469626"><ele>222.0</ele><time>2026-04-04T13:54:44.002Z</time></trkpt><trkpt lat="44.33027713128976" lon="11.460849823360574"><ele>222.0</ele><time>2026-04-04T13:54:45.002Z</time></trkpt><trkpt lat="44.33038635655847" lon="11.46078404797252"><ele>222.0</ele><time>2026-04-04T13:54:46.002Z</time></trkpt><trkpt lat="44.33050014998969" lon="11.460751052624662"><ele>222.0</ele><time>2026-04-04T13:54:47.002Z</time></trkpt><trkpt lat="44.33059471246293" lon="11.460671745755132"><ele>222.0</ele><time>2026-04-04T13:54:48Z</time></trkpt><trkpt lat="44.33068720466003" lon="11.460614583050274"><ele>222.0</ele><time>2026-04-04T13:54:49Z</time></trkpt><trkpt lat="44.33076965018784" lon="11.460543735196872"><ele>222.0</ele><time>2026-04-04T13:54:50Z</time></trkpt><trkpt lat="44.33086162750751" lon="11.460470995307457"><ele>222.0</ele><time>2026-04-04T13:54:51Z</time></trkpt><trkpt lat="44.330960421905196" lon="11.460418851007795"><ele>224.25</ele><time>2026-04-04T13:54:52Z</time></trkpt><trkpt lat="44.33107003855377" lon="11.46039449036383"><ele>226.5</ele><time>2026-04-04T13:54:53Z</time></trkpt><trkpt lat="44.33118260773479" lon="11.460426121386712"><ele>228.75</ele><time>2026-04-04T13:54:54Z</time></trkpt><trkpt lat="44.33130598397957" lon="11.460430184405096"><ele>231.0</ele><time>2026-04-04T13:54:55Z</time></trkpt><trkpt lat="44.33142782759436" lon="11.460437193387465"><ele>231.0</ele><time>2026-04-04T13:54:56Z</time></trkpt><trkpt lat="44.33155026273919" lon="11.46041055568387"><ele>231.0</ele><time>2026-04-04T13:54:57Z</time></trkpt><trkpt lat="44.33168941630514" lon="11.460403877057743"><ele>231.0</ele><time>2026-04-04T13:54:58Z</time></trkpt><trkpt lat="44.33183898543501" lon="11.460351376260832"><ele>231.0</ele><time>2026-04-04T13:54:59Z</time></trkpt><trkpt lat="44.33197793696243" lon="11.460336573936498"><ele>231.0</ele><time>2026-04-04T13:55:00Z</time></trkpt><trkpt lat="44.332090772967234" lon="11.460318504427606"><ele>231.0</ele><time>2026-04-04T13:55:01Z</time></trkpt><trkpt lat="44.33219703477012" lon="11.460304116640474"><ele>231.0</ele><time>2026-04-04T13:55:02Z</time></trkpt><trkpt lat="44.33230864064893" lon="11.460283349147502"><ele>231.0</ele><time>2026-04-04T13:55:03Z</time></trkpt><trkpt lat="44.3324275261812" lon="11.460270179442116"><ele>231.4</ele><time>2026-04-04T13:55:04Z</time></trkpt><trkpt lat="44.33253628423748" lon="11.460244906385343"><ele>231.8</ele><time>2026-04-04T13:55:05Z</time></trkpt><trkpt lat="44.33262891233742" lon="11.460228268188677"><ele>232.20000000000002</ele><time>2026-04-04T13:55:06Z</time></trkpt><trkpt lat="44.33271285548759" lon="11.460213674984988"><ele>232.60000000000002</ele><time>2026-04-04T13:55:07Z</time></trkpt><trkpt lat="44.33279952936787" lon="11.46020107058163"><ele>233.0</ele><time>2026-04-04T13:55:08Z</time></trkpt><trkpt lat="44.33288826405447" lon="11.460182179152957"><ele>233.0</ele><time>2026-04-04T13:55:09Z</time></trkpt><trkpt lat="44.33297470103718" lon="11.460154106868249"><ele>233.0</ele><time>2026-04-04T13:55:10Z</time></trkpt><trkpt lat="44.33307278230216" lon="11.460137242469226"><ele>233.0</ele><time>2026-04-04T13:55:11Z</time></trkpt><trkpt lat="44.33314695996359" lon="11.460032052574038"><ele>233.0</ele><time>2026-04-04T13:55:12Z</time></trkpt><trkpt lat="44.33322123075789" lon="11.459943009744798"><ele>233.0</ele><time>2026-04-04T13:55:13Z</time></trkpt><trkpt lat="44.33330261005262" lon="11.459855443151739"><ele>233.4</ele><time>2026-04-04T13:55:14Z</time></trkpt><trkpt lat="44.33337428799087" lon="11.459750417252339"><ele>233.8</ele><time>2026-04-04T13:55:15Z</time></trkpt><trkpt lat="44.333434734381484" lon="11.459625806159073"><ele>234.2</ele><time>2026-04-04T13:55:16Z</time></trkpt><trkpt lat="44.33350124424683" lon="11.459520439387092"><ele>234.6</ele><time>2026-04-04T13:55:17Z</time></trkpt><trkpt lat="44.33355636864328" lon="11.459408042857568"><ele>235.0</ele><time>2026-04-04T13:55:18Z</time></trkpt><trkpt lat="44.33360469570346" lon="11.459285557047425"><ele>235.6</ele><time>2026-04-04T13:55:19Z</time></trkpt><trkpt lat="44.33366738728569" lon="11.459169996307828"><ele>236.2</ele><time>2026-04-04T13:55:20Z</time></trkpt><trkpt lat="44.33370610748875" lon="11.459027646319988"><ele>236.8</ele><time>2026-04-04T13:55:21Z</time></trkpt><trkpt lat="44.33373872660043" lon="11.45889037544139"><ele>237.4</ele><time>2026-04-04T13:55:22Z</time></trkpt><trkpt lat="44.33376303564506" lon="11.458752445740693"><ele>238.0</ele><time>2026-04-04T13:55:23Z</time></trkpt><trkpt lat="44.33377393181791" lon="11.458625221463109"><ele>239.0</ele><time>2026-04-04T13:55:24Z</time></trkpt><trkpt lat="44.33377765171525" lon="11.458469933925263"><ele>240.0</ele><time>2026-04-04T13:55:25Z</time></trkpt><trkpt lat="44.333783279097204" lon="11.458341589077403"><ele>241.0</ele><time>2026-04-04T13:55:26Z</time></trkpt><trkpt lat="44.333799421074595" lon="11.458220628002064"><ele>242.0</ele><time>2026-04-04T13:55:27Z</time></trkpt><trkpt lat="44.333850632064156" lon="11.45807675297008"><ele>243.0</ele><time>2026-04-04T13:55:28Z</time></trkpt><trkpt lat="44.333912577499504" lon="11.457981146807775"><ele>243.5</ele><time>2026-04-04T13:55:29Z</time></trkpt><trkpt lat="44.3340037878473" lon="11.457840575253528"><ele>244.0</ele><time>2026-04-04T13:55:30Z</time></trkpt><trkpt lat="44.33409657524581" lon="11.457662507235389"><ele>244.5</ele><time>2026-04-04T13:55:31Z</time></trkpt><trkpt lat="44.33417307787739" lon="11.457477945994764"><ele>245.0</ele><time>2026-04-04T13:55:32.001Z</time></trkpt><trkpt lat="44.33422092301563" lon="11.457298283814827"><ele>245.0</ele><time>2026-04-04T13:55:33.001Z</time></trkpt><trkpt lat="44.334266884375346" lon="11.45715615295431"><ele>245.0</ele><time>2026-04-04T13:55:34.001Z</time></trkpt><trkpt lat="44.334312748814" lon="11.457017760295088"><ele>245.0</ele><time>2026-04-04T13:55:35.001Z</time></trkpt><trkpt lat="44.33436141947747" lon="11.456889181741369"><ele>245.0</ele><time>2026-04-04T13:55:36.001Z</time></trkpt><trkpt lat="44.33440981683853" lon="11.456782782946972"><ele>245.0</ele><time>2026-04-04T13:55:37.001Z</time></trkpt><trkpt lat="44.334466127010955" lon="11.456694253655526"><ele>244.83333333333334</ele><time>2026-04-04T13:55:38.001Z</time></trkpt><trkpt lat="44.33449692256458" lon="11.45659545072486"><ele>244.66666666666669</ele><time>2026-04-04T13:55:39.001Z</time></trkpt><trkpt lat="44.334509523846414" lon="11.456507897083432"><ele>244.5</ele><time>2026-04-04T13:55:40.001Z</time></trkpt><trkpt lat="44.33452087458245" lon="11.456334749164457"><ele>244.33333333333331</ele><time>2026-04-04T13:55:42.001Z</time></trkpt><trkpt lat="44.33452167747447" lon="11.456242609291131"><ele>244.16666666666666</ele><time>2026-04-04T13:55:43.001Z</time></trkpt><trkpt lat="44.334502388269115" lon="11.456148397710075"><ele>244.0</ele><time>2026-04-04T13:55:44.001Z</time></trkpt><trkpt lat="44.33448952394272" lon="11.456037503545033"><ele>243.99999999999997</ele><time>2026-04-04T13:55:45.001Z</time></trkpt><trkpt lat="44.33447501635541" lon="11.455922193541996"><ele>244.0</ele><time>2026-04-04T13:55:46.001Z</time></trkpt><trkpt lat="44.33445204685901" lon="11.455826453260956"><ele>244.0</ele><time>2026-04-04T13:55:47.001Z</time></trkpt><trkpt lat="44.33443420140437" lon="11.455662745900169"><ele>244.0</ele><time>2026-04-04T13:55:49.001Z</time></trkpt><trkpt lat="44.334408202171325" lon="11.455539207397013"><ele>243.99999999999997</ele><time>2026-04-04T13:55:51.001Z</time></trkpt><trkpt lat="44.334385756654015" lon="11.455432554465128"><ele>244.0</ele><time>2026-04-04T13:56:07.001Z</time></trkpt><trkpt lat="44.33435284016103" lon="11.455276147922248"><ele>245.79999999999998</ele><time>2026-04-04T13:56:09.001Z</time></trkpt><trkpt lat="44.334316452014335" lon="11.45510324475434"><ele>247.59999999999997</ele><time>2026-04-04T13:56:11.001Z</time></trkpt><trkpt lat="44.33429343677957" lon="11.454988738471348"><ele>249.4</ele><time>2026-04-04T13:56:12.001Z</time></trkpt><trkpt lat="44.33426918780453" lon="11.45486664967275"><ele>251.2</ele><time>2026-04-04T13:56:13.001Z</time></trkpt><trkpt lat="44.334249184433624" lon="11.454765938533107"><ele>253.0</ele><time>2026-04-04T13:56:14.001Z</time></trkpt><trkpt lat="44.334208923993934" lon="11.454617414646213"><ele>254.0</ele><time>2026-04-04T13:56:16.001Z</time></trkpt><trkpt lat="44.33416876967401" lon="11.45447609073597"><ele>255.0</ele><time>2026-04-04T13:56:18.001Z</time></trkpt><trkpt lat="44.334101570667116" lon="11.454444237331451"><ele>256.0</ele><time>2026-04-04T13:56:19.001Z</time></trkpt><trkpt lat="44.334015954371054" lon="11.454438234389103"><ele>257.0</ele><time>2026-04-04T13:56:20.001Z</time></trkpt><trkpt lat="44.33392770840332" lon="11.454462110433756"><ele>258.0</ele><time>2026-04-04T13:56:21.001Z</time></trkpt><trkpt lat="44.33383211460046" lon="11.454504697585069"><ele>259.6</ele><time>2026-04-04T13:56:22.001Z</time></trkpt><trkpt lat="44.33373534322258" lon="11.454542953231243"><ele>261.20000000000005</ele><time>2026-04-04T13:56:23.001Z</time></trkpt><trkpt lat="44.33364031391521" lon="11.454585270286223"><ele>262.8</ele><time>2026-04-04T13:56:24.001Z</time></trkpt><trkpt lat="44.33355017107095" lon="11.454636771258794"><ele>264.40000000000003</ele><time>2026-04-04T13:56:25.001Z</time></trkpt><trkpt lat="44.333462669741046" lon="11.45471284698705"><ele>266.0</ele><time>2026-04-04T13:56:26.001Z</time></trkpt><trkpt lat="44.3333833564829" lon="11.45475952516849"><ele>266.1666666666667</ele><time>2026-04-04T13:56:27.001Z</time></trkpt><trkpt lat="44.33332782000911" lon="11.454802444106388"><ele>266.33333333333337</ele><time>2026-04-04T13:56:28.001Z</time></trkpt><trkpt lat="44.33325987349865" lon="11.454846695988342"><ele>266.5</ele><time>2026-04-04T13:56:30.001Z</time></trkpt><trkpt lat="44.333141391341506" lon="11.454839568481578"><ele>266.6666666666667</ele><time>2026-04-04T13:56:32.001Z</time></trkpt><trkpt lat="44.33308622697111" lon="11.454755846215383"><ele>266.8333333333333</ele><time>2026-04-04T13:56:33.002Z</time></trkpt><trkpt lat="44.333051838217145" lon="11.454637947175586"><ele>267.0</ele><time>2026-04-04T13:56:34.002Z</time></trkpt><trkpt lat="44.33302580194393" lon="11.454522685695494"><ele>271.0</ele><time>2026-04-04T13:56:35.002Z</time></trkpt><trkpt lat="44.33300791798685" lon="11.45442835934097"><ele>275.0</ele><time>2026-04-04T13:56:36.002Z</time></trkpt><trkpt lat="44.33296928452569" lon="11.454264084391186"><ele>279.0</ele><time>2026-04-04T13:56:38.002Z</time></trkpt><trkpt lat="44.33293955325637" lon="11.454178280610114"><ele>283.0</ele><time>2026-04-04T13:56:39.002Z</time></trkpt><trkpt lat="44.332910771187855" lon="11.454089687532171"><ele>287.0</ele><time>2026-04-04T13:56:40.002Z</time></trkpt><trkpt lat="44.33287886764778" lon="11.454000815812647"><ele>291.0</ele><time>2026-04-04T13:56:41.002Z</time></trkpt><trkpt lat="44.332787534781296" lon="11.453935760450726"><ele>291.0</ele><time>2026-04-04T13:56:43.002Z</time></trkpt><trkpt lat="44.33266422337682" lon="11.453982574001744"><ele>291.0</ele><time>2026-04-04T13:56:45.002Z</time></trkpt><trkpt lat="44.33262884418303" lon="11.45410024085336"><ele>291.0</ele><time>2026-04-04T13:56:46.002Z</time></trkpt><trkpt lat="44.3326091615909" lon="11.454232269230149"><ele>291.0</ele><time>2026-04-04T13:56:47.002Z</time></trkpt><trkpt lat="44.33259462985155" lon="11.454370293835245"><ele>291.0</ele><time>2026-04-04T13:56:48.002Z</time></trkpt><trkpt lat="44.332584032403574" lon="11.454494128965605"><ele>291.0</ele><time>2026-04-04T13:56:49.002Z</time></trkpt><trkpt lat="44.33259344110262" lon="11.45460392310129"><ele>291.0</ele><time>2026-04-04T13:56:50.002Z</time></trkpt><trkpt lat="44.332570558785996" lon="11.45471180892141"><ele>291.0</ele><time>2026-04-04T13:56:51.002Z</time></trkpt><trkpt lat="44.33255918114795" lon="11.454805139314775"><ele>291.0</ele><time>2026-04-04T13:56:52.002Z</time></trkpt><trkpt lat="44.33251190177259" lon="11.45491991853325"><ele>291.0</ele><time>2026-04-04T13:56:53.999Z</time></trkpt><trkpt lat="44.33237850652556" lon="11.454936750837303"><ele>291.1666666666667</ele><time>2026-04-04T13:56:55.999Z</time></trkpt><trkpt lat="44.332311540141504" lon="11.454873242314"><ele>291.3333333333333</ele><time>2026-04-04T13:56:56.999Z</time></trkpt><trkpt lat="44.3322501217149" lon="11.454827358881337"><ele>291.5</ele><time>2026-04-04T13:56:57.999Z</time></trkpt><trkpt lat="44.332167993597814" lon="11.454792140728841"><ele>291.66666666666663</ele><time>2026-04-04T13:56:58.999Z</time></trkpt><trkpt lat="44.33211640412746" lon="11.454734361601995"><ele>291.8333333333333</ele><time>2026-04-04T13:57:12.999Z</time></trkpt><trkpt lat="44.3320456328443" lon="11.454686678409027"><ele>292.0</ele><time>2026-04-04T13:57:14.999Z</time></trkpt><trkpt lat="44.33195464080317" lon="11.454650833444992"><ele>296.0</ele><time>2026-04-04T13:57:17Z</time></trkpt><trkpt lat="44.33186666547571" lon="11.454600283573921"><ele>300.0</ele><time>2026-04-04T13:57:19Z</time></trkpt><trkpt lat="44.33179255268623" lon="11.454555165681294"><ele>304.0</ele><time>2026-04-04T13:57:21Z</time></trkpt><trkpt lat="44.33172436717908" lon="11.454553265828185"><ele>308.0</ele><time>2026-04-04T13:57:28Z</time></trkpt><trkpt lat="44.33161696619849" lon="11.454549091478139"><ele>312.0</ele><time>2026-04-04T13:57:38Z</time></trkpt><trkpt lat="44.331495031108105" lon="11.454584474059041"><ele>312.0</ele><time>2026-04-04T13:57:40Z</time></trkpt><trkpt lat="44.331422369867376" lon="11.454614934683926"><ele>312.0</ele><time>2026-04-04T13:57:41Z</time></trkpt><trkpt lat="44.33135915198698" lon="11.454651452805857"><ele>312.0</ele><time>2026-04-04T13:57:42Z</time></trkpt><trkpt lat="44.331297465421805" lon="11.454703506989178"><ele>312.0</ele><time>2026-04-04T13:57:43Z</time></trkpt><trkpt lat="44.3312290670903" lon="11.454771380074751"><ele>312.0</ele><time>2026-04-04T13:57:44Z</time></trkpt><trkpt lat="44.331159024443494" lon="11.454853527940298"><ele>312.0</ele><time>2026-04-04T13:57:45Z</time></trkpt><trkpt lat="44.33109413521399" lon="11.454936364191239"><ele>315.0</ele><time>2026-04-04T13:57:46Z</time></trkpt><trkpt lat="44.33102906428495" lon="11.45505273958039"><ele>318.0</ele><time>2026-04-04T13:57:47Z</time></trkpt><trkpt lat="44.33094294536188" lon="11.455160226854355"><ele>321.0</ele><time>2026-04-04T13:57:48Z</time></trkpt><trkpt lat="44.33083954231505" lon="11.455287095023786"><ele>324.0</ele><time>2026-04-04T13:57:49Z</time></trkpt><trkpt lat="44.33071870018104" lon="11.455422452316453"><ele>323.79999999999995</ele><time>2026-04-04T13:57:50Z</time></trkpt><trkpt lat="44.33062636620763" lon="11.455528424006129"><ele>323.59999999999997</ele><time>2026-04-04T13:57:51Z</time></trkpt><trkpt lat="44.330557559542726" lon="11.455608134316497"><ele>323.4</ele><time>2026-04-04T13:57:52Z</time></trkpt><trkpt lat="44.330485815720955" lon="11.455688470971577"><ele>323.2</ele><time>2026-04-04T13:57:53Z</time></trkpt><trkpt lat="44.33042153703266" lon="11.455752245036603"><ele>323.0</ele><time>2026-04-04T13:57:54Z</time></trkpt><trkpt lat="44.33030830061112" lon="11.455806410051078"><ele>324.0</ele><time>2026-04-04T13:57:56Z</time></trkpt><trkpt lat="44.33024219576957" lon="11.455779043855646"><ele>325.0</ele><time>2026-04-04T13:57:57Z</time></trkpt><trkpt lat="44.330175383945935" lon="11.45571005518959"><ele>326.0</ele><time>2026-04-04T13:57:58Z</time></trkpt><trkpt lat="44.33016435009136" lon="11.455585522872804"><ele>327.0</ele><time>2026-04-04T13:57:59Z</time></trkpt><trkpt lat="44.330133336727954" lon="11.455464182677884"><ele>328.0</ele><time>2026-04-04T13:58:00.001Z</time></trkpt><trkpt lat="44.33010054520057" lon="11.455331518312972"><ele>329.0</ele><time>2026-04-04T13:58:01.001Z</time></trkpt><trkpt lat="44.33005193115895" lon="11.455210720339172"><ele>330.6</ele><time>2026-04-04T13:58:02.001Z</time></trkpt><trkpt lat="44.33002859655253" lon="11.455082615888374"><ele>332.2</ele><time>2026-04-04T13:58:03.001Z</time></trkpt><trkpt lat="44.32999427145072" lon="11.454939806963687"><ele>333.8</ele><time>2026-04-04T13:58:04.001Z</time></trkpt><trkpt lat="44.3299442366112" lon="11.454785740310971"><ele>335.40000000000003</ele><time>2026-04-04T13:58:05.001Z</time></trkpt><trkpt lat="44.3298726966061" lon="11.4546451206589"><ele>337.0</ele><time>2026-04-04T13:58:06.001Z</time></trkpt><trkpt lat="44.329811001286394" lon="11.454495088149676"><ele>339.0</ele><time>2026-04-04T13:58:07.001Z</time></trkpt><trkpt lat="44.329748109805074" lon="11.454353089299316"><ele>341.0</ele><time>2026-04-04T13:58:08.001Z</time></trkpt><trkpt lat="44.32968813749609" lon="11.454220758863544"><ele>343.0</ele><time>2026-04-04T13:58:09.001Z</time></trkpt><trkpt lat="44.32962941053771" lon="11.454089659732004"><ele>345.0</ele><time>2026-04-04T13:58:10.001Z</time></trkpt><trkpt lat="44.32957258070884" lon="11.4539590980328"><ele>345.6</ele><time>2026-04-04T13:58:11.001Z</time></trkpt><trkpt lat="44.32951883863244" lon="11.453841147482233"><ele>346.2</ele><time>2026-04-04T13:58:12.001Z</time></trkpt><trkpt lat="44.32946029702468" lon="11.45371859952902"><ele>346.79999999999995</ele><time>2026-04-04T13:58:13.001Z</time></trkpt><trkpt lat="44.329405043702" lon="11.453606120344057"><ele>347.4</ele><time>2026-04-04T13:58:14.001Z</time></trkpt><trkpt lat="44.32934828177823" lon="11.453488411389085"><ele>348.0</ele><time>2026-04-04T13:58:15.001Z</time></trkpt><trkpt lat="44.3292912284369" lon="11.453365417770307"><ele>352.0</ele><time>2026-04-04T13:58:16.001Z</time></trkpt><trkpt lat="44.329229622493315" lon="11.453227912428938"><ele>356.0</ele><time>2026-04-04T13:58:17.001Z</time></trkpt><trkpt lat="44.32916530067253" lon="11.453080458007886"><ele>360.0</ele><time>2026-04-04T13:58:18.001Z</time></trkpt><trkpt lat="44.3291010247606" lon="11.452927841093938"><ele>364.0</ele><time>2026-04-04T13:58:19.001Z</time></trkpt><trkpt lat="44.329057488019004" lon="11.452774250591684"><ele>364.8333333333333</ele><time>2026-04-04T13:58:20.001Z</time></trkpt><trkpt lat="44.32901486142043" lon="11.452666530889914"><ele>365.66666666666663</ele><time>2026-04-04T13:58:21.001Z</time></trkpt><trkpt lat="44.32897280663105" lon="11.452588431287051"><ele>366.5</ele><time>2026-04-04T13:58:22.001Z</time></trkpt><trkpt lat="44.32896994581127" lon="11.452482934184049"><ele>367.3333333333333</ele><time>2026-04-04T13:58:23.001Z</time></trkpt><trkpt lat="44.328973147876205" lon="11.452366273865119"><ele>368.1666666666667</ele><time>2026-04-04T13:58:24.001Z</time></trkpt><trkpt lat="44.32899962922045" lon="11.45224178635884"><ele>369.0</ele><time>2026-04-04T13:58:25.001Z</time></trkpt><trkpt lat="44.32903752832497" lon="11.45210385757254"><ele>369.79999999999995</ele><time>2026-04-04T13:58:26.001Z</time></trkpt><trkpt lat="44.329078602723825" lon="11.451977792944518"><ele>370.59999999999997</ele><time>2026-04-04T13:58:27.001Z</time></trkpt><trkpt lat="44.32912574232586" lon="11.451855205254565"><ele>371.4</ele><time>2026-04-04T13:58:28.001Z</time></trkpt><trkpt lat="44.32916009361522" lon="11.451744057609114"><ele>372.2</ele><time>2026-04-04T13:58:29.001Z</time></trkpt><trkpt lat="44.32915916601298" lon="11.451619835505603"><ele>373.0</ele><time>2026-04-04T13:58:30.001Z</time></trkpt><trkpt lat="44.32915345558674" lon="11.451502991144993"><ele>373.0</ele><time>2026-04-04T13:58:31.001Z</time></trkpt><trkpt lat="44.32912201667337" lon="11.451373635027757"><ele>373.0</ele><time>2026-04-04T13:58:32.001Z</time></trkpt><trkpt lat="44.3290847382649" lon="11.451245601681423"><ele>373.0</ele><time>2026-04-04T13:58:33.001Z</time></trkpt><trkpt lat="44.32905143859985" lon="11.451131687546232"><ele>373.0</ele><time>2026-04-04T13:58:34.001Z</time></trkpt><trkpt lat="44.32902045066401" lon="11.451007568334209"><ele>373.0</ele><time>2026-04-04T13:58:35.001Z</time></trkpt><trkpt lat="44.32899333195554" lon="11.450891551900737"><ele>373.8333333333333</ele><time>2026-04-04T13:58:36.001Z</time></trkpt><trkpt lat="44.328974145345924" lon="11.45077662969114"><ele>374.66666666666663</ele><time>2026-04-04T13:58:37.001Z</time></trkpt><trkpt lat="44.32892654685601" lon="11.450661728913058"><ele>375.5</ele><time>2026-04-04T13:58:38.001Z</time></trkpt><trkpt lat="44.32890363189331" lon="11.450538740563852"><ele>376.3333333333333</ele><time>2026-04-04T13:58:39.001Z</time></trkpt><trkpt lat="44.328871143128886" lon="11.45042382159558"><ele>377.1666666666667</ele><time>2026-04-04T13:58:40.001Z</time></trkpt><trkpt lat="44.328839286355525" lon="11.450311397995748"><ele>378.0</ele><time>2026-04-04T13:58:41.001Z</time></trkpt><trkpt lat="44.32880631682443" lon="11.450200072341602"><ele>379.0</ele><time>2026-04-04T13:58:42.001Z</time></trkpt><trkpt lat="44.32878164282036" lon="11.450079896613005"><ele>380.0</ele><time>2026-04-04T13:58:43.001Z</time></trkpt><trkpt lat="44.3287424172187" lon="11.449956425337158"><ele>381.0</ele><time>2026-04-04T13:58:44.001Z</time></trkpt><trkpt lat="44.328698640891176" lon="11.44981724731231"><ele>382.0</ele><time>2026-04-04T13:58:45.001Z</time></trkpt><trkpt lat="44.328649555232104" lon="11.449658031176549"><ele>383.0</ele><time>2026-04-04T13:58:46.001Z</time></trkpt><trkpt lat="44.32860034465808" lon="11.449507065888438"><ele>385.79999999999995</ele><time>2026-04-04T13:58:47.001Z</time></trkpt><trkpt lat="44.328552755292336" lon="11.449387659580376"><ele>388.6</ele><time>2026-04-04T13:58:48.001Z</time></trkpt><trkpt lat="44.328488264849774" lon="11.449289150217739"><ele>391.4</ele><time>2026-04-04T13:58:49.001Z</time></trkpt><trkpt lat="44.328398655959305" lon="11.449209692436227"><ele>394.20000000000005</ele><time>2026-04-04T13:58:50.001Z</time></trkpt><trkpt lat="44.32831421029713" lon="11.4491692716462"><ele>397.0</ele><time>2026-04-04T13:58:51.001Z</time></trkpt><trkpt lat="44.32823691116664" lon="11.449138832413635"><ele>397.0</ele><time>2026-04-04T13:58:52.001Z</time></trkpt><trkpt lat="44.32816182365107" lon="11.449075307819436"><ele>397.0</ele><time>2026-04-04T13:58:53.002Z</time></trkpt><trkpt lat="44.328115675286064" lon="11.448973567126988"><ele>397.0</ele><time>2026-04-04T13:58:54.002Z</time></trkpt><trkpt lat="44.32812175920668" lon="11.448829113443605"><ele>397.0</ele><time>2026-04-04T13:58:55.002Z</time></trkpt><trkpt lat="44.32811191751758" lon="11.448687443191"><ele>397.0</ele><time>2026-04-04T13:58:56.002Z</time></trkpt><trkpt lat="44.32810097346437" lon="11.448529355641542"><ele>397.6</ele><time>2026-04-04T13:58:57.002Z</time></trkpt><trkpt lat="44.32808761074422" lon="11.448370244170457"><ele>398.20000000000005</ele><time>2026-04-04T13:58:58.002Z</time></trkpt><trkpt lat="44.32805486728443" lon="11.448220049130418"><ele>398.8</ele><time>2026-04-04T13:58:59.002Z</time></trkpt><trkpt lat="44.32804089827467" lon="11.44807680823139"><ele>399.4</ele><time>2026-04-04T13:58:59.998Z</time></trkpt><trkpt lat="44.32802576438371" lon="11.447930847454185"><ele>400.0</ele><time>2026-04-04T13:59:00.998Z</time></trkpt><trkpt lat="44.32800285390345" lon="11.447781580405955"><ele>402.75</ele><time>2026-04-04T13:59:01.998Z</time></trkpt><trkpt lat="44.32798160839174" lon="11.447615324872505"><ele>405.5</ele><time>2026-04-04T13:59:02.998Z</time></trkpt><trkpt lat="44.32796464531747" lon="11.447419196710756"><ele>408.25</ele><time>2026-04-04T13:59:03.998Z</time></trkpt><trkpt lat="44.327932162115346" lon="11.447241287585033"><ele>411.0</ele><time>2026-04-04T13:59:04.998Z</time></trkpt><trkpt lat="44.32790041777942" lon="11.447108140230315"><ele>415.25</ele><time>2026-04-04T13:59:05.998Z</time></trkpt><trkpt lat="44.327846649648485" lon="11.446975287472885"><ele>419.5</ele><time>2026-04-04T13:59:06.998Z</time></trkpt><trkpt lat="44.32778220061451" lon="11.44684871814948"><ele>423.75</ele><time>2026-04-04T13:59:07.998Z</time></trkpt><trkpt lat="44.32771162911387" lon="11.446709652516528"><ele>428.0</ele><time>2026-04-04T13:59:08.998Z</time></trkpt><trkpt lat="44.32766082311244" lon="11.446559091477008"><ele>428.0</ele><time>2026-04-04T13:59:09.998Z</time></trkpt><trkpt lat="44.32760608047272" lon="11.446419922775007"><ele>428.0</ele><time>2026-04-04T13:59:10.999Z</time></trkpt><trkpt lat="44.32756030563219" lon="11.44626872252836"><ele>428.0</ele><time>2026-04-04T13:59:11.999Z</time></trkpt><trkpt lat="44.327512047004696" lon="11.446106538164962"><ele>428.0</ele><time>2026-04-04T13:59:12.999Z</time></trkpt><trkpt lat="44.32744738914622" lon="11.445970024147552"><ele>430.4</ele><time>2026-04-04T13:59:13.999Z</time></trkpt><trkpt lat="44.32738779327776" lon="11.445858767298299"><ele>432.79999999999995</ele><time>2026-04-04T13:59:14.999Z</time></trkpt><trkpt lat="44.32730790990644" lon="11.445775854789268"><ele>435.2</ele><time>2026-04-04T13:59:15.999Z</time></trkpt><trkpt lat="44.32721301469998" lon="11.445700860443718"><ele>437.6</ele><time>2026-04-04T13:59:16.999Z</time></trkpt><trkpt lat="44.32711644867231" lon="11.445630524454277"><ele>440.0</ele><time>2026-04-04T13:59:17.999Z</time></trkpt><trkpt lat="44.32702519358368" lon="11.445553679605702"><ele>443.4</ele><time>2026-04-04T13:59:18.999Z</time></trkpt><trkpt lat="44.32696169828964" lon="11.445441991575482"><ele>446.8</ele><time>2026-04-04T13:59:19.999Z</time></trkpt><trkpt lat="44.3269025112449" lon="11.445320339537837"><ele>450.20000000000005</ele><time>2026-04-04T13:59:20.999Z</time></trkpt><trkpt lat="44.3268557615589" lon="11.445179471615802"><ele>453.6</ele><time>2026-04-04T13:59:21.999Z</time></trkpt><trkpt lat="44.326811541425556" lon="11.445043145280655"><ele>457.0</ele><time>2026-04-04T13:59:22.999Z</time></trkpt><trkpt lat="44.326755721562066" lon="11.444930514713253"><ele>457.0</ele><time>2026-04-04T13:59:23.999Z</time></trkpt><trkpt lat="44.32669495419618" lon="11.44482470093708"><ele>457.00000000000006</ele><time>2026-04-04T13:59:24.999Z</time></trkpt><trkpt lat="44.32662191555244" lon="11.444735731243748"><ele>457.00000000000006</ele><time>2026-04-04T13:59:25.999Z</time></trkpt><trkpt lat="44.32654187554414" lon="11.444642133836384"><ele>457.0</ele><time>2026-04-04T13:59:26.999Z</time></trkpt><trkpt lat="44.32647043961634" lon="11.444548221573472"><ele>457.0</ele><time>2026-04-04T13:59:27.999Z</time></trkpt><trkpt lat="44.32642119965845" lon="11.444463915096481"><ele>457.20000000000005</ele><time>2026-04-04T13:59:28.999Z</time></trkpt><trkpt lat="44.32640648787123" lon="11.444358790311297"><ele>457.40000000000003</ele><time>2026-04-04T13:59:29.999Z</time></trkpt><trkpt lat="44.32638833025459" lon="11.444251811337036"><ele>457.59999999999997</ele><time>2026-04-04T13:59:30.999Z</time></trkpt><trkpt lat="44.32636906697504" lon="11.444127914666806"><ele>457.79999999999995</ele><time>2026-04-04T13:59:32Z</time></trkpt><trkpt lat="44.32634557496532" lon="11.443992727874964"><ele>458.0</ele><time>2026-04-04T13:59:33Z</time></trkpt><trkpt lat="44.32631263376561" lon="11.443851956098012"><ele>460.2</ele><time>2026-04-04T13:59:34Z</time></trkpt><trkpt lat="44.32627547052114" lon="11.443711310184485"><ele>462.4</ele><time>2026-04-04T13:59:35Z</time></trkpt><trkpt lat="44.32625014915713" lon="11.44357742718664"><ele>464.59999999999997</ele><time>2026-04-04T13:59:36Z</time></trkpt><trkpt lat="44.326214735898944" lon="11.443447787419684"><ele>466.79999999999995</ele><time>2026-04-04T13:59:37Z</time></trkpt><trkpt lat="44.326186818159755" lon="11.443310093032379"><ele>469.0</ele><time>2026-04-04T13:59:38Z</time></trkpt><trkpt lat="44.326153981583644" lon="11.443169304594155"><ele>469.0</ele><time>2026-04-04T13:59:39Z</time></trkpt><trkpt lat="44.32611095207" lon="11.443022280509917"><ele>469.0</ele><time>2026-04-04T13:59:40Z</time></trkpt><trkpt lat="44.32606458388097" lon="11.442875042584859"><ele>469.0</ele><time>2026-04-04T13:59:41Z</time></trkpt><trkpt lat="44.32601095700902" lon="11.44275474845248"><ele>469.0</ele><time>2026-04-04T13:59:42Z</time></trkpt><trkpt lat="44.32595981268959" lon="11.442626945909444"><ele>469.0</ele><time>2026-04-04T13:59:43Z</time></trkpt><trkpt lat="44.32584967432379" lon="11.442523162394034"><ele>471.25</ele><time>2026-04-04T13:59:44Z</time></trkpt><trkpt lat="44.32573897868551" lon="11.442419443054328"><ele>473.5</ele><time>2026-04-04T13:59:45Z</time></trkpt><trkpt lat="44.325620982253234" lon="11.442322910841753"><ele>475.75</ele><time>2026-04-04T13:59:46Z</time></trkpt><trkpt lat="44.32551022421348" lon="11.442222452337141"><ele>478.0</ele><time>2026-04-04T13:59:47Z</time></trkpt><trkpt lat="44.32540378376435" lon="11.442151700500213"><ele>481.25</ele><time>2026-04-04T13:59:48Z</time></trkpt><trkpt lat="44.32530023896286" lon="11.44207113724584"><ele>484.5</ele><time>2026-04-04T13:59:49Z</time></trkpt><trkpt lat="44.325187782326026" lon="11.441988616317966"><ele>487.75</ele><time>2026-04-04T13:59:50Z</time></trkpt><trkpt lat="44.32507178490141" lon="11.441907068587632"><ele>491.0</ele><time>2026-04-04T13:59:51Z</time></trkpt><trkpt lat="44.32496235350336" lon="11.441826743957025"><ele>491.0</ele><time>2026-04-04T13:59:52Z</time></trkpt><trkpt lat="44.3248725688645" lon="11.44175331672646"><ele>491.0</ele><time>2026-04-04T13:59:53Z</time></trkpt><trkpt lat="44.324779166003594" lon="11.441667964769923"><ele>491.0</ele><time>2026-04-04T13:59:54Z</time></trkpt><trkpt lat="44.32468718792663" lon="11.44157067531424"><ele>491.0</ele><time>2026-04-04T13:59:55Z</time></trkpt><trkpt lat="44.324594626761936" lon="11.441463196421283"><ele>490.75</ele><time>2026-04-04T13:59:56Z</time></trkpt><trkpt lat="44.32450714200926" lon="11.44134117525106"><ele>490.5</ele><time>2026-04-04T13:59:57Z</time></trkpt><trkpt lat="44.32442332101719" lon="11.441209970100244"><ele>490.25</ele><time>2026-04-04T13:59:58Z</time></trkpt><trkpt lat="44.32435455643648" lon="11.441051463956065"><ele>490.0</ele><time>2026-04-04T13:59:59Z</time></trkpt><trkpt lat="44.32429060783816" lon="11.440920681111843"><ele>490.4</ele><time>2026-04-04T14:00:00Z</time></trkpt><trkpt lat="44.32422716285739" lon="11.440818314427421"><ele>490.8</ele><time>2026-04-04T14:00:01Z</time></trkpt><trkpt lat="44.32417010664108" lon="11.44069433019215"><ele>491.20000000000005</ele><time>2026-04-04T14:00:02Z</time></trkpt><trkpt lat="44.32411355547102" lon="11.440573584631235"><ele>491.6</ele><time>2026-04-04T14:00:03Z</time></trkpt><trkpt lat="44.32405762586858" lon="11.440463465701555"><ele>492.0</ele><time>2026-04-04T14:00:04Z</time></trkpt><trkpt lat="44.323992521210336" lon="11.440341497415622"><ele>492.0</ele><time>2026-04-04T14:00:05Z</time></trkpt><trkpt lat="44.32392028554652" lon="11.440242124394379"><ele>492.00000000000006</ele><time>2026-04-04T14:00:06.001Z</time></trkpt><trkpt lat="44.3238534721731" lon="11.440166538242242"><ele>492.00000000000006</ele><time>2026-04-04T14:00:07.001Z</time></trkpt><trkpt lat="44.32378084559892" lon="11.440115025414828"><ele>492.0</ele><time>2026-04-04T14:00:08.001Z</time></trkpt><trkpt lat="44.323688216532695" lon="11.440071505998768"><ele>492.0</ele><time>2026-04-04T14:00:09.001Z</time></trkpt><trkpt lat="44.32358387282847" lon="11.44004334671148"><ele>494.25</ele><time>2026-04-04T14:00:10.001Z</time></trkpt><trkpt lat="44.323474781780156" lon="11.440026080587984"><ele>496.5</ele><time>2026-04-04T14:00:11.001Z</time></trkpt><trkpt lat="44.32336150454054" lon="11.440019579949864"><ele>498.75</ele><time>2026-04-04T14:00:12.001Z</time></trkpt><trkpt lat="44.32324487266341" lon="11.44000878807445"><ele>501.0</ele><time>2026-04-04T14:00:13.001Z</time></trkpt><trkpt lat="44.32313099306377" lon="11.439985058363735"><ele>502.5</ele><time>2026-04-04T14:00:14.001Z</time></trkpt><trkpt lat="44.32301400341138" lon="11.439934565792127"><ele>504.0</ele><time>2026-04-04T14:00:15.001Z</time></trkpt><trkpt lat="44.32289239000489" lon="11.439925071067917"><ele>505.5</ele><time>2026-04-04T14:00:16.001Z</time></trkpt><trkpt lat="44.322785492302444" lon="11.4399184826579"><ele>507.0</ele><time>2026-04-04T14:00:17.001Z</time></trkpt><trkpt lat="44.322684369877145" lon="11.439904529598092"><ele>507.0</ele><time>2026-04-04T14:00:18.001Z</time></trkpt><trkpt lat="44.32259724390254" lon="11.439907225179523"><ele>507.0</ele><time>2026-04-04T14:00:19.001Z</time></trkpt><trkpt lat="44.32251817054973" lon="11.439915392022085"><ele>507.0</ele><time>2026-04-04T14:00:20.001Z</time></trkpt><trkpt lat="44.322398157982406" lon="11.439913129122491"><ele>507.0</ele><time>2026-04-04T14:00:22.001Z</time></trkpt><trkpt lat="44.32233976356612" lon="11.439862544920057"><ele>507.0</ele><time>2026-04-04T14:00:23.001Z</time></trkpt><trkpt lat="44.32230385877419" lon="11.439741902243464"><ele>507.0</ele><time>2026-04-04T14:00:24.001Z</time></trkpt><trkpt lat="44.322248814917295" lon="11.439603049996654"><ele>510.5</ele><time>2026-04-04T14:00:25.001Z</time></trkpt><trkpt lat="44.32218321719639" lon="11.439459626414198"><ele>514.0</ele><time>2026-04-04T14:00:26.001Z</time></trkpt><trkpt lat="44.32210695538998" lon="11.439281825927946"><ele>517.5</ele><time>2026-04-04T14:00:27.001Z</time></trkpt><trkpt lat="44.32201887847567" lon="11.439129342372661"><ele>521.0</ele><time>2026-04-04T14:00:28.001Z</time></trkpt><trkpt lat="44.321929370993786" lon="11.43902340881368"><ele>521.0</ele><time>2026-04-04T14:00:29.001Z</time></trkpt><trkpt lat="44.32183762960439" lon="11.438955468527903"><ele>521.0</ele><time>2026-04-04T14:00:30.001Z</time></trkpt><trkpt lat="44.32174827626478" lon="11.438900273810656"><ele>521.0</ele><time>2026-04-04T14:00:31.001Z</time></trkpt><trkpt lat="44.32165278569224" lon="11.438853145974015"><ele>521.0</ele><time>2026-04-04T14:00:32.001Z</time></trkpt><trkpt lat="44.32156076723351" lon="11.438810839443347"><ele>521.0</ele><time>2026-04-04T14:00:33.001Z</time></trkpt><trkpt lat="44.321487230287225" lon="11.438782993075096"><ele>521.1666666666666</ele><time>2026-04-04T14:00:34.001Z</time></trkpt><trkpt lat="44.32140561030572" lon="11.438753161369297"><ele>521.3333333333333</ele><time>2026-04-04T14:00:35.001Z</time></trkpt><trkpt lat="44.32133738438672" lon="11.438685373851396"><ele>521.5</ele><time>2026-04-04T14:00:36.001Z</time></trkpt><trkpt lat="44.321282911898756" lon="11.438615639602949"><ele>521.6666666666666</ele><time>2026-04-04T14:00:37.001Z</time></trkpt><trkpt lat="44.321255965921004" lon="11.438518476276577"><ele>521.8333333333334</ele><time>2026-04-04T14:00:38.001Z</time></trkpt><trkpt lat="44.321227123222606" lon="11.438388229024175"><ele>522.0</ele><time>2026-04-04T14:00:39.001Z</time></trkpt><trkpt lat="44.321198832943196" lon="11.438253566561125"><ele>522.0</ele><time>2026-04-04T14:00:40.001Z</time></trkpt><trkpt lat="44.32116753913902" lon="11.438100873147077"><ele>522.0</ele><time>2026-04-04T14:00:41.001Z</time></trkpt><trkpt lat="44.321136439133994" lon="11.437939972702829"><ele>522.0</ele><time>2026-04-04T14:00:42.001Z</time></trkpt><trkpt lat="44.32110972339071" lon="11.437793065964472"><ele>522.0</ele><time>2026-04-04T14:00:43.001Z</time></trkpt><trkpt lat="44.32108813505883" lon="11.437673625950335"><ele>522.0</ele><time>2026-04-04T14:00:44.001Z</time></trkpt><trkpt lat="44.32107409799833" lon="11.437585890841921"><ele>526.0</ele><time>2026-04-04T14:00:45.001Z</time></trkpt><trkpt lat="44.32104601720066" lon="11.437454362319146"><ele>526.0</ele><time>2026-04-04T14:00:47.001Z</time></trkpt><trkpt lat="44.32105775518809" lon="11.437341294051436"><ele>526.0</ele><time>2026-04-04T14:00:50.002Z</time></trkpt></trkseg><trkseg><trkpt lat="44.32105609231556" lon="11.437303323566487"><ele>526.0</ele><time>2026-04-04T14:17:40.001Z</time></trkpt><trkpt lat="44.32103034165378" lon="11.437194768258095"><ele>526.0</ele><time>2026-04-04T14:17:42.001Z</time></trkpt><trkpt lat="44.32098550457971" lon="11.437085209856042"><ele>526.0</ele><time>2026-04-04T14:17:44.001Z</time></trkpt><trkpt lat="44.320909765031246" lon="11.436927982949966"><ele>526.0</ele><time>2026-04-04T14:17:46.001Z</time></trkpt><trkpt lat="44.32085603580039" lon="11.436819010098764"><ele>526.0</ele><time>2026-04-04T14:17:47.001Z</time></trkpt><trkpt lat="44.320809462443265" lon="11.436718854979596"><ele>526.0</ele><time>2026-04-04T14:17:48.001Z</time></trkpt><trkpt lat="44.32075963195189" lon="11.436606529587172"><ele>526.0</ele><time>2026-04-04T14:17:49.001Z</time></trkpt><trkpt lat="44.320703838049184" lon="11.4364990653534"><ele>526.0</ele><time>2026-04-04T14:17:50.001Z</time></trkpt><trkpt lat="44.32064555480566" lon="11.436396423158243"><ele>526.0</ele><time>2026-04-04T14:17:51.001Z</time></trkpt><trkpt lat="44.32058627861278" lon="11.436288808285653"><ele>526.0</ele><time>2026-04-04T14:17:52.001Z</time></trkpt><trkpt lat="44.32053215645293" lon="11.436187282458967"><ele>526.1666666666667</ele><time>2026-04-04T14:17:53.001Z</time></trkpt><trkpt lat="44.32048240305391" lon="11.436087037631902"><ele>526.3333333333334</ele><time>2026-04-04T14:17:54.001Z</time></trkpt><trkpt lat="44.32043304413748" lon="11.435983358316932"><ele>526.5</ele><time>2026-04-04T14:17:55.001Z</time></trkpt><trkpt lat="44.32038367631459" lon="11.435890117046407"><ele>526.6666666666666</ele><time>2026-04-04T14:17:56.001Z</time></trkpt><trkpt lat="44.3203460446529" lon="11.435793751990293"><ele>526.8333333333333</ele><time>2026-04-04T14:17:57.001Z</time></trkpt><trkpt lat="44.32032969712819" lon="11.435669285069213"><ele>527.0</ele><time>2026-04-04T14:17:58.001Z</time></trkpt><trkpt lat="44.320299767839984" lon="11.43553546825983"><ele>527.4</ele><time>2026-04-04T14:17:59.001Z</time></trkpt><trkpt lat="44.320263899126616" lon="11.4353934346943"><ele>527.8000000000001</ele><time>2026-04-04T14:18:00.001Z</time></trkpt><trkpt lat="44.32024900945878" lon="11.435244242477479"><ele>528.2</ele><time>2026-04-04T14:18:01.001Z</time></trkpt><trkpt lat="44.32023589203809" lon="11.435101125972578"><ele>528.6</ele><time>2026-04-04T14:18:02.001Z</time></trkpt><trkpt lat="44.32022221076313" lon="11.43495196062966"><ele>529.0</ele><time>2026-04-04T14:18:03.001Z</time></trkpt><trkpt lat="44.320206602805946" lon="11.434777947926808"><ele>529.25</ele><time>2026-04-04T14:18:04.001Z</time></trkpt><trkpt lat="44.32019824376759" lon="11.434591533684328"><ele>529.5</ele><time>2026-04-04T14:18:05.001Z</time></trkpt><trkpt lat="44.320218339210015" lon="11.434414581399434"><ele>529.75</ele><time>2026-04-04T14:18:06.001Z</time></trkpt><trkpt lat="44.32023200162229" lon="11.434247351148457"><ele>530.0</ele><time>2026-04-04T14:18:07.001Z</time></trkpt><trkpt lat="44.320246852771476" lon="11.43409940753717"><ele>530.0</ele><time>2026-04-04T14:18:08.001Z</time></trkpt><trkpt lat="44.32024547842078" lon="11.433934482862846"><ele>530.0</ele><time>2026-04-04T14:18:09.001Z</time></trkpt><trkpt lat="44.32026048628505" lon="11.433775522102382"><ele>530.0</ele><time>2026-04-04T14:18:10.001Z</time></trkpt><trkpt lat="44.32024861298014" lon="11.433621217146824"><ele>530.0</ele><time>2026-04-04T14:18:11.001Z</time></trkpt><trkpt lat="44.320210278664355" lon="11.433480661553771"><ele>530.6</ele><time>2026-04-04T14:18:12.001Z</time></trkpt><trkpt lat="44.32016000314932" lon="11.433343024885989"><ele>531.2</ele><time>2026-04-04T14:18:13.001Z</time></trkpt><trkpt lat="44.32011908395474" lon="11.43320757666304"><ele>531.8</ele><time>2026-04-04T14:18:14.001Z</time></trkpt><trkpt lat="44.32007765186158" lon="11.433086780443569"><ele>532.4</ele><time>2026-04-04T14:18:15.001Z</time></trkpt><trkpt lat="44.3200460344624" lon="11.432947648956558"><ele>533.0</ele><time>2026-04-04T14:18:16.001Z</time></trkpt><trkpt lat="44.32001969617156" lon="11.43279939794031"><ele>534.1999999999999</ele><time>2026-04-04T14:18:17.001Z</time></trkpt><trkpt lat="44.32000274688875" lon="11.432650591317724"><ele>535.4</ele><time>2026-04-04T14:18:18.001Z</time></trkpt><trkpt lat="44.319997934021195" lon="11.432527944381032"><ele>536.5999999999999</ele><time>2026-04-04T14:18:19.001Z</time></trkpt><trkpt lat="44.31999550693183" lon="11.432423100642923"><ele>537.8</ele><time>2026-04-04T14:18:20.001Z</time></trkpt><trkpt lat="44.319998857037135" lon="11.432244805864613"><ele>539.0</ele><time>2026-04-04T14:18:22.001Z</time></trkpt><trkpt lat="44.32003563139255" lon="11.432109741427873"><ele>541.0</ele><time>2026-04-04T14:18:24.001Z</time></trkpt><trkpt lat="44.320053174280964" lon="11.432021420292854"><ele>543.0</ele><time>2026-04-04T14:18:26.001Z</time></trkpt><trkpt lat="44.320008403104715" lon="11.431857478539795"><ele>545.0</ele><time>2026-04-04T14:18:28.001Z</time></trkpt><trkpt lat="44.31997736612032" lon="11.431735116863601"><ele>547.0</ele><time>2026-04-04T14:18:30.001Z</time></trkpt><trkpt lat="44.319888117800105" lon="11.431663244817303"><ele>549.0</ele><time>2026-04-04T14:18:32.001Z</time></trkpt><trkpt lat="44.319774400489734" lon="11.43166289156427"><ele>548.8333333333334</ele><time>2026-04-04T14:18:34.001Z</time></trkpt><trkpt lat="44.31969804271392" lon="11.431641958306448"><ele>548.6666666666666</ele><time>2026-04-04T14:18:35.001Z</time></trkpt><trkpt lat="44.31962960040908" lon="11.431619666841607"><ele>548.5</ele><time>2026-04-04T14:18:36.001Z</time></trkpt><trkpt lat="44.3195574855864" lon="11.431563474916569"><ele>548.3333333333333</ele><time>2026-04-04T14:18:37.001Z</time></trkpt><trkpt lat="44.31947203523152" lon="11.431533450625901"><ele>548.1666666666666</ele><time>2026-04-04T14:18:38.001Z</time></trkpt><trkpt lat="44.319392191040365" lon="11.431487195923472"><ele>548.0</ele><time>2026-04-04T14:18:39.001Z</time></trkpt><trkpt lat="44.31931721411087" lon="11.431435848876317"><ele>548.0</ele><time>2026-04-04T14:18:40.001Z</time></trkpt><trkpt lat="44.31923497026072" lon="11.431383865244031"><ele>548.0</ele><time>2026-04-04T14:18:41.001Z</time></trkpt><trkpt lat="44.31914893140041" lon="11.431328972800562"><ele>548.0</ele><time>2026-04-04T14:18:42.001Z</time></trkpt><trkpt lat="44.31907133005376" lon="11.431273068173077"><ele>548.0</ele><time>2026-04-04T14:18:43.001Z</time></trkpt><trkpt lat="44.318994157081704" lon="11.431237044524515"><ele>548.0</ele><time>2026-04-04T14:18:44.001Z</time></trkpt><trkpt lat="44.31891845265046" lon="11.431207988057388"><ele>548.0</ele><time>2026-04-04T14:18:45.001Z</time></trkpt><trkpt lat="44.318849431772556" lon="11.43117916570512"><ele>548.0</ele><time>2026-04-04T14:18:46.001Z</time></trkpt><trkpt lat="44.318740474930856" lon="11.431090884049452"><ele>548.0</ele><time>2026-04-04T14:18:48.001Z</time></trkpt><trkpt lat="44.31870194432836" lon="11.431012563214509"><ele>548.0</ele><time>2026-04-04T14:18:49.001Z</time></trkpt><trkpt lat="44.31867143659885" lon="11.43092753921965"><ele>548.0</ele><time>2026-04-04T14:18:50.001Z</time></trkpt><trkpt lat="44.31864654830826" lon="11.430834237859044"><ele>548.0</ele><time>2026-04-04T14:18:51.001Z</time></trkpt><trkpt lat="44.318626720893086" lon="11.430733249597818"><ele>548.0</ele><time>2026-04-04T14:18:52.001Z</time></trkpt><trkpt lat="44.31861209601896" lon="11.430632379767383"><ele>548.0</ele><time>2026-04-04T14:18:53.001Z</time></trkpt><trkpt lat="44.31860536021887" lon="11.430535361152858"><ele>548.0</ele><time>2026-04-04T14:18:54.001Z</time></trkpt><trkpt lat="44.31860154339073" lon="11.430368537650885"><ele>548.0</ele><time>2026-04-04T14:18:56.001Z</time></trkpt><trkpt lat="44.31860703946326" lon="11.430203170926697"><ele>548.0</ele><time>2026-04-04T14:18:58.001Z</time></trkpt><trkpt lat="44.31860884622217" lon="11.43009669838645"><ele>548.0</ele><time>2026-04-04T14:18:59.001Z</time></trkpt><trkpt lat="44.31862074758192" lon="11.42992513669031"><ele>545.8</ele><time>2026-04-04T14:19:01.001Z</time></trkpt><trkpt lat="44.318627483515115" lon="11.429775205830579"><ele>543.5999999999999</ele><time>2026-04-04T14:19:03.001Z</time></trkpt><trkpt lat="44.31864164231235" lon="11.429629923727216"><ele>541.4000000000001</ele><time>2026-04-04T14:19:05.001Z</time></trkpt><trkpt lat="44.31864618751596" lon="11.429537774302593"><ele>539.2</ele><time>2026-04-04T14:19:06.001Z</time></trkpt><trkpt lat="44.31863931557192" lon="11.429444295753763"><ele>537.0</ele><time>2026-04-04T14:19:07.001Z</time></trkpt><trkpt lat="44.31859011213324" lon="11.429285811694596"><ele>537.0</ele><time>2026-04-04T14:19:09Z</time></trkpt><trkpt lat="44.3185502251781" lon="11.429205880698847"><ele>537.0</ele><time>2026-04-04T14:19:10Z</time></trkpt><trkpt lat="44.31850513817935" lon="11.429139416551632"><ele>537.0</ele><time>2026-04-04T14:19:11Z</time></trkpt><trkpt lat="44.31841940228824" lon="11.429043106133937"><ele>537.0</ele><time>2026-04-04T14:19:13Z</time></trkpt><trkpt lat="44.31835342515767" lon="11.42895547795624"><ele>537.0</ele><time>2026-04-04T14:19:15Z</time></trkpt><trkpt lat="44.318273451015486" lon="11.428856889096089"><ele>537.0</ele><time>2026-04-04T14:19:17Z</time></trkpt><trkpt lat="44.31819539579069" lon="11.42876252602405"><ele>538.1666666666666</ele><time>2026-04-04T14:19:19Z</time></trkpt><trkpt lat="44.3181093945585" lon="11.428663834427178"><ele>539.3333333333334</ele><time>2026-04-04T14:19:21Z</time></trkpt><trkpt lat="44.31804934106184" lon="11.42860293550224"><ele>540.5</ele><time>2026-04-04T14:19:23Z</time></trkpt><trkpt lat="44.317991107230185" lon="11.428528320846967"><ele>541.6666666666667</ele><time>2026-04-04T14:19:25Z</time></trkpt><trkpt lat="44.31791349034453" lon="11.42846766924625"><ele>542.8333333333334</ele><time>2026-04-04T14:19:27Z</time></trkpt><trkpt lat="44.317833370304335" lon="11.428401408055752"><ele>544.0</ele><time>2026-04-04T14:19:29Z</time></trkpt><trkpt lat="44.317753642412654" lon="11.428336349154046"><ele>541.1666666666667</ele><time>2026-04-04T14:19:31Z</time></trkpt><trkpt lat="44.317680562010935" lon="11.428243411385854"><ele>538.3333333333334</ele><time>2026-04-04T14:19:33Z</time></trkpt><trkpt lat="44.317598399569285" lon="11.428145434564065"><ele>535.5</ele><time>2026-04-04T14:19:35Z</time></trkpt><trkpt lat="44.317578029626006" lon="11.428034724166011"><ele>532.6666666666666</ele><time>2026-04-04T14:19:36Z</time></trkpt><trkpt lat="44.31754204848758" lon="11.427952826828529"><ele>529.8333333333333</ele><time>2026-04-04T14:19:37Z</time></trkpt><trkpt lat="44.31748059385889" lon="11.4278848158309"><ele>527.0</ele><time>2026-04-04T14:19:38Z</time></trkpt><trkpt lat="44.31739421530859" lon="11.427864468595944"><ele>527.0</ele><time>2026-04-04T14:19:39Z</time></trkpt><trkpt lat="44.31731932980487" lon="11.42780785659024"><ele>527.0</ele><time>2026-04-04T14:19:40Z</time></trkpt><trkpt lat="44.31723662427859" lon="11.427729714051623"><ele>527.0</ele><time>2026-04-04T14:19:41Z</time></trkpt><trkpt lat="44.31717293207108" lon="11.427643150669647"><ele>527.0</ele><time>2026-04-04T14:19:42Z</time></trkpt><trkpt lat="44.31713083650414" lon="11.427544129436345"><ele>527.0</ele><time>2026-04-04T14:19:43Z</time></trkpt><trkpt lat="44.31709998423159" lon="11.427432791638365"><ele>527.0</ele><time>2026-04-04T14:19:44Z</time></trkpt><trkpt lat="44.31707617134904" lon="11.427341915531155"><ele>526.8333333333333</ele><time>2026-04-04T14:19:45Z</time></trkpt><trkpt lat="44.317049411236454" lon="11.427255190459638"><ele>526.6666666666666</ele><time>2026-04-04T14:19:46Z</time></trkpt><trkpt lat="44.31702451751972" lon="11.427172393015413"><ele>526.5</ele><time>2026-04-04T14:19:47Z</time></trkpt><trkpt lat="44.31695951383954" lon="11.427017151123435"><ele>526.3333333333334</ele><time>2026-04-04T14:19:49Z</time></trkpt><trkpt lat="44.31691548998626" lon="11.42694723051395"><ele>526.1666666666667</ele><time>2026-04-04T14:19:50Z</time></trkpt><trkpt lat="44.31687075022978" lon="11.42686156548903"><ele>526.0</ele><time>2026-04-04T14:19:51Z</time></trkpt><trkpt lat="44.316814377756785" lon="11.42679228967229"><ele>525.5</ele><time>2026-04-04T14:19:52Z</time></trkpt><trkpt lat="44.31674706561644" lon="11.426709344814796"><ele>525.0</ele><time>2026-04-04T14:19:53Z</time></trkpt><trkpt lat="44.31668818007767" lon="11.426630623455974"><ele>524.5</ele><time>2026-04-04T14:19:54Z</time></trkpt><trkpt lat="44.31662697163897" lon="11.426545082638448"><ele>524.0</ele><time>2026-04-04T14:19:55Z</time></trkpt><trkpt lat="44.31656371708893" lon="11.426457076271467"><ele>523.5</ele><time>2026-04-04T14:19:56Z</time></trkpt><trkpt lat="44.31649765287875" lon="11.42636921459407"><ele>523.0</ele><time>2026-04-04T14:19:57Z</time></trkpt><trkpt lat="44.316440028703106" lon="11.426292577758705"><ele>522.7142857142857</ele><time>2026-04-04T14:19:58Z</time></trkpt><trkpt lat="44.31636723220889" lon="11.426222515653057"><ele>522.4285714285714</ele><time>2026-04-04T14:19:59Z</time></trkpt><trkpt lat="44.316310818681615" lon="11.426137841348188"><ele>522.1428571428571</ele><time>2026-04-04T14:20:00Z</time></trkpt><trkpt lat="44.31625982449292" lon="11.42607343274314"><ele>521.8571428571429</ele><time>2026-04-04T14:20:01.001Z</time></trkpt><trkpt lat="44.31621372776897" lon="11.426008792750608"><ele>521.5714285714286</ele><time>2026-04-04T14:20:02.001Z</time></trkpt><trkpt lat="44.31616616211009" lon="11.425940293990541"><ele>521.2857142857142</ele><time>2026-04-04T14:20:03.001Z</time></trkpt><trkpt lat="44.3161170985505" lon="11.425871682119682"><ele>521.0</ele><time>2026-04-04T14:20:04.001Z</time></trkpt><trkpt lat="44.31607531574155" lon="11.425804655382084"><ele>521.0</ele><time>2026-04-04T14:20:05.001Z</time></trkpt><trkpt lat="44.31601332819244" lon="11.425655190050227"><ele>521.0</ele><time>2026-04-04T14:20:07.001Z</time></trkpt><trkpt lat="44.31596481002943" lon="11.42551119936762"><ele>521.0</ele><time>2026-04-04T14:20:09.001Z</time></trkpt><trkpt lat="44.31590325148738" lon="11.42537074162939"><ele>521.0</ele><time>2026-04-04T14:20:11.001Z</time></trkpt><trkpt lat="44.31585803186123" lon="11.425289691974609"><ele>521.0</ele><time>2026-04-04T14:20:12.001Z</time></trkpt><trkpt lat="44.31581205183689" lon="11.425213919352618"><ele>521.2</ele><time>2026-04-04T14:20:13.001Z</time></trkpt><trkpt lat="44.31573208534176" lon="11.4250836701969"><ele>521.4000000000001</ele><time>2026-04-04T14:20:15.001Z</time></trkpt><trkpt lat="44.31564440222912" lon="11.424958561854712"><ele>521.6</ele><time>2026-04-04T14:20:17.001Z</time></trkpt><trkpt lat="44.315597857710465" lon="11.424884333338339"><ele>521.8000000000001</ele><time>2026-04-04T14:20:18.001Z</time></trkpt><trkpt lat="44.315529008712325" lon="11.424758524192784"><ele>522.0</ele><time>2026-04-04T14:20:20.001Z</time></trkpt><trkpt lat="44.315463258555106" lon="11.4246264030097"><ele>516.4</ele><time>2026-04-04T14:20:22.001Z</time></trkpt><trkpt lat="44.31541013698168" lon="11.424511391383488"><ele>510.80000000000007</ele><time>2026-04-04T14:20:24.001Z</time></trkpt><trkpt lat="44.31535828427159" lon="11.42438005448896"><ele>505.2</ele><time>2026-04-04T14:20:26.001Z</time></trkpt><trkpt lat="44.31529727851663" lon="11.42427066334785"><ele>499.6</ele><time>2026-04-04T14:20:28.001Z</time></trkpt><trkpt lat="44.31522423631014" lon="11.424141686936224"><ele>494.0</ele><time>2026-04-04T14:20:30.001Z</time></trkpt><trkpt lat="44.31516391976661" lon="11.424038101633682"><ele>493.99999999999994</ele><time>2026-04-04T14:20:32.001Z</time></trkpt><trkpt lat="44.31510716339145" lon="11.42393754141227"><ele>494.0</ele><time>2026-04-04T14:20:34.001Z</time></trkpt><trkpt lat="44.31502951166498" lon="11.423830023574864"><ele>494.0</ele><time>2026-04-04T14:20:36.001Z</time></trkpt><trkpt lat="44.31498005479564" lon="11.423742053689177"><ele>494.0</ele><time>2026-04-04T14:20:38.001Z</time></trkpt><trkpt lat="44.31494747761257" lon="11.423645914844249"><ele>493.99999999999994</ele><time>2026-04-04T14:21:39Z</time></trkpt><trkpt lat="44.31493920725159" lon="11.42352663201399"><ele>494.0</ele><time>2026-04-04T14:21:41Z</time></trkpt><trkpt lat="44.31488843477528" lon="11.423404435257057"><ele>491.8333333333333</ele><time>2026-04-04T14:21:43Z</time></trkpt><trkpt lat="44.31487199269771" lon="11.423293043169922"><ele>489.66666666666663</ele><time>2026-04-04T14:21:45Z</time></trkpt><trkpt lat="44.314858947959046" lon="11.423202678392673"><ele>487.5</ele><time>2026-04-04T14:21:47Z</time></trkpt><trkpt lat="44.31486324426667" lon="11.423092608447861"><ele>485.33333333333337</ele><time>2026-04-04T14:21:49Z</time></trkpt><trkpt lat="44.31486417609955" lon="11.42299621621943"><ele>483.1666666666667</ele><time>2026-04-04T14:21:51Z</time></trkpt><trkpt lat="44.314902620554285" lon="11.422862254449987"><ele>481.0</ele><time>2026-04-04T14:21:54Z</time></trkpt><trkpt lat="44.3149714579634" lon="11.4227794752101"><ele>480.0</ele><time>2026-04-04T14:21:56Z</time></trkpt><trkpt lat="44.31504355266956" lon="11.422723744056704"><ele>479.0</ele><time>2026-04-04T14:21:58Z</time></trkpt><trkpt lat="44.315097598199195" lon="11.422664678130454"><ele>478.0</ele><time>2026-04-04T14:22:00Z</time></trkpt><trkpt lat="44.31503173559502" lon="11.422496120960334"><ele>477.0</ele><time>2026-04-04T14:22:01Z</time></trkpt><trkpt lat="44.31498655205173" lon="11.42236180658681"><ele>476.0</ele><time>2026-04-04T14:22:03Z</time></trkpt><trkpt lat="44.314922431959126" lon="11.42223067428884"><ele>475.0</ele><time>2026-04-04T14:22:05Z</time></trkpt><trkpt lat="44.3148602505645" lon="11.422142147117475"><ele>474.0</ele><time>2026-04-04T14:22:07Z</time></trkpt><trkpt lat="44.31480199431376" lon="11.422029790556007"><ele>473.0</ele><time>2026-04-04T14:22:09Z</time></trkpt><trkpt lat="44.314745616431175" lon="11.421920540185754"><ele>472.0</ele><time>2026-04-04T14:22:11Z</time></trkpt><trkpt lat="44.314716050142245" lon="11.421805712477948"><ele>471.0</ele><time>2026-04-04T14:22:13Z</time></trkpt><trkpt lat="44.31465556119026" lon="11.421725042250722"><ele>471.0</ele><time>2026-04-04T14:22:15Z</time></trkpt><trkpt lat="44.314600151110504" lon="11.421631542145901"><ele>471.0</ele><time>2026-04-04T14:22:17Z</time></trkpt><trkpt lat="44.31454462669755" lon="11.421577034253456"><ele>471.0</ele><time>2026-04-04T14:22:19Z</time></trkpt><trkpt lat="44.31446282254482" lon="11.421529627466446"><ele>471.0</ele><time>2026-04-04T14:22:22Z</time></trkpt><trkpt lat="44.31438638478523" lon="11.421503901458514"><ele>471.0</ele><time>2026-04-04T14:22:25Z</time></trkpt><trkpt lat="44.31431197114299" lon="11.421539006387619"><ele>471.0</ele><time>2026-04-04T14:22:27Z</time></trkpt><trkpt lat="44.3142184558509" lon="11.421552585501907"><ele>471.0</ele><time>2026-04-04T14:22:29.001Z</time></trkpt><trkpt lat="44.31411379612979" lon="11.421553637769744"><ele>471.0</ele><time>2026-04-04T14:22:31.001Z</time></trkpt><trkpt lat="44.314017974855375" lon="11.421531729555648"><ele>471.0</ele><time>2026-04-04T14:22:33.001Z</time></trkpt><trkpt lat="44.31394299178558" lon="11.421473397702094"><ele>471.0</ele><time>2026-04-04T14:22:35.001Z</time></trkpt><trkpt lat="44.313865712114975" lon="11.421436998810318"><ele>471.0</ele><time>2026-04-04T14:22:37.001Z</time></trkpt><trkpt lat="44.31380796115197" lon="11.421375685493206"><ele>471.0</ele><time>2026-04-04T14:22:39.001Z</time></trkpt><trkpt lat="44.31374366848929" lon="11.421322769879202"><ele>469.8</ele><time>2026-04-04T14:22:41.001Z</time></trkpt><trkpt lat="44.31367116604594" lon="11.421240567790912"><ele>468.6</ele><time>2026-04-04T14:22:44.001Z</time></trkpt><trkpt lat="44.31361168097218" lon="11.421146061338984"><ele>467.4</ele><time>2026-04-04T14:22:46.001Z</time></trkpt><trkpt lat="44.3135408071996" lon="11.421036643615912"><ele>466.2</ele><time>2026-04-04T14:22:48.001Z</time></trkpt><trkpt lat="44.313509821050076" lon="11.420959729836952"><ele>465.0</ele><time>2026-04-04T14:22:49.001Z</time></trkpt><trkpt lat="44.313456109969515" lon="11.420795505286087"><ele>465.0</ele><time>2026-04-04T14:22:51.001Z</time></trkpt><trkpt lat="44.31342521319868" lon="11.420706081352106"><ele>465.0</ele><time>2026-04-04T14:22:52.001Z</time></trkpt><trkpt lat="44.313394503664064" lon="11.420616443616757"><ele>465.0</ele><time>2026-04-04T14:22:53.001Z</time></trkpt><trkpt lat="44.31334683665338" lon="11.420477309452806"><ele>465.0</ele><time>2026-04-04T14:22:55.001Z</time></trkpt><trkpt lat="44.313309565483316" lon="11.42040306076132"><ele>465.0</ele><time>2026-04-04T14:22:56.001Z</time></trkpt><trkpt lat="44.31328013062552" lon="11.42031132793609"><ele>465.0</ele><time>2026-04-04T14:22:57.001Z</time></trkpt><trkpt lat="44.31324924188612" lon="11.420226855601495"><ele>464.8</ele><time>2026-04-04T14:22:58.001Z</time></trkpt><trkpt lat="44.313201084466" lon="11.420087961097764"><ele>464.6</ele><time>2026-04-04T14:23:00.001Z</time></trkpt><trkpt lat="44.31316582923525" lon="11.419956317597997"><ele>464.4</ele><time>2026-04-04T14:23:02.001Z</time></trkpt><trkpt lat="44.313123810427356" lon="11.419838842723701"><ele>464.2</ele><time>2026-04-04T14:23:04.001Z</time></trkpt><trkpt lat="44.31305077555851" lon="11.41969935218132"><ele>464.0</ele><time>2026-04-04T14:23:06.001Z</time></trkpt><trkpt lat="44.312999367309025" lon="11.41964412567825"><ele>462.79999999999995</ele><time>2026-04-04T14:23:07.001Z</time></trkpt><trkpt lat="44.313007367491174" lon="11.4194854151057"><ele>461.59999999999997</ele><time>2026-04-04T14:23:09.001Z</time></trkpt><trkpt lat="44.31300936263276" lon="11.419323764419563"><ele>460.4</ele><time>2026-04-04T14:23:11.001Z</time></trkpt><trkpt lat="44.31300995837803" lon="11.419179196864365"><ele>459.2</ele><time>2026-04-04T14:23:13.001Z</time></trkpt><trkpt lat="44.313001050264376" lon="11.419045420998911"><ele>458.0</ele><time>2026-04-04T14:23:15.001Z</time></trkpt><trkpt lat="44.31298494555997" lon="11.418917810968392"><ele>457.4</ele><time>2026-04-04T14:23:17.001Z</time></trkpt><trkpt lat="44.31296289940693" lon="11.418798221403241"><ele>456.79999999999995</ele><time>2026-04-04T14:23:19.001Z</time></trkpt><trkpt lat="44.31294491597408" lon="11.4186877377335"><ele>456.2</ele><time>2026-04-04T14:23:20.999Z</time></trkpt><trkpt lat="44.31292937407627" lon="11.41854287482667"><ele>455.6</ele><time>2026-04-04T14:23:22.999Z</time></trkpt><trkpt lat="44.312916714998906" lon="11.418386756479737"><ele>455.0</ele><time>2026-04-04T14:23:24.999Z</time></trkpt><trkpt lat="44.31290454393347" lon="11.418244895642092"><ele>454.99999999999994</ele><time>2026-04-04T14:23:26.999Z</time></trkpt><trkpt lat="44.31290108772416" lon="11.418127160264499"><ele>455.0</ele><time>2026-04-04T14:23:28.999Z</time></trkpt><trkpt lat="44.312896516015364" lon="11.418003992026597"><ele>455.0</ele><time>2026-04-04T14:23:30.999Z</time></trkpt><trkpt lat="44.31289748830636" lon="11.417872687078097"><ele>455.0</ele><time>2026-04-04T14:23:32.999Z</time></trkpt><trkpt lat="44.312899283184045" lon="11.417744629128588"><ele>454.99999999999994</ele><time>2026-04-04T14:23:34.999Z</time></trkpt><trkpt lat="44.31290350133913" lon="11.417629637638877"><ele>455.0</ele><time>2026-04-04T14:23:37Z</time></trkpt><trkpt lat="44.31290498834763" lon="11.41753197224186"><ele>455.49999999999994</ele><time>2026-04-04T14:23:39Z</time></trkpt><trkpt lat="44.312896240514185" lon="11.417433305594676"><ele>456.0</ele><time>2026-04-04T14:23:42Z</time></trkpt><trkpt lat="44.31288357250685" lon="11.417343899152682"><ele>456.5</ele><time>2026-04-04T14:25:57Z</time></trkpt><trkpt lat="44.312854958438976" lon="11.417263009244472"><ele>457.0</ele><time>2026-04-04T14:25:59Z</time></trkpt><trkpt lat="44.31281348587354" lon="11.417142365360915"><ele>457.49999999999994</ele><time>2026-04-04T14:26:01Z</time></trkpt><trkpt lat="44.31278212316958" lon="11.41702531174968"><ele>458.0</ele><time>2026-04-04T14:26:03Z</time></trkpt><trkpt lat="44.312754926882754" lon="11.41692149986738"><ele>457.99999999999994</ele><time>2026-04-04T14:26:05Z</time></trkpt><trkpt lat="44.31274328532763" lon="11.416816750340253"><ele>458.0</ele><time>2026-04-04T14:26:07Z</time></trkpt><trkpt lat="44.312744527644305" lon="11.416702856820532"><ele>458.0</ele><time>2026-04-04T14:26:09Z</time></trkpt><trkpt lat="44.31276658978779" lon="11.416590929476147"><ele>458.0</ele><time>2026-04-04T14:26:12.001Z</time></trkpt><trkpt lat="44.31273399430034" lon="11.416500228924882"><ele>457.99999999999994</ele><time>2026-04-04T14:26:15.001Z</time></trkpt><trkpt lat="44.31269766590346" lon="11.416424356038485"><ele>458.0</ele><time>2026-04-04T14:27:39.001Z</time></trkpt><trkpt lat="44.31274808394078" lon="11.416517845982531"><ele>457.99999999999994</ele><time>2026-04-04T14:28:33.001Z</time></trkpt><trkpt lat="44.31274928300637" lon="11.416618149900316"><ele>458.0</ele><time>2026-04-04T14:28:35.001Z</time></trkpt><trkpt lat="44.31280521060083" lon="11.416661811467987"><ele>458.0</ele><time>2026-04-04T14:28:37.001Z</time></trkpt><trkpt lat="44.31274005679742" lon="11.416758833447563"><ele>458.0</ele><time>2026-04-04T14:28:38.001Z</time></trkpt><trkpt lat="44.312752448683405" lon="11.416874069077723"><ele>457.99999999999994</ele><time>2026-04-04T14:28:41.001Z</time></trkpt><trkpt lat="44.31277772672563" lon="11.416983879611537"><ele>458.0</ele><time>2026-04-04T14:28:44.001Z</time></trkpt><trkpt lat="44.31280581477709" lon="11.417083388207958"><ele>456.8333333333333</ele><time>2026-04-04T14:28:47.001Z</time></trkpt><trkpt lat="44.31284551300612" lon="11.417195642685899"><ele>455.66666666666663</ele><time>2026-04-04T14:28:50.001Z</time></trkpt><trkpt lat="44.312877443756555" lon="11.41728431076491"><ele>454.5</ele><time>2026-04-04T14:28:53.001Z</time></trkpt><trkpt lat="44.312911332839256" lon="11.417382920604904"><ele>453.33333333333337</ele><time>2026-04-04T14:28:56.001Z</time></trkpt><trkpt lat="44.31292888838764" lon="11.417491426372335"><ele>452.1666666666667</ele><time>2026-04-04T14:29:00.001Z</time></trkpt><trkpt lat="44.312928444554736" lon="11.417615912378357"><ele>451.0</ele><time>2026-04-04T14:29:03.001Z</time></trkpt><trkpt lat="44.31289341991157" lon="11.417759069335983"><ele>451.0</ele><time>2026-04-04T14:31:43.001Z</time></trkpt><trkpt lat="44.31287231002242" lon="11.417870554004889"><ele>451.0</ele><time>2026-04-04T14:31:45Z</time></trkpt><trkpt lat="44.31287192920382" lon="11.418031367537369"><ele>451.0</ele><time>2026-04-04T14:31:47Z</time></trkpt><trkpt lat="44.312876466602056" lon="11.4181194514972"><ele>451.0</ele><time>2026-04-04T14:31:48Z</time></trkpt><trkpt lat="44.312886767814696" lon="11.418272253056879"><ele>451.0</ele><time>2026-04-04T14:31:50Z</time></trkpt><trkpt lat="44.31289705741489" lon="11.418417942206345"><ele>451.8</ele><time>2026-04-04T14:31:52Z</time></trkpt><trkpt lat="44.312906178787905" lon="11.418534277118248"><ele>452.6</ele><time>2026-04-04T14:31:54Z</time></trkpt><trkpt lat="44.3129186283916" lon="11.418668407465947"><ele>453.4</ele><time>2026-04-04T14:31:56Z</time></trkpt><trkpt lat="44.31294985169153" lon="11.41879061056392"><ele>454.2</ele><time>2026-04-04T14:31:58Z</time></trkpt><trkpt lat="44.312961644893875" lon="11.41891782064281"><ele>455.0</ele><time>2026-04-04T14:32:00Z</time></trkpt><trkpt lat="44.31298288723241" lon="11.419063953244983"><ele>455.6</ele><time>2026-04-04T14:32:02Z</time></trkpt><trkpt lat="44.31299112818229" lon="11.419200239558764"><ele>456.2</ele><time>2026-04-04T14:32:04Z</time></trkpt><trkpt lat="44.31299119308681" lon="11.419306487564679"><ele>456.79999999999995</ele><time>2026-04-04T14:32:06Z</time></trkpt><trkpt lat="44.31298459748531" lon="11.419425061539314"><ele>457.4</ele><time>2026-04-04T14:32:08Z</time></trkpt><trkpt lat="44.31298587612963" lon="11.419565857340054"><ele>458.0</ele><time>2026-04-04T14:32:10Z</time></trkpt><trkpt lat="44.31298742002534" lon="11.419711086134358"><ele>459.59999999999997</ele><time>2026-04-04T14:32:12Z</time></trkpt><trkpt lat="44.31292525336325" lon="11.419823182707159"><ele>461.19999999999993</ele><time>2026-04-04T14:32:14Z</time></trkpt><trkpt lat="44.31286894434409" lon="11.419941002184219"><ele>462.8</ele><time>2026-04-04T14:32:16Z</time></trkpt><trkpt lat="44.31282393032823" lon="11.42004362620021"><ele>464.4</ele><time>2026-04-04T14:32:18Z</time></trkpt><trkpt lat="44.312795179770774" lon="11.42018380461209"><ele>466.0</ele><time>2026-04-04T14:32:20Z</time></trkpt><trkpt lat="44.31277440790021" lon="11.420274630481073"><ele>466.0</ele><time>2026-04-04T14:32:21Z</time></trkpt><trkpt lat="44.312767571860974" lon="11.420374913406686"><ele>466.0</ele><time>2026-04-04T14:32:22Z</time></trkpt><trkpt lat="44.31277425251402" lon="11.420466502192602"><ele>466.0</ele><time>2026-04-04T14:32:23Z</time></trkpt><trkpt lat="44.31279828302499" lon="11.420624330491757"><ele>466.0</ele><time>2026-04-04T14:32:25Z</time></trkpt><trkpt lat="44.312817041932455" lon="11.420762847457208"><ele>466.0</ele><time>2026-04-04T14:32:27Z</time></trkpt><trkpt lat="44.31281515825552" lon="11.420913349416367"><ele>469.0</ele><time>2026-04-04T14:32:29Z</time></trkpt><trkpt lat="44.31281315466913" lon="11.421044798178746"><ele>472.0</ele><time>2026-04-04T14:32:31Z</time></trkpt><trkpt lat="44.31281256952675" lon="11.421192734619451"><ele>475.0</ele><time>2026-04-04T14:32:33Z</time></trkpt><trkpt lat="44.31279077210338" lon="11.421340155106463"><ele>478.0</ele><time>2026-04-04T14:32:35Z</time></trkpt><trkpt lat="44.312748521328935" lon="11.421489107424101"><ele>481.0</ele><time>2026-04-04T14:32:37Z</time></trkpt><trkpt lat="44.31271733689537" lon="11.421629947210247"><ele>483.6</ele><time>2026-04-04T14:32:39Z</time></trkpt><trkpt lat="44.31270445237863" lon="11.421779539592087"><ele>486.20000000000005</ele><time>2026-04-04T14:32:41Z</time></trkpt><trkpt lat="44.31271450228821" lon="11.421941578100103"><ele>488.79999999999995</ele><time>2026-04-04T14:32:43Z</time></trkpt><trkpt lat="44.312784653821964" lon="11.422077352055378"><ele>491.4</ele><time>2026-04-04T14:32:45Z</time></trkpt><trkpt lat="44.31285907776606" lon="11.422098476759198"><ele>494.0</ele><time>2026-04-04T14:32:46.001Z</time></trkpt><trkpt lat="44.31296017940905" lon="11.42214961441357"><ele>494.99999999999994</ele><time>2026-04-04T14:32:48.001Z</time></trkpt><trkpt lat="44.313064018305475" lon="11.422209967495215"><ele>496.0</ele><time>2026-04-04T14:32:50.001Z</time></trkpt><trkpt lat="44.31312517718902" lon="11.422242099220805"><ele>497.0</ele><time>2026-04-04T14:32:51.001Z</time></trkpt><trkpt lat="44.313219951012066" lon="11.422287104545784"><ele>498.0</ele><time>2026-04-04T14:32:53.001Z</time></trkpt><trkpt lat="44.31329199177393" lon="11.422326247748423"><ele>498.99999999999994</ele><time>2026-04-04T14:32:55.001Z</time></trkpt><trkpt lat="44.313373128188516" lon="11.422379846810868"><ele>500.0</ele><time>2026-04-04T14:32:57.001Z</time></trkpt><trkpt lat="44.313466967017256" lon="11.422428342571093"><ele>500.0</ele><time>2026-04-04T14:32:59.001Z</time></trkpt><trkpt lat="44.313530508224055" lon="11.422475756555261"><ele>500.0</ele><time>2026-04-04T14:33:01.001Z</time></trkpt><trkpt lat="44.3136199414326" lon="11.422511962800444"><ele>500.0</ele><time>2026-04-04T14:33:03.001Z</time></trkpt><trkpt lat="44.31371456501425" lon="11.422592625957405"><ele>500.0</ele><time>2026-04-04T14:33:05.001Z</time></trkpt><trkpt lat="44.313797233640344" lon="11.422664032917307"><ele>500.0</ele><time>2026-04-04T14:33:07.001Z</time></trkpt><trkpt lat="44.31388127538036" lon="11.422718707632843"><ele>498.0</ele><time>2026-04-04T14:33:09.001Z</time></trkpt><trkpt lat="44.31398684262592" lon="11.422768181810179"><ele>496.0</ele><time>2026-04-04T14:33:11.001Z</time></trkpt><trkpt lat="44.31410121030552" lon="11.422773340895358"><ele>494.0</ele><time>2026-04-04T14:33:13.001Z</time></trkpt><trkpt lat="44.31418759719404" lon="11.422798766383742"><ele>492.0</ele><time>2026-04-04T14:33:15.001Z</time></trkpt><trkpt lat="44.314245785862035" lon="11.42283618028382"><ele>490.0</ele><time>2026-04-04T14:33:17.001Z</time></trkpt><trkpt lat="44.314319193613045" lon="11.42289836700367"><ele>490.00000000000006</ele><time>2026-04-04T14:33:30.001Z</time></trkpt><trkpt lat="44.31439690023816" lon="11.422966918620524"><ele>490.0</ele><time>2026-04-04T14:33:32.001Z</time></trkpt><trkpt lat="44.31444819516611" lon="11.423018866483819"><ele>490.0</ele><time>2026-04-04T14:33:33.001Z</time></trkpt><trkpt lat="44.3144980867301" lon="11.42307638275405"><ele>490.0</ele><time>2026-04-04T14:33:34.001Z</time></trkpt><trkpt lat="44.314556159476844" lon="11.423145168620776"><ele>490.00000000000006</ele><time>2026-04-04T14:33:35.001Z</time></trkpt><trkpt lat="44.314622132488445" lon="11.423223155268962"><ele>490.0</ele><time>2026-04-04T14:33:36.001Z</time></trkpt><trkpt lat="44.31468676321238" lon="11.423301311876893"><ele>488.50000000000006</ele><time>2026-04-04T14:33:37.001Z</time></trkpt><trkpt lat="44.31475250989178" lon="11.423390076834844"><ele>487.0</ele><time>2026-04-04T14:33:38.001Z</time></trkpt><trkpt lat="44.31481345828716" lon="11.423481441624462"><ele>485.5</ele><time>2026-04-04T14:33:39.001Z</time></trkpt><trkpt lat="44.31485837647001" lon="11.423562982296808"><ele>484.0</ele><time>2026-04-04T14:33:40.001Z</time></trkpt><trkpt lat="44.314903636076956" lon="11.42364427262202"><ele>482.50000000000006</ele><time>2026-04-04T14:33:41.001Z</time></trkpt><trkpt lat="44.31494639996556" lon="11.423716455234196"><ele>481.0</ele><time>2026-04-04T14:33:42.001Z</time></trkpt><trkpt lat="44.31499057953073" lon="11.42377987390915"><ele>483.6</ele><time>2026-04-04T14:33:43.001Z</time></trkpt><trkpt lat="44.3150614877773" lon="11.423896810073519"><ele>486.20000000000005</ele><time>2026-04-04T14:33:45.001Z</time></trkpt><trkpt lat="44.315118242169866" lon="11.423999793286756"><ele>488.79999999999995</ele><time>2026-04-04T14:33:47.001Z</time></trkpt><trkpt lat="44.31517227735617" lon="11.424074871979197"><ele>491.4</ele><time>2026-04-04T14:33:49.001Z</time></trkpt><trkpt lat="44.3152257217544" lon="11.42420127023636"><ele>494.0</ele><time>2026-04-04T14:33:50.998Z</time></trkpt><trkpt lat="44.31530343462195" lon="11.424325624693829"><ele>493.99999999999994</ele><time>2026-04-04T14:33:52.998Z</time></trkpt><trkpt lat="44.315342253956956" lon="11.424399191374127"><ele>494.0</ele><time>2026-04-04T14:33:53.998Z</time></trkpt><trkpt lat="44.31540616509201" lon="11.424530892743132"><ele>494.0</ele><time>2026-04-04T14:33:55.998Z</time></trkpt><trkpt lat="44.31544184619259" lon="11.424607154299936"><ele>494.0</ele><time>2026-04-04T14:33:56.998Z</time></trkpt><trkpt lat="44.31547010387065" lon="11.424690387546308"><ele>493.99999999999994</ele><time>2026-04-04T14:33:57.998Z</time></trkpt><trkpt lat="44.315519636191794" lon="11.4247864690379"><ele>494.0</ele><time>2026-04-04T14:33:58.998Z</time></trkpt><trkpt lat="44.315580452198915" lon="11.42490022409106"><ele>494.16666666666663</ele><time>2026-04-04T14:33:59.998Z</time></trkpt><trkpt lat="44.31563427233086" lon="11.424988107792116"><ele>494.3333333333333</ele><time>2026-04-04T14:34:00.999Z</time></trkpt><trkpt lat="44.31569682243678" lon="11.425114763169484"><ele>494.5</ele><time>2026-04-04T14:34:02.999Z</time></trkpt><trkpt lat="44.31576759171612" lon="11.425238012592454"><ele>494.66666666666663</ele><time>2026-04-04T14:34:04.999Z</time></trkpt><trkpt lat="44.31580667825622" lon="11.425313955474014"><ele>494.8333333333333</ele><time>2026-04-04T14:34:05.999Z</time></trkpt><trkpt lat="44.31584869683076" lon="11.425397609839505"><ele>495.0</ele><time>2026-04-04T14:34:06.999Z</time></trkpt><trkpt lat="44.315889797455576" lon="11.425482488650978"><ele>498.71428571428567</ele><time>2026-04-04T14:34:07.999Z</time></trkpt><trkpt lat="44.31595056958877" lon="11.425572062810069"><ele>502.42857142857144</ele><time>2026-04-04T14:34:08.999Z</time></trkpt><trkpt lat="44.3159838173031" lon="11.425663685720547"><ele>506.1428571428571</ele><time>2026-04-04T14:34:09.999Z</time></trkpt><trkpt lat="44.316017986624665" lon="11.425742570218478"><ele>509.85714285714283</ele><time>2026-04-04T14:34:10.999Z</time></trkpt><trkpt lat="44.31605383352225" lon="11.425817900078625"><ele>513.5714285714286</ele><time>2026-04-04T14:34:11.999Z</time></trkpt><trkpt lat="44.31609635653699" lon="11.425905820575128"><ele>517.2857142857142</ele><time>2026-04-04T14:34:12.999Z</time></trkpt><trkpt lat="44.31614942355562" lon="11.425987035771248"><ele>521.0</ele><time>2026-04-04T14:34:13.999Z</time></trkpt><trkpt lat="44.316218250032264" lon="11.42607402282106"><ele>521.0</ele><time>2026-04-04T14:34:14.999Z</time></trkpt><trkpt lat="44.31627727015835" lon="11.42614935687212"><ele>521.0</ele><time>2026-04-04T14:34:15.999Z</time></trkpt><trkpt lat="44.31633732707265" lon="11.426224862792683"><ele>521.0</ele><time>2026-04-04T14:34:16.999Z</time></trkpt><trkpt lat="44.316416269940326" lon="11.42632222836656"><ele>521.0</ele><time>2026-04-04T14:34:17.999Z</time></trkpt><trkpt lat="44.31649957011062" lon="11.426451217713684"><ele>521.0</ele><time>2026-04-04T14:34:18.999Z</time></trkpt><trkpt lat="44.31657957878855" lon="11.426571084550154"><ele>521.3333333333333</ele><time>2026-04-04T14:34:19.999Z</time></trkpt><trkpt lat="44.316637146387436" lon="11.426654062856848"><ele>521.6666666666666</ele><time>2026-04-04T14:34:20.999Z</time></trkpt><trkpt lat="44.316730146744824" lon="11.426762326173618"><ele>522.0</ele><time>2026-04-04T14:34:22.999Z</time></trkpt><trkpt lat="44.31678175175086" lon="11.426818014837403"><ele>522.3333333333334</ele><time>2026-04-04T14:34:23.999Z</time></trkpt><trkpt lat="44.31683622140356" lon="11.426881945509683"><ele>522.6666666666667</ele><time>2026-04-04T14:34:25Z</time></trkpt><trkpt lat="44.31690080480374" lon="11.42697445939341"><ele>523.0</ele><time>2026-04-04T14:34:26Z</time></trkpt><trkpt lat="44.31696042085936" lon="11.427077553319467"><ele>523.4285714285713</ele><time>2026-04-04T14:34:27Z</time></trkpt><trkpt lat="44.316996163201814" lon="11.427175389730953"><ele>523.8571428571429</ele><time>2026-04-04T14:34:28Z</time></trkpt><trkpt lat="44.317031680867785" lon="11.427262873726157"><ele>524.2857142857142</ele><time>2026-04-04T14:34:29Z</time></trkpt><trkpt lat="44.31705297666702" lon="11.427367154524447"><ele>524.7142857142857</ele><time>2026-04-04T14:34:30Z</time></trkpt><trkpt lat="44.3170834172619" lon="11.427448181816008"><ele>525.1428571428571</ele><time>2026-04-04T14:34:31Z</time></trkpt><trkpt lat="44.31712354375723" lon="11.42752261897055"><ele>525.5714285714286</ele><time>2026-04-04T14:34:32Z</time></trkpt><trkpt lat="44.3171498184901" lon="11.427616845258108"><ele>526.0</ele><time>2026-04-04T14:34:33Z</time></trkpt><trkpt lat="44.31718926452206" lon="11.42769488382082"><ele>526.0</ele><time>2026-04-04T14:34:34Z</time></trkpt><trkpt lat="44.31725061383846" lon="11.427752097289499"><ele>526.0</ele><time>2026-04-04T14:34:35Z</time></trkpt><trkpt lat="44.31731505533455" lon="11.427800529437135"><ele>526.0</ele><time>2026-04-04T14:34:36Z</time></trkpt><trkpt lat="44.31738331900338" lon="11.427840435875677"><ele>526.0</ele><time>2026-04-04T14:34:37Z</time></trkpt><trkpt lat="44.31745263878424" lon="11.427880629132476"><ele>526.0</ele><time>2026-04-04T14:34:38Z</time></trkpt><trkpt lat="44.317507056890676" lon="11.427973220188008"><ele>526.0</ele><time>2026-04-04T14:34:39Z</time></trkpt><trkpt lat="44.317562654232205" lon="11.428047161324963"><ele>526.0</ele><time>2026-04-04T14:34:40Z</time></trkpt><trkpt lat="44.317618494331164" lon="11.428113732024412"><ele>526.0</ele><time>2026-04-04T14:34:41Z</time></trkpt><trkpt lat="44.317632748403334" lon="11.428255370263685"><ele>526.0</ele><time>2026-04-04T14:34:43Z</time></trkpt><trkpt lat="44.317653409653076" lon="11.428346901496694"><ele>526.0</ele><time>2026-04-04T14:34:45Z</time></trkpt><trkpt lat="44.31773026539958" lon="11.428357733886156"><ele>526.0</ele><time>2026-04-04T14:34:46Z</time></trkpt><trkpt lat="44.31783037775693" lon="11.42842353528351"><ele>526.0</ele><time>2026-04-04T14:34:48Z</time></trkpt><trkpt lat="44.317913926222424" lon="11.428503232095208"><ele>526.0</ele><time>2026-04-04T14:34:50Z</time></trkpt><trkpt lat="44.31800060347035" lon="11.428584076019726"><ele>526.0</ele><time>2026-04-04T14:34:52Z</time></trkpt><trkpt lat="44.31807530744144" lon="11.428638659025635"><ele>526.0</ele><time>2026-04-04T14:34:54Z</time></trkpt><trkpt lat="44.31812587478973" lon="11.42871126773643"><ele>526.0</ele><time>2026-04-04T14:34:57Z</time></trkpt><trkpt lat="44.31818371908795" lon="11.428805807152317"><ele>526.0</ele><time>2026-04-04T14:50:03.001Z</time></trkpt><trkpt lat="44.31826502322885" lon="11.42890287546763"><ele>527.8333333333334</ele><time>2026-04-04T14:50:05.001Z</time></trkpt><trkpt lat="44.318319672855374" lon="11.428972366678442"><ele>529.6666666666667</ele><time>2026-04-04T14:50:07.001Z</time></trkpt><trkpt lat="44.3183649058115" lon="11.429042284698015"><ele>531.5</ele><time>2026-04-04T14:50:09.001Z</time></trkpt><trkpt lat="44.31843932150715" lon="11.429118430459283"><ele>533.3333333333334</ele><time>2026-04-04T14:50:12.001Z</time></trkpt><trkpt lat="44.31838990341053" lon="11.429050898070194"><ele>535.1666666666666</ele><time>2026-04-04T14:50:39.001Z</time></trkpt><trkpt lat="44.318298258524614" lon="11.428942396135302"><ele>537.0</ele><time>2026-04-04T14:51:35.001Z</time></trkpt><trkpt lat="44.31821630365901" lon="11.428849260027421"><ele>538.1666666666666</ele><time>2026-04-04T14:51:37.001Z</time></trkpt><trkpt lat="44.3181365669495" lon="11.428733663164248"><ele>539.3333333333334</ele><time>2026-04-04T14:51:39.001Z</time></trkpt><trkpt lat="44.318082637832525" lon="11.42865921383544"><ele>540.5</ele><time>2026-04-04T14:51:41.001Z</time></trkpt><trkpt lat="44.31802579051644" lon="11.428588734180012"><ele>541.6666666666667</ele><time>2026-04-04T14:51:43.001Z</time></trkpt><trkpt lat="44.3179451127556" lon="11.428527665652659"><ele>542.8333333333334</ele><time>2026-04-04T14:51:45.001Z</time></trkpt><trkpt lat="44.31787131493321" lon="11.42846824631878"><ele>544.0</ele><time>2026-04-04T14:51:47.001Z</time></trkpt><trkpt lat="44.317795580203295" lon="11.428385474214402"><ele>540.4</ele><time>2026-04-04T14:51:49.001Z</time></trkpt><trkpt lat="44.31771205619101" lon="11.42832940584183"><ele>536.8</ele><time>2026-04-04T14:51:51.001Z</time></trkpt><trkpt lat="44.31762257385904" lon="11.428261725378356"><ele>533.2</ele><time>2026-04-04T14:51:53.001Z</time></trkpt><trkpt lat="44.317518943048924" lon="11.428194604226082"><ele>529.6</ele><time>2026-04-04T14:51:55.001Z</time></trkpt><trkpt lat="44.31747017961263" lon="11.42813491833063"><ele>526.0</ele><time>2026-04-04T14:51:56.001Z</time></trkpt><trkpt lat="44.31737824554986" lon="11.428046580797314"><ele>526.0</ele><time>2026-04-04T14:51:58.001Z</time></trkpt><trkpt lat="44.317279392659664" lon="11.427951595093354"><ele>526.0</ele><time>2026-04-04T14:52:00.001Z</time></trkpt><trkpt lat="44.317180627495944" lon="11.427856693685424"><ele>526.0</ele><time>2026-04-04T14:52:02.001Z</time></trkpt><trkpt lat="44.317083664325814" lon="11.42776793827697"><ele>526.0</ele><time>2026-04-04T14:52:04.001Z</time></trkpt><trkpt lat="44.317029810770315" lon="11.42771707320476"><ele>526.0</ele><time>2026-04-04T14:52:05.001Z</time></trkpt><trkpt lat="44.31697752336516" lon="11.427665897095233"><ele>526.0</ele><time>2026-04-04T14:52:06.001Z</time></trkpt><trkpt lat="44.3168834905575" lon="11.427553289552627"><ele>526.0</ele><time>2026-04-04T14:52:08.001Z</time></trkpt><trkpt lat="44.316822249509634" lon="11.427491505632055"><ele>526.0</ele><time>2026-04-04T14:52:09.001Z</time></trkpt><trkpt lat="44.31677125495113" lon="11.427386049022527"><ele>526.0</ele><time>2026-04-04T14:52:10.001Z</time></trkpt><trkpt lat="44.31670685947989" lon="11.427325012552398"><ele>526.0</ele><time>2026-04-04T14:52:11.001Z</time></trkpt><trkpt lat="44.31662662660222" lon="11.427241049595194"><ele>526.3333333333334</ele><time>2026-04-04T14:52:13.001Z</time></trkpt><trkpt lat="44.31653481998397" lon="11.427143043230933"><ele>526.6666666666667</ele><time>2026-04-04T14:52:15.001Z</time></trkpt><trkpt lat="44.31648475002777" lon="11.42708959196994"><ele>527.0</ele><time>2026-04-04T14:52:16.001Z</time></trkpt><trkpt lat="44.31643120899259" lon="11.427034734451583"><ele>527.3333333333334</ele><time>2026-04-04T14:52:17.001Z</time></trkpt><trkpt lat="44.316377148528474" lon="11.426982815490346"><ele>527.6666666666666</ele><time>2026-04-04T14:52:18.001Z</time></trkpt><trkpt lat="44.31627455118082" lon="11.42688335652723"><ele>528.0</ele><time>2026-04-04T14:52:20.001Z</time></trkpt><trkpt lat="44.31617572331802" lon="11.426774951663212"><ele>528.0</ele><time>2026-04-04T14:52:22.001Z</time></trkpt><trkpt lat="44.31607119826231" lon="11.426669450531756"><ele>528.0</ele><time>2026-04-04T14:52:24.001Z</time></trkpt><trkpt lat="44.316014229385736" lon="11.42662410430106"><ele>528.0</ele><time>2026-04-04T14:52:25.001Z</time></trkpt><trkpt lat="44.315956533889675" lon="11.426581197295453"><ele>528.0</ele><time>2026-04-04T14:52:26.001Z</time></trkpt><trkpt lat="44.315847687882474" lon="11.426501665816822"><ele>528.0</ele><time>2026-04-04T14:52:28.001Z</time></trkpt><trkpt lat="44.31575655413684" lon="11.426428645689441"><ele>528.0</ele><time>2026-04-04T14:52:30.001Z</time></trkpt><trkpt lat="44.315694034101156" lon="11.426376755423142"><ele>528.0</ele><time>2026-04-04T14:52:31.001Z</time></trkpt><trkpt lat="44.31560424132322" lon="11.426307820987777"><ele>528.0</ele><time>2026-04-04T14:52:33.001Z</time></trkpt><trkpt lat="44.31554591882759" lon="11.426265926739196"><ele>528.0</ele><time>2026-04-04T14:52:35.001Z</time></trkpt><trkpt lat="44.315479613706415" lon="11.426228805090137"><ele>528.0</ele><time>2026-04-04T14:52:36.001Z</time></trkpt><trkpt lat="44.31535303088277" lon="11.426192268308451"><ele>528.0</ele><time>2026-04-04T14:52:38.001Z</time></trkpt><trkpt lat="44.31527698930106" lon="11.426188612762802"><ele>530.1666666666666</ele><time>2026-04-04T14:52:39.001Z</time></trkpt><trkpt lat="44.3151614142894" lon="11.426220955436296"><ele>532.3333333333334</ele><time>2026-04-04T14:52:41.001Z</time></trkpt><trkpt lat="44.31507291788586" lon="11.426238542124151"><ele>534.5</ele><time>2026-04-04T14:52:43.001Z</time></trkpt><trkpt lat="44.31499794716644" lon="11.426245076521873"><ele>536.6666666666667</ele><time>2026-04-04T14:52:47Z</time></trkpt><trkpt lat="44.31493039324878" lon="11.426241496133432"><ele>538.8333333333334</ele><time>2026-04-04T14:52:50Z</time></trkpt><trkpt lat="44.31484279472033" lon="11.426222642154375"><ele>541.0</ele><time>2026-04-04T14:52:53Z</time></trkpt><trkpt lat="44.31476035462815" lon="11.426213355369942"><ele>542.8333333333334</ele><time>2026-04-04T14:52:55Z</time></trkpt><trkpt lat="44.314677107623" lon="11.426240051124037"><ele>544.6666666666667</ele><time>2026-04-04T14:52:57Z</time></trkpt><trkpt lat="44.31460501696837" lon="11.426291836810384"><ele>546.5</ele><time>2026-04-04T14:52:59Z</time></trkpt><trkpt lat="44.31453894941212" lon="11.426350493280797"><ele>548.3333333333334</ele><time>2026-04-04T14:53:01Z</time></trkpt><trkpt lat="44.314475251340774" lon="11.426406800701322"><ele>550.1666666666666</ele><time>2026-04-04T14:53:03Z</time></trkpt><trkpt lat="44.31441863643262" lon="11.426458307905607"><ele>552.0</ele><time>2026-04-04T14:53:05Z</time></trkpt><trkpt lat="44.314351592955376" lon="11.426520843121427"><ele>548.6666666666666</ele><time>2026-04-04T14:53:07Z</time></trkpt><trkpt lat="44.31429577053801" lon="11.426595690965536"><ele>545.3333333333334</ele><time>2026-04-04T14:53:09Z</time></trkpt><trkpt lat="44.31420302475452" lon="11.426629595511859"><ele>542.0</ele><time>2026-04-04T14:53:11Z</time></trkpt><trkpt lat="44.31411295476811" lon="11.426596603139672"><ele>538.6666666666667</ele><time>2026-04-04T14:53:13Z</time></trkpt><trkpt lat="44.31402455626272" lon="11.426601563517567"><ele>535.3333333333334</ele><time>2026-04-04T14:53:15Z</time></trkpt><trkpt lat="44.31395125360542" lon="11.42663300745845"><ele>532.0</ele><time>2026-04-04T14:53:17Z</time></trkpt><trkpt lat="44.313887193408135" lon="11.426693101006315"><ele>532.0</ele><time>2026-04-04T14:53:19Z</time></trkpt><trkpt lat="44.31381448753406" lon="11.42674499228668"><ele>532.0</ele><time>2026-04-04T14:53:21Z</time></trkpt><trkpt lat="44.313749500163794" lon="11.426779083305938"><ele>532.0</ele><time>2026-04-04T14:53:23Z</time></trkpt><trkpt lat="44.31368036335995" lon="11.426799610027919"><ele>532.0</ele><time>2026-04-04T14:53:25Z</time></trkpt><trkpt lat="44.3135948883789" lon="11.426813159119149"><ele>532.0</ele><time>2026-04-04T14:53:27Z</time></trkpt><trkpt lat="44.31352127287652" lon="11.426839189351794"><ele>532.0</ele><time>2026-04-04T14:53:29Z</time></trkpt><trkpt lat="44.313452157532154" lon="11.426882726492487"><ele>532.0</ele><time>2026-04-04T14:53:31Z</time></trkpt><trkpt lat="44.31337436027775" lon="11.426926529303339"><ele>532.0</ele><time>2026-04-04T14:53:33Z</time></trkpt><trkpt lat="44.313283452399276" lon="11.426963046684435"><ele>532.0</ele><time>2026-04-04T14:53:35Z</time></trkpt><trkpt lat="44.313180591482386" lon="11.427012836806925"><ele>532.0</ele><time>2026-04-04T14:53:37Z</time></trkpt><trkpt lat="44.3131156864112" lon="11.42699807414142"><ele>532.0</ele><time>2026-04-04T14:53:38Z</time></trkpt><trkpt lat="44.313005689569536" lon="11.427003705438006"><ele>532.8000000000001</ele><time>2026-04-04T14:53:40Z</time></trkpt><trkpt lat="44.31290290262797" lon="11.427019946544869"><ele>533.6</ele><time>2026-04-04T14:53:42Z</time></trkpt><trkpt lat="44.3127943546744" lon="11.427059705839056"><ele>534.4000000000001</ele><time>2026-04-04T14:53:44Z</time></trkpt><trkpt lat="44.3126960492227" lon="11.427107143513183"><ele>535.2</ele><time>2026-04-04T14:53:46Z</time></trkpt><trkpt lat="44.31260751546707" lon="11.427149473148578"><ele>536.0</ele><time>2026-04-04T14:53:48Z</time></trkpt><trkpt lat="44.31253362666652" lon="11.427222358718044"><ele>530.8</ele><time>2026-04-04T14:53:50Z</time></trkpt><trkpt lat="44.312469579985375" lon="11.42731691900154"><ele>525.6</ele><time>2026-04-04T14:53:52Z</time></trkpt><trkpt lat="44.312416129652" lon="11.427436113920763"><ele>520.4</ele><time>2026-04-04T14:53:54Z</time></trkpt><trkpt lat="44.312374023578464" lon="11.42756408231086"><ele>515.2</ele><time>2026-04-04T14:53:56Z</time></trkpt><trkpt lat="44.31230891058884" lon="11.427664756239679"><ele>510.0</ele><time>2026-04-04T14:53:58Z</time></trkpt><trkpt lat="44.31221892498763" lon="11.42771170645842"><ele>509.2</ele><time>2026-04-04T14:54:00Z</time></trkpt><trkpt lat="44.312119398198796" lon="11.427690276024883"><ele>508.4</ele><time>2026-04-04T14:54:02Z</time></trkpt><trkpt lat="44.31202047978271" lon="11.427654905344543"><ele>507.6</ele><time>2026-04-04T14:54:04Z</time></trkpt><trkpt lat="44.311923715786264" lon="11.427629648483999"><ele>506.8</ele><time>2026-04-04T14:54:06Z</time></trkpt><trkpt lat="44.31181991755928" lon="11.427610903949573"><ele>506.0</ele><time>2026-04-04T14:54:08Z</time></trkpt><trkpt lat="44.3117194087214" lon="11.427556902981346"><ele>505.99999999999994</ele><time>2026-04-04T14:54:10Z</time></trkpt><trkpt lat="44.311643104973996" lon="11.427516565585814"><ele>506.0</ele><time>2026-04-04T14:54:12Z</time></trkpt><trkpt lat="44.31156977240757" lon="11.427478628102527"><ele>506.0</ele><time>2026-04-04T14:54:14Z</time></trkpt><trkpt lat="44.31150216344996" lon="11.427437970120993"><ele>506.0</ele><time>2026-04-04T14:54:16Z</time></trkpt><trkpt lat="44.311425637054384" lon="11.427393443967444"><ele>505.99999999999994</ele><time>2026-04-04T14:54:18Z</time></trkpt><trkpt lat="44.311353943029665" lon="11.427322986734456"><ele>506.0</ele><time>2026-04-04T14:54:20Z</time></trkpt><trkpt lat="44.31128786152996" lon="11.42727494868179"><ele>504.66666666666663</ele><time>2026-04-04T14:54:22Z</time></trkpt><trkpt lat="44.31120609031982" lon="11.427210213995902"><ele>503.3333333333333</ele><time>2026-04-04T14:54:24Z</time></trkpt><trkpt lat="44.31113856199316" lon="11.427134304603245"><ele>502.0</ele><time>2026-04-04T14:54:26Z</time></trkpt><trkpt lat="44.311084688291146" lon="11.427063874803132"><ele>500.66666666666663</ele><time>2026-04-04T14:54:28Z</time></trkpt><trkpt lat="44.31105551826294" lon="11.426965514275983"><ele>499.3333333333333</ele><time>2026-04-04T14:54:30.001Z</time></trkpt><trkpt lat="44.31103036396956" lon="11.42685714739505"><ele>498.0</ele><time>2026-04-04T14:54:32.001Z</time></trkpt><trkpt lat="44.31101644525299" lon="11.426733702714928"><ele>498.0</ele><time>2026-04-04T14:54:34.001Z</time></trkpt><trkpt lat="44.31100817453432" lon="11.426584317693068"><ele>498.0</ele><time>2026-04-04T14:54:36.001Z</time></trkpt><trkpt lat="44.31100915737182" lon="11.426488876287063"><ele>498.0</ele><time>2026-04-04T14:54:37.001Z</time></trkpt><trkpt lat="44.31102125964588" lon="11.426390238308091"><ele>498.0</ele><time>2026-04-04T14:54:38.001Z</time></trkpt><trkpt lat="44.3110087000866" lon="11.426299806411016"><ele>498.0</ele><time>2026-04-04T14:54:39.001Z</time></trkpt><trkpt lat="44.31100834237497" lon="11.426206392834688"><ele>498.0</ele><time>2026-04-04T14:54:40.001Z</time></trkpt><trkpt lat="44.31097685455755" lon="11.426060335397473"><ele>501.0</ele><time>2026-04-04T14:54:42.001Z</time></trkpt><trkpt lat="44.3109220183726" lon="11.4259158002553"><ele>503.99999999999994</ele><time>2026-04-04T14:54:44.001Z</time></trkpt><trkpt lat="44.31085870866215" lon="11.425812843825614"><ele>506.99999999999994</ele><time>2026-04-04T14:54:46.001Z</time></trkpt><trkpt lat="44.3107864558602" lon="11.425703955680142"><ele>510.0</ele><time>2026-04-04T14:54:48.001Z</time></trkpt><trkpt lat="44.31071806864734" lon="11.425603038661075"><ele>513.0</ele><time>2026-04-04T14:54:50Z</time></trkpt><trkpt lat="44.31066249249732" lon="11.425495800037785"><ele>513.3333333333334</ele><time>2026-04-04T14:54:52Z</time></trkpt><trkpt lat="44.310623795274324" lon="11.425407979178962"><ele>513.6666666666666</ele><time>2026-04-04T14:54:54Z</time></trkpt><trkpt lat="44.31057676956164" lon="11.425320852518707"><ele>514.0</ele><time>2026-04-04T14:54:57Z</time></trkpt><trkpt lat="44.31052976813367" lon="11.425242560469307"><ele>514.3333333333333</ele><time>2026-04-04T14:55:00Z</time></trkpt><trkpt lat="44.31047457091638" lon="11.425169369516908"><ele>514.6666666666666</ele><time>2026-04-04T14:55:02Z</time></trkpt><trkpt lat="44.31041163406854" lon="11.425084963082469"><ele>515.0</ele><time>2026-04-04T14:55:04Z</time></trkpt><trkpt lat="44.31036484269612" lon="11.42502189407633"><ele>515.0</ele><time>2026-04-04T14:55:05Z</time></trkpt><trkpt lat="44.31031679525028" lon="11.424956251322554"><ele>515.0</ele><time>2026-04-04T14:55:06Z</time></trkpt><trkpt lat="44.31025710675501" lon="11.42489632961947"><ele>515.0</ele><time>2026-04-04T14:55:07Z</time></trkpt><trkpt lat="44.310195951446694" lon="11.424823669821114"><ele>515.0</ele><time>2026-04-04T14:55:08Z</time></trkpt><trkpt lat="44.31012450718243" lon="11.42474682395974"><ele>515.0</ele><time>2026-04-04T14:55:09Z</time></trkpt><trkpt lat="44.310031631797365" lon="11.424652495506754"><ele>515.0</ele><time>2026-04-04T14:55:11Z</time></trkpt><trkpt lat="44.30992879843809" lon="11.424560465500255"><ele>515.3333333333333</ele><time>2026-04-04T14:55:13Z</time></trkpt><trkpt lat="44.30987144918576" lon="11.424516011672688"><ele>515.6666666666666</ele><time>2026-04-04T14:55:14Z</time></trkpt><trkpt lat="44.30979459754859" lon="11.424469857181563"><ele>516.0</ele><time>2026-04-04T14:55:16Z</time></trkpt><trkpt lat="44.30973882083868" lon="11.424417126721941"><ele>516.3333333333334</ele><time>2026-04-04T14:55:18Z</time></trkpt><trkpt lat="44.30963994177027" lon="11.424425915530401"><ele>516.6666666666667</ele><time>2026-04-04T14:55:20Z</time></trkpt><trkpt lat="44.30955262348315" lon="11.424526633200427"><ele>517.0</ele><time>2026-04-04T14:55:22Z</time></trkpt><trkpt lat="44.3095004722115" lon="11.424633462012604"><ele>514.8000000000001</ele><time>2026-04-04T14:55:24Z</time></trkpt><trkpt lat="44.30943958874237" lon="11.424743899318797"><ele>512.6</ele><time>2026-04-04T14:55:26Z</time></trkpt><trkpt lat="44.30938935388762" lon="11.424836336984038"><ele>510.40000000000003</ele><time>2026-04-04T14:55:28Z</time></trkpt><trkpt lat="44.30933500548452" lon="11.42493147603564"><ele>508.20000000000005</ele><time>2026-04-04T14:55:30Z</time></trkpt><trkpt lat="44.30928854403448" lon="11.425032679657662"><ele>506.0</ele><time>2026-04-04T14:55:32Z</time></trkpt><trkpt lat="44.30922372600829" lon="11.425144404983413"><ele>506.0</ele><time>2026-04-04T14:55:34Z</time></trkpt><trkpt lat="44.30916374799751" lon="11.425231680437877"><ele>506.0</ele><time>2026-04-04T14:55:36Z</time></trkpt><trkpt lat="44.30908149705255" lon="11.425352576451044"><ele>506.0</ele><time>2026-04-04T14:55:38Z</time></trkpt><trkpt lat="44.309008067757155" lon="11.425496367200306"><ele>506.0</ele><time>2026-04-04T14:55:40Z</time></trkpt><trkpt lat="44.308966524589835" lon="11.425577871879295"><ele>506.0</ele><time>2026-04-04T14:55:41Z</time></trkpt><trkpt lat="44.308925076736145" lon="11.425662156659548"><ele>503.49999999999994</ele><time>2026-04-04T14:55:42Z</time></trkpt><trkpt lat="44.3088809064741" lon="11.425739247831025"><ele>501.0</ele><time>2026-04-04T14:55:43Z</time></trkpt><trkpt lat="44.30884063414848" lon="11.425819221881314"><ele>498.5</ele><time>2026-04-04T14:55:44Z</time></trkpt><trkpt lat="44.30876626621068" lon="11.425949217429963"><ele>496.0</ele><time>2026-04-04T14:55:46Z</time></trkpt><trkpt lat="44.308716720559715" lon="11.426017583998284"><ele>493.49999999999994</ele><time>2026-04-04T14:55:47Z</time></trkpt><trkpt lat="44.30867102519111" lon="11.426094940401645"><ele>491.0</ele><time>2026-04-04T14:55:48Z</time></trkpt><trkpt lat="44.30862065537292" lon="11.426164555899632"><ele>490.99999999999994</ele><time>2026-04-04T14:55:49Z</time></trkpt><trkpt lat="44.308558629427544" lon="11.426214583479615"><ele>491.0</ele><time>2026-04-04T14:55:50Z</time></trkpt><trkpt lat="44.30850552839928" lon="11.426269819573639"><ele>491.0</ele><time>2026-04-04T14:55:51Z</time></trkpt><trkpt lat="44.308449993831374" lon="11.426324928212246"><ele>491.0</ele><time>2026-04-04T14:55:52Z</time></trkpt><trkpt lat="44.308362346426506" lon="11.426419632299439"><ele>490.99999999999994</ele><time>2026-04-04T14:55:54Z</time></trkpt><trkpt lat="44.30826732034979" lon="11.4265166531769"><ele>491.0</ele><time>2026-04-04T14:55:56Z</time></trkpt><trkpt lat="44.30820913413341" lon="11.426562963325251"><ele>491.20000000000005</ele><time>2026-04-04T14:55:57Z</time></trkpt><trkpt lat="44.30810991463859" lon="11.426659598406246"><ele>491.40000000000003</ele><time>2026-04-04T14:55:59Z</time></trkpt><trkpt lat="44.30801963853058" lon="11.426728393628167"><ele>491.6</ele><time>2026-04-04T14:56:01Z</time></trkpt><trkpt lat="44.307907068674666" lon="11.426823439278397"><ele>491.8</ele><time>2026-04-04T14:56:03Z</time></trkpt><trkpt lat="44.30784030347929" lon="11.42687455932648"><ele>492.0</ele><time>2026-04-04T14:56:04Z</time></trkpt><trkpt lat="44.30776899301875" lon="11.426924054737194"><ele>492.0</ele><time>2026-04-04T14:56:05Z</time></trkpt><trkpt lat="44.307694046708725" lon="11.426970131962067"><ele>492.0</ele><time>2026-04-04T14:56:06Z</time></trkpt><trkpt lat="44.30762324077912" lon="11.427008150089451"><ele>492.0</ele><time>2026-04-04T14:56:07Z</time></trkpt><trkpt lat="44.30752206874944" lon="11.427073847472093"><ele>492.0</ele><time>2026-04-04T14:56:09Z</time></trkpt><trkpt lat="44.307451822004936" lon="11.42708706214793"><ele>492.0</ele><time>2026-04-04T14:56:10Z</time></trkpt><trkpt lat="44.30738767009432" lon="11.427131599731439"><ele>492.0</ele><time>2026-04-04T14:56:11Z</time></trkpt><trkpt lat="44.30727106362318" lon="11.427110926267147"><ele>492.8</ele><time>2026-04-04T14:56:13Z</time></trkpt><trkpt lat="44.307208188174094" lon="11.42709736935634"><ele>493.6</ele><time>2026-04-04T14:56:14Z</time></trkpt><trkpt lat="44.307084841642634" lon="11.427068248934576"><ele>494.40000000000003</ele><time>2026-04-04T14:56:16Z</time></trkpt><trkpt lat="44.3069778075955" lon="11.427049045556194"><ele>495.20000000000005</ele><time>2026-04-04T14:56:18Z</time></trkpt><trkpt lat="44.306861374277545" lon="11.427073497519915"><ele>496.0</ele><time>2026-04-04T14:56:20Z</time></trkpt><trkpt lat="44.3067947042158" lon="11.42708284382926"><ele>496.0</ele><time>2026-04-04T14:56:21Z</time></trkpt><trkpt lat="44.30668755250108" lon="11.427085562776096"><ele>496.0</ele><time>2026-04-04T14:56:23Z</time></trkpt><trkpt lat="44.30662462268007" lon="11.42709863958959"><ele>496.0</ele><time>2026-04-04T14:56:24Z</time></trkpt><trkpt lat="44.30650851789677" lon="11.42712276615085"><ele>496.0</ele><time>2026-04-04T14:56:26Z</time></trkpt><trkpt lat="44.30640858460451" lon="11.42713650669852"><ele>496.0</ele><time>2026-04-04T14:56:28Z</time></trkpt><trkpt lat="44.30632876354899" lon="11.427136916433161"><ele>497.50000000000006</ele><time>2026-04-04T14:56:30Z</time></trkpt><trkpt lat="44.30623455198795" lon="11.427117617688644"><ele>499.0</ele><time>2026-04-04T14:56:32Z</time></trkpt><trkpt lat="44.30616771681723" lon="11.427083458507932"><ele>500.5</ele><time>2026-04-04T14:56:33Z</time></trkpt><trkpt lat="44.30610263764827" lon="11.427025714964993"><ele>502.0</ele><time>2026-04-04T14:56:34Z</time></trkpt><trkpt lat="44.30603371939988" lon="11.426953500056845"><ele>503.50000000000006</ele><time>2026-04-04T14:56:35Z</time></trkpt><trkpt lat="44.30594720969236" lon="11.426855168301158"><ele>505.0</ele><time>2026-04-04T14:56:36Z</time></trkpt><trkpt lat="44.305853966594505" lon="11.42678454956224"><ele>505.0</ele><time>2026-04-04T14:56:37Z</time></trkpt><trkpt lat="44.305797495989886" lon="11.426722796648106"><ele>505.0</ele><time>2026-04-04T14:56:38Z</time></trkpt><trkpt lat="44.305724859482915" lon="11.426700039928836"><ele>505.0</ele><time>2026-04-04T14:56:39Z</time></trkpt><trkpt lat="44.30561011459257" lon="11.426665228323667"><ele>505.0</ele><time>2026-04-04T14:56:41Z</time></trkpt><trkpt lat="44.305495916757735" lon="11.426637578402957"><ele>505.0</ele><time>2026-04-04T14:56:43Z</time></trkpt><trkpt lat="44.305379680786196" lon="11.426623582973873"><ele>506.50000000000006</ele><time>2026-04-04T14:56:45Z</time></trkpt><trkpt lat="44.305262902553565" lon="11.42660952227999"><ele>508.0</ele><time>2026-04-04T14:56:47Z</time></trkpt><trkpt lat="44.30519732524821" lon="11.42662182975695"><ele>509.5</ele><time>2026-04-04T14:56:48Z</time></trkpt><trkpt lat="44.30512972307902" lon="11.426609768898832"><ele>511.0</ele><time>2026-04-04T14:56:49.001Z</time></trkpt><trkpt lat="44.305066421528494" lon="11.426591868714233"><ele>512.5</ele><time>2026-04-04T14:56:50.001Z</time></trkpt><trkpt lat="44.30494200807929" lon="11.42656438468307"><ele>514.0</ele><time>2026-04-04T14:56:52.001Z</time></trkpt><trkpt lat="44.30487617735923" lon="11.426514121198865"><ele>514.0</ele><time>2026-04-04T14:56:53.001Z</time></trkpt><trkpt lat="44.30473574093338" lon="11.42642690230103"><ele>514.0</ele><time>2026-04-04T14:56:55.001Z</time></trkpt><trkpt lat="44.30468265254078" lon="11.426367966802998"><ele>514.0</ele><time>2026-04-04T14:56:56Z</time></trkpt><trkpt lat="44.30460864200278" lon="11.426264939973805"><ele>514.0</ele><time>2026-04-04T14:56:58Z</time></trkpt><trkpt lat="44.3045154860285" lon="11.426175223595463"><ele>514.0</ele><time>2026-04-04T14:57:00Z</time></trkpt><trkpt lat="44.304415201729384" lon="11.426110953820766"><ele>514.0</ele><time>2026-04-04T14:57:02Z</time></trkpt><trkpt lat="44.3042903377209" lon="11.42612691646732"><ele>514.0</ele><time>2026-04-04T14:57:04Z</time></trkpt><trkpt lat="44.304226504099226" lon="11.426142787703043"><ele>514.0</ele><time>2026-04-04T14:57:05Z</time></trkpt><trkpt lat="44.3041348242029" lon="11.426102676604252"><ele>514.0</ele><time>2026-04-04T14:57:07Z</time></trkpt><trkpt lat="44.30406794378117" lon="11.426078018374481"><ele>514.0</ele><time>2026-04-04T14:57:09Z</time></trkpt><trkpt lat="44.30398545074987" lon="11.426047433636144"><ele>514.0</ele><time>2026-04-04T14:57:12Z</time></trkpt><trkpt lat="44.30389290368383" lon="11.426021446039604"><ele>512.3333333333334</ele><time>2026-04-04T14:57:15Z</time></trkpt><trkpt lat="44.303820804215334" lon="11.42601087979658"><ele>510.6666666666667</ele><time>2026-04-04T14:57:17Z</time></trkpt><trkpt lat="44.3037468728349" lon="11.426014274717662"><ele>509.0</ele><time>2026-04-04T14:57:19Z</time></trkpt><trkpt lat="44.303667171013274" lon="11.426024088958297"><ele>507.33333333333337</ele><time>2026-04-04T14:57:21Z</time></trkpt><trkpt lat="44.30357511910857" lon="11.426036660738365"><ele>505.6666666666667</ele><time>2026-04-04T14:57:24Z</time></trkpt><trkpt lat="44.30350808778979" lon="11.426026739240822"><ele>504.0</ele><time>2026-04-04T14:57:26Z</time></trkpt><trkpt lat="44.30341503509561" lon="11.426037917426795"><ele>504.0</ele><time>2026-04-04T14:57:29Z</time></trkpt><trkpt lat="44.30332887289734" lon="11.426046141200539"><ele>504.0</ele><time>2026-04-04T14:57:32Z</time></trkpt><trkpt lat="44.303250544795645" lon="11.426032317944323"><ele>504.0</ele><time>2026-04-04T14:57:35Z</time></trkpt><trkpt lat="44.30319058570382" lon="11.425983653393725"><ele>504.0</ele><time>2026-04-04T14:57:38Z</time></trkpt><trkpt lat="44.30312293447402" lon="11.425923506179867"><ele>504.0</ele><time>2026-04-04T14:57:41Z</time></trkpt><trkpt lat="44.303053324485894" lon="11.425820059265874"><ele>504.0</ele><time>2026-04-04T14:57:44Z</time></trkpt><trkpt lat="44.302982158151835" lon="11.425748696786352"><ele>501.6666666666667</ele><time>2026-04-04T14:57:46Z</time></trkpt><trkpt lat="44.30290012084847" lon="11.425693820832393"><ele>499.33333333333337</ele><time>2026-04-04T14:57:48Z</time></trkpt><trkpt lat="44.302826179984834" lon="11.425634730064326"><ele>497.0</ele><time>2026-04-04T14:57:50Z</time></trkpt><trkpt lat="44.30276486074358" lon="11.425568539479348"><ele>494.6666666666667</ele><time>2026-04-04T14:57:52Z</time></trkpt><trkpt lat="44.30270405240297" lon="11.425502299216964"><ele>492.33333333333337</ele><time>2026-04-04T14:57:55Z</time></trkpt><trkpt lat="44.30261939856644" lon="11.425455190250913"><ele>490.0</ele><time>2026-04-04T14:57:58Z</time></trkpt><trkpt lat="44.30254853969913" lon="11.42541166514546"><ele>490.00000000000006</ele><time>2026-04-04T14:58:00Z</time></trkpt><trkpt lat="44.30247534000732" lon="11.425371769933612"><ele>490.0</ele><time>2026-04-04T14:58:02Z</time></trkpt><trkpt lat="44.30240173692717" lon="11.425342762148311"><ele>490.0</ele><time>2026-04-04T14:58:04Z</time></trkpt><trkpt lat="44.302324186838526" lon="11.425316502910652"><ele>490.0</ele><time>2026-04-04T14:58:06Z</time></trkpt><trkpt lat="44.30224506932872" lon="11.425289668048192"><ele>490.00000000000006</ele><time>2026-04-04T14:58:08Z</time></trkpt><trkpt lat="44.30215168687741" lon="11.425257994828492"><ele>490.0</ele><time>2026-04-04T14:58:10Z</time></trkpt><trkpt lat="44.302063283010575" lon="11.42522994275839"><ele>489.1666666666667</ele><time>2026-04-04T14:58:12Z</time></trkpt><trkpt lat="44.30196736096733" lon="11.425202739010418"><ele>488.33333333333337</ele><time>2026-04-04T14:58:14Z</time></trkpt><trkpt lat="44.30189977306397" lon="11.425186309732064"><ele>487.5</ele><time>2026-04-04T14:58:16Z</time></trkpt><trkpt lat="44.30181713985976" lon="11.425166223248876"><ele>486.66666666666663</ele><time>2026-04-04T14:58:18Z</time></trkpt><trkpt lat="44.301745289817255" lon="11.425160372818493"><ele>485.8333333333333</ele><time>2026-04-04T14:58:20Z</time></trkpt><trkpt lat="44.30166936426011" lon="11.425136806654939"><ele>485.0</ele><time>2026-04-04T14:58:22Z</time></trkpt><trkpt lat="44.30157544731067" lon="11.4251142792328"><ele>484.99999999999994</ele><time>2026-04-04T14:58:24Z</time></trkpt><trkpt lat="44.30148263097985" lon="11.425112009860607"><ele>485.0</ele><time>2026-04-04T14:58:26Z</time></trkpt><trkpt lat="44.30141136035925" lon="11.425129969098087"><ele>485.0</ele><time>2026-04-04T14:58:28Z</time></trkpt><trkpt lat="44.301339277411735" lon="11.425131611390743"><ele>485.0</ele><time>2026-04-04T14:58:30Z</time></trkpt><trkpt lat="44.30126675416809" lon="11.425168533887216"><ele>484.99999999999994</ele><time>2026-04-04T14:58:32Z</time></trkpt><trkpt lat="44.301196824760936" lon="11.42521143602629"><ele>485.0</ele><time>2026-04-04T14:58:34Z</time></trkpt><trkpt lat="44.30111897047565" lon="11.425242481362337"><ele>482.3333333333333</ele><time>2026-04-04T14:58:37Z</time></trkpt><trkpt lat="44.301023245309175" lon="11.425262851206789"><ele>479.66666666666663</ele><time>2026-04-04T14:58:40Z</time></trkpt><trkpt lat="44.30096056746157" lon="11.42524353963021"><ele>477.0</ele><time>2026-04-04T14:58:42Z</time></trkpt><trkpt lat="44.30089100156437" lon="11.425235727193353"><ele>474.33333333333337</ele><time>2026-04-04T14:58:44Z</time></trkpt><trkpt lat="44.30079961783073" lon="11.425219849801286"><ele>471.6666666666667</ele><time>2026-04-04T14:58:46Z</time></trkpt><trkpt lat="44.300702381178375" lon="11.425209095063087"><ele>469.0</ele><time>2026-04-04T14:58:48Z</time></trkpt><trkpt lat="44.30060201778498" lon="11.425186881853977"><ele>466.83333333333337</ele><time>2026-04-04T14:58:50Z</time></trkpt><trkpt lat="44.300516433615826" lon="11.425162417236185"><ele>464.6666666666667</ele><time>2026-04-04T14:58:52.001Z</time></trkpt><trkpt lat="44.300432899308674" lon="11.425120523871795"><ele>462.5</ele><time>2026-04-04T14:58:54.001Z</time></trkpt><trkpt lat="44.300348038463575" lon="11.425088593710042"><ele>460.33333333333337</ele><time>2026-04-04T14:58:56.001Z</time></trkpt><trkpt lat="44.30027396711892" lon="11.425053260719194"><ele>458.1666666666667</ele><time>2026-04-04T14:58:58.001Z</time></trkpt><trkpt lat="44.30020232020819" lon="11.42501615883262"><ele>456.0</ele><time>2026-04-04T14:59:00.001Z</time></trkpt><trkpt lat="44.300109907303835" lon="11.424995764055199"><ele>456.0</ele><time>2026-04-04T14:59:02Z</time></trkpt><trkpt lat="44.30003086486884" lon="11.42495125796102"><ele>456.0</ele><time>2026-04-04T14:59:04Z</time></trkpt><trkpt lat="44.29995695598056" lon="11.424927645019544"><ele>456.0</ele><time>2026-04-04T14:59:06Z</time></trkpt><trkpt lat="44.29986909067022" lon="11.424892636305543"><ele>456.0</ele><time>2026-04-04T14:59:08Z</time></trkpt><trkpt lat="44.299779886164465" lon="11.424864212529618"><ele>456.0</ele><time>2026-04-04T14:59:10Z</time></trkpt><trkpt lat="44.29969273086678" lon="11.424838506204521"><ele>456.0</ele><time>2026-04-04T14:59:12Z</time></trkpt><trkpt lat="44.29960029972373" lon="11.424814086302861"><ele>457.6</ele><time>2026-04-04T14:59:14Z</time></trkpt><trkpt lat="44.29950969364828" lon="11.424793480556929"><ele>459.20000000000005</ele><time>2026-04-04T14:59:16Z</time></trkpt><trkpt lat="44.29940708934193" lon="11.424780229933893"><ele>460.79999999999995</ele><time>2026-04-04T14:59:18Z</time></trkpt><trkpt lat="44.299309950227276" lon="11.424770593444165"><ele>462.4</ele><time>2026-04-04T14:59:20Z</time></trkpt><trkpt lat="44.29922023146586" lon="11.424764050809628"><ele>464.0</ele><time>2026-04-04T14:59:22Z</time></trkpt><trkpt lat="44.29912762052672" lon="11.424775624920246"><ele>464.0</ele><time>2026-04-04T14:59:24Z</time></trkpt><trkpt lat="44.29902671632306" lon="11.42478785983253"><ele>464.0</ele><time>2026-04-04T14:59:26Z</time></trkpt><trkpt lat="44.29892845368813" lon="11.42476219174896"><ele>464.0</ele><time>2026-04-04T14:59:28Z</time></trkpt><trkpt lat="44.298805736098466" lon="11.42475988336003"><ele>464.0</ele><time>2026-04-04T14:59:30Z</time></trkpt><trkpt lat="44.2987031787591" lon="11.424731224786552"><ele>464.0</ele><time>2026-04-04T14:59:32Z</time></trkpt><trkpt lat="44.29858123144354" lon="11.424725445711974"><ele>464.0</ele><time>2026-04-04T14:59:34Z</time></trkpt><trkpt lat="44.29848088360009" lon="11.424704327557453"><ele>464.0</ele><time>2026-04-04T14:59:36Z</time></trkpt><trkpt lat="44.298417778408826" lon="11.424704008070286"><ele>464.0</ele><time>2026-04-04T14:59:37Z</time></trkpt><trkpt lat="44.29831137748595" lon="11.424691917260123"><ele>464.0</ele><time>2026-04-04T14:59:39Z</time></trkpt><trkpt lat="44.29819916681749" lon="11.424677722396499"><ele>464.0</ele><time>2026-04-04T14:59:41Z</time></trkpt><trkpt lat="44.298092286205474" lon="11.42466664112229"><ele>466.0</ele><time>2026-04-04T14:59:43Z</time></trkpt><trkpt lat="44.29799748266324" lon="11.424675537722973"><ele>468.0</ele><time>2026-04-04T14:59:45Z</time></trkpt><trkpt lat="44.29789841062076" lon="11.424725042343276"><ele>470.0</ele><time>2026-04-04T14:59:47Z</time></trkpt><trkpt lat="44.29780787172405" lon="11.42479499039678"><ele>472.0</ele><time>2026-04-04T14:59:49Z</time></trkpt><trkpt lat="44.2977194815028" lon="11.424873083608217"><ele>474.0</ele><time>2026-04-04T14:59:51Z</time></trkpt><trkpt lat="44.29765140242506" lon="11.424937485219484"><ele>474.0</ele><time>2026-04-04T14:59:53Z</time></trkpt><trkpt lat="44.29757097174323" lon="11.424981322677292"><ele>474.0</ele><time>2026-04-04T14:59:55Z</time></trkpt><trkpt lat="44.29746719786084" lon="11.424997925516365"><ele>474.0</ele><time>2026-04-04T14:59:57Z</time></trkpt><trkpt lat="44.29737172792052" lon="11.42495260015992"><ele>474.0</ele><time>2026-04-04T14:59:59Z</time></trkpt><trkpt lat="44.29727160241013" lon="11.424931818523177"><ele>474.0</ele><time>2026-04-04T15:00:01Z</time></trkpt><trkpt lat="44.29719511169142" lon="11.424944306088893"><ele>473.0</ele><time>2026-04-04T15:00:03Z</time></trkpt><trkpt lat="44.29711463763394" lon="11.425006952972119"><ele>472.0</ele><time>2026-04-04T15:00:05Z</time></trkpt><trkpt lat="44.2971062712258" lon="11.425171367253279"><ele>471.0</ele><time>2026-04-04T15:00:07Z</time></trkpt><trkpt lat="44.29708540388424" lon="11.425321230633628"><ele>470.0</ele><time>2026-04-04T15:00:09Z</time></trkpt><trkpt lat="44.29706118687008" lon="11.425448544884192"><ele>469.0</ele><time>2026-04-04T15:00:11Z</time></trkpt><trkpt lat="44.29700880128864" lon="11.425547320416355"><ele>471.2</ele><time>2026-04-04T15:00:13Z</time></trkpt><trkpt lat="44.296940681820914" lon="11.425627510371317"><ele>473.4</ele><time>2026-04-04T15:00:15Z</time></trkpt><trkpt lat="44.296862368534114" lon="11.42570282638085"><ele>475.6</ele><time>2026-04-04T15:00:17Z</time></trkpt><trkpt lat="44.296774461323785" lon="11.42576063468399"><ele>477.8</ele><time>2026-04-04T15:00:19Z</time></trkpt><trkpt lat="44.29670104730336" lon="11.42581890435874"><ele>480.0</ele><time>2026-04-04T15:00:21Z</time></trkpt><trkpt lat="44.29660307250393" lon="11.425835502446223"><ele>480.0</ele><time>2026-04-04T15:00:23Z</time></trkpt><trkpt lat="44.296483802496105" lon="11.42587805546136"><ele>480.0</ele><time>2026-04-04T15:00:25Z</time></trkpt><trkpt lat="44.29638057970798" lon="11.425910271584653"><ele>480.0</ele><time>2026-04-04T15:00:27Z</time></trkpt><trkpt lat="44.29629329570631" lon="11.425949769512217"><ele>480.0</ele><time>2026-04-04T15:00:29Z</time></trkpt><trkpt lat="44.29619120075673" lon="11.425962023378636"><ele>480.0</ele><time>2026-04-04T15:00:31Z</time></trkpt><trkpt lat="44.296106783584605" lon="11.425966450581194"><ele>480.8333333333333</ele><time>2026-04-04T15:00:33Z</time></trkpt><trkpt lat="44.2960324299423" lon="11.425966896835943"><ele>481.66666666666663</ele><time>2026-04-04T15:00:35Z</time></trkpt><trkpt lat="44.29596685615162" lon="11.425963181969863"><ele>482.5</ele><time>2026-04-04T15:02:04Z</time></trkpt><trkpt lat="44.2958671287848" lon="11.425981963680812"><ele>483.3333333333333</ele><time>2026-04-04T15:02:06Z</time></trkpt><trkpt lat="44.29577261853037" lon="11.426004880934222"><ele>484.16666666666663</ele><time>2026-04-04T15:02:08Z</time></trkpt><trkpt lat="44.29568086119017" lon="11.426033094105305"><ele>485.0</ele><time>2026-04-04T15:02:10Z</time></trkpt><trkpt lat="44.29559869115892" lon="11.426062844428456"><ele>486.6</ele><time>2026-04-04T15:02:12Z</time></trkpt><trkpt lat="44.29549510130732" lon="11.426102040023169"><ele>488.2</ele><time>2026-04-04T15:02:14Z</time></trkpt><trkpt lat="44.295397011353266" lon="11.426138573766293"><ele>489.79999999999995</ele><time>2026-04-04T15:02:16Z</time></trkpt><trkpt lat="44.29531216425733" lon="11.426175014724432"><ele>491.4</ele><time>2026-04-04T15:02:18Z</time></trkpt><trkpt lat="44.29521530935218" lon="11.42617026684273"><ele>493.0</ele><time>2026-04-04T15:02:20Z</time></trkpt><trkpt lat="44.295116312753386" lon="11.426160170787435"><ele>493.0</ele><time>2026-04-04T15:02:22Z</time></trkpt><trkpt lat="44.29501607747418" lon="11.426150451262963"><ele>492.99999999999994</ele><time>2026-04-04T15:02:24Z</time></trkpt><trkpt lat="44.29491878464624" lon="11.426185322948951"><ele>492.99999999999994</ele><time>2026-04-04T15:02:26Z</time></trkpt><trkpt lat="44.29480677157951" lon="11.426222576071241"><ele>493.0</ele><time>2026-04-04T15:02:28Z</time></trkpt><trkpt lat="44.29471233966248" lon="11.426248505101412"><ele>493.0</ele><time>2026-04-04T15:02:30Z</time></trkpt><trkpt lat="44.29461551190367" lon="11.426238934641162"><ele>494.1666666666667</ele><time>2026-04-04T15:02:32Z</time></trkpt><trkpt lat="44.29454826479439" lon="11.426243283902462"><ele>495.33333333333337</ele><time>2026-04-04T15:02:34Z</time></trkpt><trkpt lat="44.2944697894313" lon="11.426308421156877"><ele>496.5</ele><time>2026-04-04T15:02:36Z</time></trkpt><trkpt lat="44.294450195200184" lon="11.426407018668707"><ele>497.66666666666663</ele><time>2026-04-04T15:02:37Z</time></trkpt><trkpt lat="44.29439155147961" lon="11.426549153421242"><ele>498.8333333333333</ele><time>2026-04-04T15:02:39Z</time></trkpt><trkpt lat="44.294365408649355" lon="11.426629221967838"><ele>500.0</ele><time>2026-04-04T15:02:40Z</time></trkpt><trkpt lat="44.29432260262076" lon="11.426768976675426"><ele>499.99999999999994</ele><time>2026-04-04T15:02:42Z</time></trkpt><trkpt lat="44.294294829400826" lon="11.426867330970655"><ele>500.0</ele><time>2026-04-04T15:02:44Z</time></trkpt><trkpt lat="44.29426703863208" lon="11.426980755669598"><ele>500.0</ele><time>2026-04-04T15:02:46Z</time></trkpt><trkpt lat="44.29425261502645" lon="11.427104538854167"><ele>500.0</ele><time>2026-04-04T15:02:48Z</time></trkpt><trkpt lat="44.29421020901008" lon="11.427225615074251"><ele>499.99999999999994</ele><time>2026-04-04T15:02:50Z</time></trkpt><trkpt lat="44.29418403268489" lon="11.427330887541622"><ele>500.0</ele><time>2026-04-04T15:02:52Z</time></trkpt><trkpt lat="44.2941351338612" lon="11.427428906218417"><ele>499.66666666666663</ele><time>2026-04-04T15:02:54.001Z</time></trkpt><trkpt lat="44.294067212029475" lon="11.42747828828545"><ele>499.3333333333333</ele><time>2026-04-04T15:02:56.001Z</time></trkpt><trkpt lat="44.29398762009784" lon="11.42755731916389"><ele>499.0</ele><time>2026-04-04T15:02:58.001Z</time></trkpt><trkpt lat="44.29391488307339" lon="11.427628117559152"><ele>498.66666666666663</ele><time>2026-04-04T15:03:00.001Z</time></trkpt><trkpt lat="44.293831566421396" lon="11.427670310987342"><ele>498.3333333333333</ele><time>2026-04-04T15:03:02.001Z</time></trkpt><trkpt lat="44.29377051291115" lon="11.427728232429732"><ele>498.0</ele><time>2026-04-04T15:03:04.001Z</time></trkpt><trkpt lat="44.29368536667934" lon="11.42778330930426"><ele>497.2</ele><time>2026-04-04T15:03:06.001Z</time></trkpt><trkpt lat="44.29360338086083" lon="11.42783426365716"><ele>496.4</ele><time>2026-04-04T15:03:08.001Z</time></trkpt><trkpt lat="44.29351522573756" lon="11.427884807680833"><ele>495.59999999999997</ele><time>2026-04-04T15:03:10.001Z</time></trkpt><trkpt lat="44.29345463375551" lon="11.427933627808448"><ele>494.79999999999995</ele><time>2026-04-04T15:03:11.001Z</time></trkpt><trkpt lat="44.293349414997145" lon="11.42800578117124"><ele>494.0</ele><time>2026-04-04T15:03:13.001Z</time></trkpt><trkpt lat="44.293238823489915" lon="11.42805535219463"><ele>493.99999999999994</ele><time>2026-04-04T15:03:15Z</time></trkpt><trkpt lat="44.29316268852384" lon="11.428115183631713"><ele>494.0</ele><time>2026-04-04T15:03:17Z</time></trkpt><trkpt lat="44.29308243580019" lon="11.428140490993195"><ele>494.0</ele><time>2026-04-04T15:03:19Z</time></trkpt><trkpt lat="44.29301341924698" lon="11.428163202498027"><ele>494.0</ele><time>2026-04-04T15:03:21Z</time></trkpt><trkpt lat="44.29294980858062" lon="11.428168486760013"><ele>493.99999999999994</ele><time>2026-04-04T15:03:23Z</time></trkpt><trkpt lat="44.29287066247052" lon="11.428160718504113"><ele>494.0</ele><time>2026-04-04T15:03:25Z</time></trkpt><trkpt lat="44.29280562851316" lon="11.42814177560709"><ele>494.99999999999994</ele><time>2026-04-04T15:03:27Z</time></trkpt><trkpt lat="44.29272192588844" lon="11.42811187842444"><ele>496.0</ele><time>2026-04-04T15:03:29Z</time></trkpt><trkpt lat="44.292627652582446" lon="11.428070549550142"><ele>497.0</ele><time>2026-04-04T15:03:31Z</time></trkpt><trkpt lat="44.29255978374135" lon="11.428072596259709"><ele>498.0</ele><time>2026-04-04T15:03:33Z</time></trkpt><trkpt lat="44.29248921198063" lon="11.428041561227499"><ele>498.99999999999994</ele><time>2026-04-04T15:03:35Z</time></trkpt><trkpt lat="44.29241474596135" lon="11.428015102979893"><ele>500.0</ele><time>2026-04-04T15:03:37Z</time></trkpt><trkpt lat="44.29233081140444" lon="11.427957029209045"><ele>498.16666666666663</ele><time>2026-04-04T15:03:39Z</time></trkpt><trkpt lat="44.292250737633516" lon="11.427890885634133"><ele>496.3333333333333</ele><time>2026-04-04T15:03:41Z</time></trkpt><trkpt lat="44.29218909827134" lon="11.427805313938126"><ele>494.5</ele><time>2026-04-04T15:03:43Z</time></trkpt><trkpt lat="44.29213978306865" lon="11.427702573949027"><ele>492.66666666666663</ele><time>2026-04-04T15:03:45Z</time></trkpt><trkpt lat="44.292089942557844" lon="11.427598290004703"><ele>490.8333333333333</ele><time>2026-04-04T15:03:47Z</time></trkpt><trkpt lat="44.29202917281773" lon="11.42750341279135"><ele>489.0</ele><time>2026-04-04T15:03:49Z</time></trkpt><trkpt lat="44.29196163149881" lon="11.427426788899659"><ele>489.0</ele><time>2026-04-04T15:03:51Z</time></trkpt><trkpt lat="44.29187447781945" lon="11.42735231356093"><ele>489.0</ele><time>2026-04-04T15:03:53Z</time></trkpt><trkpt lat="44.29177502080792" lon="11.427296714332273"><ele>489.0</ele><time>2026-04-04T15:03:55Z</time></trkpt><trkpt lat="44.29169703254458" lon="11.427262939874472"><ele>489.0</ele><time>2026-04-04T15:03:57Z</time></trkpt><trkpt lat="44.29159978853691" lon="11.427235748475221"><ele>489.0</ele><time>2026-04-04T15:03:59Z</time></trkpt><trkpt lat="44.29149802610888" lon="11.427245158763416"><ele>489.6</ele><time>2026-04-04T15:04:01Z</time></trkpt><trkpt lat="44.291395586729" lon="11.427284335714916"><ele>490.2</ele><time>2026-04-04T15:04:03Z</time></trkpt><trkpt lat="44.29129578405368" lon="11.427353487944348"><ele>490.80000000000007</ele><time>2026-04-04T15:04:05Z</time></trkpt><trkpt lat="44.29121130877611" lon="11.427456372932633"><ele>491.40000000000003</ele><time>2026-04-04T15:04:07Z</time></trkpt><trkpt lat="44.291147579882406" lon="11.42755356327704"><ele>492.0</ele><time>2026-04-04T15:04:09Z</time></trkpt><trkpt lat="44.29106938349519" lon="11.427641071271777"><ele>492.0</ele><time>2026-04-04T15:04:11Z</time></trkpt><trkpt lat="44.29098648912686" lon="11.427735197945385"><ele>492.00000000000006</ele><time>2026-04-04T15:04:13Z</time></trkpt><trkpt lat="44.290909202857826" lon="11.427765479806967"><ele>492.00000000000006</ele><time>2026-04-04T15:04:15Z</time></trkpt><trkpt lat="44.29081708139855" lon="11.427750948743117"><ele>492.0</ele><time>2026-04-04T15:04:17Z</time></trkpt><trkpt lat="44.2907187451275" lon="11.427680521402891"><ele>492.0</ele><time>2026-04-04T15:04:19Z</time></trkpt><trkpt lat="44.29066524010392" lon="11.427627195405487"><ele>493.6</ele><time>2026-04-04T15:04:20Z</time></trkpt><trkpt lat="44.29055744139502" lon="11.427561036597593"><ele>495.20000000000005</ele><time>2026-04-04T15:04:22Z</time></trkpt><trkpt lat="44.29042367693215" lon="11.42755559318691"><ele>496.8</ele><time>2026-04-04T15:04:24Z</time></trkpt><trkpt lat="44.29034202768675" lon="11.427586563127324"><ele>498.4</ele><time>2026-04-04T15:04:25Z</time></trkpt><trkpt lat="44.29028281326118" lon="11.427629250593153"><ele>500.0</ele><time>2026-04-04T15:04:26Z</time></trkpt><trkpt lat="44.290226560482196" lon="11.427669290421226"><ele>499.99999999999994</ele><time>2026-04-04T15:04:27Z</time></trkpt><trkpt lat="44.29019820851967" lon="11.427759641685316"><ele>500.0</ele><time>2026-04-04T15:04:28Z</time></trkpt><trkpt lat="44.290121058792295" lon="11.427846126127246"><ele>500.0</ele><time>2026-04-04T15:04:30Z</time></trkpt><trkpt lat="44.2900491019916" lon="11.427947715205093"><ele>500.0</ele><time>2026-04-04T15:04:32Z</time></trkpt><trkpt lat="44.28999693413727" lon="11.428016845874412"><ele>499.99999999999994</ele><time>2026-04-04T15:04:34Z</time></trkpt><trkpt lat="44.28991541378144" lon="11.42800201011179"><ele>500.0</ele><time>2026-04-04T15:04:36Z</time></trkpt><trkpt lat="44.28983476152826" lon="11.42802447006474"><ele>498.8</ele><time>2026-04-04T15:04:38Z</time></trkpt><trkpt lat="44.289746520700426" lon="11.428027260397876"><ele>497.6</ele><time>2026-04-04T15:04:40Z</time></trkpt><trkpt lat="44.2896571987564" lon="11.42806579927956"><ele>496.4</ele><time>2026-04-04T15:04:42Z</time></trkpt><trkpt lat="44.289552195368046" lon="11.428111015145102"><ele>495.2</ele><time>2026-04-04T15:04:44Z</time></trkpt><trkpt lat="44.28946203529805" lon="11.428138827792512"><ele>494.0</ele><time>2026-04-04T15:04:46.001Z</time></trkpt><trkpt lat="44.289375320290425" lon="11.42814366919176"><ele>494.0</ele><time>2026-04-04T15:04:48.001Z</time></trkpt><trkpt lat="44.28929608788016" lon="11.428091763751016"><ele>494.0</ele><time>2026-04-04T15:04:50.001Z</time></trkpt><trkpt lat="44.289209983590375" lon="11.428030999813858"><ele>494.0</ele><time>2026-04-04T15:04:52.001Z</time></trkpt><trkpt lat="44.289109491957795" lon="11.42797638060452"><ele>494.0</ele><time>2026-04-04T15:04:54.001Z</time></trkpt><trkpt lat="44.28901308236188" lon="11.42796016677912"><ele>494.0</ele><time>2026-04-04T15:04:56.001Z</time></trkpt><trkpt lat="44.28891510872754" lon="11.427943946134562"><ele>493.8333333333333</ele><time>2026-04-04T15:04:58.001Z</time></trkpt><trkpt lat="44.28883712329096" lon="11.427887271635182"><ele>493.66666666666663</ele><time>2026-04-04T15:05:01.001Z</time></trkpt><trkpt lat="44.28879951438935" lon="11.427802244475737"><ele>493.5</ele><time>2026-04-04T15:05:03.001Z</time></trkpt><trkpt lat="44.28878274082666" lon="11.42770006615254"><ele>493.33333333333337</ele><time>2026-04-04T15:05:05.001Z</time></trkpt><trkpt lat="44.28877152863807" lon="11.427595908435851"><ele>493.1666666666667</ele><time>2026-04-04T15:05:07.001Z</time></trkpt><trkpt lat="44.288750572285544" lon="11.427473711100271"><ele>493.0</ele><time>2026-04-04T15:05:10.001Z</time></trkpt><trkpt lat="44.28872596766583" lon="11.427378710094343"><ele>493.00000000000006</ele><time>2026-04-04T15:05:12.001Z</time></trkpt><trkpt lat="44.28868805283082" lon="11.42727952706253"><ele>493.0</ele><time>2026-04-04T15:05:14.001Z</time></trkpt><trkpt lat="44.28863856543146" lon="11.427195792362065"><ele>493.0</ele><time>2026-04-04T15:05:16.001Z</time></trkpt><trkpt lat="44.28858088123535" lon="11.427096936886766"><ele>493.0</ele><time>2026-04-04T15:05:18.001Z</time></trkpt><trkpt lat="44.28852262653984" lon="11.427040907204079"><ele>493.00000000000006</ele><time>2026-04-04T15:05:20Z</time></trkpt><trkpt lat="44.28845449818841" lon="11.426984423280004"><ele>493.0</ele><time>2026-04-04T15:05:22Z</time></trkpt><trkpt lat="44.28839741539803" lon="11.426893311475277"><ele>495.2</ele><time>2026-04-04T15:05:24Z</time></trkpt><trkpt lat="44.28833153305878" lon="11.426821419933184"><ele>497.4</ele><time>2026-04-04T15:05:26Z</time></trkpt><trkpt lat="44.28824498915719" lon="11.426744608788775"><ele>499.59999999999997</ele><time>2026-04-04T15:05:28Z</time></trkpt><trkpt lat="44.2881613817088" lon="11.42672630908496"><ele>501.79999999999995</ele><time>2026-04-04T15:05:30Z</time></trkpt><trkpt lat="44.28807333428487" lon="11.426691781972623"><ele>504.0</ele><time>2026-04-04T15:05:32Z</time></trkpt><trkpt lat="44.28795842732642" lon="11.42667038332191"><ele>504.2</ele><time>2026-04-04T15:05:34Z</time></trkpt><trkpt lat="44.28788191777128" lon="11.426654254288174"><ele>504.4</ele><time>2026-04-04T15:05:35Z</time></trkpt><trkpt lat="44.28780918152268" lon="11.426657176676459"><ele>504.6</ele><time>2026-04-04T15:05:36Z</time></trkpt><trkpt lat="44.28770228836076" lon="11.426628523946427"><ele>504.8</ele><time>2026-04-04T15:05:38Z</time></trkpt><trkpt lat="44.28759800810688" lon="11.426641879013179"><ele>505.0</ele><time>2026-04-04T15:05:40Z</time></trkpt><trkpt lat="44.287509860216275" lon="11.426680047900962"><ele>505.0</ele><time>2026-04-04T15:05:42Z</time></trkpt><trkpt lat="44.28742952931561" lon="11.42672824943688"><ele>505.0</ele><time>2026-04-04T15:05:44Z</time></trkpt><trkpt lat="44.28736762776086" lon="11.42675941369643"><ele>505.0</ele><time>2026-04-04T15:05:45Z</time></trkpt><trkpt lat="44.28727652544352" lon="11.426787204200407"><ele>505.0</ele><time>2026-04-04T15:05:47Z</time></trkpt><trkpt lat="44.287169587782614" lon="11.426778574021192"><ele>505.0</ele><time>2026-04-04T15:05:49Z</time></trkpt><trkpt lat="44.287063053503346" lon="11.426740849717808"><ele>503.6</ele><time>2026-04-04T15:05:51Z</time></trkpt><trkpt lat="44.28695043775925" lon="11.426658061983343"><ele>502.2</ele><time>2026-04-04T15:05:53Z</time></trkpt><trkpt lat="44.28686009398745" lon="11.426557727472208"><ele>500.79999999999995</ele><time>2026-04-04T15:05:55Z</time></trkpt><trkpt lat="44.286802092201434" lon="11.426465974001685"><ele>499.4</ele><time>2026-04-04T15:05:57Z</time></trkpt><trkpt lat="44.286726657826726" lon="11.426349452774764"><ele>498.0</ele><time>2026-04-04T15:05:59Z</time></trkpt><trkpt lat="44.28667974238137" lon="11.42629041137203"><ele>500.3333333333333</ele><time>2026-04-04T15:06:00Z</time></trkpt><trkpt lat="44.286627822519314" lon="11.42623708273783"><ele>502.66666666666663</ele><time>2026-04-04T15:06:01Z</time></trkpt><trkpt lat="44.286568482497216" lon="11.42619508434334"><ele>505.0</ele><time>2026-04-04T15:06:02Z</time></trkpt><trkpt lat="44.28651272818781" lon="11.426137016108871"><ele>507.3333333333333</ele><time>2026-04-04T15:06:03Z</time></trkpt><trkpt lat="44.28641736987463" lon="11.42609121905781"><ele>509.66666666666663</ele><time>2026-04-04T15:06:05Z</time></trkpt><trkpt lat="44.28634553316299" lon="11.426105178907372"><ele>512.0</ele><time>2026-04-04T15:06:07Z</time></trkpt><trkpt lat="44.28624449570222" lon="11.426097941312882"><ele>512.0</ele><time>2026-04-04T15:06:09Z</time></trkpt><trkpt lat="44.286159628121865" lon="11.426106365283854"><ele>512.0</ele><time>2026-04-04T15:06:11Z</time></trkpt><trkpt lat="44.286061811706865" lon="11.426105587879531"><ele>512.0</ele><time>2026-04-04T15:06:13Z</time></trkpt><trkpt lat="44.28596969858794" lon="11.426082994523496"><ele>512.0</ele><time>2026-04-04T15:06:15Z</time></trkpt><trkpt lat="44.28587641612871" lon="11.42607204804571"><ele>512.0</ele><time>2026-04-04T15:06:17Z</time></trkpt><trkpt lat="44.285797053098236" lon="11.426039519089517"><ele>511.99999999999994</ele><time>2026-04-04T15:06:19Z</time></trkpt><trkpt lat="44.28571533970017" lon="11.426005787587"><ele>512.0</ele><time>2026-04-04T15:06:21Z</time></trkpt><trkpt lat="44.28564790863331" lon="11.425977316736008"><ele>512.0</ele><time>2026-04-04T15:06:23Z</time></trkpt><trkpt lat="44.28555358491838" lon="11.425934117894107"><ele>512.0</ele><time>2026-04-04T15:06:25Z</time></trkpt><trkpt lat="44.28549182820176" lon="11.425895014970152"><ele>511.99999999999994</ele><time>2026-04-04T15:06:26Z</time></trkpt><trkpt lat="44.28538563071103" lon="11.425857814007939"><ele>512.0</ele><time>2026-04-04T15:06:28Z</time></trkpt><trkpt lat="44.28529394595709" lon="11.4258618204509"><ele>512.1666666666666</ele><time>2026-04-04T15:06:30Z</time></trkpt><trkpt lat="44.2852025194965" lon="11.425921875777432"><ele>512.3333333333333</ele><time>2026-04-04T15:06:32Z</time></trkpt><trkpt lat="44.28515523530126" lon="11.425992947955676"><ele>512.5</ele><time>2026-04-04T15:06:33Z</time></trkpt><trkpt lat="44.28509154181901" lon="11.426073317675943"><ele>512.6666666666666</ele><time>2026-04-04T15:06:34Z</time></trkpt><trkpt lat="44.28502835902954" lon="11.426168740660735"><ele>512.8333333333334</ele><time>2026-04-04T15:06:36Z</time></trkpt><trkpt lat="44.28494454139514" lon="11.426229077944836"><ele>513.0</ele><time>2026-04-04T15:06:38Z</time></trkpt><trkpt lat="44.28485089788091" lon="11.426248783687612"><ele>513.0</ele><time>2026-04-04T15:06:40Z</time></trkpt><trkpt lat="44.28477698943491" lon="11.426242262710483"><ele>513.0</ele><time>2026-04-04T15:06:42Z</time></trkpt><trkpt lat="44.28470250178189" lon="11.426204409445708"><ele>513.0</ele><time>2026-04-04T15:06:44Z</time></trkpt><trkpt lat="44.28464383613807" lon="11.426161454533451"><ele>513.0</ele><time>2026-04-04T15:06:46Z</time></trkpt><trkpt lat="44.28458205357927" lon="11.426102423718845"><ele>513.0</ele><time>2026-04-04T15:06:48Z</time></trkpt><trkpt lat="44.28455951255875" lon="11.425990999071093"><ele>513.0</ele><time>2026-04-04T15:06:50Z</time></trkpt><trkpt lat="44.284569564871354" lon="11.425870470420925"><ele>515.1999999999999</ele><time>2026-04-04T15:06:52Z</time></trkpt><trkpt lat="44.284635117269566" lon="11.425795864260351"><ele>517.4</ele><time>2026-04-04T15:06:54Z</time></trkpt><trkpt lat="44.284682742335214" lon="11.425692125430823"><ele>519.5999999999999</ele><time>2026-04-04T15:06:56Z</time></trkpt><trkpt lat="44.284722236735014" lon="11.425574300767943"><ele>521.8</ele><time>2026-04-04T15:06:58Z</time></trkpt><trkpt lat="44.2847666010446" lon="11.425449864070655"><ele>524.0</ele><time>2026-04-04T15:07:00Z</time></trkpt><trkpt lat="44.284818409288924" lon="11.425332473920989"><ele>524.2</ele><time>2026-04-04T15:07:02.001Z</time></trkpt><trkpt lat="44.28488863872849" lon="11.425232294818432"><ele>524.4</ele><time>2026-04-04T15:07:04.001Z</time></trkpt><trkpt lat="44.28496364525582" lon="11.425123098000343"><ele>524.6</ele><time>2026-04-04T15:07:06.001Z</time></trkpt><trkpt lat="44.28505679894369" lon="11.425049269712977"><ele>524.8</ele><time>2026-04-04T15:07:08.001Z</time></trkpt><trkpt lat="44.28515462509027" lon="11.42500606851235"><ele>525.0</ele><time>2026-04-04T15:07:10.001Z</time></trkpt><trkpt lat="44.2852645812375" lon="11.42494650390377"><ele>525.0</ele><time>2026-04-04T15:07:12.001Z</time></trkpt><trkpt lat="44.28536766854172" lon="11.424895393535763"><ele>525.0</ele><time>2026-04-04T15:07:14.001Z</time></trkpt><trkpt lat="44.285461321157584" lon="11.424863641017755"><ele>525.0</ele><time>2026-04-04T15:07:16.001Z</time></trkpt><trkpt lat="44.28557096964239" lon="11.42486074188307"><ele>525.0</ele><time>2026-04-04T15:07:18.001Z</time></trkpt><trkpt lat="44.285672638223204" lon="11.424857966478239"><ele>525.0</ele><time>2026-04-04T15:07:20.001Z</time></trkpt><trkpt lat="44.28577324145244" lon="11.424875267682237"><ele>525.4</ele><time>2026-04-04T15:07:22.001Z</time></trkpt><trkpt lat="44.28588307034981" lon="11.424866076976718"><ele>525.8</ele><time>2026-04-04T15:07:24.001Z</time></trkpt><trkpt lat="44.285977140192585" lon="11.424806522151755"><ele>526.2</ele><time>2026-04-04T15:07:25.999Z</time></trkpt><trkpt lat="44.28604980856917" lon="11.424739731194267"><ele>526.6</ele><time>2026-04-04T15:07:27.999Z</time></trkpt><trkpt lat="44.28610897519192" lon="11.424667814643911"><ele>527.0</ele><time>2026-04-04T15:07:29.999Z</time></trkpt><trkpt lat="44.28616286311615" lon="11.424588615936973"><ele>527.4</ele><time>2026-04-04T15:07:31.999Z</time></trkpt><trkpt lat="44.28621485307681" lon="11.4244998481225"><ele>527.8000000000001</ele><time>2026-04-04T15:07:33.999Z</time></trkpt><trkpt lat="44.2862651274652" lon="11.42440752332561"><ele>528.2</ele><time>2026-04-04T15:07:35.999Z</time></trkpt><trkpt lat="44.286293135185865" lon="11.42432403748102"><ele>528.6</ele><time>2026-04-04T15:07:37.999Z</time></trkpt><trkpt lat="44.28613704098349" lon="11.424325430945773"><ele>529.0</ele><time>2026-04-04T15:07:50.999Z</time></trkpt><trkpt lat="44.28608388168647" lon="11.424383270773452"><ele>529.0</ele><time>2026-04-04T15:08:00Z</time></trkpt><trkpt lat="44.28601487733005" lon="11.424414187143055"><ele>529.0</ele><time>2026-04-04T15:08:02Z</time></trkpt><trkpt lat="44.28593963889191" lon="11.424464504695218"><ele>529.0</ele><time>2026-04-04T15:08:05Z</time></trkpt><trkpt lat="44.28585920365913" lon="11.42448475265521"><ele>529.0</ele><time>2026-04-04T15:08:07Z</time></trkpt><trkpt lat="44.28577486791723" lon="11.424481098456837"><ele>529.0</ele><time>2026-04-04T15:08:09Z</time></trkpt><trkpt lat="44.285634424771786" lon="11.42446046081037"><ele>528.6</ele><time>2026-04-04T15:08:11Z</time></trkpt><trkpt lat="44.28553781401397" lon="11.424443596826391"><ele>528.2</ele><time>2026-04-04T15:08:12Z</time></trkpt><trkpt lat="44.2854333907534" lon="11.424429879667692"><ele>527.8000000000001</ele><time>2026-04-04T15:08:13Z</time></trkpt><trkpt lat="44.285328612704" lon="11.424419555241505"><ele>527.4</ele><time>2026-04-04T15:08:14Z</time></trkpt><trkpt lat="44.28523967193877" lon="11.424412096297791"><ele>527.0</ele><time>2026-04-04T15:08:15Z</time></trkpt><trkpt lat="44.28515266401856" lon="11.42440873294733"><ele>527.0</ele><time>2026-04-04T15:08:16Z</time></trkpt><trkpt lat="44.28505791543425" lon="11.424407944687985"><ele>527.0</ele><time>2026-04-04T15:08:17Z</time></trkpt><trkpt lat="44.28496276249406" lon="11.424411839102216"><ele>527.0</ele><time>2026-04-04T15:08:18Z</time></trkpt><trkpt lat="44.2848591524659" lon="11.42442297025798"><ele>527.0</ele><time>2026-04-04T15:08:19Z</time></trkpt><trkpt lat="44.28475868901736" lon="11.424466588650064"><ele>527.0</ele><time>2026-04-04T15:08:20Z</time></trkpt><trkpt lat="44.28464711090284" lon="11.424461694450923"><ele>527.0</ele><time>2026-04-04T15:08:21Z</time></trkpt><trkpt lat="44.28452126649418" lon="11.424470956441958"><ele>527.0</ele><time>2026-04-04T15:08:22Z</time></trkpt><trkpt lat="44.28438812225598" lon="11.424493580152"><ele>527.0</ele><time>2026-04-04T15:08:23Z</time></trkpt><trkpt lat="44.28425229780594" lon="11.424565046645451"><ele>527.0</ele><time>2026-04-04T15:08:24Z</time></trkpt><trkpt lat="44.28413889292709" lon="11.424590324993336"><ele>527.0</ele><time>2026-04-04T15:08:25Z</time></trkpt><trkpt lat="44.28404267323058" lon="11.424624230988414"><ele>527.0</ele><time>2026-04-04T15:08:26Z</time></trkpt><trkpt lat="44.28393656094356" lon="11.424645134812259"><ele>527.0</ele><time>2026-04-04T15:08:27Z</time></trkpt><trkpt lat="44.28383526842368" lon="11.424667309015573"><ele>527.0</ele><time>2026-04-04T15:08:28Z</time></trkpt><trkpt lat="44.283747758368584" lon="11.424686465939432"><ele>527.0</ele><time>2026-04-04T15:08:29Z</time></trkpt><trkpt lat="44.28365091199034" lon="11.42470855038364"><ele>530.6</ele><time>2026-04-04T15:08:30Z</time></trkpt><trkpt lat="44.28354843058512" lon="11.42473805842511"><ele>534.2</ele><time>2026-04-04T15:08:31Z</time></trkpt><trkpt lat="44.28344442355474" lon="11.424752411352832"><ele>537.8</ele><time>2026-04-04T15:08:32Z</time></trkpt><trkpt lat="44.283343885960825" lon="11.424752170949283"><ele>541.4</ele><time>2026-04-04T15:08:33Z</time></trkpt><trkpt lat="44.283257777760205" lon="11.424750420527424"><ele>545.0</ele><time>2026-04-04T15:08:34Z</time></trkpt><trkpt lat="44.283169041522235" lon="11.424748746256485"><ele>547.4</ele><time>2026-04-04T15:08:35Z</time></trkpt><trkpt lat="44.28306225650031" lon="11.42474673144209"><ele>549.8</ele><time>2026-04-04T15:08:36Z</time></trkpt><trkpt lat="44.2829576572973" lon="11.424752786535667"><ele>552.2</ele><time>2026-04-04T15:08:37Z</time></trkpt><trkpt lat="44.28286526982287" lon="11.42478235563727"><ele>554.6</ele><time>2026-04-04T15:08:38Z</time></trkpt><trkpt lat="44.28277888425372" lon="11.424780508338467"><ele>557.0</ele><time>2026-04-04T15:08:39Z</time></trkpt><trkpt lat="44.28269355591126" lon="11.42475875791682"><ele>553.8000000000001</ele><time>2026-04-04T15:08:40Z</time></trkpt><trkpt lat="44.282630066777564" lon="11.424644839684428"><ele>550.6</ele><time>2026-04-04T15:08:41Z</time></trkpt><trkpt lat="44.28254164839572" lon="11.424589668571896"><ele>547.4000000000001</ele><time>2026-04-04T15:08:42Z</time></trkpt><trkpt lat="44.282470018560346" lon="11.424536713835622"><ele>544.2</ele><time>2026-04-04T15:08:43Z</time></trkpt><trkpt lat="44.28238093551461" lon="11.424517618966478"><ele>541.0</ele><time>2026-04-04T15:08:44Z</time></trkpt><trkpt lat="44.28227646896984" lon="11.424523831427656"><ele>543.6</ele><time>2026-04-04T15:08:45Z</time></trkpt><trkpt lat="44.282175009244604" lon="11.424538548543788"><ele>546.2</ele><time>2026-04-04T15:08:46Z</time></trkpt><trkpt lat="44.282068641488245" lon="11.424504679296907"><ele>548.8</ele><time>2026-04-04T15:08:47Z</time></trkpt><trkpt lat="44.28196119889548" lon="11.424449780135951"><ele>551.4</ele><time>2026-04-04T15:08:48Z</time></trkpt><trkpt lat="44.281860639095385" lon="11.424365255796955"><ele>554.0</ele><time>2026-04-04T15:08:49Z</time></trkpt><trkpt lat="44.281784250781406" lon="11.424247914372115"><ele>554.0</ele><time>2026-04-04T15:08:50Z</time></trkpt><trkpt lat="44.281709340820846" lon="11.424155864167744"><ele>554.0</ele><time>2026-04-04T15:08:51Z</time></trkpt><trkpt lat="44.281634250362984" lon="11.424094027947714"><ele>554.0</ele><time>2026-04-04T15:08:52Z</time></trkpt><trkpt lat="44.28157125656544" lon="11.424035635899108"><ele>554.0</ele><time>2026-04-04T15:08:53Z</time></trkpt><trkpt lat="44.28149164919296" lon="11.423974423494363"><ele>554.0</ele><time>2026-04-04T15:08:54Z</time></trkpt><trkpt lat="44.28140912612771" lon="11.423917086036532"><ele>554.0</ele><time>2026-04-04T15:08:55Z</time></trkpt><trkpt lat="44.28133375327738" lon="11.423863734298065"><ele>555.4</ele><time>2026-04-04T15:08:56Z</time></trkpt><trkpt lat="44.28126447902073" lon="11.42382847526348"><ele>556.8</ele><time>2026-04-04T15:08:57Z</time></trkpt><trkpt lat="44.28119282609367" lon="11.42382687986402"><ele>558.2</ele><time>2026-04-04T15:08:58Z</time></trkpt><trkpt lat="44.28109538424407" lon="11.42386204575626"><ele>559.6</ele><time>2026-04-04T15:08:59Z</time></trkpt><trkpt lat="44.28099597730343" lon="11.423920620141766"><ele>561.0</ele><time>2026-04-04T15:09:00Z</time></trkpt><trkpt lat="44.280905124997794" lon="11.42398953824814"><ele>561.0</ele><time>2026-04-04T15:09:01Z</time></trkpt><trkpt lat="44.28082027592265" lon="11.424048068165712"><ele>561.0</ele><time>2026-04-04T15:09:02Z</time></trkpt><trkpt lat="44.28071973799675" lon="11.424054222158198"><ele>561.0</ele><time>2026-04-04T15:09:03Z</time></trkpt><trkpt lat="44.280602246217676" lon="11.424066972568045"><ele>561.0</ele><time>2026-04-04T15:09:04Z</time></trkpt><trkpt lat="44.28047375613491" lon="11.424091749841654"><ele>561.0</ele><time>2026-04-04T15:09:05Z</time></trkpt><trkpt lat="44.280366505581796" lon="11.424154028151401"><ele>561.2</ele><time>2026-04-04T15:09:06Z</time></trkpt><trkpt lat="44.28027183641897" lon="11.424203369366442"><ele>561.4000000000001</ele><time>2026-04-04T15:09:07Z</time></trkpt><trkpt lat="44.28017330779759" lon="11.424281498446044"><ele>561.6</ele><time>2026-04-04T15:09:08Z</time></trkpt><trkpt lat="44.28005864073212" lon="11.424319923246175"><ele>561.8000000000001</ele><time>2026-04-04T15:09:09Z</time></trkpt><trkpt lat="44.27996305600433" lon="11.424331179291562"><ele>562.0</ele><time>2026-04-04T15:09:10Z</time></trkpt><trkpt lat="44.279862217335236" lon="11.424343189069099"><ele>562.0</ele><time>2026-04-04T15:09:11Z</time></trkpt><trkpt lat="44.27976733981756" lon="11.424258471493536"><ele>562.0</ele><time>2026-04-04T15:09:12Z</time></trkpt><trkpt lat="44.279682819618564" lon="11.424178726259942"><ele>562.0</ele><time>2026-04-04T15:09:13Z</time></trkpt><trkpt lat="44.27959897351389" lon="11.42411758947143"><ele>562.0</ele><time>2026-04-04T15:09:14Z</time></trkpt><trkpt lat="44.279533648914374" lon="11.424074664459832"><ele>562.0</ele><time>2026-04-04T15:09:15Z</time></trkpt><trkpt lat="44.279453758096" lon="11.424040781739986"><ele>563.0</ele><time>2026-04-04T15:09:16Z</time></trkpt><trkpt lat="44.27935474241811" lon="11.42403577730157"><ele>564.0</ele><time>2026-04-04T15:09:17Z</time></trkpt><trkpt lat="44.27925570047628" lon="11.424047438355865"><ele>565.0</ele><time>2026-04-04T15:09:18.001Z</time></trkpt><trkpt lat="44.27914556554639" lon="11.424052026908221"><ele>566.0</ele><time>2026-04-04T15:09:19.001Z</time></trkpt><trkpt lat="44.2790389860827" lon="11.424039124683818"><ele>567.0</ele><time>2026-04-04T15:09:20.001Z</time></trkpt><trkpt lat="44.27893933390832" lon="11.423992801791641"><ele>567.5</ele><time>2026-04-04T15:09:21.001Z</time></trkpt><trkpt lat="44.27884422313826" lon="11.42393303074884"><ele>568.0</ele><time>2026-04-04T15:09:22.001Z</time></trkpt><trkpt lat="44.27876705964522" lon="11.423875348188956"><ele>568.5</ele><time>2026-04-04T15:09:23.001Z</time></trkpt><trkpt lat="44.278707343417466" lon="11.423795049656716"><ele>569.0</ele><time>2026-04-04T15:09:24.001Z</time></trkpt><trkpt lat="44.278668472936374" lon="11.423704800630507"><ele>569.5</ele><time>2026-04-04T15:09:25.001Z</time></trkpt><trkpt lat="44.278607886965446" lon="11.423602524822895"><ele>570.0</ele><time>2026-04-04T15:09:26.001Z</time></trkpt><trkpt lat="44.27852843204786" lon="11.42352124557523"><ele>570.0</ele><time>2026-04-04T15:09:27.001Z</time></trkpt><trkpt lat="44.27843426274942" lon="11.423432389603931"><ele>570.0</ele><time>2026-04-04T15:09:28.001Z</time></trkpt><trkpt lat="44.27833030170645" lon="11.42336716238319"><ele>570.0</ele><time>2026-04-04T15:09:29.001Z</time></trkpt><trkpt lat="44.27822382186334" lon="11.423323267091762"><ele>570.0</ele><time>2026-04-04T15:09:30.001Z</time></trkpt><trkpt lat="44.27811819803908" lon="11.423269136455463"><ele>571.25</ele><time>2026-04-04T15:09:31.001Z</time></trkpt><trkpt lat="44.27798906863767" lon="11.423240390856893"><ele>572.5</ele><time>2026-04-04T15:09:31.999Z</time></trkpt><trkpt lat="44.2778595272915" lon="11.423202266401587"><ele>573.75</ele><time>2026-04-04T15:09:32.999Z</time></trkpt><trkpt lat="44.27776139872336" lon="11.42315656633577"><ele>575.0</ele><time>2026-04-04T15:09:33.999Z</time></trkpt><trkpt lat="44.27768324443078" lon="11.423097787914655"><ele>575.0</ele><time>2026-04-04T15:09:34.999Z</time></trkpt><trkpt lat="44.27760457364868" lon="11.423045181829998"><ele>575.0</ele><time>2026-04-04T15:09:35.999Z</time></trkpt><trkpt lat="44.2775105119351" lon="11.423006110395246"><ele>575.0</ele><time>2026-04-04T15:09:36.999Z</time></trkpt><trkpt lat="44.277394062424" lon="11.42299298040499"><ele>575.0</ele><time>2026-04-04T15:09:37.999Z</time></trkpt><trkpt lat="44.27727887282604" lon="11.422984463591124"><ele>575.0</ele><time>2026-04-04T15:09:38.999Z</time></trkpt><trkpt lat="44.27716152909701" lon="11.42297468753141"><ele>574.2</ele><time>2026-04-04T15:09:39.999Z</time></trkpt><trkpt lat="44.277050635099634" lon="11.422965249007342"><ele>573.4</ele><time>2026-04-04T15:09:40.999Z</time></trkpt><trkpt lat="44.276948741396914" lon="11.422956746360445"><ele>572.6</ele><time>2026-04-04T15:09:41.999Z</time></trkpt><trkpt lat="44.27686112093859" lon="11.422950497996634"><ele>571.8</ele><time>2026-04-04T15:09:42.999Z</time></trkpt><trkpt lat="44.276782126419434" lon="11.422940143816733"><ele>571.0</ele><time>2026-04-04T15:09:43.999Z</time></trkpt><trkpt lat="44.27671406979291" lon="11.422918037237647"><ele>571.0</ele><time>2026-04-04T15:09:44.999Z</time></trkpt><trkpt lat="44.276635731292224" lon="11.422876154284866"><ele>571.0</ele><time>2026-04-04T15:09:45.999Z</time></trkpt><trkpt lat="44.27654848925639" lon="11.422808313516557"><ele>571.0</ele><time>2026-04-04T15:09:46.999Z</time></trkpt><trkpt lat="44.27645158914504" lon="11.422722854852625"><ele>571.0</ele><time>2026-04-04T15:09:47.999Z</time></trkpt><trkpt lat="44.27635374649842" lon="11.422638239027753"><ele>571.0</ele><time>2026-04-04T15:09:48.999Z</time></trkpt><trkpt lat="44.276264749244895" lon="11.422568966560304"><ele>571.6</ele><time>2026-04-04T15:09:49.999Z</time></trkpt><trkpt lat="44.27617920413089" lon="11.422531235591167"><ele>572.2</ele><time>2026-04-04T15:09:50.999Z</time></trkpt><trkpt lat="44.276113005889066" lon="11.422464561878662"><ele>572.8</ele><time>2026-04-04T15:09:51.999Z</time></trkpt><trkpt lat="44.27603185062279" lon="11.422393859474468"><ele>573.4</ele><time>2026-04-04T15:09:52.999Z</time></trkpt><trkpt lat="44.275948975886024" lon="11.422326549019148"><ele>574.0</ele><time>2026-04-04T15:09:53.999Z</time></trkpt><trkpt lat="44.27586926686867" lon="11.422248671069317"><ele>574.0</ele><time>2026-04-04T15:09:54.999Z</time></trkpt><trkpt lat="44.27579745950788" lon="11.422159167340688"><ele>574.0</ele><time>2026-04-04T15:09:55.999Z</time></trkpt><trkpt lat="44.27574040076296" lon="11.422062978520453"><ele>574.0</ele><time>2026-04-04T15:09:57Z</time></trkpt><trkpt lat="44.27569577154009" lon="11.421959572391687"><ele>574.0</ele><time>2026-04-04T15:09:58Z</time></trkpt><trkpt lat="44.27562706908084" lon="11.421868227170439"><ele>574.0</ele><time>2026-04-04T15:09:59Z</time></trkpt><trkpt lat="44.2755684610515" lon="11.421780399038036"><ele>576.2</ele><time>2026-04-04T15:10:00Z</time></trkpt><trkpt lat="44.27549915159554" lon="11.42172960808671"><ele>578.4</ele><time>2026-04-04T15:10:01Z</time></trkpt><trkpt lat="44.27541378339725" lon="11.421698977038053"><ele>580.6</ele><time>2026-04-04T15:10:02Z</time></trkpt><trkpt lat="44.27530721242102" lon="11.42169582625021"><ele>582.8</ele><time>2026-04-04T15:10:03Z</time></trkpt><trkpt lat="44.27519002220799" lon="11.42171364522273"><ele>585.0</ele><time>2026-04-04T15:10:04Z</time></trkpt><trkpt lat="44.27506521220227" lon="11.421723192389429"><ele>585.0</ele><time>2026-04-04T15:10:05Z</time></trkpt><trkpt lat="44.27492985429183" lon="11.421752262991406"><ele>585.0</ele><time>2026-04-04T15:10:06Z</time></trkpt><trkpt lat="44.27481341303556" lon="11.421776433611917"><ele>585.0</ele><time>2026-04-04T15:10:07Z</time></trkpt><trkpt lat="44.27471356508697" lon="11.421819030017375"><ele>585.0</ele><time>2026-04-04T15:10:08Z</time></trkpt><trkpt lat="44.27461787233463" lon="11.42182723405277"><ele>585.25</ele><time>2026-04-04T15:10:09Z</time></trkpt><trkpt lat="44.27451094286322" lon="11.421883132102975"><ele>585.5</ele><time>2026-04-04T15:10:10Z</time></trkpt><trkpt lat="44.27439669107783" lon="11.421979812374957"><ele>585.75</ele><time>2026-04-04T15:10:11Z</time></trkpt><trkpt lat="44.27427402926386" lon="11.422048014294784"><ele>586.0</ele><time>2026-04-04T15:10:12Z</time></trkpt><trkpt lat="44.27416391486634" lon="11.42209855064139"><ele>585.4</ele><time>2026-04-04T15:10:13Z</time></trkpt><trkpt lat="44.274076272649296" lon="11.422151361972979"><ele>584.8</ele><time>2026-04-04T15:10:14Z</time></trkpt><trkpt lat="44.27399865608419" lon="11.422191553500136"><ele>584.1999999999999</ele><time>2026-04-04T15:10:15Z</time></trkpt><trkpt lat="44.27391935092012" lon="11.422218474383824"><ele>583.6</ele><time>2026-04-04T15:10:16Z</time></trkpt><trkpt lat="44.27382840513126" lon="11.422168411333642"><ele>583.0</ele><time>2026-04-04T15:10:17Z</time></trkpt><trkpt lat="44.27372350210425" lon="11.422118725779685"><ele>583.0</ele><time>2026-04-04T15:10:18Z</time></trkpt><trkpt lat="44.27363027059034" lon="11.422053865258741"><ele>583.0</ele><time>2026-04-04T15:10:19Z</time></trkpt><trkpt lat="44.273539860388105" lon="11.422039098245385"><ele>583.0</ele><time>2026-04-04T15:10:20Z</time></trkpt><trkpt lat="44.27343534469891" lon="11.422032590819851"><ele>583.0</ele><time>2026-04-04T15:10:21Z</time></trkpt><trkpt lat="44.27332208848137" lon="11.422033369604028"><ele>583.0</ele><time>2026-04-04T15:10:22Z</time></trkpt><trkpt lat="44.2731956623273" lon="11.422042876120557"><ele>583.0</ele><time>2026-04-04T15:10:23Z</time></trkpt><trkpt lat="44.273064438688245" lon="11.422009228904132"><ele>583.0</ele><time>2026-04-04T15:10:24Z</time></trkpt><trkpt lat="44.27292830332702" lon="11.422009228905456"><ele>583.0</ele><time>2026-04-04T15:10:25Z</time></trkpt><trkpt lat="44.2727851086468" lon="11.422009228907779"><ele>583.0</ele><time>2026-04-04T15:10:26Z</time></trkpt><trkpt lat="44.27265238393105" lon="11.422011338991727"><ele>583.0</ele><time>2026-04-04T15:10:27Z</time></trkpt><trkpt lat="44.27254142141299" lon="11.42201552880054"><ele>583.0</ele><time>2026-04-04T15:10:28Z</time></trkpt><trkpt lat="44.27244073678553" lon="11.422020653501919"><ele>583.0</ele><time>2026-04-04T15:10:29Z</time></trkpt><trkpt lat="44.272337286869025" lon="11.422028235112617"><ele>583.0</ele><time>2026-04-04T15:10:30Z</time></trkpt><trkpt lat="44.27222009707164" lon="11.422039196091012"><ele>583.0</ele><time>2026-04-04T15:10:31Z</time></trkpt><trkpt lat="44.27209876327291" lon="11.422055715247705"><ele>583.5</ele><time>2026-04-04T15:10:32Z</time></trkpt><trkpt lat="44.271977011343225" lon="11.422104293371284"><ele>584.0</ele><time>2026-04-04T15:10:33Z</time></trkpt><trkpt lat="44.27184460760286" lon="11.422144015271616"><ele>584.5</ele><time>2026-04-04T15:10:34Z</time></trkpt><trkpt lat="44.27169750802969" lon="11.422183219170376"><ele>585.0</ele><time>2026-04-04T15:10:35Z</time></trkpt><trkpt lat="44.2715642810589" lon="11.422193845738581"><ele>586.25</ele><time>2026-04-04T15:10:36Z</time></trkpt><trkpt lat="44.27144976804058" lon="11.422197652158443"><ele>587.5</ele><time>2026-04-04T15:10:37Z</time></trkpt><trkpt lat="44.27133818564373" lon="11.42219776942686"><ele>588.75</ele><time>2026-04-04T15:10:38Z</time></trkpt><trkpt lat="44.271227643520675" lon="11.4221949907697"><ele>590.0</ele><time>2026-04-04T15:10:39Z</time></trkpt><trkpt lat="44.27111015742243" lon="11.422190068072497"><ele>590.0</ele><time>2026-04-04T15:10:40Z</time></trkpt><trkpt lat="44.270988179128736" lon="11.42218893083702"><ele>590.0</ele><time>2026-04-04T15:10:41Z</time></trkpt><trkpt lat="44.270863539369344" lon="11.422213023727956"><ele>590.0</ele><time>2026-04-04T15:10:42Z</time></trkpt><trkpt lat="44.27075000571593" lon="11.422211640652812"><ele>590.0</ele><time>2026-04-04T15:10:43Z</time></trkpt><trkpt lat="44.270652974509694" lon="11.422216266198205"><ele>591.4</ele><time>2026-04-04T15:10:44Z</time></trkpt><trkpt lat="44.270555132416234" lon="11.422220928451337"><ele>592.8</ele><time>2026-04-04T15:10:45Z</time></trkpt><trkpt lat="44.27044746495904" lon="11.422235301743326"><ele>594.2</ele><time>2026-04-04T15:10:46Z</time></trkpt><trkpt lat="44.27033957538277" lon="11.42226502454434"><ele>595.6</ele><time>2026-04-04T15:10:47Z</time></trkpt><trkpt lat="44.27024966587021" lon="11.42231553197039"><ele>597.0</ele><time>2026-04-04T15:10:48Z</time></trkpt><trkpt lat="44.270175925638" lon="11.422374999235096"><ele>597.0</ele><time>2026-04-04T15:10:49Z</time></trkpt><trkpt lat="44.27010267711801" lon="11.422436697104512"><ele>597.0</ele><time>2026-04-04T15:10:50Z</time></trkpt><trkpt lat="44.270018183575445" lon="11.422490896976278"><ele>597.0</ele><time>2026-04-04T15:10:51Z</time></trkpt><trkpt lat="44.26984914527047" lon="11.422572508669099"><ele>597.0</ele><time>2026-04-04T15:10:53Z</time></trkpt><trkpt lat="44.26977551142784" lon="11.422623751669372"><ele>597.0</ele><time>2026-04-04T15:10:54Z</time></trkpt><trkpt lat="44.26971782112378" lon="11.422702842582826"><ele>597.8000000000001</ele><time>2026-04-04T15:10:55Z</time></trkpt><trkpt lat="44.26968443920677" lon="11.422793710300605"><ele>598.6</ele><time>2026-04-04T15:10:56Z</time></trkpt><trkpt lat="44.2696214281749" lon="11.422935154831185"><ele>599.4000000000001</ele><time>2026-04-04T15:10:58Z</time></trkpt><trkpt lat="44.26955401219848" lon="11.423027735480407"><ele>600.2</ele><time>2026-04-04T15:11:00Z</time></trkpt><trkpt lat="44.26948722403327" lon="11.423028421805668"><ele>601.0</ele><time>2026-04-04T15:11:01.001Z</time></trkpt><trkpt lat="44.269341852713204" lon="11.422972103003316"><ele>601.0</ele><time>2026-04-04T15:11:03.001Z</time></trkpt><trkpt lat="44.26925477194291" lon="11.422959688231797"><ele>601.0</ele><time>2026-04-04T15:11:04.001Z</time></trkpt><trkpt lat="44.269157330604344" lon="11.422944780117795"><ele>601.0</ele><time>2026-04-04T15:11:05.001Z</time></trkpt><trkpt lat="44.26905772573153" lon="11.422929540992138"><ele>601.0</ele><time>2026-04-04T15:11:06.001Z</time></trkpt><trkpt lat="44.26895706119614" lon="11.422921278817602"><ele>601.0</ele><time>2026-04-04T15:11:07.001Z</time></trkpt><trkpt lat="44.268852323107204" lon="11.422913746229794"><ele>602.0</ele><time>2026-04-04T15:11:08.001Z</time></trkpt><trkpt lat="44.26873510027062" lon="11.422903048221274"><ele>603.0</ele><time>2026-04-04T15:11:09.001Z</time></trkpt><trkpt lat="44.26859332069462" lon="11.42290984161548"><ele>604.0</ele><time>2026-04-04T15:11:10.001Z</time></trkpt><trkpt lat="44.268449482386856" lon="11.42291177217803"><ele>605.0</ele><time>2026-04-04T15:11:11.001Z</time></trkpt><trkpt lat="44.26830367858903" lon="11.422934502906728"><ele>605.0</ele><time>2026-04-04T15:11:12.001Z</time></trkpt><trkpt lat="44.26814037582293" lon="11.422950113386396"><ele>605.0</ele><time>2026-04-04T15:11:13.001Z</time></trkpt><trkpt lat="44.267997191136786" lon="11.422972216395978"><ele>605.0</ele><time>2026-04-04T15:11:14.001Z</time></trkpt><trkpt lat="44.26787664235014" lon="11.422989722514226"><ele>605.0</ele><time>2026-04-04T15:11:15.001Z</time></trkpt><trkpt lat="44.267771543027365" lon="11.423001792297118"><ele>604.4</ele><time>2026-04-04T15:11:16.001Z</time></trkpt><trkpt lat="44.26767932007483" lon="11.42301238970247"><ele>603.8</ele><time>2026-04-04T15:11:17.001Z</time></trkpt><trkpt lat="44.26758156455332" lon="11.423037401181018"><ele>603.2</ele><time>2026-04-04T15:11:18.001Z</time></trkpt><trkpt lat="44.267479965876" lon="11.423077598848874"><ele>602.6</ele><time>2026-04-04T15:11:19.001Z</time></trkpt><trkpt lat="44.26738123119731" lon="11.423141643118196"><ele>602.0</ele><time>2026-04-04T15:11:20.001Z</time></trkpt><trkpt lat="44.267267364792" lon="11.423208227927914"><ele>602.0</ele><time>2026-04-04T15:11:21.001Z</time></trkpt><trkpt lat="44.267166157762425" lon="11.423341622716086"><ele>602.0</ele><time>2026-04-04T15:11:22.001Z</time></trkpt><trkpt lat="44.26705980976182" lon="11.423442801839894"><ele>602.0</ele><time>2026-04-04T15:11:23.001Z</time></trkpt><trkpt lat="44.26695146273602" lon="11.423511102704472"><ele>602.0</ele><time>2026-04-04T15:11:24.001Z</time></trkpt><trkpt lat="44.26684120749422" lon="11.423570438336967"><ele>602.0</ele><time>2026-04-04T15:11:25.001Z</time></trkpt><trkpt lat="44.26672035841899" lon="11.42361885649444"><ele>602.0</ele><time>2026-04-04T15:11:26.001Z</time></trkpt><trkpt lat="44.2665905725027" lon="11.423674983953102"><ele>602.0</ele><time>2026-04-04T15:11:27.001Z</time></trkpt><trkpt lat="44.266443790060215" lon="11.42372121927391"><ele>602.0</ele><time>2026-04-04T15:11:28.001Z</time></trkpt><trkpt lat="44.266306169018016" lon="11.423747501681376"><ele>603.25</ele><time>2026-04-04T15:11:29.001Z</time></trkpt><trkpt lat="44.26616361898472" lon="11.423764636002003"><ele>604.5</ele><time>2026-04-04T15:11:30.001Z</time></trkpt><trkpt lat="44.266027948961096" lon="11.423769911025456"><ele>605.75</ele><time>2026-04-04T15:11:31.001Z</time></trkpt><trkpt lat="44.26589814125926" lon="11.423776007033277"><ele>607.0</ele><time>2026-04-04T15:11:32.001Z</time></trkpt><trkpt lat="44.26576547255628" lon="11.423804752133456"><ele>608.25</ele><time>2026-04-04T15:11:33.001Z</time></trkpt><trkpt lat="44.265628197797135" lon="11.423815776171475"><ele>609.5</ele><time>2026-04-04T15:11:34.001Z</time></trkpt><trkpt lat="44.26548234944462" lon="11.42380290713159"><ele>610.75</ele><time>2026-04-04T15:11:35.001Z</time></trkpt><trkpt lat="44.26533523499005" lon="11.42381100581851"><ele>612.0</ele><time>2026-04-04T15:11:36.001Z</time></trkpt><trkpt lat="44.265206235370016" lon="11.423817159542889"><ele>613.6</ele><time>2026-04-04T15:11:37.001Z</time></trkpt><trkpt lat="44.26509387325335" lon="11.423824623121481"><ele>615.2</ele><time>2026-04-04T15:11:37.999Z</time></trkpt><trkpt lat="44.26498808295484" lon="11.423831650177283"><ele>616.8</ele><time>2026-04-04T15:11:38.999Z</time></trkpt><trkpt lat="44.264882912152714" lon="11.423838409577867"><ele>618.4</ele><time>2026-04-04T15:11:39.999Z</time></trkpt><trkpt lat="44.264793150212626" lon="11.423862965470988"><ele>620.0</ele><time>2026-04-04T15:11:40.999Z</time></trkpt><trkpt lat="44.26471180103215" lon="11.423871677264122"><ele>619.8333333333333</ele><time>2026-04-04T15:11:41.999Z</time></trkpt><trkpt lat="44.26464100743556" lon="11.423862621639623"><ele>619.6666666666666</ele><time>2026-04-04T15:11:42.999Z</time></trkpt><trkpt lat="44.26457839442346" lon="11.423847413641024"><ele>619.5</ele><time>2026-04-04T15:11:43.999Z</time></trkpt><trkpt lat="44.26446571939049" lon="11.423844351659074"><ele>619.3333333333334</ele><time>2026-04-04T15:11:45.999Z</time></trkpt><trkpt lat="44.26437482465786" lon="11.423783573164238"><ele>619.1666666666667</ele><time>2026-04-04T15:11:47.999Z</time></trkpt><trkpt lat="44.26431795133628" lon="11.423729924790951"><ele>619.0</ele><time>2026-04-04T15:11:49.999Z</time></trkpt><trkpt lat="44.26425214354619" lon="11.423717384189027"><ele>619.6666666666667</ele><time>2026-04-04T15:12:12Z</time></trkpt><trkpt lat="44.26417388768415" lon="11.423876144615459"><ele>620.3333333333334</ele><time>2026-04-04T15:12:14Z</time></trkpt><trkpt lat="44.26411429699815" lon="11.423927043463243"><ele>621.0</ele><time>2026-04-04T15:12:15Z</time></trkpt><trkpt lat="44.264040804284974" lon="11.423889911876296"><ele>621.6666666666666</ele><time>2026-04-04T15:12:16Z</time></trkpt><trkpt lat="44.26394674414686" lon="11.423893619359644"><ele>622.3333333333333</ele><time>2026-04-04T15:12:18Z</time></trkpt><trkpt lat="44.2638805193869" lon="11.42389622967894"><ele>623.0</ele><time>2026-04-04T15:12:20Z</time></trkpt><trkpt lat="44.26380524834644" lon="11.423902022717801"><ele>624.1999999999999</ele><time>2026-04-04T15:12:22Z</time></trkpt><trkpt lat="44.26372176936527" lon="11.423936853415213"><ele>625.4</ele><time>2026-04-04T15:12:24Z</time></trkpt><trkpt lat="44.263643340478545" lon="11.423947441228037"><ele>626.5999999999999</ele><time>2026-04-04T15:12:26Z</time></trkpt><trkpt lat="44.263575858689805" lon="11.4239689315501"><ele>627.8</ele><time>2026-04-04T15:12:30Z</time></trkpt><trkpt lat="44.263476774468536" lon="11.423972886394608"><ele>629.0</ele><time>2026-04-04T15:13:12.001Z</time></trkpt><trkpt lat="44.26336294248283" lon="11.424002633654826"><ele>629.0</ele><time>2026-04-04T15:13:14.001Z</time></trkpt><trkpt lat="44.263299709058515" lon="11.424019525900333"><ele>629.0</ele><time>2026-04-04T15:13:15.001Z</time></trkpt><trkpt lat="44.263228612346715" lon="11.42403851873041"><ele>629.0</ele><time>2026-04-04T15:13:16.001Z</time></trkpt><trkpt lat="44.26315376492457" lon="11.424058513541791"><ele>629.0</ele><time>2026-04-04T15:13:17.001Z</time></trkpt><trkpt lat="44.263076123312366" lon="11.424080240414314"><ele>629.0</ele><time>2026-04-04T15:13:18.001Z</time></trkpt><trkpt lat="44.2630094854076" lon="11.424101332965057"><ele>629.0</ele><time>2026-04-04T15:13:19.001Z</time></trkpt><trkpt lat="44.262907986290166" lon="11.424137198076636"><ele>630.0</ele><time>2026-04-04T15:13:21.001Z</time></trkpt><trkpt lat="44.26283712011596" lon="11.424162435122064"><ele>631.0</ele><time>2026-04-04T15:13:22.001Z</time></trkpt><trkpt lat="44.26277759004339" lon="11.424205927977587"><ele>632.0</ele><time>2026-04-04T15:13:23.001Z</time></trkpt><trkpt lat="44.26271306586764" lon="11.424221309424686"><ele>633.0</ele><time>2026-04-04T15:13:24.001Z</time></trkpt><trkpt lat="44.26259312244581" lon="11.424232096048971"><ele>634.0</ele><time>2026-04-04T15:13:26.001Z</time></trkpt><trkpt lat="44.26252967784131" lon="11.424239600501082"><ele>635.0</ele><time>2026-04-04T15:13:27.001Z</time></trkpt><trkpt lat="44.26242449400133" lon="11.424210708949786"><ele>635.0</ele><time>2026-04-04T15:13:29.001Z</time></trkpt><trkpt lat="44.262328652703104" lon="11.424157702711977"><ele>635.0</ele><time>2026-04-04T15:13:31.001Z</time></trkpt><trkpt lat="44.26224057441104" lon="11.424106754778302"><ele>635.0</ele><time>2026-04-04T15:13:33.001Z</time></trkpt><trkpt lat="44.26217027327854" lon="11.424025542989897"><ele>635.0</ele><time>2026-04-04T15:13:35.001Z</time></trkpt><trkpt lat="44.262111684442054" lon="11.423977149094931"><ele>635.0</ele><time>2026-04-04T15:13:38.001Z</time></trkpt><trkpt lat="44.26206168329515" lon="11.42391024945371"><ele>635.0</ele><time>2026-04-04T15:13:40.001Z</time></trkpt><trkpt lat="44.261969382695106" lon="11.423831659957964"><ele>636.3333333333333</ele><time>2026-04-04T15:13:42.001Z</time></trkpt><trkpt lat="44.26189668182912" lon="11.423777587566232"><ele>637.6666666666666</ele><time>2026-04-04T15:13:44Z</time></trkpt><trkpt lat="44.26183839800094" lon="11.42372010211441"><ele>639.0</ele><time>2026-04-04T15:13:46Z</time></trkpt><trkpt lat="44.2617695341247" lon="11.423664664123997"><ele>640.3333333333334</ele><time>2026-04-04T15:13:48Z</time></trkpt><trkpt lat="44.26170494876553" lon="11.423606382366202"><ele>641.6666666666667</ele><time>2026-04-04T15:13:50Z</time></trkpt><trkpt lat="44.261652398878276" lon="11.423546079034104"><ele>643.0</ele><time>2026-04-04T15:13:52Z</time></trkpt><trkpt lat="44.26157932598273" lon="11.423498962029013"><ele>643.0</ele><time>2026-04-04T15:13:54Z</time></trkpt><trkpt lat="44.26149820589201" lon="11.423433021896665"><ele>643.0</ele><time>2026-04-04T15:13:56Z</time></trkpt><trkpt lat="44.26141316774368" lon="11.423354667601044"><ele>643.0</ele><time>2026-04-04T15:13:58Z</time></trkpt><trkpt lat="44.2613492874765" lon="11.42330226171114"><ele>643.0</ele><time>2026-04-04T15:14:00Z</time></trkpt><trkpt lat="44.26125654653129" lon="11.423228111087223"><ele>643.0</ele><time>2026-04-04T15:14:02Z</time></trkpt><trkpt lat="44.261183892007224" lon="11.423153217402259"><ele>645.0</ele><time>2026-04-04T15:14:04Z</time></trkpt><trkpt lat="44.26108513054165" lon="11.423068226820126"><ele>647.0</ele><time>2026-04-04T15:14:06Z</time></trkpt><trkpt lat="44.260997597768174" lon="11.422991408705842"><ele>649.0</ele><time>2026-04-04T15:14:08Z</time></trkpt><trkpt lat="44.26092116911292" lon="11.422936564322502"><ele>651.0</ele><time>2026-04-04T15:14:10Z</time></trkpt><trkpt lat="44.260836211558534" lon="11.422877093627413"><ele>653.0</ele><time>2026-04-04T15:14:12Z</time></trkpt><trkpt lat="44.26075672236809" lon="11.422838095253681"><ele>653.0</ele><time>2026-04-04T15:14:14Z</time></trkpt><trkpt lat="44.26068371026424" lon="11.422800625133506"><ele>653.0</ele><time>2026-04-04T15:14:16Z</time></trkpt><trkpt lat="44.26062049414847" lon="11.422827960440245"><ele>653.0</ele><time>2026-04-04T15:14:28.001Z</time></trkpt><trkpt lat="44.260538786196726" lon="11.42280733491993"><ele>653.0</ele><time>2026-04-04T15:14:30.001Z</time></trkpt><trkpt lat="44.26043895967602" lon="11.422810412317876"><ele>653.0</ele><time>2026-04-04T15:14:32.001Z</time></trkpt><trkpt lat="44.260326837461676" lon="11.422815419515079"><ele>653.0</ele><time>2026-04-04T15:14:34.001Z</time></trkpt><trkpt lat="44.260218980959195" lon="11.422820342429146"><ele>654.1666666666666</ele><time>2026-04-04T15:14:36.001Z</time></trkpt><trkpt lat="44.26012462864149" lon="11.4228468587515"><ele>655.3333333333333</ele><time>2026-04-04T15:14:38.001Z</time></trkpt><trkpt lat="44.26003122416553" lon="11.422842227720212"><ele>656.5</ele><time>2026-04-04T15:14:40.001Z</time></trkpt><trkpt lat="44.25996190331433" lon="11.422808525666861"><ele>657.6666666666666</ele><time>2026-04-04T15:14:42.001Z</time></trkpt><trkpt lat="44.25988565323093" lon="11.422812199229428"><ele>658.8333333333334</ele><time>2026-04-04T15:14:54.001Z</time></trkpt><trkpt lat="44.25981013086545" lon="11.422823650961861"><ele>660.0</ele><time>2026-04-04T15:14:57.001Z</time></trkpt><trkpt lat="44.259718658428" lon="11.422824560287811"><ele>668.0</ele><time>2026-04-04T15:14:59.001Z</time></trkpt><trkpt lat="44.25962910844479" lon="11.422842989367354"><ele>668.0</ele><time>2026-04-04T15:15:02.001Z</time></trkpt><trkpt lat="44.259561858529" lon="11.422827499739968"><ele>668.0</ele><time>2026-04-04T15:15:06.001Z</time></trkpt><trkpt lat="44.25961950374969" lon="11.423005700939973"><ele>663.0</ele><time>2026-04-04T15:15:09.001Z</time></trkpt><trkpt lat="44.2596839709143" lon="11.423012352304958"><ele>663.0</ele><time>2026-04-04T15:15:12.001Z</time></trkpt></trkseg><trkseg><trkpt lat="44.2644096121942" lon="11.423865549758302"><ele>623.0</ele><time>2026-04-04T15:38:11.999Z</time></trkpt><trkpt lat="44.26451286599805" lon="11.423881844103505"><ele>623.0</ele><time>2026-04-04T15:38:13.999Z</time></trkpt><trkpt lat="44.26459289869813" lon="11.423885020257222"><ele>623.0</ele><time>2026-04-04T15:38:14.999Z</time></trkpt><trkpt lat="44.264668985669054" lon="11.42387954847086"><ele>623.0</ele><time>2026-04-04T15:38:15.999Z</time></trkpt><trkpt lat="44.26474542792409" lon="11.423876899365323"><ele>623.0</ele><time>2026-04-04T15:38:16.999Z</time></trkpt><trkpt lat="44.26483353624318" lon="11.42387512133458"><ele>623.0</ele><time>2026-04-04T15:38:17.999Z</time></trkpt><trkpt lat="44.264942504327365" lon="11.423868863315946"><ele>622.25</ele><time>2026-04-04T15:38:18.999Z</time></trkpt><trkpt lat="44.26505541359461" lon="11.423854976683625"><ele>621.5</ele><time>2026-04-04T15:38:19.999Z</time></trkpt><trkpt lat="44.26516609156218" lon="11.423844341249636"><ele>620.75</ele><time>2026-04-04T15:38:20.999Z</time></trkpt><trkpt lat="44.26527846694849" lon="11.423843176701057"><ele>620.0</ele><time>2026-04-04T15:38:21.999Z</time></trkpt><trkpt lat="44.265405499583366" lon="11.423835398482987"><ele>620.0</ele><time>2026-04-04T15:38:22.999Z</time></trkpt><trkpt lat="44.26553196833448" lon="11.423831439502226"><ele>620.0</ele><time>2026-04-04T15:38:23.999Z</time></trkpt><trkpt lat="44.265649172241865" lon="11.42382705446302"><ele>620.0</ele><time>2026-04-04T15:38:24.999Z</time></trkpt><trkpt lat="44.26575726651049" lon="11.423820491302147"><ele>620.0</ele><time>2026-04-04T15:38:25.999Z</time></trkpt><trkpt lat="44.265861067688476" lon="11.423809808653974"><ele>617.4</ele><time>2026-04-04T15:38:26.999Z</time></trkpt><trkpt lat="44.26596312452065" lon="11.423801447656077"><ele>614.8</ele><time>2026-04-04T15:38:27.999Z</time></trkpt><trkpt lat="44.266061254286875" lon="11.423804751152407"><ele>612.2</ele><time>2026-04-04T15:38:28.999Z</time></trkpt><trkpt lat="44.26617819067148" lon="11.423800019128043"><ele>609.6</ele><time>2026-04-04T15:38:29.999Z</time></trkpt><trkpt lat="44.26629553784748" lon="11.423790870055422"><ele>607.0</ele><time>2026-04-04T15:38:30.999Z</time></trkpt><trkpt lat="44.26641654895667" lon="11.423774059082707"><ele>605.75</ele><time>2026-04-04T15:38:31.999Z</time></trkpt><trkpt lat="44.26654528407772" lon="11.423734515759312"><ele>604.5</ele><time>2026-04-04T15:38:32.999Z</time></trkpt><trkpt lat="44.26668240654396" lon="11.423680777441886"><ele>603.25</ele><time>2026-04-04T15:38:33.999Z</time></trkpt><trkpt lat="44.26681037430256" lon="11.42362137731331"><ele>602.0</ele><time>2026-04-04T15:38:34.999Z</time></trkpt><trkpt lat="44.26692797900996" lon="11.423562392069172"><ele>602.0</ele><time>2026-04-04T15:38:35.999Z</time></trkpt><trkpt lat="44.267041464372824" lon="11.42350461169867"><ele>602.0</ele><time>2026-04-04T15:38:36.999Z</time></trkpt><trkpt lat="44.267132375584154" lon="11.423416814298424"><ele>602.0</ele><time>2026-04-04T15:38:37.999Z</time></trkpt><trkpt lat="44.26721248405833" lon="11.42331957838466"><ele>602.0</ele><time>2026-04-04T15:38:38.999Z</time></trkpt><trkpt lat="44.26728947159651" lon="11.42322296814052"><ele>602.0</ele><time>2026-04-04T15:38:39.999Z</time></trkpt><trkpt lat="44.26738236798837" lon="11.423171737250174"><ele>601.25</ele><time>2026-04-04T15:38:40.999Z</time></trkpt><trkpt lat="44.267477898248764" lon="11.423111205699781"><ele>600.5</ele><time>2026-04-04T15:38:41.999Z</time></trkpt><trkpt lat="44.267588355819164" lon="11.423066721371955"><ele>599.75</ele><time>2026-04-04T15:38:42.999Z</time></trkpt><trkpt lat="44.26772221977373" lon="11.423036319276083"><ele>599.0</ele><time>2026-04-04T15:38:43.999Z</time></trkpt><trkpt lat="44.267874801914765" lon="11.423015177470209"><ele>599.25</ele><time>2026-04-04T15:38:44.996Z</time></trkpt><trkpt lat="44.26801961574946" lon="11.42297867218077"><ele>599.5</ele><time>2026-04-04T15:38:45.996Z</time></trkpt><trkpt lat="44.268156513764936" lon="11.422963995220428"><ele>599.75</ele><time>2026-04-04T15:38:46.996Z</time></trkpt><trkpt lat="44.26827976326493" lon="11.422950709746415"><ele>600.0</ele><time>2026-04-04T15:38:47.996Z</time></trkpt><trkpt lat="44.268402405234454" lon="11.422931520750595"><ele>600.2</ele><time>2026-04-04T15:38:48.996Z</time></trkpt><trkpt lat="44.26851788804632" lon="11.422924595594246"><ele>600.4</ele><time>2026-04-04T15:38:49.996Z</time></trkpt><trkpt lat="44.26862779606183" lon="11.422922376550098"><ele>600.6</ele><time>2026-04-04T15:38:50.996Z</time></trkpt><trkpt lat="44.26873894610344" lon="11.422927433244663"><ele>600.8</ele><time>2026-04-04T15:38:51.996Z</time></trkpt><trkpt lat="44.268850022699034" lon="11.422940581634876"><ele>601.0</ele><time>2026-04-04T15:38:52.996Z</time></trkpt><trkpt lat="44.26895498906224" lon="11.422953457167212"><ele>601.0</ele><time>2026-04-04T15:38:53.996Z</time></trkpt><trkpt lat="44.26905727204443" lon="11.422973027710901"><ele>601.0</ele><time>2026-04-04T15:38:54.996Z</time></trkpt><trkpt lat="44.2691519337878" lon="11.422983493579864"><ele>601.0</ele><time>2026-04-04T15:38:55.997Z</time></trkpt><trkpt lat="44.26924230058488" lon="11.42299631362294"><ele>601.0</ele><time>2026-04-04T15:38:56.997Z</time></trkpt><trkpt lat="44.26933115518271" lon="11.423015662001411"><ele>601.0</ele><time>2026-04-04T15:38:57.997Z</time></trkpt><trkpt lat="44.26939722257367" lon="11.423027320601328"><ele>601.0</ele><time>2026-04-04T15:38:58.997Z</time></trkpt><trkpt lat="44.269489946475375" lon="11.423033479617951"><ele>598.0</ele><time>2026-04-04T15:39:00.997Z</time></trkpt><trkpt lat="44.26954073453076" lon="11.42310622105835"><ele>595.0</ele><time>2026-04-04T15:39:02.997Z</time></trkpt><trkpt lat="44.26950077951399" lon="11.423229220128418"><ele>592.0</ele><time>2026-04-04T15:39:04.997Z</time></trkpt><trkpt lat="44.26938040071495" lon="11.423284809657906"><ele>589.0</ele><time>2026-04-04T15:39:06.998Z</time></trkpt><trkpt lat="44.26930708581143" lon="11.42324924366461"><ele>586.0</ele><time>2026-04-04T15:39:07.998Z</time></trkpt><trkpt lat="44.26922343537969" lon="11.423275185627796"><ele>586.0</ele><time>2026-04-04T15:39:08.998Z</time></trkpt><trkpt lat="44.26913093335399" lon="11.423301299918277"><ele>586.0</ele><time>2026-04-04T15:39:09.998Z</time></trkpt><trkpt lat="44.26906168307298" lon="11.423364916569005"><ele>586.0</ele><time>2026-04-04T15:39:10.998Z</time></trkpt><trkpt lat="44.26900284205035" lon="11.423461962601035"><ele>586.0</ele><time>2026-04-04T15:39:11.998Z</time></trkpt><trkpt lat="44.26895073630648" lon="11.423587019605732"><ele>586.0</ele><time>2026-04-04T15:39:12.998Z</time></trkpt><trkpt lat="44.26890479244789" lon="11.423720815235576"><ele>585.6</ele><time>2026-04-04T15:39:13.998Z</time></trkpt><trkpt lat="44.268857396330404" lon="11.423866227531976"><ele>585.2</ele><time>2026-04-04T15:39:14.998Z</time></trkpt><trkpt lat="44.268805466887784" lon="11.42400707210184"><ele>584.8</ele><time>2026-04-04T15:39:15.998Z</time></trkpt><trkpt lat="44.26877254001944" lon="11.424153578342139"><ele>584.4</ele><time>2026-04-04T15:39:16.998Z</time></trkpt><trkpt lat="44.268733797822975" lon="11.424298028539328"><ele>584.0</ele><time>2026-04-04T15:39:17.998Z</time></trkpt><trkpt lat="44.268724279732545" lon="11.424427081021891"><ele>584.0</ele><time>2026-04-04T15:39:18.998Z</time></trkpt><trkpt lat="44.268728358475784" lon="11.424566808289642"><ele>584.0</ele><time>2026-04-04T15:39:19.998Z</time></trkpt><trkpt lat="44.2687130365544" lon="11.42471157222149"><ele>584.0</ele><time>2026-04-04T15:39:20.998Z</time></trkpt><trkpt lat="44.268691080929074" lon="11.42484563852839"><ele>584.0</ele><time>2026-04-04T15:39:21.999Z</time></trkpt><trkpt lat="44.26868373944268" lon="11.42496601407744"><ele>584.0</ele><time>2026-04-04T15:39:22.999Z</time></trkpt><trkpt lat="44.26868540367778" lon="11.425076013727463"><ele>583.3333333333333</ele><time>2026-04-04T15:39:23.999Z</time></trkpt><trkpt lat="44.26870090570712" lon="11.425179991061775"><ele>582.6666666666666</ele><time>2026-04-04T15:39:24.999Z</time></trkpt><trkpt lat="44.26872614226815" lon="11.425286945024983"><ele>582.0</ele><time>2026-04-04T15:39:25.999Z</time></trkpt><trkpt lat="44.26877472448435" lon="11.425388534735122"><ele>581.3333333333334</ele><time>2026-04-04T15:39:26.999Z</time></trkpt><trkpt lat="44.268835708816134" lon="11.425468676359449"><ele>580.6666666666667</ele><time>2026-04-04T15:39:27.999Z</time></trkpt><trkpt lat="44.26891683289964" lon="11.425521263552893"><ele>580.0</ele><time>2026-04-04T15:39:28.999Z</time></trkpt><trkpt lat="44.26901295600362" lon="11.425536319687877"><ele>577.2</ele><time>2026-04-04T15:39:29.999Z</time></trkpt><trkpt lat="44.26909424942498" lon="11.42554813954604"><ele>574.4</ele><time>2026-04-04T15:39:30.999Z</time></trkpt><trkpt lat="44.26916268911003" lon="11.425572170450035"><ele>571.6</ele><time>2026-04-04T15:39:31.999Z</time></trkpt><trkpt lat="44.269237691833254" lon="11.425625443969874"><ele>568.8</ele><time>2026-04-04T15:39:32.999Z</time></trkpt><trkpt lat="44.26931533210748" lon="11.425720610998619"><ele>566.0</ele><time>2026-04-04T15:39:33.999Z</time></trkpt><trkpt lat="44.2693787810513" lon="11.425848881806738"><ele>566.0</ele><time>2026-04-04T15:39:34.999Z</time></trkpt><trkpt lat="44.2694486765772" lon="11.425990946074268"><ele>566.0</ele><time>2026-04-04T15:39:35.999Z</time></trkpt><trkpt lat="44.26953081833541" lon="11.42612621592613"><ele>566.0</ele><time>2026-04-04T15:39:36.999Z</time></trkpt><trkpt lat="44.269597365483506" lon="11.426245921796093"><ele>566.0</ele><time>2026-04-04T15:39:37.999Z</time></trkpt><trkpt lat="44.26965683195552" lon="11.42634131518761"><ele>566.0</ele><time>2026-04-04T15:39:38.999Z</time></trkpt><trkpt lat="44.269710838911855" lon="11.426431993298564"><ele>566.0</ele><time>2026-04-04T15:39:39.999Z</time></trkpt><trkpt lat="44.269771833122064" lon="11.426505744374662"><ele>566.0</ele><time>2026-04-04T15:39:40.999Z</time></trkpt><trkpt lat="44.26982873849832" lon="11.426555645793002"><ele>566.0</ele><time>2026-04-04T15:39:41.999Z</time></trkpt><trkpt lat="44.26987117063815" lon="11.42662410888544"><ele>566.0</ele><time>2026-04-04T15:39:42.999Z</time></trkpt><trkpt lat="44.269879674228925" lon="11.426720675510328"><ele>566.0</ele><time>2026-04-04T15:39:43.999Z</time></trkpt><trkpt lat="44.26985420191095" lon="11.426840743522984"><ele>566.0</ele><time>2026-04-04T15:39:44.999Z</time></trkpt><trkpt lat="44.26978554847164" lon="11.426935689178148"><ele>566.0</ele><time>2026-04-04T15:39:45.999Z</time></trkpt><trkpt lat="44.269732134374735" lon="11.427001970794073"><ele>566.0</ele><time>2026-04-04T15:39:46.999Z</time></trkpt><trkpt lat="44.269700236873355" lon="11.427181063104443"><ele>566.0</ele><time>2026-04-04T15:39:48.999Z</time></trkpt><trkpt lat="44.26975672758284" lon="11.42729222509291"><ele>566.0</ele><time>2026-04-04T15:39:49.999Z</time></trkpt><trkpt lat="44.26982084461485" lon="11.427408094032385"><ele>566.0</ele><time>2026-04-04T15:39:50.999Z</time></trkpt><trkpt lat="44.26986576314444" lon="11.427522522211449"><ele>562.1666666666666</ele><time>2026-04-04T15:39:51.999Z</time></trkpt><trkpt lat="44.269916602605605" lon="11.427625645000854"><ele>558.3333333333333</ele><time>2026-04-04T15:39:52.999Z</time></trkpt><trkpt lat="44.269946772318065" lon="11.427734263329938"><ele>554.5</ele><time>2026-04-04T15:39:53.999Z</time></trkpt><trkpt lat="44.26998656621673" lon="11.427826441786912"><ele>550.6666666666666</ele><time>2026-04-04T15:39:54.999Z</time></trkpt><trkpt lat="44.27004433621958" lon="11.427901722554253"><ele>546.8333333333334</ele><time>2026-04-04T15:39:55.999Z</time></trkpt><trkpt lat="44.27011220026206" lon="11.42794248909872"><ele>543.0</ele><time>2026-04-04T15:39:56.999Z</time></trkpt><trkpt lat="44.270197592136924" lon="11.427968992971861"><ele>543.0</ele><time>2026-04-04T15:39:57.999Z</time></trkpt><trkpt lat="44.27028775744327" lon="11.427973213091343"><ele>543.0</ele><time>2026-04-04T15:39:58.999Z</time></trkpt><trkpt lat="44.27036617963632" lon="11.427969195120152"><ele>543.0</ele><time>2026-04-04T15:39:59.999Z</time></trkpt><trkpt lat="44.270445661239144" lon="11.427999522231106"><ele>543.0</ele><time>2026-04-04T15:40:01Z</time></trkpt><trkpt lat="44.27051655361203" lon="11.42807573934937"><ele>543.0</ele><time>2026-04-04T15:40:02Z</time></trkpt><trkpt lat="44.27056695762845" lon="11.42818136780731"><ele>543.0</ele><time>2026-04-04T15:40:03Z</time></trkpt><trkpt lat="44.270588593394834" lon="11.428289942574295"><ele>543.1666666666666</ele><time>2026-04-04T15:40:04Z</time></trkpt><trkpt lat="44.270577167409606" lon="11.428397495316798"><ele>543.3333333333334</ele><time>2026-04-04T15:40:05Z</time></trkpt><trkpt lat="44.27053704830581" lon="11.428503093653072"><ele>543.5</ele><time>2026-04-04T15:40:06Z</time></trkpt><trkpt lat="44.27049025744006" lon="11.428595472217944"><ele>543.6666666666667</ele><time>2026-04-04T15:40:07Z</time></trkpt><trkpt lat="44.270454111068155" lon="11.428698696539454"><ele>543.8333333333334</ele><time>2026-04-04T15:40:08Z</time></trkpt><trkpt lat="44.27046445006948" lon="11.428811010333295"><ele>544.0</ele><time>2026-04-04T15:40:09Z</time></trkpt><trkpt lat="44.270496180025106" lon="11.428914804043556"><ele>542.3333333333334</ele><time>2026-04-04T15:40:10Z</time></trkpt><trkpt lat="44.270558688992715" lon="11.429013073697456"><ele>540.6666666666667</ele><time>2026-04-04T15:40:11Z</time></trkpt><trkpt lat="44.27062676907593" lon="11.429078286255296"><ele>539.0</ele><time>2026-04-04T15:40:12Z</time></trkpt><trkpt lat="44.27068398992897" lon="11.429167856662783"><ele>537.3333333333334</ele><time>2026-04-04T15:40:13Z</time></trkpt><trkpt lat="44.27070221363343" lon="11.429280115760998"><ele>535.6666666666666</ele><time>2026-04-04T15:40:14Z</time></trkpt><trkpt lat="44.27067831101694" lon="11.42940394393912"><ele>534.0</ele><time>2026-04-04T15:40:15Z</time></trkpt><trkpt lat="44.27068619068293" lon="11.429515548667249"><ele>531.2</ele><time>2026-04-04T15:40:16Z</time></trkpt><trkpt lat="44.270686150033484" lon="11.42961794369299"><ele>528.4</ele><time>2026-04-04T15:40:17Z</time></trkpt><trkpt lat="44.27071542714015" lon="11.429734973481454"><ele>525.6</ele><time>2026-04-04T15:40:18Z</time></trkpt><trkpt lat="44.27078062346558" lon="11.42984884105407"><ele>522.8</ele><time>2026-04-04T15:40:19Z</time></trkpt><trkpt lat="44.27085874929374" lon="11.429969364664135"><ele>520.0</ele><time>2026-04-04T15:40:20Z</time></trkpt><trkpt lat="44.27094034934541" lon="11.430089176001989"><ele>518.0</ele><time>2026-04-04T15:40:21Z</time></trkpt><trkpt lat="44.27101695386351" lon="11.430201062194227"><ele>516.0</ele><time>2026-04-04T15:40:22Z</time></trkpt><trkpt lat="44.271089502728444" lon="11.430317996653125"><ele>514.0</ele><time>2026-04-04T15:40:23Z</time></trkpt><trkpt lat="44.27115990463552" lon="11.430450882159187"><ele>512.0</ele><time>2026-04-04T15:40:24Z</time></trkpt><trkpt lat="44.271234381551665" lon="11.430579695864793"><ele>509.6</ele><time>2026-04-04T15:40:25Z</time></trkpt><trkpt lat="44.27130423178229" lon="11.43070689422744"><ele>507.20000000000005</ele><time>2026-04-04T15:40:26Z</time></trkpt><trkpt lat="44.27137271089169" lon="11.430829794674041"><ele>504.8</ele><time>2026-04-04T15:40:27Z</time></trkpt><trkpt lat="44.27143670685885" lon="11.430937064291422"><ele>502.4</ele><time>2026-04-04T15:40:28Z</time></trkpt><trkpt lat="44.27149726743969" lon="11.431037760859889"><ele>500.0</ele><time>2026-04-04T15:40:29Z</time></trkpt><trkpt lat="44.271551538874625" lon="11.431135731336749"><ele>499.8333333333333</ele><time>2026-04-04T15:40:30Z</time></trkpt><trkpt lat="44.27160515959247" lon="11.431223708574565"><ele>499.66666666666663</ele><time>2026-04-04T15:40:31Z</time></trkpt><trkpt lat="44.271663079568064" lon="11.431307263863424"><ele>499.5</ele><time>2026-04-04T15:40:32Z</time></trkpt><trkpt lat="44.27172261124776" lon="11.431358285276893"><ele>499.33333333333337</ele><time>2026-04-04T15:40:33Z</time></trkpt><trkpt lat="44.271817178145966" lon="11.43141648879778"><ele>499.1666666666667</ele><time>2026-04-04T15:40:35Z</time></trkpt><trkpt lat="44.27182958854485" lon="11.431549882992293"><ele>499.0</ele><time>2026-04-04T15:40:37Z</time></trkpt><trkpt lat="44.27172680759628" lon="11.431665907228233"><ele>496.79999999999995</ele><time>2026-04-04T15:40:39Z</time></trkpt><trkpt lat="44.27163800345407" lon="11.431702247076487"><ele>494.59999999999997</ele><time>2026-04-04T15:40:40Z</time></trkpt><trkpt lat="44.271545009290925" lon="11.43172715236426"><ele>492.4</ele><time>2026-04-04T15:40:41Z</time></trkpt><trkpt lat="44.27145813712156" lon="11.431738074270722"><ele>490.2</ele><time>2026-04-04T15:40:42Z</time></trkpt><trkpt lat="44.27136864192024" lon="11.431759157643736"><ele>488.0</ele><time>2026-04-04T15:40:43Z</time></trkpt><trkpt lat="44.271281895563064" lon="11.43176619732765"><ele>487.16666666666663</ele><time>2026-04-04T15:40:44Z</time></trkpt><trkpt lat="44.27119496494841" lon="11.431765533966951"><ele>486.3333333333333</ele><time>2026-04-04T15:40:45Z</time></trkpt><trkpt lat="44.2711083391736" lon="11.431764202596836"><ele>485.5</ele><time>2026-04-04T15:40:46Z</time></trkpt><trkpt lat="44.27102281564408" lon="11.431777139067178"><ele>484.66666666666663</ele><time>2026-04-04T15:40:47Z</time></trkpt><trkpt lat="44.270934380148354" lon="11.431804022690477"><ele>483.8333333333333</ele><time>2026-04-04T15:40:48Z</time></trkpt><trkpt lat="44.2708462320564" lon="11.431858410837133"><ele>483.0</ele><time>2026-04-04T15:40:49Z</time></trkpt><trkpt lat="44.27077617027451" lon="11.431946952074657"><ele>483.0</ele><time>2026-04-04T15:40:50Z</time></trkpt><trkpt lat="44.270709499357814" lon="11.432054366150943"><ele>482.99999999999994</ele><time>2026-04-04T15:40:50.998Z</time></trkpt><trkpt lat="44.27064594298315" lon="11.4321678804609"><ele>482.99999999999994</ele><time>2026-04-04T15:40:51.998Z</time></trkpt><trkpt lat="44.27056147668279" lon="11.432264721891856"><ele>483.0</ele><time>2026-04-04T15:40:52.998Z</time></trkpt><trkpt lat="44.27048163487149" lon="11.432377300068993"><ele>483.0</ele><time>2026-04-04T15:40:53.999Z</time></trkpt><trkpt lat="44.270396830696875" lon="11.432483622802643"><ele>481.0</ele><time>2026-04-04T15:40:54.999Z</time></trkpt><trkpt lat="44.270318517971916" lon="11.432594929685306"><ele>478.99999999999994</ele><time>2026-04-04T15:40:55.999Z</time></trkpt><trkpt lat="44.2702319272693" lon="11.432690444620565"><ele>476.99999999999994</ele><time>2026-04-04T15:40:56.999Z</time></trkpt><trkpt lat="44.2701495458876" lon="11.432774065286008"><ele>475.0</ele><time>2026-04-04T15:40:57.999Z</time></trkpt><trkpt lat="44.27007078246373" lon="11.432861031691454"><ele>473.0</ele><time>2026-04-04T15:40:58.999Z</time></trkpt><trkpt lat="44.27000384145269" lon="11.432957118850727"><ele>470.79999999999995</ele><time>2026-04-04T15:40:59.999Z</time></trkpt><trkpt lat="44.26995507624131" lon="11.433059997029059"><ele>468.59999999999997</ele><time>2026-04-04T15:41:00.999Z</time></trkpt><trkpt lat="44.26991787521183" lon="11.433173966436698"><ele>466.40000000000003</ele><time>2026-04-04T15:41:01.999Z</time></trkpt><trkpt lat="44.26987382278088" lon="11.433272591536415"><ele>464.20000000000005</ele><time>2026-04-04T15:41:02.999Z</time></trkpt><trkpt lat="44.26980498538369" lon="11.433421655130262"><ele>462.0</ele><time>2026-04-04T15:41:04.999Z</time></trkpt><trkpt lat="44.269757866151124" lon="11.433488330404636"><ele>461.8</ele><time>2026-04-04T15:41:05.999Z</time></trkpt><trkpt lat="44.269670249030675" lon="11.433482493966064"><ele>461.6</ele><time>2026-04-04T15:41:06.999Z</time></trkpt><trkpt lat="44.269577611542736" lon="11.433479194563686"><ele>461.40000000000003</ele><time>2026-04-04T15:41:07.999Z</time></trkpt><trkpt lat="44.26948533663052" lon="11.43351405315344"><ele>461.20000000000005</ele><time>2026-04-04T15:41:08.999Z</time></trkpt><trkpt lat="44.26939542853126" lon="11.433540312423"><ele>461.0</ele><time>2026-04-04T15:41:09.999Z</time></trkpt><trkpt lat="44.2692985584421" lon="11.433585952951281"><ele>461.0</ele><time>2026-04-04T15:41:10.999Z</time></trkpt><trkpt lat="44.26919001086853" lon="11.433631270650897"><ele>461.0</ele><time>2026-04-04T15:41:11.999Z</time></trkpt><trkpt lat="44.269078427132804" lon="11.433700831014992"><ele>461.0</ele><time>2026-04-04T15:41:12.999Z</time></trkpt><trkpt lat="44.26897250037241" lon="11.433759770990605"><ele>461.0</ele><time>2026-04-04T15:41:13.999Z</time></trkpt><trkpt lat="44.26887501237548" lon="11.433814900145501"><ele>459.0</ele><time>2026-04-04T15:41:14.999Z</time></trkpt><trkpt lat="44.26877932724037" lon="11.433861644328646"><ele>457.0</ele><time>2026-04-04T15:41:15.999Z</time></trkpt><trkpt lat="44.26868134476317" lon="11.433898736401112"><ele>455.0</ele><time>2026-04-04T15:41:16.999Z</time></trkpt><trkpt lat="44.268589421215005" lon="11.433921127449391"><ele>453.0</ele><time>2026-04-04T15:41:17.999Z</time></trkpt><trkpt lat="44.26850831738338" lon="11.433933558013921"><ele>451.0</ele><time>2026-04-04T15:41:18.999Z</time></trkpt><trkpt lat="44.26843615935142" lon="11.433949164806194"><ele>451.0</ele><time>2026-04-04T15:41:19.999Z</time></trkpt><trkpt lat="44.26836276645499" lon="11.433981614650861"><ele>451.0</ele><time>2026-04-04T15:41:20.999Z</time></trkpt><trkpt lat="44.26831147696078" lon="11.434106691397067"><ele>451.0</ele><time>2026-04-04T15:41:21.999Z</time></trkpt><trkpt lat="44.26825828239126" lon="11.434215260991824"><ele>451.0</ele><time>2026-04-04T15:41:22.999Z</time></trkpt><trkpt lat="44.26819192963983" lon="11.43429519743625"><ele>451.0</ele><time>2026-04-04T15:41:23.999Z</time></trkpt><trkpt lat="44.268133751678235" lon="11.434390270327812"><ele>451.4</ele><time>2026-04-04T15:41:24.999Z</time></trkpt><trkpt lat="44.26807745233311" lon="11.43447820132287"><ele>451.8</ele><time>2026-04-04T15:41:25.999Z</time></trkpt><trkpt lat="44.268021010609935" lon="11.434559215647173"><ele>452.19999999999993</ele><time>2026-04-04T15:41:26.999Z</time></trkpt><trkpt lat="44.26795332217157" lon="11.434647615461985"><ele>452.59999999999997</ele><time>2026-04-04T15:41:27.999Z</time></trkpt><trkpt lat="44.2678759638526" lon="11.434731732501753"><ele>453.0</ele><time>2026-04-04T15:41:28.999Z</time></trkpt><trkpt lat="44.267790804222514" lon="11.434793149191233"><ele>450.4</ele><time>2026-04-04T15:41:29.999Z</time></trkpt><trkpt lat="44.267691712423954" lon="11.434826335927385"><ele>447.79999999999995</ele><time>2026-04-04T15:41:30.999Z</time></trkpt><trkpt lat="44.26757970897373" lon="11.434862469443104"><ele>445.2</ele><time>2026-04-04T15:41:31.999Z</time></trkpt><trkpt lat="44.26747976817227" lon="11.43489465947681"><ele>442.6</ele><time>2026-04-04T15:41:32.999Z</time></trkpt><trkpt lat="44.267406704422214" lon="11.434945240259587"><ele>440.0</ele><time>2026-04-04T15:41:33.999Z</time></trkpt><trkpt lat="44.26730250711042" lon="11.435013456430926"><ele>439.8</ele><time>2026-04-04T15:41:35.999Z</time></trkpt><trkpt lat="44.26724431187847" lon="11.435098586963042"><ele>439.6</ele><time>2026-04-04T15:41:36.999Z</time></trkpt><trkpt lat="44.26725743386687" lon="11.435241649822954"><ele>439.4</ele><time>2026-04-04T15:41:37.999Z</time></trkpt><trkpt lat="44.26727050908409" lon="11.435375113608442"><ele>439.2</ele><time>2026-04-04T15:41:38.999Z</time></trkpt><trkpt lat="44.267311809583056" lon="11.435529662852062"><ele>439.0</ele><time>2026-04-04T15:41:39.999Z</time></trkpt><trkpt lat="44.267353915521184" lon="11.435663866302582"><ele>437.50000000000006</ele><time>2026-04-04T15:41:40.999Z</time></trkpt><trkpt lat="44.267395776084825" lon="11.435788294035046"><ele>436.0</ele><time>2026-04-04T15:41:41.999Z</time></trkpt><trkpt lat="44.26745042912048" lon="11.435894407394182"><ele>434.5</ele><time>2026-04-04T15:41:42.999Z</time></trkpt><trkpt lat="44.26747475942905" lon="11.435999592131036"><ele>433.0</ele><time>2026-04-04T15:41:43.999Z</time></trkpt><trkpt lat="44.26751825191305" lon="11.43610322357508"><ele>431.50000000000006</ele><time>2026-04-04T15:41:45Z</time></trkpt><trkpt lat="44.267554949404406" lon="11.436198006910907"><ele>430.0</ele><time>2026-04-04T15:41:46Z</time></trkpt><trkpt lat="44.267600221081494" lon="11.436281996590079"><ele>429.6666666666667</ele><time>2026-04-04T15:41:47Z</time></trkpt><trkpt lat="44.26767251618696" lon="11.436344830455159"><ele>429.33333333333337</ele><time>2026-04-04T15:41:48Z</time></trkpt><trkpt lat="44.267759949990094" lon="11.436364325007725"><ele>429.0</ele><time>2026-04-04T15:41:49Z</time></trkpt><trkpt lat="44.26783672403208" lon="11.436375070332064"><ele>428.66666666666663</ele><time>2026-04-04T15:41:50Z</time></trkpt><trkpt lat="44.26791305541417" lon="11.436407559707765"><ele>428.3333333333333</ele><time>2026-04-04T15:41:51Z</time></trkpt><trkpt lat="44.267976821626576" lon="11.43647831338003"><ele>428.0</ele><time>2026-04-04T15:41:52Z</time></trkpt><trkpt lat="44.26801481900456" lon="11.436575213840728"><ele>427.99999999999994</ele><time>2026-04-04T15:41:53Z</time></trkpt><trkpt lat="44.26802275755909" lon="11.436696339841557"><ele>428.0</ele><time>2026-04-04T15:41:54Z</time></trkpt><trkpt lat="44.267996451197206" lon="11.436824559174232"><ele>428.0</ele><time>2026-04-04T15:41:55Z</time></trkpt><trkpt lat="44.26792365764222" lon="11.436916164143646"><ele>428.0</ele><time>2026-04-04T15:41:56Z</time></trkpt><trkpt lat="44.267895968866" lon="11.437009787696017"><ele>427.99999999999994</ele><time>2026-04-04T15:41:57Z</time></trkpt><trkpt lat="44.267881879668536" lon="11.437118968706299"><ele>428.0</ele><time>2026-04-04T15:41:58Z</time></trkpt><trkpt lat="44.26790531145432" lon="11.437236744347759"><ele>428.59999999999997</ele><time>2026-04-04T15:41:59Z</time></trkpt><trkpt lat="44.26796658965151" lon="11.437360380662062"><ele>429.19999999999993</ele><time>2026-04-04T15:42:00Z</time></trkpt><trkpt lat="44.26801598060649" lon="11.437478320735433"><ele>429.8</ele><time>2026-04-04T15:42:01Z</time></trkpt><trkpt lat="44.26805844601993" lon="11.437591312497053"><ele>430.4</ele><time>2026-04-04T15:42:02Z</time></trkpt><trkpt lat="44.268100960378696" lon="11.437716237094966"><ele>431.0</ele><time>2026-04-04T15:42:03Z</time></trkpt><trkpt lat="44.26814506399629" lon="11.437843653958353"><ele>428.4</ele><time>2026-04-04T15:42:04Z</time></trkpt><trkpt lat="44.26819434199474" lon="11.43798285291127"><ele>425.8</ele><time>2026-04-04T15:42:05Z</time></trkpt><trkpt lat="44.26823269961325" lon="11.43812438002456"><ele>423.2</ele><time>2026-04-04T15:42:06Z</time></trkpt><trkpt lat="44.26823445400493" lon="11.438265700008804"><ele>420.59999999999997</ele><time>2026-04-04T15:42:07Z</time></trkpt><trkpt lat="44.26826241133382" lon="11.438394813254476"><ele>418.0</ele><time>2026-04-04T15:42:08Z</time></trkpt><trkpt lat="44.268274579214456" lon="11.438535792979152"><ele>418.0</ele><time>2026-04-04T15:42:09Z</time></trkpt><trkpt lat="44.268321685675915" lon="11.43865066524944"><ele>418.0</ele><time>2026-04-04T15:42:10Z</time></trkpt><trkpt lat="44.26839354210279" lon="11.438726568219028"><ele>418.0</ele><time>2026-04-04T15:42:11Z</time></trkpt><trkpt lat="44.26849097539865" lon="11.438791392707675"><ele>418.0</ele><time>2026-04-04T15:42:12Z</time></trkpt><trkpt lat="44.26856436830776" lon="11.438887387239328"><ele>418.0</ele><time>2026-04-04T15:42:13Z</time></trkpt><trkpt lat="44.26861163647812" lon="11.43902371449737"><ele>420.0</ele><time>2026-04-04T15:42:14Z</time></trkpt><trkpt lat="44.26862685132552" lon="11.439183886357267"><ele>422.0</ele><time>2026-04-04T15:42:15Z</time></trkpt><trkpt lat="44.268659599823074" lon="11.439345641016704"><ele>423.99999999999994</ele><time>2026-04-04T15:42:16Z</time></trkpt><trkpt lat="44.268722570118996" lon="11.439471544537174"><ele>426.0</ele><time>2026-04-04T15:42:17Z</time></trkpt><trkpt lat="44.26880580058506" lon="11.439536899732797"><ele>428.0</ele><time>2026-04-04T15:42:18Z</time></trkpt><trkpt lat="44.268881790200794" lon="11.439586477505262"><ele>425.16666666666663</ele><time>2026-04-04T15:42:19Z</time></trkpt><trkpt lat="44.26894842936861" lon="11.439652371343305"><ele>422.3333333333333</ele><time>2026-04-04T15:42:20Z</time></trkpt><trkpt lat="44.268996447298754" lon="11.439755961651091"><ele>419.5</ele><time>2026-04-04T15:42:21Z</time></trkpt><trkpt lat="44.26903652969265" lon="11.439854533554174"><ele>416.66666666666663</ele><time>2026-04-04T15:42:22Z</time></trkpt><trkpt lat="44.26906633947288" lon="11.439957731385622"><ele>413.8333333333333</ele><time>2026-04-04T15:42:23Z</time></trkpt><trkpt lat="44.269105532810855" lon="11.440074854802573"><ele>411.0</ele><time>2026-04-04T15:42:24Z</time></trkpt><trkpt lat="44.269148849795904" lon="11.440204805774849"><ele>411.0</ele><time>2026-04-04T15:42:25Z</time></trkpt><trkpt lat="44.26919795796508" lon="11.44034750033755"><ele>411.0</ele><time>2026-04-04T15:42:26Z</time></trkpt><trkpt lat="44.26925619221444" lon="11.440507674846959"><ele>411.0</ele><time>2026-04-04T15:42:27Z</time></trkpt><trkpt lat="44.269327559761265" lon="11.440641737204357"><ele>411.0</ele><time>2026-04-04T15:42:28Z</time></trkpt><trkpt lat="44.26935631720578" lon="11.440764348688612"><ele>414.0</ele><time>2026-04-04T15:42:29Z</time></trkpt><trkpt lat="44.26939334240446" lon="11.4408718457855"><ele>417.0</ele><time>2026-04-04T15:42:30Z</time></trkpt><trkpt lat="44.26941927092263" lon="11.44098621425741"><ele>420.0</ele><time>2026-04-04T15:42:31Z</time></trkpt><trkpt lat="44.26941126775153" lon="11.441118218748517"><ele>423.0</ele><time>2026-04-04T15:42:32Z</time></trkpt><trkpt lat="44.26939237773092" lon="11.441261229166974"><ele>426.0</ele><time>2026-04-04T15:42:33.001Z</time></trkpt><trkpt lat="44.26936557854683" lon="11.441404280728444"><ele>427.6</ele><time>2026-04-04T15:42:34.001Z</time></trkpt><trkpt lat="44.26934631768432" lon="11.441520077314049"><ele>429.20000000000005</ele><time>2026-04-04T15:42:35.001Z</time></trkpt><trkpt lat="44.269325191780396" lon="11.441656574606847"><ele>430.79999999999995</ele><time>2026-04-04T15:42:36.001Z</time></trkpt><trkpt lat="44.26931534131131" lon="11.441823353882082"><ele>432.4</ele><time>2026-04-04T15:42:37.001Z</time></trkpt><trkpt lat="44.26928670019493" lon="11.441995739021461"><ele>434.0</ele><time>2026-04-04T15:42:38.001Z</time></trkpt><trkpt lat="44.26926005644738" lon="11.44217401536979"><ele>434.0</ele><time>2026-04-04T15:42:39.001Z</time></trkpt><trkpt lat="44.269242489073534" lon="11.442347275878003"><ele>434.0</ele><time>2026-04-04T15:42:40.001Z</time></trkpt><trkpt lat="44.26923027627487" lon="11.442516095220883"><ele>434.0</ele><time>2026-04-04T15:42:41.001Z</time></trkpt><trkpt lat="44.26921767938418" lon="11.442694405312023"><ele>434.0</ele><time>2026-04-04T15:42:42.001Z</time></trkpt><trkpt lat="44.269220130344806" lon="11.44286378074602"><ele>434.5</ele><time>2026-04-04T15:42:43.001Z</time></trkpt><trkpt lat="44.269227722486626" lon="11.443003250720752"><ele>435.0</ele><time>2026-04-04T15:42:44.001Z</time></trkpt><trkpt lat="44.269246492640576" lon="11.44314173830616"><ele>435.5</ele><time>2026-04-04T15:42:45.001Z</time></trkpt><trkpt lat="44.26936261638171" lon="11.443435266538293"><ele>436.0</ele><time>2026-04-04T15:42:47.001Z</time></trkpt><trkpt lat="44.26943568141859" lon="11.443593438172488"><ele>436.0</ele><time>2026-04-04T15:42:48.001Z</time></trkpt><trkpt lat="44.26951240890915" lon="11.443734912126095"><ele>436.0</ele><time>2026-04-04T15:42:49.001Z</time></trkpt><trkpt lat="44.26958481746052" lon="11.443857130509102"><ele>436.0</ele><time>2026-04-04T15:42:50.001Z</time></trkpt><trkpt lat="44.26966362880634" lon="11.443961857307551"><ele>436.0</ele><time>2026-04-04T15:42:51.001Z</time></trkpt><trkpt lat="44.26972195309784" lon="11.444086704061835"><ele>434.0</ele><time>2026-04-04T15:42:52.001Z</time></trkpt><trkpt lat="44.26978734782086" lon="11.444200981386544"><ele>432.0</ele><time>2026-04-04T15:42:53.001Z</time></trkpt><trkpt lat="44.26984943368764" lon="11.444332184746454"><ele>430.0</ele><time>2026-04-04T15:42:54.001Z</time></trkpt><trkpt lat="44.269906893041686" lon="11.44446984143374"><ele>428.0</ele><time>2026-04-04T15:42:55.001Z</time></trkpt><trkpt lat="44.269969350359546" lon="11.444624675757927"><ele>428.2</ele><time>2026-04-04T15:42:56.001Z</time></trkpt><trkpt lat="44.27002881688968" lon="11.444772096188077"><ele>428.4</ele><time>2026-04-04T15:42:56.999Z</time></trkpt><trkpt lat="44.270101348685564" lon="11.44490565776597"><ele>428.59999999999997</ele><time>2026-04-04T15:42:58Z</time></trkpt><trkpt lat="44.27014827412234" lon="11.445031373665053"><ele>428.79999999999995</ele><time>2026-04-04T15:42:59Z</time></trkpt><trkpt lat="44.27019611291716" lon="11.445148000019648"><ele>429.0</ele><time>2026-04-04T15:43:00Z</time></trkpt><trkpt lat="44.2702382840711" lon="11.445245727505172"><ele>429.0</ele><time>2026-04-04T15:43:01Z</time></trkpt><trkpt lat="44.27029409173701" lon="11.445316712799821"><ele>429.0</ele><time>2026-04-04T15:43:02Z</time></trkpt><trkpt lat="44.270356744405014" lon="11.445363993017963"><ele>429.0</ele><time>2026-04-04T15:43:03Z</time></trkpt><trkpt lat="44.27043913000973" lon="11.445411818698988"><ele>429.0</ele><time>2026-04-04T15:43:04Z</time></trkpt><trkpt lat="44.270523058857215" lon="11.44545457874971"><ele>429.0</ele><time>2026-04-04T15:43:05Z</time></trkpt><trkpt lat="44.270616834782565" lon="11.445488754956243"><ele>429.0</ele><time>2026-04-04T15:43:06Z</time></trkpt><trkpt lat="44.27071413641088" lon="11.445504468599237"><ele>428.4</ele><time>2026-04-04T15:43:07Z</time></trkpt><trkpt lat="44.27080551056611" lon="11.445504276562525"><ele>427.79999999999995</ele><time>2026-04-04T15:43:08Z</time></trkpt><trkpt lat="44.27089716874197" lon="11.445510959417007"><ele>427.20000000000005</ele><time>2026-04-04T15:43:09Z</time></trkpt><trkpt lat="44.27098862956968" lon="11.445502863418623"><ele>426.6</ele><time>2026-04-04T15:43:10Z</time></trkpt><trkpt lat="44.27109083117572" lon="11.445521266007024"><ele>426.0</ele><time>2026-04-04T15:43:11Z</time></trkpt><trkpt lat="44.27118676226136" lon="11.445531084806074"><ele>426.0</ele><time>2026-04-04T15:43:12Z</time></trkpt><trkpt lat="44.27128466815263" lon="11.445549915791194"><ele>426.0</ele><time>2026-04-04T15:43:13Z</time></trkpt><trkpt lat="44.27137563456829" lon="11.445585132727544"><ele>426.0</ele><time>2026-04-04T15:43:14Z</time></trkpt><trkpt lat="44.27145878247663" lon="11.44564375598388"><ele>426.0</ele><time>2026-04-04T15:43:15Z</time></trkpt><trkpt lat="44.27153525330532" lon="11.445729248648929"><ele>426.0</ele><time>2026-04-04T15:43:16Z</time></trkpt><trkpt lat="44.271601744194285" lon="11.445830046216635"><ele>423.5</ele><time>2026-04-04T15:43:17Z</time></trkpt><trkpt lat="44.271665879958285" lon="11.445943373254929"><ele>421.0</ele><time>2026-04-04T15:43:18Z</time></trkpt><trkpt lat="44.27173066127367" lon="11.446072003447359"><ele>418.5</ele><time>2026-04-04T15:43:19Z</time></trkpt><trkpt lat="44.27180781075767" lon="11.44619621740983"><ele>416.0</ele><time>2026-04-04T15:43:20Z</time></trkpt><trkpt lat="44.27189870088845" lon="11.446307795689997"><ele>416.0</ele><time>2026-04-04T15:43:21Z</time></trkpt><trkpt lat="44.271972094148815" lon="11.446435451270785"><ele>416.0</ele><time>2026-04-04T15:43:22Z</time></trkpt><trkpt lat="44.27204837133937" lon="11.446557162476669"><ele>416.0</ele><time>2026-04-04T15:43:23Z</time></trkpt><trkpt lat="44.27212391125742" lon="11.446672900210206"><ele>416.0</ele><time>2026-04-04T15:43:24Z</time></trkpt><trkpt lat="44.27219642835005" lon="11.446788413198671"><ele>415.99999999999994</ele><time>2026-04-04T15:43:25Z</time></trkpt><trkpt lat="44.272257270162314" lon="11.446894793352504"><ele>416.0</ele><time>2026-04-04T15:43:26Z</time></trkpt><trkpt lat="44.27231267206201" lon="11.446984648819932"><ele>416.0</ele><time>2026-04-04T15:43:27Z</time></trkpt><trkpt lat="44.27236652478128" lon="11.447078738511154"><ele>416.0</ele><time>2026-04-04T15:43:28Z</time></trkpt><trkpt lat="44.27241550618025" lon="11.447174994474569"><ele>415.99999999999994</ele><time>2026-04-04T15:43:29.001Z</time></trkpt><trkpt lat="44.27244436959121" lon="11.447302501499406"><ele>416.0</ele><time>2026-04-04T15:43:30.001Z</time></trkpt><trkpt lat="44.27248753858649" lon="11.447414889539047"><ele>413.4</ele><time>2026-04-04T15:43:31.001Z</time></trkpt><trkpt lat="44.272499676323385" lon="11.447557530477535"><ele>410.8</ele><time>2026-04-04T15:43:32.001Z</time></trkpt><trkpt lat="44.272518935214826" lon="11.447700345962819"><ele>408.2</ele><time>2026-04-04T15:43:33.001Z</time></trkpt><trkpt lat="44.2725353836205" lon="11.447841208310848"><ele>405.59999999999997</ele><time>2026-04-04T15:43:34.001Z</time></trkpt><trkpt lat="44.27255564235895" lon="11.447986671341205"><ele>403.0</ele><time>2026-04-04T15:43:35.001Z</time></trkpt><trkpt lat="44.27256917298057" lon="11.44812271103878"><ele>401.59999999999997</ele><time>2026-04-04T15:43:36.001Z</time></trkpt><trkpt lat="44.27257474000594" lon="11.44826606468533"><ele>400.2</ele><time>2026-04-04T15:43:37.001Z</time></trkpt><trkpt lat="44.27257336614215" lon="11.448406767951672"><ele>398.8</ele><time>2026-04-04T15:43:38.001Z</time></trkpt><trkpt lat="44.27256517962302" lon="11.448540815081913"><ele>397.4</ele><time>2026-04-04T15:43:39.001Z</time></trkpt><trkpt lat="44.272553968633396" lon="11.448669116410395"><ele>396.0</ele><time>2026-04-04T15:43:40.001Z</time></trkpt><trkpt lat="44.272542637603856" lon="11.448780519672106"><ele>394.3333333333333</ele><time>2026-04-04T15:43:41.001Z</time></trkpt><trkpt lat="44.2725292314336" lon="11.448898521997899"><ele>392.66666666666663</ele><time>2026-04-04T15:43:42.001Z</time></trkpt><trkpt lat="44.27252154802683" lon="11.449022673081858"><ele>391.0</ele><time>2026-04-04T15:43:43.001Z</time></trkpt><trkpt lat="44.272508445052466" lon="11.449146506656284"><ele>389.3333333333333</ele><time>2026-04-04T15:43:44.001Z</time></trkpt><trkpt lat="44.27251162834471" lon="11.44925767634367"><ele>387.66666666666663</ele><time>2026-04-04T15:43:45.001Z</time></trkpt><trkpt lat="44.27252750578991" lon="11.44935453607574"><ele>386.0</ele><time>2026-04-04T15:43:46.001Z</time></trkpt><trkpt lat="44.27255645763503" lon="11.449442394836781"><ele>385.99999999999994</ele><time>2026-04-04T15:43:47.001Z</time></trkpt><trkpt lat="44.27259524663689" lon="11.449519494148465"><ele>386.0</ele><time>2026-04-04T15:43:48.001Z</time></trkpt><trkpt lat="44.27264430826572" lon="11.449591602519028"><ele>386.0</ele><time>2026-04-04T15:43:49.001Z</time></trkpt><trkpt lat="44.27270307732082" lon="11.449650693520363"><ele>386.0</ele><time>2026-04-04T15:43:50.001Z</time></trkpt><trkpt lat="44.272777369847155" lon="11.44970299581788"><ele>385.99999999999994</ele><time>2026-04-04T15:43:51.001Z</time></trkpt><trkpt lat="44.27286471304859" lon="11.449744014441471"><ele>386.0</ele><time>2026-04-04T15:43:52.001Z</time></trkpt><trkpt lat="44.27295497119169" lon="11.449755382553077"><ele>384.6</ele><time>2026-04-04T15:43:53.001Z</time></trkpt><trkpt lat="44.27304101902756" lon="11.449741276979369"><ele>383.20000000000005</ele><time>2026-04-04T15:43:54.001Z</time></trkpt><trkpt lat="44.27313089838457" lon="11.44970772430518"><ele>381.79999999999995</ele><time>2026-04-04T15:43:55.001Z</time></trkpt><trkpt lat="44.273216429290535" lon="11.449670687086778"><ele>380.4</ele><time>2026-04-04T15:43:56.001Z</time></trkpt><trkpt lat="44.27331146328169" lon="11.4496476710311"><ele>379.0</ele><time>2026-04-04T15:43:57.001Z</time></trkpt><trkpt lat="44.27340631126879" lon="11.449634515571411"><ele>377.16666666666663</ele><time>2026-04-04T15:43:58.001Z</time></trkpt><trkpt lat="44.27350182121897" lon="11.449623191822619"><ele>375.3333333333333</ele><time>2026-04-04T15:43:59.001Z</time></trkpt><trkpt lat="44.27359203758014" lon="11.449616213635332"><ele>373.5</ele><time>2026-04-04T15:44:00.001Z</time></trkpt><trkpt lat="44.2736855284614" lon="11.449610815287581"><ele>371.6666666666667</ele><time>2026-04-04T15:44:01.001Z</time></trkpt><trkpt lat="44.27377077107276" lon="11.44960853213228"><ele>369.83333333333337</ele><time>2026-04-04T15:44:02.001Z</time></trkpt><trkpt lat="44.27383844576548" lon="11.449609646541946"><ele>368.0</ele><time>2026-04-04T15:44:03.001Z</time></trkpt><trkpt lat="44.27393651159893" lon="11.449626688660386"><ele>368.0</ele><time>2026-04-04T15:44:05.001Z</time></trkpt><trkpt lat="44.27401353949274" lon="11.449670407913704"><ele>368.0</ele><time>2026-04-04T15:44:07.001Z</time></trkpt><trkpt lat="44.274002529853654" lon="11.449830008050087"><ele>368.0</ele><time>2026-04-04T15:44:09.001Z</time></trkpt><trkpt lat="44.273952829444546" lon="11.449893134956392"><ele>368.0</ele><time>2026-04-04T15:44:10.001Z</time></trkpt><trkpt lat="44.27387058739048" lon="11.449923289912471"><ele>368.0</ele><time>2026-04-04T15:44:11.001Z</time></trkpt><trkpt lat="44.27379724561914" lon="11.449991618150293"><ele>368.0</ele><time>2026-04-04T15:44:12.001Z</time></trkpt><trkpt lat="44.27374332137678" lon="11.450089931633304"><ele>368.0</ele><time>2026-04-04T15:44:13.001Z</time></trkpt><trkpt lat="44.273675444180554" lon="11.45019231231004"><ele>368.0</ele><time>2026-04-04T15:44:14.001Z</time></trkpt><trkpt lat="44.27365935639698" lon="11.450334391013357"><ele>368.0</ele><time>2026-04-04T15:44:15.002Z</time></trkpt><trkpt lat="44.2736133990182" lon="11.450466598408104"><ele>368.0</ele><time>2026-04-04T15:44:16.002Z</time></trkpt><trkpt lat="44.27356980419962" lon="11.450603525362235"><ele>368.0</ele><time>2026-04-04T15:44:17.002Z</time></trkpt><trkpt lat="44.27350701208464" lon="11.450725819760972"><ele>365.59999999999997</ele><time>2026-04-04T15:44:18.002Z</time></trkpt><trkpt lat="44.273415160788055" lon="11.45081011611978"><ele>363.2</ele><time>2026-04-04T15:44:19.002Z</time></trkpt><trkpt lat="44.27334206714786" lon="11.45090213017622"><ele>360.8</ele><time>2026-04-04T15:44:20.002Z</time></trkpt><trkpt lat="44.273287993685685" lon="11.450996364184103"><ele>358.4</ele><time>2026-04-04T15:44:21.002Z</time></trkpt><trkpt lat="44.2732575814435" lon="11.451117192600664"><ele>356.0</ele><time>2026-04-04T15:44:22.002Z</time></trkpt><trkpt lat="44.2732598518879" lon="11.451269875025547"><ele>354.5</ele><time>2026-04-04T15:44:23.002Z</time></trkpt><trkpt lat="44.27330203231198" lon="11.451453359751984"><ele>353.0</ele><time>2026-04-04T15:44:24.002Z</time></trkpt><trkpt lat="44.27333518834482" lon="11.451644698004479"><ele>351.5</ele><time>2026-04-04T15:44:25.002Z</time></trkpt><trkpt lat="44.27335044730197" lon="11.451846653432915"><ele>350.0</ele><time>2026-04-04T15:44:26.002Z</time></trkpt><trkpt lat="44.27337813602692" lon="11.452032040108408"><ele>348.5</ele><time>2026-04-04T15:44:27.002Z</time></trkpt><trkpt lat="44.27339961849942" lon="11.452206441339124"><ele>347.0</ele><time>2026-04-04T15:44:28.002Z</time></trkpt><trkpt lat="44.27341422408934" lon="11.452378811723662"><ele>345.5</ele><time>2026-04-04T15:44:29.002Z</time></trkpt><trkpt lat="44.27342628181727" lon="11.452548169147706"><ele>344.0</ele><time>2026-04-04T15:44:30.002Z</time></trkpt><trkpt lat="44.273438028024366" lon="11.452705864065893"><ele>344.0</ele><time>2026-04-04T15:44:31.002Z</time></trkpt><trkpt lat="44.273450758606" lon="11.452852003824677"><ele>344.0</ele><time>2026-04-04T15:44:32.002Z</time></trkpt><trkpt lat="44.27348356899833" lon="11.452988129706759"><ele>344.0</ele><time>2026-04-04T15:44:33.002Z</time></trkpt><trkpt lat="44.273513923323385" lon="11.453125826112467"><ele>344.0</ele><time>2026-04-04T15:44:34.002Z</time></trkpt><trkpt lat="44.27355080385387" lon="11.453259449900488"><ele>344.0</ele><time>2026-04-04T15:44:35.002Z</time></trkpt><trkpt lat="44.27360240128522" lon="11.453388037013214"><ele>341.75</ele><time>2026-04-04T15:44:36.002Z</time></trkpt><trkpt lat="44.27366199169018" lon="11.453533407605931"><ele>339.5</ele><time>2026-04-04T15:44:37.002Z</time></trkpt><trkpt lat="44.27371977526726" lon="11.453675686789996"><ele>337.25</ele><time>2026-04-04T15:44:38.002Z</time></trkpt><trkpt lat="44.27377868700166" lon="11.453822346793128"><ele>335.0</ele><time>2026-04-04T15:44:39.002Z</time></trkpt><trkpt lat="44.27383930367223" lon="11.45397091302009"><ele>332.75</ele><time>2026-04-04T15:44:40.002Z</time></trkpt><trkpt lat="44.27390478800721" lon="11.45412421955929"><ele>330.5</ele><time>2026-04-04T15:44:41.002Z</time></trkpt><trkpt lat="44.273961946276934" lon="11.454270617403642"><ele>328.25</ele><time>2026-04-04T15:44:42.002Z</time></trkpt><trkpt lat="44.274017253332936" lon="11.454412865628203"><ele>326.0</ele><time>2026-04-04T15:44:43.002Z</time></trkpt><trkpt lat="44.27406956074072" lon="11.45454958935907"><ele>323.5</ele><time>2026-04-04T15:44:44.002Z</time></trkpt><trkpt lat="44.274127052816915" lon="11.454682649718135"><ele>321.0</ele><time>2026-04-04T15:44:45.002Z</time></trkpt><trkpt lat="44.274181356734076" lon="11.454819842956999"><ele>318.5</ele><time>2026-04-04T15:44:46.002Z</time></trkpt><trkpt lat="44.274241291180665" lon="11.454965786095643"><ele>316.0</ele><time>2026-04-04T15:44:47.002Z</time></trkpt><trkpt lat="44.274301649513056" lon="11.455115708870483"><ele>316.0</ele><time>2026-04-04T15:44:48.002Z</time></trkpt><trkpt lat="44.27435634124627" lon="11.455257045352804"><ele>316.0</ele><time>2026-04-04T15:44:49.002Z</time></trkpt><trkpt lat="44.27440893765164" lon="11.455387452456417"><ele>316.0</ele><time>2026-04-04T15:44:50.002Z</time></trkpt><trkpt lat="44.27447746317979" lon="11.455498744716085"><ele>316.0</ele><time>2026-04-04T15:44:51.002Z</time></trkpt><trkpt lat="44.2745528091441" lon="11.455588402546764"><ele>316.0</ele><time>2026-04-04T15:44:52.002Z</time></trkpt><trkpt lat="44.27465194036735" lon="11.455687755006377"><ele>315.66666666666663</ele><time>2026-04-04T15:44:53.002Z</time></trkpt><trkpt lat="44.274741576740006" lon="11.45577137678029"><ele>315.3333333333333</ele><time>2026-04-04T15:44:54.002Z</time></trkpt><trkpt lat="44.27481929541181" lon="11.455858545491521"><ele>315.0</ele><time>2026-04-04T15:44:55.002Z</time></trkpt><trkpt lat="44.27488396154984" lon="11.455921428619998"><ele>314.6666666666667</ele><time>2026-04-04T15:44:56.002Z</time></trkpt><trkpt lat="44.274938526714394" lon="11.45596670645468"><ele>314.33333333333337</ele><time>2026-04-04T15:44:57.002Z</time></trkpt><trkpt lat="44.27499819290165" lon="11.456060563024344"><ele>314.0</ele><time>2026-04-04T15:44:59.002Z</time></trkpt><trkpt lat="44.274958978955624" lon="11.456208108335513"><ele>314.0</ele><time>2026-04-04T15:45:01.002Z</time></trkpt><trkpt lat="44.274883562410324" lon="11.456236562907117"><ele>314.0</ele><time>2026-04-04T15:45:02.002Z</time></trkpt><trkpt lat="44.27480009754391" lon="11.456203235769335"><ele>314.0</ele><time>2026-04-04T15:45:03.001Z</time></trkpt><trkpt lat="44.27468343333202" lon="11.456206714614735"><ele>314.0</ele><time>2026-04-04T15:45:04.001Z</time></trkpt><trkpt lat="44.27454545279921" lon="11.4562119976424"><ele>314.0</ele><time>2026-04-04T15:45:05.001Z</time></trkpt><trkpt lat="44.274429409197154" lon="11.456206236169885"><ele>313.0</ele><time>2026-04-04T15:45:06.001Z</time></trkpt><trkpt lat="44.274320541628015" lon="11.456212524902678"><ele>312.0</ele><time>2026-04-04T15:45:07.001Z</time></trkpt><trkpt lat="44.27423049145068" lon="11.456198871459327"><ele>311.0</ele><time>2026-04-04T15:45:08.001Z</time></trkpt><trkpt lat="44.27416220169417" lon="11.456183688789181"><ele>310.0</ele><time>2026-04-04T15:45:09.001Z</time></trkpt><trkpt lat="44.27409863582324" lon="11.456201936467737"><ele>309.0</ele><time>2026-04-04T15:45:10.001Z</time></trkpt><trkpt lat="44.27402463876466" lon="11.456270147233992"><ele>308.0</ele><time>2026-04-04T15:45:11.001Z</time></trkpt><trkpt lat="44.27395669317073" lon="11.456400786819366"><ele>306.0</ele><time>2026-04-04T15:45:12.001Z</time></trkpt><trkpt lat="44.27391215148184" lon="11.456552934410164"><ele>304.0</ele><time>2026-04-04T15:45:13.001Z</time></trkpt><trkpt lat="44.27386310997412" lon="11.456679299439376"><ele>302.0</ele><time>2026-04-04T15:45:14.001Z</time></trkpt><trkpt lat="44.27383041616738" lon="11.456796618481649"><ele>300.0</ele><time>2026-04-04T15:45:15.001Z</time></trkpt><trkpt lat="44.27380285111257" lon="11.45689222282546"><ele>298.0</ele><time>2026-04-04T15:45:16.001Z</time></trkpt><trkpt lat="44.273773383422935" lon="11.456971411472281"><ele>296.0</ele><time>2026-04-04T15:45:17.001Z</time></trkpt><trkpt lat="44.27365698671967" lon="11.457066589945269"><ele>296.0</ele><time>2026-04-04T15:45:19.001Z</time></trkpt><trkpt lat="44.27358675800821" lon="11.457105316795547"><ele>296.0</ele><time>2026-04-04T15:45:20.001Z</time></trkpt><trkpt lat="44.27350038738431" lon="11.4571717400104"><ele>296.0</ele><time>2026-04-04T15:45:22.001Z</time></trkpt><trkpt lat="44.273526418376235" lon="11.457334134425832"><ele>296.0</ele><time>2026-04-04T15:45:24.001Z</time></trkpt><trkpt lat="44.27358181609156" lon="11.457390662861355"><ele>296.0</ele><time>2026-04-04T15:45:25.001Z</time></trkpt><trkpt lat="44.27364521182113" lon="11.457414230750127"><ele>296.0</ele><time>2026-04-04T15:45:26.001Z</time></trkpt><trkpt lat="44.27373030025044" lon="11.457413558173643"><ele>294.5</ele><time>2026-04-04T15:45:28.001Z</time></trkpt><trkpt lat="44.2737936725732" lon="11.45745153893972"><ele>293.0</ele><time>2026-04-04T15:45:31.001Z</time></trkpt><trkpt lat="44.27381474733442" lon="11.45755871790539"><ele>291.5</ele><time>2026-04-04T15:45:36.001Z</time></trkpt><trkpt lat="44.27384260435172" lon="11.457645065496532"><ele>290.0</ele><time>2026-04-04T15:45:38.001Z</time></trkpt><trkpt lat="44.27395754718979" lon="11.457698380652365"><ele>288.5</ele><time>2026-04-04T15:45:40.001Z</time></trkpt><trkpt lat="44.274037085186144" lon="11.45770704991002"><ele>287.0</ele><time>2026-04-04T15:45:41.001Z</time></trkpt><trkpt lat="44.27412060944524" lon="11.457731581305932"><ele>287.0</ele><time>2026-04-04T15:45:42.001Z</time></trkpt><trkpt lat="44.27420222874778" lon="11.457763848639964"><ele>287.0</ele><time>2026-04-04T15:45:43.001Z</time></trkpt><trkpt lat="44.27428907757005" lon="11.457796157982564"><ele>287.0</ele><time>2026-04-04T15:45:44.001Z</time></trkpt><trkpt lat="44.27439904063275" lon="11.457837348161418"><ele>287.0</ele><time>2026-04-04T15:45:45.001Z</time></trkpt><trkpt lat="44.274504484318726" lon="11.457893582809588"><ele>287.0</ele><time>2026-04-04T15:45:46.001Z</time></trkpt><trkpt lat="44.274608948091576" lon="11.457969577741899"><ele>284.75</ele><time>2026-04-04T15:45:47.001Z</time></trkpt><trkpt lat="44.274704156165804" lon="11.458088424366979"><ele>282.5</ele><time>2026-04-04T15:45:48.001Z</time></trkpt><trkpt lat="44.27482693830015" lon="11.458194759913924"><ele>280.25</ele><time>2026-04-04T15:45:49.001Z</time></trkpt><trkpt lat="44.2749299169126" lon="11.458317807749056"><ele>278.0</ele><time>2026-04-04T15:45:50.001Z</time></trkpt><trkpt lat="44.27502453781809" lon="11.458423992526209"><ele>278.0</ele><time>2026-04-04T15:45:51.001Z</time></trkpt><trkpt lat="44.27511749885657" lon="11.458518385815657"><ele>278.0</ele><time>2026-04-04T15:45:52.001Z</time></trkpt><trkpt lat="44.27522450495248" lon="11.458594268489136"><ele>278.0</ele><time>2026-04-04T15:45:53.001Z</time></trkpt><trkpt lat="44.27532982692365" lon="11.45866410968788"><ele>278.0</ele><time>2026-04-04T15:45:54.001Z</time></trkpt><trkpt lat="44.27543629655721" lon="11.458718460323661"><ele>278.0</ele><time>2026-04-04T15:45:55.001Z</time></trkpt><trkpt lat="44.27554655921841" lon="11.458760002732182"><ele>278.0</ele><time>2026-04-04T15:45:56.001Z</time></trkpt><trkpt lat="44.27566028399985" lon="11.458786413546699"><ele>278.0</ele><time>2026-04-04T15:45:57.001Z</time></trkpt><trkpt lat="44.27577558316865" lon="11.458807927681118"><ele>278.0</ele><time>2026-04-04T15:45:58.001Z</time></trkpt><trkpt lat="44.275903472559904" lon="11.45882281257525"><ele>277.0</ele><time>2026-04-04T15:45:59.001Z</time></trkpt><trkpt lat="44.27604024043679" lon="11.458857117266561"><ele>276.0</ele><time>2026-04-04T15:46:00.001Z</time></trkpt><trkpt lat="44.27618380811309" lon="11.458891427310814"><ele>275.0</ele><time>2026-04-04T15:46:01.001Z</time></trkpt><trkpt lat="44.276329185876435" lon="11.458913669055697"><ele>274.0</ele><time>2026-04-04T15:46:02.001Z</time></trkpt><trkpt lat="44.27646300651107" lon="11.45891708519637"><ele>273.0</ele><time>2026-04-04T15:46:03.001Z</time></trkpt><trkpt lat="44.27659348095873" lon="11.458906338946072"><ele>272.0</ele><time>2026-04-04T15:46:04.001Z</time></trkpt><trkpt lat="44.27672004000469" lon="11.458879864869836"><ele>271.0</ele><time>2026-04-04T15:46:05.001Z</time></trkpt><trkpt lat="44.27683932030299" lon="11.458821038860432"><ele>270.0</ele><time>2026-04-04T15:46:06.001Z</time></trkpt><trkpt lat="44.276942199092915" lon="11.458730403584495"><ele>270.4</ele><time>2026-04-04T15:46:07.001Z</time></trkpt><trkpt lat="44.27702565706786" lon="11.45862948689652"><ele>270.8</ele><time>2026-04-04T15:46:08.001Z</time></trkpt><trkpt lat="44.27709911663373" lon="11.458549662016367"><ele>271.2</ele><time>2026-04-04T15:46:09.001Z</time></trkpt><trkpt lat="44.27718932026165" lon="11.458494963901808"><ele>271.6</ele><time>2026-04-04T15:46:10.001Z</time></trkpt><trkpt lat="44.27729658114629" lon="11.4585196729267"><ele>272.0</ele><time>2026-04-04T15:46:11.001Z</time></trkpt><trkpt lat="44.27740171430884" lon="11.45857497963074"><ele>272.0</ele><time>2026-04-04T15:46:12.001Z</time></trkpt><trkpt lat="44.277509933256" lon="11.458657843771272"><ele>272.0</ele><time>2026-04-04T15:46:13.001Z</time></trkpt><trkpt lat="44.27765044833216" lon="11.458760484109627"><ele>272.0</ele><time>2026-04-04T15:46:14.001Z</time></trkpt><trkpt lat="44.27778077689637" lon="11.458833589849764"><ele>272.0</ele><time>2026-04-04T15:46:15.001Z</time></trkpt><trkpt lat="44.277884962724755" lon="11.458914850754203"><ele>271.8</ele><time>2026-04-04T15:46:16.001Z</time></trkpt><trkpt lat="44.27797708827957" lon="11.458978061987635"><ele>271.6</ele><time>2026-04-04T15:46:17.001Z</time></trkpt><trkpt lat="44.27807295576619" lon="11.459010657529133"><ele>271.40000000000003</ele><time>2026-04-04T15:46:18.001Z</time></trkpt><trkpt lat="44.27816565279636" lon="11.458961005385165"><ele>271.2</ele><time>2026-04-04T15:46:19.001Z</time></trkpt><trkpt lat="44.278264956815306" lon="11.458849836843525"><ele>271.0</ele><time>2026-04-04T15:46:20.001Z</time></trkpt><trkpt lat="44.27834945512241" lon="11.458695901472938"><ele>271.0</ele><time>2026-04-04T15:46:21.002Z</time></trkpt><trkpt lat="44.27842722217568" lon="11.458539790259028"><ele>271.0</ele><time>2026-04-04T15:46:22.002Z</time></trkpt><trkpt lat="44.27851730622198" lon="11.458379327231873"><ele>271.0</ele><time>2026-04-04T15:46:23.002Z</time></trkpt><trkpt lat="44.278629396000376" lon="11.458236343275491"><ele>271.0</ele><time>2026-04-04T15:46:24.002Z</time></trkpt><trkpt lat="44.27875015465612" lon="11.458153663091673"><ele>271.0</ele><time>2026-04-04T15:46:25.002Z</time></trkpt><trkpt lat="44.278858655307786" lon="11.458054938058291"><ele>271.0</ele><time>2026-04-04T15:46:26.002Z</time></trkpt><trkpt lat="44.27899000589318" lon="11.457989938398368"><ele>271.0</ele><time>2026-04-04T15:46:27.002Z</time></trkpt><trkpt lat="44.27913150409746" lon="11.457949498316504"><ele>271.0</ele><time>2026-04-04T15:46:28.002Z</time></trkpt><trkpt lat="44.2792613611744" lon="11.457948129854255"><ele>271.0</ele><time>2026-04-04T15:46:29.002Z</time></trkpt><trkpt lat="44.27937531078508" lon="11.45796828222745"><ele>271.0</ele><time>2026-04-04T15:46:30.002Z</time></trkpt><trkpt lat="44.27948387219007" lon="11.45799528939101"><ele>271.0</ele><time>2026-04-04T15:46:31.002Z</time></trkpt><trkpt lat="44.279578564937275" lon="11.458009169709303"><ele>271.0</ele><time>2026-04-04T15:46:32.002Z</time></trkpt><trkpt lat="44.27966261507035" lon="11.457960524499036"><ele>271.0</ele><time>2026-04-04T15:46:33.002Z</time></trkpt><trkpt lat="44.27971585000688" lon="11.457866843317962"><ele>271.0</ele><time>2026-04-04T15:46:34.002Z</time></trkpt><trkpt lat="44.27972643078003" lon="11.457730124783874"><ele>271.0</ele><time>2026-04-04T15:46:35.002Z</time></trkpt><trkpt lat="44.27971241356429" lon="11.45756751316893"><ele>271.0</ele><time>2026-04-04T15:46:36.002Z</time></trkpt><trkpt lat="44.27970283850377" lon="11.457410854087437"><ele>271.0</ele><time>2026-04-04T15:46:37.002Z</time></trkpt><trkpt lat="44.279708112779794" lon="11.457252450595544"><ele>271.0</ele><time>2026-04-04T15:46:38.002Z</time></trkpt><trkpt lat="44.27972941416117" lon="11.457098599042105"><ele>271.75</ele><time>2026-04-04T15:46:39.002Z</time></trkpt><trkpt lat="44.27976581411373" lon="11.456938788597238"><ele>272.5</ele><time>2026-04-04T15:46:40.002Z</time></trkpt><trkpt lat="44.2798141275513" lon="11.456773682114088"><ele>273.25</ele><time>2026-04-04T15:46:41.002Z</time></trkpt><trkpt lat="44.27987239387006" lon="11.456620362281555"><ele>274.0</ele><time>2026-04-04T15:46:42.002Z</time></trkpt><trkpt lat="44.279931103829256" lon="11.456479827350456"><ele>274.0</ele><time>2026-04-04T15:46:43.002Z</time></trkpt><trkpt lat="44.27998470707215" lon="11.456339084940954"><ele>274.0</ele><time>2026-04-04T15:46:44.002Z</time></trkpt><trkpt lat="44.2800350443098" lon="11.456203463591836"><ele>274.0</ele><time>2026-04-04T15:46:45.002Z</time></trkpt><trkpt lat="44.28008785342539" lon="11.456052402826133"><ele>274.0</ele><time>2026-04-04T15:46:46.002Z</time></trkpt><trkpt lat="44.28014238031115" lon="11.4558971939006"><ele>271.75</ele><time>2026-04-04T15:46:47.002Z</time></trkpt><trkpt lat="44.28019477695469" lon="11.455755071905749"><ele>269.5</ele><time>2026-04-04T15:46:48.002Z</time></trkpt><trkpt lat="44.28024921423571" lon="11.455625299443815"><ele>267.25</ele><time>2026-04-04T15:46:49.002Z</time></trkpt><trkpt lat="44.28031902956596" lon="11.45549294944651"><ele>265.0</ele><time>2026-04-04T15:46:50.002Z</time></trkpt><trkpt lat="44.28041158279159" lon="11.455366104446625"><ele>264.5</ele><time>2026-04-04T15:46:51.002Z</time></trkpt><trkpt lat="44.2805102337963" lon="11.455240428763716"><ele>264.0</ele><time>2026-04-04T15:46:52.002Z</time></trkpt><trkpt lat="44.280609316147924" lon="11.455117669641577"><ele>263.5</ele><time>2026-04-04T15:46:53.002Z</time></trkpt><trkpt lat="44.2807123524356" lon="11.45499794855959"><ele>263.0</ele><time>2026-04-04T15:46:54.002Z</time></trkpt><trkpt lat="44.280823357144996" lon="11.454879867810707"><ele>263.0</ele><time>2026-04-04T15:46:55.002Z</time></trkpt><trkpt lat="44.280945015924566" lon="11.454764364985328"><ele>263.0</ele><time>2026-04-04T15:46:56.002Z</time></trkpt><trkpt lat="44.28107077693006" lon="11.454668990503547"><ele>263.0</ele><time>2026-04-04T15:46:57.002Z</time></trkpt><trkpt lat="44.28119201153739" lon="11.454581291530282"><ele>263.0</ele><time>2026-04-04T15:46:58.002Z</time></trkpt><trkpt lat="44.28131012952588" lon="11.454486124929371"><ele>262.5</ele><time>2026-04-04T15:46:59.002Z</time></trkpt><trkpt lat="44.28141726602701" lon="11.454375968223998"><ele>262.0</ele><time>2026-04-04T15:47:00.002Z</time></trkpt><trkpt lat="44.2815020988143" lon="11.45425516986674"><ele>261.5</ele><time>2026-04-04T15:47:01.002Z</time></trkpt><trkpt lat="44.28157574820892" lon="11.454120006250493"><ele>261.0</ele><time>2026-04-04T15:47:02.002Z</time></trkpt><trkpt lat="44.28163069192911" lon="11.453983744004855"><ele>261.0</ele><time>2026-04-04T15:47:03.002Z</time></trkpt><trkpt lat="44.28168302508213" lon="11.453867077125171"><ele>261.0</ele><time>2026-04-04T15:47:04.002Z</time></trkpt><trkpt lat="44.28176084693071" lon="11.453775385173547"><ele>261.0</ele><time>2026-04-04T15:47:05.002Z</time></trkpt><trkpt lat="44.281868741333746" lon="11.453704966871856"><ele>261.0</ele><time>2026-04-04T15:47:06.002Z</time></trkpt><trkpt lat="44.28199098933164" lon="11.453675400240341"><ele>261.0</ele><time>2026-04-04T15:47:07.002Z</time></trkpt><trkpt lat="44.28211802973971" lon="11.453657493932205"><ele>260.40000000000003</ele><time>2026-04-04T15:47:08.002Z</time></trkpt><trkpt lat="44.28222623457487" lon="11.453629290714717"><ele>259.8</ele><time>2026-04-04T15:47:09.001Z</time></trkpt><trkpt lat="44.28232409830297" lon="11.453576496998826"><ele>259.20000000000005</ele><time>2026-04-04T15:47:10.001Z</time></trkpt><trkpt lat="44.28241371108152" lon="11.453479932304226"><ele>258.6</ele><time>2026-04-04T15:47:11.001Z</time></trkpt><trkpt lat="44.28247964499159" lon="11.453339113162283"><ele>258.0</ele><time>2026-04-04T15:47:12.001Z</time></trkpt><trkpt lat="44.282520858363405" lon="11.45317423131911"><ele>258.0</ele><time>2026-04-04T15:47:13.001Z</time></trkpt><trkpt lat="44.28254582817638" lon="11.453032377802646"><ele>258.0</ele><time>2026-04-04T15:47:14.001Z</time></trkpt><trkpt lat="44.28259239463365" lon="11.452915230273849"><ele>258.0</ele><time>2026-04-04T15:47:15.001Z</time></trkpt><trkpt lat="44.28266649593689" lon="11.45283639151656"><ele>258.0</ele><time>2026-04-04T15:47:16.001Z</time></trkpt><trkpt lat="44.28276389799109" lon="11.452794821698774"><ele>258.0</ele><time>2026-04-04T15:47:17.001Z</time></trkpt><trkpt lat="44.28288058952965" lon="11.45277620743951"><ele>256.0</ele><time>2026-04-04T15:47:18.001Z</time></trkpt><trkpt lat="44.2830050001691" lon="11.452778380836886"><ele>254.0</ele><time>2026-04-04T15:47:19.001Z</time></trkpt><trkpt lat="44.28325675676833" lon="11.452812549286902"><ele>252.0</ele><time>2026-04-04T15:47:21.001Z</time></trkpt><trkpt lat="44.2833672471559" lon="11.452902397408101"><ele>253.75</ele><time>2026-04-04T15:47:22.001Z</time></trkpt><trkpt lat="44.28348271518148" lon="11.452983118646054"><ele>255.5</ele><time>2026-04-04T15:47:23.001Z</time></trkpt><trkpt lat="44.283587792593735" lon="11.453056379543415"><ele>257.25</ele><time>2026-04-04T15:47:24.001Z</time></trkpt><trkpt lat="44.283702532675356" lon="11.453071942202268"><ele>259.0</ele><time>2026-04-04T15:47:25.001Z</time></trkpt><trkpt lat="44.28381885628598" lon="11.45303695984107"><ele>259.0</ele><time>2026-04-04T15:47:26.001Z</time></trkpt><trkpt lat="44.28392901967644" lon="11.452966259764072"><ele>259.0</ele><time>2026-04-04T15:47:27.001Z</time></trkpt><trkpt lat="44.284013319116234" lon="11.452889898844576"><ele>259.0</ele><time>2026-04-04T15:47:28.001Z</time></trkpt><trkpt lat="44.284076864756386" lon="11.452824598485163"><ele>259.0</ele><time>2026-04-04T15:47:29.001Z</time></trkpt><trkpt lat="44.28411774241514" lon="11.452733763406789"><ele>259.0</ele><time>2026-04-04T15:47:30.001Z</time></trkpt><trkpt lat="44.28413148169041" lon="11.452602634690768"><ele>258.0</ele><time>2026-04-04T15:47:31.001Z</time></trkpt><trkpt lat="44.284113329799865" lon="11.45244373196996"><ele>257.0</ele><time>2026-04-04T15:47:32.001Z</time></trkpt><trkpt lat="44.28407528162224" lon="11.452279067822543"><ele>256.0</ele><time>2026-04-04T15:47:33.001Z</time></trkpt><trkpt lat="44.28405785105035" lon="11.452101359771602"><ele>255.0</ele><time>2026-04-04T15:47:34.001Z</time></trkpt><trkpt lat="44.28409348916169" lon="11.451923982445214"><ele>254.0</ele><time>2026-04-04T15:47:35.001Z</time></trkpt><trkpt lat="44.28413072691965" lon="11.451766645835992"><ele>253.0</ele><time>2026-04-04T15:47:36.001Z</time></trkpt><trkpt lat="44.28420061021534" lon="11.451642613166573"><ele>252.0</ele><time>2026-04-04T15:47:37.001Z</time></trkpt><trkpt lat="44.28430204964308" lon="11.45155202910107"><ele>251.0</ele><time>2026-04-04T15:47:38.001Z</time></trkpt><trkpt lat="44.284417767286044" lon="11.451479676213062"><ele>251.0</ele><time>2026-04-04T15:47:39.001Z</time></trkpt><trkpt lat="44.28454717413955" lon="11.451436964621776"><ele>251.0</ele><time>2026-04-04T15:47:40.001Z</time></trkpt><trkpt lat="44.28468439065616" lon="11.451423898699227"><ele>251.0</ele><time>2026-04-04T15:47:41.001Z</time></trkpt><trkpt lat="44.28482840532078" lon="11.45141630641899"><ele>251.0</ele><time>2026-04-04T15:47:42.001Z</time></trkpt><trkpt lat="44.285005048763516" lon="11.451421371119748"><ele>252.33333333333334</ele><time>2026-04-04T15:47:43.001Z</time></trkpt><trkpt lat="44.28517760159396" lon="11.451437094564028"><ele>253.66666666666669</ele><time>2026-04-04T15:47:44.001Z</time></trkpt><trkpt lat="44.28533335728346" lon="11.45146251263927"><ele>255.0</ele><time>2026-04-04T15:47:45.001Z</time></trkpt><trkpt lat="44.28547051786873" lon="11.451497830558171"><ele>255.0</ele><time>2026-04-04T15:47:46.001Z</time></trkpt><trkpt lat="44.28558823201736" lon="11.451551533475868"><ele>255.0</ele><time>2026-04-04T15:47:47.001Z</time></trkpt><trkpt lat="44.28568183889199" lon="11.451623987112555"><ele>255.0</ele><time>2026-04-04T15:47:48.001Z</time></trkpt><trkpt lat="44.28574706058803" lon="11.451762987171582"><ele>255.0</ele><time>2026-04-04T15:47:49.001Z</time></trkpt><trkpt lat="44.28581779072732" lon="11.45191582743524"><ele>255.8</ele><time>2026-04-04T15:47:50.001Z</time></trkpt><trkpt lat="44.28586098103347" lon="11.452057651618835"><ele>256.6</ele><time>2026-04-04T15:47:51.001Z</time></trkpt><trkpt lat="44.285913726471996" lon="11.452160128294432"><ele>257.4</ele><time>2026-04-04T15:47:52.001Z</time></trkpt><trkpt lat="44.285997056876006" lon="11.45221346145044"><ele>258.2</ele><time>2026-04-04T15:47:53.001Z</time></trkpt><trkpt lat="44.28611015492057" lon="11.452235864785747"><ele>259.0</ele><time>2026-04-04T15:47:54.001Z</time></trkpt><trkpt lat="44.28622178509626" lon="11.452216710859954"><ele>259.0</ele><time>2026-04-04T15:47:55.001Z</time></trkpt><trkpt lat="44.28631630714165" lon="11.452160326027219"><ele>259.0</ele><time>2026-04-04T15:47:56.001Z</time></trkpt><trkpt lat="44.28639498166473" lon="11.452094413235777"><ele>259.0</ele><time>2026-04-04T15:47:57.001Z</time></trkpt><trkpt lat="44.286444993762586" lon="11.452003608998943"><ele>259.0</ele><time>2026-04-04T15:47:58.001Z</time></trkpt><trkpt lat="44.28647976636938" lon="11.451899069053459"><ele>259.0</ele><time>2026-04-04T15:47:59.001Z</time></trkpt><trkpt lat="44.286504035473385" lon="11.451782595633675"><ele>259.0</ele><time>2026-04-04T15:48:00.001Z</time></trkpt><trkpt lat="44.2865254537226" lon="11.451677848085486"><ele>256.59999999999997</ele><time>2026-04-04T15:48:01.001Z</time></trkpt><trkpt lat="44.28655941558847" lon="11.451578888763114"><ele>254.2</ele><time>2026-04-04T15:48:02.001Z</time></trkpt><trkpt lat="44.28662492312962" lon="11.451485525846126"><ele>251.79999999999998</ele><time>2026-04-04T15:48:03.001Z</time></trkpt><trkpt lat="44.28671980351882" lon="11.451417755602181"><ele>249.39999999999998</ele><time>2026-04-04T15:48:04.001Z</time></trkpt><trkpt lat="44.286840919682966" lon="11.451402557842535"><ele>247.0</ele><time>2026-04-04T15:48:05.001Z</time></trkpt><trkpt lat="44.28695354426006" lon="11.451345706374946"><ele>244.75</ele><time>2026-04-04T15:48:06.001Z</time></trkpt><trkpt lat="44.28706029747822" lon="11.451283694173402"><ele>242.5</ele><time>2026-04-04T15:48:07.001Z</time></trkpt><trkpt lat="44.28714091478543" lon="11.451174922862887"><ele>240.25</ele><time>2026-04-04T15:48:08.001Z</time></trkpt><trkpt lat="44.28719503061785" lon="11.45103869572274"><ele>238.0</ele><time>2026-04-04T15:48:09.001Z</time></trkpt><trkpt lat="44.287247589509505" lon="11.450892681288876"><ele>237.75</ele><time>2026-04-04T15:48:10.001Z</time></trkpt><trkpt lat="44.2873108284837" lon="11.450729309218797"><ele>237.5</ele><time>2026-04-04T15:48:11.001Z</time></trkpt><trkpt lat="44.287375442730216" lon="11.450562638018965"><ele>237.25</ele><time>2026-04-04T15:48:12.001Z</time></trkpt><trkpt lat="44.287433952939544" lon="11.450419706259618"><ele>237.0</ele><time>2026-04-04T15:48:13.001Z</time></trkpt><trkpt lat="44.28748280721758" lon="11.450286814630644"><ele>237.0</ele><time>2026-04-04T15:48:14.001Z</time></trkpt><trkpt lat="44.28752914099605" lon="11.450156454304489"><ele>237.0</ele><time>2026-04-04T15:48:15.001Z</time></trkpt><trkpt lat="44.2875909918447" lon="11.450045213270249"><ele>237.0</ele><time>2026-04-04T15:48:16.001Z</time></trkpt><trkpt lat="44.28764451332433" lon="11.449929165697387"><ele>237.0</ele><time>2026-04-04T15:48:17.001Z</time></trkpt><trkpt lat="44.2877391907584" lon="11.449852008095311"><ele>237.0</ele><time>2026-04-04T15:48:18.001Z</time></trkpt><trkpt lat="44.287853590957084" lon="11.44977457883727"><ele>237.0</ele><time>2026-04-04T15:48:19.001Z</time></trkpt><trkpt lat="44.28798815647818" lon="11.449741864443212"><ele>237.0</ele><time>2026-04-04T15:48:20.001Z</time></trkpt><trkpt lat="44.28811852623317" lon="11.449662540084805"><ele>237.0</ele><time>2026-04-04T15:48:21.001Z</time></trkpt><trkpt lat="44.288254470902686" lon="11.449587033790008"><ele>237.0</ele><time>2026-04-04T15:48:22.001Z</time></trkpt><trkpt lat="44.288374597162914" lon="11.449508703425108"><ele>236.5</ele><time>2026-04-04T15:48:23.001Z</time></trkpt><trkpt lat="44.288488845849606" lon="11.449455856123999"><ele>236.0</ele><time>2026-04-04T15:48:24.001Z</time></trkpt><trkpt lat="44.28861007610753" lon="11.449398946095194"><ele>235.5</ele><time>2026-04-04T15:48:25.001Z</time></trkpt><trkpt lat="44.288742175674756" lon="11.449365022976725"><ele>235.0</ele><time>2026-04-04T15:48:26.001Z</time></trkpt><trkpt lat="44.28888626091649" lon="11.449346549390437"><ele>235.0</ele><time>2026-04-04T15:48:27.001Z</time></trkpt><trkpt lat="44.28904391238936" lon="11.449333373870168"><ele>235.0</ele><time>2026-04-04T15:48:28.001Z</time></trkpt><trkpt lat="44.28921705613874" lon="11.449325296315958"><ele>235.0</ele><time>2026-04-04T15:48:29.001Z</time></trkpt><trkpt lat="44.28941299590249" lon="11.449311259248251"><ele>235.0</ele><time>2026-04-04T15:48:30.001Z</time></trkpt><trkpt lat="44.28960717823508" lon="11.449283864981217"><ele>235.0</ele><time>2026-04-04T15:48:31.001Z</time></trkpt><trkpt lat="44.28976087482514" lon="11.44924632929408"><ele>235.0</ele><time>2026-04-04T15:48:32.001Z</time></trkpt><trkpt lat="44.28988857115368" lon="11.44920721810802"><ele>235.5</ele><time>2026-04-04T15:48:33.001Z</time></trkpt><trkpt lat="44.290005630940286" lon="11.449155580563042"><ele>236.0</ele><time>2026-04-04T15:48:34.001Z</time></trkpt><trkpt lat="44.29011433867056" lon="11.44907011706807"><ele>236.5</ele><time>2026-04-04T15:48:35.002Z</time></trkpt><trkpt lat="44.29020550423657" lon="11.448962619981437"><ele>237.0</ele><time>2026-04-04T15:48:36.002Z</time></trkpt><trkpt lat="44.290286475278" lon="11.44886041307332"><ele>235.75</ele><time>2026-04-04T15:48:37.002Z</time></trkpt><trkpt lat="44.290380770105195" lon="11.448759986169726"><ele>234.5</ele><time>2026-04-04T15:48:38.002Z</time></trkpt><trkpt lat="44.29047998880469" lon="11.448660343515684"><ele>233.25</ele><time>2026-04-04T15:48:39.002Z</time></trkpt><trkpt lat="44.2905695859605" lon="11.448579145263222"><ele>232.0</ele><time>2026-04-04T15:48:40.002Z</time></trkpt><trkpt lat="44.29066722469782" lon="11.448512378176412"><ele>232.0</ele><time>2026-04-04T15:48:41.002Z</time></trkpt><trkpt lat="44.29078068697041" lon="11.448459461832504"><ele>232.0</ele><time>2026-04-04T15:48:42.002Z</time></trkpt><trkpt lat="44.290908008067625" lon="11.448419785175785"><ele>232.0</ele><time>2026-04-04T15:48:43.002Z</time></trkpt><trkpt lat="44.2910475102294" lon="11.448394892567848"><ele>232.0</ele><time>2026-04-04T15:48:44.002Z</time></trkpt><trkpt lat="44.29118845707246" lon="11.448377796760571"><ele>232.0</ele><time>2026-04-04T15:48:45.002Z</time></trkpt><trkpt lat="44.29132397502225" lon="11.448367716321087"><ele>232.0</ele><time>2026-04-04T15:48:46.002Z</time></trkpt><trkpt lat="44.29145600289288" lon="11.448362515407615"><ele>232.0</ele><time>2026-04-04T15:48:47.002Z</time></trkpt><trkpt lat="44.29157382137379" lon="11.448362126324342"><ele>232.0</ele><time>2026-04-04T15:48:48.002Z</time></trkpt><trkpt lat="44.29168780205868" lon="11.448362240263876"><ele>232.25</ele><time>2026-04-04T15:48:49.002Z</time></trkpt><trkpt lat="44.29180606644648" lon="11.448386673843183"><ele>232.5</ele><time>2026-04-04T15:48:50.002Z</time></trkpt><trkpt lat="44.29193108787268" lon="11.44843193670579"><ele>232.75</ele><time>2026-04-04T15:48:51.002Z</time></trkpt><trkpt lat="44.292057652441066" lon="11.448492134015188"><ele>233.0</ele><time>2026-04-04T15:48:52.002Z</time></trkpt><trkpt lat="44.29217233999318" lon="11.448547584092122"><ele>232.0</ele><time>2026-04-04T15:48:53.002Z</time></trkpt><trkpt lat="44.29228343501469" lon="11.448605864381856"><ele>231.0</ele><time>2026-04-04T15:48:54.002Z</time></trkpt><trkpt lat="44.29238615310087" lon="11.448654086673468"><ele>230.0</ele><time>2026-04-04T15:48:55.002Z</time></trkpt><trkpt lat="44.29247945195518" lon="11.448684105294676"><ele>229.0</ele><time>2026-04-04T15:48:56.002Z</time></trkpt><trkpt lat="44.29256339943232" lon="11.448670201261223"><ele>228.0</ele><time>2026-04-04T15:48:57.002Z</time></trkpt><trkpt lat="44.29265567891541" lon="11.448580974544383"><ele>228.0</ele><time>2026-04-04T15:48:58.002Z</time></trkpt><trkpt lat="44.292748686393594" lon="11.448444330730629"><ele>228.0</ele><time>2026-04-04T15:48:59.002Z</time></trkpt><trkpt lat="44.29283546103339" lon="11.448280069019196"><ele>228.0</ele><time>2026-04-04T15:49:00.002Z</time></trkpt><trkpt lat="44.292923527856885" lon="11.44811850279948"><ele>228.0</ele><time>2026-04-04T15:49:01.002Z</time></trkpt><trkpt lat="44.29300755354238" lon="11.447999894865092"><ele>228.0</ele><time>2026-04-04T15:49:02.002Z</time></trkpt><trkpt lat="44.29308298985754" lon="11.447918855899752"><ele>228.0</ele><time>2026-04-04T15:49:03.002Z</time></trkpt><trkpt lat="44.293170976579255" lon="11.447859741331762"><ele>228.0</ele><time>2026-04-04T15:49:04.002Z</time></trkpt><trkpt lat="44.293270145068405" lon="11.447840751631828"><ele>228.0</ele><time>2026-04-04T15:49:05.002Z</time></trkpt><trkpt lat="44.29337712489842" lon="11.447865359724085"><ele>228.0</ele><time>2026-04-04T15:49:06.002Z</time></trkpt><trkpt lat="44.29347899472877" lon="11.447962699852116"><ele>228.5</ele><time>2026-04-04T15:49:07.002Z</time></trkpt><trkpt lat="44.293570695984336" lon="11.448086188376191"><ele>229.0</ele><time>2026-04-04T15:49:08.002Z</time></trkpt><trkpt lat="44.29366269554511" lon="11.44819651336187"><ele>229.5</ele><time>2026-04-04T15:49:09.002Z</time></trkpt><trkpt lat="44.2937527888404" lon="11.44826343853629"><ele>230.0</ele><time>2026-04-04T15:49:10.002Z</time></trkpt><trkpt lat="44.293871839068814" lon="11.44828518768542"><ele>230.0</ele><time>2026-04-04T15:49:11.002Z</time></trkpt><trkpt lat="44.29400119915868" lon="11.448253572190819"><ele>230.0</ele><time>2026-04-04T15:49:12.002Z</time></trkpt><trkpt lat="44.294128696596154" lon="11.448199258046186"><ele>230.0</ele><time>2026-04-04T15:49:13.002Z</time></trkpt><trkpt lat="44.29424615274853" lon="11.448146008541778"><ele>230.0</ele><time>2026-04-04T15:49:14.002Z</time></trkpt><trkpt lat="44.294357679299374" lon="11.448082649002023"><ele>230.0</ele><time>2026-04-04T15:49:15.001Z</time></trkpt><trkpt lat="44.29445123595208" lon="11.448000372822598"><ele>230.0</ele><time>2026-04-04T15:49:16.001Z</time></trkpt><trkpt lat="44.29454177919935" lon="11.447886655855871"><ele>230.0</ele><time>2026-04-04T15:49:17.001Z</time></trkpt><trkpt lat="44.294626477008606" lon="11.447752221670047"><ele>230.0</ele><time>2026-04-04T15:49:18.001Z</time></trkpt><trkpt lat="44.294721986861596" lon="11.447622393742774"><ele>229.25</ele><time>2026-04-04T15:49:19.001Z</time></trkpt><trkpt lat="44.294818917030234" lon="11.447504149858291"><ele>228.5</ele><time>2026-04-04T15:49:20.001Z</time></trkpt><trkpt lat="44.294916796568955" lon="11.44738408185999"><ele>227.75</ele><time>2026-04-04T15:49:21.001Z</time></trkpt><trkpt lat="44.29501310364144" lon="11.447279959034592"><ele>227.0</ele><time>2026-04-04T15:49:22.001Z</time></trkpt><trkpt lat="44.295099655653964" lon="11.44718584200077"><ele>225.39999999999998</ele><time>2026-04-04T15:49:23.001Z</time></trkpt><trkpt lat="44.29517718271888" lon="11.447096156373513"><ele>223.79999999999998</ele><time>2026-04-04T15:49:24.001Z</time></trkpt><trkpt lat="44.2952648134262" lon="11.447020689768031"><ele>222.2</ele><time>2026-04-04T15:49:25.001Z</time></trkpt><trkpt lat="44.29536439680669" lon="11.446963221814087"><ele>220.6</ele><time>2026-04-04T15:49:26.001Z</time></trkpt><trkpt lat="44.29547821103745" lon="11.446940026431255"><ele>219.0</ele><time>2026-04-04T15:49:27.001Z</time></trkpt><trkpt lat="44.29560315691639" lon="11.446938209057311"><ele>218.5</ele><time>2026-04-04T15:49:28.001Z</time></trkpt><trkpt lat="44.29573994361651" lon="11.446976820506029"><ele>218.0</ele><time>2026-04-04T15:49:29.001Z</time></trkpt><trkpt lat="44.295866359125355" lon="11.447041650862099"><ele>217.5</ele><time>2026-04-04T15:49:30.001Z</time></trkpt><trkpt lat="44.29598084629329" lon="11.447112486697158"><ele>217.0</ele><time>2026-04-04T15:49:31.001Z</time></trkpt><trkpt lat="44.2960882208918" lon="11.44719931275123"><ele>219.25</ele><time>2026-04-04T15:49:32.001Z</time></trkpt><trkpt lat="44.29619411678258" lon="11.447283783315294"><ele>221.5</ele><time>2026-04-04T15:49:33.001Z</time></trkpt><trkpt lat="44.296304291084326" lon="11.44733856430803"><ele>223.75</ele><time>2026-04-04T15:49:34.001Z</time></trkpt><trkpt lat="44.296430363730394" lon="11.447343616900627"><ele>226.0</ele><time>2026-04-04T15:49:35.001Z</time></trkpt><trkpt lat="44.2965564794341" lon="11.447332136880664"><ele>226.0</ele><time>2026-04-04T15:49:36.001Z</time></trkpt><trkpt lat="44.296670045514944" lon="11.447322653806129"><ele>226.00000000000003</ele><time>2026-04-04T15:49:37.001Z</time></trkpt><trkpt lat="44.29677614927018" lon="11.447295829706768"><ele>226.00000000000003</ele><time>2026-04-04T15:49:38.001Z</time></trkpt><trkpt lat="44.29687280661776" lon="11.44723500149981"><ele>226.0</ele><time>2026-04-04T15:49:39.001Z</time></trkpt><trkpt lat="44.29695169235627" lon="11.44714421624689"><ele>226.0</ele><time>2026-04-04T15:49:40.001Z</time></trkpt><trkpt lat="44.29701486818545" lon="11.447038949528537"><ele>223.60000000000002</ele><time>2026-04-04T15:49:41.001Z</time></trkpt><trkpt lat="44.297077678408805" lon="11.44693725875862"><ele>221.20000000000002</ele><time>2026-04-04T15:49:42.001Z</time></trkpt><trkpt lat="44.29716371289752" lon="11.4468550692641"><ele>218.79999999999998</ele><time>2026-04-04T15:49:43.001Z</time></trkpt><trkpt lat="44.29726626018028" lon="11.446823087644269"><ele>216.39999999999998</ele><time>2026-04-04T15:49:44.001Z</time></trkpt><trkpt lat="44.29737506805351" lon="11.446859520132495"><ele>214.0</ele><time>2026-04-04T15:49:45.001Z</time></trkpt><trkpt lat="44.29750826750641" lon="11.446881102145381"><ele>213.33333333333331</ele><time>2026-04-04T15:49:46.001Z</time></trkpt><trkpt lat="44.29765245873614" lon="11.446905332798744"><ele>212.66666666666669</ele><time>2026-04-04T15:49:47.001Z</time></trkpt><trkpt lat="44.29781194102685" lon="11.44687010005645"><ele>212.0</ele><time>2026-04-04T15:49:48.001Z</time></trkpt><trkpt lat="44.29797612813662" lon="11.44680296148173"><ele>212.25</ele><time>2026-04-04T15:49:49.001Z</time></trkpt><trkpt lat="44.29811407611239" lon="11.446725944820786"><ele>212.5</ele><time>2026-04-04T15:49:50.001Z</time></trkpt><trkpt lat="44.29823888468089" lon="11.44666019705392"><ele>212.75</ele><time>2026-04-04T15:49:51.001Z</time></trkpt><trkpt lat="44.29835209546196" lon="11.446598451322966"><ele>213.0</ele><time>2026-04-04T15:49:52.001Z</time></trkpt><trkpt lat="44.298461050721976" lon="11.446556443487298"><ele>213.0</ele><time>2026-04-04T15:49:53.001Z</time></trkpt><trkpt lat="44.29857761622864" lon="11.446540743440066"><ele>213.0</ele><time>2026-04-04T15:49:54.001Z</time></trkpt><trkpt lat="44.298704992568396" lon="11.44656887978354"><ele>213.0</ele><time>2026-04-04T15:49:55.001Z</time></trkpt><trkpt lat="44.298837723133545" lon="11.446652615165902"><ele>213.0</ele><time>2026-04-04T15:49:56.001Z</time></trkpt><trkpt lat="44.29896687048787" lon="11.446768078995364"><ele>212.75</ele><time>2026-04-04T15:49:57.001Z</time></trkpt><trkpt lat="44.29909904145362" lon="11.446877270156653"><ele>212.5</ele><time>2026-04-04T15:49:58.001Z</time></trkpt><trkpt lat="44.29923976481821" lon="11.44693590418054"><ele>212.25</ele><time>2026-04-04T15:49:59.001Z</time></trkpt><trkpt lat="44.29938395401917" lon="11.446953889828379"><ele>212.0</ele><time>2026-04-04T15:50:00.001Z</time></trkpt><trkpt lat="44.29951575541171" lon="11.4469456837618"><ele>212.0</ele><time>2026-04-04T15:50:01.001Z</time></trkpt><trkpt lat="44.29964124289562" lon="11.44694869597258"><ele>212.0</ele><time>2026-04-04T15:50:02.001Z</time></trkpt><trkpt lat="44.299766082111816" lon="11.446984905963598"><ele>212.0</ele><time>2026-04-04T15:50:03.001Z</time></trkpt><trkpt lat="44.299882039936044" lon="11.447046728681476"><ele>212.0</ele><time>2026-04-04T15:50:04.001Z</time></trkpt><trkpt lat="44.29998956557961" lon="11.447114953280561"><ele>213.0</ele><time>2026-04-04T15:50:05.001Z</time></trkpt><trkpt lat="44.30009107274066" lon="11.447166986981888"><ele>214.0</ele><time>2026-04-04T15:50:06.001Z</time></trkpt><trkpt lat="44.300189780877" lon="11.447207672160904"><ele>215.0</ele><time>2026-04-04T15:50:07.001Z</time></trkpt><trkpt lat="44.30029263358956" lon="11.44724593065493"><ele>216.0</ele><time>2026-04-04T15:50:08.001Z</time></trkpt><trkpt lat="44.30038024036848" lon="11.44729516787659"><ele>217.0</ele><time>2026-04-04T15:50:09.001Z</time></trkpt><trkpt lat="44.30047743116781" lon="11.44733824989407"><ele>217.0</ele><time>2026-04-04T15:50:10.001Z</time></trkpt><trkpt lat="44.30058050425093" lon="11.447387829080824"><ele>217.0</ele><time>2026-04-04T15:50:11.001Z</time></trkpt><trkpt lat="44.30067473784224" lon="11.447445397366488"><ele>217.0</ele><time>2026-04-04T15:50:12.001Z</time></trkpt><trkpt lat="44.30075354273947" lon="11.447513239882905"><ele>217.0</ele><time>2026-04-04T15:50:13.001Z</time></trkpt><trkpt lat="44.300830311420434" lon="11.447579276560505"><ele>217.0</ele><time>2026-04-04T15:50:14.001Z</time></trkpt><trkpt lat="44.30091178548303" lon="11.447659098110238"><ele>218.0</ele><time>2026-04-04T15:50:15.001Z</time></trkpt><trkpt lat="44.30100095624265" lon="11.447738473423666"><ele>219.0</ele><time>2026-04-04T15:50:16.001Z</time></trkpt><trkpt lat="44.3010930690576" lon="11.447813928350104"><ele>220.0</ele><time>2026-04-04T15:50:17.001Z</time></trkpt><trkpt lat="44.30117671500095" lon="11.44789168236818"><ele>221.0</ele><time>2026-04-04T15:50:18.001Z</time></trkpt><trkpt lat="44.30126322478126" lon="11.447975945237454"><ele>222.0</ele><time>2026-04-04T15:50:19.001Z</time></trkpt><trkpt lat="44.301348004926965" lon="11.448082379751629"><ele>219.8</ele><time>2026-04-04T15:50:20.001Z</time></trkpt><trkpt lat="44.301432781227824" lon="11.448192248785462"><ele>217.6</ele><time>2026-04-04T15:50:21.001Z</time></trkpt><trkpt lat="44.301508081891086" lon="11.448300078635048"><ele>215.4</ele><time>2026-04-04T15:50:22.001Z</time></trkpt><trkpt lat="44.301577334523145" lon="11.448402966137232"><ele>213.20000000000002</ele><time>2026-04-04T15:50:23.001Z</time></trkpt><trkpt lat="44.301647073879344" lon="11.448511290640694"><ele>211.0</ele><time>2026-04-04T15:50:24.001Z</time></trkpt><trkpt lat="44.3017093165361" lon="11.448608433434535"><ele>210.99999999999997</ele><time>2026-04-04T15:50:25.001Z</time></trkpt><trkpt lat="44.30177042395422" lon="11.448693795063157"><ele>211.0</ele><time>2026-04-04T15:50:26.001Z</time></trkpt><trkpt lat="44.30182430197812" lon="11.448785861442797"><ele>211.0</ele><time>2026-04-04T15:50:27.001Z</time></trkpt><trkpt lat="44.301892877586624" lon="11.448842983777665"><ele>211.0</ele><time>2026-04-04T15:50:28.001Z</time></trkpt><trkpt lat="44.301981381996896" lon="11.448858277600335"><ele>210.99999999999997</ele><time>2026-04-04T15:50:29.001Z</time></trkpt><trkpt lat="44.302078703016036" lon="11.448834940976969"><ele>211.0</ele><time>2026-04-04T15:50:30.001Z</time></trkpt><trkpt lat="44.30218685584406" lon="11.448765556524013"><ele>210.60000000000002</ele><time>2026-04-04T15:50:31.001Z</time></trkpt><trkpt lat="44.30229125774852" lon="11.44870388293443"><ele>210.2</ele><time>2026-04-04T15:50:32.001Z</time></trkpt><trkpt lat="44.30238908681135" lon="11.448659182974495"><ele>209.8</ele><time>2026-04-04T15:50:33.001Z</time></trkpt><trkpt lat="44.302488500935496" lon="11.448610642901825"><ele>209.39999999999998</ele><time>2026-04-04T15:50:34.001Z</time></trkpt><trkpt lat="44.3025793451926" lon="11.448561302418124"><ele>209.0</ele><time>2026-04-04T15:50:35.001Z</time></trkpt><trkpt lat="44.30265408996766" lon="11.448537563816528"><ele>209.0</ele><time>2026-04-04T15:50:36.001Z</time></trkpt><trkpt lat="44.302722139693394" lon="11.44853594100136"><ele>209.0</ele><time>2026-04-04T15:50:37.001Z</time></trkpt><trkpt lat="44.30279361729872" lon="11.448551029006364"><ele>209.0</ele><time>2026-04-04T15:50:38.001Z</time></trkpt><trkpt lat="44.302888973892586" lon="11.448586045182015"><ele>209.0</ele><time>2026-04-04T15:50:39.001Z</time></trkpt><trkpt lat="44.30299967471586" lon="11.448647254062907"><ele>209.0</ele><time>2026-04-04T15:50:40.001Z</time></trkpt><trkpt lat="44.30311337879968" lon="11.448738013118948"><ele>209.25</ele><time>2026-04-04T15:50:41.001Z</time></trkpt><trkpt lat="44.30321614063707" lon="11.448862457871689"><ele>209.5</ele><time>2026-04-04T15:50:42.001Z</time></trkpt><trkpt lat="44.30331183652951" lon="11.44900788439513"><ele>209.75</ele><time>2026-04-04T15:50:43.001Z</time></trkpt><trkpt lat="44.30339938096401" lon="11.449158084352984"><ele>210.0</ele><time>2026-04-04T15:50:44.001Z</time></trkpt><trkpt lat="44.30349399678633" lon="11.449297098746957"><ele>210.0</ele><time>2026-04-04T15:50:45.001Z</time></trkpt><trkpt lat="44.303612162177494" lon="11.449408292064431"><ele>210.0</ele><time>2026-04-04T15:50:46.001Z</time></trkpt><trkpt lat="44.30374138451756" lon="11.449515169163778"><ele>210.0</ele><time>2026-04-04T15:50:47.001Z</time></trkpt><trkpt lat="44.30387622218158" lon="11.449620697543049"><ele>210.0</ele><time>2026-04-04T15:50:48.001Z</time></trkpt><trkpt lat="44.30400267843011" lon="11.44973881498159"><ele>209.66666666666669</ele><time>2026-04-04T15:50:49.001Z</time></trkpt><trkpt lat="44.30413796186931" lon="11.449857952168477"><ele>209.33333333333334</ele><time>2026-04-04T15:50:50.001Z</time></trkpt><trkpt lat="44.30425828097947" lon="11.449979842492871"><ele>209.0</ele><time>2026-04-04T15:50:51.001Z</time></trkpt><trkpt lat="44.3043741364552" lon="11.45009219302773"><ele>209.0</ele><time>2026-04-04T15:50:52.001Z</time></trkpt><trkpt lat="44.30448427349939" lon="11.450208098765172"><ele>209.0</ele><time>2026-04-04T15:50:53.001Z</time></trkpt><trkpt lat="44.30459325405053" lon="11.450324661593458"><ele>209.0</ele><time>2026-04-04T15:50:54.002Z</time></trkpt><trkpt lat="44.30470150842534" lon="11.450431596185954"><ele>209.0</ele><time>2026-04-04T15:50:55.002Z</time></trkpt><trkpt lat="44.30481624247129" lon="11.450537025464566"><ele>207.5</ele><time>2026-04-04T15:50:56.002Z</time></trkpt><trkpt lat="44.304929754466016" lon="11.450628182821987"><ele>206.0</ele><time>2026-04-04T15:50:57.002Z</time></trkpt><trkpt lat="44.30505749987998" lon="11.450696508898519"><ele>204.5</ele><time>2026-04-04T15:50:58.002Z</time></trkpt><trkpt lat="44.30519108733323" lon="11.450753577332831"><ele>203.0</ele><time>2026-04-04T15:50:59.002Z</time></trkpt><trkpt lat="44.30531391553509" lon="11.450821402436825"><ele>203.0</ele><time>2026-04-04T15:51:00.002Z</time></trkpt><trkpt lat="44.305456081541905" lon="11.450933564775614"><ele>203.0</ele><time>2026-04-04T15:51:01.002Z</time></trkpt><trkpt lat="44.305568466330406" lon="11.451037557082104"><ele>203.0</ele><time>2026-04-04T15:51:02.002Z</time></trkpt><trkpt lat="44.30567193604512" lon="11.451151064248569"><ele>203.0</ele><time>2026-04-04T15:51:03.002Z</time></trkpt><trkpt lat="44.30577703332557" lon="11.45125541939377"><ele>203.0</ele><time>2026-04-04T15:51:04.002Z</time></trkpt><trkpt lat="44.30585384371518" lon="11.451414827210595"><ele>203.0</ele><time>2026-04-04T15:51:05.002Z</time></trkpt><trkpt lat="44.30592256744581" lon="11.451546670217496"><ele>203.0</ele><time>2026-04-04T15:51:06.002Z</time></trkpt><trkpt lat="44.30599913465609" lon="11.45168325055895"><ele>203.0</ele><time>2026-04-04T15:51:07.002Z</time></trkpt><trkpt lat="44.30602625198432" lon="11.451844150278779"><ele>203.0</ele><time>2026-04-04T15:51:08.002Z</time></trkpt><trkpt lat="44.306055894274486" lon="11.451986605941078"><ele>203.0</ele><time>2026-04-04T15:51:09.002Z</time></trkpt><trkpt lat="44.30608927322898" lon="11.452126278492132"><ele>203.0</ele><time>2026-04-04T15:51:10.002Z</time></trkpt><trkpt lat="44.30613012899212" lon="11.452271459963578"><ele>203.0</ele><time>2026-04-04T15:51:11.002Z</time></trkpt><trkpt lat="44.30621601266494" lon="11.452424745402148"><ele>201.75</ele><time>2026-04-04T15:51:12.002Z</time></trkpt><trkpt lat="44.30631692999645" lon="11.452570876790249"><ele>200.5</ele><time>2026-04-04T15:51:13.002Z</time></trkpt><trkpt lat="44.30643019719726" lon="11.452697874441853"><ele>199.25</ele><time>2026-04-04T15:51:14.002Z</time></trkpt><trkpt lat="44.306542529896916" lon="11.4528011860924"><ele>198.0</ele><time>2026-04-04T15:51:15.002Z</time></trkpt><trkpt lat="44.30665054234765" lon="11.452879620542001"><ele>198.0</ele><time>2026-04-04T15:51:16.002Z</time></trkpt><trkpt lat="44.30674504138858" lon="11.45294597161681"><ele>198.0</ele><time>2026-04-04T15:51:17.002Z</time></trkpt><trkpt lat="44.30684374565842" lon="11.453032052748474"><ele>198.0</ele><time>2026-04-04T15:51:18.002Z</time></trkpt><trkpt lat="44.306915585166244" lon="11.45315352369258"><ele>198.0</ele><time>2026-04-04T15:51:19.002Z</time></trkpt><trkpt lat="44.306989306760556" lon="11.453279293719309"><ele>198.0</ele><time>2026-04-04T15:51:20.002Z</time></trkpt><trkpt lat="44.30705171339225" lon="11.453423939887259"><ele>198.0</ele><time>2026-04-04T15:51:21Z</time></trkpt><trkpt lat="44.30712198560533" lon="11.453590210486485"><ele>198.0</ele><time>2026-04-04T15:51:22Z</time></trkpt><trkpt lat="44.30718834404333" lon="11.453747220792401"><ele>198.0</ele><time>2026-04-04T15:51:23Z</time></trkpt><trkpt lat="44.307253337630016" lon="11.453901028169845"><ele>199.5</ele><time>2026-04-04T15:51:24Z</time></trkpt><trkpt lat="44.30731001826893" lon="11.454034548181935"><ele>201.0</ele><time>2026-04-04T15:51:25Z</time></trkpt><trkpt lat="44.307369341516896" lon="11.454171493097821"><ele>202.5</ele><time>2026-04-04T15:51:26Z</time></trkpt><trkpt lat="44.307442644641874" lon="11.454296126255448"><ele>204.0</ele><time>2026-04-04T15:51:27Z</time></trkpt><trkpt lat="44.30749641763347" lon="11.45444187201855"><ele>204.0</ele><time>2026-04-04T15:51:28Z</time></trkpt><trkpt lat="44.30754789471486" lon="11.454607215249563"><ele>204.0</ele><time>2026-04-04T15:51:29Z</time></trkpt><trkpt lat="44.30760720326175" lon="11.454777512903188"><ele>204.0</ele><time>2026-04-04T15:51:30Z</time></trkpt><trkpt lat="44.30767707854584" lon="11.454930972272448"><ele>204.0</ele><time>2026-04-04T15:51:31Z</time></trkpt><trkpt lat="44.30773111816226" lon="11.455098198907772"><ele>202.25</ele><time>2026-04-04T15:51:32Z</time></trkpt><trkpt lat="44.307789989650516" lon="11.455275631354427"><ele>200.5</ele><time>2026-04-04T15:51:33Z</time></trkpt><trkpt lat="44.3078475282328" lon="11.455445714758676"><ele>198.75</ele><time>2026-04-04T15:51:34Z</time></trkpt><trkpt lat="44.30790120238131" lon="11.45559443396459"><ele>197.0</ele><time>2026-04-04T15:51:35Z</time></trkpt><trkpt lat="44.307962939634" lon="11.455758962481799"><ele>196.75</ele><time>2026-04-04T15:51:36Z</time></trkpt><trkpt lat="44.30800798776486" lon="11.455914374179757"><ele>196.5</ele><time>2026-04-04T15:51:37Z</time></trkpt><trkpt lat="44.30805370245512" lon="11.456054165107108"><ele>196.25</ele><time>2026-04-04T15:51:38Z</time></trkpt><trkpt lat="44.308098278410604" lon="11.456202961121331"><ele>196.0</ele><time>2026-04-04T15:51:39Z</time></trkpt><trkpt lat="44.308142684249965" lon="11.456347658464976"><ele>195.5</ele><time>2026-04-04T15:51:40Z</time></trkpt><trkpt lat="44.30818002840273" lon="11.456504174101873"><ele>195.0</ele><time>2026-04-04T15:51:41Z</time></trkpt><trkpt lat="44.30821808442868" lon="11.456669596093763"><ele>194.5</ele><time>2026-04-04T15:51:42Z</time></trkpt><trkpt lat="44.308256498307294" lon="11.456828699894817"><ele>194.0</ele><time>2026-04-04T15:51:43Z</time></trkpt><trkpt lat="44.3082972029162" lon="11.456982261263159"><ele>193.25</ele><time>2026-04-04T15:51:44Z</time></trkpt><trkpt lat="44.3083496481232" lon="11.457130080888618"><ele>192.5</ele><time>2026-04-04T15:51:45Z</time></trkpt><trkpt lat="44.308416040730066" lon="11.457264160977173"><ele>191.75</ele><time>2026-04-04T15:51:46Z</time></trkpt><trkpt lat="44.308502042046335" lon="11.45738833424875"><ele>191.0</ele><time>2026-04-04T15:51:47Z</time></trkpt><trkpt lat="44.30860392999224" lon="11.457459630328906"><ele>191.0</ele><time>2026-04-04T15:51:48Z</time></trkpt><trkpt lat="44.30872547672903" lon="11.457527311697621"><ele>191.0</ele><time>2026-04-04T15:51:49Z</time></trkpt><trkpt lat="44.30882315913092" lon="11.457586096714186"><ele>191.0</ele><time>2026-04-04T15:51:50Z</time></trkpt><trkpt lat="44.30892418408816" lon="11.457642839439863"><ele>191.0</ele><time>2026-04-04T15:51:51Z</time></trkpt><trkpt lat="44.309029431350204" lon="11.457705253031852"><ele>191.0</ele><time>2026-04-04T15:51:52Z</time></trkpt><trkpt lat="44.30913840955582" lon="11.457772263549291"><ele>191.0</ele><time>2026-04-04T15:51:53Z</time></trkpt><trkpt lat="44.30924071729237" lon="11.45782647381924"><ele>191.0</ele><time>2026-04-04T15:51:54Z</time></trkpt><trkpt lat="44.30935255113362" lon="11.457893335230272"><ele>191.0</ele><time>2026-04-04T15:51:55Z</time></trkpt><trkpt lat="44.3094714957151" lon="11.4579611154796"><ele>191.0</ele><time>2026-04-04T15:51:56Z</time></trkpt><trkpt lat="44.309598793202014" lon="11.458034655589136"><ele>191.0</ele><time>2026-04-04T15:51:57Z</time></trkpt><trkpt lat="44.309723037703584" lon="11.45812227143281"><ele>191.0</ele><time>2026-04-04T15:51:58Z</time></trkpt><trkpt lat="44.30983531419884" lon="11.458225174986941"><ele>191.0</ele><time>2026-04-04T15:51:59Z</time></trkpt><trkpt lat="44.309935453781854" lon="11.458341043684353"><ele>191.0</ele><time>2026-04-04T15:52:00Z</time></trkpt><trkpt lat="44.3100425312164" lon="11.458457845806302"><ele>191.0</ele><time>2026-04-04T15:52:01Z</time></trkpt><trkpt lat="44.31012400216017" lon="11.458584745594395"><ele>191.0</ele><time>2026-04-04T15:52:02Z</time></trkpt><trkpt lat="44.31021138026474" lon="11.458719122209844"><ele>191.0</ele><time>2026-04-04T15:52:03Z</time></trkpt><trkpt lat="44.31029215217502" lon="11.458860843864938"><ele>191.0</ele><time>2026-04-04T15:52:04Z</time></trkpt><trkpt lat="44.31036677387766" lon="11.45900247857224"><ele>191.0</ele><time>2026-04-04T15:52:05Z</time></trkpt><trkpt lat="44.31044349281083" lon="11.459138814980639"><ele>191.0</ele><time>2026-04-04T15:52:06Z</time></trkpt><trkpt lat="44.310522863745256" lon="11.459282576920426"><ele>191.0</ele><time>2026-04-04T15:52:07Z</time></trkpt><trkpt lat="44.31059601890008" lon="11.459424004119622"><ele>191.5</ele><time>2026-04-04T15:52:08Z</time></trkpt><trkpt lat="44.310659756805215" lon="11.459566437198482"><ele>192.0</ele><time>2026-04-04T15:52:09Z</time></trkpt><trkpt lat="44.310705963118075" lon="11.459707215718932"><ele>192.5</ele><time>2026-04-04T15:52:10Z</time></trkpt><trkpt lat="44.31074510129511" lon="11.4598612144493"><ele>193.0</ele><time>2026-04-04T15:52:11Z</time></trkpt><trkpt lat="44.31074678355421" lon="11.46003462469161"><ele>193.0</ele><time>2026-04-04T15:52:12Z</time></trkpt><trkpt lat="44.31075624740211" lon="11.460223395387105"><ele>193.0</ele><time>2026-04-04T15:52:13Z</time></trkpt><trkpt lat="44.31077720423933" lon="11.460423252401588"><ele>193.0</ele><time>2026-04-04T15:52:14Z</time></trkpt><trkpt lat="44.31078118998675" lon="11.460610044755871"><ele>193.0</ele><time>2026-04-04T15:52:15Z</time></trkpt><trkpt lat="44.310785191134734" lon="11.460792047653866"><ele>192.0</ele><time>2026-04-04T15:52:16Z</time></trkpt><trkpt lat="44.31079557872366" lon="11.4609846127726"><ele>191.0</ele><time>2026-04-04T15:52:17Z</time></trkpt><trkpt lat="44.3107991794618" lon="11.461175406505824"><ele>190.0</ele><time>2026-04-04T15:52:18Z</time></trkpt><trkpt lat="44.31079513907776" lon="11.46132307503289"><ele>189.0</ele><time>2026-04-04T15:52:19Z</time></trkpt><trkpt lat="44.31082902650782" lon="11.461516227856682"><ele>188.0</ele><time>2026-04-04T15:52:20Z</time></trkpt><trkpt lat="44.31087253549132" lon="11.461663643312756"><ele>187.0</ele><time>2026-04-04T15:52:21Z</time></trkpt><trkpt lat="44.31094847724171" lon="11.46179716757606"><ele>186.0</ele><time>2026-04-04T15:52:22Z</time></trkpt><trkpt lat="44.31105313887459" lon="11.461925352875696"><ele>185.0</ele><time>2026-04-04T15:52:23Z</time></trkpt><trkpt lat="44.31117194874011" lon="11.462061505116846"><ele>185.0</ele><time>2026-04-04T15:52:24.001Z</time></trkpt><trkpt lat="44.31128242295196" lon="11.462172245797058"><ele>185.0</ele><time>2026-04-04T15:52:25.001Z</time></trkpt><trkpt lat="44.31140057316268" lon="11.462286404907724"><ele>185.0</ele><time>2026-04-04T15:52:26.001Z</time></trkpt><trkpt lat="44.31153832943391" lon="11.462453795831747"><ele>185.0</ele><time>2026-04-04T15:52:27.001Z</time></trkpt><trkpt lat="44.31171509672437" lon="11.46262810858095"><ele>185.0</ele><time>2026-04-04T15:52:28.001Z</time></trkpt><trkpt lat="44.31188386119165" lon="11.462791523362451"><ele>185.0</ele><time>2026-04-04T15:52:29.001Z</time></trkpt><trkpt lat="44.312049154880256" lon="11.462945134962768"><ele>185.33333333333331</ele><time>2026-04-04T15:52:30.001Z</time></trkpt><trkpt lat="44.31221929839089" lon="11.463097533794787"><ele>185.66666666666666</ele><time>2026-04-04T15:52:31.001Z</time></trkpt><trkpt lat="44.31241577760253" lon="11.463254455998825"><ele>186.0</ele><time>2026-04-04T15:52:32.001Z</time></trkpt><trkpt lat="44.31262060108743" lon="11.463384599368661"><ele>186.0</ele><time>2026-04-04T15:52:33.001Z</time></trkpt><trkpt lat="44.312790410060174" lon="11.463516292442248"><ele>186.0</ele><time>2026-04-04T15:52:34.001Z</time></trkpt><trkpt lat="44.31294322728182" lon="11.463628926778595"><ele>186.0</ele><time>2026-04-04T15:52:35.001Z</time></trkpt><trkpt lat="44.313089743410885" lon="11.463731211668359"><ele>186.75</ele><time>2026-04-04T15:52:36.001Z</time></trkpt><trkpt lat="44.31322320067821" lon="11.463824748903159"><ele>187.5</ele><time>2026-04-04T15:52:37.001Z</time></trkpt><trkpt lat="44.31335010665199" lon="11.46391857787939"><ele>188.25</ele><time>2026-04-04T15:52:38.001Z</time></trkpt><trkpt lat="44.31347551049663" lon="11.464013125680125"><ele>189.0</ele><time>2026-04-04T15:52:39.001Z</time></trkpt><trkpt lat="44.31359998313906" lon="11.464108652394188"><ele>189.0</ele><time>2026-04-04T15:52:40.001Z</time></trkpt><trkpt lat="44.313724537714776" lon="11.464206102728465"><ele>189.0</ele><time>2026-04-04T15:52:41.001Z</time></trkpt><trkpt lat="44.31384837719234" lon="11.464306170513838"><ele>189.0</ele><time>2026-04-04T15:52:42.001Z</time></trkpt><trkpt lat="44.3139669993969" lon="11.464403407809401"><ele>189.0</ele><time>2026-04-04T15:52:43.001Z</time></trkpt><trkpt lat="44.31408663195969" lon="11.464496557082153"><ele>189.5</ele><time>2026-04-04T15:52:44.001Z</time></trkpt><trkpt lat="44.314210721476144" lon="11.464594592218646"><ele>190.0</ele><time>2026-04-04T15:52:45.001Z</time></trkpt><trkpt lat="44.314336565413946" lon="11.4646958615616"><ele>190.5</ele><time>2026-04-04T15:52:46.001Z</time></trkpt><trkpt lat="44.31447101687666" lon="11.464801498790044"><ele>191.0</ele><time>2026-04-04T15:52:47.001Z</time></trkpt><trkpt lat="44.314596137241516" lon="11.46490276009351"><ele>191.0</ele><time>2026-04-04T15:52:48.001Z</time></trkpt><trkpt lat="44.314711893677014" lon="11.464999226588912"><ele>191.0</ele><time>2026-04-04T15:52:49.001Z</time></trkpt><trkpt lat="44.31482853101338" lon="11.465109242282633"><ele>191.0</ele><time>2026-04-04T15:52:50.001Z</time></trkpt><trkpt lat="44.31494487895143" lon="11.465229681570525"><ele>191.0</ele><time>2026-04-04T15:52:51.001Z</time></trkpt><trkpt lat="44.31504306663993" lon="11.465385036268703"><ele>189.5</ele><time>2026-04-04T15:52:52.001Z</time></trkpt><trkpt lat="44.31514656843995" lon="11.465529399307835"><ele>188.0</ele><time>2026-04-04T15:52:53.001Z</time></trkpt><trkpt lat="44.31523870213481" lon="11.465663897859097"><ele>186.5</ele><time>2026-04-04T15:52:54.001Z</time></trkpt><trkpt lat="44.3153203207901" lon="11.465796960024482"><ele>185.0</ele><time>2026-04-04T15:52:55.001Z</time></trkpt><trkpt lat="44.31539318884947" lon="11.465928917319866"><ele>185.0</ele><time>2026-04-04T15:52:56.001Z</time></trkpt><trkpt lat="44.31544673297463" lon="11.466082372537793"><ele>185.0</ele><time>2026-04-04T15:52:57.001Z</time></trkpt><trkpt lat="44.315469597994124" lon="11.466257495179898"><ele>185.0</ele><time>2026-04-04T15:52:58.001Z</time></trkpt><trkpt lat="44.31547107478402" lon="11.466443613176903"><ele>185.0</ele><time>2026-04-04T15:52:59.001Z</time></trkpt><trkpt lat="44.3154634659516" lon="11.466627990879408"><ele>184.5</ele><time>2026-04-04T15:53:00.001Z</time></trkpt><trkpt lat="44.31545334805095" lon="11.466791075811962"><ele>184.0</ele><time>2026-04-04T15:53:01.001Z</time></trkpt><trkpt lat="44.31544475631276" lon="11.466953777310607"><ele>183.5</ele><time>2026-04-04T15:53:02.001Z</time></trkpt><trkpt lat="44.31545677556287" lon="11.467120633739817"><ele>183.0</ele><time>2026-04-04T15:53:03.001Z</time></trkpt><trkpt lat="44.31548149161399" lon="11.46728033243865"><ele>182.75</ele><time>2026-04-04T15:53:04.001Z</time></trkpt><trkpt lat="44.31553786560852" lon="11.467435898036777"><ele>182.5</ele><time>2026-04-04T15:53:05.001Z</time></trkpt><trkpt lat="44.31558526178437" lon="11.467596391076269"><ele>182.25</ele><time>2026-04-04T15:53:06.001Z</time></trkpt><trkpt lat="44.31563348245269" lon="11.467769542130304"><ele>182.0</ele><time>2026-04-04T15:53:07.001Z</time></trkpt><trkpt lat="44.31565418635399" lon="11.467945891448679"><ele>182.25</ele><time>2026-04-04T15:53:08.001Z</time></trkpt><trkpt lat="44.31564181897661" lon="11.468136705805614"><ele>182.5</ele><time>2026-04-04T15:53:09.001Z</time></trkpt><trkpt lat="44.31557980023864" lon="11.468318631539384"><ele>182.75</ele><time>2026-04-04T15:53:10.001Z</time></trkpt><trkpt lat="44.31551384622407" lon="11.46852852333798"><ele>183.0</ele><time>2026-04-04T15:53:11.001Z</time></trkpt><trkpt lat="44.315467150217714" lon="11.468730741254356"><ele>183.0</ele><time>2026-04-04T15:53:12.001Z</time></trkpt><trkpt lat="44.31539852755149" lon="11.468937279196801"><ele>183.0</ele><time>2026-04-04T15:53:13.001Z</time></trkpt><trkpt lat="44.31531707652988" lon="11.469145727742402"><ele>183.0</ele><time>2026-04-04T15:53:14.001Z</time></trkpt><trkpt lat="44.31525995574418" lon="11.469349915047207"><ele>183.0</ele><time>2026-04-04T15:53:15.001Z</time></trkpt><trkpt lat="44.31520709614916" lon="11.4695472454199"><ele>183.0</ele><time>2026-04-04T15:53:16.001Z</time></trkpt><trkpt lat="44.31515770959749" lon="11.469745436353607"><ele>183.0</ele><time>2026-04-04T15:53:17.001Z</time></trkpt><trkpt lat="44.31510607585432" lon="11.469956693535357"><ele>183.75</ele><time>2026-04-04T15:53:18.001Z</time></trkpt><trkpt lat="44.3150582537355" lon="11.47015235555237"><ele>184.5</ele><time>2026-04-04T15:53:19.001Z</time></trkpt><trkpt lat="44.315012640377496" lon="11.470338941298976"><ele>185.25</ele><time>2026-04-04T15:53:20.001Z</time></trkpt><trkpt lat="44.314969779216675" lon="11.470513317479062"><ele>186.0</ele><time>2026-04-04T15:53:21.001Z</time></trkpt><trkpt lat="44.31493126225216" lon="11.470670019750727"><ele>186.60000000000002</ele><time>2026-04-04T15:53:22.001Z</time></trkpt><trkpt lat="44.314895016490894" lon="11.47081748186388"><ele>187.2</ele><time>2026-04-04T15:53:23.001Z</time></trkpt><trkpt lat="44.314860127811826" lon="11.470959422857856"><ele>187.8</ele><time>2026-04-04T15:53:24.001Z</time></trkpt><trkpt lat="44.314829071017414" lon="11.471085774166214"><ele>188.39999999999998</ele><time>2026-04-04T15:53:25.001Z</time></trkpt><trkpt lat="44.31480030205851" lon="11.471203351669269"><ele>189.0</ele><time>2026-04-04T15:53:26.001Z</time></trkpt><trkpt lat="44.31477598571048" lon="11.471308786439812"><ele>189.0</ele><time>2026-04-04T15:53:26.998Z</time></trkpt><trkpt lat="44.31475183000296" lon="11.471413524655537"><ele>189.0</ele><time>2026-04-04T15:53:27.998Z</time></trkpt><trkpt lat="44.31472731958739" lon="11.471521358854561"><ele>189.0</ele><time>2026-04-04T15:53:28.998Z</time></trkpt><trkpt lat="44.314702838000485" lon="11.471630824698522"><ele>189.0</ele><time>2026-04-04T15:53:29.998Z</time></trkpt><trkpt lat="44.31468090920116" lon="11.471736482193096"><ele>189.0</ele><time>2026-04-04T15:53:30.998Z</time></trkpt><trkpt lat="44.314677817548" lon="11.471845488924325"><ele>189.0</ele><time>2026-04-04T15:53:31.998Z</time></trkpt><trkpt lat="44.31466006081689" lon="11.471951101218998"><ele>188.83333333333334</ele><time>2026-04-04T15:53:32.998Z</time></trkpt><trkpt lat="44.31464897012507" lon="11.472061312614237"><ele>188.66666666666666</ele><time>2026-04-04T15:53:33.998Z</time></trkpt><trkpt lat="44.31465014924255" lon="11.472166917108641"><ele>188.5</ele><time>2026-04-04T15:53:34.998Z</time></trkpt><trkpt lat="44.314667830404" lon="11.472281902785035"><ele>188.33333333333331</ele><time>2026-04-04T15:53:35.998Z</time></trkpt><trkpt lat="44.314697881448744" lon="11.472399768207755"><ele>188.16666666666666</ele><time>2026-04-04T15:53:36.998Z</time></trkpt><trkpt lat="44.31474298049374" lon="11.472523231908152"><ele>188.0</ele><time>2026-04-04T15:53:37.998Z</time></trkpt><trkpt lat="44.31479149030788" lon="11.47263879195733"><ele>188.0</ele><time>2026-04-04T15:53:38.998Z</time></trkpt><trkpt lat="44.314839047590645" lon="11.472757721851991"><ele>188.0</ele><time>2026-04-04T15:53:39.998Z</time></trkpt><trkpt lat="44.31487812341152" lon="11.472868097648469"><ele>188.0</ele><time>2026-04-04T15:53:40.998Z</time></trkpt><trkpt lat="44.31491010140497" lon="11.472992577187938"><ele>188.0</ele><time>2026-04-04T15:53:41.998Z</time></trkpt><trkpt lat="44.314933509788276" lon="11.47311775635034"><ele>188.0</ele><time>2026-04-04T15:53:42.998Z</time></trkpt><trkpt lat="44.31494251169738" lon="11.473222993814064"><ele>188.0</ele><time>2026-04-04T15:53:43.999Z</time></trkpt><trkpt lat="44.31495216350474" lon="11.473326309333176"><ele>187.83333333333331</ele><time>2026-04-04T15:53:44.999Z</time></trkpt><trkpt lat="44.31496540327097" lon="11.473444254136519"><ele>187.66666666666666</ele><time>2026-04-04T15:53:45.999Z</time></trkpt><trkpt lat="44.314976613076176" lon="11.473567103081706"><ele>187.5</ele><time>2026-04-04T15:53:46.999Z</time></trkpt><trkpt lat="44.31498742066208" lon="11.473688656675069"><ele>187.33333333333334</ele><time>2026-04-04T15:53:47.999Z</time></trkpt><trkpt lat="44.31500467586673" lon="11.473813049963907"><ele>187.16666666666669</ele><time>2026-04-04T15:53:48.999Z</time></trkpt><trkpt lat="44.31501725530894" lon="11.47392559299791"><ele>187.0</ele><time>2026-04-04T15:53:49.999Z</time></trkpt><trkpt lat="44.31503246814208" lon="11.474033171325596"><ele>186.33333333333334</ele><time>2026-04-04T15:53:50.999Z</time></trkpt><trkpt lat="44.31505125548445" lon="11.474144704397023"><ele>185.66666666666669</ele><time>2026-04-04T15:53:51.999Z</time></trkpt><trkpt lat="44.3150696081434" lon="11.47424004073062"><ele>185.0</ele><time>2026-04-04T15:53:52.999Z</time></trkpt><trkpt lat="44.31509135808478" lon="11.474335333934434"><ele>184.33333333333334</ele><time>2026-04-04T15:53:53.999Z</time></trkpt><trkpt lat="44.31511311424187" lon="11.474434213772359"><ele>183.66666666666666</ele><time>2026-04-04T15:53:54.999Z</time></trkpt><trkpt lat="44.31513094577858" lon="11.47452287066818"><ele>183.0</ele><time>2026-04-04T15:53:55.999Z</time></trkpt><trkpt lat="44.31517100281359" lon="11.474700533416014"><ele>182.0</ele><time>2026-04-04T15:53:57.999Z</time></trkpt><trkpt lat="44.31519889000266" lon="11.474805670839682"><ele>181.0</ele><time>2026-04-04T15:53:58.999Z</time></trkpt><trkpt lat="44.315221554434544" lon="11.474910749441332"><ele>180.0</ele><time>2026-04-04T15:53:59.999Z</time></trkpt><trkpt lat="44.315257382576625" lon="11.475032809517593"><ele>179.0</ele><time>2026-04-04T15:54:00.999Z</time></trkpt><trkpt lat="44.315289632455695" lon="11.475161864426068"><ele>178.0</ele><time>2026-04-04T15:54:01.999Z</time></trkpt><trkpt lat="44.31532123418181" lon="11.475279844742161"><ele>177.0</ele><time>2026-04-04T15:54:02.999Z</time></trkpt><trkpt lat="44.315356978123766" lon="11.47538263594362"><ele>176.33333333333334</ele><time>2026-04-04T15:54:03.999Z</time></trkpt><trkpt lat="44.31539157240707" lon="11.475481254644368"><ele>175.66666666666666</ele><time>2026-04-04T15:54:04.999Z</time></trkpt><trkpt lat="44.315426337610084" lon="11.475576421212953"><ele>175.0</ele><time>2026-04-04T15:54:05.999Z</time></trkpt><trkpt lat="44.315457015204075" lon="11.475670806791797"><ele>174.33333333333331</ele><time>2026-04-04T15:54:06.999Z</time></trkpt><trkpt lat="44.31549391761999" lon="11.47577062100803"><ele>173.66666666666666</ele><time>2026-04-04T15:54:07.999Z</time></trkpt><trkpt lat="44.31553649013635" lon="11.475873345282091"><ele>173.0</ele><time>2026-04-04T15:54:08.999Z</time></trkpt><trkpt lat="44.315575882668135" lon="11.47599053710492"><ele>174.16666666666666</ele><time>2026-04-04T15:54:10Z</time></trkpt><trkpt lat="44.315614497489065" lon="11.47610167654366"><ele>175.33333333333331</ele><time>2026-04-04T15:54:11Z</time></trkpt><trkpt lat="44.315661051243666" lon="11.476217974817121"><ele>176.5</ele><time>2026-04-04T15:54:12Z</time></trkpt><trkpt lat="44.31570449363922" lon="11.47633186239131"><ele>177.66666666666666</ele><time>2026-04-04T15:54:13Z</time></trkpt><trkpt lat="44.315744666593496" lon="11.476435630611878"><ele>178.83333333333334</ele><time>2026-04-04T15:54:14Z</time></trkpt><trkpt lat="44.31578652293905" lon="11.476535317969205"><ele>180.0</ele><time>2026-04-04T15:54:15Z</time></trkpt><trkpt lat="44.31583117041227" lon="11.476646192834183"><ele>180.0</ele><time>2026-04-04T15:54:16Z</time></trkpt><trkpt lat="44.315868181323644" lon="11.47674994053874"><ele>180.0</ele><time>2026-04-04T15:54:17Z</time></trkpt><trkpt lat="44.31590779740575" lon="11.476845029441527"><ele>180.0</ele><time>2026-04-04T15:54:18Z</time></trkpt><trkpt lat="44.315950722394824" lon="11.476924214408395"><ele>180.0</ele><time>2026-04-04T15:54:19Z</time></trkpt><trkpt lat="44.31600117349903" lon="11.476980779233482"><ele>180.0</ele><time>2026-04-04T15:54:20Z</time></trkpt><trkpt lat="44.316054394994175" lon="11.477042733136237"><ele>180.0</ele><time>2026-04-04T15:54:21Z</time></trkpt><trkpt lat="44.31611276140469" lon="11.477108664372018"><ele>180.0</ele><time>2026-04-04T15:54:22Z</time></trkpt><trkpt lat="44.31618476894285" lon="11.47717856148298"><ele>180.16666666666666</ele><time>2026-04-04T15:54:23Z</time></trkpt><trkpt lat="44.316253374007644" lon="11.47723546450327"><ele>180.33333333333334</ele><time>2026-04-04T15:54:24Z</time></trkpt><trkpt lat="44.31631841998947" lon="11.477284966345144"><ele>180.5</ele><time>2026-04-04T15:54:25Z</time></trkpt><trkpt lat="44.316375358138075" lon="11.477327620823583"><ele>180.66666666666669</ele><time>2026-04-04T15:54:26Z</time></trkpt><trkpt lat="44.316486339443365" lon="11.477411954704381"><ele>180.83333333333334</ele><time>2026-04-04T15:54:28Z</time></trkpt><trkpt lat="44.31652933178043" lon="11.477480791329281"><ele>181.0</ele><time>2026-04-04T15:54:29Z</time></trkpt><trkpt lat="44.31659391679088" lon="11.477519743260288"><ele>181.0</ele><time>2026-04-04T15:54:30Z</time></trkpt><trkpt lat="44.31665242751743" lon="11.477589410942494"><ele>181.0</ele><time>2026-04-04T15:54:31Z</time></trkpt><trkpt lat="44.316701716984014" lon="11.477671761786862"><ele>181.0</ele><time>2026-04-04T15:54:32Z</time></trkpt><trkpt lat="44.316723374274964" lon="11.477769363257838"><ele>181.0</ele><time>2026-04-04T15:54:33Z</time></trkpt><trkpt lat="44.3167567308618" lon="11.477862555810653"><ele>181.0</ele><time>2026-04-04T15:54:34Z</time></trkpt><trkpt lat="44.31680750457863" lon="11.47796242499265"><ele>181.0</ele><time>2026-04-04T15:54:35Z</time></trkpt><trkpt lat="44.316852121806775" lon="11.478080292069492"><ele>180.16666666666669</ele><time>2026-04-04T15:54:36Z</time></trkpt><trkpt lat="44.31689406141568" lon="11.478200152199587"><ele>179.33333333333334</ele><time>2026-04-04T15:54:37Z</time></trkpt><trkpt lat="44.31693610799265" lon="11.478315349772178"><ele>178.5</ele><time>2026-04-04T15:54:38Z</time></trkpt><trkpt lat="44.3169940056728" lon="11.478403430907324"><ele>177.66666666666666</ele><time>2026-04-04T15:54:39Z</time></trkpt><trkpt lat="44.3170443175359" lon="11.478474663557195"><ele>176.83333333333331</ele><time>2026-04-04T15:54:40Z</time></trkpt><trkpt lat="44.317095857816724" lon="11.478538671729295"><ele>176.0</ele><time>2026-04-04T15:54:41Z</time></trkpt><trkpt lat="44.317154249674466" lon="11.478606173690835"><ele>176.0</ele><time>2026-04-04T15:54:42Z</time></trkpt><trkpt lat="44.317206909815745" lon="11.47866827730647"><ele>176.0</ele><time>2026-04-04T15:54:43Z</time></trkpt><trkpt lat="44.317268486016566" lon="11.478733261752314"><ele>176.0</ele><time>2026-04-04T15:54:44Z</time></trkpt><trkpt lat="44.31732905402417" lon="11.478800186318187"><ele>176.0</ele><time>2026-04-04T15:54:45Z</time></trkpt><trkpt lat="44.31739126077997" lon="11.478866525360642"><ele>176.0</ele><time>2026-04-04T15:54:46Z</time></trkpt><trkpt lat="44.317462499336855" lon="11.47893110819899"><ele>176.0</ele><time>2026-04-04T15:54:47Z</time></trkpt><trkpt lat="44.31753008122217" lon="11.478994695976146"><ele>175.83333333333331</ele><time>2026-04-04T15:54:48Z</time></trkpt><trkpt lat="44.31759978568403" lon="11.479056973724832"><ele>175.66666666666666</ele><time>2026-04-04T15:54:49Z</time></trkpt><trkpt lat="44.31766165476969" lon="11.479126670945618"><ele>175.5</ele><time>2026-04-04T15:54:50Z</time></trkpt><trkpt lat="44.317716733492894" lon="11.479201881743016"><ele>175.33333333333334</ele><time>2026-04-04T15:54:51Z</time></trkpt><trkpt lat="44.31776845334009" lon="11.479288933690485"><ele>175.16666666666669</ele><time>2026-04-04T15:54:52Z</time></trkpt><trkpt lat="44.31781287335451" lon="11.47938277441282"><ele>175.0</ele><time>2026-04-04T15:54:53Z</time></trkpt><trkpt lat="44.317852212125466" lon="11.479468059721345"><ele>175.0</ele><time>2026-04-04T15:54:54Z</time></trkpt><trkpt lat="44.31788415064525" lon="11.47954952277946"><ele>175.0</ele><time>2026-04-04T15:54:55Z</time></trkpt><trkpt lat="44.317921167334184" lon="11.479628713390621"><ele>175.0</ele><time>2026-04-04T15:54:56Z</time></trkpt><trkpt lat="44.31795486651035" lon="11.479704811361595"><ele>175.0</ele><time>2026-04-04T15:54:57Z</time></trkpt><trkpt lat="44.31799826478287" lon="11.479778274162369"><ele>175.0</ele><time>2026-04-04T15:54:58.001Z</time></trkpt><trkpt lat="44.318045176449445" lon="11.479845075880164"><ele>175.0</ele><time>2026-04-04T15:54:59.001Z</time></trkpt><trkpt lat="44.318096251721265" lon="11.479901619250889"><ele>175.0</ele><time>2026-04-04T15:55:00.001Z</time></trkpt><trkpt lat="44.318195118744825" lon="11.479987849014504"><ele>175.83333333333334</ele><time>2026-04-04T15:55:02.001Z</time></trkpt><trkpt lat="44.31827284823517" lon="11.480056531826074"><ele>176.66666666666669</ele><time>2026-04-04T15:55:04.001Z</time></trkpt><trkpt lat="44.31834728585497" lon="11.480112229953857"><ele>177.5</ele><time>2026-04-04T15:55:06.001Z</time></trkpt><trkpt lat="44.31841089056662" lon="11.480163225906999"><ele>178.33333333333334</ele><time>2026-04-04T15:55:08.001Z</time></trkpt><trkpt lat="44.318474373680196" lon="11.480224936548495"><ele>179.16666666666666</ele><time>2026-04-04T15:55:10.001Z</time></trkpt><trkpt lat="44.31856423129838" lon="11.48029380989452"><ele>180.0</ele><time>2026-04-04T15:55:12.001Z</time></trkpt><trkpt lat="44.31865126244701" lon="11.480377828107216"><ele>180.0</ele><time>2026-04-04T15:55:14.001Z</time></trkpt><trkpt lat="44.31872814499517" lon="11.480506835703014"><ele>180.0</ele><time>2026-04-04T15:55:16.001Z</time></trkpt><trkpt lat="44.31880176438183" lon="11.480605047316024"><ele>180.0</ele><time>2026-04-04T15:55:17.001Z</time></trkpt><trkpt lat="44.318880077178186" lon="11.48072600519317"><ele>180.0</ele><time>2026-04-04T15:55:18.001Z</time></trkpt><trkpt lat="44.31896592244218" lon="11.480875072894262"><ele>180.0</ele><time>2026-04-04T15:55:19.001Z</time></trkpt><trkpt lat="44.319065485323826" lon="11.481012652978219"><ele>180.0</ele><time>2026-04-04T15:55:20.001Z</time></trkpt><trkpt lat="44.3191285593405" lon="11.481142161586854"><ele>180.0</ele><time>2026-04-04T15:55:21.001Z</time></trkpt><trkpt lat="44.31919062198646" lon="11.481257572526038"><ele>180.0</ele><time>2026-04-04T15:55:22.001Z</time></trkpt><trkpt lat="44.31924826653413" lon="11.481366482299727"><ele>178.75</ele><time>2026-04-04T15:55:23.001Z</time></trkpt><trkpt lat="44.31931237065029" lon="11.481492119864912"><ele>177.5</ele><time>2026-04-04T15:55:24.001Z</time></trkpt><trkpt lat="44.31937764810282" lon="11.48162963160439"><ele>176.25</ele><time>2026-04-04T15:55:25.001Z</time></trkpt><trkpt lat="44.3194475100108" lon="11.481783553928416"><ele>175.0</ele><time>2026-04-04T15:55:26.001Z</time></trkpt><trkpt lat="44.31952239506412" lon="11.481944111043745"><ele>175.0</ele><time>2026-04-04T15:55:27.001Z</time></trkpt><trkpt lat="44.31959836907664" lon="11.482092417480663"><ele>175.0</ele><time>2026-04-04T15:55:28.001Z</time></trkpt><trkpt lat="44.319657850769076" lon="11.482225549736071"><ele>175.0</ele><time>2026-04-04T15:55:29.001Z</time></trkpt><trkpt lat="44.31971485011452" lon="11.482345130275538"><ele>175.0</ele><time>2026-04-04T15:55:30.001Z</time></trkpt><trkpt lat="44.31976750358736" lon="11.482460501120563"><ele>175.0</ele><time>2026-04-04T15:55:31.001Z</time></trkpt><trkpt lat="44.319816127735756" lon="11.482570228560487"><ele>175.2</ele><time>2026-04-04T15:55:32.001Z</time></trkpt><trkpt lat="44.31986929350682" lon="11.48268814554364"><ele>175.4</ele><time>2026-04-04T15:55:32.998Z</time></trkpt><trkpt lat="44.31991928676596" lon="11.482805595144612"><ele>175.60000000000002</ele><time>2026-04-04T15:55:33.998Z</time></trkpt><trkpt lat="44.31997043197611" lon="11.482929100394191"><ele>175.8</ele><time>2026-04-04T15:55:34.998Z</time></trkpt><trkpt lat="44.32001999273371" lon="11.48304812195261"><ele>176.0</ele><time>2026-04-04T15:55:35.998Z</time></trkpt><trkpt lat="44.32006734397566" lon="11.483169473346926"><ele>176.0</ele><time>2026-04-04T15:55:36.998Z</time></trkpt><trkpt lat="44.320101747607005" lon="11.483294840610947"><ele>176.0</ele><time>2026-04-04T15:55:37.998Z</time></trkpt><trkpt lat="44.320139392264345" lon="11.483416831947723"><ele>176.0</ele><time>2026-04-04T15:55:38.998Z</time></trkpt><trkpt lat="44.32016754072924" lon="11.483539506215035"><ele>176.0</ele><time>2026-04-04T15:55:39.998Z</time></trkpt><trkpt lat="44.320188895603295" lon="11.483665233206223"><ele>176.0</ele><time>2026-04-04T15:55:40.998Z</time></trkpt><trkpt lat="44.32019197861517" lon="11.483799519251653"><ele>175.20000000000002</ele><time>2026-04-04T15:55:41.998Z</time></trkpt><trkpt lat="44.32021764178131" lon="11.483918253176332"><ele>174.4</ele><time>2026-04-04T15:55:42.998Z</time></trkpt><trkpt lat="44.32021048770271" lon="11.484041339533118"><ele>173.6</ele><time>2026-04-04T15:55:43.998Z</time></trkpt><trkpt lat="44.320221617754505" lon="11.48416023019603"><ele>172.8</ele><time>2026-04-04T15:55:44.998Z</time></trkpt><trkpt lat="44.320223617183636" lon="11.484295643429363"><ele>172.0</ele><time>2026-04-04T15:55:45.998Z</time></trkpt><trkpt lat="44.32022198894859" lon="11.484432012390387"><ele>172.0</ele><time>2026-04-04T15:55:46.998Z</time></trkpt><trkpt lat="44.320222085201735" lon="11.484567000935158"><ele>172.0</ele><time>2026-04-04T15:55:47.998Z</time></trkpt><trkpt lat="44.32022058662184" lon="11.48471440993339"><ele>172.0</ele><time>2026-04-04T15:55:48.998Z</time></trkpt><trkpt lat="44.320220707488446" lon="11.484860074430848"><ele>172.0</ele><time>2026-04-04T15:55:49.999Z</time></trkpt><trkpt lat="44.32022185167939" lon="11.485005727025847"><ele>172.0</ele><time>2026-04-04T15:55:50.999Z</time></trkpt><trkpt lat="44.32022389868458" lon="11.48514366545808"><ele>172.2</ele><time>2026-04-04T15:55:51.999Z</time></trkpt><trkpt lat="44.32020615157211" lon="11.48528696162792"><ele>172.39999999999998</ele><time>2026-04-04T15:55:52.999Z</time></trkpt><trkpt lat="44.32022256881412" lon="11.485431170503993"><ele>172.60000000000002</ele><time>2026-04-04T15:55:53.999Z</time></trkpt><trkpt lat="44.32022252394824" lon="11.485577746865781"><ele>172.8</ele><time>2026-04-04T15:55:54.999Z</time></trkpt><trkpt lat="44.32021480429311" lon="11.485710893454494"><ele>173.0</ele><time>2026-04-04T15:55:55.999Z</time></trkpt><trkpt lat="44.32020963861658" lon="11.485850773738527"><ele>173.2</ele><time>2026-04-04T15:55:56.999Z</time></trkpt><trkpt lat="44.320200742104745" lon="11.485990990613708"><ele>173.4</ele><time>2026-04-04T15:55:57.999Z</time></trkpt><trkpt lat="44.32017547876148" lon="11.486135280498823"><ele>173.6</ele><time>2026-04-04T15:55:58.999Z</time></trkpt><trkpt lat="44.32011256489364" lon="11.486259291144956"><ele>173.79999999999998</ele><time>2026-04-04T15:55:59.999Z</time></trkpt><trkpt lat="44.32005239011925" lon="11.486363622671588"><ele>174.0</ele><time>2026-04-04T15:56:00.999Z</time></trkpt><trkpt lat="44.32000204989859" lon="11.48646718857827"><ele>174.6</ele><time>2026-04-04T15:56:01.999Z</time></trkpt><trkpt lat="44.31994202015594" lon="11.486557003658396"><ele>175.2</ele><time>2026-04-04T15:56:02.999Z</time></trkpt><trkpt lat="44.31987789956928" lon="11.486650309109098"><ele>175.79999999999998</ele><time>2026-04-04T15:56:03.999Z</time></trkpt><trkpt lat="44.31982205831464" lon="11.486753661906846"><ele>176.39999999999998</ele><time>2026-04-04T15:56:04.999Z</time></trkpt><trkpt lat="44.31976743535582" lon="11.486861796622762"><ele>177.0</ele><time>2026-04-04T15:56:05.999Z</time></trkpt><trkpt lat="44.31972967578046" lon="11.486988609527325"><ele>174.25</ele><time>2026-04-04T15:56:06.999Z</time></trkpt><trkpt lat="44.31971153043892" lon="11.487128545638337"><ele>171.5</ele><time>2026-04-04T15:56:08Z</time></trkpt><trkpt lat="44.31971028693665" lon="11.487293696185702"><ele>168.75</ele><time>2026-04-04T15:56:09Z</time></trkpt><trkpt lat="44.31972092924557" lon="11.487469285845284"><ele>166.0</ele><time>2026-04-04T15:56:10Z</time></trkpt><trkpt lat="44.3197305388839" lon="11.487642788600418"><ele>169.0</ele><time>2026-04-04T15:56:11Z</time></trkpt><trkpt lat="44.31973376802062" lon="11.487808941570119"><ele>172.0</ele><time>2026-04-04T15:56:12Z</time></trkpt><trkpt lat="44.31973802514691" lon="11.487972664322509"><ele>175.0</ele><time>2026-04-04T15:56:13Z</time></trkpt><trkpt lat="44.31974451353212" lon="11.488139325151264"><ele>178.0</ele><time>2026-04-04T15:56:14Z</time></trkpt><trkpt lat="44.31974491615912" lon="11.488314950689373"><ele>175.5</ele><time>2026-04-04T15:56:15Z</time></trkpt><trkpt lat="44.31972364143965" lon="11.488483190818506"><ele>173.0</ele><time>2026-04-04T15:56:16Z</time></trkpt><trkpt lat="44.319664826913254" lon="11.488652014371096"><ele>170.5</ele><time>2026-04-04T15:56:17Z</time></trkpt><trkpt lat="44.319612798258724" lon="11.488819652089996"><ele>168.0</ele><time>2026-04-04T15:56:18Z</time></trkpt><trkpt lat="44.31957539261935" lon="11.488977544839054"><ele>168.0</ele><time>2026-04-04T15:56:19Z</time></trkpt><trkpt lat="44.31953657369708" lon="11.48911602102282"><ele>168.0</ele><time>2026-04-04T15:56:20Z</time></trkpt><trkpt lat="44.31950664400987" lon="11.489262291164613"><ele>168.0</ele><time>2026-04-04T15:56:21Z</time></trkpt><trkpt lat="44.319488492363284" lon="11.489421735356212"><ele>168.0</ele><time>2026-04-04T15:56:22Z</time></trkpt><trkpt lat="44.319489390952185" lon="11.48959638517029"><ele>167.5</ele><time>2026-04-04T15:56:23Z</time></trkpt><trkpt lat="44.31947496914823" lon="11.48977937361686"><ele>167.0</ele><time>2026-04-04T15:56:24Z</time></trkpt><trkpt lat="44.319490705287194" lon="11.489964445493408"><ele>166.5</ele><time>2026-04-04T15:56:25Z</time></trkpt><trkpt lat="44.31948930309353" lon="11.490143709954811"><ele>166.0</ele><time>2026-04-04T15:56:26Z</time></trkpt><trkpt lat="44.31949231620496" lon="11.49031301593691"><ele>166.0</ele><time>2026-04-04T15:56:27Z</time></trkpt><trkpt lat="44.319473923297316" lon="11.490487204992887"><ele>166.0</ele><time>2026-04-04T15:56:28Z</time></trkpt><trkpt lat="44.31945535535673" lon="11.490657999801128"><ele>166.0</ele><time>2026-04-04T15:56:29Z</time></trkpt><trkpt lat="44.3194413919536" lon="11.490826948290062"><ele>166.0</ele><time>2026-04-04T15:56:30Z</time></trkpt><trkpt lat="44.319410967031025" lon="11.490974624471447"><ele>166.0</ele><time>2026-04-04T15:56:31Z</time></trkpt><trkpt lat="44.31938643177818" lon="11.491110738440621"><ele>166.0</ele><time>2026-04-04T15:56:32Z</time></trkpt><trkpt lat="44.319364493146836" lon="11.491253914659426"><ele>166.0</ele><time>2026-04-04T15:56:33Z</time></trkpt><trkpt lat="44.31934872100339" lon="11.491402254686058"><ele>166.0</ele><time>2026-04-04T15:56:34Z</time></trkpt><trkpt lat="44.31933260531069" lon="11.491549442682313"><ele>166.0</ele><time>2026-04-04T15:56:35Z</time></trkpt><trkpt lat="44.31933147123166" lon="11.491702454911705"><ele>167.0</ele><time>2026-04-04T15:56:36Z</time></trkpt><trkpt lat="44.319338037663336" lon="11.491854246668616"><ele>168.0</ele><time>2026-04-04T15:56:37Z</time></trkpt><trkpt lat="44.31934449242755" lon="11.492008490275303"><ele>169.0</ele><time>2026-04-04T15:56:38Z</time></trkpt><trkpt lat="44.31935094849932" lon="11.492158808535901"><ele>170.0</ele><time>2026-04-04T15:56:39Z</time></trkpt><trkpt lat="44.319368333337444" lon="11.492303593932562"><ele>171.0</ele><time>2026-04-04T15:56:40Z</time></trkpt><trkpt lat="44.31939719437552" lon="11.492452725716564"><ele>171.75</ele><time>2026-04-04T15:56:41Z</time></trkpt><trkpt lat="44.31943373324449" lon="11.492608523049102"><ele>172.5</ele><time>2026-04-04T15:56:42.001Z</time></trkpt><trkpt lat="44.319474300320714" lon="11.492762402113726"><ele>173.25</ele><time>2026-04-04T15:56:43.001Z</time></trkpt><trkpt lat="44.319518840340166" lon="11.492911023514614"><ele>174.0</ele><time>2026-04-04T15:56:44.001Z</time></trkpt><trkpt lat="44.319562966048" lon="11.49304732584572"><ele>174.0</ele><time>2026-04-04T15:56:45.001Z</time></trkpt><trkpt lat="44.319611519009236" lon="11.493170654098616"><ele>174.0</ele><time>2026-04-04T15:56:46.001Z</time></trkpt><trkpt lat="44.31966779191111" lon="11.493282874252047"><ele>174.0</ele><time>2026-04-04T15:56:47.001Z</time></trkpt><trkpt lat="44.3197148504755" lon="11.493390448975157"><ele>174.0</ele><time>2026-04-04T15:56:48.001Z</time></trkpt><trkpt lat="44.31976257578392" lon="11.493507235751522"><ele>174.0</ele><time>2026-04-04T15:56:49.001Z</time></trkpt><trkpt lat="44.3197832323028" lon="11.49365784418891"><ele>172.75</ele><time>2026-04-04T15:56:50.001Z</time></trkpt><trkpt lat="44.31979862863026" lon="11.493810983729363"><ele>171.5</ele><time>2026-04-04T15:56:51.001Z</time></trkpt><trkpt lat="44.31981370716616" lon="11.493979136830516"><ele>170.25</ele><time>2026-04-04T15:56:52.001Z</time></trkpt><trkpt lat="44.319777535716916" lon="11.494148710052796"><ele>169.0</ele><time>2026-04-04T15:56:53.001Z</time></trkpt><trkpt lat="44.31974114495819" lon="11.494317253361999"><ele>167.5</ele><time>2026-04-04T15:56:54.001Z</time></trkpt><trkpt lat="44.319697624912834" lon="11.494472601383222"><ele>166.0</ele><time>2026-04-04T15:56:55.001Z</time></trkpt><trkpt lat="44.31967012396957" lon="11.494620442053069"><ele>164.5</ele><time>2026-04-04T15:56:56.001Z</time></trkpt><trkpt lat="44.319626401398345" lon="11.494761297054144"><ele>163.0</ele><time>2026-04-04T15:56:57.001Z</time></trkpt><trkpt lat="44.319593092846226" lon="11.494918012971596"><ele>162.5</ele><time>2026-04-04T15:56:58.001Z</time></trkpt><trkpt lat="44.31956192775882" lon="11.495078076595506"><ele>162.0</ele><time>2026-04-04T15:56:59.001Z</time></trkpt><trkpt lat="44.319529810452075" lon="11.495250519131156"><ele>161.5</ele><time>2026-04-04T15:57:00.001Z</time></trkpt><trkpt lat="44.31950969912714" lon="11.495436006422507"><ele>161.0</ele><time>2026-04-04T15:57:01.001Z</time></trkpt><trkpt lat="44.31950805228449" lon="11.49563373348978"><ele>160.66666666666666</ele><time>2026-04-04T15:57:02.001Z</time></trkpt><trkpt lat="44.31953314204929" lon="11.495838249283084"><ele>160.33333333333334</ele><time>2026-04-04T15:57:03.001Z</time></trkpt><trkpt lat="44.319553174053524" lon="11.496050310067808"><ele>160.0</ele><time>2026-04-04T15:57:04.001Z</time></trkpt><trkpt lat="44.31955452628068" lon="11.496272985833874"><ele>159.75</ele><time>2026-04-04T15:57:05.001Z</time></trkpt><trkpt lat="44.319518580481926" lon="11.49647129852188"><ele>159.5</ele><time>2026-04-04T15:57:06.001Z</time></trkpt><trkpt lat="44.31950030576627" lon="11.496652965107641"><ele>159.25</ele><time>2026-04-04T15:57:07.001Z</time></trkpt><trkpt lat="44.31945954475694" lon="11.49681954112196"><ele>159.0</ele><time>2026-04-04T15:57:08.001Z</time></trkpt><trkpt lat="44.31941673399341" lon="11.496985780754967"><ele>159.0</ele><time>2026-04-04T15:57:09.001Z</time></trkpt><trkpt lat="44.31937544062121" lon="11.497155703135821"><ele>159.0</ele><time>2026-04-04T15:57:10.001Z</time></trkpt><trkpt lat="44.31933322725361" lon="11.497325114346571"><ele>159.0</ele><time>2026-04-04T15:57:11.001Z</time></trkpt><trkpt lat="44.31929966011472" lon="11.497499528587017"><ele>159.0</ele><time>2026-04-04T15:57:12.001Z</time></trkpt><trkpt lat="44.319264846355445" lon="11.497680075611868"><ele>159.0</ele><time>2026-04-04T15:57:13.001Z</time></trkpt><trkpt lat="44.31924761107623" lon="11.497858038848667"><ele>159.0</ele><time>2026-04-04T15:57:14.001Z</time></trkpt><trkpt lat="44.3192391445757" lon="11.498017576498816"><ele>159.0</ele><time>2026-04-04T15:57:15.001Z</time></trkpt><trkpt lat="44.319234309985994" lon="11.498180135651914"><ele>159.0</ele><time>2026-04-04T15:57:16.001Z</time></trkpt><trkpt lat="44.31924060846708" lon="11.498343728483121"><ele>159.25</ele><time>2026-04-04T15:57:17.001Z</time></trkpt><trkpt lat="44.31926047121466" lon="11.498508749676105"><ele>159.5</ele><time>2026-04-04T15:57:18.001Z</time></trkpt><trkpt lat="44.31929264279175" lon="11.498669400521035"><ele>159.75</ele><time>2026-04-04T15:57:19.001Z</time></trkpt><trkpt lat="44.3193505518666" lon="11.498826059942722"><ele>160.0</ele><time>2026-04-04T15:57:20.001Z</time></trkpt><trkpt lat="44.31942622441104" lon="11.498965271680465"><ele>159.5</ele><time>2026-04-04T15:57:21.001Z</time></trkpt><trkpt lat="44.31950534848348" lon="11.499108853816209"><ele>159.0</ele><time>2026-04-04T15:57:22.001Z</time></trkpt><trkpt lat="44.31957258133542" lon="11.499259813600942"><ele>158.5</ele><time>2026-04-04T15:57:23.002Z</time></trkpt><trkpt lat="44.31963267916698" lon="11.499425348631517"><ele>158.0</ele><time>2026-04-04T15:57:24.002Z</time></trkpt><trkpt lat="44.31964945513872" lon="11.499608713826893"><ele>158.0</ele><time>2026-04-04T15:57:25.002Z</time></trkpt><trkpt lat="44.319688006605155" lon="11.499780089707771"><ele>158.0</ele><time>2026-04-04T15:57:26.002Z</time></trkpt><trkpt lat="44.31970110468153" lon="11.499950285173295"><ele>158.0</ele><time>2026-04-04T15:57:27.002Z</time></trkpt><trkpt lat="44.31972284781738" lon="11.500117591902399"><ele>158.0</ele><time>2026-04-04T15:57:28.002Z</time></trkpt><trkpt lat="44.31974479955175" lon="11.50028232937306"><ele>159.2</ele><time>2026-04-04T15:57:29.002Z</time></trkpt><trkpt lat="44.31976651538294" lon="11.500429821282768"><ele>160.4</ele><time>2026-04-04T15:57:30.002Z</time></trkpt><trkpt lat="44.31978345598428" lon="11.500570369262693"><ele>161.6</ele><time>2026-04-04T15:57:31.002Z</time></trkpt><trkpt lat="44.31977644868235" lon="11.500705353598681"><ele>162.79999999999998</ele><time>2026-04-04T15:57:32.002Z</time></trkpt><trkpt lat="44.319765046187406" lon="11.500828069718805"><ele>164.0</ele><time>2026-04-04T15:57:33.002Z</time></trkpt><trkpt lat="44.3197519868665" lon="11.500952286104647"><ele>164.0</ele><time>2026-04-04T15:57:34.002Z</time></trkpt><trkpt lat="44.31973758386111" lon="11.501091267003725"><ele>164.0</ele><time>2026-04-04T15:57:35.002Z</time></trkpt><trkpt lat="44.31973695004193" lon="11.501251548891616"><ele>164.0</ele><time>2026-04-04T15:57:36.002Z</time></trkpt><trkpt lat="44.31974814935455" lon="11.50142207183106"><ele>164.0</ele><time>2026-04-04T15:57:37.002Z</time></trkpt><trkpt lat="44.319760403209386" lon="11.501591266465457"><ele>163.25</ele><time>2026-04-04T15:57:38.002Z</time></trkpt><trkpt lat="44.319766992447505" lon="11.501756727130077"><ele>162.5</ele><time>2026-04-04T15:57:38.999Z</time></trkpt><trkpt lat="44.31976451238999" lon="11.501922178815683"><ele>161.75</ele><time>2026-04-04T15:57:39.999Z</time></trkpt><trkpt lat="44.3197697364374" lon="11.50208364819396"><ele>161.0</ele><time>2026-04-04T15:57:41Z</time></trkpt><trkpt lat="44.31973633916381" lon="11.502234783833119"><ele>159.25</ele><time>2026-04-04T15:57:42Z</time></trkpt><trkpt lat="44.319694879524434" lon="11.502396286806587"><ele>157.5</ele><time>2026-04-04T15:57:43Z</time></trkpt><trkpt lat="44.31962507856936" lon="11.502545317748563"><ele>155.75</ele><time>2026-04-04T15:57:44Z</time></trkpt><trkpt lat="44.31957297863257" lon="11.502707303728503"><ele>154.0</ele><time>2026-04-04T15:57:45Z</time></trkpt><trkpt lat="44.31951518396654" lon="11.502863284842054"><ele>154.5</ele><time>2026-04-04T15:57:46Z</time></trkpt><trkpt lat="44.3194560326315" lon="11.503007119231077"><ele>155.0</ele><time>2026-04-04T15:57:47Z</time></trkpt><trkpt lat="44.319398200102825" lon="11.503163729485165"><ele>155.5</ele><time>2026-04-04T15:57:48Z</time></trkpt><trkpt lat="44.31935786031739" lon="11.503336538259124"><ele>156.0</ele><time>2026-04-04T15:57:49Z</time></trkpt><trkpt lat="44.31932606469566" lon="11.503522324665138"><ele>156.0</ele><time>2026-04-04T15:57:50Z</time></trkpt><trkpt lat="44.319312639718824" lon="11.50371259323228"><ele>156.0</ele><time>2026-04-04T15:57:51Z</time></trkpt><trkpt lat="44.31931567700927" lon="11.503896819120353"><ele>156.0</ele><time>2026-04-04T15:57:52Z</time></trkpt><trkpt lat="44.31932723768056" lon="11.50408320942233"><ele>156.0</ele><time>2026-04-04T15:57:53Z</time></trkpt><trkpt lat="44.31934603160029" lon="11.504295222742897"><ele>154.66666666666666</ele><time>2026-04-04T15:57:54Z</time></trkpt><trkpt lat="44.31938812731629" lon="11.504544047761483"><ele>153.33333333333331</ele><time>2026-04-04T15:57:55Z</time></trkpt><trkpt lat="44.31941442707006" lon="11.504834630415544"><ele>152.0</ele><time>2026-04-04T15:57:56Z</time></trkpt><trkpt lat="44.31945828357931" lon="11.505124444300737"><ele>151.0</ele><time>2026-04-04T15:57:57Z</time></trkpt><trkpt lat="44.319508001513306" lon="11.505427684677429"><ele>150.0</ele><time>2026-04-04T15:57:58Z</time></trkpt><trkpt lat="44.31957487975044" lon="11.505754272796658"><ele>150.0</ele><time>2026-04-04T15:57:59Z</time></trkpt><trkpt lat="44.31962935842945" lon="11.5061062202751"><ele>150.0</ele><time>2026-04-04T15:58:00Z</time></trkpt><trkpt lat="44.31967280845894" lon="11.506432132643042"><ele>149.33333333333334</ele><time>2026-04-04T15:58:01Z</time></trkpt><trkpt lat="44.31973089872214" lon="11.506715724516175"><ele>148.66666666666669</ele><time>2026-04-04T15:58:02Z</time></trkpt><trkpt lat="44.3197755870631" lon="11.50699158701531"><ele>148.0</ele><time>2026-04-04T15:58:03Z</time></trkpt><trkpt lat="44.31982288599854" lon="11.507267913859136"><ele>149.66666666666669</ele><time>2026-04-04T15:58:04Z</time></trkpt><trkpt lat="44.31986768948554" lon="11.507532449568366"><ele>151.33333333333334</ele><time>2026-04-04T15:58:05Z</time></trkpt><trkpt lat="44.3199086981506" lon="11.507773585621457"><ele>153.0</ele><time>2026-04-04T15:58:06Z</time></trkpt><trkpt lat="44.31994920445323" lon="11.507998563887346"><ele>153.0</ele><time>2026-04-04T15:58:07Z</time></trkpt><trkpt lat="44.31998680990744" lon="11.508219241154723"><ele>153.0</ele><time>2026-04-04T15:58:08Z</time></trkpt><trkpt lat="44.32001966843326" lon="11.508413773980251"><ele>153.0</ele><time>2026-04-04T15:58:09Z</time></trkpt><trkpt lat="44.320054687299404" lon="11.508598888828159"><ele>153.0</ele><time>2026-04-04T15:58:10Z</time></trkpt><trkpt lat="44.32006543694588" lon="11.508774198917159"><ele>153.25</ele><time>2026-04-04T15:58:11Z</time></trkpt><trkpt lat="44.320069851506254" lon="11.508925916190478"><ele>153.5</ele><time>2026-04-04T15:58:12Z</time></trkpt><trkpt lat="44.320039135714346" lon="11.50907713969228"><ele>153.75</ele><time>2026-04-04T15:58:13Z</time></trkpt><trkpt lat="44.32000265215946" lon="11.509234868393968"><ele>154.0</ele><time>2026-04-04T15:58:14Z</time></trkpt><trkpt lat="44.319976254484416" lon="11.509384506903412"><ele>154.0</ele><time>2026-04-04T15:58:15Z</time></trkpt><trkpt lat="44.319961341731485" lon="11.509527365260737"><ele>154.0</ele><time>2026-04-04T15:58:16Z</time></trkpt><trkpt lat="44.319976522631" lon="11.50967737988126"><ele>154.0</ele><time>2026-04-04T15:58:17Z</time></trkpt><trkpt lat="44.320024044451955" lon="11.509839478150393"><ele>154.0</ele><time>2026-04-04T15:58:18Z</time></trkpt><trkpt lat="44.32010700160464" lon="11.509980412068286"><ele>153.0</ele><time>2026-04-04T15:58:19Z</time></trkpt><trkpt lat="44.320227763657215" lon="11.510110201716968"><ele>152.0</ele><time>2026-04-04T15:58:20.001Z</time></trkpt><trkpt lat="44.320360560367234" lon="11.510241452201418"><ele>151.0</ele><time>2026-04-04T15:58:21.001Z</time></trkpt><trkpt lat="44.32048707866356" lon="11.51038552224067"><ele>152.33333333333334</ele><time>2026-04-04T15:58:22.001Z</time></trkpt><trkpt lat="44.32061167285546" lon="11.510585240519585"><ele>153.66666666666666</ele><time>2026-04-04T15:58:23.001Z</time></trkpt><trkpt lat="44.32073818001041" lon="11.510784855679209"><ele>155.0</ele><time>2026-04-04T15:58:24.001Z</time></trkpt><trkpt lat="44.320867352791346" lon="11.510937454422852"><ele>155.0</ele><time>2026-04-04T15:58:25.001Z</time></trkpt><trkpt lat="44.32103920401173" lon="11.511062331996364"><ele>155.0</ele><time>2026-04-04T15:58:26.001Z</time></trkpt><trkpt lat="44.32119625318343" lon="11.511197880542708"><ele>155.0</ele><time>2026-04-04T15:58:27.001Z</time></trkpt><trkpt lat="44.32133198346958" lon="11.511347156811205"><ele>156.25</ele><time>2026-04-04T15:58:28.001Z</time></trkpt><trkpt lat="44.321449079268525" lon="11.511498986994585"><ele>157.5</ele><time>2026-04-04T15:58:29.001Z</time></trkpt><trkpt lat="44.32156524271006" lon="11.511639695069166"><ele>158.75</ele><time>2026-04-04T15:58:30.001Z</time></trkpt><trkpt lat="44.3216637730457" lon="11.511767883393883"><ele>160.0</ele><time>2026-04-04T15:58:31.001Z</time></trkpt><trkpt lat="44.321741975150225" lon="11.51188839425132"><ele>160.0</ele><time>2026-04-04T15:58:32.001Z</time></trkpt><trkpt lat="44.32178507196491" lon="11.512043637416234"><ele>160.0</ele><time>2026-04-04T15:58:33.001Z</time></trkpt><trkpt lat="44.32181239224475" lon="11.512212651746731"><ele>160.0</ele><time>2026-04-04T15:58:34.001Z</time></trkpt><trkpt lat="44.321801202696435" lon="11.512392745065121"><ele>160.0</ele><time>2026-04-04T15:58:35.001Z</time></trkpt><trkpt lat="44.32176886624928" lon="11.512589216451822"><ele>159.75</ele><time>2026-04-04T15:58:36.001Z</time></trkpt><trkpt lat="44.32171441858932" lon="11.512789181718443"><ele>159.5</ele><time>2026-04-04T15:58:37.001Z</time></trkpt><trkpt lat="44.321660663215724" lon="11.512964183367467"><ele>159.25</ele><time>2026-04-04T15:58:38.001Z</time></trkpt><trkpt lat="44.3216174979572" lon="11.513127151476407"><ele>159.0</ele><time>2026-04-04T15:58:39.001Z</time></trkpt><trkpt lat="44.32155738890299" lon="11.51329300901778"><ele>159.0</ele><time>2026-04-04T15:58:40.001Z</time></trkpt><trkpt lat="44.32153105031144" lon="11.513502069641696"><ele>159.0</ele><time>2026-04-04T15:58:41.001Z</time></trkpt><trkpt lat="44.321539246252776" lon="11.513734533253364"><ele>159.0</ele><time>2026-04-04T15:58:42.001Z</time></trkpt><trkpt lat="44.321528376267054" lon="11.513978764250655"><ele>159.5</ele><time>2026-04-04T15:58:43.001Z</time></trkpt><trkpt lat="44.32151592292663" lon="11.514193035378511"><ele>160.0</ele><time>2026-04-04T15:58:44.001Z</time></trkpt><trkpt lat="44.321514607531405" lon="11.514389225843793"><ele>160.5</ele><time>2026-04-04T15:58:45.001Z</time></trkpt><trkpt lat="44.3214982347148" lon="11.514567232609114"><ele>161.0</ele><time>2026-04-04T15:58:46.001Z</time></trkpt><trkpt lat="44.32148599150055" lon="11.514739405192831"><ele>161.5</ele><time>2026-04-04T15:58:47.001Z</time></trkpt><trkpt lat="44.32146701318523" lon="11.514919574713376"><ele>162.0</ele><time>2026-04-04T15:58:48.001Z</time></trkpt><trkpt lat="44.32144360548833" lon="11.515106812048295"><ele>162.5</ele><time>2026-04-04T15:58:49.001Z</time></trkpt><trkpt lat="44.32142662645424" lon="11.515303512811265"><ele>163.0</ele><time>2026-04-04T15:58:50.001Z</time></trkpt><trkpt lat="44.321429543577096" lon="11.515514881266528"><ele>163.25</ele><time>2026-04-04T15:58:51.001Z</time></trkpt><trkpt lat="44.321440726363534" lon="11.5157166585386"><ele>163.5</ele><time>2026-04-04T15:58:52.001Z</time></trkpt><trkpt lat="44.32144974212465" lon="11.515920795505094"><ele>163.75</ele><time>2026-04-04T15:58:53.001Z</time></trkpt><trkpt lat="44.32146061409698" lon="11.516106500903938"><ele>164.0</ele><time>2026-04-04T15:58:54.001Z</time></trkpt><trkpt lat="44.32148961892513" lon="11.516287803525382"><ele>163.5</ele><time>2026-04-04T15:58:55.001Z</time></trkpt><trkpt lat="44.321519052073754" lon="11.51646546054252"><ele>163.0</ele><time>2026-04-04T15:58:56.001Z</time></trkpt><trkpt lat="44.32154491751223" lon="11.516629497553462"><ele>162.5</ele><time>2026-04-04T15:58:57.001Z</time></trkpt><trkpt lat="44.32157511972623" lon="11.516795350680276"><ele>162.0</ele><time>2026-04-04T15:58:58.001Z</time></trkpt><trkpt lat="44.32162288657941" lon="11.516957166443946"><ele>161.0</ele><time>2026-04-04T15:58:59.002Z</time></trkpt><trkpt lat="44.32169664415718" lon="11.517124012469015"><ele>160.0</ele><time>2026-04-04T15:59:00.002Z</time></trkpt><trkpt lat="44.3217828998728" lon="11.517299666200202"><ele>159.0</ele><time>2026-04-04T15:59:01.002Z</time></trkpt><trkpt lat="44.32186093416509" lon="11.517482585396957"><ele>158.0</ele><time>2026-04-04T15:59:02.002Z</time></trkpt><trkpt lat="44.32192728182745" lon="11.517656639292937"><ele>158.0</ele><time>2026-04-04T15:59:03.002Z</time></trkpt><trkpt lat="44.32199006193227" lon="11.517814330927363"><ele>158.0</ele><time>2026-04-04T15:59:04.002Z</time></trkpt><trkpt lat="44.32205071797225" lon="11.517956641365432"><ele>158.0</ele><time>2026-04-04T15:59:05.002Z</time></trkpt><trkpt lat="44.32210872454679" lon="11.518080320136104"><ele>158.0</ele><time>2026-04-04T15:59:06.002Z</time></trkpt><trkpt lat="44.322181432945364" lon="11.518178191367824"><ele>158.25</ele><time>2026-04-04T15:59:07.002Z</time></trkpt><trkpt lat="44.3222697691817" lon="11.518247879283022"><ele>158.5</ele><time>2026-04-04T15:59:08.002Z</time></trkpt><trkpt lat="44.32238402465207" lon="11.51828078883445"><ele>158.75</ele><time>2026-04-04T15:59:09.002Z</time></trkpt><trkpt lat="44.32250101677946" lon="11.518264755800088"><ele>159.0</ele><time>2026-04-04T15:59:10.002Z</time></trkpt><trkpt lat="44.32261722092345" lon="11.518227833793658"><ele>159.0</ele><time>2026-04-04T15:59:11.002Z</time></trkpt><trkpt lat="44.322745667798834" lon="11.51821229981956"><ele>159.0</ele><time>2026-04-04T15:59:12.002Z</time></trkpt><trkpt lat="44.32287802121787" lon="11.518253301180232"><ele>159.0</ele><time>2026-04-04T15:59:13.002Z</time></trkpt><trkpt lat="44.3229878526844" lon="11.518327588540869"><ele>159.0</ele><time>2026-04-04T15:59:14.002Z</time></trkpt><trkpt lat="44.323088223779315" lon="11.518418809706573"><ele>159.0</ele><time>2026-04-04T15:59:15.002Z</time></trkpt><trkpt lat="44.32317950512375" lon="11.518497883855284"><ele>159.0</ele><time>2026-04-04T15:59:16.002Z</time></trkpt><trkpt lat="44.3232816966034" lon="11.518568192967187"><ele>159.0</ele><time>2026-04-04T15:59:17.002Z</time></trkpt><trkpt lat="44.32340087086751" lon="11.518589687304283"><ele>159.0</ele><time>2026-04-04T15:59:18.002Z</time></trkpt><trkpt lat="44.32354077753802" lon="11.518567211602813"><ele>159.0</ele><time>2026-04-04T15:59:19.002Z</time></trkpt><trkpt lat="44.323680973171676" lon="11.518530064701123"><ele>159.0</ele><time>2026-04-04T15:59:20.002Z</time></trkpt><trkpt lat="44.32381490319694" lon="11.518518716249044"><ele>159.0</ele><time>2026-04-04T15:59:21.002Z</time></trkpt><trkpt lat="44.323942211311596" lon="11.51854767504087"><ele>159.0</ele><time>2026-04-04T15:59:22.002Z</time></trkpt><trkpt lat="44.32408050558491" lon="11.518604503348541"><ele>157.66666666666666</ele><time>2026-04-04T15:59:23.002Z</time></trkpt><trkpt lat="44.32422129074626" lon="11.518683489583562"><ele>156.33333333333331</ele><time>2026-04-04T15:59:24.002Z</time></trkpt><trkpt lat="44.324355703215865" lon="11.51877762135107"><ele>155.0</ele><time>2026-04-04T15:59:25.002Z</time></trkpt><trkpt lat="44.324479508982996" lon="11.518906506779983"><ele>153.75</ele><time>2026-04-04T15:59:26.002Z</time></trkpt><trkpt lat="44.32461659183189" lon="11.518999988415345"><ele>152.5</ele><time>2026-04-04T15:59:27.002Z</time></trkpt><trkpt lat="44.32474013923459" lon="11.519109539095313"><ele>151.25</ele><time>2026-04-04T15:59:28.002Z</time></trkpt><trkpt lat="44.32486320272517" lon="11.519197150593406"><ele>150.0</ele><time>2026-04-04T15:59:29.002Z</time></trkpt><trkpt lat="44.32497611072597" lon="11.519293955622464"><ele>150.0</ele><time>2026-04-04T15:59:30.002Z</time></trkpt><trkpt lat="44.32506401509317" lon="11.519447483750533"><ele>150.0</ele><time>2026-04-04T15:59:31.002Z</time></trkpt><trkpt lat="44.325143040858045" lon="11.51959979549219"><ele>150.0</ele><time>2026-04-04T15:59:32.002Z</time></trkpt><trkpt lat="44.3252075755152" lon="11.519781334545073"><ele>150.0</ele><time>2026-04-04T15:59:33.002Z</time></trkpt><trkpt lat="44.32525101926" lon="11.51997644341036"><ele>149.0</ele><time>2026-04-04T15:59:34.002Z</time></trkpt><trkpt lat="44.325296206799344" lon="11.52015865191139"><ele>148.0</ele><time>2026-04-04T15:59:35.002Z</time></trkpt><trkpt lat="44.325337019497915" lon="11.520339857975904"><ele>147.0</ele><time>2026-04-04T15:59:36.002Z</time></trkpt><trkpt lat="44.32538824767414" lon="11.520524522822697"><ele>146.0</ele><time>2026-04-04T15:59:37.002Z</time></trkpt><trkpt lat="44.32545834832574" lon="11.520705492496754"><ele>145.66666666666666</ele><time>2026-04-04T15:59:38.002Z</time></trkpt><trkpt lat="44.325542453433805" lon="11.520883905532829"><ele>145.33333333333334</ele><time>2026-04-04T15:59:39.003Z</time></trkpt><trkpt lat="44.32563574498564" lon="11.5210621773257"><ele>145.0</ele><time>2026-04-04T15:59:40.003Z</time></trkpt><trkpt lat="44.325723609944724" lon="11.521232420525466"><ele>145.0</ele><time>2026-04-04T15:59:41.003Z</time></trkpt><trkpt lat="44.32580596030359" lon="11.521394752753617"><ele>145.0</ele><time>2026-04-04T15:59:42.003Z</time></trkpt><trkpt lat="44.32589798194385" lon="11.521551632143726"><ele>145.0</ele><time>2026-04-04T15:59:43.003Z</time></trkpt><trkpt lat="44.326000556007976" lon="11.521688134660979"><ele>145.0</ele><time>2026-04-04T15:59:44.003Z</time></trkpt><trkpt lat="44.32611147202388" lon="11.521792054210213"><ele>145.0</ele><time>2026-04-04T15:59:45.001Z</time></trkpt><trkpt lat="44.326198214140184" lon="11.52189406143342"><ele>145.0</ele><time>2026-04-04T15:59:46.001Z</time></trkpt><trkpt lat="44.32629032359371" lon="11.5220412191515"><ele>145.0</ele><time>2026-04-04T15:59:47.001Z</time></trkpt><trkpt lat="44.326360761181554" lon="11.522192698219667"><ele>145.0</ele><time>2026-04-04T15:59:48.001Z</time></trkpt><trkpt lat="44.32642164274008" lon="11.52234116035103"><ele>146.8</ele><time>2026-04-04T15:59:49.001Z</time></trkpt><trkpt lat="44.32647039134772" lon="11.522477624296343"><ele>148.6</ele><time>2026-04-04T15:59:50.001Z</time></trkpt><trkpt lat="44.32650358475723" lon="11.522613580681515"><ele>150.4</ele><time>2026-04-04T15:59:51Z</time></trkpt><trkpt lat="44.32652666545453" lon="11.522740466395096"><ele>152.2</ele><time>2026-04-04T15:59:52Z</time></trkpt><trkpt lat="44.32650127370197" lon="11.522887582419633"><ele>154.0</ele><time>2026-04-04T15:59:53.001Z</time></trkpt><trkpt lat="44.326433585856655" lon="11.523029630714392"><ele>150.75</ele><time>2026-04-04T15:59:54Z</time></trkpt><trkpt lat="44.32634134010754" lon="11.523147226440916"><ele>147.5</ele><time>2026-04-04T15:59:55Z</time></trkpt><trkpt lat="44.326233844094965" lon="11.523267455592423"><ele>144.25</ele><time>2026-04-04T15:59:56Z</time></trkpt><trkpt lat="44.32613597420894" lon="11.523407948454931"><ele>141.0</ele><time>2026-04-04T15:59:57Z</time></trkpt><trkpt lat="44.32603541028944" lon="11.523540001837443"><ele>141.0</ele><time>2026-04-04T15:59:58Z</time></trkpt><trkpt lat="44.325964315902915" lon="11.523668704156465"><ele>141.0</ele><time>2026-04-04T15:59:59Z</time></trkpt><trkpt lat="44.32590155370565" lon="11.523779186969447"><ele>141.0</ele><time>2026-04-04T16:00:00Z</time></trkpt><trkpt lat="44.325842462726285" lon="11.523880235542087"><ele>141.0</ele><time>2026-04-04T16:00:01Z</time></trkpt><trkpt lat="44.325791247968134" lon="11.523977975539093"><ele>141.0</ele><time>2026-04-04T16:00:02Z</time></trkpt><trkpt lat="44.32575522691986" lon="11.524092292790785"><ele>141.6</ele><time>2026-04-04T16:00:03.001Z</time></trkpt><trkpt lat="44.325754251373006" lon="11.524218089679733"><ele>142.2</ele><time>2026-04-04T16:00:04.001Z</time></trkpt><trkpt lat="44.32579691218908" lon="11.524350400588867"><ele>142.8</ele><time>2026-04-04T16:00:05.001Z</time></trkpt><trkpt lat="44.3258776582226" lon="11.524461734651998"><ele>143.4</ele><time>2026-04-04T16:00:06.001Z</time></trkpt><trkpt lat="44.3259940232424" lon="11.524515294027296"><ele>144.0</ele><time>2026-04-04T16:00:07.001Z</time></trkpt><trkpt lat="44.32613454090192" lon="11.524505583902265"><ele>144.0</ele><time>2026-04-04T16:00:08.001Z</time></trkpt><trkpt lat="44.32630075672987" lon="11.524445620622553"><ele>144.0</ele><time>2026-04-04T16:00:09.001Z</time></trkpt><trkpt lat="44.32648786691817" lon="11.524386941817184"><ele>144.0</ele><time>2026-04-04T16:00:10.001Z</time></trkpt><trkpt lat="44.326679251720655" lon="11.524350517248815"><ele>145.66666666666666</ele><time>2026-04-04T16:00:11.001Z</time></trkpt><trkpt lat="44.32688720953075" lon="11.52434186485141"><ele>147.33333333333331</ele><time>2026-04-04T16:00:12.001Z</time></trkpt><trkpt lat="44.32706966078177" lon="11.524356329376516"><ele>149.0</ele><time>2026-04-04T16:00:13.001Z</time></trkpt><trkpt lat="44.32723484655953" lon="11.524380380541132"><ele>149.0</ele><time>2026-04-04T16:00:14.001Z</time></trkpt><trkpt lat="44.32739054893759" lon="11.52440200952152"><ele>149.0</ele><time>2026-04-04T16:00:15.001Z</time></trkpt><trkpt lat="44.32753519170632" lon="11.524414198716359"><ele>149.0</ele><time>2026-04-04T16:00:16.001Z</time></trkpt><trkpt lat="44.32767480825085" lon="11.524428021888792"><ele>149.0</ele><time>2026-04-04T16:00:17.001Z</time></trkpt><trkpt lat="44.327801110002" lon="11.52445345293442"><ele>149.0</ele><time>2026-04-04T16:00:18.001Z</time></trkpt><trkpt lat="44.327927388238514" lon="11.52449272159895"><ele>149.0</ele><time>2026-04-04T16:00:19.001Z</time></trkpt><trkpt lat="44.32805723612955" lon="11.52456514833889"><ele>149.0</ele><time>2026-04-04T16:00:20.001Z</time></trkpt><trkpt lat="44.328188663843896" lon="11.5246520653373"><ele>149.0</ele><time>2026-04-04T16:00:21.001Z</time></trkpt><trkpt lat="44.32830348052345" lon="11.524729481515443"><ele>146.25</ele><time>2026-04-04T16:00:22.001Z</time></trkpt><trkpt lat="44.32843096055158" lon="11.524782624767695"><ele>143.5</ele><time>2026-04-04T16:00:23.001Z</time></trkpt><trkpt lat="44.328569314691464" lon="11.524798953029647"><ele>140.75</ele><time>2026-04-04T16:00:24.001Z</time></trkpt><trkpt lat="44.32871482803922" lon="11.524795536779003"><ele>138.0</ele><time>2026-04-04T16:00:25.001Z</time></trkpt><trkpt lat="44.328861982509544" lon="11.524803439695091"><ele>137.25</ele><time>2026-04-04T16:00:26.001Z</time></trkpt><trkpt lat="44.32900100875222" lon="11.524833377511861"><ele>136.5</ele><time>2026-04-04T16:00:27.001Z</time></trkpt><trkpt lat="44.329120665693935" lon="11.524904973913635"><ele>135.75</ele><time>2026-04-04T16:00:28.001Z</time></trkpt><trkpt lat="44.329230134125126" lon="11.524936617876639"><ele>135.0</ele><time>2026-04-04T16:00:29.001Z</time></trkpt><trkpt lat="44.32932975203906" lon="11.524977812065154"><ele>135.0</ele><time>2026-04-04T16:00:30.001Z</time></trkpt><trkpt lat="44.32941972124047" lon="11.52503274222397"><ele>135.0</ele><time>2026-04-04T16:00:31.001Z</time></trkpt><trkpt lat="44.329495975631275" lon="11.525141495130498"><ele>135.0</ele><time>2026-04-04T16:00:32.001Z</time></trkpt><trkpt lat="44.32956548174232" lon="11.525268721037985"><ele>135.0</ele><time>2026-04-04T16:00:33.001Z</time></trkpt><trkpt lat="44.32958758552383" lon="11.525454177765301"><ele>134.5</ele><time>2026-04-04T16:00:34.001Z</time></trkpt><trkpt lat="44.329650386600555" lon="11.525614200912567"><ele>134.0</ele><time>2026-04-04T16:00:35.001Z</time></trkpt><trkpt lat="44.32969648776623" lon="11.525779972301248"><ele>133.5</ele><time>2026-04-04T16:00:36.001Z</time></trkpt><trkpt lat="44.329751681770155" lon="11.525939341715127"><ele>133.0</ele><time>2026-04-04T16:00:37.001Z</time></trkpt><trkpt lat="44.32982209265393" lon="11.52608978202213"><ele>132.25</ele><time>2026-04-04T16:00:38.001Z</time></trkpt><trkpt lat="44.32990735676116" lon="11.526231948515461"><ele>131.5</ele><time>2026-04-04T16:00:39.001Z</time></trkpt><trkpt lat="44.33000565738825" lon="11.526371260672168"><ele>130.75</ele><time>2026-04-04T16:00:40.001Z</time></trkpt><trkpt lat="44.33011334206746" lon="11.526499925586526"><ele>130.0</ele><time>2026-04-04T16:00:41.001Z</time></trkpt><trkpt lat="44.33022030790165" lon="11.526633427276964"><ele>130.0</ele><time>2026-04-04T16:00:42.001Z</time></trkpt><trkpt lat="44.330340314391606" lon="11.526773660805826"><ele>130.0</ele><time>2026-04-04T16:00:43.001Z</time></trkpt><trkpt lat="44.33046515284871" lon="11.526917522289699"><ele>130.0</ele><time>2026-04-04T16:00:44.001Z</time></trkpt><trkpt lat="44.330595325555954" lon="11.527063744939296"><ele>130.0</ele><time>2026-04-04T16:00:45.001Z</time></trkpt><trkpt lat="44.330713162706104" lon="11.527214459043359"><ele>130.0</ele><time>2026-04-04T16:00:46.001Z</time></trkpt><trkpt lat="44.33082326251687" lon="11.52735436626544"><ele>130.0</ele><time>2026-04-04T16:00:47.001Z</time></trkpt><trkpt lat="44.33092182465657" lon="11.527486167691372"><ele>130.0</ele><time>2026-04-04T16:00:48.001Z</time></trkpt><trkpt lat="44.33101220922469" lon="11.527610441140919"><ele>130.0</ele><time>2026-04-04T16:00:49.001Z</time></trkpt><trkpt lat="44.33108196391563" lon="11.52774946370917"><ele>130.0</ele><time>2026-04-04T16:00:50.001Z</time></trkpt><trkpt lat="44.33115688310009" lon="11.527886884470744"><ele>130.0</ele><time>2026-04-04T16:00:51.001Z</time></trkpt><trkpt lat="44.33122550343977" lon="11.52804365189055"><ele>130.0</ele><time>2026-04-04T16:00:52.002Z</time></trkpt><trkpt lat="44.331290924484534" lon="11.528214270329228"><ele>130.75</ele><time>2026-04-04T16:00:53.002Z</time></trkpt><trkpt lat="44.33134904841478" lon="11.528390366913815"><ele>131.5</ele><time>2026-04-04T16:00:54.002Z</time></trkpt><trkpt lat="44.331403371087546" lon="11.528583711162481"><ele>132.25</ele><time>2026-04-04T16:00:55.002Z</time></trkpt><trkpt lat="44.331448341237284" lon="11.528774914188633"><ele>133.0</ele><time>2026-04-04T16:00:56.002Z</time></trkpt><trkpt lat="44.331485358186285" lon="11.528976490768107"><ele>133.0</ele><time>2026-04-04T16:00:57.002Z</time></trkpt><trkpt lat="44.33150772129317" lon="11.529181419173685"><ele>133.0</ele><time>2026-04-04T16:00:58.002Z</time></trkpt><trkpt lat="44.33151808863933" lon="11.529389276016486"><ele>133.0</ele><time>2026-04-04T16:00:59.002Z</time></trkpt><trkpt lat="44.33151693850008" lon="11.529590609589674"><ele>133.0</ele><time>2026-04-04T16:01:00.002Z</time></trkpt><trkpt lat="44.33151352742401" lon="11.529795521539164"><ele>132.66666666666669</ele><time>2026-04-04T16:01:01.002Z</time></trkpt><trkpt lat="44.331509900576144" lon="11.530011223459818"><ele>132.33333333333334</ele><time>2026-04-04T16:01:02.002Z</time></trkpt><trkpt lat="44.331507303486575" lon="11.530226516524612"><ele>132.0</ele><time>2026-04-04T16:01:03.002Z</time></trkpt><trkpt lat="44.331504830036174" lon="11.530450747486872"><ele>132.0</ele><time>2026-04-04T16:01:04.002Z</time></trkpt><trkpt lat="44.33151698488107" lon="11.530658549538902"><ele>132.0</ele><time>2026-04-04T16:01:05.002Z</time></trkpt><trkpt lat="44.33151705270548" lon="11.53085032564994"><ele>132.0</ele><time>2026-04-04T16:01:06.002Z</time></trkpt><trkpt lat="44.331517033118736" lon="11.53103957142072"><ele>132.0</ele><time>2026-04-04T16:01:07.002Z</time></trkpt><trkpt lat="44.331515381509774" lon="11.531225488553867"><ele>131.79999999999998</ele><time>2026-04-04T16:01:08.002Z</time></trkpt><trkpt lat="44.3315158039717" lon="11.53139609035204"><ele>131.6</ele><time>2026-04-04T16:01:09.002Z</time></trkpt><trkpt lat="44.33151591042081" lon="11.531551867093757"><ele>131.39999999999998</ele><time>2026-04-04T16:01:10.002Z</time></trkpt><trkpt lat="44.33151141308088" lon="11.531708356617644"><ele>131.2</ele><time>2026-04-04T16:01:11.002Z</time></trkpt><trkpt lat="44.331512674876414" lon="11.53185308860167"><ele>131.0</ele><time>2026-04-04T16:01:12.002Z</time></trkpt><trkpt lat="44.33152836000725" lon="11.531980359764747"><ele>130.5</ele><time>2026-04-04T16:01:13.002Z</time></trkpt><trkpt lat="44.331570779386" lon="11.532106198868679"><ele>130.0</ele><time>2026-04-04T16:01:14.002Z</time></trkpt><trkpt lat="44.33164547891354" lon="11.532232812352241"><ele>129.5</ele><time>2026-04-04T16:01:15.002Z</time></trkpt><trkpt lat="44.331748984537086" lon="11.532349806676823"><ele>129.0</ele><time>2026-04-04T16:01:16.002Z</time></trkpt><trkpt lat="44.331855793284554" lon="11.532474847738454"><ele>129.0</ele><time>2026-04-04T16:01:17.002Z</time></trkpt><trkpt lat="44.331954240971974" lon="11.532592514871814"><ele>129.0</ele><time>2026-04-04T16:01:18.002Z</time></trkpt><trkpt lat="44.33204704380459" lon="11.532705019875552"><ele>129.0</ele><time>2026-04-04T16:01:19.002Z</time></trkpt><trkpt lat="44.332150001392336" lon="11.532819244301104"><ele>129.0</ele><time>2026-04-04T16:01:20.002Z</time></trkpt><trkpt lat="44.33226676149073" lon="11.532932846679781"><ele>129.0</ele><time>2026-04-04T16:01:21.002Z</time></trkpt><trkpt lat="44.332391511686055" lon="11.533030079935012"><ele>129.0</ele><time>2026-04-04T16:01:22.002Z</time></trkpt><trkpt lat="44.332514260903324" lon="11.533106528772466"><ele>129.0</ele><time>2026-04-04T16:01:23.002Z</time></trkpt><trkpt lat="44.332659028089274" lon="11.533166339077816"><ele>129.0</ele><time>2026-04-04T16:01:24.002Z</time></trkpt><trkpt lat="44.33280089410923" lon="11.533182589790663"><ele>129.0</ele><time>2026-04-04T16:01:25.002Z</time></trkpt><trkpt lat="44.33294365185163" lon="11.533159695404613"><ele>129.0</ele><time>2026-04-04T16:01:26.002Z</time></trkpt><trkpt lat="44.33309374446596" lon="11.533118315899664"><ele>129.0</ele><time>2026-04-04T16:01:27.002Z</time></trkpt><trkpt lat="44.333239123725285" lon="11.533110338034227"><ele>129.0</ele><time>2026-04-04T16:01:28.002Z</time></trkpt><trkpt lat="44.333388973428306" lon="11.533133884453063"><ele>128.33333333333334</ele><time>2026-04-04T16:01:29.002Z</time></trkpt><trkpt lat="44.333541673580065" lon="11.533182470943556"><ele>127.66666666666667</ele><time>2026-04-04T16:01:30.002Z</time></trkpt><trkpt lat="44.33369834588467" lon="11.533252341114833"><ele>127.0</ele><time>2026-04-04T16:01:31.002Z</time></trkpt><trkpt lat="44.33384111532589" lon="11.533322822339594"><ele>128.5</ele><time>2026-04-04T16:01:32.002Z</time></trkpt><trkpt lat="44.33397605152569" lon="11.533386454303248"><ele>130.0</ele><time>2026-04-04T16:01:33.002Z</time></trkpt><trkpt lat="44.33411038432058" lon="11.53345821683274"><ele>131.5</ele><time>2026-04-04T16:01:34.003Z</time></trkpt><trkpt lat="44.33425245347595" lon="11.533569513608567"><ele>133.0</ele><time>2026-04-04T16:01:35.003Z</time></trkpt><trkpt lat="44.33439099039" lon="11.53370830792006"><ele>132.33333333333334</ele><time>2026-04-04T16:01:36.003Z</time></trkpt><trkpt lat="44.33452469797569" lon="11.533857860480142"><ele>131.66666666666666</ele><time>2026-04-04T16:01:37.003Z</time></trkpt><trkpt lat="44.334671250696424" lon="11.534001859420897"><ele>131.0</ele><time>2026-04-04T16:01:38.003Z</time></trkpt><trkpt lat="44.33482225957698" lon="11.53414441781853"><ele>131.0</ele><time>2026-04-04T16:01:39.003Z</time></trkpt><trkpt lat="44.334968712707884" lon="11.53431186216602"><ele>131.0</ele><time>2026-04-04T16:01:40.003Z</time></trkpt><trkpt lat="44.33511536293689" lon="11.534457426541033"><ele>131.0</ele><time>2026-04-04T16:01:41.003Z</time></trkpt><trkpt lat="44.335247146198974" lon="11.53459366616316"><ele>131.66666666666666</ele><time>2026-04-04T16:01:42.003Z</time></trkpt><trkpt lat="44.335371256354875" lon="11.534728317871506"><ele>132.33333333333334</ele><time>2026-04-04T16:01:43.003Z</time></trkpt><trkpt lat="44.335496524934996" lon="11.534866211026525"><ele>133.0</ele><time>2026-04-04T16:01:44.003Z</time></trkpt><trkpt lat="44.33562274029874" lon="11.535005146386261"><ele>133.0</ele><time>2026-04-04T16:01:45.003Z</time></trkpt><trkpt lat="44.33574448224247" lon="11.535141552371899"><ele>133.0</ele><time>2026-04-04T16:01:46.003Z</time></trkpt><trkpt lat="44.335858252249686" lon="11.535270730941011"><ele>133.0</ele><time>2026-04-04T16:01:47.003Z</time></trkpt><trkpt lat="44.33596901596581" lon="11.535395354243448"><ele>133.0</ele><time>2026-04-04T16:01:48.003Z</time></trkpt><trkpt lat="44.3360777527983" lon="11.535519060732417"><ele>133.75</ele><time>2026-04-04T16:01:49.003Z</time></trkpt><trkpt lat="44.33617615287884" lon="11.535645215639775"><ele>134.5</ele><time>2026-04-04T16:01:50.003Z</time></trkpt><trkpt lat="44.33626466209178" lon="11.535779210508666"><ele>135.25</ele><time>2026-04-04T16:01:51.001Z</time></trkpt><trkpt lat="44.33634714743405" lon="11.535939816975795"><ele>136.0</ele><time>2026-04-04T16:01:52.001Z</time></trkpt><trkpt lat="44.336404033996715" lon="11.536120141236198"><ele>136.33333333333334</ele><time>2026-04-04T16:01:53.001Z</time></trkpt><trkpt lat="44.33644486816608" lon="11.536317584014569"><ele>136.66666666666666</ele><time>2026-04-04T16:01:54.001Z</time></trkpt><trkpt lat="44.33645729208694" lon="11.536530385627032"><ele>137.0</ele><time>2026-04-04T16:01:55.001Z</time></trkpt><trkpt lat="44.336459954748584" lon="11.536749085163786"><ele>137.0</ele><time>2026-04-04T16:01:56.001Z</time></trkpt><trkpt lat="44.336455486913664" lon="11.536971101714771"><ele>137.0</ele><time>2026-04-04T16:01:57.001Z</time></trkpt><trkpt lat="44.336449864669824" lon="11.537196619494908"><ele>137.0</ele><time>2026-04-04T16:01:58.001Z</time></trkpt><trkpt lat="44.3364434767839" lon="11.537429155246198"><ele>136.33333333333331</ele><time>2026-04-04T16:01:59.001Z</time></trkpt><trkpt lat="44.336439403644135" lon="11.537660159326197"><ele>135.66666666666666</ele><time>2026-04-04T16:02:00.001Z</time></trkpt><trkpt lat="44.336435273166686" lon="11.537899150584861"><ele>135.0</ele><time>2026-04-04T16:02:01.001Z</time></trkpt><trkpt lat="44.33643006628603" lon="11.53812915234175"><ele>135.0</ele><time>2026-04-04T16:02:02.001Z</time></trkpt><trkpt lat="44.33642500813432" lon="11.538343309981403"><ele>135.0</ele><time>2026-04-04T16:02:03.001Z</time></trkpt><trkpt lat="44.33642091687865" lon="11.538541897554309"><ele>135.0</ele><time>2026-04-04T16:02:04.001Z</time></trkpt><trkpt lat="44.33641750456487" lon="11.538724985854516"><ele>135.0</ele><time>2026-04-04T16:02:05.001Z</time></trkpt><trkpt lat="44.33643217301078" lon="11.538891359751883"><ele>135.25</ele><time>2026-04-04T16:02:06.001Z</time></trkpt><trkpt lat="44.33644077533516" lon="11.539047171082268"><ele>135.5</ele><time>2026-04-04T16:02:07.001Z</time></trkpt><trkpt lat="44.336466805204815" lon="11.539208780213011"><ele>135.75</ele><time>2026-04-04T16:02:08.001Z</time></trkpt><trkpt lat="44.33652370990647" lon="11.53936852133883"><ele>136.0</ele><time>2026-04-04T16:02:09.001Z</time></trkpt><trkpt lat="44.33661059613257" lon="11.539522001199494"><ele>134.33333333333334</ele><time>2026-04-04T16:02:10.001Z</time></trkpt><trkpt lat="44.336727267893835" lon="11.539666175245257"><ele>132.66666666666666</ele><time>2026-04-04T16:02:11.001Z</time></trkpt><trkpt lat="44.33686805410403" lon="11.539790726186972"><ele>131.0</ele><time>2026-04-04T16:02:12.001Z</time></trkpt><trkpt lat="44.33699755653752" lon="11.53990093810424"><ele>131.0</ele><time>2026-04-04T16:02:13.001Z</time></trkpt><trkpt lat="44.33713444699676" lon="11.5400122849695"><ele>131.0</ele><time>2026-04-04T16:02:14.001Z</time></trkpt><trkpt lat="44.33728419703589" lon="11.540128850535597"><ele>131.0</ele><time>2026-04-04T16:02:15.001Z</time></trkpt><trkpt lat="44.337427728771935" lon="11.540232833959756"><ele>133.0</ele><time>2026-04-04T16:02:16.001Z</time></trkpt><trkpt lat="44.3375774163914" lon="11.540333005269243"><ele>135.0</ele><time>2026-04-04T16:02:17.001Z</time></trkpt><trkpt lat="44.337735946073074" lon="11.540427302793727"><ele>137.0</ele><time>2026-04-04T16:02:18.001Z</time></trkpt><trkpt lat="44.33790036999889" lon="11.540518787753465"><ele>137.0</ele><time>2026-04-04T16:02:19.001Z</time></trkpt><trkpt lat="44.33804893639947" lon="11.540599980962211"><ele>137.0</ele><time>2026-04-04T16:02:20.001Z</time></trkpt><trkpt lat="44.33818601349681" lon="11.54067217709184"><ele>137.0</ele><time>2026-04-04T16:02:21.001Z</time></trkpt><trkpt lat="44.338324019346466" lon="11.540736972663275"><ele>139.33333333333331</ele><time>2026-04-04T16:02:22.001Z</time></trkpt><trkpt lat="44.33846664042689" lon="11.54077727345246"><ele>141.66666666666666</ele><time>2026-04-04T16:02:23.001Z</time></trkpt><trkpt lat="44.338615027577454" lon="11.54076393160721"><ele>144.0</ele><time>2026-04-04T16:02:24.001Z</time></trkpt><trkpt lat="44.33876971209257" lon="11.540720786573386"><ele>144.0</ele><time>2026-04-04T16:02:25.001Z</time></trkpt><trkpt lat="44.33890689433398" lon="11.54068417959984"><ele>144.0</ele><time>2026-04-04T16:02:26.001Z</time></trkpt><trkpt lat="44.33903430185366" lon="11.540649643165564"><ele>144.0</ele><time>2026-04-04T16:02:27.001Z</time></trkpt><trkpt lat="44.339161322105284" lon="11.540617371092422"><ele>144.0</ele><time>2026-04-04T16:02:28.001Z</time></trkpt><trkpt lat="44.33928462715026" lon="11.540623751888566"><ele>144.0</ele><time>2026-04-04T16:02:29.001Z</time></trkpt><trkpt lat="44.33940845108349" lon="11.540670355042655"><ele>144.0</ele><time>2026-04-04T16:02:30.001Z</time></trkpt><trkpt lat="44.33952802719881" lon="11.5407570050941"><ele>144.0</ele><time>2026-04-04T16:02:31.001Z</time></trkpt><trkpt lat="44.339659709007876" lon="11.540881576093584"><ele>144.0</ele><time>2026-04-04T16:02:32.001Z</time></trkpt><trkpt lat="44.339798050012824" lon="11.541021317027425"><ele>145.66666666666666</ele><time>2026-04-04T16:02:33.001Z</time></trkpt><trkpt lat="44.33994090278724" lon="11.541156521079829"><ele>147.33333333333331</ele><time>2026-04-04T16:02:34.001Z</time></trkpt><trkpt lat="44.34009369712922" lon="11.54129637544536"><ele>149.0</ele><time>2026-04-04T16:02:35.001Z</time></trkpt><trkpt lat="44.34025759181236" lon="11.541440799423597"><ele>147.66666666666666</ele><time>2026-04-04T16:02:36.001Z</time></trkpt><trkpt lat="44.340418957639066" lon="11.541592120773783"><ele>146.33333333333334</ele><time>2026-04-04T16:02:37.001Z</time></trkpt><trkpt lat="44.34057736331395" lon="11.54175201292283"><ele>145.0</ele><time>2026-04-04T16:02:38.001Z</time></trkpt><trkpt lat="44.34075292929592" lon="11.541916728187807"><ele>141.33333333333334</ele><time>2026-04-04T16:02:39.001Z</time></trkpt><trkpt lat="44.340909292062776" lon="11.542109831265655"><ele>137.66666666666666</ele><time>2026-04-04T16:02:40.001Z</time></trkpt><trkpt lat="44.34105676210594" lon="11.542277720180765"><ele>134.0</ele><time>2026-04-04T16:02:41.001Z</time></trkpt><trkpt lat="44.3411919064443" lon="11.542435638358498"><ele>134.0</ele><time>2026-04-04T16:02:42.001Z</time></trkpt><trkpt lat="44.34132575490066" lon="11.542569968314773"><ele>134.0</ele><time>2026-04-04T16:02:43.001Z</time></trkpt><trkpt lat="44.34145299744212" lon="11.5427271703556"><ele>134.0</ele><time>2026-04-04T16:02:44.001Z</time></trkpt><trkpt lat="44.341587753385305" lon="11.542886359745204"><ele>134.33333333333331</ele><time>2026-04-04T16:02:45.001Z</time></trkpt><trkpt lat="44.34172625457513" lon="11.543045659427078"><ele>134.66666666666666</ele><time>2026-04-04T16:02:46.001Z</time></trkpt><trkpt lat="44.341860001353005" lon="11.543204552532302"><ele>135.0</ele><time>2026-04-04T16:02:47.001Z</time></trkpt><trkpt lat="44.341989267002674" lon="11.543359665204289"><ele>135.0</ele><time>2026-04-04T16:02:48.001Z</time></trkpt><trkpt lat="44.34211872022469" lon="11.543518260898978"><ele>135.0</ele><time>2026-04-04T16:02:49.001Z</time></trkpt><trkpt lat="44.342252477078915" lon="11.54367712415335"><ele>135.0</ele><time>2026-04-04T16:02:50.001Z</time></trkpt><trkpt lat="44.34236923625734" lon="11.543847041972697"><ele>135.0</ele><time>2026-04-04T16:02:51.001Z</time></trkpt><trkpt lat="44.34249361818767" lon="11.543996064639728"><ele>135.0</ele><time>2026-04-04T16:02:52.002Z</time></trkpt><trkpt lat="44.342608933514825" lon="11.544133344408845"><ele>135.0</ele><time>2026-04-04T16:02:53.002Z</time></trkpt><trkpt lat="44.34272518225978" lon="11.544261981385086"><ele>135.0</ele><time>2026-04-04T16:02:54.002Z</time></trkpt><trkpt lat="44.34284241855668" lon="11.544399124790461"><ele>135.0</ele><time>2026-04-04T16:02:55.002Z</time></trkpt><trkpt lat="44.34295714856153" lon="11.544526578067977"><ele>135.0</ele><time>2026-04-04T16:02:56.002Z</time></trkpt><trkpt lat="44.34306700151587" lon="11.544658302518089"><ele>135.0</ele><time>2026-04-04T16:02:57.002Z</time></trkpt><trkpt lat="44.34318321293688" lon="11.544790690315214"><ele>131.66666666666666</ele><time>2026-04-04T16:02:58.002Z</time></trkpt><trkpt lat="44.3433070584148" lon="11.544913597214052"><ele>128.33333333333331</ele><time>2026-04-04T16:02:59.002Z</time></trkpt><trkpt lat="44.34344694317169" lon="11.545028158828034"><ele>125.0</ele><time>2026-04-04T16:03:00.002Z</time></trkpt><trkpt lat="44.34359560155694" lon="11.545118398169722"><ele>125.0</ele><time>2026-04-04T16:03:01.002Z</time></trkpt><trkpt lat="44.343730877680045" lon="11.5451975600608"><ele>125.0</ele><time>2026-04-04T16:03:02.002Z</time></trkpt><trkpt lat="44.34385637204686" lon="11.545266833953319"><ele>125.0</ele><time>2026-04-04T16:03:03.002Z</time></trkpt><trkpt lat="44.34396442506242" lon="11.545332656201222"><ele>125.0</ele><time>2026-04-04T16:03:04.002Z</time></trkpt><trkpt lat="44.34406149760132" lon="11.545419914949388"><ele>125.5</ele><time>2026-04-04T16:03:05.002Z</time></trkpt><trkpt lat="44.34413452621314" lon="11.545565298086409"><ele>126.0</ele><time>2026-04-04T16:03:06.002Z</time></trkpt><trkpt lat="44.34419926002383" lon="11.545724000421004"><ele>126.5</ele><time>2026-04-04T16:03:07.002Z</time></trkpt><trkpt lat="44.34420809031295" lon="11.545914567872947"><ele>127.0</ele><time>2026-04-04T16:03:08.002Z</time></trkpt><trkpt lat="44.344187446813265" lon="11.546111164147986"><ele>127.0</ele><time>2026-04-04T16:03:09.002Z</time></trkpt><trkpt lat="44.344100375201506" lon="11.546274824357484"><ele>127.0</ele><time>2026-04-04T16:03:10.002Z</time></trkpt><trkpt lat="44.34403733174541" lon="11.546452030997173"><ele>127.0</ele><time>2026-04-04T16:03:11.002Z</time></trkpt><trkpt lat="44.3439660148941" lon="11.546602289005463"><ele>127.0</ele><time>2026-04-04T16:03:12.002Z</time></trkpt><trkpt lat="44.343913927833206" lon="11.546778144520134"><ele>127.0</ele><time>2026-04-04T16:03:13.002Z</time></trkpt><trkpt lat="44.34389131159675" lon="11.546978754963215"><ele>127.0</ele><time>2026-04-04T16:03:14.002Z</time></trkpt><trkpt lat="44.34389505530219" lon="11.547216084307387"><ele>127.0</ele><time>2026-04-04T16:03:15.002Z</time></trkpt><trkpt lat="44.34391513507406" lon="11.54746877722462"><ele>124.33333333333334</ele><time>2026-04-04T16:03:16.002Z</time></trkpt><trkpt lat="44.34391616623458" lon="11.54770180442444"><ele>121.66666666666666</ele><time>2026-04-04T16:03:17.002Z</time></trkpt><trkpt lat="44.34392543205987" lon="11.547908917554984"><ele>119.0</ele><time>2026-04-04T16:03:18.002Z</time></trkpt><trkpt lat="44.343946285517724" lon="11.548129631410786"><ele>119.0</ele><time>2026-04-04T16:03:19.002Z</time></trkpt><trkpt lat="44.343952884690644" lon="11.548366801473643"><ele>119.0</ele><time>2026-04-04T16:03:20.002Z</time></trkpt><trkpt lat="44.34394565205377" lon="11.548622308960134"><ele>119.0</ele><time>2026-04-04T16:03:21.002Z</time></trkpt><trkpt lat="44.3438972165857" lon="11.548874943743062"><ele>117.33333333333333</ele><time>2026-04-04T16:03:22.002Z</time></trkpt><trkpt lat="44.34387082298942" lon="11.549104430449606"><ele>115.66666666666666</ele><time>2026-04-04T16:03:23.002Z</time></trkpt><trkpt lat="44.34382096249777" lon="11.54932076822234"><ele>114.0</ele><time>2026-04-04T16:03:24.002Z</time></trkpt><trkpt lat="44.34377602832514" lon="11.549557646514199"><ele>114.0</ele><time>2026-04-04T16:03:25.002Z</time></trkpt><trkpt lat="44.34374347892693" lon="11.549795182229376"><ele>114.0</ele><time>2026-04-04T16:03:26.002Z</time></trkpt><trkpt lat="44.34371994430866" lon="11.550036483270684"><ele>114.0</ele><time>2026-04-04T16:03:27.002Z</time></trkpt><trkpt lat="44.343699932000035" lon="11.550267622493847"><ele>113.0</ele><time>2026-04-04T16:03:28.002Z</time></trkpt><trkpt lat="44.34368876429765" lon="11.550490593765325"><ele>112.0</ele><time>2026-04-04T16:03:29.002Z</time></trkpt><trkpt lat="44.34367360755261" lon="11.550715498933759"><ele>111.0</ele><time>2026-04-04T16:03:30.002Z</time></trkpt><trkpt lat="44.34366497558519" lon="11.550931535699993"><ele>111.0</ele><time>2026-04-04T16:03:31.002Z</time></trkpt><trkpt lat="44.34366315020133" lon="11.551146628793935"><ele>111.0</ele><time>2026-04-04T16:03:32.002Z</time></trkpt><trkpt lat="44.343667360082456" lon="11.55137129409769"><ele>111.0</ele><time>2026-04-04T16:03:33.002Z</time></trkpt><trkpt lat="44.34367594856695" lon="11.551587324374488"><ele>111.25</ele><time>2026-04-04T16:03:34.002Z</time></trkpt><trkpt lat="44.343687088117235" lon="11.551791907537185"><ele>111.5</ele><time>2026-04-04T16:03:35.002Z</time></trkpt><trkpt lat="44.34370138599544" lon="11.551988392017057"><ele>111.75</ele><time>2026-04-04T16:03:36.002Z</time></trkpt><trkpt lat="44.34372121543549" lon="11.55217199425458"><ele>112.0</ele><time>2026-04-04T16:03:37.002Z</time></trkpt><trkpt lat="44.343755948866594" lon="11.55236595213523"><ele>111.0</ele><time>2026-04-04T16:03:38.002Z</time></trkpt><trkpt lat="44.34381457641018" lon="11.552563791607696"><ele>110.0</ele><time>2026-04-04T16:03:39.002Z</time></trkpt><trkpt lat="44.34388391548173" lon="11.552767618487678"><ele>109.0</ele><time>2026-04-04T16:03:40.003Z</time></trkpt><trkpt lat="44.3440177098449" lon="11.552933402778768"><ele>108.66666666666667</ele><time>2026-04-04T16:03:41.003Z</time></trkpt><trkpt lat="44.34414986467456" lon="11.553116615034856"><ele>108.33333333333334</ele><time>2026-04-04T16:03:42.003Z</time></trkpt><trkpt lat="44.34429245023978" lon="11.553298935875748"><ele>108.0</ele><time>2026-04-04T16:03:43.003Z</time></trkpt><trkpt lat="44.34443374747422" lon="11.553487084301088"><ele>108.0</ele><time>2026-04-04T16:03:44.003Z</time></trkpt><trkpt lat="44.34456678730251" lon="11.553704570019283"><ele>108.0</ele><time>2026-04-04T16:03:45.003Z</time></trkpt><trkpt lat="44.34471235759056" lon="11.553907203148365"><ele>108.0</ele><time>2026-04-04T16:03:46.003Z</time></trkpt><trkpt lat="44.34485697313881" lon="11.554104938259972"><ele>107.66666666666666</ele><time>2026-04-04T16:03:47.003Z</time></trkpt><trkpt lat="44.34500543231479" lon="11.554307252826396"><ele>107.33333333333333</ele><time>2026-04-04T16:03:48.003Z</time></trkpt><trkpt lat="44.3451522140189" lon="11.5545058141344"><ele>107.0</ele><time>2026-04-04T16:03:49.003Z</time></trkpt><trkpt lat="44.34529794152905" lon="11.554698248048433"><ele>106.0</ele><time>2026-04-04T16:03:50.003Z</time></trkpt><trkpt lat="44.34545146730994" lon="11.554869328959075"><ele>105.0</ele><time>2026-04-04T16:03:51.003Z</time></trkpt><trkpt lat="44.34559485594943" lon="11.555062396709259"><ele>104.0</ele><time>2026-04-04T16:03:52.003Z</time></trkpt><trkpt lat="44.34574167200729" lon="11.555258310364254"><ele>104.0</ele><time>2026-04-04T16:03:53.003Z</time></trkpt><trkpt lat="44.34589459459754" lon="11.55546261298571"><ele>104.0</ele><time>2026-04-04T16:03:54.003Z</time></trkpt><trkpt lat="44.346040951382264" lon="11.55566479284917"><ele>104.0</ele><time>2026-04-04T16:03:55.003Z</time></trkpt><trkpt lat="44.34617602883299" lon="11.555855111356086"><ele>104.0</ele><time>2026-04-04T16:03:56.003Z</time></trkpt><trkpt lat="44.346296076358826" lon="11.556027086993845"><ele>104.0</ele><time>2026-04-04T16:03:57.001Z</time></trkpt><trkpt lat="44.34641339387672" lon="11.556193887753022"><ele>104.0</ele><time>2026-04-04T16:03:58.001Z</time></trkpt><trkpt lat="44.34652357922763" lon="11.5563463566441"><ele>104.0</ele><time>2026-04-04T16:03:59.001Z</time></trkpt><trkpt lat="44.34662668050532" lon="11.556487614632353"><ele>104.0</ele><time>2026-04-04T16:04:00.001Z</time></trkpt><trkpt lat="44.34673133293185" lon="11.55662694240435"><ele>104.0</ele><time>2026-04-04T16:04:01.001Z</time></trkpt><trkpt lat="44.346857433903764" lon="11.556765306924897"><ele>104.0</ele><time>2026-04-04T16:04:02.001Z</time></trkpt><trkpt lat="44.34700682173349" lon="11.556880172657092"><ele>104.0</ele><time>2026-04-04T16:04:03.001Z</time></trkpt><trkpt lat="44.347178877893306" lon="11.556955485843185"><ele>104.0</ele><time>2026-04-04T16:04:04.001Z</time></trkpt><trkpt lat="44.34735469594287" lon="11.55701539926652"><ele>104.0</ele><time>2026-04-04T16:04:05.001Z</time></trkpt><trkpt lat="44.34753933785417" lon="11.557068892156625"><ele>103.66666666666666</ele><time>2026-04-04T16:04:06.001Z</time></trkpt><trkpt lat="44.34772977592961" lon="11.557132752496093"><ele>103.33333333333334</ele><time>2026-04-04T16:04:07.001Z</time></trkpt><trkpt lat="44.34791604468412" lon="11.557205682307469"><ele>103.0</ele><time>2026-04-04T16:04:08.001Z</time></trkpt><trkpt lat="44.3480885137377" lon="11.557288343758715"><ele>102.66666666666667</ele><time>2026-04-04T16:04:09.001Z</time></trkpt><trkpt lat="44.348261284990116" lon="11.557395575479212"><ele>102.33333333333334</ele><time>2026-04-04T16:04:10.001Z</time></trkpt><trkpt lat="44.348439121124905" lon="11.55752922152258"><ele>102.0</ele><time>2026-04-04T16:04:11.001Z</time></trkpt><trkpt lat="44.34862927381601" lon="11.557687649481547"><ele>102.0</ele><time>2026-04-04T16:04:12.001Z</time></trkpt><trkpt lat="44.3488050092939" lon="11.557838017665958"><ele>102.0</ele><time>2026-04-04T16:04:13.001Z</time></trkpt><trkpt lat="44.34896693565433" lon="11.557970233941626"><ele>102.0</ele><time>2026-04-04T16:04:14.001Z</time></trkpt><trkpt lat="44.349117686683066" lon="11.558090703479674"><ele>101.66666666666666</ele><time>2026-04-04T16:04:15.001Z</time></trkpt><trkpt lat="44.349256659071095" lon="11.558200023125867"><ele>101.33333333333333</ele><time>2026-04-04T16:04:16.001Z</time></trkpt><trkpt lat="44.349389290381986" lon="11.558304273061335"><ele>101.0</ele><time>2026-04-04T16:04:17.001Z</time></trkpt><trkpt lat="44.34951121780001" lon="11.558403701167753"><ele>101.0</ele><time>2026-04-04T16:04:18.001Z</time></trkpt><trkpt lat="44.34962611703609" lon="11.558497736128524"><ele>101.0</ele><time>2026-04-04T16:04:19.001Z</time></trkpt><trkpt lat="44.34974050892898" lon="11.558585482139714"><ele>101.0</ele><time>2026-04-04T16:04:20.001Z</time></trkpt><trkpt lat="44.349852709204185" lon="11.558672755948969"><ele>101.0</ele><time>2026-04-04T16:04:21.001Z</time></trkpt><trkpt lat="44.34996684936757" lon="11.558762367997726"><ele>100.75</ele><time>2026-04-04T16:04:22.001Z</time></trkpt><trkpt lat="44.35008521453494" lon="11.55885518194965"><ele>100.5</ele><time>2026-04-04T16:04:23.001Z</time></trkpt><trkpt lat="44.35020845689443" lon="11.558948717666711"><ele>100.25</ele><time>2026-04-04T16:04:24.001Z</time></trkpt><trkpt lat="44.35033780349233" lon="11.559047454234864"><ele>100.0</ele><time>2026-04-04T16:04:25.001Z</time></trkpt><trkpt lat="44.3504655343663" lon="11.559146114932195"><ele>99.66666666666667</ele><time>2026-04-04T16:04:26.001Z</time></trkpt><trkpt lat="44.35059811131039" lon="11.559252008766459"><ele>99.33333333333334</ele><time>2026-04-04T16:04:27.001Z</time></trkpt><trkpt lat="44.35072788138406" lon="11.559356478461817"><ele>99.0</ele><time>2026-04-04T16:04:28.001Z</time></trkpt><trkpt lat="44.35085799715995" lon="11.559455307173879"><ele>99.25</ele><time>2026-04-04T16:04:29.001Z</time></trkpt><trkpt lat="44.350987310017246" lon="11.559555159529754"><ele>99.5</ele><time>2026-04-04T16:04:30.001Z</time></trkpt><trkpt lat="44.3511173847549" lon="11.559661905626424"><ele>99.75</ele><time>2026-04-04T16:04:31.001Z</time></trkpt><trkpt lat="44.3512495345603" lon="11.55976353363782"><ele>100.0</ele><time>2026-04-04T16:04:32.001Z</time></trkpt><trkpt lat="44.35137845009827" lon="11.559864577989812"><ele>100.5</ele><time>2026-04-04T16:04:33.001Z</time></trkpt><trkpt lat="44.35150573918164" lon="11.55996640751645"><ele>101.0</ele><time>2026-04-04T16:04:34.001Z</time></trkpt><trkpt lat="44.35163177359084" lon="11.56006993739823"><ele>101.5</ele><time>2026-04-04T16:04:35.001Z</time></trkpt><trkpt lat="44.35176076420024" lon="11.560172580414791"><ele>102.0</ele><time>2026-04-04T16:04:36.001Z</time></trkpt><trkpt lat="44.35188108195758" lon="11.560280989655837"><ele>101.75</ele><time>2026-04-04T16:04:37.001Z</time></trkpt><trkpt lat="44.35199228418724" lon="11.560405450190087"><ele>101.5</ele><time>2026-04-04T16:04:38.001Z</time></trkpt><trkpt lat="44.35207369875428" lon="11.560535540249157"><ele>101.25</ele><time>2026-04-04T16:04:39.001Z</time></trkpt><trkpt lat="44.352149080933636" lon="11.560675990956124"><ele>101.0</ele><time>2026-04-04T16:04:40.001Z</time></trkpt><trkpt lat="44.352216377052585" lon="11.560818815482833"><ele>101.75</ele><time>2026-04-04T16:04:41.001Z</time></trkpt><trkpt lat="44.35228555697484" lon="11.560951330422466"><ele>102.5</ele><time>2026-04-04T16:04:42.001Z</time></trkpt><trkpt lat="44.35236408232447" lon="11.561087003658278"><ele>103.25</ele><time>2026-04-04T16:04:43.001Z</time></trkpt><trkpt lat="44.35245005730025" lon="11.561239253508644"><ele>104.0</ele><time>2026-04-04T16:04:44.001Z</time></trkpt><trkpt lat="44.352532653363994" lon="11.56139361013212"><ele>104.0</ele><time>2026-04-04T16:04:45.001Z</time></trkpt><trkpt lat="44.352608646717215" lon="11.561542922097988"><ele>104.0</ele><time>2026-04-04T16:04:46.001Z</time></trkpt><trkpt lat="44.352673057950234" lon="11.561670040503413"><ele>104.0</ele><time>2026-04-04T16:04:47.001Z</time></trkpt><trkpt lat="44.35273894349198" lon="11.561788693008891"><ele>104.0</ele><time>2026-04-04T16:04:48.001Z</time></trkpt><trkpt lat="44.3528076452379" lon="11.561922693757149"><ele>104.25</ele><time>2026-04-04T16:04:49.001Z</time></trkpt><trkpt lat="44.352888079897426" lon="11.562052958364477"><ele>104.5</ele><time>2026-04-04T16:04:50.001Z</time></trkpt><trkpt lat="44.3529610246067" lon="11.562184727344775"><ele>104.75</ele><time>2026-04-04T16:04:51.001Z</time></trkpt><trkpt lat="44.35303311760215" lon="11.562320882261142"><ele>105.0</ele><time>2026-04-04T16:04:52.001Z</time></trkpt><trkpt lat="44.35310428505971" lon="11.562448886986823"><ele>105.0</ele><time>2026-04-04T16:04:53.001Z</time></trkpt><trkpt lat="44.35316776236455" lon="11.562570118197645"><ele>105.0</ele><time>2026-04-04T16:04:54.001Z</time></trkpt><trkpt lat="44.35323578156634" lon="11.562689130326827"><ele>105.0</ele><time>2026-04-04T16:04:55.001Z</time></trkpt><trkpt lat="44.3533118228961" lon="11.562817822683254"><ele>105.0</ele><time>2026-04-04T16:04:56.001Z</time></trkpt><trkpt lat="44.35339917365501" lon="11.562963210256724"><ele>104.25</ele><time>2026-04-04T16:04:57.001Z</time></trkpt><trkpt lat="44.35348118009408" lon="11.563105565498567"><ele>103.5</ele><time>2026-04-04T16:04:58.001Z</time></trkpt><trkpt lat="44.353557407180574" lon="11.56323919343619"><ele>102.75</ele><time>2026-04-04T16:04:59.001Z</time></trkpt><trkpt lat="44.353636269757715" lon="11.563363763099545"><ele>102.0</ele><time>2026-04-04T16:05:00.001Z</time></trkpt><trkpt lat="44.35372734867737" lon="11.56347949896868"><ele>102.0</ele><time>2026-04-04T16:05:01.001Z</time></trkpt><trkpt lat="44.35384298120794" lon="11.563565308981058"><ele>102.0</ele><time>2026-04-04T16:05:02.001Z</time></trkpt><trkpt lat="44.35397878504671" lon="11.563617186552142"><ele>102.0</ele><time>2026-04-04T16:05:03.001Z</time></trkpt><trkpt lat="44.35411828567656" lon="11.56365002741218"><ele>102.0</ele><time>2026-04-04T16:05:04.001Z</time></trkpt><trkpt lat="44.35427237275569" lon="11.563674729908165"><ele>100.75</ele><time>2026-04-04T16:05:05.002Z</time></trkpt><trkpt lat="44.354423363522635" lon="11.563703470693456"><ele>99.5</ele><time>2026-04-04T16:05:06.002Z</time></trkpt><trkpt lat="44.35456575289513" lon="11.563736362279041"><ele>98.25</ele><time>2026-04-04T16:05:07.002Z</time></trkpt><trkpt lat="44.35470510403632" lon="11.563767067075215"><ele>97.0</ele><time>2026-04-04T16:05:08.002Z</time></trkpt><trkpt lat="44.35485062964522" lon="11.563790208127203"><ele>97.0</ele><time>2026-04-04T16:05:09.002Z</time></trkpt><trkpt lat="44.354993576270175" lon="11.563803237841352"><ele>97.0</ele><time>2026-04-04T16:05:10.002Z</time></trkpt><trkpt lat="44.35514033049013" lon="11.563812449508765"><ele>97.0</ele><time>2026-04-04T16:05:11.002Z</time></trkpt><trkpt lat="44.35528761530441" lon="11.563848323447763"><ele>97.0</ele><time>2026-04-04T16:05:12.002Z</time></trkpt><trkpt lat="44.35542138586802" lon="11.563953793576955"><ele>98.0</ele><time>2026-04-04T16:05:13.002Z</time></trkpt><trkpt lat="44.35554649742083" lon="11.564081437667234"><ele>99.0</ele><time>2026-04-04T16:05:14.002Z</time></trkpt><trkpt lat="44.35566488890802" lon="11.564231003314518"><ele>100.0</ele><time>2026-04-04T16:05:15.002Z</time></trkpt><trkpt lat="44.3557905148693" lon="11.56439231501407"><ele>98.66666666666667</ele><time>2026-04-04T16:05:16.002Z</time></trkpt><trkpt lat="44.35590421141272" lon="11.564567418466392"><ele>97.33333333333334</ele><time>2026-04-04T16:05:17.002Z</time></trkpt><trkpt lat="44.35601251565826" lon="11.564730454778484"><ele>96.0</ele><time>2026-04-04T16:05:18.002Z</time></trkpt><trkpt lat="44.356126051465814" lon="11.564894450004264"><ele>96.0</ele><time>2026-04-04T16:05:19.002Z</time></trkpt><trkpt lat="44.35623927165027" lon="11.565070386506543"><ele>96.0</ele><time>2026-04-04T16:05:20.002Z</time></trkpt><trkpt lat="44.356376246168075" lon="11.565206153996618"><ele>96.0</ele><time>2026-04-04T16:05:21.002Z</time></trkpt><trkpt lat="44.35648565060226" lon="11.565354396143542"><ele>95.75</ele><time>2026-04-04T16:05:22.002Z</time></trkpt><trkpt lat="44.356602605734935" lon="11.565457806248075"><ele>95.5</ele><time>2026-04-04T16:05:23.002Z</time></trkpt><trkpt lat="44.356694855717144" lon="11.565592776872865"><ele>95.25</ele><time>2026-04-04T16:05:24.002Z</time></trkpt><trkpt lat="44.3568009766621" lon="11.565686308538199"><ele>95.0</ele><time>2026-04-04T16:05:25.002Z</time></trkpt><trkpt lat="44.35689696433125" lon="11.565807021331524"><ele>95.0</ele><time>2026-04-04T16:05:26.002Z</time></trkpt><trkpt lat="44.35700235033345" lon="11.565927887072636"><ele>95.0</ele><time>2026-04-04T16:05:27.002Z</time></trkpt><trkpt lat="44.35710809921575" lon="11.56605252497049"><ele>95.0</ele><time>2026-04-04T16:05:28.002Z</time></trkpt><trkpt lat="44.35721709362682" lon="11.566183508002975"><ele>95.0</ele><time>2026-04-04T16:05:29.002Z</time></trkpt><trkpt lat="44.35732359193078" lon="11.566307936084929"><ele>95.5</ele><time>2026-04-04T16:05:30.002Z</time></trkpt><trkpt lat="44.35741998216498" lon="11.566419739437318"><ele>96.0</ele><time>2026-04-04T16:05:31.002Z</time></trkpt><trkpt lat="44.35751191483846" lon="11.566525485814967"><ele>96.5</ele><time>2026-04-04T16:05:32.002Z</time></trkpt><trkpt lat="44.35760115951485" lon="11.566627831076476"><ele>97.0</ele><time>2026-04-04T16:05:33.002Z</time></trkpt><trkpt lat="44.35770031013017" lon="11.566728606513252"><ele>97.0</ele><time>2026-04-04T16:05:34.002Z</time></trkpt><trkpt lat="44.35781348759814" lon="11.566811144981907"><ele>97.0</ele><time>2026-04-04T16:05:35.002Z</time></trkpt><trkpt lat="44.35794397577699" lon="11.566871590813836"><ele>97.0</ele><time>2026-04-04T16:05:36.002Z</time></trkpt><trkpt lat="44.35808831703822" lon="11.566912388761473"><ele>97.0</ele><time>2026-04-04T16:05:37.002Z</time></trkpt><trkpt lat="44.358246225488934" lon="11.566927921099849"><ele>96.66666666666667</ele><time>2026-04-04T16:05:38.002Z</time></trkpt><trkpt lat="44.358410270195726" lon="11.566926638221965"><ele>96.33333333333334</ele><time>2026-04-04T16:05:39.002Z</time></trkpt><trkpt lat="44.35857957166164" lon="11.56691634560105"><ele>96.0</ele><time>2026-04-04T16:05:40.002Z</time></trkpt><trkpt lat="44.35874221701887" lon="11.56690873763098"><ele>96.75</ele><time>2026-04-04T16:05:41.002Z</time></trkpt><trkpt lat="44.35889535932859" lon="11.566909230323388"><ele>97.5</ele><time>2026-04-04T16:05:42.002Z</time></trkpt><trkpt lat="44.35903756867457" lon="11.566909502885862"><ele>98.25</ele><time>2026-04-04T16:05:43.002Z</time></trkpt><trkpt lat="44.35918329541922" lon="11.566928374008969"><ele>99.0</ele><time>2026-04-04T16:05:44.002Z</time></trkpt><trkpt lat="44.359333951741625" lon="11.566966178003538"><ele>99.0</ele><time>2026-04-04T16:05:45.002Z</time></trkpt><trkpt lat="44.35949432713599" lon="11.567012718349947"><ele>99.0</ele><time>2026-04-04T16:05:46.002Z</time></trkpt><trkpt lat="44.35966066088732" lon="11.567063167732979"><ele>99.0</ele><time>2026-04-04T16:05:47.002Z</time></trkpt><trkpt lat="44.35982230416961" lon="11.56712130089711"><ele>98.5</ele><time>2026-04-04T16:05:48.002Z</time></trkpt><trkpt lat="44.359969990934374" lon="11.567168298388124"><ele>98.0</ele><time>2026-04-04T16:05:49.002Z</time></trkpt><trkpt lat="44.3601169515317" lon="11.567216467941455"><ele>97.5</ele><time>2026-04-04T16:05:50.002Z</time></trkpt><trkpt lat="44.36024629973479" lon="11.567267564769173"><ele>97.0</ele><time>2026-04-04T16:05:51.002Z</time></trkpt><trkpt lat="44.36036317948987" lon="11.567369640122868"><ele>97.0</ele><time>2026-04-04T16:05:52.002Z</time></trkpt><trkpt lat="44.36047506757635" lon="11.56747702010643"><ele>97.0</ele><time>2026-04-04T16:05:53.002Z</time></trkpt><trkpt lat="44.36058524251942" lon="11.567623606374415"><ele>97.0</ele><time>2026-04-04T16:05:54.002Z</time></trkpt><trkpt lat="44.360692233638595" lon="11.567779323150438"><ele>97.0</ele><time>2026-04-04T16:05:55.002Z</time></trkpt><trkpt lat="44.360809763456786" lon="11.567930395714162"><ele>98.66666666666667</ele><time>2026-04-04T16:05:56.002Z</time></trkpt><trkpt lat="44.36091917316071" lon="11.568102439864774"><ele>100.33333333333334</ele><time>2026-04-04T16:05:57.002Z</time></trkpt><trkpt lat="44.361022167423755" lon="11.568297624235298"><ele>102.0</ele><time>2026-04-04T16:05:58.003Z</time></trkpt><trkpt lat="44.36113414095903" lon="11.568488962405223"><ele>102.0</ele><time>2026-04-04T16:05:59.003Z</time></trkpt><trkpt lat="44.361226003239416" lon="11.568664479781726"><ele>102.0</ele><time>2026-04-04T16:06:00.003Z</time></trkpt><trkpt lat="44.36130195132644" lon="11.568839878145258"><ele>102.0</ele><time>2026-04-04T16:06:01.003Z</time></trkpt><trkpt lat="44.3613622179009" lon="11.569019996682472"><ele>102.0</ele><time>2026-04-04T16:06:02.003Z</time></trkpt><trkpt lat="44.361411096576546" lon="11.569195114456287"><ele>102.75</ele><time>2026-04-04T16:06:03.001Z</time></trkpt><trkpt lat="44.361454086953145" lon="11.569356630109555"><ele>103.5</ele><time>2026-04-04T16:06:04.001Z</time></trkpt><trkpt lat="44.36150190469195" lon="11.569519262314415"><ele>104.25</ele><time>2026-04-04T16:06:05.001Z</time></trkpt><trkpt lat="44.361545329950935" lon="11.569671492759445"><ele>105.0</ele><time>2026-04-04T16:06:06.001Z</time></trkpt><trkpt lat="44.36159526126683" lon="11.569805123434094"><ele>105.0</ele><time>2026-04-04T16:06:07.001Z</time></trkpt><trkpt lat="44.36168811256177" lon="11.569919715428988"><ele>105.0</ele><time>2026-04-04T16:06:08.001Z</time></trkpt><trkpt lat="44.36180731009521" lon="11.5700173979217"><ele>105.0</ele><time>2026-04-04T16:06:09.001Z</time></trkpt><trkpt lat="44.361943041453394" lon="11.570098335826815"><ele>105.0</ele><time>2026-04-04T16:06:10.001Z</time></trkpt><trkpt lat="44.362075852540265" lon="11.570184525541354"><ele>105.66666666666666</ele><time>2026-04-04T16:06:11.001Z</time></trkpt><trkpt lat="44.36220625276619" lon="11.57028302755612"><ele>106.33333333333333</ele><time>2026-04-04T16:06:12.001Z</time></trkpt><trkpt lat="44.362334242910045" lon="11.570407141981544"><ele>107.0</ele><time>2026-04-04T16:06:13.001Z</time></trkpt><trkpt lat="44.36243687640198" lon="11.570555250515302"><ele>107.0</ele><time>2026-04-04T16:06:14.001Z</time></trkpt><trkpt lat="44.3625340562849" lon="11.570710492192559"><ele>107.0</ele><time>2026-04-04T16:06:15.001Z</time></trkpt><trkpt lat="44.362608747438735" lon="11.570886615367398"><ele>107.0</ele><time>2026-04-04T16:06:16.001Z</time></trkpt><trkpt lat="44.36267181495995" lon="11.571073024693593"><ele>107.0</ele><time>2026-04-04T16:06:17.001Z</time></trkpt><trkpt lat="44.362744248534696" lon="11.571241405573627"><ele>105.0</ele><time>2026-04-04T16:06:18.001Z</time></trkpt><trkpt lat="44.36279829428543" lon="11.571417141500744"><ele>103.0</ele><time>2026-04-04T16:06:19.001Z</time></trkpt><trkpt lat="44.36285043366201" lon="11.571577218996973"><ele>101.0</ele><time>2026-04-04T16:06:20.001Z</time></trkpt><trkpt lat="44.362893743404946" lon="11.571731628332339"><ele>99.0</ele><time>2026-04-04T16:06:21.001Z</time></trkpt><trkpt lat="44.36295088320632" lon="11.57190175252228"><ele>97.5</ele><time>2026-04-04T16:06:22.001Z</time></trkpt><trkpt lat="44.36301031064238" lon="11.572087295465607"><ele>96.0</ele><time>2026-04-04T16:06:23.001Z</time></trkpt><trkpt lat="44.36306026005098" lon="11.572267419772011"><ele>94.5</ele><time>2026-04-04T16:06:24.001Z</time></trkpt><trkpt lat="44.36310898611672" lon="11.572428742378255"><ele>93.0</ele><time>2026-04-04T16:06:25.001Z</time></trkpt><trkpt lat="44.36315674997673" lon="11.572594882250797"><ele>95.25</ele><time>2026-04-04T16:06:26.001Z</time></trkpt><trkpt lat="44.363204754111315" lon="11.572748519576528"><ele>97.5</ele><time>2026-04-04T16:06:27.001Z</time></trkpt><trkpt lat="44.36325555518922" lon="11.57289562312333"><ele>99.75</ele><time>2026-04-04T16:06:28.001Z</time></trkpt><trkpt lat="44.3633148328258" lon="11.57303274165926"><ele>102.0</ele><time>2026-04-04T16:06:29.001Z</time></trkpt><trkpt lat="44.36339916635937" lon="11.573158660643838"><ele>102.0</ele><time>2026-04-04T16:06:30.001Z</time></trkpt><trkpt lat="44.36352188035481" lon="11.57325756190975"><ele>102.0</ele><time>2026-04-04T16:06:31.001Z</time></trkpt><trkpt lat="44.36367401379983" lon="11.573312062287972"><ele>102.0</ele><time>2026-04-04T16:06:32.001Z</time></trkpt><trkpt lat="44.36384690267717" lon="11.573312685667275"><ele>104.0</ele><time>2026-04-04T16:06:33.001Z</time></trkpt><trkpt lat="44.36402163827207" lon="11.57330116427236"><ele>106.0</ele><time>2026-04-04T16:06:34.001Z</time></trkpt><trkpt lat="44.364210059271954" lon="11.573308833379981"><ele>108.0</ele><time>2026-04-04T16:06:35.001Z</time></trkpt><trkpt lat="44.364406000291545" lon="11.573335716256755"><ele>108.0</ele><time>2026-04-04T16:06:36.001Z</time></trkpt><trkpt lat="44.36461178677136" lon="11.573370909038134"><ele>108.0</ele><time>2026-04-04T16:06:37.001Z</time></trkpt><trkpt lat="44.36479534048308" lon="11.573412050076765"><ele>108.0</ele><time>2026-04-04T16:06:38.001Z</time></trkpt><trkpt lat="44.364971649709226" lon="11.573447237066977"><ele>107.66666666666666</ele><time>2026-04-04T16:06:39.001Z</time></trkpt><trkpt lat="44.3651588235514" lon="11.57347423545016"><ele>107.33333333333333</ele><time>2026-04-04T16:06:40.001Z</time></trkpt><trkpt lat="44.36535206736639" lon="11.573492698862855"><ele>107.0</ele><time>2026-04-04T16:06:41.001Z</time></trkpt><trkpt lat="44.365541189636" lon="11.573511970491818"><ele>106.33333333333333</ele><time>2026-04-04T16:06:42.001Z</time></trkpt><trkpt lat="44.365714422347246" lon="11.57353305215143"><ele>105.66666666666666</ele><time>2026-04-04T16:06:43.001Z</time></trkpt><trkpt lat="44.365877519172415" lon="11.573566651482249"><ele>105.0</ele><time>2026-04-04T16:06:44.001Z</time></trkpt><trkpt lat="44.36604539766227" lon="11.573633357925457"><ele>104.0</ele><time>2026-04-04T16:06:45.001Z</time></trkpt><trkpt lat="44.366204338834294" lon="11.573750944239032"><ele>103.0</ele><time>2026-04-04T16:06:46.001Z</time></trkpt><trkpt lat="44.366355982946715" lon="11.573903575855025"><ele>102.0</ele><time>2026-04-04T16:06:47.001Z</time></trkpt><trkpt lat="44.366506919717175" lon="11.57406878769296"><ele>101.66666666666666</ele><time>2026-04-04T16:06:48.001Z</time></trkpt><trkpt lat="44.36665134543791" lon="11.574242378661804"><ele>101.33333333333333</ele><time>2026-04-04T16:06:49.001Z</time></trkpt><trkpt lat="44.36679663645825" lon="11.57440446575673"><ele>101.0</ele><time>2026-04-04T16:06:50.001Z</time></trkpt><trkpt lat="44.366934829534195" lon="11.574556614108477"><ele>100.0</ele><time>2026-04-04T16:06:51.001Z</time></trkpt><trkpt lat="44.36706970593985" lon="11.574705011629083"><ele>99.0</ele><time>2026-04-04T16:06:52.001Z</time></trkpt><trkpt lat="44.367210564717276" lon="11.574839285945549"><ele>98.0</ele><time>2026-04-04T16:06:53.001Z</time></trkpt><trkpt lat="44.36736429799937" lon="11.574950646671454"><ele>98.0</ele><time>2026-04-04T16:06:54.001Z</time></trkpt><trkpt lat="44.3675349845624" lon="11.575024478928139"><ele>98.0</ele><time>2026-04-04T16:06:55.001Z</time></trkpt><trkpt lat="44.36769641853367" lon="11.575065305686556"><ele>98.0</ele><time>2026-04-04T16:06:56.001Z</time></trkpt><trkpt lat="44.3678403168944" lon="11.575103284986902"><ele>98.0</ele><time>2026-04-04T16:06:57.001Z</time></trkpt><trkpt lat="44.36799690039019" lon="11.575157353244805"><ele>98.0</ele><time>2026-04-04T16:06:58.001Z</time></trkpt><trkpt lat="44.36814916216465" lon="11.575241334924868"><ele>98.0</ele><time>2026-04-04T16:06:59.001Z</time></trkpt><trkpt lat="44.368306186624054" lon="11.575348002956405"><ele>97.66666666666666</ele><time>2026-04-04T16:07:00.001Z</time></trkpt><trkpt lat="44.368462643495036" lon="11.575471643121228"><ele>97.33333333333334</ele><time>2026-04-04T16:07:01.001Z</time></trkpt><trkpt lat="44.36862978054524" lon="11.575602722926748"><ele>97.0</ele><time>2026-04-04T16:07:02.001Z</time></trkpt><trkpt lat="44.36880485118938" lon="11.575740499118965"><ele>95.33333333333334</ele><time>2026-04-04T16:07:03.001Z</time></trkpt><trkpt lat="44.36897094704226" lon="11.57586438739778"><ele>93.66666666666667</ele><time>2026-04-04T16:07:04.001Z</time></trkpt><trkpt lat="44.36913008694869" lon="11.575986494224834"><ele>92.0</ele><time>2026-04-04T16:07:05.001Z</time></trkpt><trkpt lat="44.36928129432171" lon="11.576103724880843"><ele>92.0</ele><time>2026-04-04T16:07:06.001Z</time></trkpt><trkpt lat="44.36941747816951" lon="11.576215229423072"><ele>92.0</ele><time>2026-04-04T16:07:07.001Z</time></trkpt><trkpt lat="44.36954941508685" lon="11.576320210523543"><ele>92.0</ele><time>2026-04-04T16:07:08.001Z</time></trkpt><trkpt lat="44.36967906285597" lon="11.576401239729556"><ele>93.33333333333334</ele><time>2026-04-04T16:07:09.001Z</time></trkpt><trkpt lat="44.36982826935865" lon="11.576447448103139"><ele>94.66666666666667</ele><time>2026-04-04T16:07:10.001Z</time></trkpt><trkpt lat="44.36999782752036" lon="11.576452368914474"><ele>96.0</ele><time>2026-04-04T16:07:11.001Z</time></trkpt><trkpt lat="44.37017410303422" lon="11.576432986684164"><ele>96.0</ele><time>2026-04-04T16:07:12.001Z</time></trkpt><trkpt lat="44.37035534428779" lon="11.576403142507987"><ele>96.0</ele><time>2026-04-04T16:07:13.001Z</time></trkpt><trkpt lat="44.370533765171295" lon="11.576402994197018"><ele>96.0</ele><time>2026-04-04T16:07:14.001Z</time></trkpt><trkpt lat="44.370711418046206" lon="11.576429570876188"><ele>96.66666666666666</ele><time>2026-04-04T16:07:15.001Z</time></trkpt><trkpt lat="44.37088685603482" lon="11.576463719378596"><ele>97.33333333333333</ele><time>2026-04-04T16:07:16.001Z</time></trkpt><trkpt lat="44.371069027564964" lon="11.576495753512345"><ele>98.0</ele><time>2026-04-04T16:07:17.001Z</time></trkpt><trkpt lat="44.37126185260573" lon="11.576523952437826"><ele>97.5</ele><time>2026-04-04T16:07:18.001Z</time></trkpt><trkpt lat="44.37147218226169" lon="11.57656918816159"><ele>97.0</ele><time>2026-04-04T16:07:19.001Z</time></trkpt><trkpt lat="44.371706986736676" lon="11.576619517946188"><ele>97.0</ele><time>2026-04-04T16:07:20.001Z</time></trkpt><trkpt lat="44.37191401883905" lon="11.576659861424927"><ele>97.0</ele><time>2026-04-04T16:07:21.001Z</time></trkpt><trkpt lat="44.372101125331234" lon="11.576694255134592"><ele>97.0</ele><time>2026-04-04T16:07:22.001Z</time></trkpt><trkpt lat="44.37227893824431" lon="11.576728472225208"><ele>97.0</ele><time>2026-04-04T16:07:23.001Z</time></trkpt><trkpt lat="44.37244698629643" lon="11.576759572136142"><ele>97.0</ele><time>2026-04-04T16:07:24.001Z</time></trkpt><trkpt lat="44.372607375870956" lon="11.576779900714898"><ele>97.0</ele><time>2026-04-04T16:07:25.001Z</time></trkpt><trkpt lat="44.372770490346255" lon="11.576805847286792"><ele>97.0</ele><time>2026-04-04T16:07:26.001Z</time></trkpt><trkpt lat="44.372930705176074" lon="11.576887741054392"><ele>97.0</ele><time>2026-04-04T16:07:27.001Z</time></trkpt><trkpt lat="44.37308697144154" lon="11.576980551172404"><ele>97.0</ele><time>2026-04-04T16:07:28.001Z</time></trkpt><trkpt lat="44.37324172160437" lon="11.57706443075704"><ele>95.33333333333334</ele><time>2026-04-04T16:07:29.001Z</time></trkpt><trkpt lat="44.37338784729698" lon="11.577164290472433"><ele>93.66666666666667</ele><time>2026-04-04T16:07:30.002Z</time></trkpt><trkpt lat="44.373550303672815" lon="11.577261427793335"><ele>92.0</ele><time>2026-04-04T16:07:31.002Z</time></trkpt><trkpt lat="44.373721349920544" lon="11.577355491664665"><ele>93.33333333333334</ele><time>2026-04-04T16:07:32.002Z</time></trkpt><trkpt lat="44.37389453706076" lon="11.577452715833925"><ele>94.66666666666667</ele><time>2026-04-04T16:07:33.002Z</time></trkpt><trkpt lat="44.37406689784426" lon="11.577547212456839"><ele>96.0</ele><time>2026-04-04T16:07:34.002Z</time></trkpt><trkpt lat="44.37424975337563" lon="11.577648364723524"><ele>96.0</ele><time>2026-04-04T16:07:35.002Z</time></trkpt><trkpt lat="44.37442123282916" lon="11.577745691395855"><ele>96.0</ele><time>2026-04-04T16:07:36.002Z</time></trkpt><trkpt lat="44.37459254734308" lon="11.577839587367768"><ele>96.0</ele><time>2026-04-04T16:07:37.002Z</time></trkpt><trkpt lat="44.37475433732745" lon="11.577931307025711"><ele>96.0</ele><time>2026-04-04T16:07:38.002Z</time></trkpt><trkpt lat="44.37491567683738" lon="11.578023623560952"><ele>96.0</ele><time>2026-04-04T16:07:39.002Z</time></trkpt><trkpt lat="44.375075228959545" lon="11.57811554141144"><ele>96.0</ele><time>2026-04-04T16:07:40.002Z</time></trkpt><trkpt lat="44.37523028171503" lon="11.578204819018486"><ele>96.0</ele><time>2026-04-04T16:07:41.002Z</time></trkpt><trkpt lat="44.37537699640522" lon="11.578289584037046"><ele>96.0</ele><time>2026-04-04T16:07:42.002Z</time></trkpt><trkpt lat="44.37552468433403" lon="11.578365451616783"><ele>96.0</ele><time>2026-04-04T16:07:43.002Z</time></trkpt><trkpt lat="44.37567940120459" lon="11.578434910747463"><ele>95.66666666666667</ele><time>2026-04-04T16:07:44.002Z</time></trkpt><trkpt lat="44.37584436954074" lon="11.57850126645396"><ele>95.33333333333334</ele><time>2026-04-04T16:07:45.002Z</time></trkpt><trkpt lat="44.37601921006661" lon="11.57855966245296"><ele>95.0</ele><time>2026-04-04T16:07:46.002Z</time></trkpt><trkpt lat="44.37619451649055" lon="11.578615295820027"><ele>94.33333333333334</ele><time>2026-04-04T16:07:47.002Z</time></trkpt><trkpt lat="44.37637876056783" lon="11.578672339998317"><ele>93.66666666666667</ele><time>2026-04-04T16:07:48.002Z</time></trkpt><trkpt lat="44.37656262884113" lon="11.578732145766253"><ele>93.0</ele><time>2026-04-04T16:07:49.002Z</time></trkpt><trkpt lat="44.37673747327238" lon="11.578786235517171"><ele>92.0</ele><time>2026-04-04T16:07:50.002Z</time></trkpt><trkpt lat="44.37690415835654" lon="11.578839609867488"><ele>91.0</ele><time>2026-04-04T16:07:51.002Z</time></trkpt><trkpt lat="44.37706724896436" lon="11.578896248717014"><ele>90.0</ele><time>2026-04-04T16:07:52.002Z</time></trkpt><trkpt lat="44.377234714978" lon="11.578952048796207"><ele>89.66666666666667</ele><time>2026-04-04T16:07:53.002Z</time></trkpt><trkpt lat="44.37740159348706" lon="11.579004344302902"><ele>89.33333333333334</ele><time>2026-04-04T16:07:54.002Z</time></trkpt><trkpt lat="44.377573797066546" lon="11.579061236009471"><ele>89.0</ele><time>2026-04-04T16:07:55.002Z</time></trkpt><trkpt lat="44.377751783907726" lon="11.579117300916163"><ele>89.0</ele><time>2026-04-04T16:07:56.002Z</time></trkpt><trkpt lat="44.377925887438614" lon="11.579171355941138"><ele>89.0</ele><time>2026-04-04T16:07:57.002Z</time></trkpt><trkpt lat="44.37810466628569" lon="11.579229733614477"><ele>89.0</ele><time>2026-04-04T16:07:58.002Z</time></trkpt><trkpt lat="44.37828470999425" lon="11.57928550685403"><ele>89.0</ele><time>2026-04-04T16:07:59.002Z</time></trkpt><trkpt lat="44.378457910505745" lon="11.579349511247932"><ele>89.0</ele><time>2026-04-04T16:08:00.002Z</time></trkpt><trkpt lat="44.37862693559827" lon="11.579409157166845"><ele>89.0</ele><time>2026-04-04T16:08:01.002Z</time></trkpt><trkpt lat="44.378803849225946" lon="11.579471265280914"><ele>88.66666666666667</ele><time>2026-04-04T16:08:02.002Z</time></trkpt><trkpt lat="44.37897899468982" lon="11.579545502755746"><ele>88.33333333333333</ele><time>2026-04-04T16:08:03.002Z</time></trkpt><trkpt lat="44.379149121330435" lon="11.579612437896227"><ele>88.0</ele><time>2026-04-04T16:08:04.002Z</time></trkpt><trkpt lat="44.37932350532095" lon="11.579676638682537"><ele>88.0</ele><time>2026-04-04T16:08:05.002Z</time></trkpt><trkpt lat="44.379510084570555" lon="11.579738284754466"><ele>88.0</ele><time>2026-04-04T16:08:06.002Z</time></trkpt><trkpt lat="44.37969338112235" lon="11.579798280110268"><ele>88.0</ele><time>2026-04-04T16:08:07.002Z</time></trkpt><trkpt lat="44.37987768879066" lon="11.579854925673846"><ele>87.66666666666666</ele><time>2026-04-04T16:08:08.002Z</time></trkpt><trkpt lat="44.38006747614546" lon="11.579908639523916"><ele>87.33333333333333</ele><time>2026-04-04T16:08:09.001Z</time></trkpt><trkpt lat="44.38025666908731" lon="11.579970711359334"><ele>87.0</ele><time>2026-04-04T16:08:10.001Z</time></trkpt><trkpt lat="44.38044953219214" lon="11.580030714100179"><ele>87.0</ele><time>2026-04-04T16:08:11.001Z</time></trkpt><trkpt lat="44.380643539021904" lon="11.580092993561589"><ele>87.0</ele><time>2026-04-04T16:08:12.001Z</time></trkpt><trkpt lat="44.38082807276167" lon="11.580156031624236"><ele>87.0</ele><time>2026-04-04T16:08:13.001Z</time></trkpt><trkpt lat="44.38102131086065" lon="11.58021568284542"><ele>87.0</ele><time>2026-04-04T16:08:14.001Z</time></trkpt><trkpt lat="44.38120786808658" lon="11.580278429544343"><ele>87.0</ele><time>2026-04-04T16:08:15.001Z</time></trkpt><trkpt lat="44.38138500110585" lon="11.58034461460105"><ele>87.0</ele><time>2026-04-04T16:08:16.001Z</time></trkpt><trkpt lat="44.38154702489146" lon="11.580407050477655"><ele>86.66666666666667</ele><time>2026-04-04T16:08:17.001Z</time></trkpt><trkpt lat="44.38169939763809" lon="11.580459327960053"><ele>86.33333333333334</ele><time>2026-04-04T16:08:18.001Z</time></trkpt><trkpt lat="44.3818483989625" lon="11.580509110074546"><ele>86.0</ele><time>2026-04-04T16:08:19.001Z</time></trkpt><trkpt lat="44.38200033515766" lon="11.580569351246128"><ele>86.0</ele><time>2026-04-04T16:08:20.001Z</time></trkpt><trkpt lat="44.38216445938674" lon="11.580625550147417"><ele>86.0</ele><time>2026-04-04T16:08:21.001Z</time></trkpt><trkpt lat="44.38231982961825" lon="11.580679518031463"><ele>86.0</ele><time>2026-04-04T16:08:22.001Z</time></trkpt><trkpt lat="44.3824826802986" lon="11.580740183274898"><ele>85.66666666666667</ele><time>2026-04-04T16:08:23.001Z</time></trkpt><trkpt lat="44.38264518965621" lon="11.580795729993987"><ele>85.33333333333333</ele><time>2026-04-04T16:08:24.001Z</time></trkpt><trkpt lat="44.38281454529671" lon="11.58083460862832"><ele>85.0</ele><time>2026-04-04T16:08:25.001Z</time></trkpt><trkpt lat="44.382986724711074" lon="11.580853768648511"><ele>84.66666666666666</ele><time>2026-04-04T16:08:26.001Z</time></trkpt><trkpt lat="44.38317178366337" lon="11.580853546828186"><ele>84.33333333333333</ele><time>2026-04-04T16:08:27.001Z</time></trkpt><trkpt lat="44.383366718118175" lon="11.580845706852507"><ele>84.0</ele><time>2026-04-04T16:08:28.001Z</time></trkpt><trkpt lat="44.38355830894002" lon="11.580839146955665"><ele>84.0</ele><time>2026-04-04T16:08:29.001Z</time></trkpt><trkpt lat="44.38374023285733" lon="11.580818360463073"><ele>84.0</ele><time>2026-04-04T16:08:30.001Z</time></trkpt><trkpt lat="44.38392110704702" lon="11.580806438167134"><ele>84.0</ele><time>2026-04-04T16:08:31.001Z</time></trkpt><trkpt lat="44.38409892310321" lon="11.580814972599416"><ele>85.66666666666667</ele><time>2026-04-04T16:08:32.001Z</time></trkpt><trkpt lat="44.384266064271" lon="11.580851424760041"><ele>87.33333333333334</ele><time>2026-04-04T16:08:33.001Z</time></trkpt><trkpt lat="44.38441639929239" lon="11.580911633184185"><ele>89.0</ele><time>2026-04-04T16:08:34.001Z</time></trkpt><trkpt lat="44.384550642846385" lon="11.580978116495809"><ele>92.33333333333334</ele><time>2026-04-04T16:08:35.001Z</time></trkpt><trkpt lat="44.38468314652992" lon="11.581039257548266"><ele>95.66666666666667</ele><time>2026-04-04T16:08:36.001Z</time></trkpt><trkpt lat="44.38483567289662" lon="11.581065099093"><ele>99.0</ele><time>2026-04-04T16:08:37.001Z</time></trkpt><trkpt lat="44.38501332778216" lon="11.581077507683988"><ele>99.0</ele><time>2026-04-04T16:08:38.001Z</time></trkpt><trkpt lat="44.38518710308455" lon="11.581070561716585"><ele>99.0</ele><time>2026-04-04T16:08:39.001Z</time></trkpt><trkpt lat="44.385359085273315" lon="11.581048959019384"><ele>99.0</ele><time>2026-04-04T16:08:40.001Z</time></trkpt><trkpt lat="44.38551689166642" lon="11.581035348500073"><ele>100.0</ele><time>2026-04-04T16:08:41.001Z</time></trkpt><trkpt lat="44.38566394443463" lon="11.581034083541972"><ele>101.0</ele><time>2026-04-04T16:08:42.001Z</time></trkpt><trkpt lat="44.38581112350213" lon="11.581035415663393"><ele>102.0</ele><time>2026-04-04T16:08:43.001Z</time></trkpt><trkpt lat="44.38595785976712" lon="11.58105201916015"><ele>103.0</ele><time>2026-04-04T16:08:44.001Z</time></trkpt><trkpt lat="44.386104451258056" lon="11.581108037509914"><ele>103.0</ele><time>2026-04-04T16:08:45.001Z</time></trkpt><trkpt lat="44.386250146838165" lon="11.581185778386992"><ele>103.0</ele><time>2026-04-04T16:08:46.001Z</time></trkpt><trkpt lat="44.386395084018815" lon="11.581293462223757"><ele>103.0</ele><time>2026-04-04T16:08:47.001Z</time></trkpt><trkpt lat="44.38654618937393" lon="11.581393889427172"><ele>103.0</ele><time>2026-04-04T16:08:48.001Z</time></trkpt><trkpt lat="44.38671789698966" lon="11.58152805503526"><ele>103.0</ele><time>2026-04-04T16:08:49.001Z</time></trkpt><trkpt lat="44.38689072205753" lon="11.58165121615784"><ele>103.0</ele><time>2026-04-04T16:08:50.001Z</time></trkpt><trkpt lat="44.38706769158354" lon="11.58177795214737"><ele>102.66666666666667</ele><time>2026-04-04T16:08:51.001Z</time></trkpt><trkpt lat="44.38725569772348" lon="11.581909568225962"><ele>102.33333333333334</ele><time>2026-04-04T16:08:52.001Z</time></trkpt><trkpt lat="44.38743963967749" lon="11.58204321654257"><ele>102.0</ele><time>2026-04-04T16:08:53.001Z</time></trkpt><trkpt lat="44.38761667477457" lon="11.58217357535916"><ele>101.0</ele><time>2026-04-04T16:08:54.001Z</time></trkpt><trkpt lat="44.387799498327674" lon="11.582299856244989"><ele>100.0</ele><time>2026-04-04T16:08:55.001Z</time></trkpt><trkpt lat="44.38798541047834" lon="11.582440033633228"><ele>99.0</ele><time>2026-04-04T16:08:56.001Z</time></trkpt><trkpt lat="44.38816389063508" lon="11.58257392524205"><ele>98.66666666666666</ele><time>2026-04-04T16:08:57.001Z</time></trkpt><trkpt lat="44.38833957624198" lon="11.582694774078337"><ele>98.33333333333333</ele><time>2026-04-04T16:08:58.001Z</time></trkpt><trkpt lat="44.388518339147254" lon="11.582825790537632"><ele>98.0</ele><time>2026-04-04T16:08:59.001Z</time></trkpt><trkpt lat="44.3886998345163" lon="11.582953888999917"><ele>97.33333333333333</ele><time>2026-04-04T16:09:00.001Z</time></trkpt><trkpt lat="44.388876917802726" lon="11.583075723544578"><ele>96.66666666666666</ele><time>2026-04-04T16:09:01.001Z</time></trkpt><trkpt lat="44.38905424756746" lon="11.583191527014993"><ele>96.0</ele><time>2026-04-04T16:09:02.001Z</time></trkpt><trkpt lat="44.389207024495526" lon="11.583293377327887"><ele>96.0</ele><time>2026-04-04T16:09:03.001Z</time></trkpt><trkpt lat="44.38935812124679" lon="11.583394575175914"><ele>96.0</ele><time>2026-04-04T16:09:04.001Z</time></trkpt><trkpt lat="44.38950201840679" lon="11.583499818858616"><ele>96.0</ele><time>2026-04-04T16:09:05.001Z</time></trkpt><trkpt lat="44.38962380737081" lon="11.58359927049724"><ele>95.75</ele><time>2026-04-04T16:09:06.001Z</time></trkpt><trkpt lat="44.389735718952174" lon="11.583710009848737"><ele>95.5</ele><time>2026-04-04T16:09:07.001Z</time></trkpt><trkpt lat="44.38984366188927" lon="11.583831644789965"><ele>95.25</ele><time>2026-04-04T16:09:08.001Z</time></trkpt><trkpt lat="44.3899502161498" lon="11.583957846684747"><ele>95.0</ele><time>2026-04-04T16:09:09.001Z</time></trkpt><trkpt lat="44.39006633755391" lon="11.584084943405799"><ele>95.0</ele><time>2026-04-04T16:09:10.001Z</time></trkpt><trkpt lat="44.39018928859577" lon="11.584208877552214"><ele>95.0</ele><time>2026-04-04T16:09:11.001Z</time></trkpt><trkpt lat="44.39031439310543" lon="11.58433486366164"><ele>95.0</ele><time>2026-04-04T16:09:12.001Z</time></trkpt><trkpt lat="44.39044616294462" lon="11.584454613353197"><ele>94.5</ele><time>2026-04-04T16:09:13.001Z</time></trkpt><trkpt lat="44.39057702897598" lon="11.584571540276919"><ele>94.0</ele><time>2026-04-04T16:09:14.001Z</time></trkpt><trkpt lat="44.39069960309403" lon="11.584689110655084"><ele>93.5</ele><time>2026-04-04T16:09:15.001Z</time></trkpt><trkpt lat="44.390819433840896" lon="11.584781918278237"><ele>93.0</ele><time>2026-04-04T16:09:16.001Z</time></trkpt><trkpt lat="44.390935049979596" lon="11.584858424517785"><ele>93.0</ele><time>2026-04-04T16:09:17.001Z</time></trkpt><trkpt lat="44.391045879631974" lon="11.584911555234148"><ele>93.0</ele><time>2026-04-04T16:09:18.001Z</time></trkpt><trkpt lat="44.39114346232194" lon="11.584941065590417"><ele>93.0</ele><time>2026-04-04T16:09:19.001Z</time></trkpt><trkpt lat="44.3912443724684" lon="11.584966741459523"><ele>93.0</ele><time>2026-04-04T16:09:20.001Z</time></trkpt><trkpt lat="44.39132544868112" lon="11.584993635300451"><ele>93.0</ele><time>2026-04-04T16:09:21.001Z</time></trkpt><trkpt lat="44.3913904429374" lon="11.585022863324493"><ele>92.60000000000001</ele><time>2026-04-04T16:09:22.001Z</time></trkpt><trkpt lat="44.39149705830743" lon="11.585113703952912"><ele>92.2</ele><time>2026-04-04T16:09:24.001Z</time></trkpt><trkpt lat="44.39156037835591" lon="11.58519283903478"><ele>91.8</ele><time>2026-04-04T16:09:25.001Z</time></trkpt><trkpt lat="44.3916416648095" lon="11.585258471235493"><ele>91.4</ele><time>2026-04-04T16:09:26.001Z</time></trkpt><trkpt lat="44.39174362345151" lon="11.585283799807987"><ele>91.0</ele><time>2026-04-04T16:09:27.001Z</time></trkpt><trkpt lat="44.39186784256563" lon="11.585283132772526"><ele>91.0</ele><time>2026-04-04T16:09:28.001Z</time></trkpt><trkpt lat="44.3919948813421" lon="11.585271532231637"><ele>91.0</ele><time>2026-04-04T16:09:29.001Z</time></trkpt><trkpt lat="44.39213027404441" lon="11.58525704652641"><ele>91.0</ele><time>2026-04-04T16:09:30.001Z</time></trkpt><trkpt lat="44.39226294718589" lon="11.585349890476659"><ele>91.0</ele><time>2026-04-04T16:09:31.001Z</time></trkpt><trkpt lat="44.39239526195813" lon="11.585397952211592"><ele>90.5</ele><time>2026-04-04T16:09:32.001Z</time></trkpt><trkpt lat="44.39252507164924" lon="11.585479584039394"><ele>90.0</ele><time>2026-04-04T16:09:33.001Z</time></trkpt><trkpt lat="44.39265124370528" lon="11.585563006072816"><ele>89.5</ele><time>2026-04-04T16:09:34.001Z</time></trkpt><trkpt lat="44.392767672983446" lon="11.585627798447181"><ele>89.0</ele><time>2026-04-04T16:09:35.001Z</time></trkpt><trkpt lat="44.39287230693242" lon="11.585690803307383"><ele>89.0</ele><time>2026-04-04T16:09:36.001Z</time></trkpt><trkpt lat="44.39297651834045" lon="11.585756145901092"><ele>89.0</ele><time>2026-04-04T16:09:37.001Z</time></trkpt><trkpt lat="44.39308379964091" lon="11.58582905179929"><ele>89.0</ele><time>2026-04-04T16:09:38.001Z</time></trkpt><trkpt lat="44.39319096775297" lon="11.585904841564536"><ele>89.0</ele><time>2026-04-04T16:09:39.001Z</time></trkpt><trkpt lat="44.393289159521146" lon="11.585986269765174"><ele>88.5</ele><time>2026-04-04T16:09:40.001Z</time></trkpt><trkpt lat="44.393391988711244" lon="11.58608455824229"><ele>88.0</ele><time>2026-04-04T16:09:41.001Z</time></trkpt><trkpt lat="44.39348475101147" lon="11.586165556966549"><ele>87.5</ele><time>2026-04-04T16:09:42.001Z</time></trkpt><trkpt lat="44.39357918422258" lon="11.586250509137846"><ele>87.0</ele><time>2026-04-04T16:09:43.002Z</time></trkpt><trkpt lat="44.393676861769016" lon="11.586332375264519"><ele>87.0</ele><time>2026-04-04T16:09:44.002Z</time></trkpt><trkpt lat="44.39378282806329" lon="11.586412118539343"><ele>87.0</ele><time>2026-04-04T16:09:45.002Z</time></trkpt><trkpt lat="44.39388713912301" lon="11.586524255376498"><ele>87.0</ele><time>2026-04-04T16:09:46.002Z</time></trkpt><trkpt lat="44.39399010627821" lon="11.586613377612196"><ele>87.0</ele><time>2026-04-04T16:09:47.002Z</time></trkpt><trkpt lat="44.394091848159775" lon="11.586700759161705"><ele>87.0</ele><time>2026-04-04T16:09:48.002Z</time></trkpt><trkpt lat="44.39419245327333" lon="11.586785478484314"><ele>87.0</ele><time>2026-04-04T16:09:49.002Z</time></trkpt><trkpt lat="44.39429052239961" lon="11.586864840633895"><ele>87.0</ele><time>2026-04-04T16:09:50.002Z</time></trkpt><trkpt lat="44.394392686993584" lon="11.586939182570596"><ele>87.0</ele><time>2026-04-04T16:09:51.002Z</time></trkpt><trkpt lat="44.39449751133056" lon="11.587004631883682"><ele>87.0</ele><time>2026-04-04T16:09:52.002Z</time></trkpt><trkpt lat="44.394600142121334" lon="11.587062213180278"><ele>87.0</ele><time>2026-04-04T16:09:53.002Z</time></trkpt><trkpt lat="44.39469694847882" lon="11.587124800967372"><ele>87.0</ele><time>2026-04-04T16:09:54.002Z</time></trkpt><trkpt lat="44.39479367451854" lon="11.587184684504741"><ele>87.0</ele><time>2026-04-04T16:09:55.002Z</time></trkpt><trkpt lat="44.3948882262038" lon="11.587232936558282"><ele>87.0</ele><time>2026-04-04T16:09:56.002Z</time></trkpt><trkpt lat="44.39496559934241" lon="11.587271847161146"><ele>86.6</ele><time>2026-04-04T16:09:57.002Z</time></trkpt><trkpt lat="44.395048732128124" lon="11.58732079452479"><ele>86.19999999999999</ele><time>2026-04-04T16:09:58.002Z</time></trkpt><trkpt lat="44.39515309092309" lon="11.587371475865524"><ele>85.8</ele><time>2026-04-04T16:09:59.002Z</time></trkpt><trkpt lat="44.395262614248416" lon="11.587439035340436"><ele>85.4</ele><time>2026-04-04T16:10:00.002Z</time></trkpt><trkpt lat="44.39537891042569" lon="11.58750405184919"><ele>85.0</ele><time>2026-04-04T16:10:01.002Z</time></trkpt><trkpt lat="44.39548280345549" lon="11.587564747777254"><ele>84.8</ele><time>2026-04-04T16:10:02.002Z</time></trkpt><trkpt lat="44.39557991547067" lon="11.58761407091864"><ele>84.6</ele><time>2026-04-04T16:10:03.002Z</time></trkpt><trkpt lat="44.39566856960079" lon="11.58765895221973"><ele>84.4</ele><time>2026-04-04T16:10:04.002Z</time></trkpt><trkpt lat="44.39575633510118" lon="11.587702269470716"><ele>84.2</ele><time>2026-04-04T16:10:05.002Z</time></trkpt><trkpt lat="44.39584258077505" lon="11.587744560923424"><ele>84.0</ele><time>2026-04-04T16:10:06.002Z</time></trkpt><trkpt lat="44.395922686571126" lon="11.587785760547224"><ele>84.0</ele><time>2026-04-04T16:10:07.002Z</time></trkpt><trkpt lat="44.396006980251634" lon="11.587825008151732"><ele>84.0</ele><time>2026-04-04T16:10:08.002Z</time></trkpt><trkpt lat="44.396081341534284" lon="11.58786089388594"><ele>84.0</ele><time>2026-04-04T16:10:09.002Z</time></trkpt><trkpt lat="44.39614020252743" lon="11.58789463357738"><ele>84.0</ele><time>2026-04-04T16:10:10.002Z</time></trkpt><trkpt lat="44.39623786380141" lon="11.587984581046985"><ele>84.0</ele><time>2026-04-04T16:10:12.002Z</time></trkpt><trkpt lat="44.3962912411909" lon="11.588088458058513"><ele>84.0</ele><time>2026-04-04T16:10:14.002Z</time></trkpt><trkpt lat="44.396374927419565" lon="11.58809407793001"><ele>84.2</ele><time>2026-04-04T16:10:16.001Z</time></trkpt><trkpt lat="44.39643996709946" lon="11.58792911586998"><ele>84.4</ele><time>2026-04-04T16:10:18.001Z</time></trkpt><trkpt lat="44.39646844126428" lon="11.587822924225488"><ele>84.6</ele><time>2026-04-04T16:10:19.001Z</time></trkpt><trkpt lat="44.3965213231956" lon="11.587724791130727"><ele>84.8</ele><time>2026-04-04T16:10:20.001Z</time></trkpt><trkpt lat="44.39658503307354" lon="11.587642190289568"><ele>85.0</ele><time>2026-04-04T16:10:21.001Z</time></trkpt><trkpt lat="44.39667214590466" lon="11.587579698264177"><ele>85.0</ele><time>2026-04-04T16:10:22.001Z</time></trkpt><trkpt lat="44.39677052398845" lon="11.58754344098767"><ele>85.0</ele><time>2026-04-04T16:10:23.001Z</time></trkpt><trkpt lat="44.39687351909263" lon="11.587555191244"><ele>85.0</ele><time>2026-04-04T16:10:24.001Z</time></trkpt><trkpt lat="44.396972007753135" lon="11.587577415557947"><ele>85.0</ele><time>2026-04-04T16:10:25.001Z</time></trkpt><trkpt lat="44.39705083296662" lon="11.58761321955722"><ele>85.0</ele><time>2026-04-04T16:10:26.001Z</time></trkpt><trkpt lat="44.39717315775681" lon="11.58768552985963"><ele>84.4</ele><time>2026-04-04T16:10:28.001Z</time></trkpt><trkpt lat="44.39725703141346" lon="11.587749673995651"><ele>83.8</ele><time>2026-04-04T16:10:29Z</time></trkpt><trkpt lat="44.397326298934466" lon="11.5877917249974"><ele>83.19999999999999</ele><time>2026-04-04T16:10:30Z</time></trkpt><trkpt lat="44.39738578483856" lon="11.58783015048154"><ele>82.6</ele><time>2026-04-04T16:10:31Z</time></trkpt><trkpt lat="44.397490239636646" lon="11.58790816989529"><ele>82.0</ele><time>2026-04-04T16:10:33Z</time></trkpt><trkpt lat="44.39760002891734" lon="11.587971500739274"><ele>82.0</ele><time>2026-04-04T16:10:35Z</time></trkpt><trkpt lat="44.397701478267415" lon="11.588030229442792"><ele>82.0</ele><time>2026-04-04T16:10:37Z</time></trkpt><trkpt lat="44.39780223181304" lon="11.588098437346646"><ele>82.0</ele><time>2026-04-04T16:10:39Z</time></trkpt><trkpt lat="44.397891460032874" lon="11.588159979161855"><ele>82.0</ele><time>2026-04-04T16:10:41Z</time></trkpt><trkpt lat="44.39798770522277" lon="11.58820526256333"><ele>82.0</ele><time>2026-04-04T16:10:43Z</time></trkpt><trkpt lat="44.39808268230445" lon="11.588277101564953"><ele>81.19999999999999</ele><time>2026-04-04T16:10:45Z</time></trkpt><trkpt lat="44.39818039233781" lon="11.58835968478878"><ele>80.39999999999999</ele><time>2026-04-04T16:10:47Z</time></trkpt><trkpt lat="44.39825485053034" lon="11.588407512565025"><ele>79.6</ele><time>2026-04-04T16:10:48Z</time></trkpt><trkpt lat="44.39833527513373" lon="11.588447243005659"><ele>78.8</ele><time>2026-04-04T16:10:49Z</time></trkpt><trkpt lat="44.39842706723646" lon="11.588508760496959"><ele>78.0</ele><time>2026-04-04T16:10:50Z</time></trkpt><trkpt lat="44.398527473774124" lon="11.588562717919196"><ele>78.0</ele><time>2026-04-04T16:10:51Z</time></trkpt><trkpt lat="44.39861861550394" lon="11.588621748500282"><ele>78.0</ele><time>2026-04-04T16:10:52Z</time></trkpt><trkpt lat="44.39868786169308" lon="11.588666900930848"><ele>78.0</ele><time>2026-04-04T16:10:53Z</time></trkpt><trkpt lat="44.39875797329299" lon="11.588713010291693"><ele>78.0</ele><time>2026-04-04T16:10:54Z</time></trkpt><trkpt lat="44.39882569535704" lon="11.588752631523526"><ele>78.0</ele><time>2026-04-04T16:10:55Z</time></trkpt><trkpt lat="44.39888831472177" lon="11.588798915094445"><ele>78.0</ele><time>2026-04-04T16:10:56Z</time></trkpt><trkpt lat="44.39900144639929" lon="11.588866195103806"><ele>77.83333333333333</ele><time>2026-04-04T16:10:58Z</time></trkpt><trkpt lat="44.39908137206098" lon="11.58891817318671"><ele>77.66666666666667</ele><time>2026-04-04T16:11:00Z</time></trkpt><trkpt lat="44.399155118659486" lon="11.588961581906315"><ele>77.5</ele><time>2026-04-04T16:11:02Z</time></trkpt><trkpt lat="44.39923930307912" lon="11.589013718602853"><ele>77.33333333333334</ele><time>2026-04-04T16:11:04Z</time></trkpt><trkpt lat="44.39934368482168" lon="11.58907705265066"><ele>77.16666666666667</ele><time>2026-04-04T16:11:06Z</time></trkpt><trkpt lat="44.39940038052957" lon="11.589115349778686"><ele>77.0</ele><time>2026-04-04T16:11:07Z</time></trkpt><trkpt lat="44.39949156239546" lon="11.589181851605753"><ele>77.0</ele><time>2026-04-04T16:11:09Z</time></trkpt><trkpt lat="44.39956713165872" lon="11.589202981474005"><ele>77.0</ele><time>2026-04-04T16:11:13Z</time></trkpt><trkpt lat="44.39965193400198" lon="11.589220038227811"><ele>77.0</ele><time>2026-04-04T16:11:19Z</time></trkpt><trkpt lat="44.399733442466086" lon="11.589166547429834"><ele>77.0</ele><time>2026-04-04T16:11:21Z</time></trkpt><trkpt lat="44.39975809558442" lon="11.589063416831207"><ele>77.0</ele><time>2026-04-04T16:11:22Z</time></trkpt><trkpt lat="44.399782075120214" lon="11.588980976582247"><ele>77.0</ele><time>2026-04-04T16:11:23Z</time></trkpt><trkpt lat="44.39981335671188" lon="11.588873639377722"><ele>77.0</ele><time>2026-04-04T16:11:24.001Z</time></trkpt><trkpt lat="44.39985355464844" lon="11.588778279312269"><ele>77.0</ele><time>2026-04-04T16:11:25.001Z</time></trkpt><trkpt lat="44.39989394862073" lon="11.588692629642443"><ele>77.0</ele><time>2026-04-04T16:11:26.001Z</time></trkpt><trkpt lat="44.399939511875" lon="11.588594767778709"><ele>77.0</ele><time>2026-04-04T16:11:27.001Z</time></trkpt><trkpt lat="44.400000531185555" lon="11.588490989355414"><ele>77.0</ele><time>2026-04-04T16:11:28.001Z</time></trkpt><trkpt lat="44.40006979906405" lon="11.588386903178616"><ele>77.0</ele><time>2026-04-04T16:11:29.001Z</time></trkpt><trkpt lat="44.40013930722118" lon="11.588291491306371"><ele>76.83333333333334</ele><time>2026-04-04T16:11:30.001Z</time></trkpt><trkpt lat="44.40021111676553" lon="11.588201159530042"><ele>76.66666666666667</ele><time>2026-04-04T16:11:31.001Z</time></trkpt><trkpt lat="44.40028091837525" lon="11.588126341395595"><ele>76.5</ele><time>2026-04-04T16:11:32.001Z</time></trkpt><trkpt lat="44.400346567154514" lon="11.58806226041345"><ele>76.33333333333333</ele><time>2026-04-04T16:11:33.001Z</time></trkpt><trkpt lat="44.40041752854431" lon="11.58800593321914"><ele>76.16666666666666</ele><time>2026-04-04T16:11:34.001Z</time></trkpt><trkpt lat="44.400489040449074" lon="11.587953169962487"><ele>76.0</ele><time>2026-04-04T16:11:35.001Z</time></trkpt><trkpt lat="44.400567404690335" lon="11.587902494260796"><ele>75.6</ele><time>2026-04-04T16:11:36.001Z</time></trkpt><trkpt lat="44.400649179143684" lon="11.587856268940737"><ele>75.19999999999999</ele><time>2026-04-04T16:11:37.001Z</time></trkpt><trkpt lat="44.40072323185403" lon="11.587814524765424"><ele>74.80000000000001</ele><time>2026-04-04T16:11:38.001Z</time></trkpt><trkpt lat="44.400800834724734" lon="11.587767686393946"><ele>74.4</ele><time>2026-04-04T16:11:39.001Z</time></trkpt><trkpt lat="44.40089153879393" lon="11.58771704059071"><ele>74.0</ele><time>2026-04-04T16:11:40.001Z</time></trkpt><trkpt lat="44.40100301587932" lon="11.587651640064776"><ele>74.0</ele><time>2026-04-04T16:11:41.001Z</time></trkpt><trkpt lat="44.40112221123357" lon="11.58758837556277"><ele>74.0</ele><time>2026-04-04T16:11:42.001Z</time></trkpt><trkpt lat="44.40122828329596" lon="11.587528728616645"><ele>74.0</ele><time>2026-04-04T16:11:43.001Z</time></trkpt><trkpt lat="44.40131851698847" lon="11.587483077342187"><ele>74.0</ele><time>2026-04-04T16:11:44.001Z</time></trkpt><trkpt lat="44.40140800856049" lon="11.587439120805685"><ele>74.0</ele><time>2026-04-04T16:11:45.001Z</time></trkpt><trkpt lat="44.40149951541497" lon="11.587393504299708"><ele>73.83333333333334</ele><time>2026-04-04T16:11:46.001Z</time></trkpt><trkpt lat="44.40158410538704" lon="11.58735194079427"><ele>73.66666666666667</ele><time>2026-04-04T16:11:47.001Z</time></trkpt><trkpt lat="44.40165689195507" lon="11.587314933565395"><ele>73.5</ele><time>2026-04-04T16:11:48.001Z</time></trkpt><trkpt lat="44.401729537431414" lon="11.58726770066501"><ele>73.33333333333333</ele><time>2026-04-04T16:11:49.001Z</time></trkpt><trkpt lat="44.40180666375965" lon="11.58722855985344"><ele>73.16666666666666</ele><time>2026-04-04T16:11:50.001Z</time></trkpt><trkpt lat="44.401878477415714" lon="11.587195449422577"><ele>73.0</ele><time>2026-04-04T16:11:51.001Z</time></trkpt><trkpt lat="44.40194065060465" lon="11.587164211948474"><ele>73.0</ele><time>2026-04-04T16:11:52.001Z</time></trkpt><trkpt lat="44.40204908426467" lon="11.587115334125999"><ele>73.0</ele><time>2026-04-04T16:11:54.001Z</time></trkpt><trkpt lat="44.40215076310634" lon="11.587138922900683"><ele>73.0</ele><time>2026-04-04T16:11:56.001Z</time></trkpt><trkpt lat="44.402226466570696" lon="11.587105248418627"><ele>73.0</ele><time>2026-04-04T16:11:58.001Z</time></trkpt><trkpt lat="44.40231192121214" lon="11.587165158040861"><ele>73.0</ele><time>2026-04-04T16:12:00.001Z</time></trkpt><trkpt lat="44.40236416179058" lon="11.587272965395465"><ele>69.0</ele><time>2026-04-04T16:12:02.001Z</time></trkpt><trkpt lat="44.40242086570773" lon="11.587333562553463"><ele>69.0</ele><time>2026-04-04T16:12:05.001Z</time></trkpt><trkpt lat="44.40249097702714" lon="11.587351659833777"><ele>69.0</ele><time>2026-04-04T16:12:09.001Z</time></trkpt></trkseg><trkseg><trkpt lat="44.4025228940873" lon="11.587252688771784"><ele>69.0</ele><time>2026-04-04T16:43:27.001Z</time></trkpt><trkpt lat="44.402511623873" lon="11.587343064167628"><ele>69.0</ele><time>2026-04-04T16:44:14Z</time></trkpt><trkpt lat="44.40248681511586" lon="11.587426861612597"><ele>69.0</ele><time>2026-04-04T16:44:26Z</time></trkpt><trkpt lat="44.40244023843968" lon="11.587335658327998"><ele>69.0</ele><time>2026-04-04T16:44:42.001Z</time></trkpt><trkpt lat="44.40236298307217" lon="11.58724238091276"><ele>69.0</ele><time>2026-04-04T16:44:44.001Z</time></trkpt><trkpt lat="44.40228736162641" lon="11.5871629089136"><ele>69.0</ele><time>2026-04-04T16:44:47.001Z</time></trkpt><trkpt lat="44.402211930746134" lon="11.587165838752146"><ele>69.0</ele><time>2026-04-04T16:44:50.001Z</time></trkpt><trkpt lat="44.402131079290605" lon="11.587172004879575"><ele>69.0</ele><time>2026-04-04T16:44:53.001Z</time></trkpt><trkpt lat="44.40215056534041" lon="11.58708548571632"><ele>69.0</ele><time>2026-04-04T16:44:55.001Z</time></trkpt><trkpt lat="44.40224918589869" lon="11.587032167904448"><ele>69.0</ele><time>2026-04-04T16:44:57.001Z</time></trkpt><trkpt lat="44.40231891086237" lon="11.586991157839588"><ele>69.0</ele><time>2026-04-04T16:44:58.001Z</time></trkpt><trkpt lat="44.4024206332131" lon="11.58693366308676"><ele>69.0</ele><time>2026-04-04T16:44:59.001Z</time></trkpt><trkpt lat="44.40250089463427" lon="11.586945971898203"><ele>69.0</ele><time>2026-04-04T16:45:00.001Z</time></trkpt><trkpt lat="44.40259532707368" lon="11.586983111226369"><ele>69.0</ele><time>2026-04-04T16:45:02.001Z</time></trkpt><trkpt lat="44.402666936191686" lon="11.587003334801237"><ele>69.0</ele><time>2026-04-04T16:45:05.001Z</time></trkpt><trkpt lat="44.40273937203927" lon="11.587107193329974"><ele>69.0</ele><time>2026-04-04T16:45:08.001Z</time></trkpt><trkpt lat="44.40280760935026" lon="11.58721497216615"><ele>69.0</ele><time>2026-04-04T16:45:09.001Z</time></trkpt><trkpt lat="44.40288883295034" lon="11.587295124096945"><ele>69.0</ele><time>2026-04-04T16:45:10.001Z</time></trkpt><trkpt lat="44.40298381315213" lon="11.587328963037718"><ele>69.0</ele><time>2026-04-04T16:45:11.001Z</time></trkpt><trkpt lat="44.40308320755866" lon="11.58732154781658"><ele>69.0</ele><time>2026-04-04T16:45:12.001Z</time></trkpt><trkpt lat="44.403182856267954" lon="11.587270694343282"><ele>69.0</ele><time>2026-04-04T16:45:13Z</time></trkpt><trkpt lat="44.40328703318123" lon="11.587205778036859"><ele>69.0</ele><time>2026-04-04T16:45:14Z</time></trkpt><trkpt lat="44.40341604922301" lon="11.58717356724409"><ele>68.0</ele><time>2026-04-04T16:45:15Z</time></trkpt><trkpt lat="44.403563279027374" lon="11.587183794564513"><ele>67.0</ele><time>2026-04-04T16:45:16Z</time></trkpt><trkpt lat="44.40373251523314" lon="11.587209007694694"><ele>66.0</ele><time>2026-04-04T16:45:17Z</time></trkpt><trkpt lat="44.403875476301536" lon="11.587237801259468"><ele>65.25</ele><time>2026-04-04T16:45:18Z</time></trkpt><trkpt lat="44.404001549426724" lon="11.587284014235589"><ele>64.5</ele><time>2026-04-04T16:45:19Z</time></trkpt><trkpt lat="44.40412025629351" lon="11.587327297381401"><ele>63.75</ele><time>2026-04-04T16:45:20Z</time></trkpt><trkpt lat="44.40423333126035" lon="11.587367529982"><ele>63.0</ele><time>2026-04-04T16:45:21Z</time></trkpt><trkpt lat="44.404355145162434" lon="11.587421265745279"><ele>63.0</ele><time>2026-04-04T16:45:22Z</time></trkpt><trkpt lat="44.404484539334625" lon="11.587481041807377"><ele>63.0</ele><time>2026-04-04T16:45:23Z</time></trkpt><trkpt lat="44.40462326900021" lon="11.587545582227671"><ele>63.0</ele><time>2026-04-04T16:45:24Z</time></trkpt><trkpt lat="44.404754889358955" lon="11.58759639580811"><ele>63.0</ele><time>2026-04-04T16:45:25Z</time></trkpt><trkpt lat="44.40489555471801" lon="11.587653076037697"><ele>62.66666666666667</ele><time>2026-04-04T16:45:26Z</time></trkpt><trkpt lat="44.40505830643538" lon="11.587718224895468"><ele>62.333333333333336</ele><time>2026-04-04T16:45:27Z</time></trkpt><trkpt lat="44.40523379251975" lon="11.587774109679136"><ele>62.0</ele><time>2026-04-04T16:45:28Z</time></trkpt><trkpt lat="44.405401572508545" lon="11.587832004867721"><ele>61.333333333333336</ele><time>2026-04-04T16:45:29Z</time></trkpt><trkpt lat="44.40557604336296" lon="11.587894732554432"><ele>60.66666666666667</ele><time>2026-04-04T16:45:30Z</time></trkpt><trkpt lat="44.40573946111754" lon="11.587947397687785"><ele>60.0</ele><time>2026-04-04T16:45:31Z</time></trkpt><trkpt lat="44.40588737879507" lon="11.587993864566293"><ele>60.0</ele><time>2026-04-04T16:45:32Z</time></trkpt><trkpt lat="44.406026614737236" lon="11.588031498100234"><ele>60.0</ele><time>2026-04-04T16:45:33Z</time></trkpt><trkpt lat="44.40615874724641" lon="11.588061288694803"><ele>60.0</ele><time>2026-04-04T16:45:34Z</time></trkpt><trkpt lat="44.406286790972786" lon="11.588089502893556"><ele>60.0</ele><time>2026-04-04T16:45:35Z</time></trkpt><trkpt lat="44.40641460133772" lon="11.588114669368734"><ele>59.75</ele><time>2026-04-04T16:45:36Z</time></trkpt><trkpt lat="44.40654192579028" lon="11.588143031317568"><ele>59.5</ele><time>2026-04-04T16:45:37Z</time></trkpt><trkpt lat="44.406656516260995" lon="11.588160883433803"><ele>59.25</ele><time>2026-04-04T16:45:38Z</time></trkpt><trkpt lat="44.406773716614126" lon="11.588173325683982"><ele>59.0</ele><time>2026-04-04T16:45:39Z</time></trkpt><trkpt lat="44.4068925632991" lon="11.588189814250606"><ele>59.0</ele><time>2026-04-04T16:45:40Z</time></trkpt><trkpt lat="44.40700456338565" lon="11.588216720595835"><ele>59.0</ele><time>2026-04-04T16:45:41Z</time></trkpt><trkpt lat="44.40711913769273" lon="11.588250474793147"><ele>59.0</ele><time>2026-04-04T16:45:42Z</time></trkpt><trkpt lat="44.40724023536866" lon="11.588281076296967"><ele>59.0</ele><time>2026-04-04T16:45:43Z</time></trkpt><trkpt lat="44.40735701303975" lon="11.58831294440465"><ele>59.0</ele><time>2026-04-04T16:45:44Z</time></trkpt><trkpt lat="44.40747312389451" lon="11.588347836470104"><ele>59.0</ele><time>2026-04-04T16:45:45Z</time></trkpt><trkpt lat="44.40757691250117" lon="11.588375439864173"><ele>59.0</ele><time>2026-04-04T16:45:46Z</time></trkpt><trkpt lat="44.40767985296017" lon="11.588406301466602"><ele>59.0</ele><time>2026-04-04T16:45:47Z</time></trkpt><trkpt lat="44.407801467032094" lon="11.588453119646845"><ele>59.0</ele><time>2026-04-04T16:45:48Z</time></trkpt><trkpt lat="44.40793835492554" lon="11.588515709831022"><ele>59.0</ele><time>2026-04-04T16:45:49Z</time></trkpt><trkpt lat="44.40807959328252" lon="11.588584458827201"><ele>59.0</ele><time>2026-04-04T16:45:50Z</time></trkpt><trkpt lat="44.40822281890874" lon="11.588639222576093"><ele>59.0</ele><time>2026-04-04T16:45:51Z</time></trkpt><trkpt lat="44.408367496945615" lon="11.588671028012458"><ele>58.75</ele><time>2026-04-04T16:45:52Z</time></trkpt><trkpt lat="44.40851046687695" lon="11.58870463908864"><ele>58.5</ele><time>2026-04-04T16:45:53Z</time></trkpt><trkpt lat="44.40864394459366" lon="11.588740172772573"><ele>58.25</ele><time>2026-04-04T16:45:54Z</time></trkpt><trkpt lat="44.4087845651753" lon="11.588788188266449"><ele>58.0</ele><time>2026-04-04T16:45:55Z</time></trkpt><trkpt lat="44.40906475698942" lon="11.58889379267032"><ele>57.666666666666664</ele><time>2026-04-04T16:45:57Z</time></trkpt><trkpt lat="44.409205422299095" lon="11.58895227269029"><ele>57.33333333333333</ele><time>2026-04-04T16:45:58Z</time></trkpt><trkpt lat="44.40934891186452" lon="11.589023461203945"><ele>57.0</ele><time>2026-04-04T16:45:59Z</time></trkpt><trkpt lat="44.40949258202506" lon="11.589105024275174"><ele>57.0</ele><time>2026-04-04T16:46:00Z</time></trkpt><trkpt lat="44.40964295694735" lon="11.589188643605414"><ele>57.0</ele><time>2026-04-04T16:46:01Z</time></trkpt><trkpt lat="44.409786313958826" lon="11.589281447611057"><ele>57.0</ele><time>2026-04-04T16:46:02Z</time></trkpt><trkpt lat="44.409932252726996" lon="11.58938497362165"><ele>57.33333333333333</ele><time>2026-04-04T16:46:03Z</time></trkpt><trkpt lat="44.41006857020889" lon="11.589483304690447"><ele>57.666666666666664</ele><time>2026-04-04T16:46:04Z</time></trkpt><trkpt lat="44.41020886826636" lon="11.589591396896985"><ele>58.0</ele><time>2026-04-04T16:46:05Z</time></trkpt><trkpt lat="44.410347986827325" lon="11.589695370038584"><ele>58.0</ele><time>2026-04-04T16:46:06Z</time></trkpt><trkpt lat="44.41047674129772" lon="11.589796374678789"><ele>58.0</ele><time>2026-04-04T16:46:07Z</time></trkpt><trkpt lat="44.41061084713777" lon="11.589897604535684"><ele>58.0</ele><time>2026-04-04T16:46:08Z</time></trkpt><trkpt lat="44.41074349247483" lon="11.589998702366072"><ele>58.0</ele><time>2026-04-04T16:46:09Z</time></trkpt><trkpt lat="44.410880407560064" lon="11.590103244799469"><ele>58.0</ele><time>2026-04-04T16:46:10Z</time></trkpt><trkpt lat="44.4110090527501" lon="11.590206552411086"><ele>58.0</ele><time>2026-04-04T16:46:11Z</time></trkpt><trkpt lat="44.41114324185266" lon="11.590311633354105"><ele>58.0</ele><time>2026-04-04T16:46:12Z</time></trkpt><trkpt lat="44.411279596962004" lon="11.590416169420028"><ele>58.0</ele><time>2026-04-04T16:46:13Z</time></trkpt><trkpt lat="44.411414781157966" lon="11.590524625549119"><ele>58.0</ele><time>2026-04-04T16:46:14Z</time></trkpt><trkpt lat="44.41155089120359" lon="11.59063597576204"><ele>58.33333333333333</ele><time>2026-04-04T16:46:15Z</time></trkpt><trkpt lat="44.41167716136325" lon="11.590758518114463"><ele>58.66666666666667</ele><time>2026-04-04T16:46:16Z</time></trkpt><trkpt lat="44.41180280338305" lon="11.590896254618006"><ele>59.0</ele><time>2026-04-04T16:46:17Z</time></trkpt><trkpt lat="44.41192565565278" lon="11.591043029873267"><ele>58.66666666666667</ele><time>2026-04-04T16:46:18Z</time></trkpt><trkpt lat="44.4120370363414" lon="11.591204458229388"><ele>58.33333333333333</ele><time>2026-04-04T16:46:19Z</time></trkpt><trkpt lat="44.4121460180589" lon="11.591364493505354"><ele>58.0</ele><time>2026-04-04T16:46:20Z</time></trkpt><trkpt lat="44.412257033174185" lon="11.591529083072931"><ele>58.0</ele><time>2026-04-04T16:46:21Z</time></trkpt><trkpt lat="44.41236902445945" lon="11.591693728559372"><ele>58.0</ele><time>2026-04-04T16:46:22Z</time></trkpt><trkpt lat="44.41248710025567" lon="11.59186001486412"><ele>58.0</ele><time>2026-04-04T16:46:23Z</time></trkpt><trkpt lat="44.412602305744564" lon="11.592025718498107"><ele>57.33333333333333</ele><time>2026-04-04T16:46:24Z</time></trkpt><trkpt lat="44.41271960977277" lon="11.5921907896538"><ele>56.66666666666667</ele><time>2026-04-04T16:46:25Z</time></trkpt><trkpt lat="44.41283655916892" lon="11.592365521547737"><ele>56.0</ele><time>2026-04-04T16:46:26Z</time></trkpt><trkpt lat="44.412955564867275" lon="11.592536921834808"><ele>56.0</ele><time>2026-04-04T16:46:27Z</time></trkpt><trkpt lat="44.4130748677497" lon="11.592703818246328"><ele>56.0</ele><time>2026-04-04T16:46:28Z</time></trkpt><trkpt lat="44.41319467008534" lon="11.592872666575293"><ele>56.0</ele><time>2026-04-04T16:46:29Z</time></trkpt><trkpt lat="44.41331192865234" lon="11.593042094335068"><ele>56.0</ele><time>2026-04-04T16:46:30Z</time></trkpt><trkpt lat="44.41343125343771" lon="11.593210111368801"><ele>56.0</ele><time>2026-04-04T16:46:31Z</time></trkpt><trkpt lat="44.4135488006429" lon="11.59337704719397"><ele>56.0</ele><time>2026-04-04T16:46:32Z</time></trkpt><trkpt lat="44.41366660005491" lon="11.593547924756026"><ele>56.0</ele><time>2026-04-04T16:46:33Z</time></trkpt><trkpt lat="44.413786799920146" lon="11.593720150060783"><ele>56.0</ele><time>2026-04-04T16:46:34Z</time></trkpt><trkpt lat="44.41390647574553" lon="11.593891053047757"><ele>56.0</ele><time>2026-04-04T16:46:35Z</time></trkpt><trkpt lat="44.41402412670291" lon="11.594060466604295"><ele>56.66666666666667</ele><time>2026-04-04T16:46:36Z</time></trkpt><trkpt lat="44.41414292633407" lon="11.594228889685832"><ele>57.33333333333333</ele><time>2026-04-04T16:46:37Z</time></trkpt><trkpt lat="44.41426160354709" lon="11.594394186050202"><ele>58.0</ele><time>2026-04-04T16:46:38Z</time></trkpt><trkpt lat="44.41438489796998" lon="11.594564746822797"><ele>58.0</ele><time>2026-04-04T16:46:39Z</time></trkpt><trkpt lat="44.414501868894256" lon="11.594732140479945"><ele>58.0</ele><time>2026-04-04T16:46:40Z</time></trkpt><trkpt lat="44.414621266833876" lon="11.59489913728169"><ele>58.0</ele><time>2026-04-04T16:46:41Z</time></trkpt><trkpt lat="44.41473817034592" lon="11.595066386077026"><ele>57.0</ele><time>2026-04-04T16:46:42Z</time></trkpt><trkpt lat="44.41484933443366" lon="11.595234453858854"><ele>56.0</ele><time>2026-04-04T16:46:43Z</time></trkpt><trkpt lat="44.4149604041817" lon="11.595402146712804"><ele>55.0</ele><time>2026-04-04T16:46:44Z</time></trkpt><trkpt lat="44.41506956444347" lon="11.595570809766635"><ele>55.0</ele><time>2026-04-04T16:46:45Z</time></trkpt><trkpt lat="44.41516623096155" lon="11.595730184631325"><ele>55.0</ele><time>2026-04-04T16:46:46Z</time></trkpt><trkpt lat="44.41526486224372" lon="11.595905340128017"><ele>55.0</ele><time>2026-04-04T16:46:47Z</time></trkpt><trkpt lat="44.41536477353639" lon="11.596096751921577"><ele>55.0</ele><time>2026-04-04T16:46:48Z</time></trkpt><trkpt lat="44.41546095040042" lon="11.596295417719553"><ele>55.0</ele><time>2026-04-04T16:46:49Z</time></trkpt><trkpt lat="44.41555784609551" lon="11.596506907781933"><ele>55.0</ele><time>2026-04-04T16:46:50.001Z</time></trkpt><trkpt lat="44.41565312973371" lon="11.596725118782597"><ele>55.33333333333333</ele><time>2026-04-04T16:46:51.001Z</time></trkpt><trkpt lat="44.415751078289354" lon="11.596940286235464"><ele>55.66666666666667</ele><time>2026-04-04T16:46:52.001Z</time></trkpt><trkpt lat="44.41584810036917" lon="11.59714539076505"><ele>56.0</ele><time>2026-04-04T16:46:53.001Z</time></trkpt><trkpt lat="44.41594442937713" lon="11.597345740413228"><ele>55.0</ele><time>2026-04-04T16:46:54.001Z</time></trkpt><trkpt lat="44.416046739938245" lon="11.597547995074754"><ele>54.0</ele><time>2026-04-04T16:46:55.001Z</time></trkpt><trkpt lat="44.416275719130965" lon="11.597929320329582"><ele>55.0</ele><time>2026-04-04T16:46:57.001Z</time></trkpt><trkpt lat="44.41640891011335" lon="11.598100800770155"><ele>56.0</ele><time>2026-04-04T16:46:58.001Z</time></trkpt><trkpt lat="44.416554048927225" lon="11.598262651535133"><ele>57.0</ele><time>2026-04-04T16:46:59.001Z</time></trkpt><trkpt lat="44.416710276968956" lon="11.598409237531058"><ele>57.0</ele><time>2026-04-04T16:47:00.001Z</time></trkpt><trkpt lat="44.4168708098301" lon="11.598539001962445"><ele>57.0</ele><time>2026-04-04T16:47:01.001Z</time></trkpt><trkpt lat="44.41703835004821" lon="11.598642280364182"><ele>57.0</ele><time>2026-04-04T16:47:02.001Z</time></trkpt><trkpt lat="44.41721884491884" lon="11.59873523757656"><ele>57.0</ele><time>2026-04-04T16:47:03.001Z</time></trkpt><trkpt lat="44.417398158673755" lon="11.598810785524075"><ele>57.0</ele><time>2026-04-04T16:47:04.001Z</time></trkpt><trkpt lat="44.417581842466845" lon="11.598871765382821"><ele>57.0</ele><time>2026-04-04T16:47:05.001Z</time></trkpt><trkpt lat="44.417764812278165" lon="11.598924317660492"><ele>57.0</ele><time>2026-04-04T16:47:06.001Z</time></trkpt><trkpt lat="44.41794991448222" lon="11.598980251510808"><ele>57.0</ele><time>2026-04-04T16:47:07.001Z</time></trkpt><trkpt lat="44.41813570914614" lon="11.599041303294674"><ele>57.0</ele><time>2026-04-04T16:47:08.001Z</time></trkpt><trkpt lat="44.41831540475742" lon="11.599100292791238"><ele>56.33333333333333</ele><time>2026-04-04T16:47:09.001Z</time></trkpt><trkpt lat="44.41849135330735" lon="11.599160971550909"><ele>55.666666666666664</ele><time>2026-04-04T16:47:10.001Z</time></trkpt><trkpt lat="44.41867004047133" lon="11.5992209274389"><ele>55.0</ele><time>2026-04-04T16:47:11.001Z</time></trkpt><trkpt lat="44.41884099927688" lon="11.599289686595549"><ele>54.5</ele><time>2026-04-04T16:47:12.001Z</time></trkpt><trkpt lat="44.41899701527042" lon="11.59936001792025"><ele>54.0</ele><time>2026-04-04T16:47:13.001Z</time></trkpt><trkpt lat="44.41914112809349" lon="11.599435221604402"><ele>53.5</ele><time>2026-04-04T16:47:14.001Z</time></trkpt><trkpt lat="44.419256425797855" lon="11.59950545143355"><ele>53.0</ele><time>2026-04-04T16:47:15.001Z</time></trkpt><trkpt lat="44.41934216133055" lon="11.599583133157436"><ele>53.0</ele><time>2026-04-04T16:47:16.001Z</time></trkpt><trkpt lat="44.41942062559005" lon="11.599676156257617"><ele>53.0</ele><time>2026-04-04T16:47:17.001Z</time></trkpt><trkpt lat="44.41949890248424" lon="11.599732604014614"><ele>53.0</ele><time>2026-04-04T16:47:18.001Z</time></trkpt><trkpt lat="44.41955203746276" lon="11.599855803856519"><ele>53.0</ele><time>2026-04-04T16:47:19Z</time></trkpt><trkpt lat="44.41961880362823" lon="11.5999284939704"><ele>53.0</ele><time>2026-04-04T16:47:20Z</time></trkpt><trkpt lat="44.419680578647636" lon="11.599992823844564"><ele>53.00000000000001</ele><time>2026-04-04T16:47:21Z</time></trkpt><trkpt lat="44.41974840905564" lon="11.600064130377588"><ele>53.0</ele><time>2026-04-04T16:47:23Z</time></trkpt><trkpt lat="44.41980840612033" lon="11.600118929403122"><ele>53.0</ele><time>2026-04-04T16:47:26Z</time></trkpt><trkpt lat="44.41989242491928" lon="11.600179156593049"><ele>53.0</ele><time>2026-04-04T16:49:42.001Z</time></trkpt><trkpt lat="44.41994954824938" lon="11.600219007844421"><ele>53.00000000000001</ele><time>2026-04-04T16:49:43.001Z</time></trkpt><trkpt lat="44.420006978901995" lon="11.600271518492411"><ele>53.0</ele><time>2026-04-04T16:49:44.001Z</time></trkpt><trkpt lat="44.42008175625083" lon="11.60033680635"><ele>53.25</ele><time>2026-04-04T16:49:45.001Z</time></trkpt><trkpt lat="44.420203113452" lon="11.600430859212635"><ele>53.5</ele><time>2026-04-04T16:49:46.001Z</time></trkpt><trkpt lat="44.42032264735496" lon="11.600517921600805"><ele>53.75</ele><time>2026-04-04T16:49:47.001Z</time></trkpt><trkpt lat="44.42041725200188" lon="11.600576215761249"><ele>54.0</ele><time>2026-04-04T16:49:48.001Z</time></trkpt><trkpt lat="44.4204933041571" lon="11.600623706577561"><ele>54.166666666666664</ele><time>2026-04-04T16:49:49.001Z</time></trkpt><trkpt lat="44.42056020146686" lon="11.60066845807638"><ele>54.33333333333333</ele><time>2026-04-04T16:49:50.001Z</time></trkpt><trkpt lat="44.42061827460452" lon="11.600706980035225"><ele>54.5</ele><time>2026-04-04T16:49:51.001Z</time></trkpt><trkpt lat="44.42070590762729" lon="11.60076891483338"><ele>54.666666666666664</ele><time>2026-04-04T16:49:53.001Z</time></trkpt><trkpt lat="44.42077646409273" lon="11.600812718019327"><ele>54.83333333333333</ele><time>2026-04-04T16:49:55.001Z</time></trkpt><trkpt lat="44.4208364978289" lon="11.600763153743499"><ele>55.0</ele><time>2026-04-04T16:49:57.001Z</time></trkpt><trkpt lat="44.420921751406986" lon="11.600700856612782"><ele>55.0</ele><time>2026-04-04T16:50:01.001Z</time></trkpt><trkpt lat="44.42100110754239" lon="11.600749452448895"><ele>55.0</ele><time>2026-04-04T16:50:02.001Z</time></trkpt><trkpt lat="44.42109364347289" lon="11.600811884030229"><ele>55.0</ele><time>2026-04-04T16:50:03.001Z</time></trkpt><trkpt lat="44.42122651068483" lon="11.60087713707321"><ele>55.0</ele><time>2026-04-04T16:50:04.001Z</time></trkpt><trkpt lat="44.42136510054066" lon="11.600937326783855"><ele>54.0</ele><time>2026-04-04T16:50:05.001Z</time></trkpt><trkpt lat="44.42152918623112" lon="11.601005257417832"><ele>53.0</ele><time>2026-04-04T16:50:06.001Z</time></trkpt><trkpt lat="44.42168230481503" lon="11.601068168234034"><ele>52.0</ele><time>2026-04-04T16:50:07.001Z</time></trkpt><trkpt lat="44.42184449504001" lon="11.601131027324476"><ele>52.0</ele><time>2026-04-04T16:50:08.001Z</time></trkpt><trkpt lat="44.421995102238334" lon="11.60119486541064"><ele>52.0</ele><time>2026-04-04T16:50:09.001Z</time></trkpt><trkpt lat="44.422145757360596" lon="11.601258292013068"><ele>52.0</ele><time>2026-04-04T16:50:10.001Z</time></trkpt><trkpt lat="44.42229150530279" lon="11.601322539774763"><ele>52.0</ele><time>2026-04-04T16:50:11.001Z</time></trkpt><trkpt lat="44.42243793935617" lon="11.601387448301"><ele>52.0</ele><time>2026-04-04T16:50:12.001Z</time></trkpt><trkpt lat="44.42258090604521" lon="11.601450681199177"><ele>52.0</ele><time>2026-04-04T16:50:13.001Z</time></trkpt><trkpt lat="44.422728088521254" lon="11.601519551085408"><ele>52.0</ele><time>2026-04-04T16:50:14.001Z</time></trkpt><trkpt lat="44.42286877193725" lon="11.601588522769957"><ele>52.0</ele><time>2026-04-04T16:50:15.001Z</time></trkpt><trkpt lat="44.42300868312713" lon="11.60166273663012"><ele>52.0</ele><time>2026-04-04T16:50:16.001Z</time></trkpt><trkpt lat="44.42315949719898" lon="11.601743478624208"><ele>51.666666666666664</ele><time>2026-04-04T16:50:17.001Z</time></trkpt><trkpt lat="44.42331562755197" lon="11.601828509085731"><ele>51.33333333333333</ele><time>2026-04-04T16:50:18.001Z</time></trkpt><trkpt lat="44.42347314960795" lon="11.601912541761834"><ele>51.0</ele><time>2026-04-04T16:50:19.001Z</time></trkpt><trkpt lat="44.42362275543341" lon="11.601991113714895"><ele>51.0</ele><time>2026-04-04T16:50:20.001Z</time></trkpt><trkpt lat="44.42377537025417" lon="11.602073272730316"><ele>51.0</ele><time>2026-04-04T16:50:21.001Z</time></trkpt><trkpt lat="44.423923116253484" lon="11.602161954475559"><ele>51.0</ele><time>2026-04-04T16:50:22.001Z</time></trkpt><trkpt lat="44.42407286237162" lon="11.602251824300932"><ele>52.0</ele><time>2026-04-04T16:50:23.001Z</time></trkpt><trkpt lat="44.42422291139818" lon="11.602341583776726"><ele>53.0</ele><time>2026-04-04T16:50:24.001Z</time></trkpt><trkpt lat="44.42438948798142" lon="11.602435708755594"><ele>54.0</ele><time>2026-04-04T16:50:25.001Z</time></trkpt><trkpt lat="44.4245476430162" lon="11.602526348562652"><ele>53.66666666666667</ele><time>2026-04-04T16:50:26.001Z</time></trkpt><trkpt lat="44.42469481789732" lon="11.602609643559587"><ele>53.333333333333336</ele><time>2026-04-04T16:50:27.001Z</time></trkpt><trkpt lat="44.42484652288791" lon="11.60269717443932"><ele>53.0</ele><time>2026-04-04T16:50:28.001Z</time></trkpt><trkpt lat="44.4249971347681" lon="11.60279066289172"><ele>52.0</ele><time>2026-04-04T16:50:29.001Z</time></trkpt><trkpt lat="44.42514631708551" lon="11.602887897750676"><ele>51.0</ele><time>2026-04-04T16:50:30.001Z</time></trkpt><trkpt lat="44.42530087098091" lon="11.602971647805623"><ele>50.0</ele><time>2026-04-04T16:50:31.001Z</time></trkpt><trkpt lat="44.42546156016264" lon="11.603053602956425"><ele>50.333333333333336</ele><time>2026-04-04T16:50:32.001Z</time></trkpt><trkpt lat="44.42561877796475" lon="11.60313928128601"><ele>50.66666666666667</ele><time>2026-04-04T16:50:33.001Z</time></trkpt><trkpt lat="44.42578468158808" lon="11.603233069107727"><ele>51.0</ele><time>2026-04-04T16:50:34.001Z</time></trkpt><trkpt lat="44.425946659217665" lon="11.603317924923891"><ele>51.0</ele><time>2026-04-04T16:50:35.001Z</time></trkpt><trkpt lat="44.4261074392331" lon="11.603406644710324"><ele>51.0</ele><time>2026-04-04T16:50:36.001Z</time></trkpt><trkpt lat="44.42626576738061" lon="11.603499133352253"><ele>51.0</ele><time>2026-04-04T16:50:37.001Z</time></trkpt><trkpt lat="44.426422376431105" lon="11.603588317695127"><ele>51.33333333333333</ele><time>2026-04-04T16:50:38.001Z</time></trkpt><trkpt lat="44.426584908648174" lon="11.603678398679724"><ele>51.666666666666664</ele><time>2026-04-04T16:50:39.001Z</time></trkpt><trkpt lat="44.426739109828105" lon="11.60376432037298"><ele>52.0</ele><time>2026-04-04T16:50:40.001Z</time></trkpt><trkpt lat="44.42690009302082" lon="11.60385143489875"><ele>52.0</ele><time>2026-04-04T16:50:41.001Z</time></trkpt><trkpt lat="44.42706228170617" lon="11.603940203661544"><ele>52.0</ele><time>2026-04-04T16:50:42.001Z</time></trkpt><trkpt lat="44.42722302265718" lon="11.604031433036631"><ele>52.0</ele><time>2026-04-04T16:50:43.001Z</time></trkpt><trkpt lat="44.427391086679755" lon="11.604122017034422"><ele>52.33333333333333</ele><time>2026-04-04T16:50:44.001Z</time></trkpt><trkpt lat="44.42755658712701" lon="11.604208519541999"><ele>52.66666666666667</ele><time>2026-04-04T16:50:45.001Z</time></trkpt><trkpt lat="44.42773139081763" lon="11.604277870813805"><ele>53.0</ele><time>2026-04-04T16:50:46.001Z</time></trkpt><trkpt lat="44.42791420623519" lon="11.604333565843197"><ele>51.66666666666667</ele><time>2026-04-04T16:50:47.001Z</time></trkpt><trkpt lat="44.428093089703076" lon="11.60436617635989"><ele>50.33333333333333</ele><time>2026-04-04T16:50:48.001Z</time></trkpt><trkpt lat="44.428278057838845" lon="11.604399726145179"><ele>49.0</ele><time>2026-04-04T16:50:49.001Z</time></trkpt><trkpt lat="44.428449345980006" lon="11.604426940578124"><ele>49.0</ele><time>2026-04-04T16:50:50.001Z</time></trkpt><trkpt lat="44.42863938154115" lon="11.60445836525219"><ele>49.0</ele><time>2026-04-04T16:50:51.001Z</time></trkpt><trkpt lat="44.428839106900185" lon="11.604495876186661"><ele>49.0</ele><time>2026-04-04T16:50:52.001Z</time></trkpt><trkpt lat="44.42903943340779" lon="11.604529422204312"><ele>48.33333333333333</ele><time>2026-04-04T16:50:53.001Z</time></trkpt><trkpt lat="44.42924495412352" lon="11.604563336198108"><ele>47.666666666666664</ele><time>2026-04-04T16:50:54.001Z</time></trkpt><trkpt lat="44.42944238101879" lon="11.60459760526043"><ele>47.0</ele><time>2026-04-04T16:50:55.001Z</time></trkpt><trkpt lat="44.42964047594172" lon="11.60463061247844"><ele>47.666666666666664</ele><time>2026-04-04T16:50:56.001Z</time></trkpt><trkpt lat="44.42983451198919" lon="11.60466575838319"><ele>48.33333333333333</ele><time>2026-04-04T16:50:57.001Z</time></trkpt><trkpt lat="44.43002815221409" lon="11.604698835624731"><ele>49.0</ele><time>2026-04-04T16:50:58.001Z</time></trkpt><trkpt lat="44.43021689306678" lon="11.604727723941368"><ele>49.0</ele><time>2026-04-04T16:50:59.001Z</time></trkpt><trkpt lat="44.430400012567674" lon="11.60475925834008"><ele>49.0</ele><time>2026-04-04T16:51:00.001Z</time></trkpt><trkpt lat="44.43058828594205" lon="11.604800369398962"><ele>49.0</ele><time>2026-04-04T16:51:01.001Z</time></trkpt><trkpt lat="44.430777356492214" lon="11.6048316049439"><ele>48.0</ele><time>2026-04-04T16:51:02.001Z</time></trkpt><trkpt lat="44.43096447153711" lon="11.604861948552408"><ele>47.0</ele><time>2026-04-04T16:51:03.001Z</time></trkpt><trkpt lat="44.43114593084377" lon="11.604894819712383"><ele>46.0</ele><time>2026-04-04T16:51:04.001Z</time></trkpt><trkpt lat="44.4313286658951" lon="11.604927102025869"><ele>45.333333333333336</ele><time>2026-04-04T16:51:05.001Z</time></trkpt><trkpt lat="44.43150922292413" lon="11.604959502489072"><ele>44.666666666666664</ele><time>2026-04-04T16:51:06.001Z</time></trkpt><trkpt lat="44.431690795443394" lon="11.60499035267531"><ele>44.0</ele><time>2026-04-04T16:51:07.001Z</time></trkpt><trkpt lat="44.43187057808361" lon="11.605023691888432"><ele>44.0</ele><time>2026-04-04T16:51:08.001Z</time></trkpt><trkpt lat="44.43204830420105" lon="11.605056558720186"><ele>44.0</ele><time>2026-04-04T16:51:09.001Z</time></trkpt><trkpt lat="44.432230068010576" lon="11.605088315136735"><ele>44.0</ele><time>2026-04-04T16:51:10.001Z</time></trkpt><trkpt lat="44.432411148651084" lon="11.605120494810796"><ele>44.33333333333333</ele><time>2026-04-04T16:51:11.001Z</time></trkpt><trkpt lat="44.432596496954154" lon="11.605155959480076"><ele>44.666666666666664</ele><time>2026-04-04T16:51:12.001Z</time></trkpt><trkpt lat="44.43278358763982" lon="11.605188270861241"><ele>45.0</ele><time>2026-04-04T16:51:13.001Z</time></trkpt><trkpt lat="44.43297269874238" lon="11.605219529135558"><ele>46.0</ele><time>2026-04-04T16:51:14.001Z</time></trkpt><trkpt lat="44.43316274366354" lon="11.605249913329775"><ele>47.0</ele><time>2026-04-04T16:51:15.001Z</time></trkpt><trkpt lat="44.43335048698231" lon="11.605280139479895"><ele>48.0</ele><time>2026-04-04T16:51:16.001Z</time></trkpt><trkpt lat="44.43354315862363" lon="11.605317843491497"><ele>47.666666666666664</ele><time>2026-04-04T16:51:17.001Z</time></trkpt><trkpt lat="44.43373400312658" lon="11.605364946623675"><ele>47.33333333333333</ele><time>2026-04-04T16:51:18.001Z</time></trkpt><trkpt lat="44.43392271827604" lon="11.605428067862148"><ele>47.0</ele><time>2026-04-04T16:51:19.001Z</time></trkpt><trkpt lat="44.434094188696385" lon="11.605512712771024"><ele>46.666666666666664</ele><time>2026-04-04T16:51:20.001Z</time></trkpt><trkpt lat="44.43426700350818" lon="11.605612499186057"><ele>46.333333333333336</ele><time>2026-04-04T16:51:21.001Z</time></trkpt><trkpt lat="44.43443961894559" lon="11.605720089376323"><ele>46.0</ele><time>2026-04-04T16:51:22.001Z</time></trkpt><trkpt lat="44.43461640120672" lon="11.60582531033039"><ele>45.0</ele><time>2026-04-04T16:51:23.001Z</time></trkpt><trkpt lat="44.43479716888081" lon="11.605931869242719"><ele>44.0</ele><time>2026-04-04T16:51:24.001Z</time></trkpt><trkpt lat="44.43497579917964" lon="11.606037347494208"><ele>43.0</ele><time>2026-04-04T16:51:25.001Z</time></trkpt><trkpt lat="44.43515834284303" lon="11.60614091619048"><ele>43.333333333333336</ele><time>2026-04-04T16:51:26.001Z</time></trkpt><trkpt lat="44.43533548637149" lon="11.60624500647069"><ele>43.666666666666664</ele><time>2026-04-04T16:51:27.001Z</time></trkpt><trkpt lat="44.43551234974117" lon="11.606348354325316"><ele>44.0</ele><time>2026-04-04T16:51:28.001Z</time></trkpt><trkpt lat="44.435691073061584" lon="11.606442355543049"><ele>44.33333333333333</ele><time>2026-04-04T16:51:29.001Z</time></trkpt><trkpt lat="44.43588717102199" lon="11.606523518223947"><ele>44.666666666666664</ele><time>2026-04-04T16:51:30.001Z</time></trkpt><trkpt lat="44.436076625005214" lon="11.606584592566481"><ele>45.0</ele><time>2026-04-04T16:51:31Z</time></trkpt><trkpt lat="44.436263666897815" lon="11.606622195403606"><ele>45.0</ele><time>2026-04-04T16:51:32Z</time></trkpt><trkpt lat="44.436462856377126" lon="11.606644789176638"><ele>45.0</ele><time>2026-04-04T16:51:33Z</time></trkpt><trkpt lat="44.43666123826487" lon="11.606643761722363"><ele>45.0</ele><time>2026-04-04T16:51:34Z</time></trkpt><trkpt lat="44.4368516879185" lon="11.606633828300058"><ele>45.0</ele><time>2026-04-04T16:51:35Z</time></trkpt><trkpt lat="44.43704996568754" lon="11.606608061873176"><ele>45.0</ele><time>2026-04-04T16:51:36Z</time></trkpt><trkpt lat="44.43725885735684" lon="11.60658385043887"><ele>45.0</ele><time>2026-04-04T16:51:37Z</time></trkpt><trkpt lat="44.437467415466884" lon="11.606572339998845"><ele>44.666666666666664</ele><time>2026-04-04T16:51:38Z</time></trkpt><trkpt lat="44.43767811075528" lon="11.606551195876333"><ele>44.33333333333333</ele><time>2026-04-04T16:51:39Z</time></trkpt><trkpt lat="44.437882353896136" lon="11.606529534021321"><ele>44.0</ele><time>2026-04-04T16:51:40Z</time></trkpt><trkpt lat="44.43808032345621" lon="11.606513715729339"><ele>44.0</ele><time>2026-04-04T16:51:41Z</time></trkpt><trkpt lat="44.43828298467069" lon="11.606488388633688"><ele>44.0</ele><time>2026-04-04T16:51:42Z</time></trkpt><trkpt lat="44.43848181729004" lon="11.60646744099191"><ele>44.0</ele><time>2026-04-04T16:51:43Z</time></trkpt><trkpt lat="44.43867867602396" lon="11.606448387937798"><ele>43.33333333333333</ele><time>2026-04-04T16:51:44Z</time></trkpt><trkpt lat="44.43887539881104" lon="11.606429892778683"><ele>42.666666666666664</ele><time>2026-04-04T16:51:45Z</time></trkpt><trkpt lat="44.43907391492445" lon="11.60640958635578"><ele>42.0</ele><time>2026-04-04T16:51:46Z</time></trkpt><trkpt lat="44.43927299856881" lon="11.606390335700885"><ele>42.0</ele><time>2026-04-04T16:51:47Z</time></trkpt><trkpt lat="44.43946802242695" lon="11.606376601507401"><ele>42.0</ele><time>2026-04-04T16:51:48Z</time></trkpt><trkpt lat="44.439659248622526" lon="11.60636145550445"><ele>42.0</ele><time>2026-04-04T16:51:49Z</time></trkpt><trkpt lat="44.4398539306938" lon="11.606347833318283"><ele>42.0</ele><time>2026-04-04T16:51:50Z</time></trkpt><trkpt lat="44.44003995896119" lon="11.60635699303357"><ele>42.0</ele><time>2026-04-04T16:51:51Z</time></trkpt><trkpt lat="44.44022532587823" lon="11.606391370769101"><ele>42.0</ele><time>2026-04-04T16:51:52Z</time></trkpt><trkpt lat="44.44040510826647" lon="11.606439546908012"><ele>41.666666666666664</ele><time>2026-04-04T16:51:53Z</time></trkpt><trkpt lat="44.44058813273308" lon="11.606498804462865"><ele>41.33333333333333</ele><time>2026-04-04T16:51:54Z</time></trkpt><trkpt lat="44.44075612225503" lon="11.60658779537384"><ele>41.0</ele><time>2026-04-04T16:51:55Z</time></trkpt><trkpt lat="44.44092389714883" lon="11.606685656525862"><ele>41.0</ele><time>2026-04-04T16:51:56Z</time></trkpt><trkpt lat="44.44108323001618" lon="11.606791554646826"><ele>41.0</ele><time>2026-04-04T16:51:57Z</time></trkpt><trkpt lat="44.4412420633815" lon="11.60689668966065"><ele>41.0</ele><time>2026-04-04T16:51:58Z</time></trkpt><trkpt lat="44.4414059805241" lon="11.606997199431511"><ele>41.0</ele><time>2026-04-04T16:51:59Z</time></trkpt><trkpt lat="44.44173149747351" lon="11.607211198258513"><ele>41.0</ele><time>2026-04-04T16:52:01Z</time></trkpt><trkpt lat="44.44190170035612" lon="11.607321517370206"><ele>41.0</ele><time>2026-04-04T16:52:02Z</time></trkpt><trkpt lat="44.44207903086621" lon="11.60742699100716"><ele>41.0</ele><time>2026-04-04T16:52:03Z</time></trkpt><trkpt lat="44.44225399628282" lon="11.607518965608177"><ele>41.0</ele><time>2026-04-04T16:52:04Z</time></trkpt><trkpt lat="44.442432365405786" lon="11.607593217901364"><ele>41.0</ele><time>2026-04-04T16:52:05Z</time></trkpt><trkpt lat="44.44261300220204" lon="11.607653345727199"><ele>41.0</ele><time>2026-04-04T16:52:06Z</time></trkpt><trkpt lat="44.44279976022806" lon="11.6076934278165"><ele>41.0</ele><time>2026-04-04T16:52:07Z</time></trkpt><trkpt lat="44.44298667850553" lon="11.607713980007578"><ele>41.0</ele><time>2026-04-04T16:52:08Z</time></trkpt><trkpt lat="44.44317612387114" lon="11.607720925337377"><ele>41.0</ele><time>2026-04-04T16:52:09Z</time></trkpt><trkpt lat="44.44336332933232" lon="11.607716575248919"><ele>41.0</ele><time>2026-04-04T16:52:10Z</time></trkpt><trkpt lat="44.44355782373325" lon="11.60768808056191"><ele>41.0</ele><time>2026-04-04T16:52:11Z</time></trkpt><trkpt lat="44.44374773392318" lon="11.607648671103489"><ele>41.0</ele><time>2026-04-04T16:52:12Z</time></trkpt><trkpt lat="44.44393683703464" lon="11.60760743658276"><ele>41.0</ele><time>2026-04-04T16:52:13Z</time></trkpt><trkpt lat="44.44432188602666" lon="11.607519688466388"><ele>41.0</ele><time>2026-04-04T16:52:15Z</time></trkpt><trkpt lat="44.44451869915638" lon="11.607473683368038"><ele>41.0</ele><time>2026-04-04T16:52:16Z</time></trkpt><trkpt lat="44.444715322041716" lon="11.607431831393427"><ele>41.0</ele><time>2026-04-04T16:52:17Z</time></trkpt><trkpt lat="44.44491101687654" lon="11.607387614684553"><ele>41.0</ele><time>2026-04-04T16:52:18Z</time></trkpt><trkpt lat="44.44510218013434" lon="11.607349586467166"><ele>41.0</ele><time>2026-04-04T16:52:19Z</time></trkpt><trkpt lat="44.44529806396661" lon="11.607298122664117"><ele>41.0</ele><time>2026-04-04T16:52:20Z</time></trkpt><trkpt lat="44.445491546699195" lon="11.607260793234122"><ele>40.33333333333333</ele><time>2026-04-04T16:52:21Z</time></trkpt><trkpt lat="44.445688960926375" lon="11.607221951654418"><ele>39.666666666666664</ele><time>2026-04-04T16:52:22Z</time></trkpt><trkpt lat="44.4458898422888" lon="11.607179776757075"><ele>39.0</ele><time>2026-04-04T16:52:23Z</time></trkpt><trkpt lat="44.446084260550826" lon="11.607137822038505"><ele>39.0</ele><time>2026-04-04T16:52:24Z</time></trkpt><trkpt lat="44.44629208028695" lon="11.607091609583998"><ele>39.0</ele><time>2026-04-04T16:52:25Z</time></trkpt><trkpt lat="44.44649993340455" lon="11.607047752843268"><ele>39.0</ele><time>2026-04-04T16:52:26Z</time></trkpt><trkpt lat="44.446703451008084" lon="11.60700332842264"><ele>39.0</ele><time>2026-04-04T16:52:27Z</time></trkpt><trkpt lat="44.44691630434269" lon="11.606954874139532"><ele>39.0</ele><time>2026-04-04T16:52:28Z</time></trkpt><trkpt lat="44.44711825408841" lon="11.606909737934076"><ele>39.0</ele><time>2026-04-04T16:52:29Z</time></trkpt><trkpt lat="44.44731771451899" lon="11.60686417821256"><ele>39.0</ele><time>2026-04-04T16:52:30Z</time></trkpt><trkpt lat="44.44751741667072" lon="11.606818250830765"><ele>39.0</ele><time>2026-04-04T16:52:31Z</time></trkpt><trkpt lat="44.447713903365255" lon="11.60677330127802"><ele>39.0</ele><time>2026-04-04T16:52:32Z</time></trkpt><trkpt lat="44.44791552108255" lon="11.60673034791683"><ele>38.666666666666664</ele><time>2026-04-04T16:52:33Z</time></trkpt><trkpt lat="44.44811458157876" lon="11.606690261577329"><ele>38.33333333333333</ele><time>2026-04-04T16:52:34Z</time></trkpt><trkpt lat="44.44831916061865" lon="11.606647421274946"><ele>38.0</ele><time>2026-04-04T16:52:35Z</time></trkpt><trkpt lat="44.44852438088191" lon="11.606602450258116"><ele>38.0</ele><time>2026-04-04T16:52:36Z</time></trkpt><trkpt lat="44.448737205310984" lon="11.60655583744127"><ele>38.0</ele><time>2026-04-04T16:52:37Z</time></trkpt><trkpt lat="44.44895158233424" lon="11.606508347731069"><ele>38.0</ele><time>2026-04-04T16:52:38Z</time></trkpt><trkpt lat="44.44916385798352" lon="11.606459263710489"><ele>38.0</ele><time>2026-04-04T16:52:39Z</time></trkpt><trkpt lat="44.44937101725205" lon="11.606415192928926"><ele>38.0</ele><time>2026-04-04T16:52:40Z</time></trkpt><trkpt lat="44.44957092016374" lon="11.606374344028197"><ele>38.0</ele><time>2026-04-04T16:52:41Z</time></trkpt><trkpt lat="44.44977737127182" lon="11.606326583052512"><ele>38.0</ele><time>2026-04-04T16:52:42Z</time></trkpt><trkpt lat="44.449979065524666" lon="11.606280157069268"><ele>38.0</ele><time>2026-04-04T16:52:43Z</time></trkpt><trkpt lat="44.45017846570689" lon="11.606238532060532"><ele>38.0</ele><time>2026-04-04T16:52:44Z</time></trkpt><trkpt lat="44.45037809363459" lon="11.606200995228619"><ele>37.0</ele><time>2026-04-04T16:52:45Z</time></trkpt><trkpt lat="44.4505798189613" lon="11.60616244028554"><ele>36.0</ele><time>2026-04-04T16:52:46Z</time></trkpt><trkpt lat="44.450783235587096" lon="11.606121955241845"><ele>35.0</ele><time>2026-04-04T16:52:47Z</time></trkpt><trkpt lat="44.45098550984655" lon="11.606084151565623"><ele>35.0</ele><time>2026-04-04T16:52:48Z</time></trkpt><trkpt lat="44.451191148636774" lon="11.60605190118565"><ele>35.0</ele><time>2026-04-04T16:52:49Z</time></trkpt><trkpt lat="44.45139386272822" lon="11.606022999663484"><ele>35.0</ele><time>2026-04-04T16:52:50Z</time></trkpt><trkpt lat="44.45160130366307" lon="11.606001470928023"><ele>35.0</ele><time>2026-04-04T16:52:51Z</time></trkpt><trkpt lat="44.4518121549332" lon="11.605990895575243"><ele>35.0</ele><time>2026-04-04T16:52:52Z</time></trkpt><trkpt lat="44.452015646971105" lon="11.60599587527828"><ele>35.0</ele><time>2026-04-04T16:52:53Z</time></trkpt><trkpt lat="44.452218751281286" lon="11.606013595635702"><ele>35.0</ele><time>2026-04-04T16:52:54Z</time></trkpt><trkpt lat="44.45242121597024" lon="11.60603860650646"><ele>35.0</ele><time>2026-04-04T16:52:55Z</time></trkpt><trkpt lat="44.452625593992266" lon="11.606073025818207"><ele>35.0</ele><time>2026-04-04T16:52:56Z</time></trkpt><trkpt lat="44.45283123873622" lon="11.606120140513378"><ele>35.666666666666664</ele><time>2026-04-04T16:52:57Z</time></trkpt><trkpt lat="44.453031779754866" lon="11.606177811313223"><ele>36.333333333333336</ele><time>2026-04-04T16:52:58Z</time></trkpt><trkpt lat="44.45323629455248" lon="11.6062472919896"><ele>37.0</ele><time>2026-04-04T16:52:59Z</time></trkpt><trkpt lat="44.45342940034967" lon="11.606322910262572"><ele>37.0</ele><time>2026-04-04T16:53:00Z</time></trkpt><trkpt lat="44.453622097903825" lon="11.606407438842782"><ele>37.0</ele><time>2026-04-04T16:53:01Z</time></trkpt><trkpt lat="44.453805890235316" lon="11.606500454859452"><ele>37.0</ele><time>2026-04-04T16:53:02Z</time></trkpt><trkpt lat="44.45398977868524" lon="11.606605635009958"><ele>37.0</ele><time>2026-04-04T16:53:03Z</time></trkpt><trkpt lat="44.45416607521576" lon="11.606715728700006"><ele>37.0</ele><time>2026-04-04T16:53:04Z</time></trkpt><trkpt lat="44.45434217357813" lon="11.606834711985933"><ele>37.0</ele><time>2026-04-04T16:53:05Z</time></trkpt><trkpt lat="44.454516881355005" lon="11.606957726114725"><ele>36.333333333333336</ele><time>2026-04-04T16:53:06Z</time></trkpt><trkpt lat="44.45469097907796" lon="11.607081578711673"><ele>35.666666666666664</ele><time>2026-04-04T16:53:07Z</time></trkpt><trkpt lat="44.45486959542689" lon="11.607209195372327"><ele>35.0</ele><time>2026-04-04T16:53:08Z</time></trkpt><trkpt lat="44.455043089080945" lon="11.60733669580069"><ele>35.0</ele><time>2026-04-04T16:53:09.001Z</time></trkpt><trkpt lat="44.45521357855612" lon="11.60746996367108"><ele>35.0</ele><time>2026-04-04T16:53:10.001Z</time></trkpt><trkpt lat="44.45538222303716" lon="11.60759917078717"><ele>35.0</ele><time>2026-04-04T16:53:11.001Z</time></trkpt><trkpt lat="44.4555487633768" lon="11.607724683114181"><ele>34.666666666666664</ele><time>2026-04-04T16:53:12.001Z</time></trkpt><trkpt lat="44.45571877089308" lon="11.607848446901633"><ele>34.333333333333336</ele><time>2026-04-04T16:53:13.001Z</time></trkpt><trkpt lat="44.45588752445871" lon="11.607976433637575"><ele>34.0</ele><time>2026-04-04T16:53:14.001Z</time></trkpt><trkpt lat="44.45605541409495" lon="11.608102443404814"><ele>34.0</ele><time>2026-04-04T16:53:15.001Z</time></trkpt><trkpt lat="44.456226427859356" lon="11.60822877304506"><ele>34.0</ele><time>2026-04-04T16:53:16.001Z</time></trkpt><trkpt lat="44.45639707968503" lon="11.60835431145726"><ele>34.0</ele><time>2026-04-04T16:53:17.001Z</time></trkpt><trkpt lat="44.45656852592778" lon="11.60848332025418"><ele>34.0</ele><time>2026-04-04T16:53:18.001Z</time></trkpt><trkpt lat="44.45674079663133" lon="11.608614478390658"><ele>34.0</ele><time>2026-04-04T16:53:19.001Z</time></trkpt><trkpt lat="44.45691899353558" lon="11.60874815231705"><ele>34.0</ele><time>2026-04-04T16:53:20.001Z</time></trkpt><trkpt lat="44.45708751433722" lon="11.60887127362458"><ele>34.0</ele><time>2026-04-04T16:53:21.001Z</time></trkpt><trkpt lat="44.457260871295574" lon="11.609002183554587"><ele>34.0</ele><time>2026-04-04T16:53:22.001Z</time></trkpt><trkpt lat="44.45743585608608" lon="11.609133444464529"><ele>34.0</ele><time>2026-04-04T16:53:23.001Z</time></trkpt><trkpt lat="44.45761840074772" lon="11.609267822025554"><ele>34.0</ele><time>2026-04-04T16:53:24.001Z</time></trkpt><trkpt lat="44.45779431658119" lon="11.609398246893532"><ele>34.0</ele><time>2026-04-04T16:53:25.001Z</time></trkpt><trkpt lat="44.45797017940339" lon="11.609530501124146"><ele>34.0</ele><time>2026-04-04T16:53:26.001Z</time></trkpt><trkpt lat="44.45814886018371" lon="11.609664191980631"><ele>33.66666666666667</ele><time>2026-04-04T16:53:27.001Z</time></trkpt><trkpt lat="44.45832569496538" lon="11.60979800686332"><ele>33.333333333333336</ele><time>2026-04-04T16:53:28.001Z</time></trkpt><trkpt lat="44.45850604657188" lon="11.609935399137504"><ele>33.0</ele><time>2026-04-04T16:53:29.001Z</time></trkpt><trkpt lat="44.45868273453841" lon="11.61006906690489"><ele>33.0</ele><time>2026-04-04T16:53:30.001Z</time></trkpt><trkpt lat="44.45885889508664" lon="11.610199126145353"><ele>33.0</ele><time>2026-04-04T16:53:31.001Z</time></trkpt><trkpt lat="44.459040432515614" lon="11.61033172539326"><ele>33.0</ele><time>2026-04-04T16:53:32.001Z</time></trkpt><trkpt lat="44.4592140117069" lon="11.610460184201493"><ele>33.0</ele><time>2026-04-04T16:53:33.001Z</time></trkpt><trkpt lat="44.45937719895152" lon="11.610583025782608"><ele>33.0</ele><time>2026-04-04T16:53:34.001Z</time></trkpt><trkpt lat="44.45954453569794" lon="11.61070968483246"><ele>33.0</ele><time>2026-04-04T16:53:35.001Z</time></trkpt><trkpt lat="44.45972123742375" lon="11.610834085988301"><ele>33.0</ele><time>2026-04-04T16:53:36.001Z</time></trkpt><trkpt lat="44.459886403310065" lon="11.610958388058767"><ele>33.0</ele><time>2026-04-04T16:53:37Z</time></trkpt><trkpt lat="44.46005230763204" lon="11.611091805833201"><ele>33.0</ele><time>2026-04-04T16:53:38Z</time></trkpt><trkpt lat="44.460216006721105" lon="11.611229148289903"><ele>33.0</ele><time>2026-04-04T16:53:39Z</time></trkpt><trkpt lat="44.46037812115983" lon="11.611366468188635"><ele>33.0</ele><time>2026-04-04T16:53:40Z</time></trkpt><trkpt lat="44.46053953781949" lon="11.611505273093375"><ele>33.0</ele><time>2026-04-04T16:53:41Z</time></trkpt><trkpt lat="44.46069045494376" lon="11.611640741154742"><ele>33.0</ele><time>2026-04-04T16:53:42Z</time></trkpt><trkpt lat="44.46083633765486" lon="11.611766526517172"><ele>33.0</ele><time>2026-04-04T16:53:43Z</time></trkpt><trkpt lat="44.46098407839007" lon="11.61189840336094"><ele>33.0</ele><time>2026-04-04T16:53:44Z</time></trkpt><trkpt lat="44.46114348995299" lon="11.612039836602712"><ele>33.0</ele><time>2026-04-04T16:53:45Z</time></trkpt><trkpt lat="44.461303830778526" lon="11.612182157831878"><ele>33.0</ele><time>2026-04-04T16:53:46Z</time></trkpt><trkpt lat="44.461468566533746" lon="11.612325035905009"><ele>33.0</ele><time>2026-04-04T16:53:47Z</time></trkpt><trkpt lat="44.461628341521866" lon="11.612461621895823"><ele>33.0</ele><time>2026-04-04T16:53:48Z</time></trkpt><trkpt lat="44.461785670419694" lon="11.612599921273647"><ele>33.0</ele><time>2026-04-04T16:53:49Z</time></trkpt><trkpt lat="44.46194352749338" lon="11.61274057995734"><ele>33.0</ele><time>2026-04-04T16:53:50Z</time></trkpt><trkpt lat="44.462101990259434" lon="11.612883307868026"><ele>32.0</ele><time>2026-04-04T16:53:51Z</time></trkpt><trkpt lat="44.462259010719094" lon="11.613025090585959"><ele>31.0</ele><time>2026-04-04T16:53:52Z</time></trkpt><trkpt lat="44.46242191467338" lon="11.61316420620135"><ele>30.0</ele><time>2026-04-04T16:53:53Z</time></trkpt><trkpt lat="44.46257256615376" lon="11.613298123738922"><ele>30.0</ele><time>2026-04-04T16:53:54Z</time></trkpt><trkpt lat="44.4627232891307" lon="11.613434707154063"><ele>30.0</ele><time>2026-04-04T16:53:55Z</time></trkpt><trkpt lat="44.462883857687274" lon="11.613574187431617"><ele>30.0</ele><time>2026-04-04T16:53:56Z</time></trkpt><trkpt lat="44.46304316036328" lon="11.613713259773672"><ele>30.333333333333336</ele><time>2026-04-04T16:53:57Z</time></trkpt><trkpt lat="44.46320696002644" lon="11.6138558070124"><ele>30.666666666666668</ele><time>2026-04-04T16:53:58Z</time></trkpt><trkpt lat="44.46337123735587" lon="11.613996508085565"><ele>31.0</ele><time>2026-04-04T16:53:59Z</time></trkpt><trkpt lat="44.46353655345188" lon="11.614137953735765"><ele>31.0</ele><time>2026-04-04T16:54:00Z</time></trkpt><trkpt lat="44.46370388138702" lon="11.614282212118502"><ele>31.0</ele><time>2026-04-04T16:54:01Z</time></trkpt><trkpt lat="44.463868233033615" lon="11.614428319179956"><ele>31.0</ele><time>2026-04-04T16:54:02Z</time></trkpt><trkpt lat="44.46403300557317" lon="11.614578434042906"><ele>31.0</ele><time>2026-04-04T16:54:03Z</time></trkpt><trkpt lat="44.4641999175963" lon="11.614728585931863"><ele>31.0</ele><time>2026-04-04T16:54:04Z</time></trkpt><trkpt lat="44.46436490496001" lon="11.614875901930622"><ele>31.0</ele><time>2026-04-04T16:54:05Z</time></trkpt><trkpt lat="44.46451436398919" lon="11.615013480115195"><ele>30.666666666666668</ele><time>2026-04-04T16:54:06Z</time></trkpt><trkpt lat="44.46466144885472" lon="11.615146303729786"><ele>30.333333333333336</ele><time>2026-04-04T16:54:07Z</time></trkpt><trkpt lat="44.46482003988644" lon="11.61528472558128"><ele>30.0</ele><time>2026-04-04T16:54:08Z</time></trkpt><trkpt lat="44.4649724901581" lon="11.615415968008131"><ele>29.666666666666664</ele><time>2026-04-04T16:54:09Z</time></trkpt><trkpt lat="44.465127679609346" lon="11.615551135192307"><ele>29.333333333333332</ele><time>2026-04-04T16:54:10Z</time></trkpt><trkpt lat="44.46528478432345" lon="11.61568078327103"><ele>29.0</ele><time>2026-04-04T16:54:11Z</time></trkpt><trkpt lat="44.46544780977613" lon="11.615804764773154"><ele>29.0</ele><time>2026-04-04T16:54:12Z</time></trkpt><trkpt lat="44.46561644055479" lon="11.615919382932699"><ele>29.0</ele><time>2026-04-04T16:54:13Z</time></trkpt><trkpt lat="44.465790800734524" lon="11.616020423417934"><ele>29.0</ele><time>2026-04-04T16:54:14Z</time></trkpt><trkpt lat="44.4659744816989" lon="11.616109629034444"><ele>29.333333333333332</ele><time>2026-04-04T16:54:15Z</time></trkpt><trkpt lat="44.46616081187891" lon="11.616179410489437"><ele>29.666666666666664</ele><time>2026-04-04T16:54:16Z</time></trkpt><trkpt lat="44.46635575936519" lon="11.616238992579646"><ele>30.0</ele><time>2026-04-04T16:54:17Z</time></trkpt><trkpt lat="44.466558263033754" lon="11.616287113999771"><ele>30.0</ele><time>2026-04-04T16:54:18Z</time></trkpt><trkpt lat="44.46676556021243" lon="11.61631960304724"><ele>30.0</ele><time>2026-04-04T16:54:19Z</time></trkpt><trkpt lat="44.466979308177145" lon="11.616329694788387"><ele>30.0</ele><time>2026-04-04T16:54:20Z</time></trkpt><trkpt lat="44.467180181683716" lon="11.61632603089473"><ele>29.333333333333336</ele><time>2026-04-04T16:54:21Z</time></trkpt><trkpt lat="44.467371673920084" lon="11.616314777656404"><ele>28.666666666666668</ele><time>2026-04-04T16:54:22Z</time></trkpt><trkpt lat="44.467555297617494" lon="11.616293587042765"><ele>28.0</ele><time>2026-04-04T16:54:23Z</time></trkpt><trkpt lat="44.467740828646804" lon="11.616258055845845"><ele>28.0</ele><time>2026-04-04T16:54:24Z</time></trkpt><trkpt lat="44.46793589028938" lon="11.616217699248162"><ele>28.0</ele><time>2026-04-04T16:54:25Z</time></trkpt><trkpt lat="44.46812758610522" lon="11.616178341426219"><ele>28.0</ele><time>2026-04-04T16:54:26Z</time></trkpt><trkpt lat="44.46832628979432" lon="11.616137665931765"><ele>28.0</ele><time>2026-04-04T16:54:27Z</time></trkpt><trkpt lat="44.468519078329265" lon="11.616096194094979"><ele>28.0</ele><time>2026-04-04T16:54:28Z</time></trkpt><trkpt lat="44.46871450024918" lon="11.616055401820876"><ele>28.0</ele><time>2026-04-04T16:54:29Z</time></trkpt><trkpt lat="44.46890386914958" lon="11.61601800680816"><ele>28.0</ele><time>2026-04-04T16:54:30Z</time></trkpt><trkpt lat="44.46910170244515" lon="11.61598007597757"><ele>28.0</ele><time>2026-04-04T16:54:31Z</time></trkpt><trkpt lat="44.46929009643763" lon="11.615944761607086"><ele>28.0</ele><time>2026-04-04T16:54:32Z</time></trkpt><trkpt lat="44.469479468606565" lon="11.615908676466296"><ele>27.666666666666668</ele><time>2026-04-04T16:54:33Z</time></trkpt><trkpt lat="44.46967060466396" lon="11.615873555337423"><ele>27.333333333333336</ele><time>2026-04-04T16:54:34Z</time></trkpt><trkpt lat="44.46986480813241" lon="11.615832274206852"><ele>27.0</ele><time>2026-04-04T16:54:35Z</time></trkpt><trkpt lat="44.47005571433318" lon="11.615790281457297"><ele>27.0</ele><time>2026-04-04T16:54:36Z</time></trkpt><trkpt lat="44.47024459638113" lon="11.615749958569994"><ele>27.0</ele><time>2026-04-04T16:54:37Z</time></trkpt><trkpt lat="44.47043317717632" lon="11.615712540363615"><ele>27.0</ele><time>2026-04-04T16:54:38Z</time></trkpt><trkpt lat="44.470623920905325" lon="11.615679256601881"><ele>26.666666666666664</ele><time>2026-04-04T16:54:39Z</time></trkpt><trkpt lat="44.47080928886458" lon="11.615645701980377"><ele>26.333333333333332</ele><time>2026-04-04T16:54:40Z</time></trkpt><trkpt lat="44.47099313485618" lon="11.615611090718769"><ele>26.0</ele><time>2026-04-04T16:54:41Z</time></trkpt><trkpt lat="44.47117711088479" lon="11.615577118836034"><ele>26.0</ele><time>2026-04-04T16:54:42Z</time></trkpt><trkpt lat="44.47136535364106" lon="11.615542186220067"><ele>26.0</ele><time>2026-04-04T16:54:43Z</time></trkpt><trkpt lat="44.47155503285382" lon="11.61550248795442"><ele>26.0</ele><time>2026-04-04T16:54:44Z</time></trkpt><trkpt lat="44.471739657779544" lon="11.615463389346095"><ele>26.0</ele><time>2026-04-04T16:54:45Z</time></trkpt><trkpt lat="44.47191739600913" lon="11.615429199602424"><ele>26.0</ele><time>2026-04-04T16:54:46Z</time></trkpt><trkpt lat="44.47211088843422" lon="11.615390266207779"><ele>26.0</ele><time>2026-04-04T16:54:47Z</time></trkpt><trkpt lat="44.47230581249091" lon="11.6153605946368"><ele>25.666666666666664</ele><time>2026-04-04T16:54:48Z</time></trkpt><trkpt lat="44.47250471913648" lon="11.61534511200649"><ele>25.333333333333336</ele><time>2026-04-04T16:54:49Z</time></trkpt><trkpt lat="44.47270006276307" lon="11.615343819234047"><ele>25.0</ele><time>2026-04-04T16:54:50Z</time></trkpt><trkpt lat="44.4728975039004" lon="11.615355365838013"><ele>25.666666666666668</ele><time>2026-04-04T16:54:51Z</time></trkpt><trkpt lat="44.47310029732256" lon="11.615373630644733"><ele>26.333333333333336</ele><time>2026-04-04T16:54:52Z</time></trkpt><trkpt lat="44.473305533012315" lon="11.615403132733878"><ele>27.0</ele><time>2026-04-04T16:54:53Z</time></trkpt><trkpt lat="44.47350334887546" lon="11.615438476923428"><ele>27.0</ele><time>2026-04-04T16:54:54Z</time></trkpt><trkpt lat="44.473706527782376" lon="11.615482707291122"><ele>27.0</ele><time>2026-04-04T16:54:55Z</time></trkpt><trkpt lat="44.47390160124797" lon="11.615532096439708"><ele>27.0</ele><time>2026-04-04T16:54:56Z</time></trkpt><trkpt lat="44.47409146904779" lon="11.615580283024322"><ele>26.333333333333336</ele><time>2026-04-04T16:54:57Z</time></trkpt><trkpt lat="44.474269824163876" lon="11.615624229765656"><ele>25.666666666666668</ele><time>2026-04-04T16:54:58Z</time></trkpt><trkpt lat="44.47445537561804" lon="11.615672909536976"><ele>25.0</ele><time>2026-04-04T16:54:59Z</time></trkpt><trkpt lat="44.47464497290649" lon="11.615716448335872"><ele>24.666666666666668</ele><time>2026-04-04T16:55:00Z</time></trkpt><trkpt lat="44.47483699699325" lon="11.615758042129249"><ele>24.333333333333336</ele><time>2026-04-04T16:55:01Z</time></trkpt><trkpt lat="44.47502790624639" lon="11.61580285937469"><ele>24.0</ele><time>2026-04-04T16:55:02Z</time></trkpt><trkpt lat="44.475216793144405" lon="11.61584834357573"><ele>24.0</ele><time>2026-04-04T16:55:03Z</time></trkpt><trkpt lat="44.47540580347491" lon="11.61589355896714"><ele>24.0</ele><time>2026-04-04T16:55:04Z</time></trkpt><trkpt lat="44.475598404690295" lon="11.615938467515797"><ele>24.0</ele><time>2026-04-04T16:55:05Z</time></trkpt><trkpt lat="44.47579867740983" lon="11.615987678814466"><ele>24.0</ele><time>2026-04-04T16:55:06Z</time></trkpt><trkpt lat="44.475991221397585" lon="11.61603504147763"><ele>24.0</ele><time>2026-04-04T16:55:07Z</time></trkpt><trkpt lat="44.47618248384762" lon="11.616087270580527"><ele>24.0</ele><time>2026-04-04T16:55:08Z</time></trkpt><trkpt lat="44.47637536560754" lon="11.616150639831487"><ele>23.666666666666668</ele><time>2026-04-04T16:55:09Z</time></trkpt><trkpt lat="44.47656940506019" lon="11.616229421727637"><ele>23.333333333333336</ele><time>2026-04-04T16:55:10Z</time></trkpt><trkpt lat="44.47676102323128" lon="11.61631688096692"><ele>23.0</ele><time>2026-04-04T16:55:11Z</time></trkpt><trkpt lat="44.47695041326599" lon="11.61641383235141"><ele>23.0</ele><time>2026-04-04T16:55:12Z</time></trkpt><trkpt lat="44.47713629623972" lon="11.616522199785708"><ele>23.0</ele><time>2026-04-04T16:55:13Z</time></trkpt><trkpt lat="44.47731878461007" lon="11.616639247293483"><ele>23.0</ele><time>2026-04-04T16:55:14Z</time></trkpt><trkpt lat="44.47749828971795" lon="11.616762134051227"><ele>23.0</ele><time>2026-04-04T16:55:15Z</time></trkpt><trkpt lat="44.47767572812629" lon="11.616887691839528"><ele>23.0</ele><time>2026-04-04T16:55:16Z</time></trkpt><trkpt lat="44.477849727020235" lon="11.61701660673853"><ele>23.0</ele><time>2026-04-04T16:55:17Z</time></trkpt><trkpt lat="44.478022865904364" lon="11.61714840611344"><ele>24.0</ele><time>2026-04-04T16:55:18Z</time></trkpt><trkpt lat="44.478196148895385" lon="11.617281959907814"><ele>25.0</ele><time>2026-04-04T16:55:19Z</time></trkpt><trkpt lat="44.47836728057775" lon="11.617415244098032"><ele>26.0</ele><time>2026-04-04T16:55:20Z</time></trkpt><trkpt lat="44.47853723402933" lon="11.61754395445074"><ele>26.0</ele><time>2026-04-04T16:55:21Z</time></trkpt><trkpt lat="44.478714144834626" lon="11.617672547947052"><ele>26.0</ele><time>2026-04-04T16:55:22Z</time></trkpt><trkpt lat="44.47889016048461" lon="11.617808479658837"><ele>26.0</ele><time>2026-04-04T16:55:23Z</time></trkpt><trkpt lat="44.47906526332609" lon="11.617945894709973"><ele>26.0</ele><time>2026-04-04T16:55:24Z</time></trkpt><trkpt lat="44.47925047539106" lon="11.61808713202028"><ele>26.0</ele><time>2026-04-04T16:55:25Z</time></trkpt><trkpt lat="44.47943789767107" lon="11.618226039805936"><ele>26.0</ele><time>2026-04-04T16:55:26Z</time></trkpt><trkpt lat="44.47962028706967" lon="11.618358142498094"><ele>26.0</ele><time>2026-04-04T16:55:27Z</time></trkpt><trkpt lat="44.47980317002094" lon="11.618495396846015"><ele>26.0</ele><time>2026-04-04T16:55:28Z</time></trkpt><trkpt lat="44.47998645288863" lon="11.618633017020219"><ele>26.0</ele><time>2026-04-04T16:55:29Z</time></trkpt><trkpt lat="44.480166135846495" lon="11.618766842846156"><ele>25.666666666666664</ele><time>2026-04-04T16:55:30Z</time></trkpt><trkpt lat="44.48033578623903" lon="11.61889521513762"><ele>25.333333333333336</ele><time>2026-04-04T16:55:31Z</time></trkpt><trkpt lat="44.480504886825244" lon="11.619019343151313"><ele>25.0</ele><time>2026-04-04T16:55:32Z</time></trkpt><trkpt lat="44.48067193314123" lon="11.619143908432829"><ele>24.666666666666668</ele><time>2026-04-04T16:55:33Z</time></trkpt><trkpt lat="44.480836092902265" lon="11.619270716004914"><ele>24.333333333333336</ele><time>2026-04-04T16:55:34Z</time></trkpt><trkpt lat="44.48100398078243" lon="11.619395968626378"><ele>24.0</ele><time>2026-04-04T16:55:35Z</time></trkpt><trkpt lat="44.481171302774804" lon="11.619524078775846"><ele>22.666666666666668</ele><time>2026-04-04T16:55:36Z</time></trkpt><trkpt lat="44.4813334025771" lon="11.61964738198551"><ele>21.333333333333336</ele><time>2026-04-04T16:55:37Z</time></trkpt><trkpt lat="44.48149002753867" lon="11.619762327308958"><ele>20.0</ele><time>2026-04-04T16:55:38Z</time></trkpt><trkpt lat="44.4816483861374" lon="11.619878250826876"><ele>20.0</ele><time>2026-04-04T16:55:39Z</time></trkpt><trkpt lat="44.4818025020215" lon="11.619997236299298"><ele>20.0</ele><time>2026-04-04T16:55:40Z</time></trkpt><trkpt lat="44.48195628080745" lon="11.620114508505711"><ele>20.0</ele><time>2026-04-04T16:55:41Z</time></trkpt><trkpt lat="44.48211678389001" lon="11.620237773406984"><ele>20.666666666666668</ele><time>2026-04-04T16:55:42.001Z</time></trkpt><trkpt lat="44.48227832498966" lon="11.62036062173573"><ele>21.333333333333332</ele><time>2026-04-04T16:55:43Z</time></trkpt><trkpt lat="44.482445688600215" lon="11.620487217255574"><ele>22.0</ele><time>2026-04-04T16:55:44Z</time></trkpt><trkpt lat="44.48261049403814" lon="11.620614903379774"><ele>22.0</ele><time>2026-04-04T16:55:45Z</time></trkpt><trkpt lat="44.48277536649536" lon="11.620740577828439"><ele>22.0</ele><time>2026-04-04T16:55:46Z</time></trkpt><trkpt lat="44.482944074819976" lon="11.620865363703224"><ele>22.0</ele><time>2026-04-04T16:55:47Z</time></trkpt><trkpt lat="44.48311490478657" lon="11.620989330387605"><ele>22.333333333333332</ele><time>2026-04-04T16:55:48Z</time></trkpt><trkpt lat="44.48329026386825" lon="11.621113419664526"><ele>22.666666666666668</ele><time>2026-04-04T16:55:49Z</time></trkpt><trkpt lat="44.483469643961946" lon="11.621234902637829"><ele>23.0</ele><time>2026-04-04T16:55:50Z</time></trkpt><trkpt lat="44.48365489290792" lon="11.621355332723072"><ele>23.0</ele><time>2026-04-04T16:55:51Z</time></trkpt><trkpt lat="44.48383669200483" lon="11.62146641093826"><ele>23.0</ele><time>2026-04-04T16:55:52Z</time></trkpt><trkpt lat="44.48401982939446" lon="11.621581422191266"><ele>23.0</ele><time>2026-04-04T16:55:53Z</time></trkpt><trkpt lat="44.48420271903947" lon="11.621696031066898"><ele>23.0</ele><time>2026-04-04T16:55:54Z</time></trkpt><trkpt lat="44.484387003811676" lon="11.62181241087631"><ele>23.0</ele><time>2026-04-04T16:55:55Z</time></trkpt><trkpt lat="44.48457319737139" lon="11.62193034502153"><ele>23.0</ele><time>2026-04-04T16:55:56Z</time></trkpt><trkpt lat="44.48476197949559" lon="11.622044875166626"><ele>22.0</ele><time>2026-04-04T16:55:57Z</time></trkpt><trkpt lat="44.48495031874816" lon="11.62216005566221"><ele>21.0</ele><time>2026-04-04T16:55:58Z</time></trkpt><trkpt lat="44.48514111410126" lon="11.622279797297496"><ele>20.0</ele><time>2026-04-04T16:55:59Z</time></trkpt><trkpt lat="44.48533060747498" lon="11.622399483731803"><ele>20.0</ele><time>2026-04-04T16:56:00Z</time></trkpt><trkpt lat="44.48551763073399" lon="11.622518464638448"><ele>20.0</ele><time>2026-04-04T16:56:01Z</time></trkpt><trkpt lat="44.48570524036199" lon="11.622634310933464"><ele>20.0</ele><time>2026-04-04T16:56:02Z</time></trkpt><trkpt lat="44.485897303028544" lon="11.622751250883761"><ele>20.333333333333336</ele><time>2026-04-04T16:56:03Z</time></trkpt><trkpt lat="44.486089003207326" lon="11.622870395497278"><ele>20.666666666666668</ele><time>2026-04-04T16:56:04Z</time></trkpt><trkpt lat="44.48627510272433" lon="11.622993082723875"><ele>21.0</ele><time>2026-04-04T16:56:05Z</time></trkpt><trkpt lat="44.48646297979273" lon="11.623114301335445"><ele>22.333333333333336</ele><time>2026-04-04T16:56:06Z</time></trkpt><trkpt lat="44.486642690641396" lon="11.623228575534233"><ele>23.666666666666668</ele><time>2026-04-04T16:56:07Z</time></trkpt><trkpt lat="44.48682453517301" lon="11.623349495681088"><ele>25.0</ele><time>2026-04-04T16:56:08Z</time></trkpt><trkpt lat="44.4870047925453" lon="11.623473535768623"><ele>23.666666666666668</ele><time>2026-04-04T16:56:09Z</time></trkpt><trkpt lat="44.487178943866624" lon="11.623593955703946"><ele>22.333333333333336</ele><time>2026-04-04T16:56:10Z</time></trkpt><trkpt lat="44.487356789261476" lon="11.623715184161037"><ele>21.0</ele><time>2026-04-04T16:56:11Z</time></trkpt><trkpt lat="44.48752264389244" lon="11.623829723667008"><ele>21.0</ele><time>2026-04-04T16:56:12Z</time></trkpt><trkpt lat="44.487693106370614" lon="11.623951750594857"><ele>21.0</ele><time>2026-04-04T16:56:13Z</time></trkpt><trkpt lat="44.487858115511074" lon="11.624060479792119"><ele>21.0</ele><time>2026-04-04T16:56:14Z</time></trkpt><trkpt lat="44.48802801648542" lon="11.624174733171051"><ele>20.666666666666668</ele><time>2026-04-04T16:56:15Z</time></trkpt><trkpt lat="44.488194475816826" lon="11.624288643962876"><ele>20.333333333333336</ele><time>2026-04-04T16:56:16Z</time></trkpt><trkpt lat="44.48836011911161" lon="11.624401497100182"><ele>20.0</ele><time>2026-04-04T16:56:17Z</time></trkpt><trkpt lat="44.4885311180949" lon="11.624518515215527"><ele>19.666666666666668</ele><time>2026-04-04T16:56:18Z</time></trkpt><trkpt lat="44.48871071027597" lon="11.62463803682202"><ele>19.333333333333332</ele><time>2026-04-04T16:56:19Z</time></trkpt><trkpt lat="44.488887803947065" lon="11.624759277709472"><ele>19.0</ele><time>2026-04-04T16:56:20Z</time></trkpt><trkpt lat="44.489067588724396" lon="11.624882842590747"><ele>19.0</ele><time>2026-04-04T16:56:21Z</time></trkpt><trkpt lat="44.48924778270321" lon="11.625007591377718"><ele>19.0</ele><time>2026-04-04T16:56:22Z</time></trkpt><trkpt lat="44.48943285622464" lon="11.625136167280088"><ele>19.0</ele><time>2026-04-04T16:56:23Z</time></trkpt><trkpt lat="44.48962485508375" lon="11.625267556440871"><ele>18.333333333333332</ele><time>2026-04-04T16:56:24Z</time></trkpt><trkpt lat="44.48981822480992" lon="11.625398014450798"><ele>17.666666666666668</ele><time>2026-04-04T16:56:25Z</time></trkpt><trkpt lat="44.490008093684494" lon="11.625527375137843"><ele>17.0</ele><time>2026-04-04T16:56:26Z</time></trkpt><trkpt lat="44.49019780844883" lon="11.6256577024675"><ele>17.0</ele><time>2026-04-04T16:56:27Z</time></trkpt><trkpt lat="44.49038863971355" lon="11.625786016691896"><ele>17.0</ele><time>2026-04-04T16:56:28Z</time></trkpt><trkpt lat="44.49057560300875" lon="11.625908930561724"><ele>17.0</ele><time>2026-04-04T16:56:29Z</time></trkpt><trkpt lat="44.49076306484466" lon="11.626029764830953"><ele>17.5</ele><time>2026-04-04T16:56:30Z</time></trkpt><trkpt lat="44.49095186177156" lon="11.626152544715683"><ele>18.0</ele><time>2026-04-04T16:56:31Z</time></trkpt><trkpt lat="44.49132563982657" lon="11.626382725729732"><ele>18.0</ele><time>2026-04-04T16:56:33Z</time></trkpt><trkpt lat="44.49151577287212" lon="11.626495093391888"><ele>18.0</ele><time>2026-04-04T16:56:34Z</time></trkpt><trkpt lat="44.49170173817506" lon="11.626598466845284"><ele>18.0</ele><time>2026-04-04T16:56:35Z</time></trkpt><trkpt lat="44.49188452132393" lon="11.626702154810712"><ele>18.0</ele><time>2026-04-04T16:56:36Z</time></trkpt><trkpt lat="44.49205908558654" lon="11.626815530062544"><ele>18.0</ele><time>2026-04-04T16:56:37Z</time></trkpt><trkpt lat="44.49223814788223" lon="11.626927538040709"><ele>18.0</ele><time>2026-04-04T16:56:38Z</time></trkpt><trkpt lat="44.492411885206415" lon="11.627033920510945"><ele>18.333333333333332</ele><time>2026-04-04T16:56:39Z</time></trkpt><trkpt lat="44.49259122195592" lon="11.62714255957618"><ele>18.666666666666664</ele><time>2026-04-04T16:56:40Z</time></trkpt><trkpt lat="44.49276930111137" lon="11.627250559088635"><ele>19.0</ele><time>2026-04-04T16:56:41Z</time></trkpt><trkpt lat="44.492945511649864" lon="11.62735941574708"><ele>18.0</ele><time>2026-04-04T16:56:42Z</time></trkpt><trkpt lat="44.49312020860296" lon="11.627466156363186"><ele>17.0</ele><time>2026-04-04T16:56:43Z</time></trkpt><trkpt lat="44.4932945422033" lon="11.627574566379415"><ele>16.0</ele><time>2026-04-04T16:56:44Z</time></trkpt><trkpt lat="44.4934791045093" lon="11.627685958160866"><ele>16.0</ele><time>2026-04-04T16:56:45Z</time></trkpt><trkpt lat="44.493648916908725" lon="11.627786472330882"><ele>16.0</ele><time>2026-04-04T16:56:46Z</time></trkpt><trkpt lat="44.49380463143376" lon="11.627883780048798"><ele>16.0</ele><time>2026-04-04T16:56:47Z</time></trkpt><trkpt lat="44.49395758421977" lon="11.62797714780669"><ele>15.5</ele><time>2026-04-04T16:56:48Z</time></trkpt><trkpt lat="44.4940966974452" lon="11.628061462559488"><ele>15.0</ele><time>2026-04-04T16:56:49Z</time></trkpt><trkpt lat="44.49423055845374" lon="11.628144397328354"><ele>14.5</ele><time>2026-04-04T16:56:50Z</time></trkpt><trkpt lat="44.494349648303405" lon="11.62822593055663"><ele>14.0</ele><time>2026-04-04T16:56:51Z</time></trkpt><trkpt lat="44.494457222053896" lon="11.62830826375008"><ele>14.0</ele><time>2026-04-04T16:56:52Z</time></trkpt><trkpt lat="44.494547724146656" lon="11.628410309308807"><ele>14.0</ele><time>2026-04-04T16:56:53Z</time></trkpt><trkpt lat="44.49459964517291" lon="11.62855972122805"><ele>14.0</ele><time>2026-04-04T16:56:54Z</time></trkpt><trkpt lat="44.49466169465775" lon="11.628704491433322"><ele>14.0</ele><time>2026-04-04T16:56:55Z</time></trkpt><trkpt lat="44.49468571442165" lon="11.62887712160488"><ele>14.25</ele><time>2026-04-04T16:56:56Z</time></trkpt><trkpt lat="44.494686334252116" lon="11.629056134826651"><ele>14.5</ele><time>2026-04-04T16:56:57Z</time></trkpt><trkpt lat="44.49463216543642" lon="11.629230522397389"><ele>14.75</ele><time>2026-04-04T16:56:58Z</time></trkpt><trkpt lat="44.49457487490162" lon="11.629395464556628"><ele>15.0</ele><time>2026-04-04T16:56:59Z</time></trkpt><trkpt lat="44.49449060615428" lon="11.629537554769442"><ele>15.25</ele><time>2026-04-04T16:57:00Z</time></trkpt><trkpt lat="44.49438541403681" lon="11.629642281082749"><ele>15.5</ele><time>2026-04-04T16:57:01Z</time></trkpt><trkpt lat="44.49426970097298" lon="11.629728075363957"><ele>15.75</ele><time>2026-04-04T16:57:02Z</time></trkpt><trkpt lat="44.49415499829711" lon="11.62980446531915"><ele>16.0</ele><time>2026-04-04T16:57:03Z</time></trkpt><trkpt lat="44.494028268869336" lon="11.629808831680522"><ele>16.0</ele><time>2026-04-04T16:57:04Z</time></trkpt><trkpt lat="44.493906034860785" lon="11.629775232066633"><ele>16.0</ele><time>2026-04-04T16:57:05Z</time></trkpt><trkpt lat="44.49379297466554" lon="11.629703463555314"><ele>16.0</ele><time>2026-04-04T16:57:06Z</time></trkpt><trkpt lat="44.49369118302915" lon="11.629595981708471"><ele>16.0</ele><time>2026-04-04T16:57:07Z</time></trkpt><trkpt lat="44.493603069262555" lon="11.629456247885258"><ele>16.0</ele><time>2026-04-04T16:57:08Z</time></trkpt><trkpt lat="44.493538619366795" lon="11.629287694959343"><ele>16.0</ele><time>2026-04-04T16:57:09.001Z</time></trkpt><trkpt lat="44.49350240943221" lon="11.62910304290686"><ele>16.0</ele><time>2026-04-04T16:57:10.001Z</time></trkpt><trkpt lat="44.493500261515535" lon="11.62890692861008"><ele>16.0</ele><time>2026-04-04T16:57:11.001Z</time></trkpt><trkpt lat="44.49352880979979" lon="11.628711093887395"><ele>16.25</ele><time>2026-04-04T16:57:12.001Z</time></trkpt><trkpt lat="44.49359394993938" lon="11.628540233264681"><ele>16.5</ele><time>2026-04-04T16:57:13.001Z</time></trkpt><trkpt lat="44.49366921793503" lon="11.628375854458394"><ele>16.75</ele><time>2026-04-04T16:57:14.001Z</time></trkpt><trkpt lat="44.49373884866153" lon="11.628197948255558"><ele>17.0</ele><time>2026-04-04T16:57:15.001Z</time></trkpt><trkpt lat="44.49380083565237" lon="11.628005764055727"><ele>16.333333333333336</ele><time>2026-04-04T16:57:16.001Z</time></trkpt><trkpt lat="44.49385912757622" lon="11.627801830971558"><ele>15.666666666666668</ele><time>2026-04-04T16:57:17.001Z</time></trkpt><trkpt lat="44.493939477672235" lon="11.627572756900403"><ele>15.0</ele><time>2026-04-04T16:57:18.001Z</time></trkpt><trkpt lat="44.49402411234748" lon="11.627315100229533"><ele>15.0</ele><time>2026-04-04T16:57:19.001Z</time></trkpt><trkpt lat="44.494133285341135" lon="11.627009067783831"><ele>15.0</ele><time>2026-04-04T16:57:20.001Z</time></trkpt><trkpt lat="44.49425024276546" lon="11.62669030846536"><ele>15.5</ele><time>2026-04-04T16:57:21.001Z</time></trkpt><trkpt lat="44.49435897916229" lon="11.626387881918719"><ele>16.0</ele><time>2026-04-04T16:57:22.001Z</time></trkpt><trkpt lat="44.494467839457826" lon="11.626082182613699"><ele>16.5</ele><time>2026-04-04T16:57:23.001Z</time></trkpt><trkpt lat="44.49459013610966" lon="11.625744717378671"><ele>17.0</ele><time>2026-04-04T16:57:24.001Z</time></trkpt><trkpt lat="44.4947103887698" lon="11.625416918795386"><ele>17.0</ele><time>2026-04-04T16:57:25.001Z</time></trkpt><trkpt lat="44.49482163335291" lon="11.625124429519836"><ele>17.0</ele><time>2026-04-04T16:57:26.001Z</time></trkpt><trkpt lat="44.49492693056962" lon="11.624850815414364"><ele>17.0</ele><time>2026-04-04T16:57:27.001Z</time></trkpt><trkpt lat="44.495030497835906" lon="11.62459401111862"><ele>17.0</ele><time>2026-04-04T16:57:28.001Z</time></trkpt><trkpt lat="44.49512826188443" lon="11.624355409324165"><ele>17.0</ele><time>2026-04-04T16:57:29.001Z</time></trkpt><trkpt lat="44.49522465125881" lon="11.624115133457899"><ele>16.666666666666668</ele><time>2026-04-04T16:57:30.001Z</time></trkpt><trkpt lat="44.49531820991275" lon="11.623873710125338"><ele>16.333333333333332</ele><time>2026-04-04T16:57:31.001Z</time></trkpt><trkpt lat="44.4954132345769" lon="11.62363197091197"><ele>16.0</ele><time>2026-04-04T16:57:32.001Z</time></trkpt><trkpt lat="44.49550658275489" lon="11.623391619663993"><ele>16.0</ele><time>2026-04-04T16:57:33.001Z</time></trkpt><trkpt lat="44.49559858155443" lon="11.623148004390407"><ele>16.0</ele><time>2026-04-04T16:57:34.001Z</time></trkpt><trkpt lat="44.4956925164342" lon="11.622906297740448"><ele>16.0</ele><time>2026-04-04T16:57:35.001Z</time></trkpt><trkpt lat="44.495784582925126" lon="11.622665929070438"><ele>16.0</ele><time>2026-04-04T16:57:36.001Z</time></trkpt><trkpt lat="44.495874571175044" lon="11.622439253780549"><ele>16.0</ele><time>2026-04-04T16:57:37.001Z</time></trkpt><trkpt lat="44.49596846916003" lon="11.622205147505083"><ele>16.0</ele><time>2026-04-04T16:57:38.001Z</time></trkpt><trkpt lat="44.496066550421816" lon="11.62195253801804"><ele>16.333333333333332</ele><time>2026-04-04T16:57:39.001Z</time></trkpt><trkpt lat="44.496160304641684" lon="11.621707871752964"><ele>16.666666666666668</ele><time>2026-04-04T16:57:40.001Z</time></trkpt><trkpt lat="44.49625899697379" lon="11.621456389294238"><ele>17.0</ele><time>2026-04-04T16:57:41.001Z</time></trkpt><trkpt lat="44.4963600419135" lon="11.621199763851527"><ele>16.666666666666668</ele><time>2026-04-04T16:57:42.001Z</time></trkpt><trkpt lat="44.49646599036522" lon="11.620933686163896"><ele>16.333333333333332</ele><time>2026-04-04T16:57:43.001Z</time></trkpt><trkpt lat="44.49656786734056" lon="11.620669505695156"><ele>16.0</ele><time>2026-04-04T16:57:44.001Z</time></trkpt><trkpt lat="44.49666415383717" lon="11.620416556542011"><ele>16.333333333333332</ele><time>2026-04-04T16:57:45.001Z</time></trkpt><trkpt lat="44.496764742538765" lon="11.620161298613388"><ele>16.666666666666668</ele><time>2026-04-04T16:57:46.001Z</time></trkpt><trkpt lat="44.49686830899766" lon="11.61991086084192"><ele>17.0</ele><time>2026-04-04T16:57:47.001Z</time></trkpt><trkpt lat="44.49696707359986" lon="11.619661893604952"><ele>17.333333333333336</ele><time>2026-04-04T16:57:48.001Z</time></trkpt><trkpt lat="44.4970647016682" lon="11.619409236589156"><ele>17.666666666666668</ele><time>2026-04-04T16:57:49Z</time></trkpt><trkpt lat="44.497161877795136" lon="11.619158525625224"><ele>18.0</ele><time>2026-04-04T16:57:50Z</time></trkpt><trkpt lat="44.49725979002721" lon="11.618910852909138"><ele>17.333333333333332</ele><time>2026-04-04T16:57:51Z</time></trkpt><trkpt lat="44.497357394987354" lon="11.6186596940569"><ele>16.666666666666664</ele><time>2026-04-04T16:57:52Z</time></trkpt><trkpt lat="44.49745798491331" lon="11.618400730012588"><ele>16.0</ele><time>2026-04-04T16:57:53Z</time></trkpt><trkpt lat="44.49755468477264" lon="11.61815529679581"><ele>15.5</ele><time>2026-04-04T16:57:54Z</time></trkpt><trkpt lat="44.497655291491256" lon="11.61790088807273"><ele>15.0</ele><time>2026-04-04T16:57:55Z</time></trkpt><trkpt lat="44.49785538028054" lon="11.617384835669633"><ele>15.0</ele><time>2026-04-04T16:57:57Z</time></trkpt><trkpt lat="44.49795064608051" lon="11.61713769833517"><ele>15.0</ele><time>2026-04-04T16:57:58Z</time></trkpt><trkpt lat="44.49804806115671" lon="11.61688958400441"><ele>15.0</ele><time>2026-04-04T16:57:59Z</time></trkpt><trkpt lat="44.498146239162985" lon="11.616638372690025"><ele>15.0</ele><time>2026-04-04T16:58:00Z</time></trkpt><trkpt lat="44.498240182879115" lon="11.616393690299311"><ele>15.0</ele><time>2026-04-04T16:58:01Z</time></trkpt><trkpt lat="44.498336779087204" lon="11.616148844150233"><ele>15.0</ele><time>2026-04-04T16:58:02Z</time></trkpt><trkpt lat="44.498433546297385" lon="11.615905478320126"><ele>15.666666666666668</ele><time>2026-04-04T16:58:03Z</time></trkpt><trkpt lat="44.49853115953014" lon="11.615657206132227"><ele>16.333333333333336</ele><time>2026-04-04T16:58:04Z</time></trkpt><trkpt lat="44.498625879112666" lon="11.615411848121951"><ele>17.0</ele><time>2026-04-04T16:58:05Z</time></trkpt><trkpt lat="44.498722249967386" lon="11.615165742723423"><ele>17.0</ele><time>2026-04-04T16:58:06Z</time></trkpt><trkpt lat="44.49881865474158" lon="11.614920059900564"><ele>17.0</ele><time>2026-04-04T16:58:07Z</time></trkpt><trkpt lat="44.498915582380356" lon="11.614674491359995"><ele>17.0</ele><time>2026-04-04T16:58:08Z</time></trkpt><trkpt lat="44.49901246065668" lon="11.614426106778279"><ele>17.333333333333336</ele><time>2026-04-04T16:58:09Z</time></trkpt><trkpt lat="44.49910996069131" lon="11.614175871446482"><ele>17.666666666666668</ele><time>2026-04-04T16:58:10Z</time></trkpt><trkpt lat="44.4992086349469" lon="11.613924994036653"><ele>18.0</ele><time>2026-04-04T16:58:11Z</time></trkpt><trkpt lat="44.499306147118496" lon="11.61368019290808"><ele>17.666666666666668</ele><time>2026-04-04T16:58:12Z</time></trkpt><trkpt lat="44.49939902690803" lon="11.613446745131569"><ele>17.333333333333336</ele><time>2026-04-04T16:58:13Z</time></trkpt><trkpt lat="44.499486974524345" lon="11.613230971971685"><ele>17.0</ele><time>2026-04-04T16:58:14Z</time></trkpt><trkpt lat="44.49956937372277" lon="11.61302471325462"><ele>17.333333333333336</ele><time>2026-04-04T16:58:15Z</time></trkpt><trkpt lat="44.499645485645054" lon="11.612835089001768"><ele>17.666666666666668</ele><time>2026-04-04T16:58:16Z</time></trkpt><trkpt lat="44.499718807652926" lon="11.612647929362037"><ele>18.0</ele><time>2026-04-04T16:58:17Z</time></trkpt><trkpt lat="44.49979289277759" lon="11.612460383071571"><ele>18.0</ele><time>2026-04-04T16:58:18Z</time></trkpt><trkpt lat="44.49986645917086" lon="11.612277159131802"><ele>18.0</ele><time>2026-04-04T16:58:19Z</time></trkpt><trkpt lat="44.499938847317196" lon="11.612093338591126"><ele>18.0</ele><time>2026-04-04T16:58:20Z</time></trkpt><trkpt lat="44.50001309217904" lon="11.611902724082597"><ele>18.0</ele><time>2026-04-04T16:58:21Z</time></trkpt><trkpt lat="44.50008651219557" lon="11.611715897551312"><ele>18.0</ele><time>2026-04-04T16:58:22Z</time></trkpt><trkpt lat="44.50015934337683" lon="11.611533408160586"><ele>18.0</ele><time>2026-04-04T16:58:23Z</time></trkpt><trkpt lat="44.50022974960055" lon="11.611367090255618"><ele>18.0</ele><time>2026-04-04T16:58:24Z</time></trkpt><trkpt lat="44.50029633949885" lon="11.611215867584978"><ele>18.0</ele><time>2026-04-04T16:58:25Z</time></trkpt><trkpt lat="44.50036095396456" lon="11.611075554031826"><ele>18.0</ele><time>2026-04-04T16:58:26Z</time></trkpt><trkpt lat="44.50042498425264" lon="11.610942999146104"><ele>18.0</ele><time>2026-04-04T16:58:27Z</time></trkpt><trkpt lat="44.50049582282423" lon="11.610815712711469"><ele>18.0</ele><time>2026-04-04T16:58:28Z</time></trkpt><trkpt lat="44.50057475496619" lon="11.610697063037474"><ele>17.8</ele><time>2026-04-04T16:58:29Z</time></trkpt><trkpt lat="44.500659152392736" lon="11.610597081029159"><ele>17.6</ele><time>2026-04-04T16:58:30Z</time></trkpt><trkpt lat="44.500744274902225" lon="11.610521105698549"><ele>17.4</ele><time>2026-04-04T16:58:31Z</time></trkpt><trkpt lat="44.50081871124231" lon="11.610429016467528"><ele>17.2</ele><time>2026-04-04T16:58:32Z</time></trkpt><trkpt lat="44.50094601271569" lon="11.610414863907817"><ele>17.0</ele><time>2026-04-04T16:58:33Z</time></trkpt><trkpt lat="44.50107850735097" lon="11.610452775306983"><ele>17.0</ele><time>2026-04-04T16:58:34Z</time></trkpt><trkpt lat="44.50121063671066" lon="11.61048904366422"><ele>17.0</ele><time>2026-04-04T16:58:35Z</time></trkpt><trkpt lat="44.50133824558606" lon="11.610478970950094"><ele>17.0</ele><time>2026-04-04T16:58:36Z</time></trkpt><trkpt lat="44.50145925238271" lon="11.610666710205003"><ele>17.0</ele><time>2026-04-04T16:58:37Z</time></trkpt><trkpt lat="44.50156767284384" lon="11.610797083663444"><ele>17.333333333333336</ele><time>2026-04-04T16:58:38Z</time></trkpt><trkpt lat="44.50167557345732" lon="11.61094982898093"><ele>17.666666666666668</ele><time>2026-04-04T16:58:39Z</time></trkpt><trkpt lat="44.50178116543454" lon="11.611122491692427"><ele>18.0</ele><time>2026-04-04T16:58:40Z</time></trkpt><trkpt lat="44.50187610981729" lon="11.611306044287534"><ele>18.333333333333332</ele><time>2026-04-04T16:58:41Z</time></trkpt><trkpt lat="44.50197331213971" lon="11.611490921586503"><ele>18.666666666666664</ele><time>2026-04-04T16:58:42Z</time></trkpt><trkpt lat="44.502080050402384" lon="11.611677244233963"><ele>19.0</ele><time>2026-04-04T16:58:43Z</time></trkpt><trkpt lat="44.50219719522065" lon="11.611866364297782"><ele>18.0</ele><time>2026-04-04T16:58:44Z</time></trkpt><trkpt lat="44.5023160461508" lon="11.6120526743658"><ele>17.0</ele><time>2026-04-04T16:58:45Z</time></trkpt><trkpt lat="44.50243382577506" lon="11.612242670793524"><ele>16.0</ele><time>2026-04-04T16:58:46Z</time></trkpt><trkpt lat="44.502552898314846" lon="11.6124354172052"><ele>16.0</ele><time>2026-04-04T16:58:47Z</time></trkpt><trkpt lat="44.502666064103785" lon="11.612625212052484"><ele>16.0</ele><time>2026-04-04T16:58:48Z</time></trkpt><trkpt lat="44.502780559884826" lon="11.612821677363186"><ele>16.0</ele><time>2026-04-04T16:58:49Z</time></trkpt><trkpt lat="44.502891327274625" lon="11.613034425996261"><ele>16.666666666666664</ele><time>2026-04-04T16:58:50Z</time></trkpt><trkpt lat="44.50299936454129" lon="11.613251926966266"><ele>17.333333333333332</ele><time>2026-04-04T16:58:51Z</time></trkpt><trkpt lat="44.503107187548615" lon="11.613464131211112"><ele>18.0</ele><time>2026-04-04T16:58:52Z</time></trkpt><trkpt lat="44.50320944200979" lon="11.613659373088044"><ele>18.0</ele><time>2026-04-04T16:58:53Z</time></trkpt><trkpt lat="44.5033058971775" lon="11.61384359220664"><ele>18.0</ele><time>2026-04-04T16:58:54Z</time></trkpt><trkpt lat="44.50339095542536" lon="11.61400807421251"><ele>18.0</ele><time>2026-04-04T16:58:55Z</time></trkpt><trkpt lat="44.50346096130061" lon="11.614183850528503"><ele>18.0</ele><time>2026-04-04T16:58:56Z</time></trkpt><trkpt lat="44.50353907049473" lon="11.614330931006252"><ele>18.0</ele><time>2026-04-04T16:58:57Z</time></trkpt><trkpt lat="44.503603044235824" lon="11.614477038175584"><ele>18.0</ele><time>2026-04-04T16:58:58Z</time></trkpt><trkpt lat="44.503657141783776" lon="11.614616786326094"><ele>18.0</ele><time>2026-04-04T16:58:59Z</time></trkpt><trkpt lat="44.503718416630186" lon="11.614751853435688"><ele>17.75</ele><time>2026-04-04T16:59:00Z</time></trkpt><trkpt lat="44.50379250767624" lon="11.614887830304253"><ele>17.5</ele><time>2026-04-04T16:59:01Z</time></trkpt><trkpt lat="44.50388646182341" lon="11.615014644249083"><ele>17.25</ele><time>2026-04-04T16:59:02Z</time></trkpt><trkpt lat="44.50401214393753" lon="11.615124033904296"><ele>17.0</ele><time>2026-04-04T16:59:03Z</time></trkpt><trkpt lat="44.504158895533955" lon="11.615219178995227"><ele>17.0</ele><time>2026-04-04T16:59:04Z</time></trkpt><trkpt lat="44.50430742515667" lon="11.615315121715666"><ele>17.0</ele><time>2026-04-04T16:59:05Z</time></trkpt><trkpt lat="44.50446250341738" lon="11.615424803688613"><ele>17.0</ele><time>2026-04-04T16:59:06Z</time></trkpt><trkpt lat="44.504619330078434" lon="11.615537409743785"><ele>17.0</ele><time>2026-04-04T16:59:07Z</time></trkpt><trkpt lat="44.50480413126957" lon="11.615650246166703"><ele>17.0</ele><time>2026-04-04T16:59:08Z</time></trkpt><trkpt lat="44.50500460896799" lon="11.615743471321029"><ele>17.0</ele><time>2026-04-04T16:59:09Z</time></trkpt><trkpt lat="44.50518052167312" lon="11.615817487185891"><ele>17.0</ele><time>2026-04-04T16:59:10Z</time></trkpt><trkpt lat="44.50534103825543" lon="11.615892878620045"><ele>17.0</ele><time>2026-04-04T16:59:11Z</time></trkpt><trkpt lat="44.505488708338206" lon="11.615965930679431"><ele>17.0</ele><time>2026-04-04T16:59:12Z</time></trkpt><trkpt lat="44.505637395055444" lon="11.616033828284085"><ele>17.0</ele><time>2026-04-04T16:59:13Z</time></trkpt><trkpt lat="44.505782681076326" lon="11.61611255739462"><ele>17.0</ele><time>2026-04-04T16:59:14Z</time></trkpt><trkpt lat="44.50592827546077" lon="11.616186191084713"><ele>17.0</ele><time>2026-04-04T16:59:15Z</time></trkpt><trkpt lat="44.50607933957779" lon="11.616252935684592"><ele>17.333333333333336</ele><time>2026-04-04T16:59:16Z</time></trkpt><trkpt lat="44.50623436445004" lon="11.616325549698963"><ele>17.666666666666668</ele><time>2026-04-04T16:59:17Z</time></trkpt><trkpt lat="44.50638896455737" lon="11.616402738607448"><ele>18.0</ele><time>2026-04-04T16:59:18.001Z</time></trkpt><trkpt lat="44.50653766625918" lon="11.616482130835104"><ele>17.333333333333332</ele><time>2026-04-04T16:59:19.001Z</time></trkpt><trkpt lat="44.506675842470216" lon="11.616562328930945"><ele>16.666666666666664</ele><time>2026-04-04T16:59:20.001Z</time></trkpt><trkpt lat="44.50681492823156" lon="11.616644722954078"><ele>16.0</ele><time>2026-04-04T16:59:21.001Z</time></trkpt><trkpt lat="44.506961168384244" lon="11.616726972060258"><ele>16.0</ele><time>2026-04-04T16:59:22.001Z</time></trkpt><trkpt lat="44.50711277122226" lon="11.616809077920427"><ele>16.0</ele><time>2026-04-04T16:59:23.001Z</time></trkpt><trkpt lat="44.50726919030044" lon="11.61689361350916"><ele>16.0</ele><time>2026-04-04T16:59:24.001Z</time></trkpt><trkpt lat="44.50742807877698" lon="11.61698064976674"><ele>16.0</ele><time>2026-04-04T16:59:25.001Z</time></trkpt><trkpt lat="44.50758899064564" lon="11.617065091843852"><ele>16.0</ele><time>2026-04-04T16:59:26.001Z</time></trkpt><trkpt lat="44.5077500684442" lon="11.61714829462386"><ele>16.0</ele><time>2026-04-04T16:59:27.001Z</time></trkpt><trkpt lat="44.50791580122289" lon="11.617239954777213"><ele>16.333333333333332</ele><time>2026-04-04T16:59:28.001Z</time></trkpt><trkpt lat="44.50808419295371" lon="11.617337964626758"><ele>16.666666666666668</ele><time>2026-04-04T16:59:29.001Z</time></trkpt><trkpt lat="44.50824407944804" lon="11.617427551648243"><ele>17.0</ele><time>2026-04-04T16:59:30.001Z</time></trkpt><trkpt lat="44.50854649399395" lon="11.617595291066205"><ele>17.0</ele><time>2026-04-04T16:59:32.001Z</time></trkpt><trkpt lat="44.50869828383197" lon="11.617677165851646"><ele>17.0</ele><time>2026-04-04T16:59:33.001Z</time></trkpt><trkpt lat="44.50885065747333" lon="11.61775022586478"><ele>17.0</ele><time>2026-04-04T16:59:34.001Z</time></trkpt><trkpt lat="44.509014502803915" lon="11.61780568827937"><ele>17.0</ele><time>2026-04-04T16:59:35.001Z</time></trkpt><trkpt lat="44.50917696240847" lon="11.617837893520006"><ele>17.0</ele><time>2026-04-04T16:59:36.001Z</time></trkpt><trkpt lat="44.509336998796066" lon="11.617861742387051"><ele>17.0</ele><time>2026-04-04T16:59:37.001Z</time></trkpt><trkpt lat="44.509498768435726" lon="11.617869949907014"><ele>16.333333333333336</ele><time>2026-04-04T16:59:38.001Z</time></trkpt><trkpt lat="44.50965785936913" lon="11.617868346269361"><ele>15.666666666666668</ele><time>2026-04-04T16:59:39.001Z</time></trkpt><trkpt lat="44.509821326288304" lon="11.617868339870041"><ele>15.0</ele><time>2026-04-04T16:59:40.001Z</time></trkpt><trkpt lat="44.50996683319528" lon="11.617848972177226"><ele>15.0</ele><time>2026-04-04T16:59:41.001Z</time></trkpt><trkpt lat="44.510112331632236" lon="11.61783003380201"><ele>15.0</ele><time>2026-04-04T16:59:42.001Z</time></trkpt><trkpt lat="44.51026053166745" lon="11.617787531730261"><ele>15.0</ele><time>2026-04-04T16:59:43.001Z</time></trkpt><trkpt lat="44.510409993539334" lon="11.617733844694099"><ele>15.333333333333332</ele><time>2026-04-04T16:59:44.001Z</time></trkpt><trkpt lat="44.51055480683276" lon="11.617673162555162"><ele>15.666666666666666</ele><time>2026-04-04T16:59:45.001Z</time></trkpt><trkpt lat="44.51069918761561" lon="11.61760205111858"><ele>16.0</ele><time>2026-04-04T16:59:46.001Z</time></trkpt><trkpt lat="44.51084857075768" lon="11.617527291609852"><ele>16.0</ele><time>2026-04-04T16:59:47.001Z</time></trkpt><trkpt lat="44.51100250620829" lon="11.617462172751319"><ele>16.0</ele><time>2026-04-04T16:59:48.001Z</time></trkpt><trkpt lat="44.511160583577194" lon="11.617401925703613"><ele>16.0</ele><time>2026-04-04T16:59:49.001Z</time></trkpt><trkpt lat="44.51132074779593" lon="11.617347150152431"><ele>16.333333333333332</ele><time>2026-04-04T16:59:50.001Z</time></trkpt><trkpt lat="44.511484870193044" lon="11.617315350081649"><ele>16.666666666666668</ele><time>2026-04-04T16:59:51.001Z</time></trkpt><trkpt lat="44.51165095994611" lon="11.617303155052614"><ele>17.0</ele><time>2026-04-04T16:59:52.001Z</time></trkpt><trkpt lat="44.51181434676945" lon="11.617301398689944"><ele>17.0</ele><time>2026-04-04T16:59:53.001Z</time></trkpt><trkpt lat="44.511978183637055" lon="11.617314710171645"><ele>17.0</ele><time>2026-04-04T16:59:54.001Z</time></trkpt><trkpt lat="44.512140916319325" lon="11.617341449658579"><ele>17.0</ele><time>2026-04-04T16:59:55Z</time></trkpt><trkpt lat="44.51230530117368" lon="11.61737657839978"><ele>16.666666666666668</ele><time>2026-04-04T16:59:56Z</time></trkpt><trkpt lat="44.51247405884862" lon="11.617423686654826"><ele>16.333333333333332</ele><time>2026-04-04T16:59:57Z</time></trkpt><trkpt lat="44.51264669822968" lon="11.617489886085853"><ele>16.0</ele><time>2026-04-04T16:59:58Z</time></trkpt><trkpt lat="44.512815568411426" lon="11.617565869876358"><ele>15.666666666666666</ele><time>2026-04-04T16:59:59Z</time></trkpt><trkpt lat="44.51298297739949" lon="11.617667347598333"><ele>15.333333333333332</ele><time>2026-04-04T17:00:00Z</time></trkpt><trkpt lat="44.51315659643698" lon="11.617774698369722"><ele>15.0</ele><time>2026-04-04T17:00:01Z</time></trkpt><trkpt lat="44.51332875072743" lon="11.617881969360724"><ele>14.666666666666668</ele><time>2026-04-04T17:00:02Z</time></trkpt><trkpt lat="44.51350542524827" lon="11.617979536162096"><ele>14.333333333333334</ele><time>2026-04-04T17:00:03Z</time></trkpt><trkpt lat="44.51368145744616" lon="11.618074297444506"><ele>14.0</ele><time>2026-04-04T17:00:04Z</time></trkpt><trkpt lat="44.51386657499298" lon="11.618167519747953"><ele>14.0</ele><time>2026-04-04T17:00:05Z</time></trkpt><trkpt lat="44.51405763775313" lon="11.618253215939154"><ele>14.0</ele><time>2026-04-04T17:00:06Z</time></trkpt><trkpt lat="44.51425577135429" lon="11.618331182846783"><ele>14.0</ele><time>2026-04-04T17:00:07Z</time></trkpt><trkpt lat="44.5144399367015" lon="11.618387289509027"><ele>14.333333333333334</ele><time>2026-04-04T17:00:08Z</time></trkpt><trkpt lat="44.51460788486274" lon="11.61843272928646"><ele>14.666666666666668</ele><time>2026-04-04T17:00:09Z</time></trkpt><trkpt lat="44.51476851675323" lon="11.618466707775507"><ele>15.0</ele><time>2026-04-04T17:00:10Z</time></trkpt><trkpt lat="44.51492937590271" lon="11.618508198572956"><ele>15.0</ele><time>2026-04-04T17:00:11Z</time></trkpt><trkpt lat="44.51508909219521" lon="11.618568509589972"><ele>15.0</ele><time>2026-04-04T17:00:12Z</time></trkpt><trkpt lat="44.51524160629718" lon="11.61864460895213"><ele>15.0</ele><time>2026-04-04T17:00:13Z</time></trkpt><trkpt lat="44.51539398579978" lon="11.618728428256057"><ele>14.0</ele><time>2026-04-04T17:00:14Z</time></trkpt><trkpt lat="44.51555272458169" lon="11.61882115197978"><ele>13.0</ele><time>2026-04-04T17:00:15Z</time></trkpt><trkpt lat="44.515709804944834" lon="11.618927092616897"><ele>12.0</ele><time>2026-04-04T17:00:16Z</time></trkpt><trkpt lat="44.51587491549575" lon="11.619046324811608"><ele>12.0</ele><time>2026-04-04T17:00:17Z</time></trkpt><trkpt lat="44.51604654317083" lon="11.619186343503571"><ele>12.0</ele><time>2026-04-04T17:00:18Z</time></trkpt><trkpt lat="44.516220168767" lon="11.619335642221447"><ele>12.0</ele><time>2026-04-04T17:00:19Z</time></trkpt><trkpt lat="44.51638393234294" lon="11.619470791092043"><ele>12.333333333333332</ele><time>2026-04-04T17:00:20Z</time></trkpt><trkpt lat="44.516550168258505" lon="11.619599981956338"><ele>12.666666666666666</ele><time>2026-04-04T17:00:21Z</time></trkpt><trkpt lat="44.51671407424653" lon="11.619707119786781"><ele>13.0</ele><time>2026-04-04T17:00:22Z</time></trkpt><trkpt lat="44.5168797588262" lon="11.619799118814722"><ele>13.0</ele><time>2026-04-04T17:00:23Z</time></trkpt><trkpt lat="44.51704951513265" lon="11.619883430682073"><ele>13.0</ele><time>2026-04-04T17:00:24Z</time></trkpt><trkpt lat="44.51722212845944" lon="11.619967866164819"><ele>13.0</ele><time>2026-04-04T17:00:25Z</time></trkpt><trkpt lat="44.5173862718366" lon="11.620066072579133"><ele>12.666666666666666</ele><time>2026-04-04T17:00:26Z</time></trkpt><trkpt lat="44.5175582384299" lon="11.620176239046057"><ele>12.333333333333332</ele><time>2026-04-04T17:00:27Z</time></trkpt><trkpt lat="44.51772224639267" lon="11.620292851710296"><ele>12.0</ele><time>2026-04-04T17:00:28Z</time></trkpt><trkpt lat="44.51788674355197" lon="11.620407587953332"><ele>11.666666666666666</ele><time>2026-04-04T17:00:29Z</time></trkpt><trkpt lat="44.51805403148135" lon="11.620517271436668"><ele>11.333333333333332</ele><time>2026-04-04T17:00:30Z</time></trkpt><trkpt lat="44.51821874834416" lon="11.62061781889934"><ele>11.0</ele><time>2026-04-04T17:00:31Z</time></trkpt><trkpt lat="44.518382228364814" lon="11.620718828183907"><ele>11.0</ele><time>2026-04-04T17:00:32Z</time></trkpt><trkpt lat="44.518544606017095" lon="11.620821416695646"><ele>11.0</ele><time>2026-04-04T17:00:33Z</time></trkpt><trkpt lat="44.51869891403322" lon="11.62092051524004"><ele>11.0</ele><time>2026-04-04T17:00:34Z</time></trkpt><trkpt lat="44.51884784967841" lon="11.62101631349676"><ele>11.666666666666666</ele><time>2026-04-04T17:00:35Z</time></trkpt><trkpt lat="44.51899951645189" lon="11.621108909099283"><ele>12.333333333333332</ele><time>2026-04-04T17:00:36Z</time></trkpt><trkpt lat="44.519153741515375" lon="11.621204604867337"><ele>13.0</ele><time>2026-04-04T17:00:37Z</time></trkpt><trkpt lat="44.51931438235612" lon="11.621293559599659"><ele>13.0</ele><time>2026-04-04T17:00:38Z</time></trkpt><trkpt lat="44.519486806475115" lon="11.62137783032018"><ele>13.0</ele><time>2026-04-04T17:00:39Z</time></trkpt><trkpt lat="44.51965657817189" lon="11.621451399611825"><ele>13.0</ele><time>2026-04-04T17:00:40Z</time></trkpt><trkpt lat="44.519826278291056" lon="11.621521710123522"><ele>12.666666666666666</ele><time>2026-04-04T17:00:41Z</time></trkpt><trkpt lat="44.519996790302976" lon="11.621583604665368"><ele>12.333333333333332</ele><time>2026-04-04T17:00:42Z</time></trkpt><trkpt lat="44.520162286174354" lon="11.621642573343605"><ele>12.0</ele><time>2026-04-04T17:00:43Z</time></trkpt><trkpt lat="44.52032418184951" lon="11.621693503079474"><ele>12.333333333333332</ele><time>2026-04-04T17:00:44Z</time></trkpt><trkpt lat="44.520484896430226" lon="11.62172923676515"><ele>12.666666666666666</ele><time>2026-04-04T17:00:45Z</time></trkpt><trkpt lat="44.52064361624423" lon="11.621746279853951"><ele>13.0</ele><time>2026-04-04T17:00:46Z</time></trkpt><trkpt lat="44.52080738811212" lon="11.621762839468694"><ele>13.0</ele><time>2026-04-04T17:00:47Z</time></trkpt><trkpt lat="44.52097396392709" lon="11.62177223192951"><ele>13.0</ele><time>2026-04-04T17:00:48Z</time></trkpt><trkpt lat="44.52114600435278" lon="11.621778690558704"><ele>13.0</ele><time>2026-04-04T17:00:49Z</time></trkpt><trkpt lat="44.521314911015075" lon="11.62178470362617"><ele>12.0</ele><time>2026-04-04T17:00:50Z</time></trkpt><trkpt lat="44.52148424415199" lon="11.62179325164663"><ele>11.0</ele><time>2026-04-04T17:00:51Z</time></trkpt><trkpt lat="44.52165680692933" lon="11.6218000843193"><ele>10.0</ele><time>2026-04-04T17:00:52Z</time></trkpt><trkpt lat="44.52183388503241" lon="11.621818239208677"><ele>10.0</ele><time>2026-04-04T17:00:53Z</time></trkpt><trkpt lat="44.522008133651156" lon="11.621845264278715"><ele>10.0</ele><time>2026-04-04T17:00:54Z</time></trkpt><trkpt lat="44.52217985779679" lon="11.621883763989564"><ele>10.0</ele><time>2026-04-04T17:00:55Z</time></trkpt><trkpt lat="44.522354107706505" lon="11.62192109299593"><ele>10.666666666666668</ele><time>2026-04-04T17:00:56Z</time></trkpt><trkpt lat="44.522521888061384" lon="11.621957067212197"><ele>11.333333333333334</ele><time>2026-04-04T17:00:57Z</time></trkpt><trkpt lat="44.522696118925744" lon="11.621990604865916"><ele>12.0</ele><time>2026-04-04T17:00:58Z</time></trkpt><trkpt lat="44.52286842168869" lon="11.622029848137698"><ele>12.333333333333332</ele><time>2026-04-04T17:00:59Z</time></trkpt><trkpt lat="44.52304145569733" lon="11.622078078016237"><ele>12.666666666666666</ele><time>2026-04-04T17:01:00Z</time></trkpt><trkpt lat="44.52321976776676" lon="11.622132709375713"><ele>13.0</ele><time>2026-04-04T17:01:01Z</time></trkpt><trkpt lat="44.523393355298694" lon="11.62218662980658"><ele>13.0</ele><time>2026-04-04T17:01:02Z</time></trkpt><trkpt lat="44.52356878642685" lon="11.622237847343673"><ele>13.0</ele><time>2026-04-04T17:01:03Z</time></trkpt><trkpt lat="44.52374521408005" lon="11.622287334473482"><ele>13.0</ele><time>2026-04-04T17:01:04Z</time></trkpt><trkpt lat="44.52391756671824" lon="11.622335800159984"><ele>12.666666666666666</ele><time>2026-04-04T17:01:05Z</time></trkpt><trkpt lat="44.52409204265933" lon="11.622386951378548"><ele>12.333333333333332</ele><time>2026-04-04T17:01:06Z</time></trkpt><trkpt lat="44.52426359471433" lon="11.62243829427423"><ele>12.0</ele><time>2026-04-04T17:01:07Z</time></trkpt><trkpt lat="44.52443067890845" lon="11.622498638860463"><ele>12.0</ele><time>2026-04-04T17:01:08Z</time></trkpt><trkpt lat="44.5245839902212" lon="11.622556727840324"><ele>12.0</ele><time>2026-04-04T17:01:09Z</time></trkpt><trkpt lat="44.52472350106498" lon="11.622608502622958"><ele>12.0</ele><time>2026-04-04T17:01:10Z</time></trkpt><trkpt lat="44.52485482264978" lon="11.622657918942139"><ele>12.0</ele><time>2026-04-04T17:01:11Z</time></trkpt><trkpt lat="44.52498226685142" lon="11.622707585197581"><ele>12.0</ele><time>2026-04-04T17:01:12Z</time></trkpt><trkpt lat="44.52511068271376" lon="11.622754629408162"><ele>12.0</ele><time>2026-04-04T17:01:13Z</time></trkpt><trkpt lat="44.52524793535517" lon="11.622805832489654"><ele>12.0</ele><time>2026-04-04T17:01:14Z</time></trkpt><trkpt lat="44.52538898558834" lon="11.622860787790623"><ele>12.0</ele><time>2026-04-04T17:01:15Z</time></trkpt><trkpt lat="44.525535257873315" lon="11.622918412478523"><ele>11.666666666666666</ele><time>2026-04-04T17:01:16Z</time></trkpt><trkpt lat="44.525678886260685" lon="11.622974514178589"><ele>11.333333333333332</ele><time>2026-04-04T17:01:17Z</time></trkpt><trkpt lat="44.525827851521534" lon="11.62303299137831"><ele>11.0</ele><time>2026-04-04T17:01:18Z</time></trkpt><trkpt lat="44.52598183286636" lon="11.623094295472363"><ele>11.0</ele><time>2026-04-04T17:01:19Z</time></trkpt><trkpt lat="44.52612756284461" lon="11.623152970073829"><ele>11.0</ele><time>2026-04-04T17:01:20Z</time></trkpt><trkpt lat="44.526259744483866" lon="11.623203400695417"><ele>11.0</ele><time>2026-04-04T17:01:21Z</time></trkpt><trkpt lat="44.52637941275193" lon="11.623249909634229"><ele>11.0</ele><time>2026-04-04T17:01:22Z</time></trkpt><trkpt lat="44.52649012032937" lon="11.623293115484621"><ele>11.0</ele><time>2026-04-04T17:01:23Z</time></trkpt><trkpt lat="44.526593718559866" lon="11.62333796420471"><ele>11.0</ele><time>2026-04-04T17:01:24.001Z</time></trkpt><trkpt lat="44.526702481195485" lon="11.623382480521585"><ele>11.0</ele><time>2026-04-04T17:01:25.001Z</time></trkpt><trkpt lat="44.526812727839896" lon="11.623428627527227"><ele>11.0</ele><time>2026-04-04T17:01:26.001Z</time></trkpt><trkpt lat="44.526919544702984" lon="11.623473921864731"><ele>11.0</ele><time>2026-04-04T17:01:27.001Z</time></trkpt><trkpt lat="44.527018191062254" lon="11.623514949756242"><ele>11.0</ele><time>2026-04-04T17:01:28.001Z</time></trkpt><trkpt lat="44.52711665859024" lon="11.62355615285839"><ele>11.0</ele><time>2026-04-04T17:01:29.001Z</time></trkpt><trkpt lat="44.52722380161801" lon="11.623595307162168"><ele>11.0</ele><time>2026-04-04T17:01:30.001Z</time></trkpt><trkpt lat="44.52733770430001" lon="11.623641774748457"><ele>11.0</ele><time>2026-04-04T17:01:31.001Z</time></trkpt><trkpt lat="44.52746014374017" lon="11.623688706614367"><ele>11.0</ele><time>2026-04-04T17:01:32.001Z</time></trkpt><trkpt lat="44.52759616195791" lon="11.623738055744923"><ele>11.0</ele><time>2026-04-04T17:01:33.001Z</time></trkpt><trkpt lat="44.52773373228051" lon="11.623777975857228"><ele>11.0</ele><time>2026-04-04T17:01:34.001Z</time></trkpt><trkpt lat="44.527857328723194" lon="11.623831970519813"><ele>11.0</ele><time>2026-04-04T17:01:35.001Z</time></trkpt><trkpt lat="44.52799806043554" lon="11.623886177700204"><ele>10.666666666666666</ele><time>2026-04-04T17:01:36.001Z</time></trkpt><trkpt lat="44.5281592331015" lon="11.623934914285122"><ele>10.333333333333334</ele><time>2026-04-04T17:01:37.001Z</time></trkpt><trkpt lat="44.52832029747521" lon="11.623974182242014"><ele>10.0</ele><time>2026-04-04T17:01:38.001Z</time></trkpt><trkpt lat="44.52848315372675" lon="11.624003277929631"><ele>10.0</ele><time>2026-04-04T17:01:39.001Z</time></trkpt><trkpt lat="44.528637460061134" lon="11.624032795790564"><ele>10.0</ele><time>2026-04-04T17:01:40.001Z</time></trkpt><trkpt lat="44.52878176168937" lon="11.624058876818067"><ele>10.0</ele><time>2026-04-04T17:01:41.001Z</time></trkpt><trkpt lat="44.52891394655356" lon="11.624079066345644"><ele>10.0</ele><time>2026-04-04T17:01:42.001Z</time></trkpt><trkpt lat="44.529044125301596" lon="11.624083705749237"><ele>9.75</ele><time>2026-04-04T17:01:43.001Z</time></trkpt><trkpt lat="44.52917243530992" lon="11.62407237884267"><ele>9.5</ele><time>2026-04-04T17:01:44.001Z</time></trkpt><trkpt lat="44.52930168235474" lon="11.624054700768012"><ele>9.25</ele><time>2026-04-04T17:01:45.001Z</time></trkpt><trkpt lat="44.529430996789976" lon="11.624041281090724"><ele>9.0</ele><time>2026-04-04T17:01:46.001Z</time></trkpt><trkpt lat="44.52954578460371" lon="11.624033578746458"><ele>9.6</ele><time>2026-04-04T17:01:47.001Z</time></trkpt><trkpt lat="44.52965322627945" lon="11.624033720353511"><ele>10.2</ele><time>2026-04-04T17:01:48.001Z</time></trkpt><trkpt lat="44.5297531059016" lon="11.62404170943849"><ele>10.799999999999999</ele><time>2026-04-04T17:01:49.001Z</time></trkpt><trkpt lat="44.529845199663626" lon="11.62405209652115"><ele>11.4</ele><time>2026-04-04T17:01:50.001Z</time></trkpt><trkpt lat="44.529922815444614" lon="11.624064345166538"><ele>12.0</ele><time>2026-04-04T17:01:51.001Z</time></trkpt><trkpt lat="44.52999611740765" lon="11.624077433102263"><ele>12.0</ele><time>2026-04-04T17:01:52.001Z</time></trkpt><trkpt lat="44.53006954917668" lon="11.62409355050223"><ele>12.0</ele><time>2026-04-04T17:01:53.001Z</time></trkpt><trkpt lat="44.53014054280354" lon="11.624111963384786"><ele>12.0</ele><time>2026-04-04T17:01:54.001Z</time></trkpt><trkpt lat="44.53022196698657" lon="11.624137928746126"><ele>12.0</ele><time>2026-04-04T17:01:55.001Z</time></trkpt><trkpt lat="44.5303242178227" lon="11.624160204844166"><ele>12.0</ele><time>2026-04-04T17:01:56.001Z</time></trkpt><trkpt lat="44.530430105126165" lon="11.62419180311614"><ele>12.0</ele><time>2026-04-04T17:01:57.001Z</time></trkpt><trkpt lat="44.53054663528368" lon="11.624251488863491"><ele>12.0</ele><time>2026-04-04T17:01:58.001Z</time></trkpt><trkpt lat="44.530666694712515" lon="11.624337084738613"><ele>12.0</ele><time>2026-04-04T17:01:59.001Z</time></trkpt><trkpt lat="44.530793516074596" lon="11.624434601317672"><ele>12.0</ele><time>2026-04-04T17:02:00.001Z</time></trkpt><trkpt lat="44.53091571152069" lon="11.624530696146191"><ele>12.0</ele><time>2026-04-04T17:02:01Z</time></trkpt><trkpt lat="44.531029277400535" lon="11.624621380217631"><ele>12.25</ele><time>2026-04-04T17:02:02Z</time></trkpt><trkpt lat="44.53115067238879" lon="11.62470627419237"><ele>12.5</ele><time>2026-04-04T17:02:03Z</time></trkpt><trkpt lat="44.531286340253345" lon="11.624773181766312"><ele>12.75</ele><time>2026-04-04T17:02:04Z</time></trkpt><trkpt lat="44.531425139021955" lon="11.624831368220093"><ele>13.0</ele><time>2026-04-04T17:02:05Z</time></trkpt><trkpt lat="44.531563243396214" lon="11.624890606934649"><ele>13.0</ele><time>2026-04-04T17:02:06Z</time></trkpt><trkpt lat="44.531720923782416" lon="11.62496143609259"><ele>13.0</ele><time>2026-04-04T17:02:07Z</time></trkpt><trkpt lat="44.531878728031494" lon="11.625043873746169"><ele>13.0</ele><time>2026-04-04T17:02:08Z</time></trkpt><trkpt lat="44.53202112615757" lon="11.625122440765812"><ele>12.333333333333332</ele><time>2026-04-04T17:02:09Z</time></trkpt><trkpt lat="44.53215543706071" lon="11.625185296081053"><ele>11.666666666666666</ele><time>2026-04-04T17:02:10Z</time></trkpt><trkpt lat="44.53229844387385" lon="11.625254908266664"><ele>11.0</ele><time>2026-04-04T17:02:11Z</time></trkpt><trkpt lat="44.532451961845055" lon="11.625309224726877"><ele>11.0</ele><time>2026-04-04T17:02:12Z</time></trkpt><trkpt lat="44.53261621493633" lon="11.625329211526305"><ele>11.0</ele><time>2026-04-04T17:02:13Z</time></trkpt><trkpt lat="44.532805516816744" lon="11.62533914629194"><ele>11.0</ele><time>2026-04-04T17:02:14Z</time></trkpt><trkpt lat="44.53300373292143" lon="11.625364738102792"><ele>11.0</ele><time>2026-04-04T17:02:15Z</time></trkpt><trkpt lat="44.53320492195749" lon="11.625403079172282"><ele>11.0</ele><time>2026-04-04T17:02:16Z</time></trkpt><trkpt lat="44.53339651783605" lon="11.625442494321014"><ele>11.0</ele><time>2026-04-04T17:02:17Z</time></trkpt><trkpt lat="44.533589581010226" lon="11.625486010405794"><ele>10.666666666666666</ele><time>2026-04-04T17:02:18Z</time></trkpt><trkpt lat="44.53378407506326" lon="11.625540610110217"><ele>10.333333333333334</ele><time>2026-04-04T17:02:19Z</time></trkpt><trkpt lat="44.53397354930506" lon="11.625612700154775"><ele>10.0</ele><time>2026-04-04T17:02:20Z</time></trkpt><trkpt lat="44.53415707374422" lon="11.625696208308542"><ele>10.0</ele><time>2026-04-04T17:02:21Z</time></trkpt><trkpt lat="44.53433562817167" lon="11.62579109042763"><ele>10.0</ele><time>2026-04-04T17:02:22Z</time></trkpt><trkpt lat="44.53451162536935" lon="11.625892496715462"><ele>10.0</ele><time>2026-04-04T17:02:23Z</time></trkpt><trkpt lat="44.53468255719164" lon="11.625981027832054"><ele>10.0</ele><time>2026-04-04T17:02:24Z</time></trkpt><trkpt lat="44.53484748156635" lon="11.626051291922264"><ele>10.0</ele><time>2026-04-04T17:02:25Z</time></trkpt><trkpt lat="44.53500464517516" lon="11.62611815232254"><ele>10.0</ele><time>2026-04-04T17:02:26Z</time></trkpt><trkpt lat="44.53516617112056" lon="11.626182801807158"><ele>10.0</ele><time>2026-04-04T17:02:27Z</time></trkpt><trkpt lat="44.53531355757604" lon="11.626243882106575"><ele>10.0</ele><time>2026-04-04T17:02:28Z</time></trkpt><trkpt lat="44.535451526793175" lon="11.626298745139938"><ele>10.0</ele><time>2026-04-04T17:02:29Z</time></trkpt><trkpt lat="44.535580249133275" lon="11.626348228491752"><ele>10.0</ele><time>2026-04-04T17:02:30Z</time></trkpt><trkpt lat="44.53570213623946" lon="11.626397442097959"><ele>9.8</ele><time>2026-04-04T17:02:31Z</time></trkpt><trkpt lat="44.53581696605405" lon="11.62644638262894"><ele>9.6</ele><time>2026-04-04T17:02:32Z</time></trkpt><trkpt lat="44.53592514113724" lon="11.626495200627053"><ele>9.4</ele><time>2026-04-04T17:02:33Z</time></trkpt><trkpt lat="44.536009984370786" lon="11.626532787515208"><ele>9.2</ele><time>2026-04-04T17:02:34Z</time></trkpt><trkpt lat="44.53607828768639" lon="11.626565805476707"><ele>9.0</ele><time>2026-04-04T17:02:35Z</time></trkpt><trkpt lat="44.536173784703266" lon="11.626623647858974"><ele>9.0</ele><time>2026-04-04T17:02:37Z</time></trkpt><trkpt lat="44.536258099579214" lon="11.626452217343108"><ele>9.0</ele><time>2026-04-04T17:02:40Z</time></trkpt><trkpt lat="44.536291332114544" lon="11.62630411658498"><ele>9.0</ele><time>2026-04-04T17:02:42Z</time></trkpt><trkpt lat="44.53631883646348" lon="11.626214978189926"><ele>9.0</ele><time>2026-04-04T17:02:43Z</time></trkpt><trkpt lat="44.536360433831625" lon="11.62610675288199"><ele>9.0</ele><time>2026-04-04T17:02:44Z</time></trkpt><trkpt lat="44.536406533677734" lon="11.625996900134373"><ele>9.0</ele><time>2026-04-04T17:02:45Z</time></trkpt><trkpt lat="44.53646261678192" lon="11.625859095723335"><ele>9.0</ele><time>2026-04-04T17:02:46Z</time></trkpt><trkpt lat="44.536525859582945" lon="11.6256989737503"><ele>9.0</ele><time>2026-04-04T17:02:47Z</time></trkpt><trkpt lat="44.536587039635926" lon="11.625533633744698"><ele>9.0</ele><time>2026-04-04T17:02:48Z</time></trkpt><trkpt lat="44.53665467025958" lon="11.625362994582211"><ele>9.0</ele><time>2026-04-04T17:02:49Z</time></trkpt><trkpt lat="44.53672998705877" lon="11.625179594597107"><ele>9.0</ele><time>2026-04-04T17:02:50Z</time></trkpt><trkpt lat="44.53680302674167" lon="11.625001828843631"><ele>9.0</ele><time>2026-04-04T17:02:51Z</time></trkpt><trkpt lat="44.53687490975624" lon="11.62481321831884"><ele>9.0</ele><time>2026-04-04T17:02:52Z</time></trkpt><trkpt lat="44.5369493478114" lon="11.624617619295046"><ele>9.0</ele><time>2026-04-04T17:02:53Z</time></trkpt><trkpt lat="44.53702909940984" lon="11.62441027683921"><ele>9.0</ele><time>2026-04-04T17:02:54Z</time></trkpt><trkpt lat="44.5371106464988" lon="11.624198307650579"><ele>9.0</ele><time>2026-04-04T17:02:55Z</time></trkpt><trkpt lat="44.53718593957915" lon="11.624005709455556"><ele>9.0</ele><time>2026-04-04T17:02:56Z</time></trkpt><trkpt lat="44.53725447317681" lon="11.623830600164776"><ele>9.0</ele><time>2026-04-04T17:02:57Z</time></trkpt><trkpt lat="44.53732040142703" lon="11.62365625284141"><ele>9.0</ele><time>2026-04-04T17:02:58Z</time></trkpt><trkpt lat="44.53738787693358" lon="11.62347818232005"><ele>9.0</ele><time>2026-04-04T17:02:59Z</time></trkpt><trkpt lat="44.53745923551561" lon="11.623292934026814"><ele>9.0</ele><time>2026-04-04T17:03:00Z</time></trkpt><trkpt lat="44.5375310804216" lon="11.623104886937263"><ele>9.0</ele><time>2026-04-04T17:03:01Z</time></trkpt><trkpt lat="44.53760656858222" lon="11.622920937481844"><ele>9.25</ele><time>2026-04-04T17:03:02Z</time></trkpt><trkpt lat="44.53767473975668" lon="11.622734042806924"><ele>9.5</ele><time>2026-04-04T17:03:03Z</time></trkpt><trkpt lat="44.5377405231931" lon="11.622554704043244"><ele>9.75</ele><time>2026-04-04T17:03:04Z</time></trkpt><trkpt lat="44.53780539085692" lon="11.62236447228978"><ele>10.0</ele><time>2026-04-04T17:03:05Z</time></trkpt><trkpt lat="44.5378819533795" lon="11.622180493311918"><ele>9.666666666666668</ele><time>2026-04-04T17:03:06Z</time></trkpt><trkpt lat="44.53795193116907" lon="11.621983167300014"><ele>9.333333333333334</ele><time>2026-04-04T17:03:07Z</time></trkpt><trkpt lat="44.53801564927346" lon="11.621787556588036"><ele>9.0</ele><time>2026-04-04T17:03:08Z</time></trkpt><trkpt lat="44.53808019621935" lon="11.62158634903322"><ele>9.0</ele><time>2026-04-04T17:03:09Z</time></trkpt><trkpt lat="44.53814597552487" lon="11.621390431592133"><ele>9.0</ele><time>2026-04-04T17:03:10Z</time></trkpt><trkpt lat="44.53821194997262" lon="11.621198671992072"><ele>9.0</ele><time>2026-04-04T17:03:11Z</time></trkpt><trkpt lat="44.53828191843762" lon="11.62099511320509"><ele>9.333333333333334</ele><time>2026-04-04T17:03:12Z</time></trkpt><trkpt lat="44.53834636938937" lon="11.62079641646667"><ele>9.666666666666668</ele><time>2026-04-04T17:03:13Z</time></trkpt><trkpt lat="44.538408694143726" lon="11.620603418345949"><ele>10.0</ele><time>2026-04-04T17:03:14Z</time></trkpt><trkpt lat="44.53847293980168" lon="11.620402431910128"><ele>10.0</ele><time>2026-04-04T17:03:15Z</time></trkpt><trkpt lat="44.53853644911999" lon="11.62021140961046"><ele>10.0</ele><time>2026-04-04T17:03:16Z</time></trkpt><trkpt lat="44.53859774683302" lon="11.620019694337877"><ele>10.0</ele><time>2026-04-04T17:03:17Z</time></trkpt><trkpt lat="44.53866211034711" lon="11.619824323141403"><ele>10.0</ele><time>2026-04-04T17:03:18Z</time></trkpt><trkpt lat="44.538719711472595" lon="11.619649665043296"><ele>10.0</ele><time>2026-04-04T17:03:19Z</time></trkpt><trkpt lat="44.538774583560354" lon="11.61948922947681"><ele>10.0</ele><time>2026-04-04T17:03:20Z</time></trkpt><trkpt lat="44.53882433441753" lon="11.619337913723127"><ele>10.0</ele><time>2026-04-04T17:03:21Z</time></trkpt><trkpt lat="44.53886565404968" lon="11.619200875944397"><ele>10.0</ele><time>2026-04-04T17:03:22Z</time></trkpt><trkpt lat="44.538904992711025" lon="11.619073060149193"><ele>10.0</ele><time>2026-04-04T17:03:23Z</time></trkpt><trkpt lat="44.53894626911968" lon="11.618948529255528"><ele>10.0</ele><time>2026-04-04T17:03:24Z</time></trkpt><trkpt lat="44.53898723003553" lon="11.618816870554477"><ele>10.0</ele><time>2026-04-04T17:03:25Z</time></trkpt><trkpt lat="44.53902811703514" lon="11.618679517650376"><ele>10.0</ele><time>2026-04-04T17:03:26Z</time></trkpt><trkpt lat="44.539073809306934" lon="11.61854271284258"><ele>10.333333333333334</ele><time>2026-04-04T17:03:27Z</time></trkpt><trkpt lat="44.5391162684405" lon="11.61840969358289"><ele>10.666666666666668</ele><time>2026-04-04T17:03:28Z</time></trkpt><trkpt lat="44.539149559796286" lon="11.618302458644612"><ele>11.0</ele><time>2026-04-04T17:03:29Z</time></trkpt><trkpt lat="44.539184123810955" lon="11.618201525214403"><ele>11.333333333333334</ele><time>2026-04-04T17:03:30Z</time></trkpt><trkpt lat="44.539218542537945" lon="11.618093036434365"><ele>11.666666666666666</ele><time>2026-04-04T17:03:31Z</time></trkpt><trkpt lat="44.53925441456529" lon="11.617979781792249"><ele>12.0</ele><time>2026-04-04T17:03:32Z</time></trkpt><trkpt lat="44.539283185458494" lon="11.617883014583185"><ele>12.166666666666666</ele><time>2026-04-04T17:03:33Z</time></trkpt><trkpt lat="44.539307952773925" lon="11.61778954939497"><ele>12.333333333333332</ele><time>2026-04-04T17:03:34Z</time></trkpt><trkpt lat="44.539306462003225" lon="11.617682598626578"><ele>12.5</ele><time>2026-04-04T17:03:35Z</time></trkpt><trkpt lat="44.539272495918" lon="11.617571139391588"><ele>12.666666666666666</ele><time>2026-04-04T17:03:36Z</time></trkpt><trkpt lat="44.53920279684202" lon="11.617485318065969"><ele>12.833333333333332</ele><time>2026-04-04T17:03:37Z</time></trkpt><trkpt lat="44.53910025214933" lon="11.617412023107589"><ele>13.0</ele><time>2026-04-04T17:03:38Z</time></trkpt><trkpt lat="44.538996212211735" lon="11.617331805725579"><ele>13.0</ele><time>2026-04-04T17:03:39Z</time></trkpt><trkpt lat="44.53889091879921" lon="11.617219023764587"><ele>13.0</ele><time>2026-04-04T17:03:40Z</time></trkpt><trkpt lat="44.53874618441944" lon="11.617129232965425"><ele>13.0</ele><time>2026-04-04T17:03:41Z</time></trkpt><trkpt lat="44.53860877787731" lon="11.617021688939056"><ele>13.0</ele><time>2026-04-04T17:03:42Z</time></trkpt><trkpt lat="44.538462211555945" lon="11.616907736027473"><ele>13.333333333333332</ele><time>2026-04-04T17:03:43Z</time></trkpt><trkpt lat="44.538303194482964" lon="11.616781452366435"><ele>13.666666666666668</ele><time>2026-04-04T17:03:44Z</time></trkpt><trkpt lat="44.538148767862936" lon="11.616660216837024"><ele>14.0</ele><time>2026-04-04T17:03:45Z</time></trkpt><trkpt lat="44.53801174992116" lon="11.616558873905962"><ele>14.0</ele><time>2026-04-04T17:03:46Z</time></trkpt><trkpt lat="44.537891178335975" lon="11.616474963848772"><ele>14.0</ele><time>2026-04-04T17:03:47Z</time></trkpt><trkpt lat="44.53778524748824" lon="11.616401145825575"><ele>14.0</ele><time>2026-04-04T17:03:48Z</time></trkpt><trkpt lat="44.53768073203486" lon="11.616340414044169"><ele>14.0</ele><time>2026-04-04T17:03:49Z</time></trkpt><trkpt lat="44.53759109457252" lon="11.61629461906671"><ele>13.833333333333334</ele><time>2026-04-04T17:03:50Z</time></trkpt><trkpt lat="44.53751412537875" lon="11.616261656657915"><ele>13.666666666666668</ele><time>2026-04-04T17:03:51Z</time></trkpt><trkpt lat="44.537438663751765" lon="11.616236861851359"><ele>13.5</ele><time>2026-04-04T17:03:52Z</time></trkpt><trkpt lat="44.53732567923887" lon="11.616208612719126"><ele>13.333333333333332</ele><time>2026-04-04T17:03:54.001Z</time></trkpt><trkpt lat="44.53723423574303" lon="11.61617584203882"><ele>13.166666666666666</ele><time>2026-04-04T17:03:56.001Z</time></trkpt><trkpt lat="44.537160325336835" lon="11.616138358425355"><ele>13.0</ele><time>2026-04-04T17:03:59.001Z</time></trkpt><trkpt lat="44.53714237909831" lon="11.616045775266809"><ele>13.333333333333332</ele><time>2026-04-04T17:04:02.001Z</time></trkpt><trkpt lat="44.537153931988925" lon="11.615937977048866"><ele>13.666666666666666</ele><time>2026-04-04T17:04:04.001Z</time></trkpt><trkpt lat="44.53716893653886" lon="11.615802782223458"><ele>14.0</ele><time>2026-04-04T17:04:06.001Z</time></trkpt><trkpt lat="44.53718930947677" lon="11.61566794514003"><ele>14.333333333333332</ele><time>2026-04-04T17:04:08Z</time></trkpt><trkpt lat="44.53720011188604" lon="11.615573746995764"><ele>14.666666666666666</ele><time>2026-04-04T17:04:10Z</time></trkpt><trkpt lat="44.53721902161551" lon="11.615475680366409"><ele>15.0</ele><time>2026-04-04T17:04:12Z</time></trkpt><trkpt lat="44.5372576914078" lon="11.615326706898411"><ele>15.2</ele><time>2026-04-04T17:04:14Z</time></trkpt><trkpt lat="44.537276721239195" lon="11.615238640769526"><ele>15.4</ele><time>2026-04-04T17:04:15Z</time></trkpt><trkpt lat="44.53730830124156" lon="11.615077928328862"><ele>15.600000000000001</ele><time>2026-04-04T17:04:17Z</time></trkpt><trkpt lat="44.53733339498132" lon="11.61496549050819"><ele>15.8</ele><time>2026-04-04T17:04:18Z</time></trkpt><trkpt lat="44.537362817596616" lon="11.614843591154044"><ele>16.0</ele><time>2026-04-04T17:04:19Z</time></trkpt><trkpt lat="44.53740066455532" lon="11.614700600267687"><ele>16.0</ele><time>2026-04-04T17:04:20Z</time></trkpt><trkpt lat="44.537450322054774" lon="11.614524936774533"><ele>16.0</ele><time>2026-04-04T17:04:21Z</time></trkpt><trkpt lat="44.537506910682815" lon="11.614351263722611"><ele>16.0</ele><time>2026-04-04T17:04:22Z</time></trkpt><trkpt lat="44.537569882268336" lon="11.614178522340683"><ele>16.0</ele><time>2026-04-04T17:04:23Z</time></trkpt><trkpt lat="44.53763871990524" lon="11.61399265932739"><ele>15.333333333333332</ele><time>2026-04-04T17:04:24Z</time></trkpt><trkpt lat="44.53771110142188" lon="11.613799032614763"><ele>14.666666666666668</ele><time>2026-04-04T17:04:25Z</time></trkpt><trkpt lat="44.5377794455015" lon="11.613616343944814"><ele>14.0</ele><time>2026-04-04T17:04:26Z</time></trkpt><trkpt lat="44.53785769091876" lon="11.613424469844414"><ele>13.333333333333334</ele><time>2026-04-04T17:04:27Z</time></trkpt><trkpt lat="44.53793485289658" lon="11.613223005215822"><ele>12.666666666666668</ele><time>2026-04-04T17:04:28Z</time></trkpt><trkpt lat="44.53801819182057" lon="11.613028454150188"><ele>12.0</ele><time>2026-04-04T17:04:29Z</time></trkpt><trkpt lat="44.53810372436283" lon="11.612842912407425"><ele>12.666666666666668</ele><time>2026-04-04T17:04:30Z</time></trkpt><trkpt lat="44.538189031402425" lon="11.612662405949353"><ele>13.333333333333334</ele><time>2026-04-04T17:04:31Z</time></trkpt><trkpt lat="44.53827487275363" lon="11.61248886403646"><ele>14.0</ele><time>2026-04-04T17:04:32Z</time></trkpt><trkpt lat="44.5383636903148" lon="11.6123179381919"><ele>14.0</ele><time>2026-04-04T17:04:33Z</time></trkpt><trkpt lat="44.53845763632309" lon="11.612151142256556"><ele>14.0</ele><time>2026-04-04T17:04:34Z</time></trkpt><trkpt lat="44.53855787637554" lon="11.611984721474109"><ele>14.0</ele><time>2026-04-04T17:04:35Z</time></trkpt><trkpt lat="44.53866159149736" lon="11.611822378670604"><ele>14.0</ele><time>2026-04-04T17:04:36Z</time></trkpt><trkpt lat="44.53876673700929" lon="11.611662886925897"><ele>14.0</ele><time>2026-04-04T17:04:37Z</time></trkpt><trkpt lat="44.538875060766216" lon="11.611509204586723"><ele>14.0</ele><time>2026-04-04T17:04:38Z</time></trkpt><trkpt lat="44.53899083737953" lon="11.61135763572394"><ele>14.0</ele><time>2026-04-04T17:04:39Z</time></trkpt><trkpt lat="44.53910696671774" lon="11.611204872815593"><ele>14.0</ele><time>2026-04-04T17:04:40Z</time></trkpt><trkpt lat="44.53921984111829" lon="11.611051538982025"><ele>14.0</ele><time>2026-04-04T17:04:41Z</time></trkpt><trkpt lat="44.53933102362002" lon="11.610902258802541"><ele>13.666666666666668</ele><time>2026-04-04T17:04:42Z</time></trkpt><trkpt lat="44.53943982002787" lon="11.610752267433273"><ele>13.333333333333332</ele><time>2026-04-04T17:04:43Z</time></trkpt><trkpt lat="44.53954159509025" lon="11.610591321439697"><ele>13.0</ele><time>2026-04-04T17:04:44Z</time></trkpt><trkpt lat="44.53962278132721" lon="11.610418995016488"><ele>12.666666666666666</ele><time>2026-04-04T17:04:45Z</time></trkpt><trkpt lat="44.539691840964025" lon="11.610234785953363"><ele>12.333333333333332</ele><time>2026-04-04T17:04:46Z</time></trkpt><trkpt lat="44.53976993749389" lon="11.610042000755119"><ele>12.0</ele><time>2026-04-04T17:04:47Z</time></trkpt><trkpt lat="44.539855279569935" lon="11.609847817170186"><ele>12.0</ele><time>2026-04-04T17:04:48Z</time></trkpt><trkpt lat="44.5399412664191" lon="11.609655646010332"><ele>12.0</ele><time>2026-04-04T17:04:49Z</time></trkpt><trkpt lat="44.54002436113128" lon="11.609464410385756"><ele>12.0</ele><time>2026-04-04T17:04:50Z</time></trkpt><trkpt lat="44.540111635516745" lon="11.609277418697674"><ele>11.666666666666666</ele><time>2026-04-04T17:04:51Z</time></trkpt><trkpt lat="44.54019546329938" lon="11.60909479281481"><ele>11.333333333333332</ele><time>2026-04-04T17:04:52Z</time></trkpt><trkpt lat="44.540275685304714" lon="11.608909752454007"><ele>11.0</ele><time>2026-04-04T17:04:53Z</time></trkpt><trkpt lat="44.540358672665725" lon="11.608717131552245"><ele>11.0</ele><time>2026-04-04T17:04:54Z</time></trkpt><trkpt lat="44.540444212222724" lon="11.608521181512252"><ele>11.0</ele><time>2026-04-04T17:04:55Z</time></trkpt><trkpt lat="44.540529733894665" lon="11.608328481822115"><ele>11.0</ele><time>2026-04-04T17:04:56Z</time></trkpt><trkpt lat="44.54061344090113" lon="11.608139975326011"><ele>11.0</ele><time>2026-04-04T17:04:57Z</time></trkpt><trkpt lat="44.540699954161134" lon="11.607949005515081"><ele>11.0</ele><time>2026-04-04T17:04:58Z</time></trkpt><trkpt lat="44.540781117724926" lon="11.607761302562643"><ele>11.0</ele><time>2026-04-04T17:04:59Z</time></trkpt><trkpt lat="44.540857302873974" lon="11.607587186126684"><ele>11.25</ele><time>2026-04-04T17:05:00Z</time></trkpt><trkpt lat="44.540927700444634" lon="11.607426268887615"><ele>11.5</ele><time>2026-04-04T17:05:01Z</time></trkpt><trkpt lat="44.54098837551027" lon="11.607281793303102"><ele>11.75</ele><time>2026-04-04T17:05:02Z</time></trkpt><trkpt lat="44.54104292032627" lon="11.607153548712251"><ele>12.0</ele><time>2026-04-04T17:05:03Z</time></trkpt><trkpt lat="44.54109630227384" lon="11.607033916904445"><ele>12.166666666666666</ele><time>2026-04-04T17:05:04Z</time></trkpt><trkpt lat="44.541145974249595" lon="11.606921415074568"><ele>12.333333333333332</ele><time>2026-04-04T17:05:05Z</time></trkpt><trkpt lat="44.541190390902365" lon="11.60682407220705"><ele>12.5</ele><time>2026-04-04T17:05:06Z</time></trkpt><trkpt lat="44.541228983254605" lon="11.606740713026552"><ele>12.666666666666666</ele><time>2026-04-04T17:05:07Z</time></trkpt><trkpt lat="44.541298057558045" lon="11.60658882179221"><ele>12.833333333333332</ele><time>2026-04-04T17:05:09Z</time></trkpt><trkpt lat="44.541334006790784" lon="11.606507961731156"><ele>13.0</ele><time>2026-04-04T17:05:10Z</time></trkpt><trkpt lat="44.5413916935008" lon="11.606379509462975"><ele>13.166666666666666</ele><time>2026-04-04T17:05:12Z</time></trkpt><trkpt lat="44.541434296318684" lon="11.606279149534771"><ele>13.333333333333332</ele><time>2026-04-04T17:05:14Z</time></trkpt><trkpt lat="44.54147928989876" lon="11.606179587226757"><ele>13.5</ele><time>2026-04-04T17:05:16Z</time></trkpt><trkpt lat="44.54151596644744" lon="11.606107796243085"><ele>13.666666666666668</ele><time>2026-04-04T17:05:18Z</time></trkpt><trkpt lat="44.541565934149425" lon="11.606038102791198"><ele>13.833333333333334</ele><time>2026-04-04T17:05:39Z</time></trkpt><trkpt lat="44.541659154462614" lon="11.606151640351914"><ele>14.0</ele><time>2026-04-04T17:05:41Z</time></trkpt><trkpt lat="44.54171712210482" lon="11.606219761798439"><ele>14.0</ele><time>2026-04-04T17:05:42Z</time></trkpt><trkpt lat="44.5417635035691" lon="11.60631540334587"><ele>13.999999999999998</ele><time>2026-04-04T17:05:43Z</time></trkpt><trkpt lat="44.54182395010892" lon="11.60642873649552"><ele>13.999999999999998</ele><time>2026-04-04T17:05:44Z</time></trkpt><trkpt lat="44.54188435265458" lon="11.606539223713318"><ele>14.0</ele><time>2026-04-04T17:05:45Z</time></trkpt><trkpt lat="44.54195327237083" lon="11.606665220497362"><ele>14.0</ele><time>2026-04-04T17:05:46Z</time></trkpt><trkpt lat="44.54204043963864" lon="11.606813355872559"><ele>13.25</ele><time>2026-04-04T17:05:47Z</time></trkpt><trkpt lat="44.542133160832634" lon="11.60696635288439"><ele>12.5</ele><time>2026-04-04T17:05:48Z</time></trkpt><trkpt lat="44.54222915914169" lon="11.60711711806476"><ele>11.75</ele><time>2026-04-04T17:05:49Z</time></trkpt><trkpt lat="44.54232932131838" lon="11.607272212161817"><ele>11.0</ele><time>2026-04-04T17:05:50Z</time></trkpt><trkpt lat="44.54242933979421" lon="11.607427980942505"><ele>11.0</ele><time>2026-04-04T17:05:51Z</time></trkpt><trkpt lat="44.54253274534873" lon="11.607581068206915"><ele>11.0</ele><time>2026-04-04T17:05:52Z</time></trkpt><trkpt lat="44.54263584994458" lon="11.607734975764023"><ele>11.0</ele><time>2026-04-04T17:05:53Z</time></trkpt><trkpt lat="44.54273591096709" lon="11.607880982158692"><ele>11.0</ele><time>2026-04-04T17:05:54Z</time></trkpt><trkpt lat="44.54283173959844" lon="11.608024710584889"><ele>11.25</ele><time>2026-04-04T17:05:55Z</time></trkpt><trkpt lat="44.54292366509739" lon="11.6081646493085"><ele>11.5</ele><time>2026-04-04T17:05:56Z</time></trkpt><trkpt lat="44.54301733865698" lon="11.608305210615626"><ele>11.75</ele><time>2026-04-04T17:05:57Z</time></trkpt><trkpt lat="44.54311445412839" lon="11.608444709507104"><ele>12.0</ele><time>2026-04-04T17:05:58Z</time></trkpt><trkpt lat="44.54320681588245" lon="11.60858456610297"><ele>12.5</ele><time>2026-04-04T17:05:59Z</time></trkpt><trkpt lat="44.54330057572431" lon="11.608725749048746"><ele>13.0</ele><time>2026-04-04T17:06:00Z</time></trkpt><trkpt lat="44.54340653195064" lon="11.608876618378176"><ele>13.5</ele><time>2026-04-04T17:06:01Z</time></trkpt><trkpt lat="44.54351080315288" lon="11.609027718078202"><ele>14.0</ele><time>2026-04-04T17:06:02Z</time></trkpt><trkpt lat="44.54362672132525" lon="11.60919029708356"><ele>13.666666666666668</ele><time>2026-04-04T17:06:03Z</time></trkpt><trkpt lat="44.54374284937334" lon="11.609369279678138"><ele>13.333333333333332</ele><time>2026-04-04T17:06:04Z</time></trkpt><trkpt lat="44.543859062037946" lon="11.609551193574587"><ele>13.0</ele><time>2026-04-04T17:06:05Z</time></trkpt><trkpt lat="44.54396753158" lon="11.60972051654397"><ele>13.0</ele><time>2026-04-04T17:06:06Z</time></trkpt><trkpt lat="44.54407924388187" lon="11.609884746846474"><ele>13.0</ele><time>2026-04-04T17:06:07Z</time></trkpt><trkpt lat="44.544196219161165" lon="11.610057605964101"><ele>13.0</ele><time>2026-04-04T17:06:08Z</time></trkpt><trkpt lat="44.54430982709933" lon="11.610233285487698"><ele>13.333333333333332</ele><time>2026-04-04T17:06:09Z</time></trkpt><trkpt lat="44.54441890498995" lon="11.610404812438233"><ele>13.666666666666668</ele><time>2026-04-04T17:06:10Z</time></trkpt><trkpt lat="44.54452401632644" lon="11.61055836478691"><ele>14.0</ele><time>2026-04-04T17:06:11.001Z</time></trkpt><trkpt lat="44.54462382280143" lon="11.610704937703447"><ele>13.333333333333334</ele><time>2026-04-04T17:06:12.001Z</time></trkpt><trkpt lat="44.54473465737453" lon="11.610866421969007"><ele>12.666666666666668</ele><time>2026-04-04T17:06:13Z</time></trkpt><trkpt lat="44.544845052282696" lon="11.611026588265887"><ele>12.0</ele><time>2026-04-04T17:06:14Z</time></trkpt><trkpt lat="44.54495411308492" lon="11.611189608965315"><ele>12.0</ele><time>2026-04-04T17:06:15Z</time></trkpt><trkpt lat="44.54506413095463" lon="11.611351525957685"><ele>12.0</ele><time>2026-04-04T17:06:16Z</time></trkpt><trkpt lat="44.54517143677184" lon="11.611509211103781"><ele>12.0</ele><time>2026-04-04T17:06:17Z</time></trkpt><trkpt lat="44.545278247204024" lon="11.611672041381912"><ele>11.666666666666666</ele><time>2026-04-04T17:06:18Z</time></trkpt><trkpt lat="44.54539026129064" lon="11.61184153900262"><ele>11.333333333333332</ele><time>2026-04-04T17:06:19Z</time></trkpt><trkpt lat="44.545503686310205" lon="11.612007870284383"><ele>11.0</ele><time>2026-04-04T17:06:20Z</time></trkpt><trkpt lat="44.54562068599794" lon="11.612179366728508"><ele>11.0</ele><time>2026-04-04T17:06:21Z</time></trkpt><trkpt lat="44.545735148765466" lon="11.612353372688075"><ele>11.0</ele><time>2026-04-04T17:06:22Z</time></trkpt><trkpt lat="44.54584780933261" lon="11.61253249870078"><ele>11.0</ele><time>2026-04-04T17:06:23Z</time></trkpt><trkpt lat="44.545960586170104" lon="11.612717826758587"><ele>11.333333333333332</ele><time>2026-04-04T17:06:24Z</time></trkpt><trkpt lat="44.54607145165644" lon="11.612911300827136"><ele>11.666666666666666</ele><time>2026-04-04T17:06:25Z</time></trkpt><trkpt lat="44.546163897555296" lon="11.613119067858202"><ele>12.0</ele><time>2026-04-04T17:06:26Z</time></trkpt><trkpt lat="44.54626843260532" lon="11.613313682647789"><ele>12.0</ele><time>2026-04-04T17:06:27Z</time></trkpt><trkpt lat="44.54637458447001" lon="11.613503694292499"><ele>12.0</ele><time>2026-04-04T17:06:28Z</time></trkpt><trkpt lat="44.54648572036094" lon="11.613689636091488"><ele>12.0</ele><time>2026-04-04T17:06:29Z</time></trkpt><trkpt lat="44.54660880806761" lon="11.613853788163262"><ele>12.0</ele><time>2026-04-04T17:06:30Z</time></trkpt><trkpt lat="44.546718979352995" lon="11.614033593922615"><ele>12.0</ele><time>2026-04-04T17:06:31Z</time></trkpt><trkpt lat="44.54683799173694" lon="11.614208919322433"><ele>12.0</ele><time>2026-04-04T17:06:32Z</time></trkpt><trkpt lat="44.54695463226124" lon="11.614387886849398"><ele>12.333333333333332</ele><time>2026-04-04T17:06:33Z</time></trkpt><trkpt lat="44.54705573358583" lon="11.614581174082183"><ele>12.666666666666666</ele><time>2026-04-04T17:06:34Z</time></trkpt><trkpt lat="44.547179842825145" lon="11.614744317710716"><ele>13.0</ele><time>2026-04-04T17:06:35Z</time></trkpt><trkpt lat="44.54729282786732" lon="11.614923786083658"><ele>13.0</ele><time>2026-04-04T17:06:36Z</time></trkpt><trkpt lat="44.54740323354173" lon="11.615097308730876"><ele>13.0</ele><time>2026-04-04T17:06:37Z</time></trkpt><trkpt lat="44.54751816840831" lon="11.615278572754775"><ele>13.0</ele><time>2026-04-04T17:06:38Z</time></trkpt><trkpt lat="44.54763237227792" lon="11.615458204269025"><ele>12.333333333333332</ele><time>2026-04-04T17:06:39Z</time></trkpt><trkpt lat="44.547747677973476" lon="11.615636520903365"><ele>11.666666666666666</ele><time>2026-04-04T17:06:40Z</time></trkpt><trkpt lat="44.54786354590227" lon="11.615820355160992"><ele>11.0</ele><time>2026-04-04T17:06:41Z</time></trkpt><trkpt lat="44.54797549828275" lon="11.616000082776003"><ele>11.0</ele><time>2026-04-04T17:06:42Z</time></trkpt><trkpt lat="44.54808994840574" lon="11.61617535427215"><ele>11.0</ele><time>2026-04-04T17:06:43Z</time></trkpt><trkpt lat="44.548201987449055" lon="11.616356342414552"><ele>11.0</ele><time>2026-04-04T17:06:44Z</time></trkpt><trkpt lat="44.548313281105294" lon="11.616532066175447"><ele>11.0</ele><time>2026-04-04T17:06:45Z</time></trkpt><trkpt lat="44.548417823506774" lon="11.616701243037927"><ele>11.0</ele><time>2026-04-04T17:06:46Z</time></trkpt><trkpt lat="44.54853053182291" lon="11.616876349158247"><ele>11.0</ele><time>2026-04-04T17:06:47Z</time></trkpt><trkpt lat="44.54863708968789" lon="11.61704732196736"><ele>12.0</ele><time>2026-04-04T17:06:48Z</time></trkpt><trkpt lat="44.54874054761268" lon="11.617214953012114"><ele>13.0</ele><time>2026-04-04T17:06:49Z</time></trkpt><trkpt lat="44.548845656824284" lon="11.617383992244665"><ele>14.0</ele><time>2026-04-04T17:06:50Z</time></trkpt><trkpt lat="44.54895283776016" lon="11.617552559954413"><ele>14.0</ele><time>2026-04-04T17:06:51Z</time></trkpt><trkpt lat="44.549062613481" lon="11.617722746742936"><ele>14.0</ele><time>2026-04-04T17:06:52Z</time></trkpt><trkpt lat="44.54916973061181" lon="11.617892631964983"><ele>14.0</ele><time>2026-04-04T17:06:53Z</time></trkpt><trkpt lat="44.54927869104956" lon="11.61805822555775"><ele>13.666666666666668</ele><time>2026-04-04T17:06:54Z</time></trkpt><trkpt lat="44.549389114872056" lon="11.618225348704861"><ele>13.333333333333332</ele><time>2026-04-04T17:06:55Z</time></trkpt><trkpt lat="44.54948514060993" lon="11.61841057039114"><ele>13.0</ele><time>2026-04-04T17:06:56Z</time></trkpt><trkpt lat="44.54960438058073" lon="11.61856795446098"><ele>12.333333333333332</ele><time>2026-04-04T17:06:57Z</time></trkpt><trkpt lat="44.54971141636126" lon="11.618744103372798"><ele>11.666666666666666</ele><time>2026-04-04T17:06:58Z</time></trkpt><trkpt lat="44.54982451486257" lon="11.618921683903878"><ele>11.0</ele><time>2026-04-04T17:06:59Z</time></trkpt><trkpt lat="44.549932573467" lon="11.619091968404218"><ele>11.0</ele><time>2026-04-04T17:07:00Z</time></trkpt><trkpt lat="44.55004750109229" lon="11.61926565053616"><ele>11.0</ele><time>2026-04-04T17:07:01Z</time></trkpt><trkpt lat="44.55016022648176" lon="11.619443734091666"><ele>11.0</ele><time>2026-04-04T17:07:02Z</time></trkpt><trkpt lat="44.550271023319304" lon="11.619620279609933"><ele>10.666666666666666</ele><time>2026-04-04T17:07:03Z</time></trkpt><trkpt lat="44.550382871863626" lon="11.619798513583362"><ele>10.333333333333334</ele><time>2026-04-04T17:07:04Z</time></trkpt><trkpt lat="44.550498256723614" lon="11.619977800508927"><ele>10.0</ele><time>2026-04-04T17:07:05Z</time></trkpt><trkpt lat="44.55061011164691" lon="11.620159115589077"><ele>10.333333333333334</ele><time>2026-04-04T17:07:06Z</time></trkpt><trkpt lat="44.55072204238801" lon="11.620335215051979"><ele>10.666666666666666</ele><time>2026-04-04T17:07:07Z</time></trkpt><trkpt lat="44.550831869732626" lon="11.620508571031515"><ele>11.0</ele><time>2026-04-04T17:07:08Z</time></trkpt><trkpt lat="44.55094009563909" lon="11.62067669253697"><ele>11.0</ele><time>2026-04-04T17:07:09Z</time></trkpt><trkpt lat="44.55104846888767" lon="11.620838429157589"><ele>11.0</ele><time>2026-04-04T17:07:10Z</time></trkpt><trkpt lat="44.551155943564986" lon="11.621004597557839"><ele>11.0</ele><time>2026-04-04T17:07:11Z</time></trkpt><trkpt lat="44.551265334340684" lon="11.621175469022866"><ele>10.666666666666666</ele><time>2026-04-04T17:07:12Z</time></trkpt><trkpt lat="44.551369963385994" lon="11.621343755180298"><ele>10.333333333333334</ele><time>2026-04-04T17:07:13Z</time></trkpt><trkpt lat="44.55148017871416" lon="11.621509401915514"><ele>10.0</ele><time>2026-04-04T17:07:14Z</time></trkpt><trkpt lat="44.55159097561302" lon="11.621673527679695"><ele>10.0</ele><time>2026-04-04T17:07:15Z</time></trkpt><trkpt lat="44.55170170694479" lon="11.621840900722832"><ele>10.0</ele><time>2026-04-04T17:07:16Z</time></trkpt><trkpt lat="44.551807160414505" lon="11.622006215270007"><ele>10.0</ele><time>2026-04-04T17:07:17Z</time></trkpt><trkpt lat="44.55191202565144" lon="11.622171961695539"><ele>10.25</ele><time>2026-04-04T17:07:18Z</time></trkpt><trkpt lat="44.552017282346064" lon="11.622335472949954"><ele>10.5</ele><time>2026-04-04T17:07:19Z</time></trkpt><trkpt lat="44.552118131511826" lon="11.62248865678382"><ele>10.75</ele><time>2026-04-04T17:07:20Z</time></trkpt><trkpt lat="44.55221587093491" lon="11.622635476856603"><ele>11.0</ele><time>2026-04-04T17:07:21Z</time></trkpt><trkpt lat="44.55230683953983" lon="11.622770636555453"><ele>11.0</ele><time>2026-04-04T17:07:22Z</time></trkpt><trkpt lat="44.55239503016063" lon="11.62289281346879"><ele>11.0</ele><time>2026-04-04T17:07:23Z</time></trkpt><trkpt lat="44.55247995642737" lon="11.623005981703086"><ele>11.0</ele><time>2026-04-04T17:07:24Z</time></trkpt><trkpt lat="44.552562741246895" lon="11.623113288336475"><ele>11.0</ele><time>2026-04-04T17:07:25Z</time></trkpt><trkpt lat="44.55263685406927" lon="11.623210078223789"><ele>11.0</ele><time>2026-04-04T17:07:26Z</time></trkpt><trkpt lat="44.552706856984976" lon="11.623304741128578"><ele>11.0</ele><time>2026-04-04T17:07:27Z</time></trkpt><trkpt lat="44.55277835985205" lon="11.623399807187855"><ele>11.0</ele><time>2026-04-04T17:07:28Z</time></trkpt><trkpt lat="44.55285258940305" lon="11.623500394578407"><ele>11.0</ele><time>2026-04-04T17:07:29Z</time></trkpt><trkpt lat="44.552916733477545" lon="11.62358487220801"><ele>11.0</ele><time>2026-04-04T17:07:30Z</time></trkpt><trkpt lat="44.5529718113261" lon="11.623660513699074"><ele>11.285714285714286</ele><time>2026-04-04T17:07:31Z</time></trkpt><trkpt lat="44.55302306770004" lon="11.623730130734428"><ele>11.571428571428571</ele><time>2026-04-04T17:07:32Z</time></trkpt><trkpt lat="44.553074466758765" lon="11.623793592927884"><ele>11.857142857142858</ele><time>2026-04-04T17:07:33Z</time></trkpt><trkpt lat="44.55312536584005" lon="11.62386114303352"><ele>12.142857142857142</ele><time>2026-04-04T17:07:34Z</time></trkpt><trkpt lat="44.553178169497556" lon="11.623927150840835"><ele>12.428571428571429</ele><time>2026-04-04T17:07:35Z</time></trkpt><trkpt lat="44.55323802767016" lon="11.623999137020148"><ele>12.714285714285714</ele><time>2026-04-04T17:07:36Z</time></trkpt><trkpt lat="44.55330226981297" lon="11.624082703065508"><ele>13.0</ele><time>2026-04-04T17:07:37Z</time></trkpt><trkpt lat="44.55337097213212" lon="11.624170927361021"><ele>13.0</ele><time>2026-04-04T17:07:38Z</time></trkpt><trkpt lat="44.553440436116425" lon="11.624260354463775"><ele>13.0</ele><time>2026-04-04T17:07:39Z</time></trkpt><trkpt lat="44.55351276425252" lon="11.62435138476053"><ele>13.0</ele><time>2026-04-04T17:07:40Z</time></trkpt><trkpt lat="44.55359116625432" lon="11.624462549963196"><ele>13.0</ele><time>2026-04-04T17:07:41Z</time></trkpt><trkpt lat="44.55368145638898" lon="11.624588401315256"><ele>13.0</ele><time>2026-04-04T17:07:42Z</time></trkpt><trkpt lat="44.55376961773018" lon="11.62470929919387"><ele>12.5</ele><time>2026-04-04T17:07:43Z</time></trkpt><trkpt lat="44.55385515925509" lon="11.624818255246257"><ele>12.0</ele><time>2026-04-04T17:07:44Z</time></trkpt><trkpt lat="44.55394091125121" lon="11.624933830412429"><ele>11.5</ele><time>2026-04-04T17:07:45Z</time></trkpt><trkpt lat="44.55402725077001" lon="11.625060515661952"><ele>11.0</ele><time>2026-04-04T17:07:46Z</time></trkpt><trkpt lat="44.5541191866272" lon="11.625181997687816"><ele>11.0</ele><time>2026-04-04T17:07:47Z</time></trkpt><trkpt lat="44.554209272164314" lon="11.625304549067948"><ele>11.0</ele><time>2026-04-04T17:07:48Z</time></trkpt><trkpt lat="44.554299495266555" lon="11.625424245196422"><ele>11.0</ele><time>2026-04-04T17:07:49Z</time></trkpt><trkpt lat="44.554391801770414" lon="11.625545207514179"><ele>11.0</ele><time>2026-04-04T17:07:50Z</time></trkpt><trkpt lat="44.55447902145357" lon="11.625663668315832"><ele>10.5</ele><time>2026-04-04T17:07:51Z</time></trkpt><trkpt lat="44.55456695822201" lon="11.625780108651908"><ele>10.0</ele><time>2026-04-04T17:07:52Z</time></trkpt><trkpt lat="44.55465286769482" lon="11.625896122659045"><ele>9.5</ele><time>2026-04-04T17:07:53Z</time></trkpt><trkpt lat="44.55473875528521" lon="11.62601002065291"><ele>9.0</ele><time>2026-04-04T17:07:54Z</time></trkpt><trkpt lat="44.5548261269049" lon="11.626125239028404"><ele>9.4</ele><time>2026-04-04T17:07:55Z</time></trkpt><trkpt lat="44.554902279030856" lon="11.626230573219098"><ele>9.8</ele><time>2026-04-04T17:07:56Z</time></trkpt><trkpt lat="44.55497858745735" lon="11.626329565397906"><ele>10.200000000000001</ele><time>2026-04-04T17:07:57Z</time></trkpt><trkpt lat="44.555049006150504" lon="11.626438645270136"><ele>10.600000000000001</ele><time>2026-04-04T17:07:58Z</time></trkpt><trkpt lat="44.5551315753813" lon="11.626545533924588"><ele>11.0</ele><time>2026-04-04T17:07:59Z</time></trkpt><trkpt lat="44.55521256635432" lon="11.626647669494014"><ele>11.0</ele><time>2026-04-04T17:08:00Z</time></trkpt><trkpt lat="44.55529330223423" lon="11.626753128803786"><ele>11.0</ele><time>2026-04-04T17:08:01Z</time></trkpt><trkpt lat="44.555378378638615" lon="11.626860304444524"><ele>11.0</ele><time>2026-04-04T17:08:02Z</time></trkpt><trkpt lat="44.55545666153518" lon="11.626972019280885"><ele>11.0</ele><time>2026-04-04T17:08:03Z</time></trkpt><trkpt lat="44.55553615916331" lon="11.627080775702781"><ele>11.0</ele><time>2026-04-04T17:08:04Z</time></trkpt><trkpt lat="44.55561198499055" lon="11.627184995471753"><ele>11.600000000000001</ele><time>2026-04-04T17:08:05Z</time></trkpt><trkpt lat="44.5556967756841" lon="11.627291549621656"><ele>12.2</ele><time>2026-04-04T17:08:06Z</time></trkpt><trkpt lat="44.55577152298098" lon="11.627401785073474"><ele>12.799999999999999</ele><time>2026-04-04T17:08:07Z</time></trkpt><trkpt lat="44.55584763226581" lon="11.62750954325504"><ele>13.399999999999999</ele><time>2026-04-04T17:08:08Z</time></trkpt><trkpt lat="44.5559278753249" lon="11.627617213296576"><ele>14.0</ele><time>2026-04-04T17:08:09Z</time></trkpt><trkpt lat="44.55600858032399" lon="11.627722822698912"><ele>14.0</ele><time>2026-04-04T17:08:10Z</time></trkpt><trkpt lat="44.556060581760086" lon="11.627828826365151"><ele>13.999999999999998</ele><time>2026-04-04T17:08:11Z</time></trkpt><trkpt lat="44.55614503697027" lon="11.627931488105279"><ele>13.999999999999998</ele><time>2026-04-04T17:08:12Z</time></trkpt><trkpt lat="44.556223038905" lon="11.628041016487929"><ele>14.0</ele><time>2026-04-04T17:08:13Z</time></trkpt><trkpt lat="44.55630436778153" lon="11.628134284010693"><ele>14.0</ele><time>2026-04-04T17:08:14Z</time></trkpt><trkpt lat="44.556382028278165" lon="11.628235312092574"><ele>13.6</ele><time>2026-04-04T17:08:15Z</time></trkpt><trkpt lat="44.556459892712724" lon="11.628335480902177"><ele>13.2</ele><time>2026-04-04T17:08:16Z</time></trkpt><trkpt lat="44.55653911861457" lon="11.628445525544311"><ele>12.799999999999999</ele><time>2026-04-04T17:08:17Z</time></trkpt><trkpt lat="44.55661137847431" lon="11.62855488636112"><ele>12.399999999999999</ele><time>2026-04-04T17:08:18.001Z</time></trkpt><trkpt lat="44.55668338634628" lon="11.628657046815219"><ele>12.0</ele><time>2026-04-04T17:08:19Z</time></trkpt><trkpt lat="44.55676478914102" lon="11.628760223334982"><ele>12.0</ele><time>2026-04-04T17:08:20Z</time></trkpt><trkpt lat="44.55685077765166" lon="11.628860701180598"><ele>12.0</ele><time>2026-04-04T17:08:21Z</time></trkpt><trkpt lat="44.55693098863693" lon="11.628968793998546"><ele>12.0</ele><time>2026-04-04T17:08:22Z</time></trkpt><trkpt lat="44.55701669781655" lon="11.629085569557343"><ele>12.0</ele><time>2026-04-04T17:08:23Z</time></trkpt><trkpt lat="44.55710258275706" lon="11.629203971524687"><ele>12.0</ele><time>2026-04-04T17:08:24Z</time></trkpt><trkpt lat="44.5571966422581" lon="11.629335109851874"><ele>12.0</ele><time>2026-04-04T17:08:25Z</time></trkpt><trkpt lat="44.557285444302195" lon="11.629457967392126"><ele>12.0</ele><time>2026-04-04T17:08:26Z</time></trkpt><trkpt lat="44.55737867237994" lon="11.629591361728366"><ele>12.0</ele><time>2026-04-04T17:08:27Z</time></trkpt><trkpt lat="44.55748573265816" lon="11.629738912344427"><ele>12.0</ele><time>2026-04-04T17:08:28Z</time></trkpt><trkpt lat="44.55758328916002" lon="11.629909752390692"><ele>12.0</ele><time>2026-04-04T17:08:29Z</time></trkpt><trkpt lat="44.55768455007626" lon="11.630065230989139"><ele>12.0</ele><time>2026-04-04T17:08:30Z</time></trkpt><trkpt lat="44.55777187130372" lon="11.630199752026094"><ele>12.0</ele><time>2026-04-04T17:08:31Z</time></trkpt><trkpt lat="44.557856218577584" lon="11.630333617804004"><ele>11.5</ele><time>2026-04-04T17:08:32Z</time></trkpt><trkpt lat="44.55794677357784" lon="11.630458402970303"><ele>11.0</ele><time>2026-04-04T17:08:33Z</time></trkpt><trkpt lat="44.55803448540443" lon="11.63059467328608"><ele>10.5</ele><time>2026-04-04T17:08:34Z</time></trkpt><trkpt lat="44.558115737063694" lon="11.630725900169736"><ele>10.0</ele><time>2026-04-04T17:08:35Z</time></trkpt><trkpt lat="44.55820066525282" lon="11.63085085815411"><ele>10.0</ele><time>2026-04-04T17:08:36Z</time></trkpt><trkpt lat="44.558280676836404" lon="11.630977814348025"><ele>10.0</ele><time>2026-04-04T17:08:37Z</time></trkpt><trkpt lat="44.55835752631375" lon="11.631118603480306"><ele>10.0</ele><time>2026-04-04T17:08:38Z</time></trkpt><trkpt lat="44.55839798061491" lon="11.631278660368265"><ele>10.0</ele><time>2026-04-04T17:08:39Z</time></trkpt><trkpt lat="44.55844646188488" lon="11.631432239382491"><ele>10.25</ele><time>2026-04-04T17:08:40Z</time></trkpt><trkpt lat="44.55850634870293" lon="11.631582156343628"><ele>10.5</ele><time>2026-04-04T17:08:41Z</time></trkpt><trkpt lat="44.55854917619228" lon="11.631737055448328"><ele>10.75</ele><time>2026-04-04T17:08:42Z</time></trkpt><trkpt lat="44.558577030410994" lon="11.631892903365168"><ele>11.0</ele><time>2026-04-04T17:08:43Z</time></trkpt><trkpt lat="44.55862185105697" lon="11.632026649111607"><ele>11.200000000000001</ele><time>2026-04-04T17:08:44Z</time></trkpt><trkpt lat="44.55866626866004" lon="11.632171650264983"><ele>11.4</ele><time>2026-04-04T17:08:45Z</time></trkpt><trkpt lat="44.55871310309564" lon="11.632317738289325"><ele>11.6</ele><time>2026-04-04T17:08:46Z</time></trkpt><trkpt lat="44.55874645688335" lon="11.63246457711131"><ele>11.8</ele><time>2026-04-04T17:08:47Z</time></trkpt><trkpt lat="44.558792038215586" lon="11.632603748077077"><ele>12.0</ele><time>2026-04-04T17:08:48Z</time></trkpt><trkpt lat="44.55883094164384" lon="11.632747540481015"><ele>12.0</ele><time>2026-04-04T17:08:49Z</time></trkpt><trkpt lat="44.558872611106416" lon="11.632892878673859"><ele>12.0</ele><time>2026-04-04T17:08:50Z</time></trkpt><trkpt lat="44.55891353460876" lon="11.63303581102626"><ele>12.0</ele><time>2026-04-04T17:08:51Z</time></trkpt><trkpt lat="44.558952854167266" lon="11.633174225231466"><ele>12.0</ele><time>2026-04-04T17:08:52Z</time></trkpt><trkpt lat="44.55899080876273" lon="11.633300712183285"><ele>12.0</ele><time>2026-04-04T17:08:53Z</time></trkpt><trkpt lat="44.55902481143231" lon="11.633409152388532"><ele>12.0</ele><time>2026-04-04T17:08:54Z</time></trkpt><trkpt lat="44.55905667286834" lon="11.633510174983419"><ele>12.0</ele><time>2026-04-04T17:08:55Z</time></trkpt><trkpt lat="44.55908449519578" lon="11.633598331713118"><ele>12.0</ele><time>2026-04-04T17:08:56Z</time></trkpt><trkpt lat="44.55910400184325" lon="11.633686099335304"><ele>12.0</ele><time>2026-04-04T17:08:57Z</time></trkpt><trkpt lat="44.559137060458525" lon="11.633789609110456"><ele>12.0</ele><time>2026-04-04T17:08:58Z</time></trkpt><trkpt lat="44.559177190799474" lon="11.63390611427542"><ele>12.0</ele><time>2026-04-04T17:08:59Z</time></trkpt><trkpt lat="44.55920375618984" lon="11.634046691206303"><ele>11.75</ele><time>2026-04-04T17:09:00Z</time></trkpt><trkpt lat="44.55924916663138" lon="11.634198947523771"><ele>11.5</ele><time>2026-04-04T17:09:01Z</time></trkpt><trkpt lat="44.55929361187604" lon="11.634352897070102"><ele>11.25</ele><time>2026-04-04T17:09:02Z</time></trkpt><trkpt lat="44.55934433050518" lon="11.634531869963652"><ele>11.0</ele><time>2026-04-04T17:09:03Z</time></trkpt><trkpt lat="44.55939802684516" lon="11.63473313952024"><ele>10.333333333333332</ele><time>2026-04-04T17:09:04Z</time></trkpt><trkpt lat="44.55946465712158" lon="11.634921193379224"><ele>9.666666666666666</ele><time>2026-04-04T17:09:05Z</time></trkpt><trkpt lat="44.5595176610831" lon="11.635126076668064"><ele>9.0</ele><time>2026-04-04T17:09:06Z</time></trkpt><trkpt lat="44.559574684415644" lon="11.635333724985331"><ele>9.0</ele><time>2026-04-04T17:09:07Z</time></trkpt><trkpt lat="44.55961529652105" lon="11.635543537177494"><ele>9.0</ele><time>2026-04-04T17:09:08Z</time></trkpt><trkpt lat="44.55966346595302" lon="11.635722880470196"><ele>9.0</ele><time>2026-04-04T17:09:09Z</time></trkpt><trkpt lat="44.559706591089736" lon="11.63588344310672"><ele>9.0</ele><time>2026-04-04T17:09:10Z</time></trkpt><trkpt lat="44.55975030050685" lon="11.636026694511012"><ele>8.8</ele><time>2026-04-04T17:09:11Z</time></trkpt><trkpt lat="44.559793590977065" lon="11.636167424250184"><ele>8.600000000000001</ele><time>2026-04-04T17:09:12Z</time></trkpt><trkpt lat="44.559828276819005" lon="11.636296239047818"><ele>8.4</ele><time>2026-04-04T17:09:13Z</time></trkpt><trkpt lat="44.5598590478009" lon="11.636416821597955"><ele>8.200000000000001</ele><time>2026-04-04T17:09:14Z</time></trkpt><trkpt lat="44.55988966251778" lon="11.636531650011923"><ele>8.0</ele><time>2026-04-04T17:09:15Z</time></trkpt><trkpt lat="44.55991325752424" lon="11.63662393504512"><ele>8.0</ele><time>2026-04-04T17:09:16Z</time></trkpt><trkpt lat="44.55994037650053" lon="11.636715497462628"><ele>7.999999999999999</ele><time>2026-04-04T17:09:17Z</time></trkpt><trkpt lat="44.55996650179798" lon="11.636811605717993"><ele>8.0</ele><time>2026-04-04T17:09:18Z</time></trkpt><trkpt lat="44.559988551016744" lon="11.636901513571368"><ele>8.0</ele><time>2026-04-04T17:09:19Z</time></trkpt><trkpt lat="44.56001203567067" lon="11.636984552850734"><ele>7.999999999999999</ele><time>2026-04-04T17:09:20Z</time></trkpt><trkpt lat="44.56003722689656" lon="11.637083346783573"><ele>8.0</ele><time>2026-04-04T17:09:21Z</time></trkpt><trkpt lat="44.56006505799099" lon="11.637203333911659"><ele>8.0</ele><time>2026-04-04T17:09:22Z</time></trkpt><trkpt lat="44.560102251120284" lon="11.637336813634887"><ele>8.5</ele><time>2026-04-04T17:09:23Z</time></trkpt><trkpt lat="44.56014222942782" lon="11.637481723503527"><ele>9.0</ele><time>2026-04-04T17:09:24Z</time></trkpt><trkpt lat="44.5601869120954" lon="11.637631172411458"><ele>9.5</ele><time>2026-04-04T17:09:25Z</time></trkpt><trkpt lat="44.560231079282566" lon="11.637817652562168"><ele>10.0</ele><time>2026-04-04T17:09:26Z</time></trkpt><trkpt lat="44.56028732446877" lon="11.638021555723395"><ele>10.0</ele><time>2026-04-04T17:09:27Z</time></trkpt><trkpt lat="44.56034202478172" lon="11.638227837281315"><ele>10.0</ele><time>2026-04-04T17:09:28Z</time></trkpt><trkpt lat="44.56040475649734" lon="11.638450075454434"><ele>10.0</ele><time>2026-04-04T17:09:29Z</time></trkpt><trkpt lat="44.560453493758075" lon="11.638660545990241"><ele>9.75</ele><time>2026-04-04T17:09:30Z</time></trkpt><trkpt lat="44.56050152984558" lon="11.638839140785421"><ele>9.5</ele><time>2026-04-04T17:09:31Z</time></trkpt><trkpt lat="44.56054974345925" lon="11.6390138592836"><ele>9.25</ele><time>2026-04-04T17:09:32Z</time></trkpt><trkpt lat="44.56059396580048" lon="11.639171200328722"><ele>9.0</ele><time>2026-04-04T17:09:33Z</time></trkpt><trkpt lat="44.56063438711722" lon="11.639329547090007"><ele>9.0</ele><time>2026-04-04T17:09:34Z</time></trkpt><trkpt lat="44.56067634112483" lon="11.63949293405754"><ele>9.0</ele><time>2026-04-04T17:09:35Z</time></trkpt><trkpt lat="44.56072996641007" lon="11.639664889868419"><ele>9.0</ele><time>2026-04-04T17:09:36Z</time></trkpt><trkpt lat="44.56078366231699" lon="11.639851904257863"><ele>9.0</ele><time>2026-04-04T17:09:37Z</time></trkpt><trkpt lat="44.56083554088914" lon="11.64004431553378"><ele>9.0</ele><time>2026-04-04T17:09:38Z</time></trkpt><trkpt lat="44.56088812656087" lon="11.640241859815108"><ele>9.0</ele><time>2026-04-04T17:09:39Z</time></trkpt><trkpt lat="44.56094421670813" lon="11.640445355365223"><ele>9.0</ele><time>2026-04-04T17:09:40Z</time></trkpt><trkpt lat="44.560998601260614" lon="11.640651304590005"><ele>8.333333333333334</ele><time>2026-04-04T17:09:41Z</time></trkpt><trkpt lat="44.56105615078037" lon="11.640863457086315"><ele>7.666666666666667</ele><time>2026-04-04T17:09:42Z</time></trkpt><trkpt lat="44.561110610074174" lon="11.641075432496766"><ele>7.0</ele><time>2026-04-04T17:09:43Z</time></trkpt><trkpt lat="44.561169150918865" lon="11.641295976111097"><ele>6.666666666666667</ele><time>2026-04-04T17:09:44Z</time></trkpt><trkpt lat="44.561228046765535" lon="11.641515876010486"><ele>6.333333333333334</ele><time>2026-04-04T17:09:45Z</time></trkpt><trkpt lat="44.561286324640555" lon="11.641727108568922"><ele>6.0</ele><time>2026-04-04T17:09:46Z</time></trkpt><trkpt lat="44.56134234831081" lon="11.641936092664668"><ele>6.333333333333334</ele><time>2026-04-04T17:09:47Z</time></trkpt><trkpt lat="44.56139978305058" lon="11.642152788302"><ele>6.666666666666667</ele><time>2026-04-04T17:09:48Z</time></trkpt><trkpt lat="44.56145838918655" lon="11.642370270378253"><ele>7.0</ele><time>2026-04-04T17:09:49Z</time></trkpt><trkpt lat="44.561516849482466" lon="11.642590582565184"><ele>7.0</ele><time>2026-04-04T17:09:50Z</time></trkpt><trkpt lat="44.56157532731235" lon="11.642818074460601"><ele>7.0</ele><time>2026-04-04T17:09:51Z</time></trkpt><trkpt lat="44.56163759398405" lon="11.643041085893188"><ele>7.0</ele><time>2026-04-04T17:09:52Z</time></trkpt><trkpt lat="44.56170145382973" lon="11.643271984377268"><ele>7.0</ele><time>2026-04-04T17:09:53Z</time></trkpt><trkpt lat="44.56176141684693" lon="11.643495318261717"><ele>7.0</ele><time>2026-04-04T17:09:54Z</time></trkpt><trkpt lat="44.56181572820061" lon="11.643700034981787"><ele>7.0</ele><time>2026-04-04T17:09:55Z</time></trkpt><trkpt lat="44.561865947953756" lon="11.643893875625036"><ele>7.0</ele><time>2026-04-04T17:09:56Z</time></trkpt><trkpt lat="44.561919012080956" lon="11.64408901663505"><ele>7.0</ele><time>2026-04-04T17:09:57Z</time></trkpt><trkpt lat="44.56197319179212" lon="11.644297752959258"><ele>7.0</ele><time>2026-04-04T17:09:58Z</time></trkpt><trkpt lat="44.56203111235324" lon="11.644510477593805"><ele>6.666666666666667</ele><time>2026-04-04T17:09:59Z</time></trkpt><trkpt lat="44.562088221950475" lon="11.644724683485398"><ele>6.333333333333334</ele><time>2026-04-04T17:10:00Z</time></trkpt><trkpt lat="44.56214561377006" lon="11.644943306878034"><ele>6.0</ele><time>2026-04-04T17:10:01Z</time></trkpt><trkpt lat="44.5622070701621" lon="11.645165004834894"><ele>6.0</ele><time>2026-04-04T17:10:02Z</time></trkpt><trkpt lat="44.562272061372816" lon="11.645386571326066"><ele>6.0</ele><time>2026-04-04T17:10:03Z</time></trkpt><trkpt lat="44.562334320151166" lon="11.645612901249828"><ele>6.0</ele><time>2026-04-04T17:10:04Z</time></trkpt><trkpt lat="44.562394017697464" lon="11.645842753276927"><ele>6.0</ele><time>2026-04-04T17:10:05Z</time></trkpt><trkpt lat="44.56245696372489" lon="11.646071082069957"><ele>6.0</ele><time>2026-04-04T17:10:06Z</time></trkpt><trkpt lat="44.562518581858676" lon="11.646303679527632"><ele>6.0</ele><time>2026-04-04T17:10:07Z</time></trkpt><trkpt lat="44.56257849390797" lon="11.646529289826601"><ele>6.0</ele><time>2026-04-04T17:10:08Z</time></trkpt><trkpt lat="44.562639199471654" lon="11.646758192274996"><ele>6.0</ele><time>2026-04-04T17:10:09Z</time></trkpt><trkpt lat="44.562701253032714" lon="11.646982485681416"><ele>6.0</ele><time>2026-04-04T17:10:10Z</time></trkpt><trkpt lat="44.56276624905141" lon="11.647212891039008"><ele>6.0</ele><time>2026-04-04T17:10:11Z</time></trkpt><trkpt lat="44.56283077881336" lon="11.64744139252654"><ele>6.0</ele><time>2026-04-04T17:10:12Z</time></trkpt><trkpt lat="44.562891485494184" lon="11.647666131197447"><ele>6.0</ele><time>2026-04-04T17:10:13Z</time></trkpt><trkpt lat="44.562954421176094" lon="11.647899237201745"><ele>6.333333333333334</ele><time>2026-04-04T17:10:14Z</time></trkpt><trkpt lat="44.563017282647024" lon="11.648132511317325"><ele>6.666666666666667</ele><time>2026-04-04T17:10:15.001Z</time></trkpt><trkpt lat="44.563080514843875" lon="11.648360708779935"><ele>7.0</ele><time>2026-04-04T17:10:16.001Z</time></trkpt><trkpt lat="44.56314429796977" lon="11.648593986757774"><ele>6.666666666666667</ele><time>2026-04-04T17:10:17.001Z</time></trkpt><trkpt lat="44.56319165678126" lon="11.648831210875032"><ele>6.333333333333334</ele><time>2026-04-04T17:10:18.001Z</time></trkpt><trkpt lat="44.56326854405163" lon="11.649055176983671"><ele>6.0</ele><time>2026-04-04T17:10:19.001Z</time></trkpt><trkpt lat="44.56333097521735" lon="11.649287605811102"><ele>5.666666666666667</ele><time>2026-04-04T17:10:20.001Z</time></trkpt><trkpt lat="44.56337660871766" lon="11.649525194107204"><ele>5.333333333333334</ele><time>2026-04-04T17:10:21.001Z</time></trkpt><trkpt lat="44.563437932389725" lon="11.649755722709532"><ele>5.0</ele><time>2026-04-04T17:10:22.001Z</time></trkpt><trkpt lat="44.56349886578168" lon="11.649984784111899"><ele>5.0</ele><time>2026-04-04T17:10:23.001Z</time></trkpt><trkpt lat="44.563575053647305" lon="11.650207439911341"><ele>5.0</ele><time>2026-04-04T17:10:24.001Z</time></trkpt><trkpt lat="44.563635549259835" lon="11.650440860424021"><ele>5.0</ele><time>2026-04-04T17:10:25Z</time></trkpt><trkpt lat="44.56369928968484" lon="11.650677724537541"><ele>5.0</ele><time>2026-04-04T17:10:26Z</time></trkpt><trkpt lat="44.563763669535334" lon="11.650912229039086"><ele>5.0</ele><time>2026-04-04T17:10:27Z</time></trkpt><trkpt lat="44.56382668755784" lon="11.651147557189553"><ele>5.0</ele><time>2026-04-04T17:10:28Z</time></trkpt><trkpt lat="44.563887080835094" lon="11.651379460645988"><ele>5.0</ele><time>2026-04-04T17:10:29Z</time></trkpt><trkpt lat="44.56395164787566" lon="11.651620776127034"><ele>5.0</ele><time>2026-04-04T17:10:30Z</time></trkpt><trkpt lat="44.564016738618484" lon="11.651860178892592"><ele>5.0</ele><time>2026-04-04T17:10:31Z</time></trkpt><trkpt lat="44.56408262325266" lon="11.652107394820709"><ele>5.666666666666667</ele><time>2026-04-04T17:10:32Z</time></trkpt><trkpt lat="44.564148372031525" lon="11.652356491913967"><ele>6.333333333333334</ele><time>2026-04-04T17:10:33Z</time></trkpt><trkpt lat="44.564214580230875" lon="11.652603263482224"><ele>7.0</ele><time>2026-04-04T17:10:34Z</time></trkpt><trkpt lat="44.564281034397744" lon="11.652853228158902"><ele>7.0</ele><time>2026-04-04T17:10:35Z</time></trkpt><trkpt lat="44.564348571930964" lon="11.65310796641325"><ele>7.0</ele><time>2026-04-04T17:10:36Z</time></trkpt><trkpt lat="44.5644153442181" lon="11.653363367895798"><ele>7.0</ele><time>2026-04-04T17:10:37Z</time></trkpt><trkpt lat="44.56448012605247" lon="11.653615251713115"><ele>7.0</ele><time>2026-04-04T17:10:38Z</time></trkpt><trkpt lat="44.56454317058843" lon="11.65386682754814"><ele>7.0</ele><time>2026-04-04T17:10:39Z</time></trkpt><trkpt lat="44.564618819399776" lon="11.654131922760122"><ele>7.0</ele><time>2026-04-04T17:10:40Z</time></trkpt><trkpt lat="44.56467783213266" lon="11.654404751023698"><ele>8.666666666666668</ele><time>2026-04-04T17:10:41Z</time></trkpt><trkpt lat="44.56474837044944" lon="11.654665715351051"><ele>10.333333333333334</ele><time>2026-04-04T17:10:42Z</time></trkpt><trkpt lat="44.56483325361522" lon="11.654917639250822"><ele>12.0</ele><time>2026-04-04T17:10:43Z</time></trkpt><trkpt lat="44.56490388318025" lon="11.6551787886789"><ele>10.666666666666666</ele><time>2026-04-04T17:10:44Z</time></trkpt><trkpt lat="44.56497101316299" lon="11.65543313832201"><ele>9.333333333333332</ele><time>2026-04-04T17:10:45Z</time></trkpt><trkpt lat="44.56503622655914" lon="11.655670308444286"><ele>8.0</ele><time>2026-04-04T17:10:46Z</time></trkpt><trkpt lat="44.56510093159837" lon="11.655912561883145"><ele>7.666666666666666</ele><time>2026-04-04T17:10:47Z</time></trkpt><trkpt lat="44.565156940709834" lon="11.656127924952816"><ele>7.333333333333334</ele><time>2026-04-04T17:10:48Z</time></trkpt><trkpt lat="44.56519752072251" lon="11.656339219602568"><ele>7.0</ele><time>2026-04-04T17:10:49Z</time></trkpt><trkpt lat="44.565249349681075" lon="11.656533833030895"><ele>7.0</ele><time>2026-04-04T17:10:50Z</time></trkpt><trkpt lat="44.56529514383462" lon="11.65670714775729"><ele>7.0</ele><time>2026-04-04T17:10:51Z</time></trkpt><trkpt lat="44.56533795382216" lon="11.656869168333575"><ele>7.0</ele><time>2026-04-04T17:10:52Z</time></trkpt><trkpt lat="44.56537667234673" lon="11.657022726342168"><ele>7.0</ele><time>2026-04-04T17:10:53Z</time></trkpt><trkpt lat="44.565424830627904" lon="11.657146880067886"><ele>7.666666666666667</ele><time>2026-04-04T17:10:54Z</time></trkpt><trkpt lat="44.565445743776344" lon="11.657260756779529"><ele>8.333333333333334</ele><time>2026-04-04T17:10:55Z</time></trkpt><trkpt lat="44.56548159594238" lon="11.65735644668414"><ele>9.0</ele><time>2026-04-04T17:10:56Z</time></trkpt><trkpt lat="44.565523448361084" lon="11.657437127082714"><ele>9.666666666666666</ele><time>2026-04-04T17:10:57Z</time></trkpt><trkpt lat="44.565595396664946" lon="11.657493807927628"><ele>10.333333333333332</ele><time>2026-04-04T17:10:58Z</time></trkpt><trkpt lat="44.56568752559457" lon="11.657507275139068"><ele>11.0</ele><time>2026-04-04T17:10:59Z</time></trkpt><trkpt lat="44.565784574665855" lon="11.657483232619263"><ele>11.0</ele><time>2026-04-04T17:11:00Z</time></trkpt><trkpt lat="44.56589693365002" lon="11.65741688745735"><ele>11.0</ele><time>2026-04-04T17:11:01Z</time></trkpt><trkpt lat="44.56601820315616" lon="11.657351105628019"><ele>11.0</ele><time>2026-04-04T17:11:02Z</time></trkpt><trkpt lat="44.56614772022487" lon="11.657292845998182"><ele>11.0</ele><time>2026-04-04T17:11:03Z</time></trkpt><trkpt lat="44.56628069908874" lon="11.65722462476348"><ele>11.333333333333332</ele><time>2026-04-04T17:11:04Z</time></trkpt><trkpt lat="44.5664260147917" lon="11.657155995479554"><ele>11.666666666666666</ele><time>2026-04-04T17:11:05Z</time></trkpt><trkpt lat="44.56657296753925" lon="11.657092979406546"><ele>12.0</ele><time>2026-04-04T17:11:06Z</time></trkpt><trkpt lat="44.56672402760594" lon="11.657026267143593"><ele>11.0</ele><time>2026-04-04T17:11:07Z</time></trkpt><trkpt lat="44.56688555118856" lon="11.65695006950133"><ele>10.0</ele><time>2026-04-04T17:11:08Z</time></trkpt><trkpt lat="44.56706124805501" lon="11.656862343478346"><ele>9.0</ele><time>2026-04-04T17:11:09Z</time></trkpt><trkpt lat="44.56725062962443" lon="11.656773797812749"><ele>9.0</ele><time>2026-04-04T17:11:10Z</time></trkpt><trkpt lat="44.56743520470046" lon="11.65669147187858"><ele>9.0</ele><time>2026-04-04T17:11:11Z</time></trkpt><trkpt lat="44.56759886830978" lon="11.6566142225372"><ele>9.0</ele><time>2026-04-04T17:11:12Z</time></trkpt><trkpt lat="44.56774807828499" lon="11.656543623736699"><ele>8.75</ele><time>2026-04-04T17:11:13Z</time></trkpt><trkpt lat="44.567887328621616" lon="11.65647766543486"><ele>8.5</ele><time>2026-04-04T17:11:14Z</time></trkpt><trkpt lat="44.56801886985564" lon="11.65642240551491"><ele>8.25</ele><time>2026-04-04T17:11:15Z</time></trkpt><trkpt lat="44.568138752396464" lon="11.6563725256071"><ele>8.0</ele><time>2026-04-04T17:11:16Z</time></trkpt><trkpt lat="44.56827073646896" lon="11.656311366259553"><ele>8.0</ele><time>2026-04-04T17:11:17Z</time></trkpt><trkpt lat="44.56840570684639" lon="11.656252692400434"><ele>8.0</ele><time>2026-04-04T17:11:18Z</time></trkpt><trkpt lat="44.56853881480055" lon="11.656189622227403"><ele>8.0</ele><time>2026-04-04T17:11:19Z</time></trkpt><trkpt lat="44.56866841568538" lon="11.65612716021732"><ele>8.0</ele><time>2026-04-04T17:11:20Z</time></trkpt><trkpt lat="44.56880094620215" lon="11.656065457274886"><ele>8.0</ele><time>2026-04-04T17:11:21Z</time></trkpt><trkpt lat="44.56893201385279" lon="11.656002377187162"><ele>8.0</ele><time>2026-04-04T17:11:22Z</time></trkpt><trkpt lat="44.56906552889023" lon="11.655934472458101"><ele>8.0</ele><time>2026-04-04T17:11:23Z</time></trkpt><trkpt lat="44.56919625667715" lon="11.65587061806004"><ele>8.0</ele><time>2026-04-04T17:11:24Z</time></trkpt><trkpt lat="44.56932042269297" lon="11.655811286572547"><ele>8.0</ele><time>2026-04-04T17:11:25Z</time></trkpt><trkpt lat="44.56944766116579" lon="11.655758950516722"><ele>8.0</ele><time>2026-04-04T17:11:26Z</time></trkpt><trkpt lat="44.56958588937573" lon="11.65572705983665"><ele>8.0</ele><time>2026-04-04T17:11:27Z</time></trkpt><trkpt lat="44.56973308135147" lon="11.655712727990599"><ele>8.0</ele><time>2026-04-04T17:11:28Z</time></trkpt><trkpt lat="44.56988374435733" lon="11.655728133198977"><ele>9.0</ele><time>2026-04-04T17:11:29Z</time></trkpt><trkpt lat="44.570031724993164" lon="11.655774497593038"><ele>10.0</ele><time>2026-04-04T17:11:30Z</time></trkpt><trkpt lat="44.57016916569674" lon="11.655827939566272"><ele>11.0</ele><time>2026-04-04T17:11:31Z</time></trkpt><trkpt lat="44.57030752222548" lon="11.655887141591743"><ele>12.0</ele><time>2026-04-04T17:11:32Z</time></trkpt><trkpt lat="44.570441428038734" lon="11.655942108910038"><ele>12.0</ele><time>2026-04-04T17:11:33Z</time></trkpt><trkpt lat="44.57057437917815" lon="11.655990069635699"><ele>12.0</ele><time>2026-04-04T17:11:34Z</time></trkpt><trkpt lat="44.570703545042434" lon="11.656032061783282"><ele>12.0</ele><time>2026-04-04T17:11:35Z</time></trkpt><trkpt lat="44.570817231684686" lon="11.656078123153131"><ele>12.0</ele><time>2026-04-04T17:11:36Z</time></trkpt><trkpt lat="44.57092687805599" lon="11.65611262001378"><ele>11.75</ele><time>2026-04-04T17:11:37Z</time></trkpt><trkpt lat="44.57104453818543" lon="11.656161635219966"><ele>11.5</ele><time>2026-04-04T17:11:38Z</time></trkpt><trkpt lat="44.571151554549125" lon="11.656198349843306"><ele>11.25</ele><time>2026-04-04T17:11:39Z</time></trkpt><trkpt lat="44.5712797786682" lon="11.65622250868972"><ele>11.0</ele><time>2026-04-04T17:11:40Z</time></trkpt><trkpt lat="44.5714120611833" lon="11.656263798466608"><ele>11.0</ele><time>2026-04-04T17:11:41Z</time></trkpt><trkpt lat="44.57154659603534" lon="11.65630814246009"><ele>11.0</ele><time>2026-04-04T17:11:42Z</time></trkpt><trkpt lat="44.57169376036819" lon="11.656357276599655"><ele>11.0</ele><time>2026-04-04T17:11:43Z</time></trkpt><trkpt lat="44.57183797019973" lon="11.656405524028298"><ele>11.0</ele><time>2026-04-04T17:11:44Z</time></trkpt><trkpt lat="44.57197631181655" lon="11.656454733372188"><ele>11.666666666666666</ele><time>2026-04-04T17:11:45Z</time></trkpt><trkpt lat="44.57211966993593" lon="11.65650474553552"><ele>12.333333333333332</ele><time>2026-04-04T17:11:46Z</time></trkpt><trkpt lat="44.57226521035223" lon="11.656558802531462"><ele>13.0</ele><time>2026-04-04T17:11:47Z</time></trkpt><trkpt lat="44.57242474121208" lon="11.656607993825826"><ele>13.0</ele><time>2026-04-04T17:11:48Z</time></trkpt><trkpt lat="44.572584825387544" lon="11.656663274538339"><ele>13.0</ele><time>2026-04-04T17:11:49Z</time></trkpt><trkpt lat="44.572748169513524" lon="11.656714712019406"><ele>13.0</ele><time>2026-04-04T17:11:50Z</time></trkpt><trkpt lat="44.572904950192225" lon="11.656764384684223"><ele>12.666666666666666</ele><time>2026-04-04T17:11:51Z</time></trkpt><trkpt lat="44.57306011364631" lon="11.656814491467975"><ele>12.333333333333332</ele><time>2026-04-04T17:11:52Z</time></trkpt><trkpt lat="44.57320759364765" lon="11.65686367055819"><ele>12.0</ele><time>2026-04-04T17:11:53Z</time></trkpt><trkpt lat="44.57335040703682" lon="11.656907799474533"><ele>12.0</ele><time>2026-04-04T17:11:54Z</time></trkpt><trkpt lat="44.5734939273465" lon="11.656947630557259"><ele>12.0</ele><time>2026-04-04T17:11:55Z</time></trkpt><trkpt lat="44.57362753698293" lon="11.656983962712877"><ele>12.0</ele><time>2026-04-04T17:11:56Z</time></trkpt><trkpt lat="44.573763598598966" lon="11.657018592242274"><ele>12.0</ele><time>2026-04-04T17:11:57Z</time></trkpt><trkpt lat="44.57390146012775" lon="11.657057566974752"><ele>12.0</ele><time>2026-04-04T17:11:58Z</time></trkpt><trkpt lat="44.57404338644705" lon="11.657092512615764"><ele>12.0</ele><time>2026-04-04T17:11:59Z</time></trkpt><trkpt lat="44.57418742919949" lon="11.657128698781008"><ele>12.0</ele><time>2026-04-04T17:12:00Z</time></trkpt><trkpt lat="44.57432948960331" lon="11.657178900560263"><ele>12.0</ele><time>2026-04-04T17:12:01Z</time></trkpt><trkpt lat="44.57446158718783" lon="11.657254656035722"><ele>11.25</ele><time>2026-04-04T17:12:02Z</time></trkpt><trkpt lat="44.57456886974636" lon="11.657368880201672"><ele>10.5</ele><time>2026-04-04T17:12:03Z</time></trkpt><trkpt lat="44.57468010458549" lon="11.657456766204433"><ele>9.75</ele><time>2026-04-04T17:12:04Z</time></trkpt><trkpt lat="44.57476995766049" lon="11.657557661072799"><ele>9.0</ele><time>2026-04-04T17:12:05Z</time></trkpt><trkpt lat="44.57486079466946" lon="11.65765199009548"><ele>9.0</ele><time>2026-04-04T17:12:06Z</time></trkpt><trkpt lat="44.57495545879228" lon="11.657746007118773"><ele>9.0</ele><time>2026-04-04T17:12:07.001Z</time></trkpt><trkpt lat="44.57504324271604" lon="11.657834781091184"><ele>9.0</ele><time>2026-04-04T17:12:08.001Z</time></trkpt><trkpt lat="44.57512594994068" lon="11.657920931904794"><ele>9.0</ele><time>2026-04-04T17:12:09.001Z</time></trkpt><trkpt lat="44.575212068277885" lon="11.658016131363883"><ele>9.0</ele><time>2026-04-04T17:12:10.001Z</time></trkpt><trkpt lat="44.57530586059341" lon="11.658125313906083"><ele>9.0</ele><time>2026-04-04T17:12:11.001Z</time></trkpt><trkpt lat="44.57541501124402" lon="11.658236388948302"><ele>9.0</ele><time>2026-04-04T17:12:12.001Z</time></trkpt><trkpt lat="44.57553606694856" lon="11.65835014395265"><ele>9.0</ele><time>2026-04-04T17:12:13.001Z</time></trkpt><trkpt lat="44.57565620617454" lon="11.658482793718733"><ele>9.0</ele><time>2026-04-04T17:12:14.001Z</time></trkpt><trkpt lat="44.57577850285558" lon="11.658609215429433"><ele>9.0</ele><time>2026-04-04T17:12:15.001Z</time></trkpt><trkpt lat="44.575896086073314" lon="11.658731559146787"><ele>9.0</ele><time>2026-04-04T17:12:16.001Z</time></trkpt><trkpt lat="44.57601548175166" lon="11.658853288351184"><ele>9.0</ele><time>2026-04-04T17:12:17.001Z</time></trkpt><trkpt lat="44.57613281660301" lon="11.65897343375359"><ele>9.0</ele><time>2026-04-04T17:12:18.001Z</time></trkpt><trkpt lat="44.57624948415699" lon="11.659100576169847"><ele>8.75</ele><time>2026-04-04T17:12:19.001Z</time></trkpt><trkpt lat="44.57636585456059" lon="11.65921825920286"><ele>8.5</ele><time>2026-04-04T17:12:20.001Z</time></trkpt><trkpt lat="44.576487768552575" lon="11.659341966754393"><ele>8.25</ele><time>2026-04-04T17:12:21.001Z</time></trkpt><trkpt lat="44.57661000193628" lon="11.65946626239043"><ele>8.0</ele><time>2026-04-04T17:12:22.001Z</time></trkpt><trkpt lat="44.57673232614849" lon="11.659592759240002"><ele>8.333333333333332</ele><time>2026-04-04T17:12:23.001Z</time></trkpt><trkpt lat="44.576859647545184" lon="11.659721454390649"><ele>8.666666666666666</ele><time>2026-04-04T17:12:24.001Z</time></trkpt><trkpt lat="44.57698586768006" lon="11.659847903491139"><ele>9.0</ele><time>2026-04-04T17:12:25.001Z</time></trkpt><trkpt lat="44.57710828576421" lon="11.659968439569798"><ele>9.0</ele><time>2026-04-04T17:12:26.001Z</time></trkpt><trkpt lat="44.57723104953485" lon="11.660094929566284"><ele>9.0</ele><time>2026-04-04T17:12:27.001Z</time></trkpt><trkpt lat="44.57736131957987" lon="11.660220394916923"><ele>9.0</ele><time>2026-04-04T17:12:28.001Z</time></trkpt><trkpt lat="44.57748782938279" lon="11.660343555404095"><ele>9.0</ele><time>2026-04-04T17:12:29.001Z</time></trkpt><trkpt lat="44.57761977809161" lon="11.660474974014152"><ele>9.0</ele><time>2026-04-04T17:12:30.001Z</time></trkpt><trkpt lat="44.57775444027491" lon="11.660610276599868"><ele>9.0</ele><time>2026-04-04T17:12:31Z</time></trkpt><trkpt lat="44.57789944884322" lon="11.660744683920782"><ele>8.666666666666666</ele><time>2026-04-04T17:12:32Z</time></trkpt><trkpt lat="44.57804140918273" lon="11.660873749351895"><ele>8.333333333333332</ele><time>2026-04-04T17:12:33Z</time></trkpt><trkpt lat="44.578173799033216" lon="11.661002531808448"><ele>8.0</ele><time>2026-04-04T17:12:34Z</time></trkpt><trkpt lat="44.57832038514748" lon="11.661129842942476"><ele>8.0</ele><time>2026-04-04T17:12:35Z</time></trkpt><trkpt lat="44.578472236649496" lon="11.661269520943982"><ele>8.0</ele><time>2026-04-04T17:12:36Z</time></trkpt><trkpt lat="44.57862275033717" lon="11.66141047710749"><ele>8.0</ele><time>2026-04-04T17:12:37Z</time></trkpt><trkpt lat="44.578769072419206" lon="11.66154471334356"><ele>8.0</ele><time>2026-04-04T17:12:38Z</time></trkpt><trkpt lat="44.578919528041524" lon="11.66168566307065"><ele>8.0</ele><time>2026-04-04T17:12:39Z</time></trkpt><trkpt lat="44.579068975012596" lon="11.661825852839184"><ele>8.0</ele><time>2026-04-04T17:12:40Z</time></trkpt><trkpt lat="44.57921601395664" lon="11.661963764615937"><ele>8.0</ele><time>2026-04-04T17:12:41Z</time></trkpt><trkpt lat="44.57936219497197" lon="11.662097717300748"><ele>8.0</ele><time>2026-04-04T17:12:42Z</time></trkpt><trkpt lat="44.57950524175756" lon="11.662233285029059"><ele>8.0</ele><time>2026-04-04T17:12:43Z</time></trkpt><trkpt lat="44.57965285615913" lon="11.662372948240408"><ele>8.0</ele><time>2026-04-04T17:12:44Z</time></trkpt><trkpt lat="44.57979817430484" lon="11.662506088774453"><ele>8.0</ele><time>2026-04-04T17:12:45Z</time></trkpt><trkpt lat="44.57994456363005" lon="11.662639656216294"><ele>8.0</ele><time>2026-04-04T17:12:46Z</time></trkpt><trkpt lat="44.580088402212176" lon="11.662772780845401"><ele>8.333333333333332</ele><time>2026-04-04T17:12:47Z</time></trkpt><trkpt lat="44.58023555959177" lon="11.662909785068928"><ele>8.666666666666666</ele><time>2026-04-04T17:12:48Z</time></trkpt><trkpt lat="44.58037820541675" lon="11.663048738464816"><ele>9.0</ele><time>2026-04-04T17:12:49Z</time></trkpt><trkpt lat="44.58052511548592" lon="11.663184895939843"><ele>8.666666666666666</ele><time>2026-04-04T17:12:50Z</time></trkpt><trkpt lat="44.58067372538744" lon="11.66332277086135"><ele>8.333333333333332</ele><time>2026-04-04T17:12:51Z</time></trkpt><trkpt lat="44.580839588248665" lon="11.663476164080826"><ele>8.0</ele><time>2026-04-04T17:12:52Z</time></trkpt><trkpt lat="44.5809820232718" lon="11.663614156585373"><ele>8.0</ele><time>2026-04-04T17:12:53Z</time></trkpt><trkpt lat="44.581135624371285" lon="11.66375615407238"><ele>8.0</ele><time>2026-04-04T17:12:54Z</time></trkpt><trkpt lat="44.581286553446255" lon="11.663900060976697"><ele>8.0</ele><time>2026-04-04T17:12:55Z</time></trkpt><trkpt lat="44.581436412378125" lon="11.664043705998663"><ele>8.333333333333332</ele><time>2026-04-04T17:12:56Z</time></trkpt><trkpt lat="44.58158308263539" lon="11.664184065895219"><ele>8.666666666666666</ele><time>2026-04-04T17:12:57Z</time></trkpt><trkpt lat="44.581735217284944" lon="11.664325065786125"><ele>9.0</ele><time>2026-04-04T17:12:58Z</time></trkpt><trkpt lat="44.581877731735666" lon="11.664457795933792"><ele>9.333333333333334</ele><time>2026-04-04T17:12:59Z</time></trkpt><trkpt lat="44.58201382027246" lon="11.66458271853522"><ele>9.666666666666668</ele><time>2026-04-04T17:13:00Z</time></trkpt><trkpt lat="44.5821473882063" lon="11.664707311275293"><ele>10.0</ele><time>2026-04-04T17:13:01Z</time></trkpt><trkpt lat="44.58227093860451" lon="11.66482530198189"><ele>9.25</ele><time>2026-04-04T17:13:02Z</time></trkpt><trkpt lat="44.58239147144516" lon="11.664938372696405"><ele>8.5</ele><time>2026-04-04T17:13:03Z</time></trkpt><trkpt lat="44.58251414779667" lon="11.6650535680649"><ele>7.75</ele><time>2026-04-04T17:13:04Z</time></trkpt><trkpt lat="44.58264358830211" lon="11.665170544968142"><ele>7.0</ele><time>2026-04-04T17:13:05Z</time></trkpt><trkpt lat="44.58277351928724" lon="11.665286131088763"><ele>7.5</ele><time>2026-04-04T17:13:06Z</time></trkpt><trkpt lat="44.58290198215871" lon="11.665409066280075"><ele>8.0</ele><time>2026-04-04T17:13:07Z</time></trkpt><trkpt lat="44.583025885270516" lon="11.665527230379356"><ele>8.5</ele><time>2026-04-04T17:13:08Z</time></trkpt><trkpt lat="44.58313844496605" lon="11.66563086057939"><ele>9.0</ele><time>2026-04-04T17:13:09Z</time></trkpt><trkpt lat="44.58324370084616" lon="11.665728430031926"><ele>9.0</ele><time>2026-04-04T17:13:10Z</time></trkpt><trkpt lat="44.583336448100354" lon="11.665819449902061"><ele>9.0</ele><time>2026-04-04T17:13:11Z</time></trkpt><trkpt lat="44.58342375598857" lon="11.665900875330736"><ele>9.0</ele><time>2026-04-04T17:13:12Z</time></trkpt><trkpt lat="44.58350542504769" lon="11.665978954343275"><ele>9.0</ele><time>2026-04-04T17:13:13Z</time></trkpt><trkpt lat="44.583585905083915" lon="11.666049724963203"><ele>9.0</ele><time>2026-04-04T17:13:14Z</time></trkpt><trkpt lat="44.583654787711794" lon="11.666114394950373"><ele>8.833333333333334</ele><time>2026-04-04T17:13:15Z</time></trkpt><trkpt lat="44.5837124600355" lon="11.666172441944605"><ele>8.666666666666666</ele><time>2026-04-04T17:13:16Z</time></trkpt><trkpt lat="44.583812267821045" lon="11.666259415723912"><ele>8.5</ele><time>2026-04-04T17:13:18Z</time></trkpt><trkpt lat="44.583892399406885" lon="11.666325991361509"><ele>8.333333333333332</ele><time>2026-04-04T17:13:20Z</time></trkpt><trkpt lat="44.58394986387358" lon="11.666364422581749"><ele>8.166666666666666</ele><time>2026-04-04T17:13:22Z</time></trkpt><trkpt lat="44.58402532368288" lon="11.666398802170484"><ele>8.0</ele><time>2026-04-04T17:13:25Z</time></trkpt><trkpt lat="44.58410935259966" lon="11.666236855729725"><ele>8.0</ele><time>2026-04-04T17:13:27Z</time></trkpt><trkpt lat="44.58412758015255" lon="11.666124685927153"><ele>8.0</ele><time>2026-04-04T17:13:28Z</time></trkpt><trkpt lat="44.584144592067254" lon="11.665994608078114"><ele>8.0</ele><time>2026-04-04T17:13:29Z</time></trkpt><trkpt lat="44.58417273190365" lon="11.665865406865814"><ele>8.0</ele><time>2026-04-04T17:13:30Z</time></trkpt><trkpt lat="44.584212648947016" lon="11.665704635613757"><ele>8.0</ele><time>2026-04-04T17:13:31Z</time></trkpt><trkpt lat="44.58425102466509" lon="11.665529246771598"><ele>8.0</ele><time>2026-04-04T17:13:32Z</time></trkpt><trkpt lat="44.58429026792756" lon="11.66534661358874"><ele>8.0</ele><time>2026-04-04T17:13:33Z</time></trkpt><trkpt lat="44.58433653995976" lon="11.66514049195762"><ele>8.0</ele><time>2026-04-04T17:13:34Z</time></trkpt><trkpt lat="44.584387833051444" lon="11.664917029582273"><ele>8.0</ele><time>2026-04-04T17:13:35Z</time></trkpt><trkpt lat="44.584440460596845" lon="11.664688439942518"><ele>8.0</ele><time>2026-04-04T17:13:36Z</time></trkpt><trkpt lat="44.58448633409405" lon="11.6644839205307"><ele>8.0</ele><time>2026-04-04T17:13:37Z</time></trkpt><trkpt lat="44.584526560472625" lon="11.664298828992086"><ele>8.200000000000001</ele><time>2026-04-04T17:13:38Z</time></trkpt><trkpt lat="44.58456105517995" lon="11.664142429831445"><ele>8.4</ele><time>2026-04-04T17:13:39Z</time></trkpt><trkpt lat="44.58459304401278" lon="11.663999410886081"><ele>8.600000000000001</ele><time>2026-04-04T17:13:40Z</time></trkpt><trkpt lat="44.58461449327416" lon="11.663889185818592"><ele>8.8</ele><time>2026-04-04T17:13:41Z</time></trkpt><trkpt lat="44.58463794971821" lon="11.663804101011685"><ele>9.0</ele><time>2026-04-04T17:13:42Z</time></trkpt><trkpt lat="44.58468345363739" lon="11.663690436645977"><ele>9.0</ele><time>2026-04-04T17:13:44.001Z</time></trkpt><trkpt lat="44.58481361245933" lon="11.663732297047785"><ele>9.0</ele><time>2026-04-04T17:13:45.001Z</time></trkpt><trkpt lat="44.584909564379394" lon="11.663785649441985"><ele>9.0</ele><time>2026-04-04T17:13:46.001Z</time></trkpt><trkpt lat="44.58500680665671" lon="11.663837785279512"><ele>9.0</ele><time>2026-04-04T17:13:47.001Z</time></trkpt><trkpt lat="44.58511483867137" lon="11.66388992328615"><ele>9.0</ele><time>2026-04-04T17:13:48.001Z</time></trkpt><trkpt lat="44.58523662136457" lon="11.663946644965668"><ele>9.0</ele><time>2026-04-04T17:13:49.001Z</time></trkpt><trkpt lat="44.58535562347733" lon="11.6639999077071"><ele>9.0</ele><time>2026-04-04T17:13:50.001Z</time></trkpt><trkpt lat="44.58547061215271" lon="11.664053444186674"><ele>9.0</ele><time>2026-04-04T17:13:51.001Z</time></trkpt><trkpt lat="44.58559563978656" lon="11.664114034907909"><ele>8.75</ele><time>2026-04-04T17:13:52.001Z</time></trkpt><trkpt lat="44.58573186678575" lon="11.664178483606836"><ele>8.5</ele><time>2026-04-04T17:13:53.001Z</time></trkpt><trkpt lat="44.585864826043895" lon="11.664238372936147"><ele>8.25</ele><time>2026-04-04T17:13:54.001Z</time></trkpt><trkpt lat="44.58600337308828" lon="11.664299958776912"><ele>8.0</ele><time>2026-04-04T17:13:55.001Z</time></trkpt><trkpt lat="44.586141874793505" lon="11.664361191185817"><ele>8.25</ele><time>2026-04-04T17:13:56.001Z</time></trkpt><trkpt lat="44.58628126862832" lon="11.664425044157392"><ele>8.5</ele><time>2026-04-04T17:13:57.001Z</time></trkpt><trkpt lat="44.58641795252149" lon="11.664490747946566"><ele>8.75</ele><time>2026-04-04T17:13:58.001Z</time></trkpt><trkpt lat="44.58655441354835" lon="11.664556635334366"><ele>9.0</ele><time>2026-04-04T17:13:59.001Z</time></trkpt><trkpt lat="44.58668570014465" lon="11.66461617579082"><ele>9.0</ele><time>2026-04-04T17:14:00.001Z</time></trkpt><trkpt lat="44.586807401882105" lon="11.664672238799504"><ele>9.0</ele><time>2026-04-04T17:14:01.001Z</time></trkpt><trkpt lat="44.58693248525527" lon="11.664733530740335"><ele>9.0</ele><time>2026-04-04T17:14:02.001Z</time></trkpt><trkpt lat="44.587066540010674" lon="11.664798098305996"><ele>9.0</ele><time>2026-04-04T17:14:03.001Z</time></trkpt><trkpt lat="44.58720481932979" lon="11.664864265982272"><ele>9.0</ele><time>2026-04-04T17:14:04.001Z</time></trkpt><trkpt lat="44.5873515667263" lon="11.664931172893962"><ele>9.0</ele><time>2026-04-04T17:14:05.001Z</time></trkpt><trkpt lat="44.58750179812262" lon="11.665000059655096"><ele>9.0</ele><time>2026-04-04T17:14:06.001Z</time></trkpt><trkpt lat="44.58765290090659" lon="11.665068506911211"><ele>9.0</ele><time>2026-04-04T17:14:07.001Z</time></trkpt><trkpt lat="44.587800022447325" lon="11.665138973543952"><ele>9.0</ele><time>2026-04-04T17:14:08.001Z</time></trkpt><trkpt lat="44.5879559835999" lon="11.665212627991135"><ele>9.0</ele><time>2026-04-04T17:14:09.001Z</time></trkpt><trkpt lat="44.588122653216395" lon="11.665290683877421"><ele>9.0</ele><time>2026-04-04T17:14:10.001Z</time></trkpt><trkpt lat="44.588292226300595" lon="11.665368606097003"><ele>9.0</ele><time>2026-04-04T17:14:11.001Z</time></trkpt><trkpt lat="44.58846405968368" lon="11.66544580671084"><ele>9.0</ele><time>2026-04-04T17:14:12.001Z</time></trkpt><trkpt lat="44.588625912109784" lon="11.6655234933692"><ele>8.666666666666666</ele><time>2026-04-04T17:14:13.001Z</time></trkpt><trkpt lat="44.58878851449397" lon="11.665601929893395"><ele>8.333333333333332</ele><time>2026-04-04T17:14:14.001Z</time></trkpt><trkpt lat="44.58895027125744" lon="11.66567787490373"><ele>8.0</ele><time>2026-04-04T17:14:15.001Z</time></trkpt><trkpt lat="44.589110985661314" lon="11.665751462413168"><ele>8.0</ele><time>2026-04-04T17:14:16.001Z</time></trkpt><trkpt lat="44.58926583645606" lon="11.665823181279336"><ele>8.0</ele><time>2026-04-04T17:14:17.001Z</time></trkpt><trkpt lat="44.589419541933154" lon="11.66589537063768"><ele>8.0</ele><time>2026-04-04T17:14:18.001Z</time></trkpt><trkpt lat="44.58957043044661" lon="11.665967853563824"><ele>8.0</ele><time>2026-04-04T17:14:19.001Z</time></trkpt><trkpt lat="44.58972733820677" lon="11.666041527991425"><ele>8.0</ele><time>2026-04-04T17:14:20.001Z</time></trkpt><trkpt lat="44.589885989723065" lon="11.666115719171009"><ele>8.0</ele><time>2026-04-04T17:14:21.001Z</time></trkpt><trkpt lat="44.59004239977608" lon="11.666188173998664"><ele>8.0</ele><time>2026-04-04T17:14:22.001Z</time></trkpt><trkpt lat="44.59020237140153" lon="11.666263061801043"><ele>8.0</ele><time>2026-04-04T17:14:23.001Z</time></trkpt><trkpt lat="44.590364455476276" lon="11.666337776558374"><ele>8.0</ele><time>2026-04-04T17:14:24.001Z</time></trkpt><trkpt lat="44.590527921847325" lon="11.666410951954704"><ele>8.0</ele><time>2026-04-04T17:14:25.001Z</time></trkpt><trkpt lat="44.59069221291297" lon="11.666486625597956"><ele>8.0</ele><time>2026-04-04T17:14:26.001Z</time></trkpt><trkpt lat="44.59086355376818" lon="11.666567086270666"><ele>8.0</ele><time>2026-04-04T17:14:27.001Z</time></trkpt><trkpt lat="44.59103517639038" lon="11.666641551688556"><ele>8.0</ele><time>2026-04-04T17:14:28.001Z</time></trkpt><trkpt lat="44.59121043127114" lon="11.66671650444018"><ele>8.0</ele><time>2026-04-04T17:14:29.001Z</time></trkpt><trkpt lat="44.591387461259345" lon="11.666785406214977"><ele>8.0</ele><time>2026-04-04T17:14:30.001Z</time></trkpt><trkpt lat="44.59155541786058" lon="11.666847298919773"><ele>8.0</ele><time>2026-04-04T17:14:31.001Z</time></trkpt><trkpt lat="44.59172208073873" lon="11.66691283690956"><ele>8.0</ele><time>2026-04-04T17:14:32.001Z</time></trkpt><trkpt lat="44.59188776537741" lon="11.66697962793964"><ele>8.0</ele><time>2026-04-04T17:14:33.001Z</time></trkpt><trkpt lat="44.592055522713835" lon="11.667045930554355"><ele>7.666666666666666</ele><time>2026-04-04T17:14:34.001Z</time></trkpt><trkpt lat="44.592219432351676" lon="11.667109020812111"><ele>7.333333333333334</ele><time>2026-04-04T17:14:35.001Z</time></trkpt><trkpt lat="44.59238155463507" lon="11.66716945075709"><ele>7.0</ele><time>2026-04-04T17:14:36.001Z</time></trkpt><trkpt lat="44.592546766067706" lon="11.667235942310342"><ele>7.0</ele><time>2026-04-04T17:14:37Z</time></trkpt><trkpt lat="44.592710159885335" lon="11.667299051511845"><ele>7.0</ele><time>2026-04-04T17:14:38Z</time></trkpt><trkpt lat="44.59287964044166" lon="11.667364944432881"><ele>7.0</ele><time>2026-04-04T17:14:39Z</time></trkpt><trkpt lat="44.59304508091457" lon="11.667429150652913"><ele>7.666666666666667</ele><time>2026-04-04T17:14:40Z</time></trkpt><trkpt lat="44.593214105519024" lon="11.667492735404867"><ele>8.333333333333334</ele><time>2026-04-04T17:14:41Z</time></trkpt><trkpt lat="44.59338066543998" lon="11.667555167573976"><ele>9.0</ele><time>2026-04-04T17:14:42Z</time></trkpt><trkpt lat="44.59355156024207" lon="11.667619938835188"><ele>9.0</ele><time>2026-04-04T17:14:43Z</time></trkpt><trkpt lat="44.59372252497544" lon="11.667687507591724"><ele>9.0</ele><time>2026-04-04T17:14:44Z</time></trkpt><trkpt lat="44.593890076547765" lon="11.667750836196598"><ele>9.0</ele><time>2026-04-04T17:14:45Z</time></trkpt><trkpt lat="44.59406287934255" lon="11.667816160204795"><ele>8.333333333333334</ele><time>2026-04-04T17:14:46Z</time></trkpt><trkpt lat="44.59423182469455" lon="11.66788228822154"><ele>7.666666666666667</ele><time>2026-04-04T17:14:47Z</time></trkpt><trkpt lat="44.594400685559414" lon="11.667945736717623"><ele>7.0</ele><time>2026-04-04T17:14:48Z</time></trkpt><trkpt lat="44.59457310235595" lon="11.66801318482126"><ele>6.666666666666667</ele><time>2026-04-04T17:14:49Z</time></trkpt><trkpt lat="44.594744115465524" lon="11.668079650391489"><ele>6.333333333333334</ele><time>2026-04-04T17:14:50Z</time></trkpt><trkpt lat="44.594922461359815" lon="11.66814884413222"><ele>6.0</ele><time>2026-04-04T17:14:51Z</time></trkpt><trkpt lat="44.59509893470281" lon="11.66821326479849"><ele>6.0</ele><time>2026-04-04T17:14:52Z</time></trkpt><trkpt lat="44.5952757120016" lon="11.668282229878614"><ele>6.0</ele><time>2026-04-04T17:14:53Z</time></trkpt><trkpt lat="44.59544833007317" lon="11.66834899590174"><ele>6.0</ele><time>2026-04-04T17:14:54Z</time></trkpt><trkpt lat="44.59561317027412" lon="11.668415722857143"><ele>6.0</ele><time>2026-04-04T17:14:55Z</time></trkpt><trkpt lat="44.595782746013384" lon="11.668484731298355"><ele>6.0</ele><time>2026-04-04T17:14:56Z</time></trkpt><trkpt lat="44.59594648470944" lon="11.668546599358853"><ele>6.0</ele><time>2026-04-04T17:14:57Z</time></trkpt><trkpt lat="44.596112296071745" lon="11.66861174890392"><ele>6.0</ele><time>2026-04-04T17:14:58Z</time></trkpt><trkpt lat="44.59626406438939" lon="11.668671366004775"><ele>6.0</ele><time>2026-04-04T17:14:59Z</time></trkpt><trkpt lat="44.59641343866983" lon="11.668726702105971"><ele>6.0</ele><time>2026-04-04T17:15:00Z</time></trkpt><trkpt lat="44.596549373644564" lon="11.668776984357928"><ele>6.0</ele><time>2026-04-04T17:15:01Z</time></trkpt><trkpt lat="44.596674815388845" lon="11.668829209633877"><ele>6.0</ele><time>2026-04-04T17:15:02Z</time></trkpt><trkpt lat="44.5968022575216" lon="11.668880324250441"><ele>6.0</ele><time>2026-04-04T17:15:03Z</time></trkpt><trkpt lat="44.59693170443411" lon="11.668927404398577"><ele>6.0</ele><time>2026-04-04T17:15:04Z</time></trkpt><trkpt lat="44.597056158954636" lon="11.668976344196754"><ele>6.0</ele><time>2026-04-04T17:15:05Z</time></trkpt><trkpt lat="44.5971816474772" lon="11.66902675421793"><ele>6.0</ele><time>2026-04-04T17:15:06Z</time></trkpt><trkpt lat="44.59730814326692" lon="11.669077465828707"><ele>6.0</ele><time>2026-04-04T17:15:07Z</time></trkpt><trkpt lat="44.59743479508598" lon="11.66913035712427"><ele>6.0</ele><time>2026-04-04T17:15:08Z</time></trkpt><trkpt lat="44.59756204441768" lon="11.669182903775654"><ele>6.0</ele><time>2026-04-04T17:15:09Z</time></trkpt><trkpt lat="44.59769908826364" lon="11.669231776515952"><ele>6.0</ele><time>2026-04-04T17:15:10Z</time></trkpt><trkpt lat="44.59783497188894" lon="11.66928373852017"><ele>6.0</ele><time>2026-04-04T17:15:11Z</time></trkpt><trkpt lat="44.597972284257494" lon="11.66933447820562"><ele>6.0</ele><time>2026-04-04T17:15:12Z</time></trkpt><trkpt lat="44.598109847117584" lon="11.669385955311144"><ele>6.25</ele><time>2026-04-04T17:15:13Z</time></trkpt><trkpt lat="44.59824629389755" lon="11.669437236136572"><ele>6.5</ele><time>2026-04-04T17:15:14Z</time></trkpt><trkpt lat="44.59838411227341" lon="11.669489963422333"><ele>6.75</ele><time>2026-04-04T17:15:15Z</time></trkpt><trkpt lat="44.59851627461916" lon="11.669538610586928"><ele>7.0</ele><time>2026-04-04T17:15:16Z</time></trkpt><trkpt lat="44.598642689693826" lon="11.66957542139201"><ele>7.0</ele><time>2026-04-04T17:15:17Z</time></trkpt><trkpt lat="44.59876088127475" lon="11.669599957086598"><ele>7.0</ele><time>2026-04-04T17:15:18Z</time></trkpt><trkpt lat="44.59888147070321" lon="11.669609903341"><ele>7.0</ele><time>2026-04-04T17:15:19Z</time></trkpt><trkpt lat="44.599004017622256" lon="11.669602157641544"><ele>7.0</ele><time>2026-04-04T17:15:20Z</time></trkpt><trkpt lat="44.59913700931832" lon="11.669585030786159"><ele>7.0</ele><time>2026-04-04T17:15:21Z</time></trkpt><trkpt lat="44.599275692153306" lon="11.669555757155566"><ele>7.0</ele><time>2026-04-04T17:15:22Z</time></trkpt><trkpt lat="44.59941847070373" lon="11.669513479131556"><ele>7.0</ele><time>2026-04-04T17:15:23Z</time></trkpt><trkpt lat="44.59955523773155" lon="11.669466295684567"><ele>7.0</ele><time>2026-04-04T17:15:24Z</time></trkpt><trkpt lat="44.59968977685009" lon="11.66942267832901"><ele>6.75</ele><time>2026-04-04T17:15:25Z</time></trkpt><trkpt lat="44.599821371064564" lon="11.669384880391863"><ele>6.5</ele><time>2026-04-04T17:15:26Z</time></trkpt><trkpt lat="44.59995030440401" lon="11.669348210540504"><ele>6.25</ele><time>2026-04-04T17:15:27Z</time></trkpt><trkpt lat="44.60007301715662" lon="11.669302383188304"><ele>6.0</ele><time>2026-04-04T17:15:28Z</time></trkpt><trkpt lat="44.60018388164568" lon="11.669259230390354"><ele>6.0</ele><time>2026-04-04T17:15:29Z</time></trkpt><trkpt lat="44.60029120003442" lon="11.669222580637518"><ele>6.0</ele><time>2026-04-04T17:15:30Z</time></trkpt><trkpt lat="44.6003870877371" lon="11.669187814493915"><ele>6.0</ele><time>2026-04-04T17:15:31Z</time></trkpt><trkpt lat="44.60047491306078" lon="11.669152732773036"><ele>6.0</ele><time>2026-04-04T17:15:32Z</time></trkpt><trkpt lat="44.600557537143466" lon="11.669120618715581"><ele>6.0</ele><time>2026-04-04T17:15:33Z</time></trkpt><trkpt lat="44.60063473031655" lon="11.669097148178256"><ele>5.8</ele><time>2026-04-04T17:15:34Z</time></trkpt><trkpt lat="44.6007235196881" lon="11.66906720980669"><ele>5.6</ele><time>2026-04-04T17:15:35Z</time></trkpt><trkpt lat="44.60082141709769" lon="11.669033942955616"><ele>5.4</ele><time>2026-04-04T17:15:36Z</time></trkpt><trkpt lat="44.60092130690875" lon="11.6689992116849"><ele>5.2</ele><time>2026-04-04T17:15:37Z</time></trkpt><trkpt lat="44.60103147277125" lon="11.668962053306428"><ele>5.0</ele><time>2026-04-04T17:15:38Z</time></trkpt><trkpt lat="44.601139564325415" lon="11.668928622410931"><ele>5.5</ele><time>2026-04-04T17:15:39Z</time></trkpt><trkpt lat="44.601252019739825" lon="11.668890762445617"><ele>6.0</ele><time>2026-04-04T17:15:40.001Z</time></trkpt><trkpt lat="44.60136532018775" lon="11.668850126953703"><ele>6.5</ele><time>2026-04-04T17:15:41.001Z</time></trkpt><trkpt lat="44.60147964944396" lon="11.668811553764618"><ele>7.0</ele><time>2026-04-04T17:15:42.001Z</time></trkpt><trkpt lat="44.601595388375685" lon="11.668772917635296"><ele>7.0</ele><time>2026-04-04T17:15:43.001Z</time></trkpt><trkpt lat="44.601711154843564" lon="11.668735642708825"><ele>7.0</ele><time>2026-04-04T17:15:44.001Z</time></trkpt><trkpt lat="44.60183044539219" lon="11.668694088092268"><ele>7.0</ele><time>2026-04-04T17:15:45.001Z</time></trkpt><trkpt lat="44.60195456030886" lon="11.668652517888384"><ele>7.0</ele><time>2026-04-04T17:15:46.001Z</time></trkpt><trkpt lat="44.6020849957055" lon="11.668609770281128"><ele>6.75</ele><time>2026-04-04T17:15:47.001Z</time></trkpt><trkpt lat="44.602209783418886" lon="11.66856791822691"><ele>6.5</ele><time>2026-04-04T17:15:48.001Z</time></trkpt><trkpt lat="44.60233587385542" lon="11.668524745162912"><ele>6.25</ele><time>2026-04-04T17:15:49.001Z</time></trkpt><trkpt lat="44.602459686031914" lon="11.66848123002126"><ele>6.0</ele><time>2026-04-04T17:15:50.001Z</time></trkpt><trkpt lat="44.60258485365946" lon="11.668434967872933"><ele>6.0</ele><time>2026-04-04T17:15:51.001Z</time></trkpt><trkpt lat="44.602712398799575" lon="11.668402419366487"><ele>6.0</ele><time>2026-04-04T17:15:52.001Z</time></trkpt><trkpt lat="44.60283851306847" lon="11.668359722305889"><ele>6.0</ele><time>2026-04-04T17:15:53.001Z</time></trkpt><trkpt lat="44.60296152107067" lon="11.668314019816028"><ele>6.0</ele><time>2026-04-04T17:15:54.001Z</time></trkpt><trkpt lat="44.60307668566363" lon="11.668277676335055"><ele>5.75</ele><time>2026-04-04T17:15:55.001Z</time></trkpt><trkpt lat="44.603199775347306" lon="11.66823551935419"><ele>5.5</ele><time>2026-04-04T17:15:56.001Z</time></trkpt><trkpt lat="44.603320247444756" lon="11.668191514048072"><ele>5.25</ele><time>2026-04-04T17:15:57.001Z</time></trkpt><trkpt lat="44.603439345569626" lon="11.668153060439025"><ele>5.0</ele><time>2026-04-04T17:15:58.001Z</time></trkpt><trkpt lat="44.603560193616566" lon="11.668115560345251"><ele>5.25</ele><time>2026-04-04T17:15:59.001Z</time></trkpt><trkpt lat="44.60368042196692" lon="11.668076120561413"><ele>5.5</ele><time>2026-04-04T17:16:00.001Z</time></trkpt><trkpt lat="44.60380009995646" lon="11.668034403285606"><ele>5.75</ele><time>2026-04-04T17:16:01.001Z</time></trkpt><trkpt lat="44.60391958796799" lon="11.66799243610129"><ele>6.0</ele><time>2026-04-04T17:16:02.001Z</time></trkpt><trkpt lat="44.604040580583614" lon="11.667946215140224"><ele>6.0</ele><time>2026-04-04T17:16:03.001Z</time></trkpt><trkpt lat="44.604157490193025" lon="11.66790561025319"><ele>6.0</ele><time>2026-04-04T17:16:04.001Z</time></trkpt><trkpt lat="44.604277979896985" lon="11.6678672967249"><ele>6.0</ele><time>2026-04-04T17:16:05.001Z</time></trkpt><trkpt lat="44.6043991665453" lon="11.667824862035502"><ele>6.0</ele><time>2026-04-04T17:16:06.001Z</time></trkpt><trkpt lat="44.604521107072614" lon="11.667785109116274"><ele>5.75</ele><time>2026-04-04T17:16:07.001Z</time></trkpt><trkpt lat="44.60464470540248" lon="11.66774830081204"><ele>5.5</ele><time>2026-04-04T17:16:08.001Z</time></trkpt><trkpt lat="44.604767025233194" lon="11.667711350558482"><ele>5.25</ele><time>2026-04-04T17:16:09.001Z</time></trkpt><trkpt lat="44.604887880044636" lon="11.66766707809681"><ele>5.0</ele><time>2026-04-04T17:16:10.001Z</time></trkpt><trkpt lat="44.60500596160005" lon="11.667627893489971"><ele>5.0</ele><time>2026-04-04T17:16:11.001Z</time></trkpt><trkpt lat="44.605125947079394" lon="11.667588461113976"><ele>5.0</ele><time>2026-04-04T17:16:12.001Z</time></trkpt><trkpt lat="44.60524352903488" lon="11.667548588785271"><ele>5.0</ele><time>2026-04-04T17:16:13.001Z</time></trkpt><trkpt lat="44.60535726068035" lon="11.667513897346838"><ele>5.0</ele><time>2026-04-04T17:16:14.001Z</time></trkpt><trkpt lat="44.60546082137213" lon="11.66748005784862"><ele>4.6</ele><time>2026-04-04T17:16:15.001Z</time></trkpt><trkpt lat="44.605555361669765" lon="11.667450570158444"><ele>4.2</ele><time>2026-04-04T17:16:16.001Z</time></trkpt><trkpt lat="44.60565314626085" lon="11.667421511811188"><ele>3.8</ele><time>2026-04-04T17:16:17.001Z</time></trkpt><trkpt lat="44.60575596095183" lon="11.667382612128355"><ele>3.4</ele><time>2026-04-04T17:16:18.001Z</time></trkpt><trkpt lat="44.60587104881123" lon="11.667339629854213"><ele>3.0</ele><time>2026-04-04T17:16:19.001Z</time></trkpt><trkpt lat="44.60598809466346" lon="11.667294288078795"><ele>3.0</ele><time>2026-04-04T17:16:20.001Z</time></trkpt><trkpt lat="44.60610806915574" lon="11.667258038044737"><ele>3.0</ele><time>2026-04-04T17:16:21.001Z</time></trkpt><trkpt lat="44.60623119924524" lon="11.667219451726437"><ele>3.0</ele><time>2026-04-04T17:16:22.001Z</time></trkpt><trkpt lat="44.60635320850074" lon="11.667184857370302"><ele>3.0</ele><time>2026-04-04T17:16:23.001Z</time></trkpt><trkpt lat="44.60646925493595" lon="11.66715349893738"><ele>3.0</ele><time>2026-04-04T17:16:24.001Z</time></trkpt><trkpt lat="44.60658941663671" lon="11.667123851879595"><ele>3.0</ele><time>2026-04-04T17:16:25.001Z</time></trkpt><trkpt lat="44.606713599108225" lon="11.667101006046252"><ele>3.0</ele><time>2026-04-04T17:16:26.001Z</time></trkpt><trkpt lat="44.606840338936195" lon="11.667088993417277"><ele>3.0</ele><time>2026-04-04T17:16:27.001Z</time></trkpt><trkpt lat="44.60696832093024" lon="11.667080387837437"><ele>3.0</ele><time>2026-04-04T17:16:28.001Z</time></trkpt><trkpt lat="44.60710010316887" lon="11.667078516497915"><ele>3.0</ele><time>2026-04-04T17:16:29.001Z</time></trkpt><trkpt lat="44.607241154505104" lon="11.667087888192967"><ele>3.0</ele><time>2026-04-04T17:16:30.001Z</time></trkpt><trkpt lat="44.60738018654151" lon="11.667104098915134"><ele>3.0</ele><time>2026-04-04T17:16:31.001Z</time></trkpt><trkpt lat="44.60753709461068" lon="11.667127510006157"><ele>3.0</ele><time>2026-04-04T17:16:32.001Z</time></trkpt><trkpt lat="44.60770235296378" lon="11.667158354146785"><ele>3.0</ele><time>2026-04-04T17:16:33.001Z</time></trkpt><trkpt lat="44.607868388220325" lon="11.667182526250565"><ele>3.0</ele><time>2026-04-04T17:16:34.001Z</time></trkpt><trkpt lat="44.60802674651401" lon="11.667209769601882"><ele>3.0</ele><time>2026-04-04T17:16:35.001Z</time></trkpt><trkpt lat="44.608182936827234" lon="11.667236447463143"><ele>3.0</ele><time>2026-04-04T17:16:36.001Z</time></trkpt><trkpt lat="44.60834064083734" lon="11.66726358777405"><ele>3.0</ele><time>2026-04-04T17:16:37.001Z</time></trkpt><trkpt lat="44.6085060656762" lon="11.667296654973635"><ele>4.333333333333334</ele><time>2026-04-04T17:16:38.001Z</time></trkpt><trkpt lat="44.60867424893478" lon="11.667334361500307"><ele>5.666666666666667</ele><time>2026-04-04T17:16:39.001Z</time></trkpt><trkpt lat="44.60882881390861" lon="11.667371041543607"><ele>7.0</ele><time>2026-04-04T17:16:40.001Z</time></trkpt><trkpt lat="44.60898349660358" lon="11.667403701807627"><ele>7.0</ele><time>2026-04-04T17:16:41.001Z</time></trkpt><trkpt lat="44.60913477991109" lon="11.667439435198947"><ele>7.0</ele><time>2026-04-04T17:16:42.001Z</time></trkpt><trkpt lat="44.60929055948858" lon="11.667476111280294"><ele>7.0</ele><time>2026-04-04T17:16:43.001Z</time></trkpt><trkpt lat="44.60944758710226" lon="11.667509037639302"><ele>7.0</ele><time>2026-04-04T17:16:44.001Z</time></trkpt><trkpt lat="44.609606381839534" lon="11.66754182456125"><ele>7.0</ele><time>2026-04-04T17:16:45.001Z</time></trkpt><trkpt lat="44.60976706889498" lon="11.667578135573017"><ele>7.0</ele><time>2026-04-04T17:16:46Z</time></trkpt><trkpt lat="44.60993151927011" lon="11.667617931520518"><ele>7.0</ele><time>2026-04-04T17:16:47Z</time></trkpt><trkpt lat="44.61009513987735" lon="11.667656810101963"><ele>7.0</ele><time>2026-04-04T17:16:48Z</time></trkpt><trkpt lat="44.610251761788064" lon="11.667692645285697"><ele>7.0</ele><time>2026-04-04T17:16:49Z</time></trkpt><trkpt lat="44.61039129177518" lon="11.667721947038817"><ele>6.75</ele><time>2026-04-04T17:16:50Z</time></trkpt><trkpt lat="44.61052340503605" lon="11.667750860376144"><ele>6.5</ele><time>2026-04-04T17:16:51Z</time></trkpt><trkpt lat="44.61064448240639" lon="11.667779478615325"><ele>6.25</ele><time>2026-04-04T17:16:52Z</time></trkpt><trkpt lat="44.610757157964365" lon="11.66780377994895"><ele>6.0</ele><time>2026-04-04T17:16:53Z</time></trkpt><trkpt lat="44.61086033169218" lon="11.667829001807815"><ele>6.0</ele><time>2026-04-04T17:16:54Z</time></trkpt><trkpt lat="44.61095201503269" lon="11.667851240703524"><ele>6.0</ele><time>2026-04-04T17:16:55Z</time></trkpt><trkpt lat="44.6110448648604" lon="11.667872088277978"><ele>6.0</ele><time>2026-04-04T17:16:56Z</time></trkpt><trkpt lat="44.61113429990511" lon="11.667892633226"><ele>6.0</ele><time>2026-04-04T17:16:57Z</time></trkpt><trkpt lat="44.61121885971844" lon="11.667912481142782"><ele>6.0</ele><time>2026-04-04T17:16:58Z</time></trkpt><trkpt lat="44.611291504425786" lon="11.667930153940341"><ele>6.0</ele><time>2026-04-04T17:16:59Z</time></trkpt><trkpt lat="44.611357569396624" lon="11.667946152444852"><ele>5.8</ele><time>2026-04-04T17:17:00Z</time></trkpt><trkpt lat="44.611436868604585" lon="11.667961521086381"><ele>5.6</ele><time>2026-04-04T17:17:02Z</time></trkpt><trkpt lat="44.61151916401365" lon="11.667970765620824"><ele>5.4</ele><time>2026-04-04T17:17:08Z</time></trkpt><trkpt lat="44.611500947197555" lon="11.667736666605112"><ele>5.2</ele><time>2026-04-04T17:17:11Z</time></trkpt><trkpt lat="44.61150267586457" lon="11.667640468977691"><ele>5.0</ele><time>2026-04-04T17:17:12Z</time></trkpt><trkpt lat="44.61149553743168" lon="11.667524947542356"><ele>5.333333333333334</ele><time>2026-04-04T17:17:13Z</time></trkpt><trkpt lat="44.61149914197823" lon="11.667387324269743"><ele>5.666666666666667</ele><time>2026-04-04T17:17:14Z</time></trkpt><trkpt lat="44.61151002922355" lon="11.667261582286214"><ele>6.0</ele><time>2026-04-04T17:17:15Z</time></trkpt><trkpt lat="44.6115199461081" lon="11.667153583650155"><ele>6.333333333333334</ele><time>2026-04-04T17:17:16Z</time></trkpt><trkpt lat="44.611528851202195" lon="11.667062652016302"><ele>6.666666666666667</ele><time>2026-04-04T17:17:17Z</time></trkpt><trkpt lat="44.61154397973084" lon="11.666898977488858"><ele>7.0</ele><time>2026-04-04T17:17:19Z</time></trkpt><trkpt lat="44.61155173712088" lon="11.666779254198461"><ele>7.199999999999999</ele><time>2026-04-04T17:17:21Z</time></trkpt><trkpt lat="44.61155128989241" lon="11.666667120889926"><ele>7.3999999999999995</ele><time>2026-04-04T17:17:23Z</time></trkpt><trkpt lat="44.61143973482886" lon="11.666567406351582"><ele>7.6000000000000005</ele><time>2026-04-04T17:17:30Z</time></trkpt><trkpt lat="44.611470111062616" lon="11.666652731652434"><ele>7.800000000000001</ele><time>2026-04-04T17:20:17.001Z</time></trkpt><trkpt lat="44.61149874483083" lon="11.666780631059085"><ele>8.0</ele><time>2026-04-04T17:20:18.001Z</time></trkpt><trkpt lat="44.61150380956952" lon="11.666890112756331"><ele>7.833333333333333</ele><time>2026-04-04T17:20:19.001Z</time></trkpt><trkpt lat="44.6115011292261" lon="11.66701508334443"><ele>7.666666666666666</ele><time>2026-04-04T17:20:20.001Z</time></trkpt><trkpt lat="44.6114935627467" lon="11.667145079154286"><ele>7.5</ele><time>2026-04-04T17:20:21.001Z</time></trkpt><trkpt lat="44.61148397938791" lon="11.667274522228574"><ele>7.333333333333334</ele><time>2026-04-04T17:20:22.001Z</time></trkpt><trkpt lat="44.611472092566395" lon="11.667377927525905"><ele>7.166666666666667</ele><time>2026-04-04T17:20:23.001Z</time></trkpt><trkpt lat="44.611462260494314" lon="11.66748043208007"><ele>7.0</ele><time>2026-04-04T17:20:24.001Z</time></trkpt><trkpt lat="44.611454381385215" lon="11.667584774795424"><ele>7.0</ele><time>2026-04-04T17:20:25.001Z</time></trkpt><trkpt lat="44.6114482373974" lon="11.667674905496238"><ele>6.999999999999999</ele><time>2026-04-04T17:20:26.001Z</time></trkpt><trkpt lat="44.61143550131248" lon="11.667808807080384"><ele>6.999999999999999</ele><time>2026-04-04T17:20:28.001Z</time></trkpt><trkpt lat="44.611442630177066" lon="11.667905901438788"><ele>7.0</ele><time>2026-04-04T17:20:39.001Z</time></trkpt><trkpt lat="44.611600733730846" lon="11.667997314953341"><ele>7.0</ele><time>2026-04-04T17:20:42.001Z</time></trkpt><trkpt lat="44.61166937980674" lon="11.668008139193148"><ele>6.5</ele><time>2026-04-04T17:20:43.001Z</time></trkpt><trkpt lat="44.61177718212941" lon="11.668033570484836"><ele>6.0</ele><time>2026-04-04T17:20:44.001Z</time></trkpt><trkpt lat="44.611875979685735" lon="11.668056719446964"><ele>5.5</ele><time>2026-04-04T17:20:45.001Z</time></trkpt><trkpt lat="44.61198379973497" lon="11.668082710149447"><ele>5.0</ele><time>2026-04-04T17:20:46.001Z</time></trkpt><trkpt lat="44.61212089220818" lon="11.668118755380954"><ele>4.666666666666667</ele><time>2026-04-04T17:20:47.001Z</time></trkpt><trkpt lat="44.61229428032003" lon="11.668155271849189"><ele>4.333333333333333</ele><time>2026-04-04T17:20:48.001Z</time></trkpt><trkpt lat="44.612482199128486" lon="11.668191436153585"><ele>4.0</ele><time>2026-04-04T17:20:49.001Z</time></trkpt><trkpt lat="44.61266869444105" lon="11.668237529557127"><ele>4.0</ele><time>2026-04-04T17:20:50.001Z</time></trkpt><trkpt lat="44.61285209383439" lon="11.668282729504027"><ele>4.0</ele><time>2026-04-04T17:20:51.001Z</time></trkpt><trkpt lat="44.61300851441685" lon="11.668315269080288"><ele>4.0</ele><time>2026-04-04T17:20:52.001Z</time></trkpt><trkpt lat="44.613154805448666" lon="11.66834907293424"><ele>4.0</ele><time>2026-04-04T17:20:53.001Z</time></trkpt><trkpt lat="44.61328846321278" lon="11.668380977869292"><ele>4.0</ele><time>2026-04-04T17:20:54.001Z</time></trkpt><trkpt lat="44.6134152479917" lon="11.668407501898951"><ele>4.0</ele><time>2026-04-04T17:20:55.001Z</time></trkpt><trkpt lat="44.613529778149974" lon="11.66843228180436"><ele>4.0</ele><time>2026-04-04T17:20:56.001Z</time></trkpt><trkpt lat="44.613635817903905" lon="11.668453694304358"><ele>4.0</ele><time>2026-04-04T17:20:57.001Z</time></trkpt><trkpt lat="44.613727033586585" lon="11.668471387053222"><ele>4.0</ele><time>2026-04-04T17:20:58.001Z</time></trkpt><trkpt lat="44.61380534341055" lon="11.668485856065443"><ele>4.0</ele><time>2026-04-04T17:20:59.001Z</time></trkpt><trkpt lat="44.613879770117606" lon="11.66849583045443"><ele>4.0</ele><time>2026-04-04T17:21:01.001Z</time></trkpt><trkpt lat="44.613970903108694" lon="11.668498635487868"><ele>4.0</ele><time>2026-04-04T17:21:04.001Z</time></trkpt><trkpt lat="44.614093711362685" lon="11.668503504733884"><ele>4.0</ele><time>2026-04-04T17:21:06.001Z</time></trkpt><trkpt lat="44.614172181034725" lon="11.668505343731018"><ele>4.0</ele><time>2026-04-04T17:21:07.001Z</time></trkpt><trkpt lat="44.6142324291473" lon="11.668413095079677"><ele>4.0</ele><time>2026-04-04T17:21:08.001Z</time></trkpt><trkpt lat="44.614271158827464" lon="11.668300841698851"><ele>4.0</ele><time>2026-04-04T17:21:09.001Z</time></trkpt><trkpt lat="44.61423341572596" lon="11.668129610138104"><ele>4.0</ele><time>2026-04-04T17:21:10.001Z</time></trkpt><trkpt lat="44.614274856629955" lon="11.668024404301388"><ele>4.0</ele><time>2026-04-04T17:21:11.001Z</time></trkpt><trkpt lat="44.61429334703898" lon="11.667884315132364"><ele>4.0</ele><time>2026-04-04T17:21:12.001Z</time></trkpt><trkpt lat="44.61437169083855" lon="11.667759486212487"><ele>4.0</ele><time>2026-04-04T17:21:13.001Z</time></trkpt><trkpt lat="44.61440117161349" lon="11.667617384678653"><ele>4.0</ele><time>2026-04-04T17:21:14.001Z</time></trkpt><trkpt lat="44.61441496738208" lon="11.667479449390308"><ele>4.0</ele><time>2026-04-04T17:21:15.001Z</time></trkpt><trkpt lat="44.614426081458184" lon="11.667321085314523"><ele>4.25</ele><time>2026-04-04T17:21:16.001Z</time></trkpt><trkpt lat="44.614437640771975" lon="11.667148453097047"><ele>4.5</ele><time>2026-04-04T17:21:17.001Z</time></trkpt><trkpt lat="44.61444877831405" lon="11.66696861979691"><ele>4.75</ele><time>2026-04-04T17:21:18.001Z</time></trkpt><trkpt lat="44.6144631750755" lon="11.666781511940417"><ele>5.0</ele><time>2026-04-04T17:21:19.001Z</time></trkpt><trkpt lat="44.61448056901847" lon="11.66660353142231"><ele>5.0</ele><time>2026-04-04T17:21:20.001Z</time></trkpt><trkpt lat="44.6144959700985" lon="11.66644231055632"><ele>5.0</ele><time>2026-04-04T17:21:21.001Z</time></trkpt><trkpt lat="44.61450687566789" lon="11.666291406309684"><ele>5.0</ele><time>2026-04-04T17:21:22.001Z</time></trkpt><trkpt lat="44.614519961543685" lon="11.666132477520728"><ele>5.0</ele><time>2026-04-04T17:21:23.001Z</time></trkpt><trkpt lat="44.614534105089675" lon="11.665964567737259"><ele>5.25</ele><time>2026-04-04T17:21:24.001Z</time></trkpt><trkpt lat="44.6145491863696" lon="11.665793242077017"><ele>5.5</ele><time>2026-04-04T17:21:25.001Z</time></trkpt><trkpt lat="44.61456420220882" lon="11.665613531499554"><ele>5.75</ele><time>2026-04-04T17:21:26.001Z</time></trkpt><trkpt lat="44.6145801881281" lon="11.665434543758302"><ele>6.0</ele><time>2026-04-04T17:21:27.001Z</time></trkpt><trkpt lat="44.614597558394244" lon="11.665272898870269"><ele>6.0</ele><time>2026-04-04T17:21:28.001Z</time></trkpt><trkpt lat="44.614610767884606" lon="11.665126939001992"><ele>6.0</ele><time>2026-04-04T17:21:29.001Z</time></trkpt><trkpt lat="44.61462561547882" lon="11.66497893055688"><ele>6.0</ele><time>2026-04-04T17:21:30.001Z</time></trkpt><trkpt lat="44.61464115094917" lon="11.664828720296345"><ele>6.0</ele><time>2026-04-04T17:21:31.001Z</time></trkpt><trkpt lat="44.61466057634041" lon="11.664673766275188"><ele>6.0</ele><time>2026-04-04T17:21:32.001Z</time></trkpt><trkpt lat="44.61468024020231" lon="11.664523465675382"><ele>6.4</ele><time>2026-04-04T17:21:33.001Z</time></trkpt><trkpt lat="44.614707745269676" lon="11.664370775801046"><ele>6.8</ele><time>2026-04-04T17:21:34Z</time></trkpt><trkpt lat="44.61473604080034" lon="11.664225999827844"><ele>7.200000000000001</ele><time>2026-04-04T17:21:35Z</time></trkpt><trkpt lat="44.61475139922917" lon="11.66407558441627"><ele>7.6000000000000005</ele><time>2026-04-04T17:21:36Z</time></trkpt><trkpt lat="44.61475217661474" lon="11.66393390561542"><ele>8.0</ele><time>2026-04-04T17:21:37Z</time></trkpt><trkpt lat="44.614745790662326" lon="11.66380586263138"><ele>8.0</ele><time>2026-04-04T17:21:38Z</time></trkpt><trkpt lat="44.614737231703955" lon="11.663692074322674"><ele>8.0</ele><time>2026-04-04T17:21:39Z</time></trkpt><trkpt lat="44.61472701323722" lon="11.663567001272568"><ele>8.0</ele><time>2026-04-04T17:21:40Z</time></trkpt><trkpt lat="44.61473349798734" lon="11.6634268780996"><ele>8.0</ele><time>2026-04-04T17:21:41Z</time></trkpt><trkpt lat="44.61473307076292" lon="11.663269296472267"><ele>8.0</ele><time>2026-04-04T17:21:42Z</time></trkpt><trkpt lat="44.61477920579151" lon="11.663087531428015"><ele>7.6000000000000005</ele><time>2026-04-04T17:21:43Z</time></trkpt><trkpt lat="44.614859093127414" lon="11.662949041872436"><ele>7.200000000000001</ele><time>2026-04-04T17:21:44Z</time></trkpt><trkpt lat="44.61490955718049" lon="11.66282221912268"><ele>6.8</ele><time>2026-04-04T17:21:45Z</time></trkpt><trkpt lat="44.61495559197636" lon="11.662697855444273"><ele>6.4</ele><time>2026-04-04T17:21:46Z</time></trkpt><trkpt lat="44.61498044335483" lon="11.66257161004395"><ele>6.0</ele><time>2026-04-04T17:21:47Z</time></trkpt><trkpt lat="44.61501467951025" lon="11.662467559880376"><ele>5.5</ele><time>2026-04-04T17:21:48Z</time></trkpt><trkpt lat="44.615044524870164" lon="11.662359862251815"><ele>5.0</ele><time>2026-04-04T17:21:49Z</time></trkpt><trkpt lat="44.61507021477104" lon="11.662210941204709"><ele>4.5</ele><time>2026-04-04T17:21:50Z</time></trkpt><trkpt lat="44.615174126847215" lon="11.66207838783658"><ele>4.0</ele><time>2026-04-04T17:21:51Z</time></trkpt><trkpt lat="44.61524403680308" lon="11.661925222157247"><ele>4.666666666666666</ele><time>2026-04-04T17:21:52Z</time></trkpt><trkpt lat="44.61533301186301" lon="11.661761889440532"><ele>5.333333333333333</ele><time>2026-04-04T17:21:53Z</time></trkpt><trkpt lat="44.61543128270757" lon="11.661589723354044"><ele>6.0</ele><time>2026-04-04T17:21:54Z</time></trkpt><trkpt lat="44.615535383650794" lon="11.661397033876856"><ele>6.0</ele><time>2026-04-04T17:21:55Z</time></trkpt><trkpt lat="44.61563158572113" lon="11.661204434410616"><ele>6.0</ele><time>2026-04-04T17:21:56Z</time></trkpt><trkpt lat="44.61572079416164" lon="11.661024049528192"><ele>6.0</ele><time>2026-04-04T17:21:57Z</time></trkpt><trkpt lat="44.615805962139554" lon="11.660860455961487"><ele>6.25</ele><time>2026-04-04T17:21:58Z</time></trkpt><trkpt lat="44.61589107992592" lon="11.660707760716333"><ele>6.5</ele><time>2026-04-04T17:21:59Z</time></trkpt><trkpt lat="44.61597034220338" lon="11.660553203375091"><ele>6.75</ele><time>2026-04-04T17:22:00Z</time></trkpt><trkpt lat="44.6160449746168" lon="11.660407596263026"><ele>7.0</ele><time>2026-04-04T17:22:01Z</time></trkpt><trkpt lat="44.616112772465115" lon="11.660272701312516"><ele>6.6</ele><time>2026-04-04T17:22:02Z</time></trkpt><trkpt lat="44.616172481098104" lon="11.660155226958732"><ele>6.199999999999999</ele><time>2026-04-04T17:22:03Z</time></trkpt><trkpt lat="44.61622792378862" lon="11.660042880824303"><ele>5.8</ele><time>2026-04-04T17:22:04Z</time></trkpt><trkpt lat="44.61627922670216" lon="11.659942920429872"><ele>5.4</ele><time>2026-04-04T17:22:05Z</time></trkpt><trkpt lat="44.616326781057325" lon="11.659852826858156"><ele>5.0</ele><time>2026-04-04T17:22:06Z</time></trkpt><trkpt lat="44.61638860025434" lon="11.65977465823456"><ele>5.0</ele><time>2026-04-04T17:22:07Z</time></trkpt><trkpt lat="44.616451467385886" lon="11.659695199558504"><ele>5.0</ele><time>2026-04-04T17:22:08Z</time></trkpt><trkpt lat="44.61655429926669" lon="11.659658550486187"><ele>5.0</ele><time>2026-04-04T17:22:09Z</time></trkpt><trkpt lat="44.61663438148425" lon="11.659641959783038"><ele>5.0</ele><time>2026-04-04T17:22:10Z</time></trkpt><trkpt lat="44.61670935520504" lon="11.659853191057302"><ele>5.0</ele><time>2026-04-04T17:22:11Z</time></trkpt><trkpt lat="44.61671976877263" lon="11.660003819902897"><ele>5.0</ele><time>2026-04-04T17:22:12Z</time></trkpt><trkpt lat="44.61676170906574" lon="11.660149858656732"><ele>5.0</ele><time>2026-04-04T17:22:13Z</time></trkpt><trkpt lat="44.6167904929838" lon="11.660311806007098"><ele>5.0</ele><time>2026-04-04T17:22:14Z</time></trkpt><trkpt lat="44.61681976951354" lon="11.660466362119433"><ele>5.0</ele><time>2026-04-04T17:22:15Z</time></trkpt><trkpt lat="44.61685209260177" lon="11.660635780335658"><ele>5.0</ele><time>2026-04-04T17:22:16Z</time></trkpt><trkpt lat="44.61688415449728" lon="11.660817251767327"><ele>5.0</ele><time>2026-04-04T17:22:17Z</time></trkpt><trkpt lat="44.61691889537922" lon="11.661009264994645"><ele>5.0</ele><time>2026-04-04T17:22:18Z</time></trkpt><trkpt lat="44.616957646729354" lon="11.661214698007417"><ele>5.0</ele><time>2026-04-04T17:22:19Z</time></trkpt><trkpt lat="44.6170009326291" lon="11.661445511530998"><ele>5.0</ele><time>2026-04-04T17:22:20Z</time></trkpt><trkpt lat="44.61704992904259" lon="11.661703007966505"><ele>5.0</ele><time>2026-04-04T17:22:21Z</time></trkpt><trkpt lat="44.6170913498894" lon="11.661930722681802"><ele>5.0</ele><time>2026-04-04T17:22:22Z</time></trkpt><trkpt lat="44.61713010056459" lon="11.662133415200344"><ele>5.0</ele><time>2026-04-04T17:22:23Z</time></trkpt><trkpt lat="44.61716474665722" lon="11.662317831323945"><ele>5.0</ele><time>2026-04-04T17:22:24Z</time></trkpt><trkpt lat="44.617193053366044" lon="11.662488182019853"><ele>5.0</ele><time>2026-04-04T17:22:25Z</time></trkpt><trkpt lat="44.61722373075884" lon="11.662659091951257"><ele>5.0</ele><time>2026-04-04T17:22:26Z</time></trkpt><trkpt lat="44.617254673605956" lon="11.662838306927172"><ele>4.75</ele><time>2026-04-04T17:22:27Z</time></trkpt><trkpt lat="44.61728805989087" lon="11.663022611637988"><ele>4.5</ele><time>2026-04-04T17:22:28Z</time></trkpt><trkpt lat="44.617326711487216" lon="11.663214526130131"><ele>4.25</ele><time>2026-04-04T17:22:29Z</time></trkpt><trkpt lat="44.617362004451245" lon="11.663406771492317"><ele>4.0</ele><time>2026-04-04T17:22:30Z</time></trkpt><trkpt lat="44.61740223272682" lon="11.663612695989306"><ele>5.0</ele><time>2026-04-04T17:22:31Z</time></trkpt><trkpt lat="44.61744211015667" lon="11.663829469078143"><ele>6.0</ele><time>2026-04-04T17:22:32Z</time></trkpt><trkpt lat="44.61747925802111" lon="11.664049938463032"><ele>7.0</ele><time>2026-04-04T17:22:33Z</time></trkpt><trkpt lat="44.617510632036705" lon="11.664255643034583"><ele>7.0</ele><time>2026-04-04T17:22:34Z</time></trkpt><trkpt lat="44.617536949100405" lon="11.664438774070112"><ele>7.0</ele><time>2026-04-04T17:22:35Z</time></trkpt><trkpt lat="44.61755825752316" lon="11.664608594446936"><ele>7.0</ele><time>2026-04-04T17:22:36Z</time></trkpt><trkpt lat="44.61758154547541" lon="11.664769638925192"><ele>7.0</ele><time>2026-04-04T17:22:37Z</time></trkpt><trkpt lat="44.61760821547421" lon="11.664928469374843"><ele>7.0</ele><time>2026-04-04T17:22:38Z</time></trkpt><trkpt lat="44.617643110818236" lon="11.665084592135683"><ele>7.0</ele><time>2026-04-04T17:22:39Z</time></trkpt><trkpt lat="44.617695110791665" lon="11.665240773461562"><ele>7.0</ele><time>2026-04-04T17:22:40Z</time></trkpt><trkpt lat="44.617771051024086" lon="11.665390137569238"><ele>7.0</ele><time>2026-04-04T17:22:41Z</time></trkpt><trkpt lat="44.617867113844554" lon="11.665524689246675"><ele>6.75</ele><time>2026-04-04T17:22:42Z</time></trkpt><trkpt lat="44.617982921196464" lon="11.665638847878892"><ele>6.5</ele><time>2026-04-04T17:22:43Z</time></trkpt><trkpt lat="44.618109225147776" lon="11.665717635782345"><ele>6.25</ele><time>2026-04-04T17:22:44Z</time></trkpt><trkpt lat="44.61825090204314" lon="11.665776485577677"><ele>6.0</ele><time>2026-04-04T17:22:45Z</time></trkpt><trkpt lat="44.61840099846582" lon="11.665799775510655"><ele>6.0</ele><time>2026-04-04T17:22:46Z</time></trkpt><trkpt lat="44.6185436344905" lon="11.665802637687703"><ele>6.0</ele><time>2026-04-04T17:22:47Z</time></trkpt><trkpt lat="44.61867529440225" lon="11.665795713988823"><ele>6.0</ele><time>2026-04-04T17:22:48Z</time></trkpt><trkpt lat="44.61878915733604" lon="11.66579338909591"><ele>6.0</ele><time>2026-04-04T17:22:49Z</time></trkpt><trkpt lat="44.61889639710388" lon="11.665797311586337"><ele>6.199999999999999</ele><time>2026-04-04T17:22:50Z</time></trkpt><trkpt lat="44.61900016185437" lon="11.665798900000746"><ele>6.3999999999999995</ele><time>2026-04-04T17:22:51Z</time></trkpt><trkpt lat="44.61910915121734" lon="11.665801203947433"><ele>6.6</ele><time>2026-04-04T17:22:52Z</time></trkpt><trkpt lat="44.61922511691849" lon="11.66580073792504"><ele>6.8</ele><time>2026-04-04T17:22:53Z</time></trkpt><trkpt lat="44.61933844545615" lon="11.665801535049297"><ele>7.0</ele><time>2026-04-04T17:22:54Z</time></trkpt><trkpt lat="44.61945206525591" lon="11.66580279782606"><ele>7.25</ele><time>2026-04-04T17:22:55Z</time></trkpt><trkpt lat="44.61956621222166" lon="11.665802053845379"><ele>7.5</ele><time>2026-04-04T17:22:56Z</time></trkpt><trkpt lat="44.619689611053076" lon="11.665803411065289"><ele>7.75</ele><time>2026-04-04T17:22:57Z</time></trkpt><trkpt lat="44.61982711520986" lon="11.665800698412873"><ele>8.0</ele><time>2026-04-04T17:22:58Z</time></trkpt><trkpt lat="44.6199743594254" lon="11.665802007598781"><ele>8.0</ele><time>2026-04-04T17:22:59Z</time></trkpt><trkpt lat="44.62013350107998" lon="11.665809651822464"><ele>8.0</ele><time>2026-04-04T17:23:00Z</time></trkpt><trkpt lat="44.620272421436525" lon="11.66582618647363"><ele>8.0</ele><time>2026-04-04T17:23:01Z</time></trkpt><trkpt lat="44.620399361553694" lon="11.66585958535742"><ele>8.0</ele><time>2026-04-04T17:23:02Z</time></trkpt><trkpt lat="44.620524527756736" lon="11.66592435740144"><ele>8.0</ele><time>2026-04-04T17:23:03Z</time></trkpt><trkpt lat="44.62063903133229" lon="11.666003124566132"><ele>8.0</ele><time>2026-04-04T17:23:04Z</time></trkpt><trkpt lat="44.62072744018177" lon="11.666066059602384"><ele>8.0</ele><time>2026-04-04T17:23:05Z</time></trkpt><trkpt lat="44.620792089603405" lon="11.66609897659867"><ele>8.0</ele><time>2026-04-04T17:23:06Z</time></trkpt><trkpt lat="44.62085557070825" lon="11.66614619040293"><ele>8.0</ele><time>2026-04-04T17:23:08Z</time></trkpt><trkpt lat="44.62093672730717" lon="11.666188359066933"><ele>7.800000000000001</ele><time>2026-04-04T17:23:10Z</time></trkpt><trkpt lat="44.621066707039006" lon="11.666262465339214"><ele>7.6000000000000005</ele><time>2026-04-04T17:23:12Z</time></trkpt><trkpt lat="44.6211464139931" lon="11.666306815811819"><ele>7.3999999999999995</ele><time>2026-04-04T17:23:13Z</time></trkpt><trkpt lat="44.62122836207361" lon="11.666354847478553"><ele>7.199999999999999</ele><time>2026-04-04T17:23:14Z</time></trkpt><trkpt lat="44.6213157086239" lon="11.666410621579011"><ele>7.0</ele><time>2026-04-04T17:23:15Z</time></trkpt><trkpt lat="44.62141369809655" lon="11.666470937955854"><ele>6.75</ele><time>2026-04-04T17:23:16Z</time></trkpt><trkpt lat="44.62152012927064" lon="11.666534241235924"><ele>6.5</ele><time>2026-04-04T17:23:17Z</time></trkpt><trkpt lat="44.62161968992255" lon="11.666586564518722"><ele>6.25</ele><time>2026-04-04T17:23:18Z</time></trkpt><trkpt lat="44.62172327101165" lon="11.666645308989422"><ele>6.0</ele><time>2026-04-04T17:23:19Z</time></trkpt><trkpt lat="44.62183171112778" lon="11.666706161813929"><ele>6.0</ele><time>2026-04-04T17:23:20Z</time></trkpt><trkpt lat="44.62194266582497" lon="11.666770254991535"><ele>6.0</ele><time>2026-04-04T17:23:21Z</time></trkpt><trkpt lat="44.62205199767468" lon="11.666842924748826"><ele>6.0</ele><time>2026-04-04T17:23:22Z</time></trkpt><trkpt lat="44.62216946729133" lon="11.666898296945694"><ele>6.0</ele><time>2026-04-04T17:23:23Z</time></trkpt><trkpt lat="44.62227894908015" lon="11.666965927876966"><ele>6.25</ele><time>2026-04-04T17:23:24Z</time></trkpt><trkpt lat="44.62238407740314" lon="11.667029113795131"><ele>6.5</ele><time>2026-04-04T17:23:25Z</time></trkpt><trkpt lat="44.62249251545932" lon="11.66708611584099"><ele>6.75</ele><time>2026-04-04T17:23:26Z</time></trkpt><trkpt lat="44.622601255922326" lon="11.667150059427764"><ele>7.0</ele><time>2026-04-04T17:23:27Z</time></trkpt><trkpt lat="44.622709928657486" lon="11.66721126642567"><ele>6.75</ele><time>2026-04-04T17:23:28Z</time></trkpt><trkpt lat="44.62281738094747" lon="11.667273354478661"><ele>6.5</ele><time>2026-04-04T17:23:29Z</time></trkpt><trkpt lat="44.62292732544531" lon="11.66734149378634"><ele>6.25</ele><time>2026-04-04T17:23:30Z</time></trkpt><trkpt lat="44.62303219184683" lon="11.667397542069121"><ele>6.0</ele><time>2026-04-04T17:23:31Z</time></trkpt><trkpt lat="44.623133770202905" lon="11.667453698365822"><ele>6.0</ele><time>2026-04-04T17:23:32Z</time></trkpt><trkpt lat="44.62323412839099" lon="11.667511008879547"><ele>6.0</ele><time>2026-04-04T17:23:33Z</time></trkpt><trkpt lat="44.623341972405974" lon="11.667566741231049"><ele>6.0</ele><time>2026-04-04T17:23:34Z</time></trkpt><trkpt lat="44.623452827182035" lon="11.667623066284081"><ele>6.0</ele><time>2026-04-04T17:23:35Z</time></trkpt><trkpt lat="44.62356584656056" lon="11.667680892598234"><ele>6.0</ele><time>2026-04-04T17:23:36Z</time></trkpt><trkpt lat="44.62367148037712" lon="11.667736001520018"><ele>6.0</ele><time>2026-04-04T17:23:37Z</time></trkpt><trkpt lat="44.62378137861555" lon="11.667791219541503"><ele>6.0</ele><time>2026-04-04T17:23:38Z</time></trkpt><trkpt lat="44.623888253884644" lon="11.667841874397073"><ele>6.0</ele><time>2026-04-04T17:23:39Z</time></trkpt><trkpt lat="44.62399329623569" lon="11.667895340430636"><ele>6.0</ele><time>2026-04-04T17:23:40Z</time></trkpt><trkpt lat="44.62409966456403" lon="11.667946704021055"><ele>6.0</ele><time>2026-04-04T17:23:41Z</time></trkpt><trkpt lat="44.62420623193981" lon="11.667996821540504"><ele>6.0</ele><time>2026-04-04T17:23:42Z</time></trkpt><trkpt lat="44.62431399967674" lon="11.668046822184127"><ele>6.0</ele><time>2026-04-04T17:23:43Z</time></trkpt><trkpt lat="44.624416774400835" lon="11.668091482477694"><ele>6.0</ele><time>2026-04-04T17:23:44Z</time></trkpt><trkpt lat="44.62451629471575" lon="11.668126608920877"><ele>6.199999999999999</ele><time>2026-04-04T17:23:45Z</time></trkpt><trkpt lat="44.62459938342246" lon="11.668145100282091"><ele>6.3999999999999995</ele><time>2026-04-04T17:23:46Z</time></trkpt><trkpt lat="44.624735075110735" lon="11.668168594555729"><ele>6.6</ele><time>2026-04-04T17:23:48Z</time></trkpt><trkpt lat="44.62481517218196" lon="11.668187184215375"><ele>6.8</ele><time>2026-04-04T17:23:49Z</time></trkpt><trkpt lat="44.62490777341816" lon="11.668200579799615"><ele>7.0</ele><time>2026-04-04T17:23:50Z</time></trkpt><trkpt lat="44.62501205874853" lon="11.668216871912072"><ele>7.0</ele><time>2026-04-04T17:23:51Z</time></trkpt><trkpt lat="44.6251256453477" lon="11.668242491970325"><ele>7.0</ele><time>2026-04-04T17:23:52Z</time></trkpt><trkpt lat="44.62523714437004" lon="11.668263236377017"><ele>7.0</ele><time>2026-04-04T17:23:53Z</time></trkpt><trkpt lat="44.625347653302896" lon="11.668277995164031"><ele>7.0</ele><time>2026-04-04T17:23:54Z</time></trkpt><trkpt lat="44.62546772259111" lon="11.66829938806739"><ele>6.75</ele><time>2026-04-04T17:23:55Z</time></trkpt><trkpt lat="44.625590907770544" lon="11.668326037454719"><ele>6.5</ele><time>2026-04-04T17:23:56Z</time></trkpt><trkpt lat="44.62572093601457" lon="11.668351468032979"><ele>6.25</ele><time>2026-04-04T17:23:57Z</time></trkpt><trkpt lat="44.62585067042281" lon="11.668379925262352"><ele>6.0</ele><time>2026-04-04T17:23:58Z</time></trkpt><trkpt lat="44.625976989398424" lon="11.668398474902522"><ele>6.0</ele><time>2026-04-04T17:23:59Z</time></trkpt><trkpt lat="44.62610674134033" lon="11.668415910217776"><ele>6.0</ele><time>2026-04-04T17:24:00Z</time></trkpt><trkpt lat="44.626222312296086" lon="11.668439441434131"><ele>6.0</ele><time>2026-04-04T17:24:01Z</time></trkpt><trkpt lat="44.62633158967603" lon="11.66846373296738"><ele>6.0</ele><time>2026-04-04T17:24:02Z</time></trkpt><trkpt lat="44.62644389748576" lon="11.6684797260499"><ele>5.833333333333333</ele><time>2026-04-04T17:24:03Z</time></trkpt><trkpt lat="44.62654964050158" lon="11.668500778629243"><ele>5.666666666666667</ele><time>2026-04-04T17:24:04Z</time></trkpt><trkpt lat="44.62664099965791" lon="11.668521998731395"><ele>5.5</ele><time>2026-04-04T17:24:05Z</time></trkpt><trkpt lat="44.62672407923643" lon="11.668534261451642"><ele>5.333333333333334</ele><time>2026-04-04T17:24:06Z</time></trkpt><trkpt lat="44.62680413130175" lon="11.668543403263271"><ele>5.166666666666667</ele><time>2026-04-04T17:24:07Z</time></trkpt><trkpt lat="44.626876609057014" lon="11.66855252986846"><ele>5.0</ele><time>2026-04-04T17:24:08Z</time></trkpt><trkpt lat="44.626946509906524" lon="11.668564149408477"><ele>5.333333333333334</ele><time>2026-04-04T17:24:09Z</time></trkpt><trkpt lat="44.627010467059804" lon="11.668607423814361"><ele>5.666666666666667</ele><time>2026-04-04T17:24:10Z</time></trkpt><trkpt lat="44.627057272970426" lon="11.66869501307875"><ele>6.0</ele><time>2026-04-04T17:24:11Z</time></trkpt><trkpt lat="44.627086591069904" lon="11.668811336886312"><ele>6.333333333333334</ele><time>2026-04-04T17:24:12Z</time></trkpt><trkpt lat="44.62707891356688" lon="11.668920457115247"><ele>6.666666666666667</ele><time>2026-04-04T17:24:13Z</time></trkpt><trkpt lat="44.627045263010565" lon="11.669032502582434"><ele>7.0</ele><time>2026-04-04T17:24:14Z</time></trkpt><trkpt lat="44.62700615621514" lon="11.669152508113584"><ele>7.000000000000001</ele><time>2026-04-04T17:24:15Z</time></trkpt><trkpt lat="44.626975853719486" lon="11.669278260574792"><ele>7.0</ele><time>2026-04-04T17:24:16Z</time></trkpt><trkpt lat="44.6269499613781" lon="11.669391739361505"><ele>7.0</ele><time>2026-04-04T17:24:17Z</time></trkpt><trkpt lat="44.626928268439656" lon="11.669485159132991"><ele>7.0</ele><time>2026-04-04T17:24:18Z</time></trkpt><trkpt lat="44.62690689480912" lon="11.669578914384823"><ele>7.000000000000001</ele><time>2026-04-04T17:24:19Z</time></trkpt><trkpt lat="44.62688947143121" lon="11.669684615246766"><ele>7.0</ele><time>2026-04-04T17:24:20Z</time></trkpt><trkpt lat="44.626890262673996" lon="11.66977338318004"><ele>7.199999999999999</ele><time>2026-04-04T17:24:21Z</time></trkpt><trkpt lat="44.626975885125844" lon="11.669949293273064"><ele>7.3999999999999995</ele><time>2026-04-04T17:24:23Z</time></trkpt><trkpt lat="44.62705952764237" lon="11.66999407657497"><ele>7.6000000000000005</ele><time>2026-04-04T17:24:24Z</time></trkpt><trkpt lat="44.62715297586948" lon="11.669991831198317"><ele>7.800000000000001</ele><time>2026-04-04T17:24:25Z</time></trkpt><trkpt lat="44.62724207413902" lon="11.66996675749567"><ele>8.0</ele><time>2026-04-04T17:24:26Z</time></trkpt><trkpt lat="44.62734366375268" lon="11.669950961832665"><ele>8.200000000000001</ele><time>2026-04-04T17:24:27Z</time></trkpt><trkpt lat="44.62744499516843" lon="11.669926429957552"><ele>8.4</ele><time>2026-04-04T17:24:28Z</time></trkpt><trkpt lat="44.627554983003826" lon="11.669914832752216"><ele>8.600000000000001</ele><time>2026-04-04T17:24:29Z</time></trkpt><trkpt lat="44.627660872458186" lon="11.669909673248897"><ele>8.8</ele><time>2026-04-04T17:24:30Z</time></trkpt><trkpt lat="44.62776206320358" lon="11.669893981361465"><ele>9.0</ele><time>2026-04-04T17:24:31Z</time></trkpt><trkpt lat="44.627847495719514" lon="11.669875442950064"><ele>8.4</ele><time>2026-04-04T17:24:32Z</time></trkpt><trkpt lat="44.62793726814077" lon="11.669860293361875"><ele>7.800000000000001</ele><time>2026-04-04T17:24:33Z</time></trkpt><trkpt lat="44.6280356405567" lon="11.669847447516903"><ele>7.199999999999999</ele><time>2026-04-04T17:24:34Z</time></trkpt><trkpt lat="44.628132081186635" lon="11.669830253138386"><ele>6.6</ele><time>2026-04-04T17:24:35Z</time></trkpt><trkpt lat="44.62822297506228" lon="11.669810023262393"><ele>6.0</ele><time>2026-04-04T17:24:36Z</time></trkpt><trkpt lat="44.62832593653964" lon="11.669785756623114"><ele>6.0</ele><time>2026-04-04T17:24:37Z</time></trkpt><trkpt lat="44.62843733845376" lon="11.669763910070364"><ele>6.0</ele><time>2026-04-04T17:24:38Z</time></trkpt><trkpt lat="44.62855384873259" lon="11.669741516223665"><ele>6.0</ele><time>2026-04-04T17:24:39Z</time></trkpt><trkpt lat="44.62866790687302" lon="11.669718824194314"><ele>6.0</ele><time>2026-04-04T17:24:40Z</time></trkpt><trkpt lat="44.62878922177629" lon="11.669710755048753"><ele>6.75</ele><time>2026-04-04T17:24:41Z</time></trkpt><trkpt lat="44.62892283224572" lon="11.669700827937053"><ele>7.5</ele><time>2026-04-04T17:24:42Z</time></trkpt><trkpt lat="44.629064379058235" lon="11.669722654791784"><ele>8.25</ele><time>2026-04-04T17:24:43Z</time></trkpt><trkpt lat="44.629194253972685" lon="11.66980020277526"><ele>9.0</ele><time>2026-04-04T17:24:44Z</time></trkpt><trkpt lat="44.629320367952275" lon="11.669894982486198"><ele>9.0</ele><time>2026-04-04T17:24:45Z</time></trkpt><trkpt lat="44.629449625509146" lon="11.669995773279416"><ele>9.0</ele><time>2026-04-04T17:24:46Z</time></trkpt><trkpt lat="44.629587390990096" lon="11.67009102325799"><ele>9.0</ele><time>2026-04-04T17:24:47Z</time></trkpt><trkpt lat="44.62972157578188" lon="11.670202905151555"><ele>9.0</ele><time>2026-04-04T17:24:48Z</time></trkpt><trkpt lat="44.62985679984792" lon="11.670316445811372"><ele>9.0</ele><time>2026-04-04T17:24:49Z</time></trkpt><trkpt lat="44.62999752449186" lon="11.670435592100848"><ele>9.0</ele><time>2026-04-04T17:24:50Z</time></trkpt><trkpt lat="44.63013381996411" lon="11.670554277226382"><ele>9.0</ele><time>2026-04-04T17:24:51Z</time></trkpt><trkpt lat="44.630272990417" lon="11.670673317622175"><ele>9.0</ele><time>2026-04-04T17:24:52Z</time></trkpt><trkpt lat="44.63040824409667" lon="11.670790027943937"><ele>9.0</ele><time>2026-04-04T17:24:53Z</time></trkpt><trkpt lat="44.630553917147125" lon="11.670905454200287"><ele>8.666666666666666</ele><time>2026-04-04T17:24:54Z</time></trkpt><trkpt lat="44.63069737847583" lon="11.671019560958342"><ele>8.333333333333332</ele><time>2026-04-04T17:24:55Z</time></trkpt><trkpt lat="44.6308399149802" lon="11.671128324651264"><ele>8.0</ele><time>2026-04-04T17:24:56Z</time></trkpt><trkpt lat="44.630979209810555" lon="11.671250490778784"><ele>7.666666666666666</ele><time>2026-04-04T17:24:57Z</time></trkpt><trkpt lat="44.631127101599844" lon="11.671369881586791"><ele>7.333333333333334</ele><time>2026-04-04T17:24:58Z</time></trkpt><trkpt lat="44.631268933778394" lon="11.671483642798062"><ele>7.0</ele><time>2026-04-04T17:24:59Z</time></trkpt><trkpt lat="44.63141287032688" lon="11.67160341865211"><ele>7.0</ele><time>2026-04-04T17:25:00Z</time></trkpt><trkpt lat="44.63155390051306" lon="11.671722695090851"><ele>7.0</ele><time>2026-04-04T17:25:01Z</time></trkpt><trkpt lat="44.63168400827504" lon="11.67182895393019"><ele>7.0</ele><time>2026-04-04T17:25:02Z</time></trkpt><trkpt lat="44.631803898068505" lon="11.67192686413731"><ele>7.25</ele><time>2026-04-04T17:25:03Z</time></trkpt><trkpt lat="44.63191409091197" lon="11.672018539732091"><ele>7.5</ele><time>2026-04-04T17:25:04Z</time></trkpt><trkpt lat="44.632025523331905" lon="11.672110123954369"><ele>7.75</ele><time>2026-04-04T17:25:05Z</time></trkpt><trkpt lat="44.6321389064588" lon="11.672199989638123"><ele>8.0</ele><time>2026-04-04T17:25:06Z</time></trkpt><trkpt lat="44.6322549663669" lon="11.672290765090352"><ele>8.0</ele><time>2026-04-04T17:25:07Z</time></trkpt><trkpt lat="44.63236562558249" lon="11.672383585952291"><ele>8.0</ele><time>2026-04-04T17:25:08Z</time></trkpt><trkpt lat="44.632470258840954" lon="11.672466239391959"><ele>8.0</ele><time>2026-04-04T17:25:09Z</time></trkpt><trkpt lat="44.63257258018585" lon="11.672545905489807"><ele>8.0</ele><time>2026-04-04T17:25:10Z</time></trkpt><trkpt lat="44.63266598910259" lon="11.672628621602895"><ele>7.999999999999999</ele><time>2026-04-04T17:25:11Z</time></trkpt><trkpt lat="44.63275543912855" lon="11.672694729815534"><ele>8.0</ele><time>2026-04-04T17:25:12Z</time></trkpt><trkpt lat="44.632830091568536" lon="11.672764751084143"><ele>8.0</ele><time>2026-04-04T17:25:13Z</time></trkpt><trkpt lat="44.63288751062344" lon="11.672835708551125"><ele>8.0</ele><time>2026-04-04T17:25:14Z</time></trkpt><trkpt lat="44.632925332254814" lon="11.672914234283237"><ele>7.999999999999999</ele><time>2026-04-04T17:25:15Z</time></trkpt><trkpt lat="44.632948238759425" lon="11.673028672226048"><ele>8.0</ele><time>2026-04-04T17:25:17Z</time></trkpt><trkpt lat="44.63295407263808" lon="11.673128877815994"><ele>8.200000000000001</ele><time>2026-04-04T17:25:25Z</time></trkpt><trkpt lat="44.63308014510835" lon="11.673082823767789"><ele>8.4</ele><time>2026-04-04T17:25:26Z</time></trkpt><trkpt lat="44.63314078207563" lon="11.673017438923935"><ele>8.600000000000001</ele><time>2026-04-04T17:25:27Z</time></trkpt><trkpt lat="44.63321047626221" lon="11.67293527764859"><ele>8.8</ele><time>2026-04-04T17:25:28Z</time></trkpt><trkpt lat="44.633298919058234" lon="11.672853531710828"><ele>9.0</ele><time>2026-04-04T17:25:29Z</time></trkpt><trkpt lat="44.63338341729086" lon="11.672778959611579"><ele>8.75</ele><time>2026-04-04T17:25:30Z</time></trkpt><trkpt lat="44.633480778416505" lon="11.672686159994385"><ele>8.5</ele><time>2026-04-04T17:25:31Z</time></trkpt><trkpt lat="44.63358618115482" lon="11.672583156337998"><ele>8.25</ele><time>2026-04-04T17:25:32Z</time></trkpt><trkpt lat="44.633688040587366" lon="11.672474123327184"><ele>8.0</ele><time>2026-04-04T17:25:33Z</time></trkpt><trkpt lat="44.63380263631468" lon="11.67235510076773"><ele>7.666666666666666</ele><time>2026-04-04T17:25:34Z</time></trkpt><trkpt lat="44.63392692184751" lon="11.672224269947172"><ele>7.333333333333334</ele><time>2026-04-04T17:25:35Z</time></trkpt><trkpt lat="44.63405019503554" lon="11.672096491322273"><ele>7.0</ele><time>2026-04-04T17:25:36Z</time></trkpt><trkpt lat="44.63418358230917" lon="11.671963546158757"><ele>7.333333333333334</ele><time>2026-04-04T17:25:37Z</time></trkpt><trkpt lat="44.634317154828246" lon="11.67182898784308"><ele>7.666666666666666</ele><time>2026-04-04T17:25:38Z</time></trkpt><trkpt lat="44.634451080890784" lon="11.671696431452311"><ele>8.0</ele><time>2026-04-04T17:25:39Z</time></trkpt><trkpt lat="44.63459078481169" lon="11.671549291751246"><ele>8.0</ele><time>2026-04-04T17:25:40Z</time></trkpt><trkpt lat="44.63473560810769" lon="11.671405839911928"><ele>8.0</ele><time>2026-04-04T17:25:41Z</time></trkpt><trkpt lat="44.63488135547849" lon="11.671264666974636"><ele>8.0</ele><time>2026-04-04T17:25:42Z</time></trkpt><trkpt lat="44.63503059514867" lon="11.67111381446696"><ele>8.0</ele><time>2026-04-04T17:25:43Z</time></trkpt><trkpt lat="44.635176765893284" lon="11.670961788178019"><ele>8.0</ele><time>2026-04-04T17:25:44Z</time></trkpt><trkpt lat="44.63532250919787" lon="11.670812214890903"><ele>8.0</ele><time>2026-04-04T17:25:45Z</time></trkpt><trkpt lat="44.63546751868182" lon="11.670662635972883"><ele>8.0</ele><time>2026-04-04T17:25:46Z</time></trkpt><trkpt lat="44.635614769600586" lon="11.670510501422955"><ele>8.0</ele><time>2026-04-04T17:25:47Z</time></trkpt><trkpt lat="44.635759086522995" lon="11.670359953783151"><ele>8.0</ele><time>2026-04-04T17:25:48Z</time></trkpt><trkpt lat="44.63590335620846" lon="11.67020693803339"><ele>8.0</ele><time>2026-04-04T17:25:49Z</time></trkpt><trkpt lat="44.63604429571789" lon="11.670061509904723"><ele>8.0</ele><time>2026-04-04T17:25:50Z</time></trkpt><trkpt lat="44.6361727668099" lon="11.669929330563663"><ele>8.0</ele><time>2026-04-04T17:25:51Z</time></trkpt><trkpt lat="44.63630015895255" lon="11.669798245053912"><ele>8.0</ele><time>2026-04-04T17:25:52Z</time></trkpt><trkpt lat="44.6364310648788" lon="11.669667384338757"><ele>8.0</ele><time>2026-04-04T17:25:53Z</time></trkpt><trkpt lat="44.636563716736454" lon="11.669531598184905"><ele>8.0</ele><time>2026-04-04T17:25:54Z</time></trkpt><trkpt lat="44.63669982039355" lon="11.669393833518155"><ele>7.666666666666666</ele><time>2026-04-04T17:25:55Z</time></trkpt><trkpt lat="44.63683520326561" lon="11.66925490499692"><ele>7.333333333333334</ele><time>2026-04-04T17:25:56Z</time></trkpt><trkpt lat="44.636970761242964" lon="11.669114982290198"><ele>7.0</ele><time>2026-04-04T17:25:57Z</time></trkpt><trkpt lat="44.63710568416834" lon="11.668976465510823"><ele>7.0</ele><time>2026-04-04T17:25:58Z</time></trkpt><trkpt lat="44.63723641314269" lon="11.66884460819609"><ele>7.0</ele><time>2026-04-04T17:25:59Z</time></trkpt><trkpt lat="44.637377605344284" lon="11.66870284180177"><ele>7.0</ele><time>2026-04-04T17:26:00Z</time></trkpt><trkpt lat="44.637525922355394" lon="11.668556440349304"><ele>8.333333333333334</ele><time>2026-04-04T17:26:01Z</time></trkpt><trkpt lat="44.63767464469591" lon="11.668405449591608"><ele>9.666666666666666</ele><time>2026-04-04T17:26:02Z</time></trkpt><trkpt lat="44.637827614728266" lon="11.66824034258779"><ele>11.0</ele><time>2026-04-04T17:26:03Z</time></trkpt><trkpt lat="44.6379846090046" lon="11.668078853437185"><ele>11.0</ele><time>2026-04-04T17:26:04Z</time></trkpt><trkpt lat="44.63813870188276" lon="11.66791808769223"><ele>11.0</ele><time>2026-04-04T17:26:05Z</time></trkpt><trkpt lat="44.63829414792438" lon="11.667752287154382"><ele>11.0</ele><time>2026-04-04T17:26:06Z</time></trkpt><trkpt lat="44.638453085806596" lon="11.667592787525885"><ele>11.0</ele><time>2026-04-04T17:26:07Z</time></trkpt><trkpt lat="44.6386186368777" lon="11.667421776673653"><ele>11.0</ele><time>2026-04-04T17:26:08Z</time></trkpt><trkpt lat="44.63878410311235" lon="11.667255911020597"><ele>11.0</ele><time>2026-04-04T17:26:09Z</time></trkpt><trkpt lat="44.63895099119813" lon="11.66708670178568"><ele>10.666666666666666</ele><time>2026-04-04T17:26:10Z</time></trkpt><trkpt lat="44.6391156854907" lon="11.666918682202448"><ele>10.333333333333334</ele><time>2026-04-04T17:26:11Z</time></trkpt><trkpt lat="44.63927732532275" lon="11.666744947867368"><ele>10.0</ele><time>2026-04-04T17:26:12Z</time></trkpt><trkpt lat="44.63943792860383" lon="11.666580352050593"><ele>9.333333333333334</ele><time>2026-04-04T17:26:13Z</time></trkpt><trkpt lat="44.63960096047334" lon="11.666412259012061"><ele>8.666666666666666</ele><time>2026-04-04T17:26:14Z</time></trkpt><trkpt lat="44.63975892021584" lon="11.666243705955655"><ele>8.0</ele><time>2026-04-04T17:26:15Z</time></trkpt><trkpt lat="44.6399160523179" lon="11.666088348325724"><ele>8.0</ele><time>2026-04-04T17:26:16Z</time></trkpt><trkpt lat="44.640079417037796" lon="11.6659235506875"><ele>8.0</ele><time>2026-04-04T17:26:17Z</time></trkpt><trkpt lat="44.64023737083131" lon="11.665766436513469"><ele>8.0</ele><time>2026-04-04T17:26:18Z</time></trkpt><trkpt lat="44.640393612797524" lon="11.665607468195546"><ele>9.666666666666666</ele><time>2026-04-04T17:26:19Z</time></trkpt><trkpt lat="44.6405543429232" lon="11.665445410768037"><ele>11.333333333333332</ele><time>2026-04-04T17:26:20Z</time></trkpt><trkpt lat="44.64071286134762" lon="11.665286329837365"><ele>13.0</ele><time>2026-04-04T17:26:21Z</time></trkpt><trkpt lat="44.64087323809846" lon="11.665120973452733"><ele>13.0</ele><time>2026-04-04T17:26:22Z</time></trkpt><trkpt lat="44.641030919739244" lon="11.664955694659664"><ele>13.0</ele><time>2026-04-04T17:26:23Z</time></trkpt><trkpt lat="44.64118990109735" lon="11.66479096773038"><ele>13.0</ele><time>2026-04-04T17:26:24Z</time></trkpt><trkpt lat="44.641345962835324" lon="11.66463312155944"><ele>12.333333333333332</ele><time>2026-04-04T17:26:25Z</time></trkpt><trkpt lat="44.64150497632876" lon="11.664472536649763"><ele>11.666666666666666</ele><time>2026-04-04T17:26:26Z</time></trkpt><trkpt lat="44.641665383554596" lon="11.664309411271946"><ele>11.0</ele><time>2026-04-04T17:26:27Z</time></trkpt><trkpt lat="44.64182270348278" lon="11.664149441649458"><ele>10.333333333333332</ele><time>2026-04-04T17:26:28Z</time></trkpt><trkpt lat="44.64198221074059" lon="11.663987534425141"><ele>9.666666666666666</ele><time>2026-04-04T17:26:29Z</time></trkpt><trkpt lat="44.64214018027833" lon="11.663826252923602"><ele>9.0</ele><time>2026-04-04T17:26:30Z</time></trkpt><trkpt lat="44.64229928071511" lon="11.663661919461079"><ele>8.666666666666666</ele><time>2026-04-04T17:26:31Z</time></trkpt><trkpt lat="44.642455321745935" lon="11.663511005214234"><ele>8.333333333333332</ele><time>2026-04-04T17:26:32Z</time></trkpt><trkpt lat="44.64261562937412" lon="11.663345745795072"><ele>8.0</ele><time>2026-04-04T17:26:33Z</time></trkpt><trkpt lat="44.64277427491543" lon="11.663179571605076"><ele>7.333333333333333</ele><time>2026-04-04T17:26:34Z</time></trkpt><trkpt lat="44.642930608784035" lon="11.663019657981051"><ele>6.666666666666666</ele><time>2026-04-04T17:26:35Z</time></trkpt><trkpt lat="44.643083942701644" lon="11.662864287816056"><ele>6.0</ele><time>2026-04-04T17:26:36Z</time></trkpt><trkpt lat="44.64323993358358" lon="11.66270685372181"><ele>7.333333333333334</ele><time>2026-04-04T17:26:37Z</time></trkpt><trkpt lat="44.643399147392174" lon="11.6625480127231"><ele>8.666666666666668</ele><time>2026-04-04T17:26:38Z</time></trkpt><trkpt lat="44.643558755688616" lon="11.662384533972261"><ele>10.0</ele><time>2026-04-04T17:26:39Z</time></trkpt><trkpt lat="44.64371635446876" lon="11.662221807109704"><ele>10.0</ele><time>2026-04-04T17:26:40Z</time></trkpt><trkpt lat="44.64387421980945" lon="11.662061373689992"><ele>10.0</ele><time>2026-04-04T17:26:41Z</time></trkpt><trkpt lat="44.644037267942124" lon="11.661885749415758"><ele>10.0</ele><time>2026-04-04T17:26:42Z</time></trkpt><trkpt lat="44.644197955511856" lon="11.661719357959623"><ele>10.333333333333334</ele><time>2026-04-04T17:26:43Z</time></trkpt><trkpt lat="44.64434278372881" lon="11.661575213455137"><ele>10.666666666666666</ele><time>2026-04-04T17:26:44Z</time></trkpt><trkpt lat="44.644499221610054" lon="11.661414119596799"><ele>11.0</ele><time>2026-04-04T17:26:45Z</time></trkpt><trkpt lat="44.644671231156" lon="11.661240963254853"><ele>10.666666666666666</ele><time>2026-04-04T17:26:46Z</time></trkpt><trkpt lat="44.6448474801969" lon="11.661063021837156"><ele>10.333333333333334</ele><time>2026-04-04T17:26:47Z</time></trkpt><trkpt lat="44.64500528488541" lon="11.66090578619575"><ele>10.0</ele><time>2026-04-04T17:26:48Z</time></trkpt><trkpt lat="44.645149837779265" lon="11.66076058248721"><ele>10.0</ele><time>2026-04-04T17:26:49Z</time></trkpt><trkpt lat="44.645288221850166" lon="11.66061979245996"><ele>10.0</ele><time>2026-04-04T17:26:50Z</time></trkpt><trkpt lat="44.64542440103803" lon="11.660485264386775"><ele>10.0</ele><time>2026-04-04T17:26:51Z</time></trkpt><trkpt lat="44.64556106114211" lon="11.660349825374276"><ele>10.0</ele><time>2026-04-04T17:26:52Z</time></trkpt><trkpt lat="44.64568613839891" lon="11.66021819929979"><ele>10.0</ele><time>2026-04-04T17:26:53Z</time></trkpt><trkpt lat="44.64580567623986" lon="11.660098902029574"><ele>10.0</ele><time>2026-04-04T17:26:54Z</time></trkpt><trkpt lat="44.645912868125365" lon="11.659985292608205"><ele>10.0</ele><time>2026-04-04T17:26:55Z</time></trkpt><trkpt lat="44.646007053767626" lon="11.659870146512509"><ele>10.0</ele><time>2026-04-04T17:26:56Z</time></trkpt><trkpt lat="44.646089360292486" lon="11.659738488696012"><ele>10.0</ele><time>2026-04-04T17:26:57Z</time></trkpt><trkpt lat="44.64615646152899" lon="11.659581451114796"><ele>10.0</ele><time>2026-04-04T17:26:58Z</time></trkpt><trkpt lat="44.64621638363912" lon="11.659413152331817"><ele>10.0</ele><time>2026-04-04T17:26:59Z</time></trkpt><trkpt lat="44.64627033132729" lon="11.659240066986657"><ele>9.8</ele><time>2026-04-04T17:27:00Z</time></trkpt><trkpt lat="44.64631462021861" lon="11.659072089828475"><ele>9.6</ele><time>2026-04-04T17:27:01Z</time></trkpt><trkpt lat="44.64635293298378" lon="11.65892392073913"><ele>9.4</ele><time>2026-04-04T17:27:02Z</time></trkpt><trkpt lat="44.64639080694203" lon="11.658791065058239"><ele>9.2</ele><time>2026-04-04T17:27:03Z</time></trkpt><trkpt lat="44.64642187576981" lon="11.658664229648998"><ele>9.0</ele><time>2026-04-04T17:27:04Z</time></trkpt><trkpt lat="44.64644964942391" lon="11.65855651157824"><ele>9.4</ele><time>2026-04-04T17:27:05Z</time></trkpt><trkpt lat="44.64651524873341" lon="11.65843071883375"><ele>9.8</ele><time>2026-04-04T17:27:07Z</time></trkpt><trkpt lat="44.646623099679786" lon="11.658492132200815"><ele>10.200000000000001</ele><time>2026-04-04T17:27:09Z</time></trkpt><trkpt lat="44.646696685929555" lon="11.658504965702571"><ele>10.600000000000001</ele><time>2026-04-04T17:27:10Z</time></trkpt><trkpt lat="44.64677783076201" lon="11.658546263365649"><ele>11.0</ele><time>2026-04-04T17:27:11Z</time></trkpt><trkpt lat="44.64685215328699" lon="11.658585072811368"><ele>11.0</ele><time>2026-04-04T17:27:12Z</time></trkpt><trkpt lat="44.64693195897428" lon="11.658621820117768"><ele>11.0</ele><time>2026-04-04T17:27:12.999Z</time></trkpt><trkpt lat="44.647011090159296" lon="11.658655501559329"><ele>11.0</ele><time>2026-04-04T17:27:13.999Z</time></trkpt><trkpt lat="44.647103544340915" lon="11.65867064559725"><ele>11.0</ele><time>2026-04-04T17:27:15Z</time></trkpt><trkpt lat="44.64719517895934" lon="11.658646625238081"><ele>11.0</ele><time>2026-04-04T17:27:16Z</time></trkpt><trkpt lat="44.64728648738005" lon="11.658573478915695"><ele>11.0</ele><time>2026-04-04T17:27:17Z</time></trkpt><trkpt lat="44.64737536383559" lon="11.658470791961758"><ele>11.0</ele><time>2026-04-04T17:27:18Z</time></trkpt><trkpt lat="44.647470617007436" lon="11.658375346521622"><ele>11.0</ele><time>2026-04-04T17:27:19Z</time></trkpt><trkpt lat="44.64756199651596" lon="11.65828379830019"><ele>11.0</ele><time>2026-04-04T17:27:20Z</time></trkpt><trkpt lat="44.647651561051156" lon="11.658190924425577"><ele>11.0</ele><time>2026-04-04T17:27:21Z</time></trkpt><trkpt lat="44.64773814311674" lon="11.658104639171489"><ele>11.0</ele><time>2026-04-04T17:27:22Z</time></trkpt><trkpt lat="44.64781932658592" lon="11.658022026220541"><ele>11.0</ele><time>2026-04-04T17:27:23Z</time></trkpt><trkpt lat="44.64789084455193" lon="11.657951610777452"><ele>11.0</ele><time>2026-04-04T17:27:24Z</time></trkpt><trkpt lat="44.64795665667124" lon="11.657901573348472"><ele>11.0</ele><time>2026-04-04T17:27:25Z</time></trkpt><trkpt lat="44.648018095536365" lon="11.657842043808264"><ele>11.0</ele><time>2026-04-04T17:27:26Z</time></trkpt><trkpt lat="44.64808419618627" lon="11.65776578736933"><ele>11.0</ele><time>2026-04-04T17:27:27Z</time></trkpt><trkpt lat="44.64815996844245" lon="11.657687212963424"><ele>11.0</ele><time>2026-04-04T17:27:28Z</time></trkpt><trkpt lat="44.64824275000167" lon="11.657597443633856"><ele>11.0</ele><time>2026-04-04T17:27:29Z</time></trkpt><trkpt lat="44.64832958647144" lon="11.657508361394816"><ele>11.0</ele><time>2026-04-04T17:27:30Z</time></trkpt><trkpt lat="44.648420894439774" lon="11.657413196342274"><ele>11.0</ele><time>2026-04-04T17:27:31Z</time></trkpt><trkpt lat="44.64851305897022" lon="11.657321978301477"><ele>11.0</ele><time>2026-04-04T17:27:32Z</time></trkpt><trkpt lat="44.64860056696825" lon="11.657228492652255"><ele>11.0</ele><time>2026-04-04T17:27:33Z</time></trkpt><trkpt lat="44.64869228014402" lon="11.657129934860015"><ele>11.0</ele><time>2026-04-04T17:27:34Z</time></trkpt><trkpt lat="44.64878650423898" lon="11.657025226272975"><ele>11.0</ele><time>2026-04-04T17:27:35Z</time></trkpt><trkpt lat="44.64888505694736" lon="11.656920867808823"><ele>10.8</ele><time>2026-04-04T17:27:36Z</time></trkpt><trkpt lat="44.64897589447647" lon="11.65682543539326"><ele>10.600000000000001</ele><time>2026-04-04T17:27:37Z</time></trkpt><trkpt lat="44.649060454200075" lon="11.6567329441196"><ele>10.4</ele><time>2026-04-04T17:27:38Z</time></trkpt><trkpt lat="44.64914562920788" lon="11.656632197861638"><ele>10.2</ele><time>2026-04-04T17:27:39Z</time></trkpt><trkpt lat="44.64923407609303" lon="11.656538135348814"><ele>10.0</ele><time>2026-04-04T17:27:40Z</time></trkpt><trkpt lat="44.64931742973386" lon="11.656453466456936"><ele>10.0</ele><time>2026-04-04T17:27:41Z</time></trkpt><trkpt lat="44.649400717673245" lon="11.656360688520548"><ele>10.0</ele><time>2026-04-04T17:27:42Z</time></trkpt><trkpt lat="44.64948426367966" lon="11.656273877069376"><ele>10.0</ele><time>2026-04-04T17:27:43Z</time></trkpt><trkpt lat="44.64955804051124" lon="11.656195726714078"><ele>10.0</ele><time>2026-04-04T17:27:44Z</time></trkpt><trkpt lat="44.649620257441924" lon="11.656125440731033"><ele>10.0</ele><time>2026-04-04T17:27:45Z</time></trkpt><trkpt lat="44.64969061783882" lon="11.656051133084805"><ele>10.25</ele><time>2026-04-04T17:27:46Z</time></trkpt><trkpt lat="44.64976646436517" lon="11.655981783312678"><ele>10.5</ele><time>2026-04-04T17:27:47Z</time></trkpt><trkpt lat="44.64986313288879" lon="11.655882450510878"><ele>10.75</ele><time>2026-04-04T17:27:48Z</time></trkpt><trkpt lat="44.64998446108248" lon="11.655759551242815"><ele>11.0</ele><time>2026-04-04T17:27:49Z</time></trkpt><trkpt lat="44.650111516423536" lon="11.65563289047454"><ele>11.0</ele><time>2026-04-04T17:27:50Z</time></trkpt><trkpt lat="44.65021472569837" lon="11.65552438628061"><ele>11.0</ele><time>2026-04-04T17:27:51Z</time></trkpt><trkpt lat="44.65031437041907" lon="11.65542078009693"><ele>11.0</ele><time>2026-04-04T17:27:52Z</time></trkpt><trkpt lat="44.65041283361164" lon="11.655319677480488"><ele>11.0</ele><time>2026-04-04T17:27:53Z</time></trkpt><trkpt lat="44.65051190820377" lon="11.655224748735785"><ele>10.8</ele><time>2026-04-04T17:27:54Z</time></trkpt><trkpt lat="44.65060591317561" lon="11.655130952715751"><ele>10.600000000000001</ele><time>2026-04-04T17:27:55Z</time></trkpt><trkpt lat="44.65069380993209" lon="11.65503912760431"><ele>10.4</ele><time>2026-04-04T17:27:56Z</time></trkpt><trkpt lat="44.65077502174475" lon="11.654954234775332"><ele>10.2</ele><time>2026-04-04T17:27:57Z</time></trkpt><trkpt lat="44.6508590583698" lon="11.654874120124513"><ele>10.0</ele><time>2026-04-04T17:27:58Z</time></trkpt><trkpt lat="44.65094750184414" lon="11.654791169389755"><ele>10.0</ele><time>2026-04-04T17:27:59Z</time></trkpt><trkpt lat="44.65102857677408" lon="11.65471081344585"><ele>10.0</ele><time>2026-04-04T17:28:00Z</time></trkpt><trkpt lat="44.65119281556571" lon="11.654548553420598"><ele>10.0</ele><time>2026-04-04T17:28:02Z</time></trkpt><trkpt lat="44.6512717211519" lon="11.654471030205208"><ele>10.0</ele><time>2026-04-04T17:28:03Z</time></trkpt><trkpt lat="44.651349276928435" lon="11.65439992472845"><ele>10.0</ele><time>2026-04-04T17:28:04Z</time></trkpt><trkpt lat="44.65142766358397" lon="11.654325580336716"><ele>10.0</ele><time>2026-04-04T17:28:05Z</time></trkpt><trkpt lat="44.651497542586824" lon="11.654261096811613"><ele>10.0</ele><time>2026-04-04T17:28:06Z</time></trkpt><trkpt lat="44.65155480446922" lon="11.654200443510744"><ele>10.0</ele><time>2026-04-04T17:28:07Z</time></trkpt><trkpt lat="44.65160793329113" lon="11.654141122734881"><ele>10.0</ele><time>2026-04-04T17:28:08Z</time></trkpt><trkpt lat="44.65166489729521" lon="11.654084629281623"><ele>10.0</ele><time>2026-04-04T17:28:09Z</time></trkpt><trkpt lat="44.65173034898815" lon="11.65401783294171"><ele>10.0</ele><time>2026-04-04T17:28:10Z</time></trkpt><trkpt lat="44.65179511707337" lon="11.65395502792225"><ele>10.0</ele><time>2026-04-04T17:28:11Z</time></trkpt><trkpt lat="44.65187152219706" lon="11.653873617371127"><ele>10.0</ele><time>2026-04-04T17:28:12Z</time></trkpt><trkpt lat="44.65193600092004" lon="11.653797973707357"><ele>10.0</ele><time>2026-04-04T17:28:13Z</time></trkpt><trkpt lat="44.65200037299443" lon="11.65373828325661"><ele>10.0</ele><time>2026-04-04T17:28:14Z</time></trkpt><trkpt lat="44.65207268115309" lon="11.653673118961292"><ele>10.0</ele><time>2026-04-04T17:28:15Z</time></trkpt><trkpt lat="44.65214730009471" lon="11.653584959166247"><ele>10.0</ele><time>2026-04-04T17:28:16Z</time></trkpt><trkpt lat="44.652206658473354" lon="11.653470763059843"><ele>10.0</ele><time>2026-04-04T17:28:17Z</time></trkpt><trkpt lat="44.65224638564377" lon="11.653337940404791"><ele>10.0</ele><time>2026-04-04T17:28:18Z</time></trkpt><trkpt lat="44.65227104132823" lon="11.65318824259312"><ele>10.0</ele><time>2026-04-04T17:28:19Z</time></trkpt><trkpt lat="44.65230240306887" lon="11.653051031803221"><ele>10.0</ele><time>2026-04-04T17:28:20Z</time></trkpt><trkpt lat="44.65234296907964" lon="11.652915829436735"><ele>10.0</ele><time>2026-04-04T17:28:21Z</time></trkpt><trkpt lat="44.652381829486195" lon="11.652800281017921"><ele>10.0</ele><time>2026-04-04T17:28:22Z</time></trkpt><trkpt lat="44.65241554116065" lon="11.652695506999098"><ele>10.0</ele><time>2026-04-04T17:28:23Z</time></trkpt><trkpt lat="44.652453070044366" lon="11.652604169326771"><ele>10.0</ele><time>2026-04-04T17:28:24Z</time></trkpt><trkpt lat="44.6525022045553" lon="11.6524976423727"><ele>10.0</ele><time>2026-04-04T17:28:25Z</time></trkpt><trkpt lat="44.65256888183169" lon="11.652383635609823"><ele>10.0</ele><time>2026-04-04T17:28:26Z</time></trkpt><trkpt lat="44.65261930978984" lon="11.6522961501557"><ele>10.166666666666668</ele><time>2026-04-04T17:28:27Z</time></trkpt><trkpt lat="44.652679762106324" lon="11.65220896743255"><ele>10.333333333333334</ele><time>2026-04-04T17:28:28Z</time></trkpt><trkpt lat="44.65273877309466" lon="11.652114291541864"><ele>10.5</ele><time>2026-04-04T17:28:29Z</time></trkpt><trkpt lat="44.652805035571575" lon="11.652032119935615"><ele>10.666666666666666</ele><time>2026-04-04T17:28:30Z</time></trkpt><trkpt lat="44.65286840933546" lon="11.651944577632744"><ele>10.833333333333332</ele><time>2026-04-04T17:28:31Z</time></trkpt><trkpt lat="44.65292832480319" lon="11.651863716000344"><ele>11.0</ele><time>2026-04-04T17:28:32Z</time></trkpt><trkpt lat="44.65298596961114" lon="11.651796650228013"><ele>11.0</ele><time>2026-04-04T17:28:33Z</time></trkpt><trkpt lat="44.65307883755774" lon="11.651707883443493"><ele>11.0</ele><time>2026-04-04T17:28:35Z</time></trkpt><trkpt lat="44.65316383069802" lon="11.651604699558103"><ele>11.0</ele><time>2026-04-04T17:28:37Z</time></trkpt><trkpt lat="44.653291404415796" lon="11.651577717532918"><ele>11.0</ele><time>2026-04-04T17:28:39Z</time></trkpt><trkpt lat="44.65336320193279" lon="11.65163462047027"><ele>11.0</ele><time>2026-04-04T17:28:40Z</time></trkpt><trkpt lat="44.65346419749648" lon="11.651699389141585"><ele>11.0</ele><time>2026-04-04T17:28:41Z</time></trkpt><trkpt lat="44.65358295414003" lon="11.651749553163835"><ele>11.0</ele><time>2026-04-04T17:28:42Z</time></trkpt><trkpt lat="44.65367312776411" lon="11.651806329291515"><ele>11.0</ele><time>2026-04-04T17:28:43Z</time></trkpt><trkpt lat="44.65375108814817" lon="11.6518291150753"><ele>11.0</ele><time>2026-04-04T17:28:44Z</time></trkpt><trkpt lat="44.65383044167507" lon="11.651788341654962"><ele>11.0</ele><time>2026-04-04T17:28:45Z</time></trkpt><trkpt lat="44.65390820483869" lon="11.651690105314097"><ele>10.75</ele><time>2026-04-04T17:28:46Z</time></trkpt><trkpt lat="44.653976094823115" lon="11.651548948382976"><ele>10.5</ele><time>2026-04-04T17:28:47Z</time></trkpt><trkpt lat="44.65404499954353" lon="11.651407191126125"><ele>10.25</ele><time>2026-04-04T17:28:48Z</time></trkpt><trkpt lat="44.65411674065945" lon="11.651269642663282"><ele>10.0</ele><time>2026-04-04T17:28:49Z</time></trkpt><trkpt lat="44.65420417302214" lon="11.651112643047465"><ele>9.8</ele><time>2026-04-04T17:28:50Z</time></trkpt><trkpt lat="44.654296366918736" lon="11.650955528839148"><ele>9.6</ele><time>2026-04-04T17:28:51Z</time></trkpt><trkpt lat="44.654377182123994" lon="11.650834918711283"><ele>9.4</ele><time>2026-04-04T17:28:52Z</time></trkpt><trkpt lat="44.6544483479399" lon="11.650740698790349"><ele>9.2</ele><time>2026-04-04T17:28:53Z</time></trkpt><trkpt lat="44.65451131335249" lon="11.650654724795883"><ele>9.0</ele><time>2026-04-04T17:28:54Z</time></trkpt><trkpt lat="44.65456709048288" lon="11.650554546037515"><ele>9.0</ele><time>2026-04-04T17:28:55Z</time></trkpt><trkpt lat="44.654627088894834" lon="11.650432621675144"><ele>9.0</ele><time>2026-04-04T17:28:56Z</time></trkpt><trkpt lat="44.654687988564284" lon="11.65030758297551"><ele>9.0</ele><time>2026-04-04T17:28:57Z</time></trkpt><trkpt lat="44.65474668155888" lon="11.650181342086999"><ele>9.0</ele><time>2026-04-04T17:28:58Z</time></trkpt><trkpt lat="44.654808539755145" lon="11.650060681906085"><ele>9.0</ele><time>2026-04-04T17:28:59Z</time></trkpt><trkpt lat="44.65485841086431" lon="11.649958697806793"><ele>9.0</ele><time>2026-04-04T17:29:00Z</time></trkpt><trkpt lat="44.654898995576644" lon="11.649865573927674"><ele>9.0</ele><time>2026-04-04T17:29:01Z</time></trkpt><trkpt lat="44.65493618099522" lon="11.649788641317043"><ele>9.0</ele><time>2026-04-04T17:29:02Z</time></trkpt><trkpt lat="44.65497891096247" lon="11.649703796985925"><ele>9.0</ele><time>2026-04-04T17:29:03Z</time></trkpt><trkpt lat="44.655040607784905" lon="11.649593932346272"><ele>9.0</ele><time>2026-04-04T17:29:04Z</time></trkpt><trkpt lat="44.65511220118805" lon="11.64945037486519"><ele>9.0</ele><time>2026-04-04T17:29:05Z</time></trkpt><trkpt lat="44.655177689369054" lon="11.649314110638205"><ele>9.0</ele><time>2026-04-04T17:29:06Z</time></trkpt><trkpt lat="44.655249491572704" lon="11.649162623307536"><ele>9.0</ele><time>2026-04-04T17:29:07Z</time></trkpt><trkpt lat="44.65532880553073" lon="11.649000316043507"><ele>9.0</ele><time>2026-04-04T17:29:08Z</time></trkpt><trkpt lat="44.65540976293293" lon="11.648831014047381"><ele>9.0</ele><time>2026-04-04T17:29:09Z</time></trkpt><trkpt lat="44.6554901397265" lon="11.648662895222143"><ele>9.0</ele><time>2026-04-04T17:29:10Z</time></trkpt><trkpt lat="44.655563497040774" lon="11.64851516361318"><ele>9.0</ele><time>2026-04-04T17:29:11Z</time></trkpt><trkpt lat="44.6556385891306" lon="11.648368456677503"><ele>9.0</ele><time>2026-04-04T17:29:12Z</time></trkpt><trkpt lat="44.655716641913685" lon="11.648215036889676"><ele>9.0</ele><time>2026-04-04T17:29:13Z</time></trkpt><trkpt lat="44.65579812914378" lon="11.648055372131106"><ele>9.0</ele><time>2026-04-04T17:29:14Z</time></trkpt><trkpt lat="44.65587834374666" lon="11.647895275779549"><ele>9.0</ele><time>2026-04-04T17:29:15Z</time></trkpt><trkpt lat="44.6559505623518" lon="11.647746262652747"><ele>9.0</ele><time>2026-04-04T17:29:16Z</time></trkpt><trkpt lat="44.65602358888018" lon="11.64760039380844"><ele>9.0</ele><time>2026-04-04T17:29:17Z</time></trkpt><trkpt lat="44.65609916974726" lon="11.647456438529725"><ele>9.0</ele><time>2026-04-04T17:29:18Z</time></trkpt><trkpt lat="44.65616213314399" lon="11.647324932330218"><ele>9.0</ele><time>2026-04-04T17:29:19Z</time></trkpt><trkpt lat="44.65621892503174" lon="11.647205503599332"><ele>9.0</ele><time>2026-04-04T17:29:20Z</time></trkpt><trkpt lat="44.65627575267389" lon="11.64708842133223"><ele>9.0</ele><time>2026-04-04T17:29:21Z</time></trkpt><trkpt lat="44.65632901025333" lon="11.646982365413072"><ele>9.0</ele><time>2026-04-04T17:29:22Z</time></trkpt><trkpt lat="44.6563794348862" lon="11.646880226506314"><ele>9.25</ele><time>2026-04-04T17:29:23Z</time></trkpt><trkpt lat="44.65643618493974" lon="11.646767066635713"><ele>9.5</ele><time>2026-04-04T17:29:24Z</time></trkpt><trkpt lat="44.6565018037516" lon="11.646643685099935"><ele>9.75</ele><time>2026-04-04T17:29:25Z</time></trkpt><trkpt lat="44.6565809970593" lon="11.646524127011448"><ele>10.0</ele><time>2026-04-04T17:29:26Z</time></trkpt><trkpt lat="44.656674740354646" lon="11.646388788821511"><ele>10.0</ele><time>2026-04-04T17:29:27Z</time></trkpt><trkpt lat="44.656779813234984" lon="11.646250812918614"><ele>10.0</ele><time>2026-04-04T17:29:28Z</time></trkpt><trkpt lat="44.656899200931505" lon="11.646109331513761"><ele>10.0</ele><time>2026-04-04T17:29:29Z</time></trkpt><trkpt lat="44.65701685293581" lon="11.645974471778677"><ele>10.0</ele><time>2026-04-04T17:29:30Z</time></trkpt><trkpt lat="44.6571242050943" lon="11.645849016954715"><ele>10.0</ele><time>2026-04-04T17:29:31Z</time></trkpt><trkpt lat="44.65723797145714" lon="11.645721163073922"><ele>10.0</ele><time>2026-04-04T17:29:32Z</time></trkpt><trkpt lat="44.65735260942361" lon="11.645597694128941"><ele>10.0</ele><time>2026-04-04T17:29:33Z</time></trkpt><trkpt lat="44.65746483559613" lon="11.645472862215165"><ele>10.0</ele><time>2026-04-04T17:29:34Z</time></trkpt><trkpt lat="44.65757286094971" lon="11.645342909361846"><ele>10.0</ele><time>2026-04-04T17:29:35Z</time></trkpt><trkpt lat="44.657683472072186" lon="11.645185942241632"><ele>10.0</ele><time>2026-04-04T17:29:36Z</time></trkpt><trkpt lat="44.65779916503957" lon="11.645027800744138"><ele>9.75</ele><time>2026-04-04T17:29:37Z</time></trkpt><trkpt lat="44.65790560656459" lon="11.644882022006382"><ele>9.5</ele><time>2026-04-04T17:29:38Z</time></trkpt><trkpt lat="44.65799792356226" lon="11.644749385224753"><ele>9.25</ele><time>2026-04-04T17:29:39Z</time></trkpt><trkpt lat="44.658086991861104" lon="11.644623869857444"><ele>9.0</ele><time>2026-04-04T17:29:40Z</time></trkpt><trkpt lat="44.658174707525426" lon="11.64450049859432"><ele>9.2</ele><time>2026-04-04T17:29:41Z</time></trkpt><trkpt lat="44.658263748256054" lon="11.644392852974628"><ele>9.4</ele><time>2026-04-04T17:29:42Z</time></trkpt><trkpt lat="44.65833122188604" lon="11.644289110616153"><ele>9.6</ele><time>2026-04-04T17:29:43Z</time></trkpt><trkpt lat="44.65839344843895" lon="11.644199790280148"><ele>9.8</ele><time>2026-04-04T17:29:44Z</time></trkpt><trkpt lat="44.658454367487785" lon="11.644117950522261"><ele>10.0</ele><time>2026-04-04T17:29:45Z</time></trkpt><trkpt lat="44.658511435032445" lon="11.64403280152385"><ele>10.0</ele><time>2026-04-04T17:29:46Z</time></trkpt><trkpt lat="44.6585774169213" lon="11.643943504202108"><ele>10.0</ele><time>2026-04-04T17:29:47Z</time></trkpt><trkpt lat="44.658634500709084" lon="11.643861067127949"><ele>10.0</ele><time>2026-04-04T17:29:48Z</time></trkpt><trkpt lat="44.65868576102105" lon="11.643784052051634"><ele>10.0</ele><time>2026-04-04T17:29:49Z</time></trkpt><trkpt lat="44.65877406773537" lon="11.643672102258646"><ele>10.0</ele><time>2026-04-04T17:29:51Z</time></trkpt><trkpt lat="44.65884895418085" lon="11.643574605469842"><ele>10.0</ele><time>2026-04-04T17:29:53Z</time></trkpt><trkpt lat="44.65889684083682" lon="11.643492184150913"><ele>10.0</ele><time>2026-04-04T17:29:55Z</time></trkpt><trkpt lat="44.65895341853926" lon="11.643438204565744"><ele>10.0</ele><time>2026-04-04T17:29:57Z</time></trkpt><trkpt lat="44.659047825405366" lon="11.643455059843605"><ele>10.0</ele><time>2026-04-04T17:30:00Z</time></trkpt><trkpt lat="44.65909396852561" lon="11.643528507775523"><ele>10.0</ele><time>2026-04-04T17:30:01Z</time></trkpt><trkpt lat="44.65914049957673" lon="11.643603220878518"><ele>10.0</ele><time>2026-04-04T17:30:02Z</time></trkpt><trkpt lat="44.659194385054775" lon="11.643692161326047"><ele>10.0</ele><time>2026-04-04T17:30:03Z</time></trkpt><trkpt lat="44.6592571186936" lon="11.643792854974912"><ele>10.0</ele><time>2026-04-04T17:30:04Z</time></trkpt><trkpt lat="44.65932107183904" lon="11.643888124466216"><ele>10.0</ele><time>2026-04-04T17:30:05Z</time></trkpt><trkpt lat="44.65938682749644" lon="11.643985142849557"><ele>10.0</ele><time>2026-04-04T17:30:06Z</time></trkpt><trkpt lat="44.65944882497857" lon="11.644076937620657"><ele>10.0</ele><time>2026-04-04T17:30:07Z</time></trkpt><trkpt lat="44.65949873603389" lon="11.644156397769434"><ele>10.0</ele><time>2026-04-04T17:30:08Z</time></trkpt><trkpt lat="44.65958556157785" lon="11.644280256984771"><ele>10.285714285714285</ele><time>2026-04-04T17:30:10Z</time></trkpt><trkpt lat="44.65964530693798" lon="11.64431248371055"><ele>10.571428571428571</ele><time>2026-04-04T17:30:11Z</time></trkpt><trkpt lat="44.6597098740109" lon="11.644316387548646"><ele>10.857142857142858</ele><time>2026-04-04T17:30:12Z</time></trkpt><trkpt lat="44.65977384171831" lon="11.64429250908732"><ele>11.142857142857142</ele><time>2026-04-04T17:30:13Z</time></trkpt><trkpt lat="44.65983433744466" lon="11.644250956157665"><ele>11.428571428571429</ele><time>2026-04-04T17:30:14Z</time></trkpt><trkpt lat="44.65989236440161" lon="11.644211378336516"><ele>11.714285714285714</ele><time>2026-04-04T17:30:15Z</time></trkpt><trkpt lat="44.65995161520403" lon="11.644181470803238"><ele>12.0</ele><time>2026-04-04T17:30:16Z</time></trkpt><trkpt lat="44.66002514188887" lon="11.644167210678317"><ele>12.0</ele><time>2026-04-04T17:30:17Z</time></trkpt><trkpt lat="44.660105930148745" lon="11.644176022292612"><ele>12.0</ele><time>2026-04-04T17:30:18Z</time></trkpt><trkpt lat="44.6601811712243" lon="11.64420782720307"><ele>12.0</ele><time>2026-04-04T17:30:19Z</time></trkpt><trkpt lat="44.660278094263745" lon="11.64425664171649"><ele>12.0</ele><time>2026-04-04T17:30:20Z</time></trkpt><trkpt lat="44.660389695471444" lon="11.64432879365038"><ele>12.0</ele><time>2026-04-04T17:30:21Z</time></trkpt><trkpt lat="44.66048979165954" lon="11.644409326186821"><ele>11.0</ele><time>2026-04-04T17:30:22Z</time></trkpt><trkpt lat="44.660593816453996" lon="11.644474953192107"><ele>10.0</ele><time>2026-04-04T17:30:23Z</time></trkpt><trkpt lat="44.660700061872376" lon="11.644540554577178"><ele>9.0</ele><time>2026-04-04T17:30:24Z</time></trkpt><trkpt lat="44.66080368082851" lon="11.644601127933068"><ele>8.0</ele><time>2026-04-04T17:30:25Z</time></trkpt><trkpt lat="44.660907391188395" lon="11.644672034755589"><ele>8.0</ele><time>2026-04-04T17:30:26Z</time></trkpt><trkpt lat="44.661025426911976" lon="11.644745866994878"><ele>8.0</ele><time>2026-04-04T17:30:27Z</time></trkpt><trkpt lat="44.66115066687335" lon="11.644825801430848"><ele>8.0</ele><time>2026-04-04T17:30:28Z</time></trkpt><trkpt lat="44.66128791471095" lon="11.644911551750347"><ele>8.0</ele><time>2026-04-04T17:30:29Z</time></trkpt><trkpt lat="44.661422564095126" lon="11.644995289382454"><ele>8.25</ele><time>2026-04-04T17:30:30Z</time></trkpt><trkpt lat="44.66154043080116" lon="11.645076404215875"><ele>8.5</ele><time>2026-04-04T17:30:31Z</time></trkpt><trkpt lat="44.661655759359746" lon="11.64515481699215"><ele>8.75</ele><time>2026-04-04T17:30:32Z</time></trkpt><trkpt lat="44.66177353217823" lon="11.64523356069189"><ele>9.0</ele><time>2026-04-04T17:30:33Z</time></trkpt><trkpt lat="44.6618950526763" lon="11.64531164683599"><ele>9.0</ele><time>2026-04-04T17:30:34Z</time></trkpt><trkpt lat="44.662016209309414" lon="11.645389151663485"><ele>9.0</ele><time>2026-04-04T17:30:35Z</time></trkpt><trkpt lat="44.6621350212295" lon="11.645466152124447"><ele>9.0</ele><time>2026-04-04T17:30:36Z</time></trkpt><trkpt lat="44.662252411504724" lon="11.645544806893097"><ele>9.0</ele><time>2026-04-04T17:30:37Z</time></trkpt><trkpt lat="44.66237336985095" lon="11.645627423267841"><ele>9.0</ele><time>2026-04-04T17:30:38Z</time></trkpt><trkpt lat="44.66248987399688" lon="11.645704966533408"><ele>9.0</ele><time>2026-04-04T17:30:39Z</time></trkpt><trkpt lat="44.662602078335894" lon="11.645780205660593"><ele>9.0</ele><time>2026-04-04T17:30:40Z</time></trkpt><trkpt lat="44.662718771761206" lon="11.645857954040272"><ele>9.0</ele><time>2026-04-04T17:30:41Z</time></trkpt><trkpt lat="44.66283297887474" lon="11.645932630511389"><ele>9.25</ele><time>2026-04-04T17:30:42Z</time></trkpt><trkpt lat="44.66295031190014" lon="11.64600966614012"><ele>9.5</ele><time>2026-04-04T17:30:43Z</time></trkpt><trkpt lat="44.66307841510283" lon="11.646093024792972"><ele>9.75</ele><time>2026-04-04T17:30:44Z</time></trkpt><trkpt lat="44.66319319683374" lon="11.646172586655318"><ele>10.0</ele><time>2026-04-04T17:30:45Z</time></trkpt><trkpt lat="44.66330667036673" lon="11.646246771653606"><ele>10.0</ele><time>2026-04-04T17:30:46Z</time></trkpt><trkpt lat="44.663419395926965" lon="11.646323982249132"><ele>10.0</ele><time>2026-04-04T17:30:47Z</time></trkpt><trkpt lat="44.6635361969193" lon="11.646403232096247"><ele>10.0</ele><time>2026-04-04T17:30:48Z</time></trkpt><trkpt lat="44.66364862419183" lon="11.646474676462955"><ele>10.0</ele><time>2026-04-04T17:30:49Z</time></trkpt><trkpt lat="44.66375910331231" lon="11.646545802972128"><ele>9.5</ele><time>2026-04-04T17:30:50Z</time></trkpt><trkpt lat="44.66386664916687" lon="11.646615029294466"><ele>9.0</ele><time>2026-04-04T17:30:51Z</time></trkpt><trkpt lat="44.6639754904021" lon="11.646686211655364"><ele>8.5</ele><time>2026-04-04T17:30:52Z</time></trkpt><trkpt lat="44.664083750663764" lon="11.646755482054928"><ele>8.0</ele><time>2026-04-04T17:30:53Z</time></trkpt><trkpt lat="44.66419501351489" lon="11.646828308248296"><ele>8.0</ele><time>2026-04-04T17:30:54Z</time></trkpt><trkpt lat="44.66430129027753" lon="11.646896930597286"><ele>8.0</ele><time>2026-04-04T17:30:55Z</time></trkpt><trkpt lat="44.66440495695539" lon="11.64696360334474"><ele>8.0</ele><time>2026-04-04T17:30:56Z</time></trkpt><trkpt lat="44.664507198932846" lon="11.647026034190622"><ele>8.0</ele><time>2026-04-04T17:30:57Z</time></trkpt><trkpt lat="44.66461055213891" lon="11.647088693543774"><ele>8.25</ele><time>2026-04-04T17:30:58Z</time></trkpt><trkpt lat="44.66471612663328" lon="11.647155840735875"><ele>8.5</ele><time>2026-04-04T17:30:59Z</time></trkpt><trkpt lat="44.66481928075999" lon="11.647213088580463"><ele>8.75</ele><time>2026-04-04T17:31:00Z</time></trkpt><trkpt lat="44.6649213495163" lon="11.647276728130324"><ele>9.0</ele><time>2026-04-04T17:31:01Z</time></trkpt><trkpt lat="44.66502523477443" lon="11.647353595179421"><ele>9.0</ele><time>2026-04-04T17:31:02Z</time></trkpt><trkpt lat="44.66513966397516" lon="11.647430969319535"><ele>9.0</ele><time>2026-04-04T17:31:03Z</time></trkpt><trkpt lat="44.66525870326384" lon="11.647498974910972"><ele>9.0</ele><time>2026-04-04T17:31:04Z</time></trkpt><trkpt lat="44.665383724618174" lon="11.64757444837328"><ele>9.0</ele><time>2026-04-04T17:31:05Z</time></trkpt><trkpt lat="44.665507960583696" lon="11.64766068921162"><ele>9.0</ele><time>2026-04-04T17:31:06Z</time></trkpt><trkpt lat="44.66562944316912" lon="11.64775044120543"><ele>9.0</ele><time>2026-04-04T17:31:07Z</time></trkpt><trkpt lat="44.66575495943267" lon="11.647834014049264"><ele>9.0</ele><time>2026-04-04T17:31:08Z</time></trkpt><trkpt lat="44.66587973326006" lon="11.647924171136468"><ele>9.0</ele><time>2026-04-04T17:31:09Z</time></trkpt><trkpt lat="44.666000828375786" lon="11.648020962697244"><ele>8.75</ele><time>2026-04-04T17:31:10Z</time></trkpt><trkpt lat="44.66611606696289" lon="11.648112460293307"><ele>8.5</ele><time>2026-04-04T17:31:11Z</time></trkpt><trkpt lat="44.66622928697175" lon="11.648201028715038"><ele>8.25</ele><time>2026-04-04T17:31:12Z</time></trkpt><trkpt lat="44.66634587272903" lon="11.648291734840148"><ele>8.0</ele><time>2026-04-04T17:31:13Z</time></trkpt><trkpt lat="44.66646481290436" lon="11.64838698465569"><ele>8.0</ele><time>2026-04-04T17:31:14Z</time></trkpt><trkpt lat="44.66658401137847" lon="11.648476460630478"><ele>8.0</ele><time>2026-04-04T17:31:15Z</time></trkpt><trkpt lat="44.66670195996811" lon="11.648573389467344"><ele>8.0</ele><time>2026-04-04T17:31:16Z</time></trkpt><trkpt lat="44.66682283783267" lon="11.64866909300724"><ele>8.0</ele><time>2026-04-04T17:31:17Z</time></trkpt><trkpt lat="44.666942666935746" lon="11.648762714930232"><ele>7.75</ele><time>2026-04-04T17:31:18Z</time></trkpt><trkpt lat="44.667059438647556" lon="11.648855350240936"><ele>7.5</ele><time>2026-04-04T17:31:19Z</time></trkpt><trkpt lat="44.66717104676162" lon="11.648943786165795"><ele>7.25</ele><time>2026-04-04T17:31:20Z</time></trkpt><trkpt lat="44.66728784026554" lon="11.649031941656798"><ele>7.0</ele><time>2026-04-04T17:31:21Z</time></trkpt><trkpt lat="44.66739986266508" lon="11.64912160416687"><ele>7.0</ele><time>2026-04-04T17:31:22Z</time></trkpt><trkpt lat="44.66751160385017" lon="11.649209777279285"><ele>7.0</ele><time>2026-04-04T17:31:23Z</time></trkpt><trkpt lat="44.667621046847664" lon="11.649300288517018"><ele>7.0</ele><time>2026-04-04T17:31:24Z</time></trkpt><trkpt lat="44.66773113389023" lon="11.649389535851489"><ele>7.0</ele><time>2026-04-04T17:31:25Z</time></trkpt><trkpt lat="44.66784035448802" lon="11.649477361762061"><ele>7.5</ele><time>2026-04-04T17:31:26Z</time></trkpt><trkpt lat="44.66795129984086" lon="11.6495664414495"><ele>8.0</ele><time>2026-04-04T17:31:27Z</time></trkpt><trkpt lat="44.668058956464016" lon="11.649656529167574"><ele>8.5</ele><time>2026-04-04T17:31:28Z</time></trkpt><trkpt lat="44.66816881345677" lon="11.64974148239929"><ele>9.0</ele><time>2026-04-04T17:31:29Z</time></trkpt><trkpt lat="44.66827832231313" lon="11.64983410734894"><ele>9.0</ele><time>2026-04-04T17:31:30Z</time></trkpt><trkpt lat="44.668372001596964" lon="11.649922497451058"><ele>9.0</ele><time>2026-04-04T17:31:31Z</time></trkpt><trkpt lat="44.668467431752305" lon="11.650002409380598"><ele>9.0</ele><time>2026-04-04T17:31:32Z</time></trkpt><trkpt lat="44.66855264488938" lon="11.65008941387259"><ele>9.0</ele><time>2026-04-04T17:31:33Z</time></trkpt><trkpt lat="44.66863799937943" lon="11.650164461258038"><ele>9.0</ele><time>2026-04-04T17:31:34Z</time></trkpt><trkpt lat="44.668726986039715" lon="11.650244026619141"><ele>8.8</ele><time>2026-04-04T17:31:35Z</time></trkpt><trkpt lat="44.66881659044716" lon="11.650320213454327"><ele>8.600000000000001</ele><time>2026-04-04T17:31:36Z</time></trkpt><trkpt lat="44.668909922393915" lon="11.650403229102821"><ele>8.4</ele><time>2026-04-04T17:31:37Z</time></trkpt><trkpt lat="44.669003770942155" lon="11.650485211255097"><ele>8.200000000000001</ele><time>2026-04-04T17:31:38Z</time></trkpt><trkpt lat="44.6690955930148" lon="11.650573818482327"><ele>8.0</ele><time>2026-04-04T17:31:39Z</time></trkpt><trkpt lat="44.669189942235256" lon="11.650662991585119"><ele>8.0</ele><time>2026-04-04T17:31:40Z</time></trkpt><trkpt lat="44.669291439087175" lon="11.650755931170574"><ele>8.0</ele><time>2026-04-04T17:31:41Z</time></trkpt><trkpt lat="44.66939126045664" lon="11.650847800044815"><ele>8.0</ele><time>2026-04-04T17:31:42Z</time></trkpt><trkpt lat="44.66949376094934" lon="11.650939607343823"><ele>8.0</ele><time>2026-04-04T17:31:43Z</time></trkpt><trkpt lat="44.66959363710328" lon="11.651034081825024"><ele>8.0</ele><time>2026-04-04T17:31:44Z</time></trkpt><trkpt lat="44.669695020665806" lon="11.651130384458742"><ele>8.0</ele><time>2026-04-04T17:31:45Z</time></trkpt><trkpt lat="44.66980427442578" lon="11.651235023822478"><ele>8.0</ele><time>2026-04-04T17:31:46Z</time></trkpt><trkpt lat="44.669918622257526" lon="11.651333527325077"><ele>8.0</ele><time>2026-04-04T17:31:47Z</time></trkpt><trkpt lat="44.67001633104017" lon="11.65142299435973"><ele>8.0</ele><time>2026-04-04T17:31:48Z</time></trkpt><trkpt lat="44.6701040180904" lon="11.651510311239912"><ele>8.0</ele><time>2026-04-04T17:31:49Z</time></trkpt><trkpt lat="44.670200570492106" lon="11.65160253263147"><ele>8.0</ele><time>2026-04-04T17:31:50Z</time></trkpt><trkpt lat="44.67029136931807" lon="11.651706512663498"><ele>8.0</ele><time>2026-04-04T17:31:51Z</time></trkpt><trkpt lat="44.67039411911981" lon="11.65179797547151"><ele>8.0</ele><time>2026-04-04T17:31:52Z</time></trkpt><trkpt lat="44.670498243712636" lon="11.651895203240866"><ele>8.0</ele><time>2026-04-04T17:31:53Z</time></trkpt><trkpt lat="44.6705993828547" lon="11.651995483930419"><ele>8.0</ele><time>2026-04-04T17:31:54Z</time></trkpt><trkpt lat="44.670700487626945" lon="11.652100188950108"><ele>8.0</ele><time>2026-04-04T17:31:55Z</time></trkpt><trkpt lat="44.67081401050498" lon="11.652211740996245"><ele>8.0</ele><time>2026-04-04T17:31:56Z</time></trkpt><trkpt lat="44.67091836562002" lon="11.652315721061877"><ele>8.0</ele><time>2026-04-04T17:31:57Z</time></trkpt><trkpt lat="44.67100791222422" lon="11.652409039331012"><ele>8.0</ele><time>2026-04-04T17:31:58Z</time></trkpt><trkpt lat="44.67108702811354" lon="11.652494349917008"><ele>8.0</ele><time>2026-04-04T17:31:59Z</time></trkpt><trkpt lat="44.671161268041864" lon="11.652570939504324"><ele>8.0</ele><time>2026-04-04T17:32:00Z</time></trkpt><trkpt lat="44.671228336804404" lon="11.652642811255433"><ele>7.999999999999999</ele><time>2026-04-04T17:32:01Z</time></trkpt><trkpt lat="44.671295223979946" lon="11.65271662681639"><ele>8.0</ele><time>2026-04-04T17:32:02Z</time></trkpt><trkpt lat="44.67137013904432" lon="11.652790666251693"><ele>8.0</ele><time>2026-04-04T17:32:03Z</time></trkpt><trkpt lat="44.67143568111213" lon="11.652862978477364"><ele>8.0</ele><time>2026-04-04T17:32:04Z</time></trkpt><trkpt lat="44.67148915744495" lon="11.65292432615207"><ele>7.999999999999999</ele><time>2026-04-04T17:32:05Z</time></trkpt><trkpt lat="44.67156297896397" lon="11.653035601912308"><ele>8.0</ele><time>2026-04-04T17:32:07Z</time></trkpt><trkpt lat="44.67161057097732" lon="11.653100845255935"><ele>8.0</ele><time>2026-04-04T17:32:09Z</time></trkpt><trkpt lat="44.67170295570477" lon="11.652986556565141"><ele>8.0</ele><time>2026-04-04T17:32:10Z</time></trkpt><trkpt lat="44.67175845033249" lon="11.652924270666526"><ele>8.0</ele><time>2026-04-04T17:32:11Z</time></trkpt><trkpt lat="44.671862051439824" lon="11.652826733268546"><ele>8.0</ele><time>2026-04-04T17:32:13Z</time></trkpt><trkpt lat="44.67192128937218" lon="11.652770084599876"><ele>8.0</ele><time>2026-04-04T17:32:14Z</time></trkpt><trkpt lat="44.67198831867572" lon="11.652711292874475"><ele>7.800000000000001</ele><time>2026-04-04T17:32:15Z</time></trkpt><trkpt lat="44.67205385465884" lon="11.652640944095372"><ele>7.6000000000000005</ele><time>2026-04-04T17:32:16Z</time></trkpt><trkpt lat="44.67211158987006" lon="11.652589975841916"><ele>7.3999999999999995</ele><time>2026-04-04T17:32:17Z</time></trkpt><trkpt lat="44.67219578032053" lon="11.65250586858341"><ele>7.199999999999999</ele><time>2026-04-04T17:32:19Z</time></trkpt><trkpt lat="44.672285420407135" lon="11.652421925127578"><ele>7.0</ele><time>2026-04-04T17:32:21Z</time></trkpt><trkpt lat="44.67237619851075" lon="11.652323637299531"><ele>7.0</ele><time>2026-04-04T17:32:23Z</time></trkpt><trkpt lat="44.672448700848875" lon="11.652253039474704"><ele>6.999999999999999</ele><time>2026-04-04T17:32:25Z</time></trkpt><trkpt lat="44.67251137729269" lon="11.652222189192848"><ele>6.999999999999999</ele><time>2026-04-04T17:32:27Z</time></trkpt><trkpt lat="44.672573806041356" lon="11.652164488389996"><ele>7.0</ele><time>2026-04-04T17:32:30Z</time></trkpt><trkpt lat="44.672636534359576" lon="11.652134457326552"><ele>7.0</ele><time>2026-04-04T17:32:48Z</time></trkpt><trkpt lat="44.67274897667627" lon="11.652354525700769"><ele>7.0</ele><time>2026-04-04T17:32:53Z</time></trkpt><trkpt lat="44.67278919301459" lon="11.652447469552651"><ele>5.0</ele><time>2026-04-04T17:32:56Z</time></trkpt><trkpt lat="44.67274641005417" lon="11.652534490181779"><ele>7.0</ele><time>2026-04-04T17:32:59Z</time></trkpt><trkpt lat="44.672681006709006" lon="11.652562674385422"><ele>7.0</ele><time>2026-04-04T17:33:03Z</time></trkpt></trkseg></trk></gpx>